<?xml version="1.0" encoding="UTF-8" standalone="no" ?>
<gpx xmlns="http://www.topografix.com/GPX/1/1" xmlns:xsi="http://www.w3.org/2001/XMLSchema-instance" xsi:schemaLocation="http://www.topografix.com/GPX/1/1 http://www.topografix.com/GPX/1/1/gpx.xsd" version="1.1" creator="VisuGPX - https://www.visugpx.com">
  <metadata>
    <name>Lamanon </name>
  </metadata>
  <trk>
    <name><![CDATA[Lamanon ]]></name>
    <extensions>
      <line xmlns="http://www.topografix.com/GPX/gpx_style/0/2">
        <color>0000FF</color>
        <width>4</width>
      </line>
    </extensions>
    <trkseg>
      <trkpt lat="43.70004" lon="5.0839">
        <ele>112</ele>
        <time>2019-09-26T07:17:50Z</time>
      </trkpt>
      <trkpt lat="43.70005" lon="5.08389">
        <ele>112</ele>
        <time>2019-09-26T07:17:51Z</time>
      </trkpt>
      <trkpt lat="43.70006" lon="5.08387">
        <ele>112</ele>
        <time>2019-09-26T07:17:54Z</time>
      </trkpt>
      <trkpt lat="43.70007" lon="5.08386">
        <ele>112</ele>
        <time>2019-09-26T07:17:56Z</time>
      </trkpt>
      <trkpt lat="43.70008" lon="5.08384">
        <ele>112</ele>
        <time>2019-09-26T07:17:58Z</time>
      </trkpt>
      <trkpt lat="43.70009" lon="5.08382">
        <ele>112</ele>
        <time>2019-09-26T07:17:59Z</time>
      </trkpt>
      <trkpt lat="43.7001" lon="5.08381">
        <ele>112</ele>
        <time>2019-09-26T07:18:00Z</time>
      </trkpt>
      <trkpt lat="43.7001" lon="5.08379">
        <ele>112</ele>
        <time>2019-09-26T07:18:02Z</time>
      </trkpt>
      <trkpt lat="43.70011" lon="5.08378">
        <ele>112</ele>
        <time>2019-09-26T07:18:04Z</time>
      </trkpt>
      <trkpt lat="43.70012" lon="5.08376">
        <ele>112</ele>
        <time>2019-09-26T07:18:06Z</time>
      </trkpt>
      <trkpt lat="43.70013" lon="5.08375">
        <ele>112</ele>
        <time>2019-09-26T07:18:08Z</time>
      </trkpt>
      <trkpt lat="43.70014" lon="5.08373">
        <ele>112</ele>
        <time>2019-09-26T07:18:09Z</time>
      </trkpt>
      <trkpt lat="43.70017" lon="5.08369">
        <ele>112</ele>
        <time>2019-09-26T07:18:10Z</time>
      </trkpt>
      <trkpt lat="43.70018" lon="5.08368">
        <ele>112</ele>
        <time>2019-09-26T07:18:12Z</time>
      </trkpt>
      <trkpt lat="43.70019" lon="5.08366">
        <ele>112</ele>
        <time>2019-09-26T07:18:14Z</time>
      </trkpt>
      <trkpt lat="43.7002" lon="5.08365">
        <ele>112</ele>
        <time>2019-09-26T07:18:16Z</time>
      </trkpt>
      <trkpt lat="43.70021" lon="5.08363">
        <ele>112</ele>
        <time>2019-09-26T07:18:18Z</time>
      </trkpt>
      <trkpt lat="43.70022" lon="5.08362">
        <ele>112</ele>
        <time>2019-09-26T07:18:19Z</time>
      </trkpt>
      <trkpt lat="43.70024" lon="5.08361">
        <ele>112</ele>
        <time>2019-09-26T07:18:20Z</time>
      </trkpt>
      <trkpt lat="43.70025" lon="5.08362">
        <ele>112</ele>
        <time>2019-09-26T07:18:23Z</time>
      </trkpt>
      <trkpt lat="43.70027" lon="5.08362">
        <ele>112</ele>
        <time>2019-09-26T07:18:28Z</time>
      </trkpt>
      <trkpt lat="43.70028" lon="5.08362">
        <ele>112</ele>
        <time>2019-09-26T07:18:29Z</time>
      </trkpt>
      <trkpt lat="43.7003" lon="5.08362">
        <ele>112</ele>
        <time>2019-09-26T07:18:30Z</time>
      </trkpt>
      <trkpt lat="43.70031" lon="5.08363">
        <ele>112</ele>
        <time>2019-09-26T07:18:32Z</time>
      </trkpt>
      <trkpt lat="43.70033" lon="5.08363">
        <ele>112</ele>
        <time>2019-09-26T07:18:34Z</time>
      </trkpt>
      <trkpt lat="43.70036" lon="5.08363">
        <ele>112</ele>
        <time>2019-09-26T07:18:37Z</time>
      </trkpt>
      <trkpt lat="43.70038" lon="5.08362">
        <ele>112</ele>
        <time>2019-09-26T07:18:39Z</time>
      </trkpt>
      <trkpt lat="43.70039" lon="5.0836">
        <ele>112</ele>
        <time>2019-09-26T07:18:42Z</time>
      </trkpt>
      <trkpt lat="43.70042" lon="5.08359">
        <ele>112</ele>
        <time>2019-09-26T07:18:45Z</time>
      </trkpt>
      <trkpt lat="43.70044" lon="5.08358">
        <ele>112</ele>
        <time>2019-09-26T07:18:47Z</time>
      </trkpt>
      <trkpt lat="43.70046" lon="5.08359">
        <ele>112</ele>
        <time>2019-09-26T07:18:49Z</time>
      </trkpt>
      <trkpt lat="43.7005" lon="5.08359">
        <ele>112</ele>
        <time>2019-09-26T07:18:51Z</time>
      </trkpt>
      <trkpt lat="43.70051" lon="5.0836">
        <ele>112</ele>
        <time>2019-09-26T07:18:53Z</time>
      </trkpt>
      <trkpt lat="43.70053" lon="5.0836">
        <ele>112</ele>
        <time>2019-09-26T07:18:55Z</time>
      </trkpt>
      <trkpt lat="43.70054" lon="5.0836">
        <ele>112</ele>
        <time>2019-09-26T07:18:58Z</time>
      </trkpt>
      <trkpt lat="43.70056" lon="5.0836">
        <ele>112</ele>
        <time>2019-09-26T07:18:59Z</time>
      </trkpt>
      <trkpt lat="43.70059" lon="5.08361">
        <ele>112</ele>
        <time>2019-09-26T07:19:00Z</time>
      </trkpt>
      <trkpt lat="43.7006" lon="5.08362">
        <ele>112</ele>
        <time>2019-09-26T07:19:02Z</time>
      </trkpt>
      <trkpt lat="43.70061" lon="5.08362">
        <ele>112</ele>
        <time>2019-09-26T07:19:04Z</time>
      </trkpt>
      <trkpt lat="43.70063" lon="5.08363">
        <ele>112</ele>
        <time>2019-09-26T07:19:06Z</time>
      </trkpt>
      <trkpt lat="43.70064" lon="5.08364">
        <ele>112</ele>
        <time>2019-09-26T07:19:08Z</time>
      </trkpt>
      <trkpt lat="43.70066" lon="5.08365">
        <ele>112</ele>
        <time>2019-09-26T07:19:09Z</time>
      </trkpt>
      <trkpt lat="43.70067" lon="5.08367">
        <ele>112</ele>
        <time>2019-09-26T07:19:10Z</time>
      </trkpt>
      <trkpt lat="43.70068" lon="5.08369">
        <ele>112</ele>
        <time>2019-09-26T07:19:12Z</time>
      </trkpt>
      <trkpt lat="43.7007" lon="5.08371">
        <ele>112</ele>
        <time>2019-09-26T07:19:14Z</time>
      </trkpt>
      <trkpt lat="43.70072" lon="5.08374">
        <ele>112</ele>
        <time>2019-09-26T07:19:16Z</time>
      </trkpt>
      <trkpt lat="43.70073" lon="5.08377">
        <ele>112</ele>
        <time>2019-09-26T07:19:19Z</time>
      </trkpt>
      <trkpt lat="43.70075" lon="5.08379">
        <ele>112</ele>
        <time>2019-09-26T07:19:21Z</time>
      </trkpt>
      <trkpt lat="43.70076" lon="5.08381">
        <ele>112</ele>
        <time>2019-09-26T07:19:23Z</time>
      </trkpt>
      <trkpt lat="43.70078" lon="5.08383">
        <ele>112</ele>
        <time>2019-09-26T07:19:25Z</time>
      </trkpt>
      <trkpt lat="43.7008" lon="5.08385">
        <ele>112</ele>
        <time>2019-09-26T07:19:27Z</time>
      </trkpt>
      <trkpt lat="43.70082" lon="5.08387">
        <ele>112</ele>
        <time>2019-09-26T07:19:29Z</time>
      </trkpt>
      <trkpt lat="43.70084" lon="5.08388">
        <ele>112</ele>
        <time>2019-09-26T07:19:31Z</time>
      </trkpt>
      <trkpt lat="43.70085" lon="5.0839">
        <ele>112</ele>
        <time>2019-09-26T07:19:33Z</time>
      </trkpt>
      <trkpt lat="43.70087" lon="5.08389">
        <ele>112</ele>
        <time>2019-09-26T07:19:36Z</time>
      </trkpt>
      <trkpt lat="43.70087" lon="5.08389">
        <ele>112</ele>
        <time>2019-09-26T07:19:39Z</time>
      </trkpt>
      <trkpt lat="43.70091" lon="5.08387">
        <ele>112</ele>
        <time>2019-09-26T07:19:40Z</time>
      </trkpt>
      <trkpt lat="43.70092" lon="5.08386">
        <ele>112</ele>
        <time>2019-09-26T07:19:43Z</time>
      </trkpt>
      <trkpt lat="43.70094" lon="5.08385">
        <ele>112</ele>
        <time>2019-09-26T07:19:45Z</time>
      </trkpt>
      <trkpt lat="43.70095" lon="5.08384">
        <ele>112</ele>
        <time>2019-09-26T07:19:48Z</time>
      </trkpt>
      <trkpt lat="43.70097" lon="5.08383">
        <ele>112</ele>
        <time>2019-09-26T07:19:49Z</time>
      </trkpt>
      <trkpt lat="43.70098" lon="5.08382">
        <ele>112</ele>
        <time>2019-09-26T07:19:50Z</time>
      </trkpt>
      <trkpt lat="43.701" lon="5.0838">
        <ele>112</ele>
        <time>2019-09-26T07:19:53Z</time>
      </trkpt>
      <trkpt lat="43.70101" lon="5.08378">
        <ele>112</ele>
        <time>2019-09-26T07:19:55Z</time>
      </trkpt>
      <trkpt lat="43.70103" lon="5.08376">
        <ele>112</ele>
        <time>2019-09-26T07:19:57Z</time>
      </trkpt>
      <trkpt lat="43.70105" lon="5.08376">
        <ele>119</ele>
        <time>2019-09-26T07:19:59Z</time>
      </trkpt>
      <trkpt lat="43.70107" lon="5.08375">
        <ele>119</ele>
        <time>2019-09-26T07:20:01Z</time>
      </trkpt>
      <trkpt lat="43.70108" lon="5.08375">
        <ele>119</ele>
        <time>2019-09-26T07:20:03Z</time>
      </trkpt>
      <trkpt lat="43.70111" lon="5.08375">
        <ele>119</ele>
        <time>2019-09-26T07:20:05Z</time>
      </trkpt>
      <trkpt lat="43.70113" lon="5.08375">
        <ele>119</ele>
        <time>2019-09-26T07:20:07Z</time>
      </trkpt>
      <trkpt lat="43.70113" lon="5.08375">
        <ele>119</ele>
        <time>2019-09-26T07:20:09Z</time>
      </trkpt>
      <trkpt lat="43.70116" lon="5.08375">
        <ele>119</ele>
        <time>2019-09-26T07:20:10Z</time>
      </trkpt>
      <trkpt lat="43.70118" lon="5.08376">
        <ele>119</ele>
        <time>2019-09-26T07:20:12Z</time>
      </trkpt>
      <trkpt lat="43.70119" lon="5.08376">
        <ele>119</ele>
        <time>2019-09-26T07:20:15Z</time>
      </trkpt>
      <trkpt lat="43.7012" lon="5.08376">
        <ele>119</ele>
        <time>2019-09-26T07:20:18Z</time>
      </trkpt>
      <trkpt lat="43.70122" lon="5.08376">
        <ele>120</ele>
        <time>2019-09-26T07:20:19Z</time>
      </trkpt>
      <trkpt lat="43.70124" lon="5.08376">
        <ele>120</ele>
        <time>2019-09-26T07:20:21Z</time>
      </trkpt>
      <trkpt lat="43.70127" lon="5.08376">
        <ele>120</ele>
        <time>2019-09-26T07:20:24Z</time>
      </trkpt>
      <trkpt lat="43.70129" lon="5.08375">
        <ele>120</ele>
        <time>2019-09-26T07:20:27Z</time>
      </trkpt>
      <trkpt lat="43.70129" lon="5.08375">
        <ele>121</ele>
        <time>2019-09-26T07:20:29Z</time>
      </trkpt>
      <trkpt lat="43.70133" lon="5.08374">
        <ele>121</ele>
        <time>2019-09-26T07:20:30Z</time>
      </trkpt>
      <trkpt lat="43.70134" lon="5.08373">
        <ele>121</ele>
        <time>2019-09-26T07:20:33Z</time>
      </trkpt>
      <trkpt lat="43.70135" lon="5.08372">
        <ele>121</ele>
        <time>2019-09-26T07:20:35Z</time>
      </trkpt>
      <trkpt lat="43.70136" lon="5.08371">
        <ele>121</ele>
        <time>2019-09-26T07:20:38Z</time>
      </trkpt>
      <trkpt lat="43.70138" lon="5.0837">
        <ele>121</ele>
        <time>2019-09-26T07:20:39Z</time>
      </trkpt>
      <trkpt lat="43.7014" lon="5.08367">
        <ele>121</ele>
        <time>2019-09-26T07:20:42Z</time>
      </trkpt>
      <trkpt lat="43.70141" lon="5.08367">
        <ele>121</ele>
        <time>2019-09-26T07:20:45Z</time>
      </trkpt>
      <trkpt lat="43.70142" lon="5.08366">
        <ele>121</ele>
        <time>2019-09-26T07:20:48Z</time>
      </trkpt>
      <trkpt lat="43.70143" lon="5.08365">
        <ele>123</ele>
        <time>2019-09-26T07:20:49Z</time>
      </trkpt>
      <trkpt lat="43.70146" lon="5.08366">
        <ele>123</ele>
        <time>2019-09-26T07:20:51Z</time>
      </trkpt>
      <trkpt lat="43.70147" lon="5.08366">
        <ele>123</ele>
        <time>2019-09-26T07:20:53Z</time>
      </trkpt>
      <trkpt lat="43.7015" lon="5.08367">
        <ele>123</ele>
        <time>2019-09-26T07:20:56Z</time>
      </trkpt>
      <trkpt lat="43.70153" lon="5.08369">
        <ele>124</ele>
        <time>2019-09-26T07:20:59Z</time>
      </trkpt>
      <trkpt lat="43.70156" lon="5.08371">
        <ele>124</ele>
        <time>2019-09-26T07:21:02Z</time>
      </trkpt>
      <trkpt lat="43.70157" lon="5.08372">
        <ele>124</ele>
        <time>2019-09-26T07:21:05Z</time>
      </trkpt>
      <trkpt lat="43.70158" lon="5.08373">
        <ele>124</ele>
        <time>2019-09-26T07:21:08Z</time>
      </trkpt>
      <trkpt lat="43.70159" lon="5.08373">
        <ele>126</ele>
        <time>2019-09-26T07:21:09Z</time>
      </trkpt>
      <trkpt lat="43.70162" lon="5.08375">
        <ele>126</ele>
        <time>2019-09-26T07:21:11Z</time>
      </trkpt>
      <trkpt lat="43.70164" lon="5.08377">
        <ele>126</ele>
        <time>2019-09-26T07:21:14Z</time>
      </trkpt>
      <trkpt lat="43.70166" lon="5.0838">
        <ele>126</ele>
        <time>2019-09-26T07:21:17Z</time>
      </trkpt>
      <trkpt lat="43.70167" lon="5.08382">
        <ele>128</ele>
        <time>2019-09-26T07:21:20Z</time>
      </trkpt>
      <trkpt lat="43.70169" lon="5.08386">
        <ele>128</ele>
        <time>2019-09-26T07:21:23Z</time>
      </trkpt>
      <trkpt lat="43.70169" lon="5.08387">
        <ele>128</ele>
        <time>2019-09-26T07:21:26Z</time>
      </trkpt>
      <trkpt lat="43.7017" lon="5.08388">
        <ele>128</ele>
        <time>2019-09-26T07:21:28Z</time>
      </trkpt>
      <trkpt lat="43.7017" lon="5.0839">
        <ele>128</ele>
        <time>2019-09-26T07:21:29Z</time>
      </trkpt>
      <trkpt lat="43.70172" lon="5.08392">
        <ele>128</ele>
        <time>2019-09-26T07:21:31Z</time>
      </trkpt>
      <trkpt lat="43.70174" lon="5.08394">
        <ele>128</ele>
        <time>2019-09-26T07:21:33Z</time>
      </trkpt>
      <trkpt lat="43.70175" lon="5.08396">
        <ele>128</ele>
        <time>2019-09-26T07:21:36Z</time>
      </trkpt>
      <trkpt lat="43.70177" lon="5.08398">
        <ele>129</ele>
        <time>2019-09-26T07:21:39Z</time>
      </trkpt>
      <trkpt lat="43.70178" lon="5.084">
        <ele>129</ele>
        <time>2019-09-26T07:21:43Z</time>
      </trkpt>
      <trkpt lat="43.7018" lon="5.08402">
        <ele>129</ele>
        <time>2019-09-26T07:21:46Z</time>
      </trkpt>
      <trkpt lat="43.70182" lon="5.08403">
        <ele>129</ele>
        <time>2019-09-26T07:21:49Z</time>
      </trkpt>
      <trkpt lat="43.70185" lon="5.08405">
        <ele>129</ele>
        <time>2019-09-26T07:21:51Z</time>
      </trkpt>
      <trkpt lat="43.70187" lon="5.08405">
        <ele>129</ele>
        <time>2019-09-26T07:21:52Z</time>
      </trkpt>
      <trkpt lat="43.7019" lon="5.08407">
        <ele>129</ele>
        <time>2019-09-26T07:21:54Z</time>
      </trkpt>
      <trkpt lat="43.70192" lon="5.08409">
        <ele>129</ele>
        <time>2019-09-26T07:21:56Z</time>
      </trkpt>
      <trkpt lat="43.70192" lon="5.08413">
        <ele>130</ele>
        <time>2019-09-26T07:21:59Z</time>
      </trkpt>
      <trkpt lat="43.70191" lon="5.08415">
        <ele>130</ele>
        <time>2019-09-26T07:22:02Z</time>
      </trkpt>
      <trkpt lat="43.70192" lon="5.08418">
        <ele>130</ele>
        <time>2019-09-26T07:22:06Z</time>
      </trkpt>
      <trkpt lat="43.70192" lon="5.08418">
        <ele>131</ele>
        <time>2019-09-26T07:22:09Z</time>
      </trkpt>
      <trkpt lat="43.70192" lon="5.08418">
        <ele>131</ele>
        <time>2019-09-26T07:22:19Z</time>
      </trkpt>
      <trkpt lat="43.70192" lon="5.08418">
        <ele>131</ele>
        <time>2019-09-26T07:22:21Z</time>
      </trkpt>
      <trkpt lat="43.70191" lon="5.08416">
        <ele>131</ele>
        <time>2019-09-26T07:22:22Z</time>
      </trkpt>
      <trkpt lat="43.70191" lon="5.08416">
        <ele>135</ele>
        <time>2019-09-26T07:24:19Z</time>
      </trkpt>
      <trkpt lat="43.70209" lon="5.08415">
        <ele>135</ele>
        <time>2019-09-26T07:24:20Z</time>
      </trkpt>
      <trkpt lat="43.7021" lon="5.08418">
        <ele>135</ele>
        <time>2019-09-26T07:24:23Z</time>
      </trkpt>
      <trkpt lat="43.70213" lon="5.08423">
        <ele>135</ele>
        <time>2019-09-26T07:24:27Z</time>
      </trkpt>
      <trkpt lat="43.70213" lon="5.08423">
        <ele>136</ele>
        <time>2019-09-26T07:24:29Z</time>
      </trkpt>
      <trkpt lat="43.70215" lon="5.08425">
        <ele>136</ele>
        <time>2019-09-26T07:24:30Z</time>
      </trkpt>
      <trkpt lat="43.70216" lon="5.08427">
        <ele>136</ele>
        <time>2019-09-26T07:24:32Z</time>
      </trkpt>
      <trkpt lat="43.70217" lon="5.08429">
        <ele>136</ele>
        <time>2019-09-26T07:24:34Z</time>
      </trkpt>
      <trkpt lat="43.70219" lon="5.08431">
        <ele>136</ele>
        <time>2019-09-26T07:24:36Z</time>
      </trkpt>
      <trkpt lat="43.70221" lon="5.08432">
        <ele>136</ele>
        <time>2019-09-26T07:24:39Z</time>
      </trkpt>
      <trkpt lat="43.70222" lon="5.08435">
        <ele>136</ele>
        <time>2019-09-26T07:24:42Z</time>
      </trkpt>
      <trkpt lat="43.70224" lon="5.08436">
        <ele>136</ele>
        <time>2019-09-26T07:24:45Z</time>
      </trkpt>
      <trkpt lat="43.70225" lon="5.08439">
        <ele>137</ele>
        <time>2019-09-26T07:24:49Z</time>
      </trkpt>
      <trkpt lat="43.70227" lon="5.0844">
        <ele>137</ele>
        <time>2019-09-26T07:24:52Z</time>
      </trkpt>
      <trkpt lat="43.70229" lon="5.08439">
        <ele>137</ele>
        <time>2019-09-26T07:24:56Z</time>
      </trkpt>
      <trkpt lat="43.7023" lon="5.08437">
        <ele>138</ele>
        <time>2019-09-26T07:24:59Z</time>
      </trkpt>
      <trkpt lat="43.70231" lon="5.08434">
        <ele>138</ele>
        <time>2019-09-26T07:25:02Z</time>
      </trkpt>
      <trkpt lat="43.70233" lon="5.08433">
        <ele>138</ele>
        <time>2019-09-26T07:25:05Z</time>
      </trkpt>
      <trkpt lat="43.70235" lon="5.08433">
        <ele>140</ele>
        <time>2019-09-26T07:25:09Z</time>
      </trkpt>
      <trkpt lat="43.70237" lon="5.08433">
        <ele>140</ele>
        <time>2019-09-26T07:25:13Z</time>
      </trkpt>
      <trkpt lat="43.70239" lon="5.08432">
        <ele>140</ele>
        <time>2019-09-26T07:25:16Z</time>
      </trkpt>
      <trkpt lat="43.7024" lon="5.0843">
        <ele>141</ele>
        <time>2019-09-26T07:25:19Z</time>
      </trkpt>
      <trkpt lat="43.70243" lon="5.08427">
        <ele>141</ele>
        <time>2019-09-26T07:25:22Z</time>
      </trkpt>
      <trkpt lat="43.70244" lon="5.08426">
        <ele>141</ele>
        <time>2019-09-26T07:25:25Z</time>
      </trkpt>
      <trkpt lat="43.70245" lon="5.08426">
        <ele>141</ele>
        <time>2019-09-26T07:25:28Z</time>
      </trkpt>
      <trkpt lat="43.70246" lon="5.08425">
        <ele>143</ele>
        <time>2019-09-26T07:25:29Z</time>
      </trkpt>
      <trkpt lat="43.70249" lon="5.08422">
        <ele>143</ele>
        <time>2019-09-26T07:25:31Z</time>
      </trkpt>
      <trkpt lat="43.7025" lon="5.08421">
        <ele>143</ele>
        <time>2019-09-26T07:25:34Z</time>
      </trkpt>
      <trkpt lat="43.70251" lon="5.0842">
        <ele>143</ele>
        <time>2019-09-26T07:25:38Z</time>
      </trkpt>
      <trkpt lat="43.70251" lon="5.08419">
        <ele>143</ele>
        <time>2019-09-26T07:25:39Z</time>
      </trkpt>
      <trkpt lat="43.70253" lon="5.08416">
        <ele>143</ele>
        <time>2019-09-26T07:25:41Z</time>
      </trkpt>
      <trkpt lat="43.70254" lon="5.08414">
        <ele>143</ele>
        <time>2019-09-26T07:25:45Z</time>
      </trkpt>
      <trkpt lat="43.70254" lon="5.08413">
        <ele>144</ele>
        <time>2019-09-26T07:25:49Z</time>
      </trkpt>
      <trkpt lat="43.70255" lon="5.08412">
        <ele>144</ele>
        <time>2019-09-26T07:25:50Z</time>
      </trkpt>
      <trkpt lat="43.70256" lon="5.0841">
        <ele>144</ele>
        <time>2019-09-26T07:25:53Z</time>
      </trkpt>
      <trkpt lat="43.70256" lon="5.08409">
        <ele>144</ele>
        <time>2019-09-26T07:25:58Z</time>
      </trkpt>
      <trkpt lat="43.70257" lon="5.08408">
        <ele>145</ele>
        <time>2019-09-26T07:25:59Z</time>
      </trkpt>
      <trkpt lat="43.70258" lon="5.08404">
        <ele>145</ele>
        <time>2019-09-26T07:26:02Z</time>
      </trkpt>
      <trkpt lat="43.70258" lon="5.08402">
        <ele>145</ele>
        <time>2019-09-26T07:26:06Z</time>
      </trkpt>
      <trkpt lat="43.70259" lon="5.08401">
        <ele>145</ele>
        <time>2019-09-26T07:26:09Z</time>
      </trkpt>
      <trkpt lat="43.70259" lon="5.084">
        <ele>146</ele>
        <time>2019-09-26T07:26:10Z</time>
      </trkpt>
      <trkpt lat="43.70259" lon="5.08397">
        <ele>146</ele>
        <time>2019-09-26T07:26:11Z</time>
      </trkpt>
      <trkpt lat="43.70259" lon="5.08394">
        <ele>146</ele>
        <time>2019-09-26T07:26:17Z</time>
      </trkpt>
      <trkpt lat="43.70259" lon="5.08394">
        <ele>148</ele>
        <time>2019-09-26T07:26:19Z</time>
      </trkpt>
      <trkpt lat="43.70259" lon="5.08391">
        <ele>148</ele>
        <time>2019-09-26T07:26:20Z</time>
      </trkpt>
      <trkpt lat="43.70259" lon="5.08388">
        <ele>148</ele>
        <time>2019-09-26T07:26:22Z</time>
      </trkpt>
      <trkpt lat="43.70259" lon="5.08385">
        <ele>148</ele>
        <time>2019-09-26T07:26:25Z</time>
      </trkpt>
      <trkpt lat="43.70259" lon="5.08382">
        <ele>149</ele>
        <time>2019-09-26T07:26:29Z</time>
      </trkpt>
      <trkpt lat="43.70258" lon="5.0838">
        <ele>149</ele>
        <time>2019-09-26T07:26:34Z</time>
      </trkpt>
      <trkpt lat="43.70257" lon="5.08377">
        <ele>149</ele>
        <time>2019-09-26T07:26:37Z</time>
      </trkpt>
      <trkpt lat="43.70257" lon="5.08377">
        <ele>150</ele>
        <time>2019-09-26T07:26:39Z</time>
      </trkpt>
      <trkpt lat="43.70256" lon="5.08373">
        <ele>150</ele>
        <time>2019-09-26T07:26:41Z</time>
      </trkpt>
      <trkpt lat="43.70256" lon="5.08372">
        <ele>150</ele>
        <time>2019-09-26T07:26:45Z</time>
      </trkpt>
      <trkpt lat="43.70255" lon="5.08371">
        <ele>150</ele>
        <time>2019-09-26T07:26:48Z</time>
      </trkpt>
      <trkpt lat="43.70255" lon="5.08369">
        <ele>151</ele>
        <time>2019-09-26T07:26:49Z</time>
      </trkpt>
      <trkpt lat="43.70255" lon="5.08366">
        <ele>151</ele>
        <time>2019-09-26T07:26:51Z</time>
      </trkpt>
      <trkpt lat="43.70255" lon="5.08363">
        <ele>151</ele>
        <time>2019-09-26T07:26:54Z</time>
      </trkpt>
      <trkpt lat="43.70256" lon="5.08361">
        <ele>151</ele>
        <time>2019-09-26T07:26:57Z</time>
      </trkpt>
      <trkpt lat="43.70256" lon="5.08361">
        <ele>153</ele>
        <time>2019-09-26T07:26:59Z</time>
      </trkpt>
      <trkpt lat="43.70258" lon="5.08357">
        <ele>153</ele>
        <time>2019-09-26T07:27:00Z</time>
      </trkpt>
      <trkpt lat="43.70259" lon="5.08355">
        <ele>153</ele>
        <time>2019-09-26T07:27:03Z</time>
      </trkpt>
      <trkpt lat="43.7026" lon="5.08353">
        <ele>153</ele>
        <time>2019-09-26T07:27:06Z</time>
      </trkpt>
      <trkpt lat="43.7026" lon="5.08351">
        <ele>153</ele>
        <time>2019-09-26T07:27:09Z</time>
      </trkpt>
      <trkpt lat="43.70261" lon="5.08349">
        <ele>155</ele>
        <time>2019-09-26T07:27:10Z</time>
      </trkpt>
      <trkpt lat="43.70263" lon="5.08346">
        <ele>155</ele>
        <time>2019-09-26T07:27:12Z</time>
      </trkpt>
      <trkpt lat="43.70263" lon="5.08345">
        <ele>155</ele>
        <time>2019-09-26T07:27:15Z</time>
      </trkpt>
      <trkpt lat="43.70263" lon="5.08343">
        <ele>155</ele>
        <time>2019-09-26T07:27:18Z</time>
      </trkpt>
      <trkpt lat="43.70264" lon="5.08342">
        <ele>155</ele>
        <time>2019-09-26T07:27:19Z</time>
      </trkpt>
      <trkpt lat="43.70265" lon="5.08339">
        <ele>155</ele>
        <time>2019-09-26T07:27:21Z</time>
      </trkpt>
      <trkpt lat="43.70266" lon="5.08336">
        <ele>155</ele>
        <time>2019-09-26T07:27:24Z</time>
      </trkpt>
      <trkpt lat="43.70267" lon="5.08333">
        <ele>155</ele>
        <time>2019-09-26T07:27:27Z</time>
      </trkpt>
      <trkpt lat="43.70267" lon="5.08333">
        <ele>156</ele>
        <time>2019-09-26T07:27:29Z</time>
      </trkpt>
      <trkpt lat="43.70269" lon="5.08329">
        <ele>156</ele>
        <time>2019-09-26T07:27:30Z</time>
      </trkpt>
      <trkpt lat="43.7027" lon="5.08327">
        <ele>156</ele>
        <time>2019-09-26T07:27:33Z</time>
      </trkpt>
      <trkpt lat="43.7027" lon="5.08325">
        <ele>156</ele>
        <time>2019-09-26T07:27:35Z</time>
      </trkpt>
      <trkpt lat="43.70271" lon="5.08324">
        <ele>156</ele>
        <time>2019-09-26T07:27:38Z</time>
      </trkpt>
      <trkpt lat="43.70271" lon="5.08322">
        <ele>158</ele>
        <time>2019-09-26T07:27:39Z</time>
      </trkpt>
      <trkpt lat="43.70273" lon="5.08319">
        <ele>158</ele>
        <time>2019-09-26T07:27:41Z</time>
      </trkpt>
      <trkpt lat="43.70273" lon="5.08316">
        <ele>158</ele>
        <time>2019-09-26T07:27:44Z</time>
      </trkpt>
      <trkpt lat="43.70273" lon="5.08312">
        <ele>158</ele>
        <time>2019-09-26T07:27:47Z</time>
      </trkpt>
      <trkpt lat="43.70273" lon="5.08312">
        <ele>158</ele>
        <time>2019-09-26T07:27:49Z</time>
      </trkpt>
      <trkpt lat="43.70273" lon="5.08309">
        <ele>158</ele>
        <time>2019-09-26T07:27:50Z</time>
      </trkpt>
      <trkpt lat="43.70274" lon="5.08307">
        <ele>158</ele>
        <time>2019-09-26T07:27:52Z</time>
      </trkpt>
      <trkpt lat="43.70274" lon="5.08304">
        <ele>158</ele>
        <time>2019-09-26T07:27:54Z</time>
      </trkpt>
      <trkpt lat="43.70274" lon="5.08301">
        <ele>158</ele>
        <time>2019-09-26T07:27:56Z</time>
      </trkpt>
      <trkpt lat="43.70274" lon="5.08297">
        <ele>159</ele>
        <time>2019-09-26T07:27:59Z</time>
      </trkpt>
      <trkpt lat="43.70274" lon="5.08292">
        <ele>159</ele>
        <time>2019-09-26T07:28:02Z</time>
      </trkpt>
      <trkpt lat="43.70275" lon="5.08291">
        <ele>159</ele>
        <time>2019-09-26T07:28:05Z</time>
      </trkpt>
      <trkpt lat="43.70275" lon="5.08289">
        <ele>159</ele>
        <time>2019-09-26T07:28:08Z</time>
      </trkpt>
      <trkpt lat="43.70275" lon="5.08288">
        <ele>161</ele>
        <time>2019-09-26T07:28:09Z</time>
      </trkpt>
      <trkpt lat="43.70276" lon="5.08285">
        <ele>161</ele>
        <time>2019-09-26T07:28:11Z</time>
      </trkpt>
      <trkpt lat="43.70276" lon="5.08282">
        <ele>161</ele>
        <time>2019-09-26T07:28:13Z</time>
      </trkpt>
      <trkpt lat="43.70277" lon="5.0828">
        <ele>161</ele>
        <time>2019-09-26T07:28:16Z</time>
      </trkpt>
      <trkpt lat="43.70278" lon="5.08277">
        <ele>162</ele>
        <time>2019-09-26T07:28:19Z</time>
      </trkpt>
      <trkpt lat="43.70278" lon="5.08274">
        <ele>162</ele>
        <time>2019-09-26T07:28:21Z</time>
      </trkpt>
      <trkpt lat="43.70279" lon="5.08271">
        <ele>162</ele>
        <time>2019-09-26T07:28:24Z</time>
      </trkpt>
      <trkpt lat="43.7028" lon="5.08268">
        <ele>162</ele>
        <time>2019-09-26T07:28:26Z</time>
      </trkpt>
      <trkpt lat="43.70281" lon="5.08265">
        <ele>164</ele>
        <time>2019-09-26T07:28:29Z</time>
      </trkpt>
      <trkpt lat="43.70282" lon="5.08263">
        <ele>164</ele>
        <time>2019-09-26T07:28:31Z</time>
      </trkpt>
      <trkpt lat="43.70284" lon="5.0826">
        <ele>164</ele>
        <time>2019-09-26T07:28:34Z</time>
      </trkpt>
      <trkpt lat="43.70285" lon="5.08258">
        <ele>164</ele>
        <time>2019-09-26T07:28:37Z</time>
      </trkpt>
      <trkpt lat="43.70285" lon="5.08258">
        <ele>165</ele>
        <time>2019-09-26T07:28:39Z</time>
      </trkpt>
      <trkpt lat="43.70288" lon="5.08253">
        <ele>165</ele>
        <time>2019-09-26T07:28:40Z</time>
      </trkpt>
      <trkpt lat="43.70288" lon="5.08252">
        <ele>165</ele>
        <time>2019-09-26T07:28:43Z</time>
      </trkpt>
      <trkpt lat="43.70289" lon="5.0825">
        <ele>165</ele>
        <time>2019-09-26T07:28:45Z</time>
      </trkpt>
      <trkpt lat="43.7029" lon="5.08248">
        <ele>165</ele>
        <time>2019-09-26T07:28:48Z</time>
      </trkpt>
      <trkpt lat="43.7029" lon="5.08246">
        <ele>166</ele>
        <time>2019-09-26T07:28:49Z</time>
      </trkpt>
      <trkpt lat="43.70291" lon="5.08244">
        <ele>166</ele>
        <time>2019-09-26T07:28:50Z</time>
      </trkpt>
      <trkpt lat="43.70293" lon="5.08242">
        <ele>166</ele>
        <time>2019-09-26T07:28:53Z</time>
      </trkpt>
      <trkpt lat="43.70293" lon="5.08239">
        <ele>166</ele>
        <time>2019-09-26T07:28:56Z</time>
      </trkpt>
      <trkpt lat="43.70293" lon="5.08239">
        <ele>167</ele>
        <time>2019-09-26T07:28:59Z</time>
      </trkpt>
      <trkpt lat="43.70296" lon="5.08237">
        <ele>167</ele>
        <time>2019-09-26T07:29:01Z</time>
      </trkpt>
      <trkpt lat="43.70297" lon="5.08234">
        <ele>167</ele>
        <time>2019-09-26T07:29:04Z</time>
      </trkpt>
      <trkpt lat="43.70298" lon="5.08231">
        <ele>167</ele>
        <time>2019-09-26T07:29:07Z</time>
      </trkpt>
      <trkpt lat="43.70298" lon="5.08231">
        <ele>167</ele>
        <time>2019-09-26T07:29:09Z</time>
      </trkpt>
      <trkpt lat="43.70299" lon="5.08229">
        <ele>167</ele>
        <time>2019-09-26T07:29:10Z</time>
      </trkpt>
      <trkpt lat="43.70301" lon="5.08227">
        <ele>167</ele>
        <time>2019-09-26T07:29:13Z</time>
      </trkpt>
      <trkpt lat="43.70301" lon="5.08223">
        <ele>167</ele>
        <time>2019-09-26T07:29:17Z</time>
      </trkpt>
      <trkpt lat="43.70301" lon="5.08223">
        <ele>169</ele>
        <time>2019-09-26T07:29:19Z</time>
      </trkpt>
      <trkpt lat="43.70303" lon="5.0822">
        <ele>169</ele>
        <time>2019-09-26T07:29:20Z</time>
      </trkpt>
      <trkpt lat="43.70304" lon="5.08218">
        <ele>169</ele>
        <time>2019-09-26T07:29:23Z</time>
      </trkpt>
      <trkpt lat="43.70305" lon="5.08217">
        <ele>169</ele>
        <time>2019-09-26T07:29:26Z</time>
      </trkpt>
      <trkpt lat="43.70306" lon="5.08215">
        <ele>170</ele>
        <time>2019-09-26T07:29:29Z</time>
      </trkpt>
      <trkpt lat="43.70307" lon="5.08214">
        <ele>170</ele>
        <time>2019-09-26T07:29:30Z</time>
      </trkpt>
      <trkpt lat="43.70308" lon="5.08213">
        <ele>170</ele>
        <time>2019-09-26T07:29:33Z</time>
      </trkpt>
      <trkpt lat="43.70308" lon="5.08211">
        <ele>170</ele>
        <time>2019-09-26T07:29:38Z</time>
      </trkpt>
      <trkpt lat="43.70309" lon="5.0821">
        <ele>172</ele>
        <time>2019-09-26T07:29:39Z</time>
      </trkpt>
      <trkpt lat="43.70311" lon="5.08209">
        <ele>172</ele>
        <time>2019-09-26T07:29:43Z</time>
      </trkpt>
      <trkpt lat="43.70312" lon="5.08213">
        <ele>172</ele>
        <time>2019-09-26T07:29:47Z</time>
      </trkpt>
      <trkpt lat="43.70312" lon="5.08213">
        <ele>173</ele>
        <time>2019-09-26T07:29:49Z</time>
      </trkpt>
      <trkpt lat="43.70312" lon="5.08216">
        <ele>173</ele>
        <time>2019-09-26T07:29:50Z</time>
      </trkpt>
      <trkpt lat="43.70312" lon="5.0822">
        <ele>173</ele>
        <time>2019-09-26T07:29:53Z</time>
      </trkpt>
      <trkpt lat="43.70313" lon="5.08223">
        <ele>173</ele>
        <time>2019-09-26T07:29:56Z</time>
      </trkpt>
      <trkpt lat="43.70313" lon="5.08225">
        <ele>174</ele>
        <time>2019-09-26T07:29:59Z</time>
      </trkpt>
      <trkpt lat="43.70314" lon="5.08229">
        <ele>174</ele>
        <time>2019-09-26T07:30:02Z</time>
      </trkpt>
      <trkpt lat="43.70314" lon="5.08231">
        <ele>174</ele>
        <time>2019-09-26T07:30:05Z</time>
      </trkpt>
      <trkpt lat="43.70314" lon="5.08232">
        <ele>174</ele>
        <time>2019-09-26T07:30:08Z</time>
      </trkpt>
      <trkpt lat="43.70315" lon="5.08233">
        <ele>176</ele>
        <time>2019-09-26T07:30:09Z</time>
      </trkpt>
      <trkpt lat="43.70316" lon="5.08236">
        <ele>176</ele>
        <time>2019-09-26T07:30:11Z</time>
      </trkpt>
      <trkpt lat="43.70317" lon="5.08239">
        <ele>176</ele>
        <time>2019-09-26T07:30:14Z</time>
      </trkpt>
      <trkpt lat="43.70318" lon="5.08242">
        <ele>176</ele>
        <time>2019-09-26T07:30:17Z</time>
      </trkpt>
      <trkpt lat="43.70318" lon="5.08242">
        <ele>178</ele>
        <time>2019-09-26T07:30:19Z</time>
      </trkpt>
      <trkpt lat="43.7032" lon="5.08244">
        <ele>178</ele>
        <time>2019-09-26T07:30:20Z</time>
      </trkpt>
      <trkpt lat="43.70322" lon="5.08245">
        <ele>178</ele>
        <time>2019-09-26T07:30:23Z</time>
      </trkpt>
      <trkpt lat="43.70323" lon="5.08246">
        <ele>178</ele>
        <time>2019-09-26T07:30:26Z</time>
      </trkpt>
      <trkpt lat="43.70323" lon="5.08246">
        <ele>178</ele>
        <time>2019-09-26T07:30:29Z</time>
      </trkpt>
      <trkpt lat="43.70326" lon="5.08247">
        <ele>178</ele>
        <time>2019-09-26T07:30:30Z</time>
      </trkpt>
      <trkpt lat="43.70328" lon="5.08247">
        <ele>178</ele>
        <time>2019-09-26T07:30:34Z</time>
      </trkpt>
      <trkpt lat="43.7033" lon="5.08248">
        <ele>178</ele>
        <time>2019-09-26T07:30:37Z</time>
      </trkpt>
      <trkpt lat="43.7033" lon="5.08248">
        <ele>178</ele>
        <time>2019-09-26T07:30:39Z</time>
      </trkpt>
      <trkpt lat="43.70331" lon="5.08248">
        <ele>178</ele>
        <time>2019-09-26T07:30:41Z</time>
      </trkpt>
      <trkpt lat="43.70333" lon="5.08248">
        <ele>178</ele>
        <time>2019-09-26T07:30:45Z</time>
      </trkpt>
      <trkpt lat="43.70333" lon="5.08248">
        <ele>180</ele>
        <time>2019-09-26T07:30:49Z</time>
      </trkpt>
      <trkpt lat="43.70335" lon="5.08248">
        <ele>180</ele>
        <time>2019-09-26T07:30:52Z</time>
      </trkpt>
      <trkpt lat="43.70335" lon="5.08248">
        <ele>180</ele>
        <time>2019-09-26T07:30:54Z</time>
      </trkpt>
      <trkpt lat="43.70335" lon="5.08247">
        <ele>180</ele>
        <time>2019-09-26T07:30:55Z</time>
      </trkpt>
      <trkpt lat="43.70335" lon="5.08247">
        <ele>180</ele>
        <time>2019-09-26T07:32:38Z</time>
      </trkpt>
      <trkpt lat="43.70338" lon="5.08274">
        <ele>180</ele>
        <time>2019-09-26T07:32:39Z</time>
      </trkpt>
      <trkpt lat="43.70337" lon="5.08276">
        <ele>180</ele>
        <time>2019-09-26T07:32:42Z</time>
      </trkpt>
      <trkpt lat="43.70337" lon="5.08276">
        <ele>180</ele>
        <time>2019-09-26T07:32:47Z</time>
      </trkpt>
      <trkpt lat="43.70336" lon="5.08278">
        <ele>180</ele>
        <time>2019-09-26T07:32:55Z</time>
      </trkpt>
      <trkpt lat="43.70337" lon="5.08279">
        <ele>180</ele>
        <time>2019-09-26T07:32:56Z</time>
      </trkpt>
      <trkpt lat="43.70341" lon="5.08321">
        <ele>186</ele>
        <time>2019-09-26T07:33:43Z</time>
      </trkpt>
      <trkpt lat="43.70341" lon="5.08322">
        <ele>186</ele>
        <time>2019-09-26T07:33:44Z</time>
      </trkpt>
      <trkpt lat="43.7034" lon="5.08325">
        <ele>186</ele>
        <time>2019-09-26T07:33:46Z</time>
      </trkpt>
      <trkpt lat="43.7034" lon="5.08328">
        <ele>186</ele>
        <time>2019-09-26T07:33:49Z</time>
      </trkpt>
      <trkpt lat="43.70339" lon="5.0833">
        <ele>186</ele>
        <time>2019-09-26T07:33:52Z</time>
      </trkpt>
      <trkpt lat="43.70338" lon="5.08333">
        <ele>186</ele>
        <time>2019-09-26T07:33:55Z</time>
      </trkpt>
      <trkpt lat="43.70336" lon="5.08335">
        <ele>186</ele>
        <time>2019-09-26T07:33:59Z</time>
      </trkpt>
      <trkpt lat="43.70336" lon="5.08338">
        <ele>183</ele>
        <time>2019-09-26T07:34:02Z</time>
      </trkpt>
      <trkpt lat="43.70335" lon="5.0834">
        <ele>183</ele>
        <time>2019-09-26T07:34:05Z</time>
      </trkpt>
      <trkpt lat="43.70336" lon="5.08343">
        <ele>183</ele>
        <time>2019-09-26T07:34:08Z</time>
      </trkpt>
      <trkpt lat="43.70336" lon="5.08347">
        <ele>183</ele>
        <time>2019-09-26T07:34:11Z</time>
      </trkpt>
      <trkpt lat="43.70336" lon="5.08347">
        <ele>183</ele>
        <time>2019-09-26T07:34:13Z</time>
      </trkpt>
      <trkpt lat="43.70336" lon="5.0835">
        <ele>183</ele>
        <time>2019-09-26T07:34:14Z</time>
      </trkpt>
      <trkpt lat="43.70337" lon="5.08354">
        <ele>183</ele>
        <time>2019-09-26T07:34:17Z</time>
      </trkpt>
      <trkpt lat="43.70337" lon="5.08357">
        <ele>183</ele>
        <time>2019-09-26T07:34:20Z</time>
      </trkpt>
      <trkpt lat="43.70338" lon="5.08361">
        <ele>183</ele>
        <time>2019-09-26T07:34:23Z</time>
      </trkpt>
      <trkpt lat="43.70339" lon="5.08366">
        <ele>183</ele>
        <time>2019-09-26T07:34:26Z</time>
      </trkpt>
      <trkpt lat="43.70338" lon="5.08367">
        <ele>183</ele>
        <time>2019-09-26T07:34:28Z</time>
      </trkpt>
      <trkpt lat="43.70338" lon="5.08369">
        <ele>183</ele>
        <time>2019-09-26T07:34:31Z</time>
      </trkpt>
      <trkpt lat="43.70338" lon="5.0837">
        <ele>183</ele>
        <time>2019-09-26T07:34:32Z</time>
      </trkpt>
      <trkpt lat="43.70338" lon="5.08375">
        <ele>183</ele>
        <time>2019-09-26T07:34:34Z</time>
      </trkpt>
      <trkpt lat="43.70339" lon="5.08376">
        <ele>183</ele>
        <time>2019-09-26T07:34:36Z</time>
      </trkpt>
      <trkpt lat="43.70339" lon="5.08378">
        <ele>183</ele>
        <time>2019-09-26T07:34:39Z</time>
      </trkpt>
      <trkpt lat="43.70339" lon="5.0838">
        <ele>183</ele>
        <time>2019-09-26T07:34:41Z</time>
      </trkpt>
      <trkpt lat="43.7034" lon="5.08381">
        <ele>183</ele>
        <time>2019-09-26T07:34:42Z</time>
      </trkpt>
      <trkpt lat="43.70341" lon="5.08383">
        <ele>183</ele>
        <time>2019-09-26T07:34:43Z</time>
      </trkpt>
      <trkpt lat="43.70342" lon="5.08386">
        <ele>183</ele>
        <time>2019-09-26T07:34:46Z</time>
      </trkpt>
      <trkpt lat="43.70342" lon="5.08389">
        <ele>183</ele>
        <time>2019-09-26T07:34:49Z</time>
      </trkpt>
      <trkpt lat="43.70343" lon="5.08392">
        <ele>184</ele>
        <time>2019-09-26T07:34:52Z</time>
      </trkpt>
      <trkpt lat="43.70344" lon="5.08395">
        <ele>184</ele>
        <time>2019-09-26T07:34:55Z</time>
      </trkpt>
      <trkpt lat="43.70346" lon="5.08398">
        <ele>184</ele>
        <time>2019-09-26T07:34:58Z</time>
      </trkpt>
      <trkpt lat="43.70347" lon="5.08401">
        <ele>184</ele>
        <time>2019-09-26T07:35:01Z</time>
      </trkpt>
      <trkpt lat="43.70347" lon="5.08401">
        <ele>186</ele>
        <time>2019-09-26T07:35:03Z</time>
      </trkpt>
      <trkpt lat="43.70348" lon="5.08403">
        <ele>186</ele>
        <time>2019-09-26T07:35:05Z</time>
      </trkpt>
      <trkpt lat="43.7035" lon="5.08403">
        <ele>186</ele>
        <time>2019-09-26T07:35:09Z</time>
      </trkpt>
      <trkpt lat="43.7035" lon="5.08403">
        <ele>187</ele>
        <time>2019-09-26T07:35:12Z</time>
      </trkpt>
      <trkpt lat="43.70352" lon="5.08403">
        <ele>187</ele>
        <time>2019-09-26T07:35:13Z</time>
      </trkpt>
      <trkpt lat="43.70354" lon="5.08405">
        <ele>187</ele>
        <time>2019-09-26T07:35:16Z</time>
      </trkpt>
      <trkpt lat="43.70356" lon="5.08406">
        <ele>187</ele>
        <time>2019-09-26T07:35:18Z</time>
      </trkpt>
      <trkpt lat="43.70357" lon="5.08408">
        <ele>189</ele>
        <time>2019-09-26T07:35:22Z</time>
      </trkpt>
      <trkpt lat="43.70359" lon="5.0841">
        <ele>189</ele>
        <time>2019-09-26T07:35:26Z</time>
      </trkpt>
      <trkpt lat="43.70361" lon="5.08409">
        <ele>189</ele>
        <time>2019-09-26T07:35:30Z</time>
      </trkpt>
      <trkpt lat="43.70361" lon="5.08409">
        <ele>190</ele>
        <time>2019-09-26T07:35:32Z</time>
      </trkpt>
      <trkpt lat="43.70363" lon="5.08407">
        <ele>190</ele>
        <time>2019-09-26T07:35:33Z</time>
      </trkpt>
      <trkpt lat="43.70364" lon="5.08405">
        <ele>190</ele>
        <time>2019-09-26T07:35:37Z</time>
      </trkpt>
      <trkpt lat="43.70366" lon="5.08404">
        <ele>190</ele>
        <time>2019-09-26T07:35:41Z</time>
      </trkpt>
      <trkpt lat="43.70366" lon="5.08404">
        <ele>192</ele>
        <time>2019-09-26T07:35:42Z</time>
      </trkpt>
      <trkpt lat="43.70369" lon="5.08402">
        <ele>192</ele>
        <time>2019-09-26T07:35:45Z</time>
      </trkpt>
      <trkpt lat="43.7037" lon="5.08401">
        <ele>192</ele>
        <time>2019-09-26T07:35:48Z</time>
      </trkpt>
      <trkpt lat="43.70371" lon="5.08401">
        <ele>192</ele>
        <time>2019-09-26T07:35:51Z</time>
      </trkpt>
      <trkpt lat="43.70372" lon="5.084">
        <ele>194</ele>
        <time>2019-09-26T07:35:52Z</time>
      </trkpt>
      <trkpt lat="43.70374" lon="5.08399">
        <ele>194</ele>
        <time>2019-09-26T07:35:55Z</time>
      </trkpt>
      <trkpt lat="43.70375" lon="5.08397">
        <ele>194</ele>
        <time>2019-09-26T07:35:59Z</time>
      </trkpt>
      <trkpt lat="43.70377" lon="5.08396">
        <ele>195</ele>
        <time>2019-09-26T07:36:02Z</time>
      </trkpt>
      <trkpt lat="43.70379" lon="5.08395">
        <ele>195</ele>
        <time>2019-09-26T07:36:06Z</time>
      </trkpt>
      <trkpt lat="43.70381" lon="5.08394">
        <ele>195</ele>
        <time>2019-09-26T07:36:10Z</time>
      </trkpt>
      <trkpt lat="43.70381" lon="5.08394">
        <ele>198</ele>
        <time>2019-09-26T07:36:12Z</time>
      </trkpt>
      <trkpt lat="43.70382" lon="5.08393">
        <ele>198</ele>
        <time>2019-09-26T07:36:13Z</time>
      </trkpt>
      <trkpt lat="43.70384" lon="5.0839">
        <ele>198</ele>
        <time>2019-09-26T07:36:18Z</time>
      </trkpt>
      <trkpt lat="43.70385" lon="5.08388">
        <ele>198</ele>
        <time>2019-09-26T07:36:21Z</time>
      </trkpt>
      <trkpt lat="43.70385" lon="5.08388">
        <ele>200</ele>
        <time>2019-09-26T07:36:23Z</time>
      </trkpt>
      <trkpt lat="43.70386" lon="5.08386">
        <ele>200</ele>
        <time>2019-09-26T07:36:25Z</time>
      </trkpt>
      <trkpt lat="43.70388" lon="5.08383">
        <ele>200</ele>
        <time>2019-09-26T07:36:29Z</time>
      </trkpt>
      <trkpt lat="43.70388" lon="5.08383">
        <ele>201</ele>
        <time>2019-09-26T07:36:32Z</time>
      </trkpt>
      <trkpt lat="43.70389" lon="5.0838">
        <ele>201</ele>
        <time>2019-09-26T07:36:33Z</time>
      </trkpt>
      <trkpt lat="43.7039" lon="5.08377">
        <ele>201</ele>
        <time>2019-09-26T07:36:37Z</time>
      </trkpt>
      <trkpt lat="43.7039" lon="5.08375">
        <ele>201</ele>
        <time>2019-09-26T07:36:40Z</time>
      </trkpt>
      <trkpt lat="43.7039" lon="5.08375">
        <ele>202</ele>
        <time>2019-09-26T07:36:42Z</time>
      </trkpt>
      <trkpt lat="43.70392" lon="5.08372">
        <ele>202</ele>
        <time>2019-09-26T07:36:43Z</time>
      </trkpt>
      <trkpt lat="43.70393" lon="5.08372">
        <ele>202</ele>
        <time>2019-09-26T07:36:47Z</time>
      </trkpt>
      <trkpt lat="43.70394" lon="5.08372">
        <ele>203</ele>
        <time>2019-09-26T07:36:52Z</time>
      </trkpt>
      <trkpt lat="43.70395" lon="5.08372">
        <ele>203</ele>
        <time>2019-09-26T07:36:56Z</time>
      </trkpt>
      <trkpt lat="43.70395" lon="5.08372">
        <ele>203</ele>
        <time>2019-09-26T07:36:59Z</time>
      </trkpt>
      <trkpt lat="43.70396" lon="5.08372">
        <ele>203</ele>
        <time>2019-09-26T07:37:02Z</time>
      </trkpt>
      <trkpt lat="43.70397" lon="5.08372">
        <ele>204</ele>
        <time>2019-09-26T07:37:03Z</time>
      </trkpt>
      <trkpt lat="43.70399" lon="5.08376">
        <ele>204</ele>
        <time>2019-09-26T07:37:06Z</time>
      </trkpt>
      <trkpt lat="43.70399" lon="5.08378">
        <ele>204</ele>
        <time>2019-09-26T07:37:09Z</time>
      </trkpt>
      <trkpt lat="43.70399" lon="5.08379">
        <ele>204</ele>
        <time>2019-09-26T07:37:12Z</time>
      </trkpt>
      <trkpt lat="43.70399" lon="5.0838">
        <ele>205</ele>
        <time>2019-09-26T07:37:13Z</time>
      </trkpt>
      <trkpt lat="43.70399" lon="5.08383">
        <ele>205</ele>
        <time>2019-09-26T07:37:16Z</time>
      </trkpt>
      <trkpt lat="43.70399" lon="5.08383">
        <ele>206</ele>
        <time>2019-09-26T07:37:22Z</time>
      </trkpt>
      <trkpt lat="43.70398" lon="5.08386">
        <ele>206</ele>
        <time>2019-09-26T07:37:26Z</time>
      </trkpt>
      <trkpt lat="43.70398" lon="5.08386">
        <ele>206</ele>
        <time>2019-09-26T07:37:30Z</time>
      </trkpt>
      <trkpt lat="43.70399" lon="5.08388">
        <ele>206</ele>
        <time>2019-09-26T07:37:31Z</time>
      </trkpt>
      <trkpt lat="43.70399" lon="5.08388">
        <ele>218</ele>
        <time>2019-09-26T07:42:29Z</time>
      </trkpt>
      <trkpt lat="43.70431" lon="5.08555">
        <ele>218</ele>
        <time>2019-09-26T07:42:30Z</time>
      </trkpt>
      <trkpt lat="43.70431" lon="5.08556">
        <ele>218</ele>
        <time>2019-09-26T07:42:31Z</time>
      </trkpt>
      <trkpt lat="43.70431" lon="5.08559">
        <ele>218</ele>
        <time>2019-09-26T07:42:35Z</time>
      </trkpt>
      <trkpt lat="43.70431" lon="5.08559">
        <ele>217</ele>
        <time>2019-09-26T07:42:38Z</time>
      </trkpt>
      <trkpt lat="43.70431" lon="5.08562">
        <ele>217</ele>
        <time>2019-09-26T07:42:39Z</time>
      </trkpt>
      <trkpt lat="43.70432" lon="5.08564">
        <ele>217</ele>
        <time>2019-09-26T07:42:43Z</time>
      </trkpt>
      <trkpt lat="43.70432" lon="5.08567">
        <ele>217</ele>
        <time>2019-09-26T07:42:46Z</time>
      </trkpt>
      <trkpt lat="43.70432" lon="5.08567">
        <ele>217</ele>
        <time>2019-09-26T07:42:48Z</time>
      </trkpt>
      <trkpt lat="43.70433" lon="5.0857">
        <ele>217</ele>
        <time>2019-09-26T07:42:50Z</time>
      </trkpt>
      <trkpt lat="43.70435" lon="5.08572">
        <ele>217</ele>
        <time>2019-09-26T07:42:55Z</time>
      </trkpt>
      <trkpt lat="43.70436" lon="5.08574">
        <ele>216</ele>
        <time>2019-09-26T07:42:58Z</time>
      </trkpt>
      <trkpt lat="43.70437" lon="5.08576">
        <ele>216</ele>
        <time>2019-09-26T07:43:03Z</time>
      </trkpt>
      <trkpt lat="43.70439" lon="5.08577">
        <ele>216</ele>
        <time>2019-09-26T07:43:06Z</time>
      </trkpt>
      <trkpt lat="43.70439" lon="5.08577">
        <ele>215</ele>
        <time>2019-09-26T07:43:08Z</time>
      </trkpt>
      <trkpt lat="43.70441" lon="5.08578">
        <ele>215</ele>
        <time>2019-09-26T07:43:10Z</time>
      </trkpt>
      <trkpt lat="43.70443" lon="5.0858">
        <ele>215</ele>
        <time>2019-09-26T07:43:13Z</time>
      </trkpt>
      <trkpt lat="43.70446" lon="5.08582">
        <ele>215</ele>
        <time>2019-09-26T07:43:16Z</time>
      </trkpt>
      <trkpt lat="43.70446" lon="5.08582">
        <ele>214</ele>
        <time>2019-09-26T07:43:18Z</time>
      </trkpt>
      <trkpt lat="43.70449" lon="5.08584">
        <ele>214</ele>
        <time>2019-09-26T07:43:21Z</time>
      </trkpt>
      <trkpt lat="43.7045" lon="5.08586">
        <ele>214</ele>
        <time>2019-09-26T07:43:23Z</time>
      </trkpt>
      <trkpt lat="43.70451" lon="5.08587">
        <ele>214</ele>
        <time>2019-09-26T07:43:25Z</time>
      </trkpt>
      <trkpt lat="43.70452" lon="5.08588">
        <ele>214</ele>
        <time>2019-09-26T07:43:27Z</time>
      </trkpt>
      <trkpt lat="43.70453" lon="5.0859">
        <ele>213</ele>
        <time>2019-09-26T07:43:28Z</time>
      </trkpt>
      <trkpt lat="43.70456" lon="5.08592">
        <ele>213</ele>
        <time>2019-09-26T07:43:29Z</time>
      </trkpt>
      <trkpt lat="43.70457" lon="5.08594">
        <ele>213</ele>
        <time>2019-09-26T07:43:31Z</time>
      </trkpt>
      <trkpt lat="43.70459" lon="5.08595">
        <ele>213</ele>
        <time>2019-09-26T07:43:33Z</time>
      </trkpt>
      <trkpt lat="43.7046" lon="5.08597">
        <ele>213</ele>
        <time>2019-09-26T07:43:35Z</time>
      </trkpt>
      <trkpt lat="43.70462" lon="5.08598">
        <ele>213</ele>
        <time>2019-09-26T07:43:37Z</time>
      </trkpt>
      <trkpt lat="43.70463" lon="5.086">
        <ele>213</ele>
        <time>2019-09-26T07:43:38Z</time>
      </trkpt>
      <trkpt lat="43.70464" lon="5.086">
        <ele>213</ele>
        <time>2019-09-26T07:43:39Z</time>
      </trkpt>
      <trkpt lat="43.70466" lon="5.08602">
        <ele>213</ele>
        <time>2019-09-26T07:43:41Z</time>
      </trkpt>
      <trkpt lat="43.70468" lon="5.08604">
        <ele>213</ele>
        <time>2019-09-26T07:43:44Z</time>
      </trkpt>
      <trkpt lat="43.7047" lon="5.08605">
        <ele>213</ele>
        <time>2019-09-26T07:43:46Z</time>
      </trkpt>
      <trkpt lat="43.70471" lon="5.08607">
        <ele>213</ele>
        <time>2019-09-26T07:43:48Z</time>
      </trkpt>
      <trkpt lat="43.70473" lon="5.0861">
        <ele>213</ele>
        <time>2019-09-26T07:43:50Z</time>
      </trkpt>
      <trkpt lat="43.70474" lon="5.08611">
        <ele>213</ele>
        <time>2019-09-26T07:43:53Z</time>
      </trkpt>
      <trkpt lat="43.70475" lon="5.08613">
        <ele>213</ele>
        <time>2019-09-26T07:43:55Z</time>
      </trkpt>
      <trkpt lat="43.70476" lon="5.08614">
        <ele>213</ele>
        <time>2019-09-26T07:43:57Z</time>
      </trkpt>
      <trkpt lat="43.70477" lon="5.08615">
        <ele>213</ele>
        <time>2019-09-26T07:43:58Z</time>
      </trkpt>
      <trkpt lat="43.70479" lon="5.08616">
        <ele>213</ele>
        <time>2019-09-26T07:43:59Z</time>
      </trkpt>
      <trkpt lat="43.70481" lon="5.08617">
        <ele>213</ele>
        <time>2019-09-26T07:44:01Z</time>
      </trkpt>
      <trkpt lat="43.70483" lon="5.08616">
        <ele>213</ele>
        <time>2019-09-26T07:44:04Z</time>
      </trkpt>
      <trkpt lat="43.70484" lon="5.08615">
        <ele>213</ele>
        <time>2019-09-26T07:44:06Z</time>
      </trkpt>
      <trkpt lat="43.70484" lon="5.08615">
        <ele>213</ele>
        <time>2019-09-26T07:44:08Z</time>
      </trkpt>
      <trkpt lat="43.70487" lon="5.08614">
        <ele>213</ele>
        <time>2019-09-26T07:44:09Z</time>
      </trkpt>
      <trkpt lat="43.70489" lon="5.08613">
        <ele>213</ele>
        <time>2019-09-26T07:44:12Z</time>
      </trkpt>
      <trkpt lat="43.70492" lon="5.08611">
        <ele>213</ele>
        <time>2019-09-26T07:44:15Z</time>
      </trkpt>
      <trkpt lat="43.70494" lon="5.08609">
        <ele>214</ele>
        <time>2019-09-26T07:44:18Z</time>
      </trkpt>
      <trkpt lat="43.70497" lon="5.08606">
        <ele>214</ele>
        <time>2019-09-26T07:44:21Z</time>
      </trkpt>
      <trkpt lat="43.70498" lon="5.08605">
        <ele>214</ele>
        <time>2019-09-26T07:44:24Z</time>
      </trkpt>
      <trkpt lat="43.70499" lon="5.08604">
        <ele>214</ele>
        <time>2019-09-26T07:44:27Z</time>
      </trkpt>
      <trkpt lat="43.705" lon="5.08603">
        <ele>215</ele>
        <time>2019-09-26T07:44:28Z</time>
      </trkpt>
      <trkpt lat="43.70502" lon="5.08602">
        <ele>215</ele>
        <time>2019-09-26T07:44:30Z</time>
      </trkpt>
      <trkpt lat="43.70504" lon="5.086">
        <ele>215</ele>
        <time>2019-09-26T07:44:32Z</time>
      </trkpt>
      <trkpt lat="43.70506" lon="5.08598">
        <ele>215</ele>
        <time>2019-09-26T07:44:35Z</time>
      </trkpt>
      <trkpt lat="43.70507" lon="5.08597">
        <ele>217</ele>
        <time>2019-09-26T07:44:38Z</time>
      </trkpt>
      <trkpt lat="43.7051" lon="5.08594">
        <ele>217</ele>
        <time>2019-09-26T07:44:41Z</time>
      </trkpt>
      <trkpt lat="43.70511" lon="5.08594">
        <ele>217</ele>
        <time>2019-09-26T07:44:44Z</time>
      </trkpt>
      <trkpt lat="43.70512" lon="5.08593">
        <ele>217</ele>
        <time>2019-09-26T07:44:47Z</time>
      </trkpt>
      <trkpt lat="43.70513" lon="5.08592">
        <ele>218</ele>
        <time>2019-09-26T07:44:48Z</time>
      </trkpt>
      <trkpt lat="43.70515" lon="5.08592">
        <ele>218</ele>
        <time>2019-09-26T07:44:49Z</time>
      </trkpt>
      <trkpt lat="43.70517" lon="5.08592">
        <ele>218</ele>
        <time>2019-09-26T07:44:52Z</time>
      </trkpt>
      <trkpt lat="43.7052" lon="5.08591">
        <ele>218</ele>
        <time>2019-09-26T07:44:55Z</time>
      </trkpt>
      <trkpt lat="43.70522" lon="5.08592">
        <ele>217</ele>
        <time>2019-09-26T07:44:58Z</time>
      </trkpt>
      <trkpt lat="43.70526" lon="5.08592">
        <ele>217</ele>
        <time>2019-09-26T07:45:01Z</time>
      </trkpt>
      <trkpt lat="43.70527" lon="5.08593">
        <ele>217</ele>
        <time>2019-09-26T07:45:04Z</time>
      </trkpt>
      <trkpt lat="43.70528" lon="5.08593">
        <ele>217</ele>
        <time>2019-09-26T07:45:07Z</time>
      </trkpt>
      <trkpt lat="43.70529" lon="5.08593">
        <ele>216</ele>
        <time>2019-09-26T07:45:08Z</time>
      </trkpt>
      <trkpt lat="43.70532" lon="5.08593">
        <ele>216</ele>
        <time>2019-09-26T07:45:09Z</time>
      </trkpt>
      <trkpt lat="43.70533" lon="5.08593">
        <ele>216</ele>
        <time>2019-09-26T07:45:11Z</time>
      </trkpt>
      <trkpt lat="43.70534" lon="5.08594">
        <ele>216</ele>
        <time>2019-09-26T07:45:14Z</time>
      </trkpt>
      <trkpt lat="43.70536" lon="5.08594">
        <ele>216</ele>
        <time>2019-09-26T07:45:17Z</time>
      </trkpt>
      <trkpt lat="43.70537" lon="5.08594">
        <ele>215</ele>
        <time>2019-09-26T07:45:18Z</time>
      </trkpt>
      <trkpt lat="43.70539" lon="5.08595">
        <ele>215</ele>
        <time>2019-09-26T07:45:19Z</time>
      </trkpt>
      <trkpt lat="43.70542" lon="5.08594">
        <ele>215</ele>
        <time>2019-09-26T07:45:22Z</time>
      </trkpt>
      <trkpt lat="43.70544" lon="5.08594">
        <ele>215</ele>
        <time>2019-09-26T07:45:25Z</time>
      </trkpt>
      <trkpt lat="43.70547" lon="5.08594">
        <ele>214</ele>
        <time>2019-09-26T07:45:28Z</time>
      </trkpt>
      <trkpt lat="43.7055" lon="5.08593">
        <ele>214</ele>
        <time>2019-09-26T07:45:31Z</time>
      </trkpt>
      <trkpt lat="43.70551" lon="5.08593">
        <ele>214</ele>
        <time>2019-09-26T07:45:34Z</time>
      </trkpt>
      <trkpt lat="43.70552" lon="5.08592">
        <ele>214</ele>
        <time>2019-09-26T07:45:37Z</time>
      </trkpt>
      <trkpt lat="43.70553" lon="5.08592">
        <ele>213</ele>
        <time>2019-09-26T07:45:38Z</time>
      </trkpt>
      <trkpt lat="43.70555" lon="5.08591">
        <ele>213</ele>
        <time>2019-09-26T07:45:40Z</time>
      </trkpt>
      <trkpt lat="43.70558" lon="5.08591">
        <ele>213</ele>
        <time>2019-09-26T07:45:43Z</time>
      </trkpt>
      <trkpt lat="43.7056" lon="5.08591">
        <ele>213</ele>
        <time>2019-09-26T07:45:45Z</time>
      </trkpt>
      <trkpt lat="43.70562" lon="5.08591">
        <ele>213</ele>
        <time>2019-09-26T07:45:48Z</time>
      </trkpt>
      <trkpt lat="43.70566" lon="5.08592">
        <ele>213</ele>
        <time>2019-09-26T07:45:51Z</time>
      </trkpt>
      <trkpt lat="43.70567" lon="5.08593">
        <ele>213</ele>
        <time>2019-09-26T07:45:53Z</time>
      </trkpt>
      <trkpt lat="43.70568" lon="5.08593">
        <ele>213</ele>
        <time>2019-09-26T07:45:55Z</time>
      </trkpt>
      <trkpt lat="43.7057" lon="5.08593">
        <ele>213</ele>
        <time>2019-09-26T07:45:58Z</time>
      </trkpt>
      <trkpt lat="43.70571" lon="5.08594">
        <ele>213</ele>
        <time>2019-09-26T07:45:59Z</time>
      </trkpt>
      <trkpt lat="43.70575" lon="5.08592">
        <ele>213</ele>
        <time>2019-09-26T07:46:00Z</time>
      </trkpt>
      <trkpt lat="43.70576" lon="5.08591">
        <ele>213</ele>
        <time>2019-09-26T07:46:02Z</time>
      </trkpt>
      <trkpt lat="43.70577" lon="5.0859">
        <ele>213</ele>
        <time>2019-09-26T07:46:05Z</time>
      </trkpt>
      <trkpt lat="43.70578" lon="5.08589">
        <ele>213</ele>
        <time>2019-09-26T07:46:07Z</time>
      </trkpt>
      <trkpt lat="43.70579" lon="5.08588">
        <ele>212</ele>
        <time>2019-09-26T07:46:08Z</time>
      </trkpt>
      <trkpt lat="43.7058" lon="5.0859">
        <ele>212</ele>
        <time>2019-09-26T07:46:15Z</time>
      </trkpt>
      <trkpt lat="43.70581" lon="5.08593">
        <ele>213</ele>
        <time>2019-09-26T07:46:19Z</time>
      </trkpt>
      <trkpt lat="43.70582" lon="5.08595">
        <ele>213</ele>
        <time>2019-09-26T07:46:23Z</time>
      </trkpt>
      <trkpt lat="43.70584" lon="5.08596">
        <ele>213</ele>
        <time>2019-09-26T07:46:26Z</time>
      </trkpt>
      <trkpt lat="43.70584" lon="5.08596">
        <ele>213</ele>
        <time>2019-09-26T07:46:28Z</time>
      </trkpt>
      <trkpt lat="43.70588" lon="5.08597">
        <ele>213</ele>
        <time>2019-09-26T07:46:29Z</time>
      </trkpt>
      <trkpt lat="43.70589" lon="5.08597">
        <ele>213</ele>
        <time>2019-09-26T07:46:32Z</time>
      </trkpt>
      <trkpt lat="43.7059" lon="5.08596">
        <ele>213</ele>
        <time>2019-09-26T07:46:35Z</time>
      </trkpt>
      <trkpt lat="43.70591" lon="5.08596">
        <ele>213</ele>
        <time>2019-09-26T07:46:37Z</time>
      </trkpt>
      <trkpt lat="43.70593" lon="5.08596">
        <ele>213</ele>
        <time>2019-09-26T07:46:38Z</time>
      </trkpt>
      <trkpt lat="43.70595" lon="5.08595">
        <ele>213</ele>
        <time>2019-09-26T07:46:40Z</time>
      </trkpt>
      <trkpt lat="43.70596" lon="5.08593">
        <ele>213</ele>
        <time>2019-09-26T07:46:43Z</time>
      </trkpt>
      <trkpt lat="43.70598" lon="5.08591">
        <ele>213</ele>
        <time>2019-09-26T07:46:45Z</time>
      </trkpt>
      <trkpt lat="43.70599" lon="5.08588">
        <ele>212</ele>
        <time>2019-09-26T07:46:48Z</time>
      </trkpt>
      <trkpt lat="43.70601" lon="5.08586">
        <ele>212</ele>
        <time>2019-09-26T07:46:53Z</time>
      </trkpt>
      <trkpt lat="43.70602" lon="5.08584">
        <ele>212</ele>
        <time>2019-09-26T07:46:55Z</time>
      </trkpt>
      <trkpt lat="43.70604" lon="5.08581">
        <ele>213</ele>
        <time>2019-09-26T07:46:58Z</time>
      </trkpt>
      <trkpt lat="43.70606" lon="5.08579">
        <ele>213</ele>
        <time>2019-09-26T07:47:00Z</time>
      </trkpt>
      <trkpt lat="43.70608" lon="5.08578">
        <ele>213</ele>
        <time>2019-09-26T07:47:03Z</time>
      </trkpt>
      <trkpt lat="43.70609" lon="5.08575">
        <ele>213</ele>
        <time>2019-09-26T07:47:06Z</time>
      </trkpt>
      <trkpt lat="43.70609" lon="5.08575">
        <ele>213</ele>
        <time>2019-09-26T07:47:08Z</time>
      </trkpt>
      <trkpt lat="43.7061" lon="5.08572">
        <ele>213</ele>
        <time>2019-09-26T07:47:09Z</time>
      </trkpt>
      <trkpt lat="43.7061" lon="5.0857">
        <ele>213</ele>
        <time>2019-09-26T07:47:12Z</time>
      </trkpt>
      <trkpt lat="43.70612" lon="5.08568">
        <ele>213</ele>
        <time>2019-09-26T07:47:15Z</time>
      </trkpt>
      <trkpt lat="43.70612" lon="5.08565">
        <ele>212</ele>
        <time>2019-09-26T07:47:18Z</time>
      </trkpt>
      <trkpt lat="43.70613" lon="5.08561">
        <ele>212</ele>
        <time>2019-09-26T07:47:21Z</time>
      </trkpt>
      <trkpt lat="43.70613" lon="5.0856">
        <ele>212</ele>
        <time>2019-09-26T07:47:24Z</time>
      </trkpt>
      <trkpt lat="43.70614" lon="5.08559">
        <ele>212</ele>
        <time>2019-09-26T07:47:27Z</time>
      </trkpt>
      <trkpt lat="43.70614" lon="5.08558">
        <ele>212</ele>
        <time>2019-09-26T07:47:28Z</time>
      </trkpt>
      <trkpt lat="43.70613" lon="5.08556">
        <ele>212</ele>
        <time>2019-09-26T07:47:31Z</time>
      </trkpt>
      <trkpt lat="43.70613" lon="5.08558">
        <ele>212</ele>
        <time>2019-09-26T07:47:35Z</time>
      </trkpt>
      <trkpt lat="43.70612" lon="5.08559">
        <ele>212</ele>
        <time>2019-09-26T07:47:38Z</time>
      </trkpt>
      <trkpt lat="43.70611" lon="5.0856">
        <ele>212</ele>
        <time>2019-09-26T07:47:43Z</time>
      </trkpt>
      <trkpt lat="43.7061" lon="5.08561">
        <ele>212</ele>
        <time>2019-09-26T07:47:45Z</time>
      </trkpt>
      <trkpt lat="43.7061" lon="5.08562">
        <ele>212</ele>
        <time>2019-09-26T07:47:46Z</time>
      </trkpt>
      <trkpt lat="43.70609" lon="5.08563">
        <ele>213</ele>
        <time>2019-09-26T07:50:17Z</time>
      </trkpt>
      <trkpt lat="43.70608" lon="5.08565">
        <ele>213</ele>
        <time>2019-09-26T07:50:18Z</time>
      </trkpt>
      <trkpt lat="43.70607" lon="5.08566">
        <ele>213</ele>
        <time>2019-09-26T07:50:19Z</time>
      </trkpt>
      <trkpt lat="43.70606" lon="5.08567">
        <ele>213</ele>
        <time>2019-09-26T07:50:22Z</time>
      </trkpt>
      <trkpt lat="43.70606" lon="5.08568">
        <ele>213</ele>
        <time>2019-09-26T07:50:25Z</time>
      </trkpt>
      <trkpt lat="43.70605" lon="5.08569">
        <ele>213</ele>
        <time>2019-09-26T07:50:26Z</time>
      </trkpt>
      <trkpt lat="43.70602" lon="5.0857">
        <ele>213</ele>
        <time>2019-09-26T07:50:28Z</time>
      </trkpt>
      <trkpt lat="43.70601" lon="5.08571">
        <ele>213</ele>
        <time>2019-09-26T07:50:32Z</time>
      </trkpt>
      <trkpt lat="43.706" lon="5.08572">
        <ele>213</ele>
        <time>2019-09-26T07:50:35Z</time>
      </trkpt>
      <trkpt lat="43.706" lon="5.08573">
        <ele>214</ele>
        <time>2019-09-26T07:50:36Z</time>
      </trkpt>
      <trkpt lat="43.70598" lon="5.08575">
        <ele>214</ele>
        <time>2019-09-26T07:50:38Z</time>
      </trkpt>
      <trkpt lat="43.70596" lon="5.08576">
        <ele>214</ele>
        <time>2019-09-26T07:50:41Z</time>
      </trkpt>
      <trkpt lat="43.70594" lon="5.08578">
        <ele>214</ele>
        <time>2019-09-26T07:50:44Z</time>
      </trkpt>
      <trkpt lat="43.70592" lon="5.08579">
        <ele>214</ele>
        <time>2019-09-26T07:50:47Z</time>
      </trkpt>
      <trkpt lat="43.7059" lon="5.0858">
        <ele>214</ele>
        <time>2019-09-26T07:50:49Z</time>
      </trkpt>
      <trkpt lat="43.70588" lon="5.08583">
        <ele>214</ele>
        <time>2019-09-26T07:50:52Z</time>
      </trkpt>
      <trkpt lat="43.70587" lon="5.08584">
        <ele>214</ele>
        <time>2019-09-26T07:50:54Z</time>
      </trkpt>
      <trkpt lat="43.70585" lon="5.08585">
        <ele>214</ele>
        <time>2019-09-26T07:50:56Z</time>
      </trkpt>
      <trkpt lat="43.70581" lon="5.08587">
        <ele>214</ele>
        <time>2019-09-26T07:50:58Z</time>
      </trkpt>
      <trkpt lat="43.7058" lon="5.08587">
        <ele>214</ele>
        <time>2019-09-26T07:51:00Z</time>
      </trkpt>
      <trkpt lat="43.70579" lon="5.08587">
        <ele>214</ele>
        <time>2019-09-26T07:51:02Z</time>
      </trkpt>
      <trkpt lat="43.70578" lon="5.08587">
        <ele>214</ele>
        <time>2019-09-26T07:51:05Z</time>
      </trkpt>
      <trkpt lat="43.70576" lon="5.08588">
        <ele>213</ele>
        <time>2019-09-26T07:51:06Z</time>
      </trkpt>
      <trkpt lat="43.70574" lon="5.08586">
        <ele>213</ele>
        <time>2019-09-26T07:51:08Z</time>
      </trkpt>
      <trkpt lat="43.70572" lon="5.08584">
        <ele>213</ele>
        <time>2019-09-26T07:51:11Z</time>
      </trkpt>
      <trkpt lat="43.7057" lon="5.08582">
        <ele>213</ele>
        <time>2019-09-26T07:51:14Z</time>
      </trkpt>
      <trkpt lat="43.7057" lon="5.08582">
        <ele>213</ele>
        <time>2019-09-26T07:51:16Z</time>
      </trkpt>
      <trkpt lat="43.70569" lon="5.0858">
        <ele>213</ele>
        <time>2019-09-26T07:51:17Z</time>
      </trkpt>
      <trkpt lat="43.70567" lon="5.08577">
        <ele>213</ele>
        <time>2019-09-26T07:51:20Z</time>
      </trkpt>
      <trkpt lat="43.70565" lon="5.08575">
        <ele>213</ele>
        <time>2019-09-26T07:51:22Z</time>
      </trkpt>
      <trkpt lat="43.70563" lon="5.08573">
        <ele>213</ele>
        <time>2019-09-26T07:51:24Z</time>
      </trkpt>
      <trkpt lat="43.70562" lon="5.0857">
        <ele>213</ele>
        <time>2019-09-26T07:51:26Z</time>
      </trkpt>
      <trkpt lat="43.70561" lon="5.08567">
        <ele>213</ele>
        <time>2019-09-26T07:51:28Z</time>
      </trkpt>
      <trkpt lat="43.7056" lon="5.08565">
        <ele>213</ele>
        <time>2019-09-26T07:51:31Z</time>
      </trkpt>
      <trkpt lat="43.70558" lon="5.08562">
        <ele>213</ele>
        <time>2019-09-26T07:51:34Z</time>
      </trkpt>
      <trkpt lat="43.70558" lon="5.08559">
        <ele>212</ele>
        <time>2019-09-26T07:51:36Z</time>
      </trkpt>
      <trkpt lat="43.70558" lon="5.08556">
        <ele>212</ele>
        <time>2019-09-26T07:51:38Z</time>
      </trkpt>
      <trkpt lat="43.70557" lon="5.08553">
        <ele>212</ele>
        <time>2019-09-26T07:51:40Z</time>
      </trkpt>
      <trkpt lat="43.70558" lon="5.0855">
        <ele>212</ele>
        <time>2019-09-26T07:51:42Z</time>
      </trkpt>
      <trkpt lat="43.70558" lon="5.08548">
        <ele>212</ele>
        <time>2019-09-26T07:51:44Z</time>
      </trkpt>
      <trkpt lat="43.70557" lon="5.08545">
        <ele>211</ele>
        <time>2019-09-26T07:51:46Z</time>
      </trkpt>
      <trkpt lat="43.70556" lon="5.08541">
        <ele>211</ele>
        <time>2019-09-26T07:51:49Z</time>
      </trkpt>
      <trkpt lat="43.70556" lon="5.0854">
        <ele>211</ele>
        <time>2019-09-26T07:51:52Z</time>
      </trkpt>
      <trkpt lat="43.70555" lon="5.08538">
        <ele>211</ele>
        <time>2019-09-26T07:51:55Z</time>
      </trkpt>
      <trkpt lat="43.70554" lon="5.08537">
        <ele>212</ele>
        <time>2019-09-26T07:51:56Z</time>
      </trkpt>
      <trkpt lat="43.70552" lon="5.08536">
        <ele>212</ele>
        <time>2019-09-26T07:51:58Z</time>
      </trkpt>
      <trkpt lat="43.7055" lon="5.08536">
        <ele>212</ele>
        <time>2019-09-26T07:52:01Z</time>
      </trkpt>
      <trkpt lat="43.70548" lon="5.08535">
        <ele>212</ele>
        <time>2019-09-26T07:52:03Z</time>
      </trkpt>
      <trkpt lat="43.70546" lon="5.08534">
        <ele>214</ele>
        <time>2019-09-26T07:52:06Z</time>
      </trkpt>
      <trkpt lat="43.70543" lon="5.08534">
        <ele>214</ele>
        <time>2019-09-26T07:52:08Z</time>
      </trkpt>
      <trkpt lat="43.70541" lon="5.08534">
        <ele>214</ele>
        <time>2019-09-26T07:52:10Z</time>
      </trkpt>
      <trkpt lat="43.70539" lon="5.08533">
        <ele>214</ele>
        <time>2019-09-26T07:52:12Z</time>
      </trkpt>
      <trkpt lat="43.70537" lon="5.08533">
        <ele>214</ele>
        <time>2019-09-26T07:52:14Z</time>
      </trkpt>
      <trkpt lat="43.70537" lon="5.08533">
        <ele>214</ele>
        <time>2019-09-26T07:52:16Z</time>
      </trkpt>
      <trkpt lat="43.70533" lon="5.08532">
        <ele>214</ele>
        <time>2019-09-26T07:52:17Z</time>
      </trkpt>
      <trkpt lat="43.70532" lon="5.08531">
        <ele>214</ele>
        <time>2019-09-26T07:52:20Z</time>
      </trkpt>
      <trkpt lat="43.70531" lon="5.08531">
        <ele>214</ele>
        <time>2019-09-26T07:52:22Z</time>
      </trkpt>
      <trkpt lat="43.70529" lon="5.08531">
        <ele>214</ele>
        <time>2019-09-26T07:52:25Z</time>
      </trkpt>
      <trkpt lat="43.70528" lon="5.08531">
        <ele>216</ele>
        <time>2019-09-26T07:52:26Z</time>
      </trkpt>
      <trkpt lat="43.70527" lon="5.08529">
        <ele>216</ele>
        <time>2019-09-26T07:52:29Z</time>
      </trkpt>
      <trkpt lat="43.70526" lon="5.08527">
        <ele>216</ele>
        <time>2019-09-26T07:52:33Z</time>
      </trkpt>
      <trkpt lat="43.70526" lon="5.08527">
        <ele>216</ele>
        <time>2019-09-26T07:52:36Z</time>
      </trkpt>
      <trkpt lat="43.70525" lon="5.08523">
        <ele>216</ele>
        <time>2019-09-26T07:52:37Z</time>
      </trkpt>
      <trkpt lat="43.70525" lon="5.08522">
        <ele>216</ele>
        <time>2019-09-26T07:52:42Z</time>
      </trkpt>
      <trkpt lat="43.70525" lon="5.08521">
        <ele>218</ele>
        <time>2019-09-26T07:52:45Z</time>
      </trkpt>
      <trkpt lat="43.70525" lon="5.0852">
        <ele>220</ele>
        <time>2019-09-26T07:53:41Z</time>
      </trkpt>
      <trkpt lat="43.70524" lon="5.08519">
        <ele>220</ele>
        <time>2019-09-26T07:53:42Z</time>
      </trkpt>
      <trkpt lat="43.70524" lon="5.08518">
        <ele>220</ele>
        <time>2019-09-26T07:53:45Z</time>
      </trkpt>
      <trkpt lat="43.70524" lon="5.08516">
        <ele>221</ele>
        <time>2019-09-26T07:53:50Z</time>
      </trkpt>
      <trkpt lat="43.70524" lon="5.08515">
        <ele>221</ele>
        <time>2019-09-26T07:53:51Z</time>
      </trkpt>
      <trkpt lat="43.70523" lon="5.08514">
        <ele>221</ele>
        <time>2019-09-26T07:53:52Z</time>
      </trkpt>
      <trkpt lat="43.70523" lon="5.08513">
        <ele>221</ele>
        <time>2019-09-26T07:55:53Z</time>
      </trkpt>
      <trkpt lat="43.70523" lon="5.08512">
        <ele>221</ele>
        <time>2019-09-26T07:55:54Z</time>
      </trkpt>
      <trkpt lat="43.70522" lon="5.08511">
        <ele>221</ele>
        <time>2019-09-26T07:55:57Z</time>
      </trkpt>
      <trkpt lat="43.70522" lon="5.0851">
        <ele>221</ele>
        <time>2019-09-26T07:56:01Z</time>
      </trkpt>
      <trkpt lat="43.70522" lon="5.08509">
        <ele>221</ele>
        <time>2019-09-26T07:56:02Z</time>
      </trkpt>
      <trkpt lat="43.70522" lon="5.08511">
        <ele>221</ele>
        <time>2019-09-26T07:56:06Z</time>
      </trkpt>
      <trkpt lat="43.70522" lon="5.08511">
        <ele>220</ele>
        <time>2019-09-26T07:56:11Z</time>
      </trkpt>
      <trkpt lat="43.70523" lon="5.08512">
        <ele>220</ele>
        <time>2019-09-26T07:56:12Z</time>
      </trkpt>
      <trkpt lat="43.70523" lon="5.08512">
        <ele>219</ele>
        <time>2019-09-26T07:56:45Z</time>
      </trkpt>
      <trkpt lat="43.70519" lon="5.08526">
        <ele>219</ele>
        <time>2019-09-26T07:56:46Z</time>
      </trkpt>
      <trkpt lat="43.70516" lon="5.08527">
        <ele>219</ele>
        <time>2019-09-26T07:56:48Z</time>
      </trkpt>
      <trkpt lat="43.70513" lon="5.08528">
        <ele>219</ele>
        <time>2019-09-26T07:56:50Z</time>
      </trkpt>
      <trkpt lat="43.70511" lon="5.08529">
        <ele>219</ele>
        <time>2019-09-26T07:56:52Z</time>
      </trkpt>
      <trkpt lat="43.70508" lon="5.08529">
        <ele>218</ele>
        <time>2019-09-26T07:56:54Z</time>
      </trkpt>
      <trkpt lat="43.70503" lon="5.08529">
        <ele>218</ele>
        <time>2019-09-26T07:56:56Z</time>
      </trkpt>
      <trkpt lat="43.70501" lon="5.08529">
        <ele>218</ele>
        <time>2019-09-26T07:56:58Z</time>
      </trkpt>
      <trkpt lat="43.70499" lon="5.08529">
        <ele>218</ele>
        <time>2019-09-26T07:57:00Z</time>
      </trkpt>
      <trkpt lat="43.70496" lon="5.08529">
        <ele>218</ele>
        <time>2019-09-26T07:57:01Z</time>
      </trkpt>
      <trkpt lat="43.70494" lon="5.08529">
        <ele>218</ele>
        <time>2019-09-26T07:57:03Z</time>
      </trkpt>
      <trkpt lat="43.70492" lon="5.08529">
        <ele>218</ele>
        <time>2019-09-26T07:57:04Z</time>
      </trkpt>
      <trkpt lat="43.7049" lon="5.08529">
        <ele>218</ele>
        <time>2019-09-26T07:57:05Z</time>
      </trkpt>
      <trkpt lat="43.70487" lon="5.08529">
        <ele>218</ele>
        <time>2019-09-26T07:57:07Z</time>
      </trkpt>
      <trkpt lat="43.70485" lon="5.08529">
        <ele>218</ele>
        <time>2019-09-26T07:57:09Z</time>
      </trkpt>
      <trkpt lat="43.70483" lon="5.08529">
        <ele>218</ele>
        <time>2019-09-26T07:57:11Z</time>
      </trkpt>
      <trkpt lat="43.70481" lon="5.08528">
        <ele>218</ele>
        <time>2019-09-26T07:57:14Z</time>
      </trkpt>
      <trkpt lat="43.70479" lon="5.08523">
        <ele>218</ele>
        <time>2019-09-26T07:57:16Z</time>
      </trkpt>
      <trkpt lat="43.70478" lon="5.0852">
        <ele>218</ele>
        <time>2019-09-26T07:57:18Z</time>
      </trkpt>
      <trkpt lat="43.70478" lon="5.08518">
        <ele>218</ele>
        <time>2019-09-26T07:57:21Z</time>
      </trkpt>
      <trkpt lat="43.70477" lon="5.08516">
        <ele>218</ele>
        <time>2019-09-26T07:57:23Z</time>
      </trkpt>
      <trkpt lat="43.70477" lon="5.08513">
        <ele>217</ele>
        <time>2019-09-26T07:57:24Z</time>
      </trkpt>
      <trkpt lat="43.70476" lon="5.08509">
        <ele>217</ele>
        <time>2019-09-26T07:57:25Z</time>
      </trkpt>
      <trkpt lat="43.70475" lon="5.08507">
        <ele>217</ele>
        <time>2019-09-26T07:57:27Z</time>
      </trkpt>
      <trkpt lat="43.70473" lon="5.08505">
        <ele>217</ele>
        <time>2019-09-26T07:57:29Z</time>
      </trkpt>
      <trkpt lat="43.70472" lon="5.08503">
        <ele>217</ele>
        <time>2019-09-26T07:57:31Z</time>
      </trkpt>
      <trkpt lat="43.70471" lon="5.08501">
        <ele>217</ele>
        <time>2019-09-26T07:57:33Z</time>
      </trkpt>
      <trkpt lat="43.7047" lon="5.08499">
        <ele>217</ele>
        <time>2019-09-26T07:57:34Z</time>
      </trkpt>
      <trkpt lat="43.7047" lon="5.08497">
        <ele>217</ele>
        <time>2019-09-26T07:57:35Z</time>
      </trkpt>
      <trkpt lat="43.70469" lon="5.08494">
        <ele>217</ele>
        <time>2019-09-26T07:57:37Z</time>
      </trkpt>
      <trkpt lat="43.70468" lon="5.08491">
        <ele>217</ele>
        <time>2019-09-26T07:57:39Z</time>
      </trkpt>
      <trkpt lat="43.70469" lon="5.08488">
        <ele>217</ele>
        <time>2019-09-26T07:57:41Z</time>
      </trkpt>
      <trkpt lat="43.70469" lon="5.08486">
        <ele>217</ele>
        <time>2019-09-26T07:57:43Z</time>
      </trkpt>
      <trkpt lat="43.7047" lon="5.08483">
        <ele>217</ele>
        <time>2019-09-26T07:57:45Z</time>
      </trkpt>
      <trkpt lat="43.70472" lon="5.08479">
        <ele>217</ele>
        <time>2019-09-26T07:57:47Z</time>
      </trkpt>
      <trkpt lat="43.70473" lon="5.08478">
        <ele>217</ele>
        <time>2019-09-26T07:57:50Z</time>
      </trkpt>
      <trkpt lat="43.70474" lon="5.08477">
        <ele>217</ele>
        <time>2019-09-26T07:57:53Z</time>
      </trkpt>
      <trkpt lat="43.70474" lon="5.08476">
        <ele>215</ele>
        <time>2019-09-26T07:57:54Z</time>
      </trkpt>
      <trkpt lat="43.70475" lon="5.08471">
        <ele>215</ele>
        <time>2019-09-26T07:57:55Z</time>
      </trkpt>
      <trkpt lat="43.70476" lon="5.0847">
        <ele>215</ele>
        <time>2019-09-26T07:58:00Z</time>
      </trkpt>
      <trkpt lat="43.70477" lon="5.08468">
        <ele>215</ele>
        <time>2019-09-26T07:58:02Z</time>
      </trkpt>
      <trkpt lat="43.70477" lon="5.08466">
        <ele>215</ele>
        <time>2019-09-26T07:58:04Z</time>
      </trkpt>
      <trkpt lat="43.70478" lon="5.08465">
        <ele>213</ele>
        <time>2019-09-26T07:58:05Z</time>
      </trkpt>
      <trkpt lat="43.7048" lon="5.0846">
        <ele>213</ele>
        <time>2019-09-26T07:58:06Z</time>
      </trkpt>
      <trkpt lat="43.7048" lon="5.08459">
        <ele>213</ele>
        <time>2019-09-26T07:58:09Z</time>
      </trkpt>
      <trkpt lat="43.70481" lon="5.08457">
        <ele>213</ele>
        <time>2019-09-26T07:58:11Z</time>
      </trkpt>
      <trkpt lat="43.70482" lon="5.08455">
        <ele>213</ele>
        <time>2019-09-26T07:58:13Z</time>
      </trkpt>
      <trkpt lat="43.70482" lon="5.08453">
        <ele>213</ele>
        <time>2019-09-26T07:58:14Z</time>
      </trkpt>
      <trkpt lat="43.70483" lon="5.08451">
        <ele>213</ele>
        <time>2019-09-26T07:58:15Z</time>
      </trkpt>
      <trkpt lat="43.70483" lon="5.08448">
        <ele>213</ele>
        <time>2019-09-26T07:58:19Z</time>
      </trkpt>
      <trkpt lat="43.70484" lon="5.08445">
        <ele>213</ele>
        <time>2019-09-26T07:58:22Z</time>
      </trkpt>
      <trkpt lat="43.70484" lon="5.08445">
        <ele>212</ele>
        <time>2019-09-26T07:58:24Z</time>
      </trkpt>
      <trkpt lat="43.70484" lon="5.08442">
        <ele>212</ele>
        <time>2019-09-26T07:58:25Z</time>
      </trkpt>
      <trkpt lat="43.70484" lon="5.08439">
        <ele>212</ele>
        <time>2019-09-26T07:58:28Z</time>
      </trkpt>
      <trkpt lat="43.70485" lon="5.08436">
        <ele>212</ele>
        <time>2019-09-26T07:58:31Z</time>
      </trkpt>
      <trkpt lat="43.70485" lon="5.08436">
        <ele>210</ele>
        <time>2019-09-26T07:58:34Z</time>
      </trkpt>
      <trkpt lat="43.70486" lon="5.08433">
        <ele>210</ele>
        <time>2019-09-26T07:58:35Z</time>
      </trkpt>
      <trkpt lat="43.70487" lon="5.0843">
        <ele>210</ele>
        <time>2019-09-26T07:58:38Z</time>
      </trkpt>
      <trkpt lat="43.70489" lon="5.08428">
        <ele>210</ele>
        <time>2019-09-26T07:58:41Z</time>
      </trkpt>
      <trkpt lat="43.7049" lon="5.08427">
        <ele>208</ele>
        <time>2019-09-26T07:58:44Z</time>
      </trkpt>
      <trkpt lat="43.70492" lon="5.08428">
        <ele>208</ele>
        <time>2019-09-26T07:58:50Z</time>
      </trkpt>
      <trkpt lat="43.70494" lon="5.08429">
        <ele>208</ele>
        <time>2019-09-26T07:58:53Z</time>
      </trkpt>
      <trkpt lat="43.70494" lon="5.08429">
        <ele>207</ele>
        <time>2019-09-26T07:58:54Z</time>
      </trkpt>
      <trkpt lat="43.70497" lon="5.08432">
        <ele>207</ele>
        <time>2019-09-26T07:58:56Z</time>
      </trkpt>
      <trkpt lat="43.70497" lon="5.08433">
        <ele>207</ele>
        <time>2019-09-26T07:58:59Z</time>
      </trkpt>
      <trkpt lat="43.70498" lon="5.08435">
        <ele>207</ele>
        <time>2019-09-26T07:59:03Z</time>
      </trkpt>
      <trkpt lat="43.70498" lon="5.08436">
        <ele>205</ele>
        <time>2019-09-26T07:59:04Z</time>
      </trkpt>
      <trkpt lat="43.70498" lon="5.08441">
        <ele>205</ele>
        <time>2019-09-26T07:59:05Z</time>
      </trkpt>
      <trkpt lat="43.70499" lon="5.08443">
        <ele>205</ele>
        <time>2019-09-26T07:59:08Z</time>
      </trkpt>
      <trkpt lat="43.70499" lon="5.08444">
        <ele>205</ele>
        <time>2019-09-26T07:59:11Z</time>
      </trkpt>
      <trkpt lat="43.70499" lon="5.08446">
        <ele>205</ele>
        <time>2019-09-26T07:59:14Z</time>
      </trkpt>
      <trkpt lat="43.705" lon="5.08448">
        <ele>205</ele>
        <time>2019-09-26T07:59:15Z</time>
      </trkpt>
      <trkpt lat="43.705" lon="5.0845">
        <ele>205</ele>
        <time>2019-09-26T07:59:19Z</time>
      </trkpt>
      <trkpt lat="43.705" lon="5.08452">
        <ele>205</ele>
        <time>2019-09-26T07:59:23Z</time>
      </trkpt>
      <trkpt lat="43.70501" lon="5.08454">
        <ele>205</ele>
        <time>2019-09-26T07:59:24Z</time>
      </trkpt>
      <trkpt lat="43.70502" lon="5.08456">
        <ele>205</ele>
        <time>2019-09-26T07:59:26Z</time>
      </trkpt>
      <trkpt lat="43.70503" lon="5.08458">
        <ele>205</ele>
        <time>2019-09-26T07:59:29Z</time>
      </trkpt>
      <trkpt lat="43.70505" lon="5.08461">
        <ele>205</ele>
        <time>2019-09-26T07:59:32Z</time>
      </trkpt>
      <trkpt lat="43.70505" lon="5.08461">
        <ele>204</ele>
        <time>2019-09-26T07:59:34Z</time>
      </trkpt>
      <trkpt lat="43.70507" lon="5.08461">
        <ele>204</ele>
        <time>2019-09-26T07:59:35Z</time>
      </trkpt>
      <trkpt lat="43.70509" lon="5.08462">
        <ele>204</ele>
        <time>2019-09-26T07:59:38Z</time>
      </trkpt>
      <trkpt lat="43.70511" lon="5.08462">
        <ele>204</ele>
        <time>2019-09-26T07:59:41Z</time>
      </trkpt>
      <trkpt lat="43.70513" lon="5.08462">
        <ele>202</ele>
        <time>2019-09-26T07:59:44Z</time>
      </trkpt>
      <trkpt lat="43.70516" lon="5.0846">
        <ele>202</ele>
        <time>2019-09-26T07:59:47Z</time>
      </trkpt>
      <trkpt lat="43.70517" lon="5.08458">
        <ele>202</ele>
        <time>2019-09-26T07:59:50Z</time>
      </trkpt>
      <trkpt lat="43.70517" lon="5.08457">
        <ele>202</ele>
        <time>2019-09-26T07:59:53Z</time>
      </trkpt>
      <trkpt lat="43.70518" lon="5.08456">
        <ele>201</ele>
        <time>2019-09-26T07:59:54Z</time>
      </trkpt>
      <trkpt lat="43.70519" lon="5.08453">
        <ele>201</ele>
        <time>2019-09-26T07:59:56Z</time>
      </trkpt>
      <trkpt lat="43.70519" lon="5.08451">
        <ele>201</ele>
        <time>2019-09-26T08:00:00Z</time>
      </trkpt>
      <trkpt lat="43.70517" lon="5.08448">
        <ele>199</ele>
        <time>2019-09-26T08:00:04Z</time>
      </trkpt>
      <trkpt lat="43.70516" lon="5.08446">
        <ele>199</ele>
        <time>2019-09-26T08:00:07Z</time>
      </trkpt>
      <trkpt lat="43.70515" lon="5.08443">
        <ele>199</ele>
        <time>2019-09-26T08:00:11Z</time>
      </trkpt>
      <trkpt lat="43.70514" lon="5.08441">
        <ele>198</ele>
        <time>2019-09-26T08:00:14Z</time>
      </trkpt>
      <trkpt lat="43.70512" lon="5.08437">
        <ele>198</ele>
        <time>2019-09-26T08:00:18Z</time>
      </trkpt>
      <trkpt lat="43.70512" lon="5.08436">
        <ele>198</ele>
        <time>2019-09-26T08:00:21Z</time>
      </trkpt>
      <trkpt lat="43.70511" lon="5.08435">
        <ele>198</ele>
        <time>2019-09-26T08:00:24Z</time>
      </trkpt>
      <trkpt lat="43.70511" lon="5.08433">
        <ele>197</ele>
        <time>2019-09-26T08:00:25Z</time>
      </trkpt>
      <trkpt lat="43.70511" lon="5.0843">
        <ele>197</ele>
        <time>2019-09-26T08:00:27Z</time>
      </trkpt>
      <trkpt lat="43.7051" lon="5.08427">
        <ele>197</ele>
        <time>2019-09-26T08:00:30Z</time>
      </trkpt>
      <trkpt lat="43.70511" lon="5.08424">
        <ele>197</ele>
        <time>2019-09-26T08:00:33Z</time>
      </trkpt>
      <trkpt lat="43.70511" lon="5.08422">
        <ele>196</ele>
        <time>2019-09-26T08:00:35Z</time>
      </trkpt>
      <trkpt lat="43.70511" lon="5.08418">
        <ele>196</ele>
        <time>2019-09-26T08:00:38Z</time>
      </trkpt>
      <trkpt lat="43.70512" lon="5.08416">
        <ele>196</ele>
        <time>2019-09-26T08:00:41Z</time>
      </trkpt>
      <trkpt lat="43.70512" lon="5.08415">
        <ele>196</ele>
        <time>2019-09-26T08:00:43Z</time>
      </trkpt>
      <trkpt lat="43.70512" lon="5.08413">
        <ele>195</ele>
        <time>2019-09-26T08:00:44Z</time>
      </trkpt>
      <trkpt lat="43.70511" lon="5.0841">
        <ele>195</ele>
        <time>2019-09-26T08:00:46Z</time>
      </trkpt>
      <trkpt lat="43.70512" lon="5.08406">
        <ele>195</ele>
        <time>2019-09-26T08:00:49Z</time>
      </trkpt>
      <trkpt lat="43.70512" lon="5.08403">
        <ele>195</ele>
        <time>2019-09-26T08:00:52Z</time>
      </trkpt>
      <trkpt lat="43.70511" lon="5.084">
        <ele>194</ele>
        <time>2019-09-26T08:00:55Z</time>
      </trkpt>
      <trkpt lat="43.70511" lon="5.08397">
        <ele>194</ele>
        <time>2019-09-26T08:01:02Z</time>
      </trkpt>
      <trkpt lat="43.7051" lon="5.08394">
        <ele>193</ele>
        <time>2019-09-26T08:01:04Z</time>
      </trkpt>
      <trkpt lat="43.70508" lon="5.0839">
        <ele>193</ele>
        <time>2019-09-26T08:01:07Z</time>
      </trkpt>
      <trkpt lat="43.70508" lon="5.08388">
        <ele>193</ele>
        <time>2019-09-26T08:01:09Z</time>
      </trkpt>
      <trkpt lat="43.70507" lon="5.08387">
        <ele>193</ele>
        <time>2019-09-26T08:01:11Z</time>
      </trkpt>
      <trkpt lat="43.70507" lon="5.08385">
        <ele>193</ele>
        <time>2019-09-26T08:01:13Z</time>
      </trkpt>
      <trkpt lat="43.70507" lon="5.08384">
        <ele>193</ele>
        <time>2019-09-26T08:01:14Z</time>
      </trkpt>
      <trkpt lat="43.70507" lon="5.0838">
        <ele>193</ele>
        <time>2019-09-26T08:01:16Z</time>
      </trkpt>
      <trkpt lat="43.70508" lon="5.08379">
        <ele>193</ele>
        <time>2019-09-26T08:01:19Z</time>
      </trkpt>
      <trkpt lat="43.70508" lon="5.08378">
        <ele>193</ele>
        <time>2019-09-26T08:01:23Z</time>
      </trkpt>
      <trkpt lat="43.70509" lon="5.08377">
        <ele>193</ele>
        <time>2019-09-26T08:01:24Z</time>
      </trkpt>
      <trkpt lat="43.7051" lon="5.08374">
        <ele>193</ele>
        <time>2019-09-26T08:01:26Z</time>
      </trkpt>
      <trkpt lat="43.70511" lon="5.08372">
        <ele>193</ele>
        <time>2019-09-26T08:01:28Z</time>
      </trkpt>
      <trkpt lat="43.70512" lon="5.08369">
        <ele>193</ele>
        <time>2019-09-26T08:01:30Z</time>
      </trkpt>
      <trkpt lat="43.70513" lon="5.08367">
        <ele>193</ele>
        <time>2019-09-26T08:01:32Z</time>
      </trkpt>
      <trkpt lat="43.70513" lon="5.08364">
        <ele>192</ele>
        <time>2019-09-26T08:01:34Z</time>
      </trkpt>
      <trkpt lat="43.70514" lon="5.08358">
        <ele>192</ele>
        <time>2019-09-26T08:01:37Z</time>
      </trkpt>
      <trkpt lat="43.70514" lon="5.08357">
        <ele>192</ele>
        <time>2019-09-26T08:01:39Z</time>
      </trkpt>
      <trkpt lat="43.70515" lon="5.08355">
        <ele>192</ele>
        <time>2019-09-26T08:01:41Z</time>
      </trkpt>
      <trkpt lat="43.70515" lon="5.08354">
        <ele>192</ele>
        <time>2019-09-26T08:01:43Z</time>
      </trkpt>
      <trkpt lat="43.70516" lon="5.08352">
        <ele>190</ele>
        <time>2019-09-26T08:01:44Z</time>
      </trkpt>
      <trkpt lat="43.70518" lon="5.08347">
        <ele>190</ele>
        <time>2019-09-26T08:01:46Z</time>
      </trkpt>
      <trkpt lat="43.70518" lon="5.08345">
        <ele>190</ele>
        <time>2019-09-26T08:01:48Z</time>
      </trkpt>
      <trkpt lat="43.70519" lon="5.08344">
        <ele>190</ele>
        <time>2019-09-26T08:01:51Z</time>
      </trkpt>
      <trkpt lat="43.7052" lon="5.08342">
        <ele>190</ele>
        <time>2019-09-26T08:01:53Z</time>
      </trkpt>
      <trkpt lat="43.7052" lon="5.0834">
        <ele>190</ele>
        <time>2019-09-26T08:01:54Z</time>
      </trkpt>
      <trkpt lat="43.7052" lon="5.08338">
        <ele>190</ele>
        <time>2019-09-26T08:01:55Z</time>
      </trkpt>
      <trkpt lat="43.70521" lon="5.08336">
        <ele>190</ele>
        <time>2019-09-26T08:01:57Z</time>
      </trkpt>
      <trkpt lat="43.70522" lon="5.08333">
        <ele>190</ele>
        <time>2019-09-26T08:01:59Z</time>
      </trkpt>
      <trkpt lat="43.70522" lon="5.0833">
        <ele>190</ele>
        <time>2019-09-26T08:02:02Z</time>
      </trkpt>
      <trkpt lat="43.7052" lon="5.08328">
        <ele>190</ele>
        <time>2019-09-26T08:02:04Z</time>
      </trkpt>
      <trkpt lat="43.7052" lon="5.08325">
        <ele>190</ele>
        <time>2019-09-26T08:02:07Z</time>
      </trkpt>
      <trkpt lat="43.70521" lon="5.08322">
        <ele>190</ele>
        <time>2019-09-26T08:02:10Z</time>
      </trkpt>
      <trkpt lat="43.70521" lon="5.08322">
        <ele>190</ele>
        <time>2019-09-26T08:02:14Z</time>
      </trkpt>
      <trkpt lat="43.70522" lon="5.08319">
        <ele>190</ele>
        <time>2019-09-26T08:02:23Z</time>
      </trkpt>
      <trkpt lat="43.70522" lon="5.08319">
        <ele>191</ele>
        <time>2019-09-26T08:02:24Z</time>
      </trkpt>
      <trkpt lat="43.70522" lon="5.08316">
        <ele>191</ele>
        <time>2019-09-26T08:02:27Z</time>
      </trkpt>
      <trkpt lat="43.70523" lon="5.08312">
        <ele>191</ele>
        <time>2019-09-26T08:02:32Z</time>
      </trkpt>
      <trkpt lat="43.70523" lon="5.08312">
        <ele>192</ele>
        <time>2019-09-26T08:02:34Z</time>
      </trkpt>
      <trkpt lat="43.70524" lon="5.0831">
        <ele>192</ele>
        <time>2019-09-26T08:02:35Z</time>
      </trkpt>
      <trkpt lat="43.70525" lon="5.08308">
        <ele>192</ele>
        <time>2019-09-26T08:02:38Z</time>
      </trkpt>
      <trkpt lat="43.70526" lon="5.08305">
        <ele>192</ele>
        <time>2019-09-26T08:02:41Z</time>
      </trkpt>
      <trkpt lat="43.70526" lon="5.08305">
        <ele>194</ele>
        <time>2019-09-26T08:02:44Z</time>
      </trkpt>
      <trkpt lat="43.70526" lon="5.08303">
        <ele>194</ele>
        <time>2019-09-26T08:02:51Z</time>
      </trkpt>
      <trkpt lat="43.70526" lon="5.08303">
        <ele>195</ele>
        <time>2019-09-26T08:02:54Z</time>
      </trkpt>
      <trkpt lat="43.70526" lon="5.08304">
        <ele>195</ele>
        <time>2019-09-26T08:02:55Z</time>
      </trkpt>
      <trkpt lat="43.70525" lon="5.08304">
        <ele>195</ele>
        <time>2019-09-26T08:04:56Z</time>
      </trkpt>
      <trkpt lat="43.70525" lon="5.08305">
        <ele>195</ele>
        <time>2019-09-26T08:04:58Z</time>
      </trkpt>
      <trkpt lat="43.70524" lon="5.08305">
        <ele>195</ele>
        <time>2019-09-26T08:05:01Z</time>
      </trkpt>
      <trkpt lat="43.70524" lon="5.08306">
        <ele>195</ele>
        <time>2019-09-26T08:05:04Z</time>
      </trkpt>
      <trkpt lat="43.70524" lon="5.08306">
        <ele>194</ele>
        <time>2019-09-26T08:05:05Z</time>
      </trkpt>
      <trkpt lat="43.70522" lon="5.08307">
        <ele>194</ele>
        <time>2019-09-26T08:05:14Z</time>
      </trkpt>
      <trkpt lat="43.70521" lon="5.08308">
        <ele>194</ele>
        <time>2019-09-26T08:05:15Z</time>
      </trkpt>
      <trkpt lat="43.70526" lon="5.08324">
        <ele>192</ele>
        <time>2019-09-26T08:06:06Z</time>
      </trkpt>
      <trkpt lat="43.70526" lon="5.08326">
        <ele>192</ele>
        <time>2019-09-26T08:06:10Z</time>
      </trkpt>
      <trkpt lat="43.70526" lon="5.08327">
        <ele>192</ele>
        <time>2019-09-26T08:06:15Z</time>
      </trkpt>
      <trkpt lat="43.70527" lon="5.08328">
        <ele>192</ele>
        <time>2019-09-26T08:06:22Z</time>
      </trkpt>
      <trkpt lat="43.70527" lon="5.08329">
        <ele>192</ele>
        <time>2019-09-26T08:06:25Z</time>
      </trkpt>
      <trkpt lat="43.70527" lon="5.08331">
        <ele>191</ele>
        <time>2019-09-26T08:06:26Z</time>
      </trkpt>
      <trkpt lat="43.70529" lon="5.08332">
        <ele>191</ele>
        <time>2019-09-26T08:06:28Z</time>
      </trkpt>
      <trkpt lat="43.70529" lon="5.08332">
        <ele>191</ele>
        <time>2019-09-26T08:06:29Z</time>
      </trkpt>
      <trkpt lat="43.7053" lon="5.08338">
        <ele>188</ele>
        <time>2019-09-26T08:06:54Z</time>
      </trkpt>
      <trkpt lat="43.70532" lon="5.08344">
        <ele>188</ele>
        <time>2019-09-26T08:06:55Z</time>
      </trkpt>
      <trkpt lat="43.70533" lon="5.0835">
        <ele>188</ele>
        <time>2019-09-26T08:06:57Z</time>
      </trkpt>
      <trkpt lat="43.70534" lon="5.08356">
        <ele>188</ele>
        <time>2019-09-26T08:07:00Z</time>
      </trkpt>
      <trkpt lat="43.70536" lon="5.08362">
        <ele>188</ele>
        <time>2019-09-26T08:07:02Z</time>
      </trkpt>
      <trkpt lat="43.70537" lon="5.08368">
        <ele>185</ele>
        <time>2019-09-26T08:07:03Z</time>
      </trkpt>
      <trkpt lat="43.70536" lon="5.08373">
        <ele>185</ele>
        <time>2019-09-26T08:07:04Z</time>
      </trkpt>
      <trkpt lat="43.70536" lon="5.08375">
        <ele>185</ele>
        <time>2019-09-26T08:07:06Z</time>
      </trkpt>
      <trkpt lat="43.70536" lon="5.08378">
        <ele>185</ele>
        <time>2019-09-26T08:07:08Z</time>
      </trkpt>
      <trkpt lat="43.70536" lon="5.0838">
        <ele>185</ele>
        <time>2019-09-26T08:07:10Z</time>
      </trkpt>
      <trkpt lat="43.70537" lon="5.08382">
        <ele>185</ele>
        <time>2019-09-26T08:07:12Z</time>
      </trkpt>
      <trkpt lat="43.70537" lon="5.08385">
        <ele>185</ele>
        <time>2019-09-26T08:07:13Z</time>
      </trkpt>
      <trkpt lat="43.70538" lon="5.08388">
        <ele>185</ele>
        <time>2019-09-26T08:07:14Z</time>
      </trkpt>
      <trkpt lat="43.70538" lon="5.0839">
        <ele>185</ele>
        <time>2019-09-26T08:07:16Z</time>
      </trkpt>
      <trkpt lat="43.70539" lon="5.08392">
        <ele>185</ele>
        <time>2019-09-26T08:07:18Z</time>
      </trkpt>
      <trkpt lat="43.7054" lon="5.08394">
        <ele>185</ele>
        <time>2019-09-26T08:07:20Z</time>
      </trkpt>
      <trkpt lat="43.7054" lon="5.08396">
        <ele>185</ele>
        <time>2019-09-26T08:07:22Z</time>
      </trkpt>
      <trkpt lat="43.70541" lon="5.08398">
        <ele>185</ele>
        <time>2019-09-26T08:07:23Z</time>
      </trkpt>
      <trkpt lat="43.70541" lon="5.084">
        <ele>185</ele>
        <time>2019-09-26T08:07:24Z</time>
      </trkpt>
      <trkpt lat="43.70543" lon="5.08403">
        <ele>185</ele>
        <time>2019-09-26T08:07:27Z</time>
      </trkpt>
      <trkpt lat="43.70544" lon="5.08405">
        <ele>185</ele>
        <time>2019-09-26T08:07:31Z</time>
      </trkpt>
      <trkpt lat="43.70544" lon="5.08405">
        <ele>185</ele>
        <time>2019-09-26T08:07:33Z</time>
      </trkpt>
      <trkpt lat="43.70547" lon="5.08411">
        <ele>185</ele>
        <time>2019-09-26T08:07:36Z</time>
      </trkpt>
      <trkpt lat="43.70548" lon="5.08413">
        <ele>185</ele>
        <time>2019-09-26T08:07:38Z</time>
      </trkpt>
      <trkpt lat="43.70549" lon="5.08415">
        <ele>185</ele>
        <time>2019-09-26T08:07:40Z</time>
      </trkpt>
      <trkpt lat="43.7055" lon="5.08416">
        <ele>185</ele>
        <time>2019-09-26T08:07:42Z</time>
      </trkpt>
      <trkpt lat="43.7055" lon="5.08418">
        <ele>184</ele>
        <time>2019-09-26T08:07:43Z</time>
      </trkpt>
      <trkpt lat="43.70552" lon="5.08421">
        <ele>184</ele>
        <time>2019-09-26T08:07:45Z</time>
      </trkpt>
      <trkpt lat="43.70553" lon="5.08423">
        <ele>184</ele>
        <time>2019-09-26T08:07:47Z</time>
      </trkpt>
      <trkpt lat="43.70555" lon="5.08425">
        <ele>184</ele>
        <time>2019-09-26T08:07:50Z</time>
      </trkpt>
      <trkpt lat="43.70556" lon="5.08427">
        <ele>183</ele>
        <time>2019-09-26T08:07:53Z</time>
      </trkpt>
      <trkpt lat="43.70558" lon="5.08429">
        <ele>183</ele>
        <time>2019-09-26T08:07:55Z</time>
      </trkpt>
      <trkpt lat="43.7056" lon="5.08431">
        <ele>183</ele>
        <time>2019-09-26T08:07:57Z</time>
      </trkpt>
      <trkpt lat="43.70561" lon="5.08433">
        <ele>183</ele>
        <time>2019-09-26T08:07:59Z</time>
      </trkpt>
      <trkpt lat="43.70563" lon="5.08434">
        <ele>183</ele>
        <time>2019-09-26T08:08:01Z</time>
      </trkpt>
      <trkpt lat="43.70564" lon="5.08436">
        <ele>182</ele>
        <time>2019-09-26T08:08:04Z</time>
      </trkpt>
      <trkpt lat="43.70566" lon="5.08438">
        <ele>182</ele>
        <time>2019-09-26T08:08:06Z</time>
      </trkpt>
      <trkpt lat="43.70568" lon="5.08439">
        <ele>182</ele>
        <time>2019-09-26T08:08:08Z</time>
      </trkpt>
      <trkpt lat="43.7057" lon="5.0844">
        <ele>182</ele>
        <time>2019-09-26T08:08:11Z</time>
      </trkpt>
      <trkpt lat="43.7057" lon="5.0844">
        <ele>181</ele>
        <time>2019-09-26T08:08:13Z</time>
      </trkpt>
      <trkpt lat="43.70573" lon="5.08441">
        <ele>181</ele>
        <time>2019-09-26T08:08:15Z</time>
      </trkpt>
      <trkpt lat="43.70575" lon="5.08442">
        <ele>181</ele>
        <time>2019-09-26T08:08:17Z</time>
      </trkpt>
      <trkpt lat="43.70577" lon="5.08444">
        <ele>181</ele>
        <time>2019-09-26T08:08:19Z</time>
      </trkpt>
      <trkpt lat="43.70579" lon="5.08445">
        <ele>181</ele>
        <time>2019-09-26T08:08:21Z</time>
      </trkpt>
      <trkpt lat="43.70581" lon="5.08446">
        <ele>180</ele>
        <time>2019-09-26T08:08:23Z</time>
      </trkpt>
      <trkpt lat="43.70585" lon="5.08449">
        <ele>180</ele>
        <time>2019-09-26T08:08:27Z</time>
      </trkpt>
      <trkpt lat="43.70586" lon="5.08449">
        <ele>180</ele>
        <time>2019-09-26T08:08:30Z</time>
      </trkpt>
      <trkpt lat="43.70587" lon="5.08449">
        <ele>180</ele>
        <time>2019-09-26T08:08:32Z</time>
      </trkpt>
      <trkpt lat="43.70588" lon="5.0845">
        <ele>178</ele>
        <time>2019-09-26T08:08:33Z</time>
      </trkpt>
      <trkpt lat="43.7059" lon="5.08451">
        <ele>178</ele>
        <time>2019-09-26T08:08:34Z</time>
      </trkpt>
      <trkpt lat="43.70592" lon="5.08453">
        <ele>178</ele>
        <time>2019-09-26T08:08:36Z</time>
      </trkpt>
      <trkpt lat="43.70595" lon="5.08453">
        <ele>178</ele>
        <time>2019-09-26T08:08:39Z</time>
      </trkpt>
      <trkpt lat="43.70596" lon="5.08454">
        <ele>178</ele>
        <time>2019-09-26T08:08:41Z</time>
      </trkpt>
      <trkpt lat="43.70596" lon="5.08454">
        <ele>177</ele>
        <time>2019-09-26T08:08:43Z</time>
      </trkpt>
      <trkpt lat="43.70599" lon="5.08455">
        <ele>177</ele>
        <time>2019-09-26T08:08:44Z</time>
      </trkpt>
      <trkpt lat="43.70601" lon="5.08457">
        <ele>177</ele>
        <time>2019-09-26T08:08:48Z</time>
      </trkpt>
      <trkpt lat="43.70603" lon="5.08457">
        <ele>177</ele>
        <time>2019-09-26T08:08:50Z</time>
      </trkpt>
      <trkpt lat="43.70606" lon="5.08458">
        <ele>177</ele>
        <time>2019-09-26T08:08:53Z</time>
      </trkpt>
      <trkpt lat="43.70608" lon="5.08459">
        <ele>177</ele>
        <time>2019-09-26T08:08:55Z</time>
      </trkpt>
      <trkpt lat="43.7061" lon="5.0846">
        <ele>177</ele>
        <time>2019-09-26T08:08:57Z</time>
      </trkpt>
      <trkpt lat="43.70612" lon="5.08461">
        <ele>177</ele>
        <time>2019-09-26T08:08:59Z</time>
      </trkpt>
      <trkpt lat="43.70614" lon="5.08461">
        <ele>177</ele>
        <time>2019-09-26T08:09:01Z</time>
      </trkpt>
      <trkpt lat="43.70616" lon="5.08462">
        <ele>176</ele>
        <time>2019-09-26T08:09:03Z</time>
      </trkpt>
      <trkpt lat="43.70619" lon="5.08463">
        <ele>176</ele>
        <time>2019-09-26T08:09:05Z</time>
      </trkpt>
      <trkpt lat="43.70621" lon="5.08464">
        <ele>176</ele>
        <time>2019-09-26T08:09:07Z</time>
      </trkpt>
      <trkpt lat="43.70622" lon="5.08465">
        <ele>176</ele>
        <time>2019-09-26T08:09:09Z</time>
      </trkpt>
      <trkpt lat="43.70624" lon="5.08465">
        <ele>176</ele>
        <time>2019-09-26T08:09:12Z</time>
      </trkpt>
      <trkpt lat="43.70625" lon="5.08466">
        <ele>175</ele>
        <time>2019-09-26T08:09:13Z</time>
      </trkpt>
      <trkpt lat="43.70627" lon="5.08467">
        <ele>175</ele>
        <time>2019-09-26T08:09:14Z</time>
      </trkpt>
      <trkpt lat="43.70629" lon="5.08467">
        <ele>175</ele>
        <time>2019-09-26T08:09:17Z</time>
      </trkpt>
      <trkpt lat="43.7063" lon="5.08468">
        <ele>175</ele>
        <time>2019-09-26T08:09:19Z</time>
      </trkpt>
      <trkpt lat="43.70632" lon="5.08468">
        <ele>175</ele>
        <time>2019-09-26T08:09:22Z</time>
      </trkpt>
      <trkpt lat="43.70633" lon="5.08469">
        <ele>174</ele>
        <time>2019-09-26T08:09:23Z</time>
      </trkpt>
      <trkpt lat="43.70636" lon="5.08471">
        <ele>174</ele>
        <time>2019-09-26T08:09:24Z</time>
      </trkpt>
      <trkpt lat="43.70638" lon="5.08471">
        <ele>174</ele>
        <time>2019-09-26T08:09:26Z</time>
      </trkpt>
      <trkpt lat="43.70639" lon="5.08472">
        <ele>174</ele>
        <time>2019-09-26T08:09:29Z</time>
      </trkpt>
      <trkpt lat="43.70641" lon="5.08473">
        <ele>174</ele>
        <time>2019-09-26T08:09:32Z</time>
      </trkpt>
      <trkpt lat="43.70642" lon="5.08473">
        <ele>173</ele>
        <time>2019-09-26T08:09:33Z</time>
      </trkpt>
      <trkpt lat="43.70646" lon="5.08475">
        <ele>173</ele>
        <time>2019-09-26T08:09:35Z</time>
      </trkpt>
      <trkpt lat="43.70647" lon="5.08475">
        <ele>173</ele>
        <time>2019-09-26T08:09:37Z</time>
      </trkpt>
      <trkpt lat="43.70648" lon="5.08475">
        <ele>173</ele>
        <time>2019-09-26T08:09:39Z</time>
      </trkpt>
      <trkpt lat="43.70649" lon="5.08475">
        <ele>173</ele>
        <time>2019-09-26T08:09:42Z</time>
      </trkpt>
      <trkpt lat="43.70651" lon="5.08475">
        <ele>170</ele>
        <time>2019-09-26T08:09:43Z</time>
      </trkpt>
      <trkpt lat="43.70654" lon="5.08473">
        <ele>170</ele>
        <time>2019-09-26T08:09:45Z</time>
      </trkpt>
      <trkpt lat="43.70655" lon="5.08472">
        <ele>170</ele>
        <time>2019-09-26T08:09:48Z</time>
      </trkpt>
      <trkpt lat="43.70657" lon="5.08471">
        <ele>170</ele>
        <time>2019-09-26T08:09:50Z</time>
      </trkpt>
      <trkpt lat="43.70658" lon="5.0847">
        <ele>170</ele>
        <time>2019-09-26T08:09:52Z</time>
      </trkpt>
      <trkpt lat="43.70659" lon="5.08469">
        <ele>169</ele>
        <time>2019-09-26T08:09:53Z</time>
      </trkpt>
      <trkpt lat="43.70661" lon="5.08467">
        <ele>169</ele>
        <time>2019-09-26T08:09:55Z</time>
      </trkpt>
      <trkpt lat="43.70663" lon="5.08465">
        <ele>169</ele>
        <time>2019-09-26T08:09:58Z</time>
      </trkpt>
      <trkpt lat="43.70665" lon="5.08464">
        <ele>169</ele>
        <time>2019-09-26T08:10:01Z</time>
      </trkpt>
      <trkpt lat="43.70665" lon="5.08464">
        <ele>168</ele>
        <time>2019-09-26T08:10:03Z</time>
      </trkpt>
      <trkpt lat="43.70668" lon="5.08462">
        <ele>168</ele>
        <time>2019-09-26T08:10:04Z</time>
      </trkpt>
      <trkpt lat="43.70669" lon="5.08461">
        <ele>168</ele>
        <time>2019-09-26T08:10:06Z</time>
      </trkpt>
      <trkpt lat="43.7067" lon="5.08461">
        <ele>168</ele>
        <time>2019-09-26T08:10:08Z</time>
      </trkpt>
      <trkpt lat="43.70671" lon="5.0846">
        <ele>168</ele>
        <time>2019-09-26T08:10:10Z</time>
      </trkpt>
      <trkpt lat="43.70673" lon="5.0846">
        <ele>168</ele>
        <time>2019-09-26T08:10:12Z</time>
      </trkpt>
      <trkpt lat="43.70674" lon="5.08459">
        <ele>165</ele>
        <time>2019-09-26T08:10:13Z</time>
      </trkpt>
      <trkpt lat="43.70678" lon="5.0846">
        <ele>165</ele>
        <time>2019-09-26T08:10:14Z</time>
      </trkpt>
      <trkpt lat="43.7068" lon="5.08459">
        <ele>165</ele>
        <time>2019-09-26T08:10:16Z</time>
      </trkpt>
      <trkpt lat="43.70681" lon="5.08459">
        <ele>165</ele>
        <time>2019-09-26T08:10:18Z</time>
      </trkpt>
      <trkpt lat="43.70683" lon="5.08459">
        <ele>165</ele>
        <time>2019-09-26T08:10:20Z</time>
      </trkpt>
      <trkpt lat="43.70685" lon="5.08459">
        <ele>165</ele>
        <time>2019-09-26T08:10:22Z</time>
      </trkpt>
      <trkpt lat="43.70686" lon="5.08459">
        <ele>165</ele>
        <time>2019-09-26T08:10:23Z</time>
      </trkpt>
      <trkpt lat="43.70688" lon="5.08459">
        <ele>164</ele>
        <time>2019-09-26T08:10:24Z</time>
      </trkpt>
      <trkpt lat="43.7069" lon="5.08458">
        <ele>164</ele>
        <time>2019-09-26T08:10:25Z</time>
      </trkpt>
      <trkpt lat="43.70692" lon="5.08458">
        <ele>164</ele>
        <time>2019-09-26T08:10:28Z</time>
      </trkpt>
      <trkpt lat="43.70693" lon="5.08458">
        <ele>164</ele>
        <time>2019-09-26T08:10:30Z</time>
      </trkpt>
      <trkpt lat="43.70694" lon="5.08458">
        <ele>164</ele>
        <time>2019-09-26T08:10:32Z</time>
      </trkpt>
      <trkpt lat="43.70696" lon="5.08457">
        <ele>161</ele>
        <time>2019-09-26T08:10:33Z</time>
      </trkpt>
      <trkpt lat="43.70697" lon="5.08457">
        <ele>161</ele>
        <time>2019-09-26T08:10:35Z</time>
      </trkpt>
      <trkpt lat="43.707" lon="5.08456">
        <ele>161</ele>
        <time>2019-09-26T08:10:38Z</time>
      </trkpt>
      <trkpt lat="43.70702" lon="5.08456">
        <ele>161</ele>
        <time>2019-09-26T08:10:40Z</time>
      </trkpt>
      <trkpt lat="43.70704" lon="5.08456">
        <ele>161</ele>
        <time>2019-09-26T08:10:42Z</time>
      </trkpt>
      <trkpt lat="43.70706" lon="5.08456">
        <ele>160</ele>
        <time>2019-09-26T08:10:44Z</time>
      </trkpt>
      <trkpt lat="43.70709" lon="5.08456">
        <ele>160</ele>
        <time>2019-09-26T08:10:47Z</time>
      </trkpt>
      <trkpt lat="43.70711" lon="5.08456">
        <ele>160</ele>
        <time>2019-09-26T08:10:49Z</time>
      </trkpt>
      <trkpt lat="43.70713" lon="5.08456">
        <ele>160</ele>
        <time>2019-09-26T08:10:51Z</time>
      </trkpt>
      <trkpt lat="43.70713" lon="5.08456">
        <ele>158</ele>
        <time>2019-09-26T08:10:53Z</time>
      </trkpt>
      <trkpt lat="43.70717" lon="5.08457">
        <ele>158</ele>
        <time>2019-09-26T08:10:54Z</time>
      </trkpt>
      <trkpt lat="43.70719" lon="5.08459">
        <ele>158</ele>
        <time>2019-09-26T08:10:56Z</time>
      </trkpt>
      <trkpt lat="43.70721" lon="5.0846">
        <ele>158</ele>
        <time>2019-09-26T08:10:58Z</time>
      </trkpt>
      <trkpt lat="43.70722" lon="5.08462">
        <ele>158</ele>
        <time>2019-09-26T08:11:00Z</time>
      </trkpt>
      <trkpt lat="43.70724" lon="5.08463">
        <ele>158</ele>
        <time>2019-09-26T08:11:02Z</time>
      </trkpt>
      <trkpt lat="43.70725" lon="5.08465">
        <ele>156</ele>
        <time>2019-09-26T08:11:03Z</time>
      </trkpt>
      <trkpt lat="43.70727" lon="5.08466">
        <ele>156</ele>
        <time>2019-09-26T08:11:04Z</time>
      </trkpt>
      <trkpt lat="43.70728" lon="5.08468">
        <ele>156</ele>
        <time>2019-09-26T08:11:06Z</time>
      </trkpt>
      <trkpt lat="43.7073" lon="5.08469">
        <ele>156</ele>
        <time>2019-09-26T08:11:08Z</time>
      </trkpt>
      <trkpt lat="43.70731" lon="5.0847">
        <ele>156</ele>
        <time>2019-09-26T08:11:10Z</time>
      </trkpt>
      <trkpt lat="43.70732" lon="5.08471">
        <ele>156</ele>
        <time>2019-09-26T08:11:12Z</time>
      </trkpt>
      <trkpt lat="43.70733" lon="5.08472">
        <ele>156</ele>
        <time>2019-09-26T08:11:13Z</time>
      </trkpt>
      <trkpt lat="43.70736" lon="5.08475">
        <ele>156</ele>
        <time>2019-09-26T08:11:15Z</time>
      </trkpt>
      <trkpt lat="43.70739" lon="5.08477">
        <ele>156</ele>
        <time>2019-09-26T08:11:17Z</time>
      </trkpt>
      <trkpt lat="43.70741" lon="5.08479">
        <ele>156</ele>
        <time>2019-09-26T08:11:19Z</time>
      </trkpt>
      <trkpt lat="43.70744" lon="5.08481">
        <ele>156</ele>
        <time>2019-09-26T08:11:21Z</time>
      </trkpt>
      <trkpt lat="43.70746" lon="5.08482">
        <ele>153</ele>
        <time>2019-09-26T08:11:23Z</time>
      </trkpt>
      <trkpt lat="43.70748" lon="5.08482">
        <ele>153</ele>
        <time>2019-09-26T08:11:25Z</time>
      </trkpt>
      <trkpt lat="43.70749" lon="5.08481">
        <ele>153</ele>
        <time>2019-09-26T08:11:28Z</time>
      </trkpt>
      <trkpt lat="43.7075" lon="5.0848">
        <ele>153</ele>
        <time>2019-09-26T08:11:32Z</time>
      </trkpt>
      <trkpt lat="43.7075" lon="5.0848">
        <ele>152</ele>
        <time>2019-09-26T08:11:33Z</time>
      </trkpt>
      <trkpt lat="43.70751" lon="5.08476">
        <ele>152</ele>
        <time>2019-09-26T08:11:35Z</time>
      </trkpt>
      <trkpt lat="43.70751" lon="5.08473">
        <ele>152</ele>
        <time>2019-09-26T08:11:38Z</time>
      </trkpt>
      <trkpt lat="43.7075" lon="5.08471">
        <ele>152</ele>
        <time>2019-09-26T08:11:41Z</time>
      </trkpt>
      <trkpt lat="43.7075" lon="5.08471">
        <ele>150</ele>
        <time>2019-09-26T08:11:43Z</time>
      </trkpt>
      <trkpt lat="43.70748" lon="5.08467">
        <ele>150</ele>
        <time>2019-09-26T08:11:44Z</time>
      </trkpt>
      <trkpt lat="43.70747" lon="5.08465">
        <ele>150</ele>
        <time>2019-09-26T08:11:46Z</time>
      </trkpt>
      <trkpt lat="43.70746" lon="5.08463">
        <ele>150</ele>
        <time>2019-09-26T08:11:48Z</time>
      </trkpt>
      <trkpt lat="43.70745" lon="5.08461">
        <ele>150</ele>
        <time>2019-09-26T08:11:50Z</time>
      </trkpt>
      <trkpt lat="43.70744" lon="5.08459">
        <ele>150</ele>
        <time>2019-09-26T08:11:52Z</time>
      </trkpt>
      <trkpt lat="43.70743" lon="5.08457">
        <ele>151</ele>
        <time>2019-09-26T08:11:53Z</time>
      </trkpt>
      <trkpt lat="43.70742" lon="5.08455">
        <ele>151</ele>
        <time>2019-09-26T08:11:54Z</time>
      </trkpt>
      <trkpt lat="43.70741" lon="5.08452">
        <ele>151</ele>
        <time>2019-09-26T08:11:56Z</time>
      </trkpt>
      <trkpt lat="43.7074" lon="5.08449">
        <ele>151</ele>
        <time>2019-09-26T08:11:58Z</time>
      </trkpt>
      <trkpt lat="43.7074" lon="5.08445">
        <ele>151</ele>
        <time>2019-09-26T08:12:01Z</time>
      </trkpt>
      <trkpt lat="43.70739" lon="5.08443">
        <ele>150</ele>
        <time>2019-09-26T08:12:03Z</time>
      </trkpt>
      <trkpt lat="43.70738" lon="5.08441">
        <ele>150</ele>
        <time>2019-09-26T08:12:05Z</time>
      </trkpt>
      <trkpt lat="43.70737" lon="5.08438">
        <ele>150</ele>
        <time>2019-09-26T08:12:07Z</time>
      </trkpt>
      <trkpt lat="43.70736" lon="5.08436">
        <ele>150</ele>
        <time>2019-09-26T08:12:09Z</time>
      </trkpt>
      <trkpt lat="43.70735" lon="5.08433">
        <ele>150</ele>
        <time>2019-09-26T08:12:11Z</time>
      </trkpt>
      <trkpt lat="43.70734" lon="5.08431">
        <ele>150</ele>
        <time>2019-09-26T08:12:13Z</time>
      </trkpt>
      <trkpt lat="43.70733" lon="5.08428">
        <ele>150</ele>
        <time>2019-09-26T08:12:15Z</time>
      </trkpt>
      <trkpt lat="43.70731" lon="5.08425">
        <ele>150</ele>
        <time>2019-09-26T08:12:17Z</time>
      </trkpt>
      <trkpt lat="43.7073" lon="5.08422">
        <ele>150</ele>
        <time>2019-09-26T08:12:19Z</time>
      </trkpt>
      <trkpt lat="43.70729" lon="5.08418">
        <ele>150</ele>
        <time>2019-09-26T08:12:21Z</time>
      </trkpt>
      <trkpt lat="43.70728" lon="5.08415">
        <ele>149</ele>
        <time>2019-09-26T08:12:23Z</time>
      </trkpt>
      <trkpt lat="43.70727" lon="5.08411">
        <ele>149</ele>
        <time>2019-09-26T08:12:25Z</time>
      </trkpt>
      <trkpt lat="43.70727" lon="5.08407">
        <ele>149</ele>
        <time>2019-09-26T08:12:27Z</time>
      </trkpt>
      <trkpt lat="43.70726" lon="5.08404">
        <ele>149</ele>
        <time>2019-09-26T08:12:29Z</time>
      </trkpt>
      <trkpt lat="43.70726" lon="5.08401">
        <ele>149</ele>
        <time>2019-09-26T08:12:31Z</time>
      </trkpt>
      <trkpt lat="43.70724" lon="5.08398">
        <ele>148</ele>
        <time>2019-09-26T08:12:33Z</time>
      </trkpt>
      <trkpt lat="43.70723" lon="5.08393">
        <ele>148</ele>
        <time>2019-09-26T08:12:36Z</time>
      </trkpt>
      <trkpt lat="43.70722" lon="5.08391">
        <ele>148</ele>
        <time>2019-09-26T08:12:38Z</time>
      </trkpt>
      <trkpt lat="43.70721" lon="5.08389">
        <ele>148</ele>
        <time>2019-09-26T08:12:40Z</time>
      </trkpt>
      <trkpt lat="43.70721" lon="5.08388">
        <ele>148</ele>
        <time>2019-09-26T08:12:42Z</time>
      </trkpt>
      <trkpt lat="43.7072" lon="5.08386">
        <ele>147</ele>
        <time>2019-09-26T08:12:43Z</time>
      </trkpt>
      <trkpt lat="43.70718" lon="5.08382">
        <ele>147</ele>
        <time>2019-09-26T08:12:44Z</time>
      </trkpt>
      <trkpt lat="43.70718" lon="5.0838">
        <ele>147</ele>
        <time>2019-09-26T08:12:46Z</time>
      </trkpt>
      <trkpt lat="43.70717" lon="5.08378">
        <ele>147</ele>
        <time>2019-09-26T08:12:48Z</time>
      </trkpt>
      <trkpt lat="43.70716" lon="5.08376">
        <ele>147</ele>
        <time>2019-09-26T08:12:50Z</time>
      </trkpt>
      <trkpt lat="43.70715" lon="5.08374">
        <ele>147</ele>
        <time>2019-09-26T08:12:52Z</time>
      </trkpt>
      <trkpt lat="43.70715" lon="5.08371">
        <ele>146</ele>
        <time>2019-09-26T08:12:53Z</time>
      </trkpt>
      <trkpt lat="43.70714" lon="5.0837">
        <ele>146</ele>
        <time>2019-09-26T08:12:54Z</time>
      </trkpt>
      <trkpt lat="43.70713" lon="5.08366">
        <ele>146</ele>
        <time>2019-09-26T08:12:57Z</time>
      </trkpt>
      <trkpt lat="43.70712" lon="5.08364">
        <ele>146</ele>
        <time>2019-09-26T08:12:59Z</time>
      </trkpt>
      <trkpt lat="43.70711" lon="5.08362">
        <ele>146</ele>
        <time>2019-09-26T08:13:01Z</time>
      </trkpt>
      <trkpt lat="43.7071" lon="5.08359">
        <ele>146</ele>
        <time>2019-09-26T08:13:03Z</time>
      </trkpt>
      <trkpt lat="43.70709" lon="5.08357">
        <ele>146</ele>
        <time>2019-09-26T08:13:05Z</time>
      </trkpt>
      <trkpt lat="43.70707" lon="5.08355">
        <ele>146</ele>
        <time>2019-09-26T08:13:07Z</time>
      </trkpt>
      <trkpt lat="43.70706" lon="5.08353">
        <ele>146</ele>
        <time>2019-09-26T08:13:09Z</time>
      </trkpt>
      <trkpt lat="43.70704" lon="5.08351">
        <ele>146</ele>
        <time>2019-09-26T08:13:11Z</time>
      </trkpt>
      <trkpt lat="43.70702" lon="5.0835">
        <ele>145</ele>
        <time>2019-09-26T08:13:13Z</time>
      </trkpt>
      <trkpt lat="43.70699" lon="5.08347">
        <ele>145</ele>
        <time>2019-09-26T08:13:16Z</time>
      </trkpt>
      <trkpt lat="43.70698" lon="5.08345">
        <ele>145</ele>
        <time>2019-09-26T08:13:18Z</time>
      </trkpt>
      <trkpt lat="43.70697" lon="5.08344">
        <ele>145</ele>
        <time>2019-09-26T08:13:20Z</time>
      </trkpt>
      <trkpt lat="43.70696" lon="5.08342">
        <ele>145</ele>
        <time>2019-09-26T08:13:22Z</time>
      </trkpt>
      <trkpt lat="43.70695" lon="5.08341">
        <ele>144</ele>
        <time>2019-09-26T08:13:23Z</time>
      </trkpt>
      <trkpt lat="43.70694" lon="5.08337">
        <ele>144</ele>
        <time>2019-09-26T08:13:24Z</time>
      </trkpt>
      <trkpt lat="43.70693" lon="5.08335">
        <ele>144</ele>
        <time>2019-09-26T08:13:26Z</time>
      </trkpt>
      <trkpt lat="43.70692" lon="5.08333">
        <ele>144</ele>
        <time>2019-09-26T08:13:28Z</time>
      </trkpt>
      <trkpt lat="43.70691" lon="5.08331">
        <ele>144</ele>
        <time>2019-09-26T08:13:30Z</time>
      </trkpt>
      <trkpt lat="43.7069" lon="5.08329">
        <ele>144</ele>
        <time>2019-09-26T08:13:32Z</time>
      </trkpt>
      <trkpt lat="43.7069" lon="5.08327">
        <ele>143</ele>
        <time>2019-09-26T08:13:33Z</time>
      </trkpt>
      <trkpt lat="43.70688" lon="5.08324">
        <ele>143</ele>
        <time>2019-09-26T08:13:34Z</time>
      </trkpt>
      <trkpt lat="43.70688" lon="5.08322">
        <ele>143</ele>
        <time>2019-09-26T08:13:36Z</time>
      </trkpt>
      <trkpt lat="43.70687" lon="5.08319">
        <ele>143</ele>
        <time>2019-09-26T08:13:38Z</time>
      </trkpt>
      <trkpt lat="43.70686" lon="5.08317">
        <ele>143</ele>
        <time>2019-09-26T08:13:40Z</time>
      </trkpt>
      <trkpt lat="43.70686" lon="5.08315">
        <ele>143</ele>
        <time>2019-09-26T08:13:42Z</time>
      </trkpt>
      <trkpt lat="43.70685" lon="5.08313">
        <ele>144</ele>
        <time>2019-09-26T08:13:43Z</time>
      </trkpt>
      <trkpt lat="43.70684" lon="5.08308">
        <ele>144</ele>
        <time>2019-09-26T08:13:44Z</time>
      </trkpt>
      <trkpt lat="43.70684" lon="5.08306">
        <ele>144</ele>
        <time>2019-09-26T08:13:46Z</time>
      </trkpt>
      <trkpt lat="43.70684" lon="5.08303">
        <ele>144</ele>
        <time>2019-09-26T08:13:48Z</time>
      </trkpt>
      <trkpt lat="43.70683" lon="5.08301">
        <ele>144</ele>
        <time>2019-09-26T08:13:50Z</time>
      </trkpt>
      <trkpt lat="43.70683" lon="5.08298">
        <ele>144</ele>
        <time>2019-09-26T08:13:52Z</time>
      </trkpt>
      <trkpt lat="43.70683" lon="5.08296">
        <ele>144</ele>
        <time>2019-09-26T08:13:53Z</time>
      </trkpt>
      <trkpt lat="43.70683" lon="5.08294">
        <ele>144</ele>
        <time>2019-09-26T08:13:54Z</time>
      </trkpt>
      <trkpt lat="43.70683" lon="5.08292">
        <ele>144</ele>
        <time>2019-09-26T08:13:57Z</time>
      </trkpt>
      <trkpt lat="43.70684" lon="5.08289">
        <ele>144</ele>
        <time>2019-09-26T08:14:00Z</time>
      </trkpt>
      <trkpt lat="43.70685" lon="5.08286">
        <ele>144</ele>
        <time>2019-09-26T08:14:04Z</time>
      </trkpt>
      <trkpt lat="43.70687" lon="5.08284">
        <ele>144</ele>
        <time>2019-09-26T08:14:07Z</time>
      </trkpt>
      <trkpt lat="43.70689" lon="5.08283">
        <ele>144</ele>
        <time>2019-09-26T08:14:09Z</time>
      </trkpt>
      <trkpt lat="43.7069" lon="5.08281">
        <ele>144</ele>
        <time>2019-09-26T08:14:11Z</time>
      </trkpt>
      <trkpt lat="43.70692" lon="5.0828">
        <ele>143</ele>
        <time>2019-09-26T08:14:14Z</time>
      </trkpt>
      <trkpt lat="43.70694" lon="5.08279">
        <ele>143</ele>
        <time>2019-09-26T08:14:16Z</time>
      </trkpt>
      <trkpt lat="43.70696" lon="5.08278">
        <ele>143</ele>
        <time>2019-09-26T08:14:18Z</time>
      </trkpt>
      <trkpt lat="43.70699" lon="5.08277">
        <ele>143</ele>
        <time>2019-09-26T08:14:21Z</time>
      </trkpt>
      <trkpt lat="43.70701" lon="5.08276">
        <ele>143</ele>
        <time>2019-09-26T08:14:23Z</time>
      </trkpt>
      <trkpt lat="43.70705" lon="5.08274">
        <ele>143</ele>
        <time>2019-09-26T08:14:25Z</time>
      </trkpt>
      <trkpt lat="43.70706" lon="5.08273">
        <ele>143</ele>
        <time>2019-09-26T08:14:28Z</time>
      </trkpt>
      <trkpt lat="43.70708" lon="5.08272">
        <ele>143</ele>
        <time>2019-09-26T08:14:30Z</time>
      </trkpt>
      <trkpt lat="43.70709" lon="5.08271">
        <ele>143</ele>
        <time>2019-09-26T08:14:32Z</time>
      </trkpt>
      <trkpt lat="43.70711" lon="5.08271">
        <ele>143</ele>
        <time>2019-09-26T08:14:33Z</time>
      </trkpt>
      <trkpt lat="43.70714" lon="5.0827">
        <ele>143</ele>
        <time>2019-09-26T08:14:34Z</time>
      </trkpt>
      <trkpt lat="43.70715" lon="5.0827">
        <ele>143</ele>
        <time>2019-09-26T08:14:36Z</time>
      </trkpt>
      <trkpt lat="43.70717" lon="5.08269">
        <ele>143</ele>
        <time>2019-09-26T08:14:38Z</time>
      </trkpt>
      <trkpt lat="43.70718" lon="5.08269">
        <ele>143</ele>
        <time>2019-09-26T08:14:40Z</time>
      </trkpt>
      <trkpt lat="43.7072" lon="5.08269">
        <ele>143</ele>
        <time>2019-09-26T08:14:42Z</time>
      </trkpt>
      <trkpt lat="43.70721" lon="5.08269">
        <ele>141</ele>
        <time>2019-09-26T08:14:43Z</time>
      </trkpt>
      <trkpt lat="43.70725" lon="5.0827">
        <ele>141</ele>
        <time>2019-09-26T08:14:44Z</time>
      </trkpt>
      <trkpt lat="43.70727" lon="5.0827">
        <ele>141</ele>
        <time>2019-09-26T08:14:46Z</time>
      </trkpt>
      <trkpt lat="43.70728" lon="5.08271">
        <ele>141</ele>
        <time>2019-09-26T08:14:48Z</time>
      </trkpt>
      <trkpt lat="43.7073" lon="5.08272">
        <ele>141</ele>
        <time>2019-09-26T08:14:50Z</time>
      </trkpt>
      <trkpt lat="43.70731" lon="5.08272">
        <ele>141</ele>
        <time>2019-09-26T08:14:52Z</time>
      </trkpt>
      <trkpt lat="43.70733" lon="5.08273">
        <ele>141</ele>
        <time>2019-09-26T08:14:53Z</time>
      </trkpt>
      <trkpt lat="43.70735" lon="5.08273">
        <ele>141</ele>
        <time>2019-09-26T08:14:55Z</time>
      </trkpt>
      <trkpt lat="43.70737" lon="5.08273">
        <ele>141</ele>
        <time>2019-09-26T08:14:58Z</time>
      </trkpt>
      <trkpt lat="43.70739" lon="5.08274">
        <ele>141</ele>
        <time>2019-09-26T08:15:00Z</time>
      </trkpt>
      <trkpt lat="43.70741" lon="5.08275">
        <ele>140</ele>
        <time>2019-09-26T08:15:03Z</time>
      </trkpt>
      <trkpt lat="43.70744" lon="5.08275">
        <ele>140</ele>
        <time>2019-09-26T08:15:05Z</time>
      </trkpt>
      <trkpt lat="43.70746" lon="5.08277">
        <ele>140</ele>
        <time>2019-09-26T08:15:07Z</time>
      </trkpt>
      <trkpt lat="43.70748" lon="5.08278">
        <ele>140</ele>
        <time>2019-09-26T08:15:09Z</time>
      </trkpt>
      <trkpt lat="43.70751" lon="5.08278">
        <ele>140</ele>
        <time>2019-09-26T08:15:11Z</time>
      </trkpt>
      <trkpt lat="43.70751" lon="5.08278">
        <ele>140</ele>
        <time>2019-09-26T08:15:13Z</time>
      </trkpt>
      <trkpt lat="43.70754" lon="5.08278">
        <ele>140</ele>
        <time>2019-09-26T08:15:14Z</time>
      </trkpt>
      <trkpt lat="43.70755" lon="5.08277">
        <ele>140</ele>
        <time>2019-09-26T08:15:16Z</time>
      </trkpt>
      <trkpt lat="43.70757" lon="5.08277">
        <ele>140</ele>
        <time>2019-09-26T08:15:19Z</time>
      </trkpt>
      <trkpt lat="43.70758" lon="5.08276">
        <ele>140</ele>
        <time>2019-09-26T08:15:22Z</time>
      </trkpt>
      <trkpt lat="43.70759" lon="5.08275">
        <ele>140</ele>
        <time>2019-09-26T08:15:23Z</time>
      </trkpt>
      <trkpt lat="43.7076" lon="5.08274">
        <ele>140</ele>
        <time>2019-09-26T08:15:24Z</time>
      </trkpt>
      <trkpt lat="43.70762" lon="5.08273">
        <ele>140</ele>
        <time>2019-09-26T08:15:26Z</time>
      </trkpt>
      <trkpt lat="43.70763" lon="5.08271">
        <ele>140</ele>
        <time>2019-09-26T08:15:28Z</time>
      </trkpt>
      <trkpt lat="43.70764" lon="5.08268">
        <ele>140</ele>
        <time>2019-09-26T08:15:31Z</time>
      </trkpt>
      <trkpt lat="43.70764" lon="5.08268">
        <ele>138</ele>
        <time>2019-09-26T08:15:33Z</time>
      </trkpt>
      <trkpt lat="43.70768" lon="5.08266">
        <ele>138</ele>
        <time>2019-09-26T08:15:34Z</time>
      </trkpt>
      <trkpt lat="43.70769" lon="5.08266">
        <ele>138</ele>
        <time>2019-09-26T08:15:36Z</time>
      </trkpt>
      <trkpt lat="43.7077" lon="5.08265">
        <ele>138</ele>
        <time>2019-09-26T08:15:38Z</time>
      </trkpt>
      <trkpt lat="43.70772" lon="5.08265">
        <ele>138</ele>
        <time>2019-09-26T08:15:40Z</time>
      </trkpt>
      <trkpt lat="43.70773" lon="5.08265">
        <ele>138</ele>
        <time>2019-09-26T08:15:42Z</time>
      </trkpt>
      <trkpt lat="43.70774" lon="5.08264">
        <ele>137</ele>
        <time>2019-09-26T08:15:43Z</time>
      </trkpt>
      <trkpt lat="43.70775" lon="5.08262">
        <ele>137</ele>
        <time>2019-09-26T08:15:44Z</time>
      </trkpt>
      <trkpt lat="43.70777" lon="5.0826">
        <ele>137</ele>
        <time>2019-09-26T08:15:47Z</time>
      </trkpt>
      <trkpt lat="43.70779" lon="5.08258">
        <ele>137</ele>
        <time>2019-09-26T08:15:49Z</time>
      </trkpt>
      <trkpt lat="43.7078" lon="5.08256">
        <ele>137</ele>
        <time>2019-09-26T08:15:51Z</time>
      </trkpt>
      <trkpt lat="43.70782" lon="5.08255">
        <ele>136</ele>
        <time>2019-09-26T08:15:53Z</time>
      </trkpt>
      <trkpt lat="43.70786" lon="5.08251">
        <ele>136</ele>
        <time>2019-09-26T08:15:56Z</time>
      </trkpt>
      <trkpt lat="43.70787" lon="5.0825">
        <ele>136</ele>
        <time>2019-09-26T08:15:58Z</time>
      </trkpt>
      <trkpt lat="43.70788" lon="5.08249">
        <ele>136</ele>
        <time>2019-09-26T08:16:00Z</time>
      </trkpt>
      <trkpt lat="43.7079" lon="5.08248">
        <ele>136</ele>
        <time>2019-09-26T08:16:02Z</time>
      </trkpt>
      <trkpt lat="43.70791" lon="5.08247">
        <ele>136</ele>
        <time>2019-09-26T08:16:03Z</time>
      </trkpt>
      <trkpt lat="43.70792" lon="5.08246">
        <ele>136</ele>
        <time>2019-09-26T08:16:04Z</time>
      </trkpt>
      <trkpt lat="43.70793" lon="5.08244">
        <ele>136</ele>
        <time>2019-09-26T08:16:07Z</time>
      </trkpt>
      <trkpt lat="43.70795" lon="5.08241">
        <ele>136</ele>
        <time>2019-09-26T08:16:09Z</time>
      </trkpt>
      <trkpt lat="43.70796" lon="5.08239">
        <ele>136</ele>
        <time>2019-09-26T08:16:11Z</time>
      </trkpt>
      <trkpt lat="43.70796" lon="5.08239">
        <ele>136</ele>
        <time>2019-09-26T08:16:13Z</time>
      </trkpt>
      <trkpt lat="43.70797" lon="5.08235">
        <ele>136</ele>
        <time>2019-09-26T08:16:14Z</time>
      </trkpt>
      <trkpt lat="43.70799" lon="5.08234">
        <ele>136</ele>
        <time>2019-09-26T08:16:16Z</time>
      </trkpt>
      <trkpt lat="43.70801" lon="5.08232">
        <ele>136</ele>
        <time>2019-09-26T08:16:19Z</time>
      </trkpt>
      <trkpt lat="43.70802" lon="5.0823">
        <ele>136</ele>
        <time>2019-09-26T08:16:23Z</time>
      </trkpt>
      <trkpt lat="43.70804" lon="5.08229">
        <ele>136</ele>
        <time>2019-09-26T08:16:26Z</time>
      </trkpt>
      <trkpt lat="43.70807" lon="5.08227">
        <ele>136</ele>
        <time>2019-09-26T08:16:29Z</time>
      </trkpt>
      <trkpt lat="43.70809" lon="5.08226">
        <ele>136</ele>
        <time>2019-09-26T08:16:31Z</time>
      </trkpt>
      <trkpt lat="43.70811" lon="5.08224">
        <ele>134</ele>
        <time>2019-09-26T08:16:33Z</time>
      </trkpt>
      <trkpt lat="43.70814" lon="5.08222">
        <ele>134</ele>
        <time>2019-09-26T08:16:35Z</time>
      </trkpt>
      <trkpt lat="43.70816" lon="5.08221">
        <ele>134</ele>
        <time>2019-09-26T08:16:37Z</time>
      </trkpt>
      <trkpt lat="43.70818" lon="5.0822">
        <ele>134</ele>
        <time>2019-09-26T08:16:39Z</time>
      </trkpt>
      <trkpt lat="43.70819" lon="5.08219">
        <ele>134</ele>
        <time>2019-09-26T08:16:42Z</time>
      </trkpt>
      <trkpt lat="43.70821" lon="5.08218">
        <ele>134</ele>
        <time>2019-09-26T08:16:43Z</time>
      </trkpt>
      <trkpt lat="43.70822" lon="5.08217">
        <ele>134</ele>
        <time>2019-09-26T08:16:44Z</time>
      </trkpt>
      <trkpt lat="43.70823" lon="5.08216">
        <ele>134</ele>
        <time>2019-09-26T08:16:47Z</time>
      </trkpt>
      <trkpt lat="43.70826" lon="5.08216">
        <ele>134</ele>
        <time>2019-09-26T08:16:49Z</time>
      </trkpt>
      <trkpt lat="43.70828" lon="5.08216">
        <ele>134</ele>
        <time>2019-09-26T08:16:51Z</time>
      </trkpt>
      <trkpt lat="43.70828" lon="5.08216">
        <ele>134</ele>
        <time>2019-09-26T08:16:53Z</time>
      </trkpt>
      <trkpt lat="43.70828" lon="5.08216">
        <ele>133</ele>
        <time>2019-09-26T08:17:02Z</time>
      </trkpt>
      <trkpt lat="43.70828" lon="5.08216">
        <ele>133</ele>
        <time>2019-09-26T08:17:03Z</time>
      </trkpt>
      <trkpt lat="43.70828" lon="5.08216">
        <ele>133</ele>
        <time>2019-09-26T08:17:17Z</time>
      </trkpt>
      <trkpt lat="43.70827" lon="5.08202">
        <ele>133</ele>
        <time>2019-09-26T08:17:18Z</time>
      </trkpt>
      <trkpt lat="43.70827" lon="5.08201">
        <ele>133</ele>
        <time>2019-09-26T08:17:19Z</time>
      </trkpt>
      <trkpt lat="43.70828" lon="5.08198">
        <ele>133</ele>
        <time>2019-09-26T08:17:21Z</time>
      </trkpt>
      <trkpt lat="43.70829" lon="5.08195">
        <ele>133</ele>
        <time>2019-09-26T08:17:24Z</time>
      </trkpt>
      <trkpt lat="43.70829" lon="5.08195">
        <ele>133</ele>
        <time>2019-09-26T08:17:26Z</time>
      </trkpt>
      <trkpt lat="43.7083" lon="5.08192">
        <ele>133</ele>
        <time>2019-09-26T08:17:27Z</time>
      </trkpt>
      <trkpt lat="43.7083" lon="5.08192">
        <ele>133</ele>
        <time>2019-09-26T08:17:37Z</time>
      </trkpt>
      <trkpt lat="43.70832" lon="5.08192">
        <ele>133</ele>
        <time>2019-09-26T08:17:38Z</time>
      </trkpt>
      <trkpt lat="43.70833" lon="5.08189">
        <ele>133</ele>
        <time>2019-09-26T08:17:41Z</time>
      </trkpt>
      <trkpt lat="43.70835" lon="5.08187">
        <ele>133</ele>
        <time>2019-09-26T08:17:44Z</time>
      </trkpt>
      <trkpt lat="43.70835" lon="5.08187">
        <ele>133</ele>
        <time>2019-09-26T08:17:46Z</time>
      </trkpt>
      <trkpt lat="43.70839" lon="5.08183">
        <ele>133</ele>
        <time>2019-09-26T08:17:48Z</time>
      </trkpt>
      <trkpt lat="43.70841" lon="5.08182">
        <ele>133</ele>
        <time>2019-09-26T08:17:51Z</time>
      </trkpt>
      <trkpt lat="43.70842" lon="5.08181">
        <ele>133</ele>
        <time>2019-09-26T08:17:53Z</time>
      </trkpt>
      <trkpt lat="43.70843" lon="5.0818">
        <ele>133</ele>
        <time>2019-09-26T08:17:55Z</time>
      </trkpt>
      <trkpt lat="43.70844" lon="5.08179">
        <ele>133</ele>
        <time>2019-09-26T08:17:56Z</time>
      </trkpt>
      <trkpt lat="43.70845" lon="5.08177">
        <ele>133</ele>
        <time>2019-09-26T08:17:58Z</time>
      </trkpt>
      <trkpt lat="43.70847" lon="5.08177">
        <ele>133</ele>
        <time>2019-09-26T08:18:04Z</time>
      </trkpt>
      <trkpt lat="43.70847" lon="5.08177">
        <ele>132</ele>
        <time>2019-09-26T08:18:06Z</time>
      </trkpt>
      <trkpt lat="43.70849" lon="5.08176">
        <ele>132</ele>
        <time>2019-09-26T08:18:08Z</time>
      </trkpt>
      <trkpt lat="43.70849" lon="5.08173">
        <ele>132</ele>
        <time>2019-09-26T08:18:11Z</time>
      </trkpt>
      <trkpt lat="43.70849" lon="5.0817">
        <ele>132</ele>
        <time>2019-09-26T08:18:14Z</time>
      </trkpt>
      <trkpt lat="43.70849" lon="5.08167">
        <ele>132</ele>
        <time>2019-09-26T08:18:17Z</time>
      </trkpt>
      <trkpt lat="43.70849" lon="5.08165">
        <ele>132</ele>
        <time>2019-09-26T08:18:20Z</time>
      </trkpt>
      <trkpt lat="43.7085" lon="5.08162">
        <ele>132</ele>
        <time>2019-09-26T08:18:23Z</time>
      </trkpt>
      <trkpt lat="43.70852" lon="5.08161">
        <ele>132</ele>
        <time>2019-09-26T08:18:26Z</time>
      </trkpt>
      <trkpt lat="43.70854" lon="5.08159">
        <ele>132</ele>
        <time>2019-09-26T08:18:29Z</time>
      </trkpt>
      <trkpt lat="43.70855" lon="5.08156">
        <ele>132</ele>
        <time>2019-09-26T08:18:32Z</time>
      </trkpt>
      <trkpt lat="43.70856" lon="5.08154">
        <ele>132</ele>
        <time>2019-09-26T08:18:34Z</time>
      </trkpt>
      <trkpt lat="43.70857" lon="5.08151">
        <ele>132</ele>
        <time>2019-09-26T08:18:37Z</time>
      </trkpt>
      <trkpt lat="43.70859" lon="5.08149">
        <ele>132</ele>
        <time>2019-09-26T08:18:39Z</time>
      </trkpt>
      <trkpt lat="43.70861" lon="5.08148">
        <ele>132</ele>
        <time>2019-09-26T08:18:41Z</time>
      </trkpt>
      <trkpt lat="43.70863" lon="5.08146">
        <ele>132</ele>
        <time>2019-09-26T08:18:44Z</time>
      </trkpt>
      <trkpt lat="43.70863" lon="5.08146">
        <ele>133</ele>
        <time>2019-09-26T08:18:46Z</time>
      </trkpt>
      <trkpt lat="43.70865" lon="5.08145">
        <ele>133</ele>
        <time>2019-09-26T08:18:47Z</time>
      </trkpt>
      <trkpt lat="43.70866" lon="5.08143">
        <ele>133</ele>
        <time>2019-09-26T08:18:50Z</time>
      </trkpt>
      <trkpt lat="43.70868" lon="5.08141">
        <ele>133</ele>
        <time>2019-09-26T08:18:53Z</time>
      </trkpt>
      <trkpt lat="43.70869" lon="5.08139">
        <ele>133</ele>
        <time>2019-09-26T08:18:56Z</time>
      </trkpt>
      <trkpt lat="43.70872" lon="5.08135">
        <ele>133</ele>
        <time>2019-09-26T08:18:59Z</time>
      </trkpt>
      <trkpt lat="43.70873" lon="5.08133">
        <ele>133</ele>
        <time>2019-09-26T08:19:01Z</time>
      </trkpt>
      <trkpt lat="43.70874" lon="5.08132">
        <ele>133</ele>
        <time>2019-09-26T08:19:03Z</time>
      </trkpt>
      <trkpt lat="43.70875" lon="5.08131">
        <ele>133</ele>
        <time>2019-09-26T08:19:05Z</time>
      </trkpt>
      <trkpt lat="43.70876" lon="5.08129">
        <ele>131</ele>
        <time>2019-09-26T08:19:06Z</time>
      </trkpt>
      <trkpt lat="43.70878" lon="5.08127">
        <ele>131</ele>
        <time>2019-09-26T08:19:07Z</time>
      </trkpt>
      <trkpt lat="43.70879" lon="5.08126">
        <ele>131</ele>
        <time>2019-09-26T08:19:09Z</time>
      </trkpt>
      <trkpt lat="43.7088" lon="5.08125">
        <ele>131</ele>
        <time>2019-09-26T08:19:11Z</time>
      </trkpt>
      <trkpt lat="43.70881" lon="5.08124">
        <ele>131</ele>
        <time>2019-09-26T08:19:13Z</time>
      </trkpt>
      <trkpt lat="43.70882" lon="5.08123">
        <ele>131</ele>
        <time>2019-09-26T08:19:15Z</time>
      </trkpt>
      <trkpt lat="43.70883" lon="5.08121">
        <ele>131</ele>
        <time>2019-09-26T08:19:16Z</time>
      </trkpt>
      <trkpt lat="43.70885" lon="5.0812">
        <ele>131</ele>
        <time>2019-09-26T08:19:17Z</time>
      </trkpt>
      <trkpt lat="43.70887" lon="5.08118">
        <ele>131</ele>
        <time>2019-09-26T08:19:19Z</time>
      </trkpt>
      <trkpt lat="43.70888" lon="5.08117">
        <ele>131</ele>
        <time>2019-09-26T08:19:21Z</time>
      </trkpt>
      <trkpt lat="43.7089" lon="5.08115">
        <ele>131</ele>
        <time>2019-09-26T08:19:24Z</time>
      </trkpt>
      <trkpt lat="43.70892" lon="5.08113">
        <ele>128</ele>
        <time>2019-09-26T08:19:26Z</time>
      </trkpt>
      <trkpt lat="43.70893" lon="5.0811">
        <ele>128</ele>
        <time>2019-09-26T08:19:29Z</time>
      </trkpt>
      <trkpt lat="43.70894" lon="5.08106">
        <ele>128</ele>
        <time>2019-09-26T08:19:32Z</time>
      </trkpt>
      <trkpt lat="43.70895" lon="5.08103">
        <ele>128</ele>
        <time>2019-09-26T08:19:34Z</time>
      </trkpt>
      <trkpt lat="43.70896" lon="5.08101">
        <ele>128</ele>
        <time>2019-09-26T08:19:36Z</time>
      </trkpt>
      <trkpt lat="43.70897" lon="5.08098">
        <ele>128</ele>
        <time>2019-09-26T08:19:38Z</time>
      </trkpt>
      <trkpt lat="43.70898" lon="5.08096">
        <ele>128</ele>
        <time>2019-09-26T08:19:40Z</time>
      </trkpt>
      <trkpt lat="43.70899" lon="5.08093">
        <ele>128</ele>
        <time>2019-09-26T08:19:42Z</time>
      </trkpt>
      <trkpt lat="43.709" lon="5.08091">
        <ele>128</ele>
        <time>2019-09-26T08:19:44Z</time>
      </trkpt>
      <trkpt lat="43.70901" lon="5.08088">
        <ele>129</ele>
        <time>2019-09-26T08:19:46Z</time>
      </trkpt>
      <trkpt lat="43.70902" lon="5.08085">
        <ele>129</ele>
        <time>2019-09-26T08:19:48Z</time>
      </trkpt>
      <trkpt lat="43.70904" lon="5.08083">
        <ele>129</ele>
        <time>2019-09-26T08:19:50Z</time>
      </trkpt>
      <trkpt lat="43.70905" lon="5.0808">
        <ele>129</ele>
        <time>2019-09-26T08:19:52Z</time>
      </trkpt>
      <trkpt lat="43.70907" lon="5.08078">
        <ele>129</ele>
        <time>2019-09-26T08:19:54Z</time>
      </trkpt>
      <trkpt lat="43.70909" lon="5.08075">
        <ele>129</ele>
        <time>2019-09-26T08:19:56Z</time>
      </trkpt>
      <trkpt lat="43.7091" lon="5.08073">
        <ele>129</ele>
        <time>2019-09-26T08:19:58Z</time>
      </trkpt>
      <trkpt lat="43.70911" lon="5.0807">
        <ele>129</ele>
        <time>2019-09-26T08:20:00Z</time>
      </trkpt>
      <trkpt lat="43.70913" lon="5.08068">
        <ele>129</ele>
        <time>2019-09-26T08:20:02Z</time>
      </trkpt>
      <trkpt lat="43.70914" lon="5.08066">
        <ele>129</ele>
        <time>2019-09-26T08:20:04Z</time>
      </trkpt>
      <trkpt lat="43.70916" lon="5.08064">
        <ele>128</ele>
        <time>2019-09-26T08:20:06Z</time>
      </trkpt>
      <trkpt lat="43.70918" lon="5.08061">
        <ele>128</ele>
        <time>2019-09-26T08:20:08Z</time>
      </trkpt>
      <trkpt lat="43.70919" lon="5.0806">
        <ele>128</ele>
        <time>2019-09-26T08:20:11Z</time>
      </trkpt>
      <trkpt lat="43.7092" lon="5.08059">
        <ele>128</ele>
        <time>2019-09-26T08:20:13Z</time>
      </trkpt>
      <trkpt lat="43.7092" lon="5.08057">
        <ele>128</ele>
        <time>2019-09-26T08:20:15Z</time>
      </trkpt>
      <trkpt lat="43.70921" lon="5.08056">
        <ele>128</ele>
        <time>2019-09-26T08:20:16Z</time>
      </trkpt>
      <trkpt lat="43.70923" lon="5.08052">
        <ele>128</ele>
        <time>2019-09-26T08:20:18Z</time>
      </trkpt>
      <trkpt lat="43.70924" lon="5.0805">
        <ele>128</ele>
        <time>2019-09-26T08:20:20Z</time>
      </trkpt>
      <trkpt lat="43.70925" lon="5.08048">
        <ele>128</ele>
        <time>2019-09-26T08:20:22Z</time>
      </trkpt>
      <trkpt lat="43.70926" lon="5.08046">
        <ele>128</ele>
        <time>2019-09-26T08:20:25Z</time>
      </trkpt>
      <trkpt lat="43.70926" lon="5.08044">
        <ele>128</ele>
        <time>2019-09-26T08:20:26Z</time>
      </trkpt>
      <trkpt lat="43.70928" lon="5.08041">
        <ele>128</ele>
        <time>2019-09-26T08:20:27Z</time>
      </trkpt>
      <trkpt lat="43.70929" lon="5.08039">
        <ele>128</ele>
        <time>2019-09-26T08:20:29Z</time>
      </trkpt>
      <trkpt lat="43.7093" lon="5.08038">
        <ele>128</ele>
        <time>2019-09-26T08:20:31Z</time>
      </trkpt>
      <trkpt lat="43.7093" lon="5.08036">
        <ele>128</ele>
        <time>2019-09-26T08:20:33Z</time>
      </trkpt>
      <trkpt lat="43.70931" lon="5.08034">
        <ele>128</ele>
        <time>2019-09-26T08:20:35Z</time>
      </trkpt>
      <trkpt lat="43.70932" lon="5.08032">
        <ele>128</ele>
        <time>2019-09-26T08:20:36Z</time>
      </trkpt>
      <trkpt lat="43.70932" lon="5.08031">
        <ele>128</ele>
        <time>2019-09-26T08:20:37Z</time>
      </trkpt>
      <trkpt lat="43.70933" lon="5.08028">
        <ele>128</ele>
        <time>2019-09-26T08:20:39Z</time>
      </trkpt>
      <trkpt lat="43.70934" lon="5.08024">
        <ele>128</ele>
        <time>2019-09-26T08:20:42Z</time>
      </trkpt>
      <trkpt lat="43.70935" lon="5.08022">
        <ele>128</ele>
        <time>2019-09-26T08:20:44Z</time>
      </trkpt>
      <trkpt lat="43.70937" lon="5.08019">
        <ele>128</ele>
        <time>2019-09-26T08:20:46Z</time>
      </trkpt>
      <trkpt lat="43.70938" lon="5.08016">
        <ele>128</ele>
        <time>2019-09-26T08:20:48Z</time>
      </trkpt>
      <trkpt lat="43.70939" lon="5.08013">
        <ele>128</ele>
        <time>2019-09-26T08:20:50Z</time>
      </trkpt>
      <trkpt lat="43.7094" lon="5.0801">
        <ele>128</ele>
        <time>2019-09-26T08:20:52Z</time>
      </trkpt>
      <trkpt lat="43.70941" lon="5.08007">
        <ele>128</ele>
        <time>2019-09-26T08:20:54Z</time>
      </trkpt>
      <trkpt lat="43.70941" lon="5.08007">
        <ele>128</ele>
        <time>2019-09-26T08:20:56Z</time>
      </trkpt>
      <trkpt lat="43.70942" lon="5.08004">
        <ele>128</ele>
        <time>2019-09-26T08:20:57Z</time>
      </trkpt>
      <trkpt lat="43.70942" lon="5.08001">
        <ele>128</ele>
        <time>2019-09-26T08:20:59Z</time>
      </trkpt>
      <trkpt lat="43.70943" lon="5.07997">
        <ele>128</ele>
        <time>2019-09-26T08:21:01Z</time>
      </trkpt>
      <trkpt lat="43.70944" lon="5.07995">
        <ele>128</ele>
        <time>2019-09-26T08:21:03Z</time>
      </trkpt>
      <trkpt lat="43.70945" lon="5.07991">
        <ele>128</ele>
        <time>2019-09-26T08:21:06Z</time>
      </trkpt>
      <trkpt lat="43.70946" lon="5.07989">
        <ele>128</ele>
        <time>2019-09-26T08:21:08Z</time>
      </trkpt>
      <trkpt lat="43.70947" lon="5.07985">
        <ele>128</ele>
        <time>2019-09-26T08:21:11Z</time>
      </trkpt>
      <trkpt lat="43.70948" lon="5.07982">
        <ele>128</ele>
        <time>2019-09-26T08:21:14Z</time>
      </trkpt>
      <trkpt lat="43.70948" lon="5.07979">
        <ele>128</ele>
        <time>2019-09-26T08:21:16Z</time>
      </trkpt>
      <trkpt lat="43.70948" lon="5.07974">
        <ele>128</ele>
        <time>2019-09-26T08:21:18Z</time>
      </trkpt>
      <trkpt lat="43.70949" lon="5.07972">
        <ele>128</ele>
        <time>2019-09-26T08:21:20Z</time>
      </trkpt>
      <trkpt lat="43.70949" lon="5.07971">
        <ele>128</ele>
        <time>2019-09-26T08:21:23Z</time>
      </trkpt>
      <trkpt lat="43.70949" lon="5.07969">
        <ele>128</ele>
        <time>2019-09-26T08:21:25Z</time>
      </trkpt>
      <trkpt lat="43.70949" lon="5.07967">
        <ele>128</ele>
        <time>2019-09-26T08:21:26Z</time>
      </trkpt>
      <trkpt lat="43.70951" lon="5.07964">
        <ele>128</ele>
        <time>2019-09-26T08:21:28Z</time>
      </trkpt>
      <trkpt lat="43.70951" lon="5.07961">
        <ele>128</ele>
        <time>2019-09-26T08:21:31Z</time>
      </trkpt>
      <trkpt lat="43.70951" lon="5.07958">
        <ele>128</ele>
        <time>2019-09-26T08:21:34Z</time>
      </trkpt>
      <trkpt lat="43.7095" lon="5.07956">
        <ele>129</ele>
        <time>2019-09-26T08:21:36Z</time>
      </trkpt>
      <trkpt lat="43.70949" lon="5.07952">
        <ele>129</ele>
        <time>2019-09-26T08:21:39Z</time>
      </trkpt>
      <trkpt lat="43.70949" lon="5.07949">
        <ele>129</ele>
        <time>2019-09-26T08:21:41Z</time>
      </trkpt>
      <trkpt lat="43.70949" lon="5.07946">
        <ele>129</ele>
        <time>2019-09-26T08:21:44Z</time>
      </trkpt>
      <trkpt lat="43.7095" lon="5.07944">
        <ele>129</ele>
        <time>2019-09-26T08:21:46Z</time>
      </trkpt>
      <trkpt lat="43.7095" lon="5.07941">
        <ele>129</ele>
        <time>2019-09-26T08:21:48Z</time>
      </trkpt>
      <trkpt lat="43.7095" lon="5.07938">
        <ele>129</ele>
        <time>2019-09-26T08:21:50Z</time>
      </trkpt>
      <trkpt lat="43.70951" lon="5.07935">
        <ele>129</ele>
        <time>2019-09-26T08:21:52Z</time>
      </trkpt>
      <trkpt lat="43.70951" lon="5.07931">
        <ele>129</ele>
        <time>2019-09-26T08:21:54Z</time>
      </trkpt>
      <trkpt lat="43.70951" lon="5.07929">
        <ele>130</ele>
        <time>2019-09-26T08:21:56Z</time>
      </trkpt>
      <trkpt lat="43.70952" lon="5.07924">
        <ele>130</ele>
        <time>2019-09-26T08:21:58Z</time>
      </trkpt>
      <trkpt lat="43.70953" lon="5.07922">
        <ele>130</ele>
        <time>2019-09-26T08:22:00Z</time>
      </trkpt>
      <trkpt lat="43.70953" lon="5.0792">
        <ele>130</ele>
        <time>2019-09-26T08:22:02Z</time>
      </trkpt>
      <trkpt lat="43.70954" lon="5.07918">
        <ele>130</ele>
        <time>2019-09-26T08:22:05Z</time>
      </trkpt>
      <trkpt lat="43.70954" lon="5.07916">
        <ele>130</ele>
        <time>2019-09-26T08:22:06Z</time>
      </trkpt>
      <trkpt lat="43.70954" lon="5.07914">
        <ele>130</ele>
        <time>2019-09-26T08:22:07Z</time>
      </trkpt>
      <trkpt lat="43.70956" lon="5.07912">
        <ele>130</ele>
        <time>2019-09-26T08:22:09Z</time>
      </trkpt>
      <trkpt lat="43.70956" lon="5.07909">
        <ele>130</ele>
        <time>2019-09-26T08:22:11Z</time>
      </trkpt>
      <trkpt lat="43.70957" lon="5.07906">
        <ele>130</ele>
        <time>2019-09-26T08:22:14Z</time>
      </trkpt>
      <trkpt lat="43.70957" lon="5.07906">
        <ele>130</ele>
        <time>2019-09-26T08:22:16Z</time>
      </trkpt>
      <trkpt lat="43.70959" lon="5.07904">
        <ele>130</ele>
        <time>2019-09-26T08:22:17Z</time>
      </trkpt>
      <trkpt lat="43.70961" lon="5.07902">
        <ele>130</ele>
        <time>2019-09-26T08:22:20Z</time>
      </trkpt>
      <trkpt lat="43.70961" lon="5.07898">
        <ele>130</ele>
        <time>2019-09-26T08:22:23Z</time>
      </trkpt>
      <trkpt lat="43.70962" lon="5.07895">
        <ele>129</ele>
        <time>2019-09-26T08:22:26Z</time>
      </trkpt>
      <trkpt lat="43.70963" lon="5.0789">
        <ele>129</ele>
        <time>2019-09-26T08:22:29Z</time>
      </trkpt>
      <trkpt lat="43.70964" lon="5.07888">
        <ele>129</ele>
        <time>2019-09-26T08:22:32Z</time>
      </trkpt>
      <trkpt lat="43.70964" lon="5.07886">
        <ele>129</ele>
        <time>2019-09-26T08:22:35Z</time>
      </trkpt>
      <trkpt lat="43.70965" lon="5.07885">
        <ele>129</ele>
        <time>2019-09-26T08:22:36Z</time>
      </trkpt>
      <trkpt lat="43.70965" lon="5.07879">
        <ele>129</ele>
        <time>2019-09-26T08:22:37Z</time>
      </trkpt>
      <trkpt lat="43.70965" lon="5.07877">
        <ele>129</ele>
        <time>2019-09-26T08:22:39Z</time>
      </trkpt>
      <trkpt lat="43.70965" lon="5.07875">
        <ele>129</ele>
        <time>2019-09-26T08:22:41Z</time>
      </trkpt>
      <trkpt lat="43.70966" lon="5.07872">
        <ele>129</ele>
        <time>2019-09-26T08:22:43Z</time>
      </trkpt>
      <trkpt lat="43.70966" lon="5.0787">
        <ele>129</ele>
        <time>2019-09-26T08:22:45Z</time>
      </trkpt>
      <trkpt lat="43.70966" lon="5.07867">
        <ele>129</ele>
        <time>2019-09-26T08:22:46Z</time>
      </trkpt>
      <trkpt lat="43.70966" lon="5.07866">
        <ele>129</ele>
        <time>2019-09-26T08:22:47Z</time>
      </trkpt>
      <trkpt lat="43.70967" lon="5.07863">
        <ele>129</ele>
        <time>2019-09-26T08:22:49Z</time>
      </trkpt>
      <trkpt lat="43.70968" lon="5.0786">
        <ele>129</ele>
        <time>2019-09-26T08:22:51Z</time>
      </trkpt>
      <trkpt lat="43.70969" lon="5.07857">
        <ele>129</ele>
        <time>2019-09-26T08:22:54Z</time>
      </trkpt>
      <trkpt lat="43.7097" lon="5.07853">
        <ele>128</ele>
        <time>2019-09-26T08:22:56Z</time>
      </trkpt>
      <trkpt lat="43.70971" lon="5.0785">
        <ele>128</ele>
        <time>2019-09-26T08:22:58Z</time>
      </trkpt>
      <trkpt lat="43.70972" lon="5.07847">
        <ele>128</ele>
        <time>2019-09-26T08:23:00Z</time>
      </trkpt>
      <trkpt lat="43.70973" lon="5.07844">
        <ele>128</ele>
        <time>2019-09-26T08:23:02Z</time>
      </trkpt>
      <trkpt lat="43.70973" lon="5.07841">
        <ele>128</ele>
        <time>2019-09-26T08:23:04Z</time>
      </trkpt>
      <trkpt lat="43.70973" lon="5.07838">
        <ele>129</ele>
        <time>2019-09-26T08:23:06Z</time>
      </trkpt>
      <trkpt lat="43.70972" lon="5.07835">
        <ele>129</ele>
        <time>2019-09-26T08:23:08Z</time>
      </trkpt>
      <trkpt lat="43.70971" lon="5.07833">
        <ele>129</ele>
        <time>2019-09-26T08:23:10Z</time>
      </trkpt>
      <trkpt lat="43.7097" lon="5.0783">
        <ele>129</ele>
        <time>2019-09-26T08:23:12Z</time>
      </trkpt>
      <trkpt lat="43.7097" lon="5.07827">
        <ele>129</ele>
        <time>2019-09-26T08:23:14Z</time>
      </trkpt>
      <trkpt lat="43.7097" lon="5.07827">
        <ele>129</ele>
        <time>2019-09-26T08:23:16Z</time>
      </trkpt>
      <trkpt lat="43.7097" lon="5.07822">
        <ele>129</ele>
        <time>2019-09-26T08:23:17Z</time>
      </trkpt>
      <trkpt lat="43.70971" lon="5.07819">
        <ele>129</ele>
        <time>2019-09-26T08:23:19Z</time>
      </trkpt>
      <trkpt lat="43.70971" lon="5.07817">
        <ele>129</ele>
        <time>2019-09-26T08:23:21Z</time>
      </trkpt>
      <trkpt lat="43.70971" lon="5.07815">
        <ele>129</ele>
        <time>2019-09-26T08:23:23Z</time>
      </trkpt>
      <trkpt lat="43.70972" lon="5.07813">
        <ele>129</ele>
        <time>2019-09-26T08:23:25Z</time>
      </trkpt>
      <trkpt lat="43.70972" lon="5.07811">
        <ele>129</ele>
        <time>2019-09-26T08:23:26Z</time>
      </trkpt>
      <trkpt lat="43.70972" lon="5.07807">
        <ele>129</ele>
        <time>2019-09-26T08:23:27Z</time>
      </trkpt>
      <trkpt lat="43.70972" lon="5.07805">
        <ele>129</ele>
        <time>2019-09-26T08:23:29Z</time>
      </trkpt>
      <trkpt lat="43.70972" lon="5.07803">
        <ele>129</ele>
        <time>2019-09-26T08:23:31Z</time>
      </trkpt>
      <trkpt lat="43.70972" lon="5.07801">
        <ele>129</ele>
        <time>2019-09-26T08:23:33Z</time>
      </trkpt>
      <trkpt lat="43.70972" lon="5.07799">
        <ele>129</ele>
        <time>2019-09-26T08:23:35Z</time>
      </trkpt>
      <trkpt lat="43.70972" lon="5.07797">
        <ele>130</ele>
        <time>2019-09-26T08:23:36Z</time>
      </trkpt>
      <trkpt lat="43.70973" lon="5.07793">
        <ele>130</ele>
        <time>2019-09-26T08:23:37Z</time>
      </trkpt>
      <trkpt lat="43.70973" lon="5.0779">
        <ele>130</ele>
        <time>2019-09-26T08:23:39Z</time>
      </trkpt>
      <trkpt lat="43.70974" lon="5.07788">
        <ele>130</ele>
        <time>2019-09-26T08:23:41Z</time>
      </trkpt>
      <trkpt lat="43.70974" lon="5.07785">
        <ele>130</ele>
        <time>2019-09-26T08:23:43Z</time>
      </trkpt>
      <trkpt lat="43.70975" lon="5.07783">
        <ele>130</ele>
        <time>2019-09-26T08:23:45Z</time>
      </trkpt>
      <trkpt lat="43.70975" lon="5.07781">
        <ele>130</ele>
        <time>2019-09-26T08:23:46Z</time>
      </trkpt>
      <trkpt lat="43.70975" lon="5.07777">
        <ele>130</ele>
        <time>2019-09-26T08:23:47Z</time>
      </trkpt>
      <trkpt lat="43.70975" lon="5.07774">
        <ele>130</ele>
        <time>2019-09-26T08:23:49Z</time>
      </trkpt>
      <trkpt lat="43.70975" lon="5.07772">
        <ele>130</ele>
        <time>2019-09-26T08:23:51Z</time>
      </trkpt>
      <trkpt lat="43.70975" lon="5.0777">
        <ele>130</ele>
        <time>2019-09-26T08:23:53Z</time>
      </trkpt>
      <trkpt lat="43.70975" lon="5.07768">
        <ele>130</ele>
        <time>2019-09-26T08:23:55Z</time>
      </trkpt>
      <trkpt lat="43.70975" lon="5.07765">
        <ele>130</ele>
        <time>2019-09-26T08:23:56Z</time>
      </trkpt>
      <trkpt lat="43.70976" lon="5.07764">
        <ele>130</ele>
        <time>2019-09-26T08:23:57Z</time>
      </trkpt>
      <trkpt lat="43.70975" lon="5.07761">
        <ele>130</ele>
        <time>2019-09-26T08:23:59Z</time>
      </trkpt>
      <trkpt lat="43.70975" lon="5.07758">
        <ele>130</ele>
        <time>2019-09-26T08:24:01Z</time>
      </trkpt>
      <trkpt lat="43.70975" lon="5.07754">
        <ele>130</ele>
        <time>2019-09-26T08:24:04Z</time>
      </trkpt>
      <trkpt lat="43.70975" lon="5.07751">
        <ele>131</ele>
        <time>2019-09-26T08:24:06Z</time>
      </trkpt>
      <trkpt lat="43.70975" lon="5.07749">
        <ele>131</ele>
        <time>2019-09-26T08:24:08Z</time>
      </trkpt>
      <trkpt lat="43.70975" lon="5.07745">
        <ele>131</ele>
        <time>2019-09-26T08:24:11Z</time>
      </trkpt>
      <trkpt lat="43.70974" lon="5.07741">
        <ele>131</ele>
        <time>2019-09-26T08:24:14Z</time>
      </trkpt>
      <trkpt lat="43.70974" lon="5.07738">
        <ele>131</ele>
        <time>2019-09-26T08:24:16Z</time>
      </trkpt>
      <trkpt lat="43.70974" lon="5.07735">
        <ele>131</ele>
        <time>2019-09-26T08:24:18Z</time>
      </trkpt>
      <trkpt lat="43.70974" lon="5.07732">
        <ele>131</ele>
        <time>2019-09-26T08:24:20Z</time>
      </trkpt>
      <trkpt lat="43.70973" lon="5.07729">
        <ele>131</ele>
        <time>2019-09-26T08:24:22Z</time>
      </trkpt>
      <trkpt lat="43.70973" lon="5.07726">
        <ele>131</ele>
        <time>2019-09-26T08:24:24Z</time>
      </trkpt>
      <trkpt lat="43.70973" lon="5.07726">
        <ele>130</ele>
        <time>2019-09-26T08:24:26Z</time>
      </trkpt>
      <trkpt lat="43.70972" lon="5.07724">
        <ele>130</ele>
        <time>2019-09-26T08:24:27Z</time>
      </trkpt>
      <trkpt lat="43.70971" lon="5.07721">
        <ele>130</ele>
        <time>2019-09-26T08:24:29Z</time>
      </trkpt>
      <trkpt lat="43.7097" lon="5.07718">
        <ele>130</ele>
        <time>2019-09-26T08:24:31Z</time>
      </trkpt>
      <trkpt lat="43.70969" lon="5.07715">
        <ele>130</ele>
        <time>2019-09-26T08:24:34Z</time>
      </trkpt>
      <trkpt lat="43.70968" lon="5.07712">
        <ele>131</ele>
        <time>2019-09-26T08:24:36Z</time>
      </trkpt>
      <trkpt lat="43.70968" lon="5.07709">
        <ele>131</ele>
        <time>2019-09-26T08:24:38Z</time>
      </trkpt>
      <trkpt lat="43.70967" lon="5.07706">
        <ele>131</ele>
        <time>2019-09-26T08:24:40Z</time>
      </trkpt>
      <trkpt lat="43.70966" lon="5.07704">
        <ele>131</ele>
        <time>2019-09-26T08:24:42Z</time>
      </trkpt>
      <trkpt lat="43.70964" lon="5.07701">
        <ele>131</ele>
        <time>2019-09-26T08:24:44Z</time>
      </trkpt>
      <trkpt lat="43.70964" lon="5.07697">
        <ele>131</ele>
        <time>2019-09-26T08:24:46Z</time>
      </trkpt>
      <trkpt lat="43.70963" lon="5.07694">
        <ele>131</ele>
        <time>2019-09-26T08:24:48Z</time>
      </trkpt>
      <trkpt lat="43.70963" lon="5.0769">
        <ele>131</ele>
        <time>2019-09-26T08:24:50Z</time>
      </trkpt>
      <trkpt lat="43.70963" lon="5.07687">
        <ele>131</ele>
        <time>2019-09-26T08:24:52Z</time>
      </trkpt>
      <trkpt lat="43.70963" lon="5.07684">
        <ele>131</ele>
        <time>2019-09-26T08:24:54Z</time>
      </trkpt>
      <trkpt lat="43.70964" lon="5.07681">
        <ele>132</ele>
        <time>2019-09-26T08:24:56Z</time>
      </trkpt>
      <trkpt lat="43.70964" lon="5.07678">
        <ele>132</ele>
        <time>2019-09-26T08:24:58Z</time>
      </trkpt>
      <trkpt lat="43.70965" lon="5.07676">
        <ele>132</ele>
        <time>2019-09-26T08:25:00Z</time>
      </trkpt>
      <trkpt lat="43.70965" lon="5.07673">
        <ele>132</ele>
        <time>2019-09-26T08:25:02Z</time>
      </trkpt>
      <trkpt lat="43.70965" lon="5.0767">
        <ele>132</ele>
        <time>2019-09-26T08:25:04Z</time>
      </trkpt>
      <trkpt lat="43.70965" lon="5.07667">
        <ele>132</ele>
        <time>2019-09-26T08:25:06Z</time>
      </trkpt>
      <trkpt lat="43.70966" lon="5.07662">
        <ele>132</ele>
        <time>2019-09-26T08:25:08Z</time>
      </trkpt>
      <trkpt lat="43.70966" lon="5.07659">
        <ele>132</ele>
        <time>2019-09-26T08:25:11Z</time>
      </trkpt>
      <trkpt lat="43.70967" lon="5.07656">
        <ele>132</ele>
        <time>2019-09-26T08:25:13Z</time>
      </trkpt>
      <trkpt lat="43.70967" lon="5.07654">
        <ele>132</ele>
        <time>2019-09-26T08:25:15Z</time>
      </trkpt>
      <trkpt lat="43.70968" lon="5.07651">
        <ele>130</ele>
        <time>2019-09-26T08:25:16Z</time>
      </trkpt>
      <trkpt lat="43.70967" lon="5.07647">
        <ele>130</ele>
        <time>2019-09-26T08:25:17Z</time>
      </trkpt>
      <trkpt lat="43.70967" lon="5.07645">
        <ele>130</ele>
        <time>2019-09-26T08:25:19Z</time>
      </trkpt>
      <trkpt lat="43.70967" lon="5.07643">
        <ele>130</ele>
        <time>2019-09-26T08:25:21Z</time>
      </trkpt>
      <trkpt lat="43.70967" lon="5.07641">
        <ele>130</ele>
        <time>2019-09-26T08:25:23Z</time>
      </trkpt>
      <trkpt lat="43.70967" lon="5.07638">
        <ele>130</ele>
        <time>2019-09-26T08:25:25Z</time>
      </trkpt>
      <trkpt lat="43.70967" lon="5.07636">
        <ele>129</ele>
        <time>2019-09-26T08:25:26Z</time>
      </trkpt>
      <trkpt lat="43.70967" lon="5.07632">
        <ele>129</ele>
        <time>2019-09-26T08:25:27Z</time>
      </trkpt>
      <trkpt lat="43.70967" lon="5.0763">
        <ele>129</ele>
        <time>2019-09-26T08:25:29Z</time>
      </trkpt>
      <trkpt lat="43.70967" lon="5.07627">
        <ele>129</ele>
        <time>2019-09-26T08:25:31Z</time>
      </trkpt>
      <trkpt lat="43.70966" lon="5.07625">
        <ele>129</ele>
        <time>2019-09-26T08:25:33Z</time>
      </trkpt>
      <trkpt lat="43.70966" lon="5.07622">
        <ele>129</ele>
        <time>2019-09-26T08:25:35Z</time>
      </trkpt>
      <trkpt lat="43.70966" lon="5.0762">
        <ele>129</ele>
        <time>2019-09-26T08:25:36Z</time>
      </trkpt>
      <trkpt lat="43.70966" lon="5.07616">
        <ele>129</ele>
        <time>2019-09-26T08:25:37Z</time>
      </trkpt>
      <trkpt lat="43.70966" lon="5.07614">
        <ele>129</ele>
        <time>2019-09-26T08:25:39Z</time>
      </trkpt>
      <trkpt lat="43.70966" lon="5.07612">
        <ele>129</ele>
        <time>2019-09-26T08:25:41Z</time>
      </trkpt>
      <trkpt lat="43.70966" lon="5.0761">
        <ele>129</ele>
        <time>2019-09-26T08:25:43Z</time>
      </trkpt>
      <trkpt lat="43.70966" lon="5.07607">
        <ele>129</ele>
        <time>2019-09-26T08:25:45Z</time>
      </trkpt>
      <trkpt lat="43.70966" lon="5.07605">
        <ele>129</ele>
        <time>2019-09-26T08:25:46Z</time>
      </trkpt>
      <trkpt lat="43.70966" lon="5.076">
        <ele>129</ele>
        <time>2019-09-26T08:25:48Z</time>
      </trkpt>
      <trkpt lat="43.70966" lon="5.07598">
        <ele>129</ele>
        <time>2019-09-26T08:25:50Z</time>
      </trkpt>
      <trkpt lat="43.70966" lon="5.07596">
        <ele>129</ele>
        <time>2019-09-26T08:25:52Z</time>
      </trkpt>
      <trkpt lat="43.70967" lon="5.07595">
        <ele>129</ele>
        <time>2019-09-26T08:25:55Z</time>
      </trkpt>
      <trkpt lat="43.70967" lon="5.07593">
        <ele>130</ele>
        <time>2019-09-26T08:25:56Z</time>
      </trkpt>
      <trkpt lat="43.70968" lon="5.07589">
        <ele>130</ele>
        <time>2019-09-26T08:25:58Z</time>
      </trkpt>
      <trkpt lat="43.7097" lon="5.07586">
        <ele>130</ele>
        <time>2019-09-26T08:26:00Z</time>
      </trkpt>
      <trkpt lat="43.70971" lon="5.07583">
        <ele>130</ele>
        <time>2019-09-26T08:26:02Z</time>
      </trkpt>
      <trkpt lat="43.70972" lon="5.07581">
        <ele>130</ele>
        <time>2019-09-26T08:26:04Z</time>
      </trkpt>
      <trkpt lat="43.70972" lon="5.07577">
        <ele>130</ele>
        <time>2019-09-26T08:26:06Z</time>
      </trkpt>
      <trkpt lat="43.70973" lon="5.07573">
        <ele>130</ele>
        <time>2019-09-26T08:26:08Z</time>
      </trkpt>
      <trkpt lat="43.70974" lon="5.0757">
        <ele>130</ele>
        <time>2019-09-26T08:26:10Z</time>
      </trkpt>
      <trkpt lat="43.70975" lon="5.07567">
        <ele>130</ele>
        <time>2019-09-26T08:26:12Z</time>
      </trkpt>
      <trkpt lat="43.70976" lon="5.07564">
        <ele>130</ele>
        <time>2019-09-26T08:26:14Z</time>
      </trkpt>
      <trkpt lat="43.70977" lon="5.07561">
        <ele>129</ele>
        <time>2019-09-26T08:26:16Z</time>
      </trkpt>
      <trkpt lat="43.70977" lon="5.07558">
        <ele>129</ele>
        <time>2019-09-26T08:26:18Z</time>
      </trkpt>
      <trkpt lat="43.70977" lon="5.07553">
        <ele>129</ele>
        <time>2019-09-26T08:26:20Z</time>
      </trkpt>
      <trkpt lat="43.70977" lon="5.0755">
        <ele>129</ele>
        <time>2019-09-26T08:26:22Z</time>
      </trkpt>
      <trkpt lat="43.70977" lon="5.07547">
        <ele>129</ele>
        <time>2019-09-26T08:26:24Z</time>
      </trkpt>
      <trkpt lat="43.70977" lon="5.07545">
        <ele>129</ele>
        <time>2019-09-26T08:26:26Z</time>
      </trkpt>
      <trkpt lat="43.70978" lon="5.07542">
        <ele>129</ele>
        <time>2019-09-26T08:26:28Z</time>
      </trkpt>
      <trkpt lat="43.70979" lon="5.07539">
        <ele>129</ele>
        <time>2019-09-26T08:26:30Z</time>
      </trkpt>
      <trkpt lat="43.70979" lon="5.07536">
        <ele>129</ele>
        <time>2019-09-26T08:26:32Z</time>
      </trkpt>
      <trkpt lat="43.70979" lon="5.07533">
        <ele>129</ele>
        <time>2019-09-26T08:26:34Z</time>
      </trkpt>
      <trkpt lat="43.7098" lon="5.07531">
        <ele>130</ele>
        <time>2019-09-26T08:26:36Z</time>
      </trkpt>
      <trkpt lat="43.70981" lon="5.07525">
        <ele>130</ele>
        <time>2019-09-26T08:26:38Z</time>
      </trkpt>
      <trkpt lat="43.70982" lon="5.07523">
        <ele>130</ele>
        <time>2019-09-26T08:26:40Z</time>
      </trkpt>
      <trkpt lat="43.70982" lon="5.07521">
        <ele>130</ele>
        <time>2019-09-26T08:26:43Z</time>
      </trkpt>
      <trkpt lat="43.70983" lon="5.07519">
        <ele>130</ele>
        <time>2019-09-26T08:26:45Z</time>
      </trkpt>
      <trkpt lat="43.70983" lon="5.07516">
        <ele>129</ele>
        <time>2019-09-26T08:26:46Z</time>
      </trkpt>
      <trkpt lat="43.70984" lon="5.07513">
        <ele>129</ele>
        <time>2019-09-26T08:26:47Z</time>
      </trkpt>
      <trkpt lat="43.70985" lon="5.07512">
        <ele>129</ele>
        <time>2019-09-26T08:26:49Z</time>
      </trkpt>
      <trkpt lat="43.70987" lon="5.0751">
        <ele>129</ele>
        <time>2019-09-26T08:26:51Z</time>
      </trkpt>
      <trkpt lat="43.70988" lon="5.07508">
        <ele>129</ele>
        <time>2019-09-26T08:26:53Z</time>
      </trkpt>
      <trkpt lat="43.70989" lon="5.07507">
        <ele>129</ele>
        <time>2019-09-26T08:26:55Z</time>
      </trkpt>
      <trkpt lat="43.7099" lon="5.07505">
        <ele>130</ele>
        <time>2019-09-26T08:26:56Z</time>
      </trkpt>
      <trkpt lat="43.70992" lon="5.07502">
        <ele>130</ele>
        <time>2019-09-26T08:26:57Z</time>
      </trkpt>
      <trkpt lat="43.70993" lon="5.07501">
        <ele>130</ele>
        <time>2019-09-26T08:26:59Z</time>
      </trkpt>
      <trkpt lat="43.70994" lon="5.07499">
        <ele>130</ele>
        <time>2019-09-26T08:27:01Z</time>
      </trkpt>
      <trkpt lat="43.70995" lon="5.07497">
        <ele>130</ele>
        <time>2019-09-26T08:27:03Z</time>
      </trkpt>
      <trkpt lat="43.70996" lon="5.07495">
        <ele>130</ele>
        <time>2019-09-26T08:27:05Z</time>
      </trkpt>
      <trkpt lat="43.70997" lon="5.07494">
        <ele>130</ele>
        <time>2019-09-26T08:27:06Z</time>
      </trkpt>
      <trkpt lat="43.70997" lon="5.07492">
        <ele>130</ele>
        <time>2019-09-26T08:27:07Z</time>
      </trkpt>
      <trkpt lat="43.70998" lon="5.0749">
        <ele>130</ele>
        <time>2019-09-26T08:27:09Z</time>
      </trkpt>
      <trkpt lat="43.71" lon="5.07488">
        <ele>130</ele>
        <time>2019-09-26T08:27:12Z</time>
      </trkpt>
      <trkpt lat="43.71001" lon="5.07485">
        <ele>130</ele>
        <time>2019-09-26T08:27:14Z</time>
      </trkpt>
      <trkpt lat="43.71002" lon="5.07483">
        <ele>131</ele>
        <time>2019-09-26T08:27:16Z</time>
      </trkpt>
      <trkpt lat="43.71003" lon="5.07481">
        <ele>131</ele>
        <time>2019-09-26T08:27:18Z</time>
      </trkpt>
      <trkpt lat="43.71005" lon="5.07479">
        <ele>131</ele>
        <time>2019-09-26T08:27:20Z</time>
      </trkpt>
      <trkpt lat="43.71006" lon="5.07477">
        <ele>131</ele>
        <time>2019-09-26T08:27:22Z</time>
      </trkpt>
      <trkpt lat="43.71008" lon="5.07474">
        <ele>131</ele>
        <time>2019-09-26T08:27:25Z</time>
      </trkpt>
      <trkpt lat="43.71009" lon="5.07471">
        <ele>131</ele>
        <time>2019-09-26T08:27:27Z</time>
      </trkpt>
      <trkpt lat="43.71009" lon="5.07469">
        <ele>131</ele>
        <time>2019-09-26T08:27:29Z</time>
      </trkpt>
      <trkpt lat="43.7101" lon="5.07466">
        <ele>131</ele>
        <time>2019-09-26T08:27:31Z</time>
      </trkpt>
      <trkpt lat="43.71012" lon="5.07465">
        <ele>131</ele>
        <time>2019-09-26T08:27:33Z</time>
      </trkpt>
      <trkpt lat="43.71014" lon="5.07463">
        <ele>131</ele>
        <time>2019-09-26T08:27:36Z</time>
      </trkpt>
      <trkpt lat="43.71016" lon="5.07462">
        <ele>131</ele>
        <time>2019-09-26T08:27:38Z</time>
      </trkpt>
      <trkpt lat="43.71017" lon="5.0746">
        <ele>131</ele>
        <time>2019-09-26T08:27:40Z</time>
      </trkpt>
      <trkpt lat="43.71019" lon="5.07457">
        <ele>131</ele>
        <time>2019-09-26T08:27:42Z</time>
      </trkpt>
      <trkpt lat="43.71021" lon="5.07455">
        <ele>131</ele>
        <time>2019-09-26T08:27:44Z</time>
      </trkpt>
      <trkpt lat="43.71023" lon="5.07454">
        <ele>130</ele>
        <time>2019-09-26T08:27:46Z</time>
      </trkpt>
      <trkpt lat="43.71025" lon="5.07452">
        <ele>130</ele>
        <time>2019-09-26T08:27:48Z</time>
      </trkpt>
      <trkpt lat="43.71026" lon="5.0745">
        <ele>130</ele>
        <time>2019-09-26T08:27:50Z</time>
      </trkpt>
      <trkpt lat="43.71027" lon="5.07447">
        <ele>130</ele>
        <time>2019-09-26T08:27:52Z</time>
      </trkpt>
      <trkpt lat="43.71029" lon="5.07445">
        <ele>130</ele>
        <time>2019-09-26T08:27:54Z</time>
      </trkpt>
      <trkpt lat="43.7103" lon="5.07442">
        <ele>130</ele>
        <time>2019-09-26T08:27:56Z</time>
      </trkpt>
      <trkpt lat="43.71032" lon="5.0744">
        <ele>130</ele>
        <time>2019-09-26T08:27:58Z</time>
      </trkpt>
      <trkpt lat="43.71034" lon="5.07438">
        <ele>130</ele>
        <time>2019-09-26T08:28:00Z</time>
      </trkpt>
      <trkpt lat="43.71036" lon="5.07436">
        <ele>130</ele>
        <time>2019-09-26T08:28:02Z</time>
      </trkpt>
      <trkpt lat="43.71037" lon="5.07434">
        <ele>130</ele>
        <time>2019-09-26T08:28:04Z</time>
      </trkpt>
      <trkpt lat="43.71039" lon="5.07432">
        <ele>130</ele>
        <time>2019-09-26T08:28:06Z</time>
      </trkpt>
      <trkpt lat="43.7104" lon="5.07431">
        <ele>130</ele>
        <time>2019-09-26T08:28:08Z</time>
      </trkpt>
      <trkpt lat="43.71042" lon="5.07429">
        <ele>130</ele>
        <time>2019-09-26T08:28:10Z</time>
      </trkpt>
      <trkpt lat="43.71043" lon="5.07426">
        <ele>130</ele>
        <time>2019-09-26T08:28:12Z</time>
      </trkpt>
      <trkpt lat="43.71044" lon="5.07424">
        <ele>130</ele>
        <time>2019-09-26T08:28:14Z</time>
      </trkpt>
      <trkpt lat="43.71044" lon="5.07424">
        <ele>130</ele>
        <time>2019-09-26T08:28:16Z</time>
      </trkpt>
      <trkpt lat="43.71047" lon="5.07419">
        <ele>130</ele>
        <time>2019-09-26T08:28:17Z</time>
      </trkpt>
      <trkpt lat="43.71048" lon="5.07417">
        <ele>130</ele>
        <time>2019-09-26T08:28:19Z</time>
      </trkpt>
      <trkpt lat="43.71049" lon="5.07415">
        <ele>130</ele>
        <time>2019-09-26T08:28:21Z</time>
      </trkpt>
      <trkpt lat="43.71049" lon="5.07413">
        <ele>130</ele>
        <time>2019-09-26T08:28:23Z</time>
      </trkpt>
      <trkpt lat="43.7105" lon="5.07412">
        <ele>130</ele>
        <time>2019-09-26T08:28:25Z</time>
      </trkpt>
      <trkpt lat="43.71051" lon="5.0741">
        <ele>130</ele>
        <time>2019-09-26T08:28:26Z</time>
      </trkpt>
      <trkpt lat="43.71052" lon="5.07409">
        <ele>130</ele>
        <time>2019-09-26T08:28:27Z</time>
      </trkpt>
      <trkpt lat="43.71053" lon="5.07406">
        <ele>130</ele>
        <time>2019-09-26T08:28:29Z</time>
      </trkpt>
      <trkpt lat="43.71054" lon="5.07403">
        <ele>130</ele>
        <time>2019-09-26T08:28:32Z</time>
      </trkpt>
      <trkpt lat="43.71055" lon="5.074">
        <ele>130</ele>
        <time>2019-09-26T08:28:34Z</time>
      </trkpt>
      <trkpt lat="43.71056" lon="5.07397">
        <ele>129</ele>
        <time>2019-09-26T08:28:36Z</time>
      </trkpt>
      <trkpt lat="43.71059" lon="5.07392">
        <ele>129</ele>
        <time>2019-09-26T08:28:38Z</time>
      </trkpt>
      <trkpt lat="43.7106" lon="5.0739">
        <ele>129</ele>
        <time>2019-09-26T08:28:40Z</time>
      </trkpt>
      <trkpt lat="43.7106" lon="5.07388">
        <ele>129</ele>
        <time>2019-09-26T08:28:42Z</time>
      </trkpt>
      <trkpt lat="43.71061" lon="5.07386">
        <ele>129</ele>
        <time>2019-09-26T08:28:45Z</time>
      </trkpt>
      <trkpt lat="43.71062" lon="5.07384">
        <ele>129</ele>
        <time>2019-09-26T08:28:46Z</time>
      </trkpt>
      <trkpt lat="43.71063" lon="5.07381">
        <ele>129</ele>
        <time>2019-09-26T08:28:47Z</time>
      </trkpt>
      <trkpt lat="43.71064" lon="5.07379">
        <ele>129</ele>
        <time>2019-09-26T08:28:49Z</time>
      </trkpt>
      <trkpt lat="43.71064" lon="5.07377">
        <ele>129</ele>
        <time>2019-09-26T08:28:51Z</time>
      </trkpt>
      <trkpt lat="43.71065" lon="5.07375">
        <ele>129</ele>
        <time>2019-09-26T08:28:53Z</time>
      </trkpt>
      <trkpt lat="43.71066" lon="5.07373">
        <ele>129</ele>
        <time>2019-09-26T08:28:55Z</time>
      </trkpt>
      <trkpt lat="43.71067" lon="5.07371">
        <ele>129</ele>
        <time>2019-09-26T08:28:56Z</time>
      </trkpt>
      <trkpt lat="43.71068" lon="5.07368">
        <ele>129</ele>
        <time>2019-09-26T08:28:57Z</time>
      </trkpt>
      <trkpt lat="43.71069" lon="5.07366">
        <ele>129</ele>
        <time>2019-09-26T08:28:59Z</time>
      </trkpt>
      <trkpt lat="43.71069" lon="5.07365">
        <ele>129</ele>
        <time>2019-09-26T08:29:01Z</time>
      </trkpt>
      <trkpt lat="43.7107" lon="5.07363">
        <ele>129</ele>
        <time>2019-09-26T08:29:03Z</time>
      </trkpt>
      <trkpt lat="43.71071" lon="5.07362">
        <ele>129</ele>
        <time>2019-09-26T08:29:05Z</time>
      </trkpt>
      <trkpt lat="43.71072" lon="5.0736">
        <ele>129</ele>
        <time>2019-09-26T08:29:06Z</time>
      </trkpt>
      <trkpt lat="43.71074" lon="5.07357">
        <ele>129</ele>
        <time>2019-09-26T08:29:07Z</time>
      </trkpt>
      <trkpt lat="43.71075" lon="5.07355">
        <ele>129</ele>
        <time>2019-09-26T08:29:09Z</time>
      </trkpt>
      <trkpt lat="43.71076" lon="5.07353">
        <ele>129</ele>
        <time>2019-09-26T08:29:11Z</time>
      </trkpt>
      <trkpt lat="43.71077" lon="5.07351">
        <ele>129</ele>
        <time>2019-09-26T08:29:13Z</time>
      </trkpt>
      <trkpt lat="43.71078" lon="5.07349">
        <ele>129</ele>
        <time>2019-09-26T08:29:15Z</time>
      </trkpt>
      <trkpt lat="43.71079" lon="5.07347">
        <ele>128</ele>
        <time>2019-09-26T08:29:16Z</time>
      </trkpt>
      <trkpt lat="43.71081" lon="5.07345">
        <ele>128</ele>
        <time>2019-09-26T08:29:17Z</time>
      </trkpt>
      <trkpt lat="43.71082" lon="5.07343">
        <ele>128</ele>
        <time>2019-09-26T08:29:19Z</time>
      </trkpt>
      <trkpt lat="43.71083" lon="5.07342">
        <ele>128</ele>
        <time>2019-09-26T08:29:21Z</time>
      </trkpt>
      <trkpt lat="43.71084" lon="5.0734">
        <ele>128</ele>
        <time>2019-09-26T08:29:23Z</time>
      </trkpt>
      <trkpt lat="43.71085" lon="5.07339">
        <ele>128</ele>
        <time>2019-09-26T08:29:25Z</time>
      </trkpt>
      <trkpt lat="43.71086" lon="5.07337">
        <ele>128</ele>
        <time>2019-09-26T08:29:26Z</time>
      </trkpt>
      <trkpt lat="43.71088" lon="5.07333">
        <ele>128</ele>
        <time>2019-09-26T08:29:27Z</time>
      </trkpt>
      <trkpt lat="43.71089" lon="5.07332">
        <ele>128</ele>
        <time>2019-09-26T08:29:29Z</time>
      </trkpt>
      <trkpt lat="43.7109" lon="5.0733">
        <ele>128</ele>
        <time>2019-09-26T08:29:31Z</time>
      </trkpt>
      <trkpt lat="43.71091" lon="5.07328">
        <ele>128</ele>
        <time>2019-09-26T08:29:33Z</time>
      </trkpt>
      <trkpt lat="43.71092" lon="5.07326">
        <ele>128</ele>
        <time>2019-09-26T08:29:35Z</time>
      </trkpt>
      <trkpt lat="43.71093" lon="5.07324">
        <ele>128</ele>
        <time>2019-09-26T08:29:36Z</time>
      </trkpt>
      <trkpt lat="43.71094" lon="5.07321">
        <ele>128</ele>
        <time>2019-09-26T08:29:37Z</time>
      </trkpt>
      <trkpt lat="43.71095" lon="5.0732">
        <ele>128</ele>
        <time>2019-09-26T08:29:39Z</time>
      </trkpt>
      <trkpt lat="43.71096" lon="5.07318">
        <ele>128</ele>
        <time>2019-09-26T08:29:41Z</time>
      </trkpt>
      <trkpt lat="43.71097" lon="5.07317">
        <ele>128</ele>
        <time>2019-09-26T08:29:43Z</time>
      </trkpt>
      <trkpt lat="43.71098" lon="5.07316">
        <ele>128</ele>
        <time>2019-09-26T08:29:45Z</time>
      </trkpt>
      <trkpt lat="43.71099" lon="5.07314">
        <ele>128</ele>
        <time>2019-09-26T08:29:46Z</time>
      </trkpt>
      <trkpt lat="43.71101" lon="5.07311">
        <ele>128</ele>
        <time>2019-09-26T08:29:47Z</time>
      </trkpt>
      <trkpt lat="43.71102" lon="5.07309">
        <ele>128</ele>
        <time>2019-09-26T08:29:49Z</time>
      </trkpt>
      <trkpt lat="43.71104" lon="5.07308">
        <ele>128</ele>
        <time>2019-09-26T08:29:51Z</time>
      </trkpt>
      <trkpt lat="43.71105" lon="5.07306">
        <ele>128</ele>
        <time>2019-09-26T08:29:53Z</time>
      </trkpt>
      <trkpt lat="43.71106" lon="5.07305">
        <ele>128</ele>
        <time>2019-09-26T08:29:55Z</time>
      </trkpt>
      <trkpt lat="43.71107" lon="5.07303">
        <ele>127</ele>
        <time>2019-09-26T08:29:56Z</time>
      </trkpt>
      <trkpt lat="43.71109" lon="5.073">
        <ele>127</ele>
        <time>2019-09-26T08:29:57Z</time>
      </trkpt>
      <trkpt lat="43.7111" lon="5.07298">
        <ele>127</ele>
        <time>2019-09-26T08:29:59Z</time>
      </trkpt>
      <trkpt lat="43.71111" lon="5.07296">
        <ele>127</ele>
        <time>2019-09-26T08:30:01Z</time>
      </trkpt>
      <trkpt lat="43.71112" lon="5.07294">
        <ele>127</ele>
        <time>2019-09-26T08:30:03Z</time>
      </trkpt>
      <trkpt lat="43.71113" lon="5.07292">
        <ele>127</ele>
        <time>2019-09-26T08:30:05Z</time>
      </trkpt>
      <trkpt lat="43.71114" lon="5.07289">
        <ele>127</ele>
        <time>2019-09-26T08:30:06Z</time>
      </trkpt>
      <trkpt lat="43.71114" lon="5.07288">
        <ele>127</ele>
        <time>2019-09-26T08:30:07Z</time>
      </trkpt>
      <trkpt lat="43.71115" lon="5.07286">
        <ele>127</ele>
        <time>2019-09-26T08:30:09Z</time>
      </trkpt>
      <trkpt lat="43.71115" lon="5.07283">
        <ele>127</ele>
        <time>2019-09-26T08:30:11Z</time>
      </trkpt>
      <trkpt lat="43.71116" lon="5.0728">
        <ele>127</ele>
        <time>2019-09-26T08:30:13Z</time>
      </trkpt>
      <trkpt lat="43.71116" lon="5.07276">
        <ele>127</ele>
        <time>2019-09-26T08:30:15Z</time>
      </trkpt>
      <trkpt lat="43.71117" lon="5.07274">
        <ele>126</ele>
        <time>2019-09-26T08:30:17Z</time>
      </trkpt>
      <trkpt lat="43.71118" lon="5.07269">
        <ele>126</ele>
        <time>2019-09-26T08:30:19Z</time>
      </trkpt>
      <trkpt lat="43.71118" lon="5.07268">
        <ele>126</ele>
        <time>2019-09-26T08:30:21Z</time>
      </trkpt>
      <trkpt lat="43.71118" lon="5.07266">
        <ele>126</ele>
        <time>2019-09-26T08:30:23Z</time>
      </trkpt>
      <trkpt lat="43.71119" lon="5.07265">
        <ele>126</ele>
        <time>2019-09-26T08:30:25Z</time>
      </trkpt>
      <trkpt lat="43.71119" lon="5.07263">
        <ele>125</ele>
        <time>2019-09-26T08:30:26Z</time>
      </trkpt>
      <trkpt lat="43.7112" lon="5.07261">
        <ele>125</ele>
        <time>2019-09-26T08:30:27Z</time>
      </trkpt>
      <trkpt lat="43.71121" lon="5.07258">
        <ele>125</ele>
        <time>2019-09-26T08:30:29Z</time>
      </trkpt>
      <trkpt lat="43.71122" lon="5.07256">
        <ele>125</ele>
        <time>2019-09-26T08:30:31Z</time>
      </trkpt>
      <trkpt lat="43.71124" lon="5.07253">
        <ele>125</ele>
        <time>2019-09-26T08:30:34Z</time>
      </trkpt>
      <trkpt lat="43.71125" lon="5.0725">
        <ele>124</ele>
        <time>2019-09-26T08:30:36Z</time>
      </trkpt>
      <trkpt lat="43.71127" lon="5.07248">
        <ele>124</ele>
        <time>2019-09-26T08:30:38Z</time>
      </trkpt>
      <trkpt lat="43.71129" lon="5.07245">
        <ele>124</ele>
        <time>2019-09-26T08:30:40Z</time>
      </trkpt>
      <trkpt lat="43.71131" lon="5.07243">
        <ele>124</ele>
        <time>2019-09-26T08:30:42Z</time>
      </trkpt>
      <trkpt lat="43.71132" lon="5.0724">
        <ele>124</ele>
        <time>2019-09-26T08:30:44Z</time>
      </trkpt>
      <trkpt lat="43.71133" lon="5.07238">
        <ele>124</ele>
        <time>2019-09-26T08:30:46Z</time>
      </trkpt>
      <trkpt lat="43.71135" lon="5.07235">
        <ele>124</ele>
        <time>2019-09-26T08:30:48Z</time>
      </trkpt>
      <trkpt lat="43.71137" lon="5.07232">
        <ele>124</ele>
        <time>2019-09-26T08:30:50Z</time>
      </trkpt>
      <trkpt lat="43.71138" lon="5.0723">
        <ele>124</ele>
        <time>2019-09-26T08:30:52Z</time>
      </trkpt>
      <trkpt lat="43.7114" lon="5.07228">
        <ele>124</ele>
        <time>2019-09-26T08:30:54Z</time>
      </trkpt>
      <trkpt lat="43.71141" lon="5.07226">
        <ele>124</ele>
        <time>2019-09-26T08:30:56Z</time>
      </trkpt>
      <trkpt lat="43.71143" lon="5.07224">
        <ele>124</ele>
        <time>2019-09-26T08:30:58Z</time>
      </trkpt>
      <trkpt lat="43.71144" lon="5.07221">
        <ele>124</ele>
        <time>2019-09-26T08:31:00Z</time>
      </trkpt>
      <trkpt lat="43.71145" lon="5.07219">
        <ele>124</ele>
        <time>2019-09-26T08:31:02Z</time>
      </trkpt>
      <trkpt lat="43.71146" lon="5.07216">
        <ele>124</ele>
        <time>2019-09-26T08:31:04Z</time>
      </trkpt>
      <trkpt lat="43.71146" lon="5.07213">
        <ele>124</ele>
        <time>2019-09-26T08:31:06Z</time>
      </trkpt>
      <trkpt lat="43.71147" lon="5.0721">
        <ele>124</ele>
        <time>2019-09-26T08:31:08Z</time>
      </trkpt>
      <trkpt lat="43.71147" lon="5.07207">
        <ele>124</ele>
        <time>2019-09-26T08:31:10Z</time>
      </trkpt>
      <trkpt lat="43.71148" lon="5.07204">
        <ele>124</ele>
        <time>2019-09-26T08:31:12Z</time>
      </trkpt>
      <trkpt lat="43.71148" lon="5.07201">
        <ele>124</ele>
        <time>2019-09-26T08:31:14Z</time>
      </trkpt>
      <trkpt lat="43.71149" lon="5.07198">
        <ele>123</ele>
        <time>2019-09-26T08:31:16Z</time>
      </trkpt>
      <trkpt lat="43.71149" lon="5.07195">
        <ele>123</ele>
        <time>2019-09-26T08:31:18Z</time>
      </trkpt>
      <trkpt lat="43.7115" lon="5.07192">
        <ele>123</ele>
        <time>2019-09-26T08:31:20Z</time>
      </trkpt>
      <trkpt lat="43.71151" lon="5.07189">
        <ele>123</ele>
        <time>2019-09-26T08:31:22Z</time>
      </trkpt>
      <trkpt lat="43.71153" lon="5.07186">
        <ele>123</ele>
        <time>2019-09-26T08:31:24Z</time>
      </trkpt>
      <trkpt lat="43.71153" lon="5.07183">
        <ele>123</ele>
        <time>2019-09-26T08:31:26Z</time>
      </trkpt>
      <trkpt lat="43.71154" lon="5.07179">
        <ele>123</ele>
        <time>2019-09-26T08:31:28Z</time>
      </trkpt>
      <trkpt lat="43.71154" lon="5.07178">
        <ele>123</ele>
        <time>2019-09-26T08:31:30Z</time>
      </trkpt>
      <trkpt lat="43.71154" lon="5.07176">
        <ele>123</ele>
        <time>2019-09-26T08:31:32Z</time>
      </trkpt>
      <trkpt lat="43.71155" lon="5.07174">
        <ele>123</ele>
        <time>2019-09-26T08:31:35Z</time>
      </trkpt>
      <trkpt lat="43.71155" lon="5.07173">
        <ele>123</ele>
        <time>2019-09-26T08:31:36Z</time>
      </trkpt>
      <trkpt lat="43.71156" lon="5.07169">
        <ele>123</ele>
        <time>2019-09-26T08:31:45Z</time>
      </trkpt>
      <trkpt lat="43.71158" lon="5.07164">
        <ele>123</ele>
        <time>2019-09-26T08:31:46Z</time>
      </trkpt>
      <trkpt lat="43.71159" lon="5.0716">
        <ele>123</ele>
        <time>2019-09-26T08:35:05Z</time>
      </trkpt>
      <trkpt lat="43.71161" lon="5.07156">
        <ele>123</ele>
        <time>2019-09-26T08:35:06Z</time>
      </trkpt>
      <trkpt lat="43.71162" lon="5.07152">
        <ele>123</ele>
        <time>2019-09-26T08:35:08Z</time>
      </trkpt>
      <trkpt lat="43.71164" lon="5.07148">
        <ele>123</ele>
        <time>2019-09-26T08:35:11Z</time>
      </trkpt>
      <trkpt lat="43.71165" lon="5.07143">
        <ele>123</ele>
        <time>2019-09-26T08:35:13Z</time>
      </trkpt>
      <trkpt lat="43.71167" lon="5.07139">
        <ele>123</ele>
        <time>2019-09-26T08:35:14Z</time>
      </trkpt>
      <trkpt lat="43.71167" lon="5.07134">
        <ele>123</ele>
        <time>2019-09-26T08:35:15Z</time>
      </trkpt>
      <trkpt lat="43.71168" lon="5.07133">
        <ele>123</ele>
        <time>2019-09-26T08:35:17Z</time>
      </trkpt>
      <trkpt lat="43.71168" lon="5.07131">
        <ele>123</ele>
        <time>2019-09-26T08:35:19Z</time>
      </trkpt>
      <trkpt lat="43.71168" lon="5.07129">
        <ele>123</ele>
        <time>2019-09-26T08:35:21Z</time>
      </trkpt>
      <trkpt lat="43.71168" lon="5.07127">
        <ele>123</ele>
        <time>2019-09-26T08:35:23Z</time>
      </trkpt>
      <trkpt lat="43.71168" lon="5.07125">
        <ele>122</ele>
        <time>2019-09-26T08:35:24Z</time>
      </trkpt>
      <trkpt lat="43.71169" lon="5.07122">
        <ele>122</ele>
        <time>2019-09-26T08:35:25Z</time>
      </trkpt>
      <trkpt lat="43.7117" lon="5.0712">
        <ele>122</ele>
        <time>2019-09-26T08:35:28Z</time>
      </trkpt>
      <trkpt lat="43.71171" lon="5.07117">
        <ele>122</ele>
        <time>2019-09-26T08:35:30Z</time>
      </trkpt>
      <trkpt lat="43.71172" lon="5.07115">
        <ele>122</ele>
        <time>2019-09-26T08:35:32Z</time>
      </trkpt>
      <trkpt lat="43.71173" lon="5.07112">
        <ele>121</ele>
        <time>2019-09-26T08:35:34Z</time>
      </trkpt>
      <trkpt lat="43.71174" lon="5.0711">
        <ele>121</ele>
        <time>2019-09-26T08:35:36Z</time>
      </trkpt>
      <trkpt lat="43.71175" lon="5.07106">
        <ele>121</ele>
        <time>2019-09-26T08:35:39Z</time>
      </trkpt>
      <trkpt lat="43.71176" lon="5.07103">
        <ele>121</ele>
        <time>2019-09-26T08:35:42Z</time>
      </trkpt>
      <trkpt lat="43.71177" lon="5.07101">
        <ele>121</ele>
        <time>2019-09-26T08:35:44Z</time>
      </trkpt>
      <trkpt lat="43.71178" lon="5.07096">
        <ele>121</ele>
        <time>2019-09-26T08:35:46Z</time>
      </trkpt>
      <trkpt lat="43.71179" lon="5.07094">
        <ele>121</ele>
        <time>2019-09-26T08:35:49Z</time>
      </trkpt>
      <trkpt lat="43.71179" lon="5.07091">
        <ele>121</ele>
        <time>2019-09-26T08:35:51Z</time>
      </trkpt>
      <trkpt lat="43.71179" lon="5.07089">
        <ele>121</ele>
        <time>2019-09-26T08:35:53Z</time>
      </trkpt>
      <trkpt lat="43.7118" lon="5.07087">
        <ele>120</ele>
        <time>2019-09-26T08:35:54Z</time>
      </trkpt>
      <trkpt lat="43.71181" lon="5.07083">
        <ele>120</ele>
        <time>2019-09-26T08:35:55Z</time>
      </trkpt>
      <trkpt lat="43.71181" lon="5.07081">
        <ele>120</ele>
        <time>2019-09-26T08:35:57Z</time>
      </trkpt>
      <trkpt lat="43.71182" lon="5.07079">
        <ele>120</ele>
        <time>2019-09-26T08:35:59Z</time>
      </trkpt>
      <trkpt lat="43.71183" lon="5.07077">
        <ele>120</ele>
        <time>2019-09-26T08:36:01Z</time>
      </trkpt>
      <trkpt lat="43.71183" lon="5.07075">
        <ele>120</ele>
        <time>2019-09-26T08:36:03Z</time>
      </trkpt>
      <trkpt lat="43.71184" lon="5.07073">
        <ele>121</ele>
        <time>2019-09-26T08:36:04Z</time>
      </trkpt>
      <trkpt lat="43.71185" lon="5.07069">
        <ele>121</ele>
        <time>2019-09-26T08:36:05Z</time>
      </trkpt>
      <trkpt lat="43.71186" lon="5.07067">
        <ele>121</ele>
        <time>2019-09-26T08:36:07Z</time>
      </trkpt>
      <trkpt lat="43.71186" lon="5.07065">
        <ele>121</ele>
        <time>2019-09-26T08:36:09Z</time>
      </trkpt>
      <trkpt lat="43.71187" lon="5.07063">
        <ele>121</ele>
        <time>2019-09-26T08:36:11Z</time>
      </trkpt>
      <trkpt lat="43.71188" lon="5.07061">
        <ele>121</ele>
        <time>2019-09-26T08:36:13Z</time>
      </trkpt>
      <trkpt lat="43.71188" lon="5.07059">
        <ele>121</ele>
        <time>2019-09-26T08:36:14Z</time>
      </trkpt>
      <trkpt lat="43.71189" lon="5.07056">
        <ele>121</ele>
        <time>2019-09-26T08:36:15Z</time>
      </trkpt>
      <trkpt lat="43.7119" lon="5.07054">
        <ele>121</ele>
        <time>2019-09-26T08:36:17Z</time>
      </trkpt>
      <trkpt lat="43.7119" lon="5.07052">
        <ele>121</ele>
        <time>2019-09-26T08:36:19Z</time>
      </trkpt>
      <trkpt lat="43.71191" lon="5.0705">
        <ele>121</ele>
        <time>2019-09-26T08:36:21Z</time>
      </trkpt>
      <trkpt lat="43.71191" lon="5.07048">
        <ele>121</ele>
        <time>2019-09-26T08:36:23Z</time>
      </trkpt>
      <trkpt lat="43.71192" lon="5.07046">
        <ele>121</ele>
        <time>2019-09-26T08:36:24Z</time>
      </trkpt>
      <trkpt lat="43.71192" lon="5.07044">
        <ele>121</ele>
        <time>2019-09-26T08:36:25Z</time>
      </trkpt>
      <trkpt lat="43.71192" lon="5.07042">
        <ele>121</ele>
        <time>2019-09-26T08:36:27Z</time>
      </trkpt>
      <trkpt lat="43.71193" lon="5.07039">
        <ele>121</ele>
        <time>2019-09-26T08:36:29Z</time>
      </trkpt>
      <trkpt lat="43.71193" lon="5.07035">
        <ele>121</ele>
        <time>2019-09-26T08:36:32Z</time>
      </trkpt>
      <trkpt lat="43.71193" lon="5.07035">
        <ele>120</ele>
        <time>2019-09-26T08:36:34Z</time>
      </trkpt>
      <trkpt lat="43.71193" lon="5.0703">
        <ele>120</ele>
        <time>2019-09-26T08:36:35Z</time>
      </trkpt>
      <trkpt lat="43.71193" lon="5.07029">
        <ele>120</ele>
        <time>2019-09-26T08:36:37Z</time>
      </trkpt>
      <trkpt lat="43.71193" lon="5.07027">
        <ele>120</ele>
        <time>2019-09-26T08:36:39Z</time>
      </trkpt>
      <trkpt lat="43.71192" lon="5.07025">
        <ele>120</ele>
        <time>2019-09-26T08:36:41Z</time>
      </trkpt>
      <trkpt lat="43.71192" lon="5.07023">
        <ele>120</ele>
        <time>2019-09-26T08:36:43Z</time>
      </trkpt>
      <trkpt lat="43.71192" lon="5.07022">
        <ele>121</ele>
        <time>2019-09-26T08:36:44Z</time>
      </trkpt>
      <trkpt lat="43.71193" lon="5.07017">
        <ele>121</ele>
        <time>2019-09-26T08:36:45Z</time>
      </trkpt>
      <trkpt lat="43.71194" lon="5.07014">
        <ele>121</ele>
        <time>2019-09-26T08:36:47Z</time>
      </trkpt>
      <trkpt lat="43.71194" lon="5.07012">
        <ele>121</ele>
        <time>2019-09-26T08:36:49Z</time>
      </trkpt>
      <trkpt lat="43.71195" lon="5.0701">
        <ele>121</ele>
        <time>2019-09-26T08:36:51Z</time>
      </trkpt>
      <trkpt lat="43.71196" lon="5.07008">
        <ele>121</ele>
        <time>2019-09-26T08:36:53Z</time>
      </trkpt>
      <trkpt lat="43.71196" lon="5.07006">
        <ele>121</ele>
        <time>2019-09-26T08:36:54Z</time>
      </trkpt>
      <trkpt lat="43.71197" lon="5.07002">
        <ele>121</ele>
        <time>2019-09-26T08:36:55Z</time>
      </trkpt>
      <trkpt lat="43.71198" lon="5.07">
        <ele>121</ele>
        <time>2019-09-26T08:36:57Z</time>
      </trkpt>
      <trkpt lat="43.71198" lon="5.06998">
        <ele>121</ele>
        <time>2019-09-26T08:36:59Z</time>
      </trkpt>
      <trkpt lat="43.71199" lon="5.06996">
        <ele>121</ele>
        <time>2019-09-26T08:37:01Z</time>
      </trkpt>
      <trkpt lat="43.71199" lon="5.06994">
        <ele>121</ele>
        <time>2019-09-26T08:37:03Z</time>
      </trkpt>
      <trkpt lat="43.712" lon="5.06992">
        <ele>121</ele>
        <time>2019-09-26T08:37:04Z</time>
      </trkpt>
      <trkpt lat="43.71201" lon="5.06988">
        <ele>121</ele>
        <time>2019-09-26T08:37:05Z</time>
      </trkpt>
      <trkpt lat="43.71201" lon="5.06986">
        <ele>121</ele>
        <time>2019-09-26T08:37:07Z</time>
      </trkpt>
      <trkpt lat="43.71202" lon="5.06984">
        <ele>121</ele>
        <time>2019-09-26T08:37:09Z</time>
      </trkpt>
      <trkpt lat="43.71202" lon="5.06982">
        <ele>121</ele>
        <time>2019-09-26T08:37:11Z</time>
      </trkpt>
      <trkpt lat="43.71202" lon="5.06979">
        <ele>121</ele>
        <time>2019-09-26T08:37:13Z</time>
      </trkpt>
      <trkpt lat="43.71203" lon="5.06977">
        <ele>120</ele>
        <time>2019-09-26T08:37:14Z</time>
      </trkpt>
      <trkpt lat="43.71203" lon="5.06974">
        <ele>120</ele>
        <time>2019-09-26T08:37:15Z</time>
      </trkpt>
      <trkpt lat="43.71202" lon="5.06972">
        <ele>120</ele>
        <time>2019-09-26T08:37:17Z</time>
      </trkpt>
      <trkpt lat="43.71202" lon="5.06971">
        <ele>120</ele>
        <time>2019-09-26T08:37:19Z</time>
      </trkpt>
      <trkpt lat="43.71202" lon="5.06969">
        <ele>120</ele>
        <time>2019-09-26T08:37:21Z</time>
      </trkpt>
      <trkpt lat="43.71201" lon="5.06967">
        <ele>120</ele>
        <time>2019-09-26T08:37:23Z</time>
      </trkpt>
      <trkpt lat="43.71201" lon="5.06965">
        <ele>121</ele>
        <time>2019-09-26T08:37:24Z</time>
      </trkpt>
      <trkpt lat="43.71201" lon="5.06962">
        <ele>121</ele>
        <time>2019-09-26T08:37:26Z</time>
      </trkpt>
      <trkpt lat="43.712" lon="5.06959">
        <ele>121</ele>
        <time>2019-09-26T08:37:28Z</time>
      </trkpt>
      <trkpt lat="43.712" lon="5.06956">
        <ele>121</ele>
        <time>2019-09-26T08:37:30Z</time>
      </trkpt>
      <trkpt lat="43.712" lon="5.06953">
        <ele>121</ele>
        <time>2019-09-26T08:37:32Z</time>
      </trkpt>
      <trkpt lat="43.71201" lon="5.0695">
        <ele>120</ele>
        <time>2019-09-26T08:37:34Z</time>
      </trkpt>
      <trkpt lat="43.71201" lon="5.06947">
        <ele>120</ele>
        <time>2019-09-26T08:37:36Z</time>
      </trkpt>
      <trkpt lat="43.71202" lon="5.06945">
        <ele>120</ele>
        <time>2019-09-26T08:37:38Z</time>
      </trkpt>
      <trkpt lat="43.71203" lon="5.06941">
        <ele>120</ele>
        <time>2019-09-26T08:37:40Z</time>
      </trkpt>
      <trkpt lat="43.71203" lon="5.06938">
        <ele>120</ele>
        <time>2019-09-26T08:37:42Z</time>
      </trkpt>
      <trkpt lat="43.71203" lon="5.06935">
        <ele>119</ele>
        <time>2019-09-26T08:37:44Z</time>
      </trkpt>
      <trkpt lat="43.71204" lon="5.06932">
        <ele>119</ele>
        <time>2019-09-26T08:37:46Z</time>
      </trkpt>
      <trkpt lat="43.71204" lon="5.06929">
        <ele>119</ele>
        <time>2019-09-26T08:37:48Z</time>
      </trkpt>
      <trkpt lat="43.71204" lon="5.06925">
        <ele>119</ele>
        <time>2019-09-26T08:37:50Z</time>
      </trkpt>
      <trkpt lat="43.71204" lon="5.06922">
        <ele>119</ele>
        <time>2019-09-26T08:37:52Z</time>
      </trkpt>
      <trkpt lat="43.71205" lon="5.06919">
        <ele>120</ele>
        <time>2019-09-26T08:37:54Z</time>
      </trkpt>
      <trkpt lat="43.71205" lon="5.06915">
        <ele>120</ele>
        <time>2019-09-26T08:37:56Z</time>
      </trkpt>
      <trkpt lat="43.71205" lon="5.06912">
        <ele>120</ele>
        <time>2019-09-26T08:37:58Z</time>
      </trkpt>
      <trkpt lat="43.71205" lon="5.06909">
        <ele>120</ele>
        <time>2019-09-26T08:38:00Z</time>
      </trkpt>
      <trkpt lat="43.71205" lon="5.06906">
        <ele>120</ele>
        <time>2019-09-26T08:38:02Z</time>
      </trkpt>
      <trkpt lat="43.71206" lon="5.06902">
        <ele>120</ele>
        <time>2019-09-26T08:38:04Z</time>
      </trkpt>
      <trkpt lat="43.71207" lon="5.06897">
        <ele>120</ele>
        <time>2019-09-26T08:38:06Z</time>
      </trkpt>
      <trkpt lat="43.71207" lon="5.06895">
        <ele>120</ele>
        <time>2019-09-26T08:38:08Z</time>
      </trkpt>
      <trkpt lat="43.71207" lon="5.06892">
        <ele>120</ele>
        <time>2019-09-26T08:38:10Z</time>
      </trkpt>
      <trkpt lat="43.71207" lon="5.0689">
        <ele>120</ele>
        <time>2019-09-26T08:38:13Z</time>
      </trkpt>
      <trkpt lat="43.71208" lon="5.06888">
        <ele>120</ele>
        <time>2019-09-26T08:38:14Z</time>
      </trkpt>
      <trkpt lat="43.71208" lon="5.06884">
        <ele>120</ele>
        <time>2019-09-26T08:38:15Z</time>
      </trkpt>
      <trkpt lat="43.71208" lon="5.06882">
        <ele>120</ele>
        <time>2019-09-26T08:38:17Z</time>
      </trkpt>
      <trkpt lat="43.71209" lon="5.06879">
        <ele>120</ele>
        <time>2019-09-26T08:38:19Z</time>
      </trkpt>
      <trkpt lat="43.71209" lon="5.06877">
        <ele>120</ele>
        <time>2019-09-26T08:38:21Z</time>
      </trkpt>
      <trkpt lat="43.71209" lon="5.06875">
        <ele>120</ele>
        <time>2019-09-26T08:38:23Z</time>
      </trkpt>
      <trkpt lat="43.71209" lon="5.06873">
        <ele>120</ele>
        <time>2019-09-26T08:38:24Z</time>
      </trkpt>
      <trkpt lat="43.7121" lon="5.06869">
        <ele>120</ele>
        <time>2019-09-26T08:38:25Z</time>
      </trkpt>
      <trkpt lat="43.7121" lon="5.06867">
        <ele>120</ele>
        <time>2019-09-26T08:38:27Z</time>
      </trkpt>
      <trkpt lat="43.7121" lon="5.06864">
        <ele>120</ele>
        <time>2019-09-26T08:38:29Z</time>
      </trkpt>
      <trkpt lat="43.7121" lon="5.06862">
        <ele>120</ele>
        <time>2019-09-26T08:38:31Z</time>
      </trkpt>
      <trkpt lat="43.7121" lon="5.0686">
        <ele>120</ele>
        <time>2019-09-26T08:38:33Z</time>
      </trkpt>
      <trkpt lat="43.71211" lon="5.06857">
        <ele>120</ele>
        <time>2019-09-26T08:38:34Z</time>
      </trkpt>
      <trkpt lat="43.71211" lon="5.06853">
        <ele>120</ele>
        <time>2019-09-26T08:38:35Z</time>
      </trkpt>
      <trkpt lat="43.71211" lon="5.06851">
        <ele>120</ele>
        <time>2019-09-26T08:38:37Z</time>
      </trkpt>
      <trkpt lat="43.71212" lon="5.06848">
        <ele>120</ele>
        <time>2019-09-26T08:38:39Z</time>
      </trkpt>
      <trkpt lat="43.71212" lon="5.06846">
        <ele>120</ele>
        <time>2019-09-26T08:38:41Z</time>
      </trkpt>
      <trkpt lat="43.71212" lon="5.06844">
        <ele>120</ele>
        <time>2019-09-26T08:38:43Z</time>
      </trkpt>
      <trkpt lat="43.71213" lon="5.06841">
        <ele>120</ele>
        <time>2019-09-26T08:38:44Z</time>
      </trkpt>
      <trkpt lat="43.71213" lon="5.06837">
        <ele>120</ele>
        <time>2019-09-26T08:38:45Z</time>
      </trkpt>
      <trkpt lat="43.71213" lon="5.06835">
        <ele>120</ele>
        <time>2019-09-26T08:38:47Z</time>
      </trkpt>
      <trkpt lat="43.71213" lon="5.06832">
        <ele>120</ele>
        <time>2019-09-26T08:38:49Z</time>
      </trkpt>
      <trkpt lat="43.71212" lon="5.0683">
        <ele>120</ele>
        <time>2019-09-26T08:38:51Z</time>
      </trkpt>
      <trkpt lat="43.71212" lon="5.06827">
        <ele>120</ele>
        <time>2019-09-26T08:38:53Z</time>
      </trkpt>
      <trkpt lat="43.71212" lon="5.06825">
        <ele>120</ele>
        <time>2019-09-26T08:38:54Z</time>
      </trkpt>
      <trkpt lat="43.71212" lon="5.0682">
        <ele>120</ele>
        <time>2019-09-26T08:38:55Z</time>
      </trkpt>
      <trkpt lat="43.71212" lon="5.06818">
        <ele>120</ele>
        <time>2019-09-26T08:38:57Z</time>
      </trkpt>
      <trkpt lat="43.71212" lon="5.06815">
        <ele>120</ele>
        <time>2019-09-26T08:38:59Z</time>
      </trkpt>
      <trkpt lat="43.71211" lon="5.06813">
        <ele>120</ele>
        <time>2019-09-26T08:39:01Z</time>
      </trkpt>
      <trkpt lat="43.71211" lon="5.0681">
        <ele>120</ele>
        <time>2019-09-26T08:39:03Z</time>
      </trkpt>
      <trkpt lat="43.71211" lon="5.06807">
        <ele>120</ele>
        <time>2019-09-26T08:39:04Z</time>
      </trkpt>
      <trkpt lat="43.71211" lon="5.06803">
        <ele>120</ele>
        <time>2019-09-26T08:39:05Z</time>
      </trkpt>
      <trkpt lat="43.71211" lon="5.06801">
        <ele>120</ele>
        <time>2019-09-26T08:39:07Z</time>
      </trkpt>
      <trkpt lat="43.71211" lon="5.06799">
        <ele>120</ele>
        <time>2019-09-26T08:39:09Z</time>
      </trkpt>
      <trkpt lat="43.71211" lon="5.06797">
        <ele>120</ele>
        <time>2019-09-26T08:39:11Z</time>
      </trkpt>
      <trkpt lat="43.71211" lon="5.06794">
        <ele>120</ele>
        <time>2019-09-26T08:39:13Z</time>
      </trkpt>
      <trkpt lat="43.71211" lon="5.06792">
        <ele>121</ele>
        <time>2019-09-26T08:39:14Z</time>
      </trkpt>
      <trkpt lat="43.71211" lon="5.06788">
        <ele>121</ele>
        <time>2019-09-26T08:39:15Z</time>
      </trkpt>
      <trkpt lat="43.71212" lon="5.06786">
        <ele>121</ele>
        <time>2019-09-26T08:39:17Z</time>
      </trkpt>
      <trkpt lat="43.71212" lon="5.06784">
        <ele>121</ele>
        <time>2019-09-26T08:39:19Z</time>
      </trkpt>
      <trkpt lat="43.71212" lon="5.06781">
        <ele>121</ele>
        <time>2019-09-26T08:39:21Z</time>
      </trkpt>
      <trkpt lat="43.71212" lon="5.06779">
        <ele>121</ele>
        <time>2019-09-26T08:39:23Z</time>
      </trkpt>
      <trkpt lat="43.71212" lon="5.06777">
        <ele>122</ele>
        <time>2019-09-26T08:39:24Z</time>
      </trkpt>
      <trkpt lat="43.71213" lon="5.06773">
        <ele>122</ele>
        <time>2019-09-26T08:39:25Z</time>
      </trkpt>
      <trkpt lat="43.71214" lon="5.06771">
        <ele>122</ele>
        <time>2019-09-26T08:39:27Z</time>
      </trkpt>
      <trkpt lat="43.71214" lon="5.06769">
        <ele>122</ele>
        <time>2019-09-26T08:39:29Z</time>
      </trkpt>
      <trkpt lat="43.71214" lon="5.06766">
        <ele>122</ele>
        <time>2019-09-26T08:39:31Z</time>
      </trkpt>
      <trkpt lat="43.71215" lon="5.06764">
        <ele>122</ele>
        <time>2019-09-26T08:39:33Z</time>
      </trkpt>
      <trkpt lat="43.71215" lon="5.06762">
        <ele>122</ele>
        <time>2019-09-26T08:39:34Z</time>
      </trkpt>
      <trkpt lat="43.71215" lon="5.06758">
        <ele>122</ele>
        <time>2019-09-26T08:39:35Z</time>
      </trkpt>
      <trkpt lat="43.71215" lon="5.06756">
        <ele>122</ele>
        <time>2019-09-26T08:39:37Z</time>
      </trkpt>
      <trkpt lat="43.71215" lon="5.06754">
        <ele>122</ele>
        <time>2019-09-26T08:39:39Z</time>
      </trkpt>
      <trkpt lat="43.71215" lon="5.06752">
        <ele>122</ele>
        <time>2019-09-26T08:39:41Z</time>
      </trkpt>
      <trkpt lat="43.71215" lon="5.0675">
        <ele>122</ele>
        <time>2019-09-26T08:39:43Z</time>
      </trkpt>
      <trkpt lat="43.71215" lon="5.06748">
        <ele>122</ele>
        <time>2019-09-26T08:39:44Z</time>
      </trkpt>
      <trkpt lat="43.71215" lon="5.06743">
        <ele>122</ele>
        <time>2019-09-26T08:39:47Z</time>
      </trkpt>
      <trkpt lat="43.71215" lon="5.06741">
        <ele>122</ele>
        <time>2019-09-26T08:39:49Z</time>
      </trkpt>
      <trkpt lat="43.71215" lon="5.06739">
        <ele>122</ele>
        <time>2019-09-26T08:39:51Z</time>
      </trkpt>
      <trkpt lat="43.71215" lon="5.06736">
        <ele>122</ele>
        <time>2019-09-26T08:39:53Z</time>
      </trkpt>
      <trkpt lat="43.71216" lon="5.06734">
        <ele>122</ele>
        <time>2019-09-26T08:39:54Z</time>
      </trkpt>
      <trkpt lat="43.71215" lon="5.0673">
        <ele>122</ele>
        <time>2019-09-26T08:39:55Z</time>
      </trkpt>
      <trkpt lat="43.71215" lon="5.06728">
        <ele>122</ele>
        <time>2019-09-26T08:39:57Z</time>
      </trkpt>
      <trkpt lat="43.71215" lon="5.06725">
        <ele>122</ele>
        <time>2019-09-26T08:39:59Z</time>
      </trkpt>
      <trkpt lat="43.71215" lon="5.06723">
        <ele>122</ele>
        <time>2019-09-26T08:40:01Z</time>
      </trkpt>
      <trkpt lat="43.71215" lon="5.06721">
        <ele>122</ele>
        <time>2019-09-26T08:40:03Z</time>
      </trkpt>
      <trkpt lat="43.71215" lon="5.06718">
        <ele>121</ele>
        <time>2019-09-26T08:40:04Z</time>
      </trkpt>
      <trkpt lat="43.71214" lon="5.06714">
        <ele>121</ele>
        <time>2019-09-26T08:40:05Z</time>
      </trkpt>
      <trkpt lat="43.71214" lon="5.06712">
        <ele>121</ele>
        <time>2019-09-26T08:40:07Z</time>
      </trkpt>
      <trkpt lat="43.71214" lon="5.0671">
        <ele>121</ele>
        <time>2019-09-26T08:40:09Z</time>
      </trkpt>
      <trkpt lat="43.71214" lon="5.06707">
        <ele>121</ele>
        <time>2019-09-26T08:40:11Z</time>
      </trkpt>
      <trkpt lat="43.71214" lon="5.06705">
        <ele>121</ele>
        <time>2019-09-26T08:40:13Z</time>
      </trkpt>
      <trkpt lat="43.71214" lon="5.06703">
        <ele>122</ele>
        <time>2019-09-26T08:40:14Z</time>
      </trkpt>
      <trkpt lat="43.71214" lon="5.06699">
        <ele>122</ele>
        <time>2019-09-26T08:40:15Z</time>
      </trkpt>
      <trkpt lat="43.71214" lon="5.06696">
        <ele>122</ele>
        <time>2019-09-26T08:40:17Z</time>
      </trkpt>
      <trkpt lat="43.71214" lon="5.06694">
        <ele>122</ele>
        <time>2019-09-26T08:40:19Z</time>
      </trkpt>
      <trkpt lat="43.71215" lon="5.06691">
        <ele>122</ele>
        <time>2019-09-26T08:40:21Z</time>
      </trkpt>
      <trkpt lat="43.71215" lon="5.06689">
        <ele>122</ele>
        <time>2019-09-26T08:40:23Z</time>
      </trkpt>
      <trkpt lat="43.71215" lon="5.06687">
        <ele>122</ele>
        <time>2019-09-26T08:40:24Z</time>
      </trkpt>
      <trkpt lat="43.71215" lon="5.06683">
        <ele>122</ele>
        <time>2019-09-26T08:40:25Z</time>
      </trkpt>
      <trkpt lat="43.71215" lon="5.06681">
        <ele>122</ele>
        <time>2019-09-26T08:40:27Z</time>
      </trkpt>
      <trkpt lat="43.71215" lon="5.06679">
        <ele>122</ele>
        <time>2019-09-26T08:40:29Z</time>
      </trkpt>
      <trkpt lat="43.71215" lon="5.06676">
        <ele>122</ele>
        <time>2019-09-26T08:40:31Z</time>
      </trkpt>
      <trkpt lat="43.71215" lon="5.06674">
        <ele>122</ele>
        <time>2019-09-26T08:40:33Z</time>
      </trkpt>
      <trkpt lat="43.71215" lon="5.06672">
        <ele>121</ele>
        <time>2019-09-26T08:40:34Z</time>
      </trkpt>
      <trkpt lat="43.71215" lon="5.06671">
        <ele>121</ele>
        <time>2019-09-26T08:40:35Z</time>
      </trkpt>
      <trkpt lat="43.71216" lon="5.06668">
        <ele>121</ele>
        <time>2019-09-26T08:40:37Z</time>
      </trkpt>
      <trkpt lat="43.71217" lon="5.06665">
        <ele>121</ele>
        <time>2019-09-26T08:40:40Z</time>
      </trkpt>
      <trkpt lat="43.71217" lon="5.06662">
        <ele>121</ele>
        <time>2019-09-26T08:40:42Z</time>
      </trkpt>
      <trkpt lat="43.71218" lon="5.06659">
        <ele>122</ele>
        <time>2019-09-26T08:40:44Z</time>
      </trkpt>
      <trkpt lat="43.71219" lon="5.06655">
        <ele>122</ele>
        <time>2019-09-26T08:40:46Z</time>
      </trkpt>
      <trkpt lat="43.7122" lon="5.06653">
        <ele>122</ele>
        <time>2019-09-26T08:40:48Z</time>
      </trkpt>
      <trkpt lat="43.71221" lon="5.0665">
        <ele>122</ele>
        <time>2019-09-26T08:40:50Z</time>
      </trkpt>
      <trkpt lat="43.71222" lon="5.06648">
        <ele>122</ele>
        <time>2019-09-26T08:40:52Z</time>
      </trkpt>
      <trkpt lat="43.71222" lon="5.06645">
        <ele>122</ele>
        <time>2019-09-26T08:40:54Z</time>
      </trkpt>
      <trkpt lat="43.71223" lon="5.06643">
        <ele>122</ele>
        <time>2019-09-26T08:40:56Z</time>
      </trkpt>
      <trkpt lat="43.71223" lon="5.0664">
        <ele>122</ele>
        <time>2019-09-26T08:40:58Z</time>
      </trkpt>
      <trkpt lat="43.71223" lon="5.06637">
        <ele>122</ele>
        <time>2019-09-26T08:41:00Z</time>
      </trkpt>
      <trkpt lat="43.71223" lon="5.06635">
        <ele>122</ele>
        <time>2019-09-26T08:41:02Z</time>
      </trkpt>
      <trkpt lat="43.71223" lon="5.06631">
        <ele>122</ele>
        <time>2019-09-26T08:41:04Z</time>
      </trkpt>
      <trkpt lat="43.71223" lon="5.06628">
        <ele>122</ele>
        <time>2019-09-26T08:41:06Z</time>
      </trkpt>
      <trkpt lat="43.71223" lon="5.06625">
        <ele>122</ele>
        <time>2019-09-26T08:41:08Z</time>
      </trkpt>
      <trkpt lat="43.71224" lon="5.06622">
        <ele>122</ele>
        <time>2019-09-26T08:41:10Z</time>
      </trkpt>
      <trkpt lat="43.71225" lon="5.06619">
        <ele>122</ele>
        <time>2019-09-26T08:41:12Z</time>
      </trkpt>
      <trkpt lat="43.71225" lon="5.06615">
        <ele>122</ele>
        <time>2019-09-26T08:41:14Z</time>
      </trkpt>
      <trkpt lat="43.71225" lon="5.06613">
        <ele>122</ele>
        <time>2019-09-26T08:41:16Z</time>
      </trkpt>
      <trkpt lat="43.71225" lon="5.06611">
        <ele>122</ele>
        <time>2019-09-26T08:41:18Z</time>
      </trkpt>
      <trkpt lat="43.71226" lon="5.06607">
        <ele>122</ele>
        <time>2019-09-26T08:41:20Z</time>
      </trkpt>
      <trkpt lat="43.71227" lon="5.06604">
        <ele>122</ele>
        <time>2019-09-26T08:41:22Z</time>
      </trkpt>
      <trkpt lat="43.71227" lon="5.066">
        <ele>123</ele>
        <time>2019-09-26T08:41:24Z</time>
      </trkpt>
      <trkpt lat="43.71227" lon="5.06598">
        <ele>123</ele>
        <time>2019-09-26T08:41:26Z</time>
      </trkpt>
      <trkpt lat="43.71228" lon="5.06594">
        <ele>123</ele>
        <time>2019-09-26T08:41:28Z</time>
      </trkpt>
      <trkpt lat="43.7123" lon="5.06591">
        <ele>123</ele>
        <time>2019-09-26T08:41:30Z</time>
      </trkpt>
      <trkpt lat="43.7123" lon="5.06588">
        <ele>123</ele>
        <time>2019-09-26T08:41:32Z</time>
      </trkpt>
      <trkpt lat="43.71231" lon="5.06585">
        <ele>123</ele>
        <time>2019-09-26T08:41:34Z</time>
      </trkpt>
      <trkpt lat="43.71231" lon="5.06581">
        <ele>123</ele>
        <time>2019-09-26T08:41:36Z</time>
      </trkpt>
      <trkpt lat="43.71232" lon="5.06578">
        <ele>123</ele>
        <time>2019-09-26T08:41:38Z</time>
      </trkpt>
      <trkpt lat="43.71233" lon="5.06575">
        <ele>123</ele>
        <time>2019-09-26T08:41:40Z</time>
      </trkpt>
      <trkpt lat="43.71234" lon="5.06572">
        <ele>123</ele>
        <time>2019-09-26T08:41:42Z</time>
      </trkpt>
      <trkpt lat="43.71236" lon="5.06569">
        <ele>123</ele>
        <time>2019-09-26T08:41:44Z</time>
      </trkpt>
      <trkpt lat="43.71237" lon="5.06566">
        <ele>123</ele>
        <time>2019-09-26T08:41:46Z</time>
      </trkpt>
      <trkpt lat="43.71238" lon="5.06563">
        <ele>123</ele>
        <time>2019-09-26T08:41:48Z</time>
      </trkpt>
      <trkpt lat="43.71239" lon="5.0656">
        <ele>123</ele>
        <time>2019-09-26T08:41:50Z</time>
      </trkpt>
      <trkpt lat="43.7124" lon="5.06558">
        <ele>123</ele>
        <time>2019-09-26T08:41:52Z</time>
      </trkpt>
      <trkpt lat="43.7124" lon="5.06555">
        <ele>123</ele>
        <time>2019-09-26T08:41:54Z</time>
      </trkpt>
      <trkpt lat="43.71241" lon="5.06552">
        <ele>123</ele>
        <time>2019-09-26T08:41:56Z</time>
      </trkpt>
      <trkpt lat="43.71242" lon="5.06549">
        <ele>123</ele>
        <time>2019-09-26T08:41:58Z</time>
      </trkpt>
      <trkpt lat="43.71243" lon="5.06545">
        <ele>123</ele>
        <time>2019-09-26T08:42:00Z</time>
      </trkpt>
      <trkpt lat="43.71244" lon="5.06542">
        <ele>123</ele>
        <time>2019-09-26T08:42:02Z</time>
      </trkpt>
      <trkpt lat="43.71244" lon="5.0654">
        <ele>123</ele>
        <time>2019-09-26T08:42:04Z</time>
      </trkpt>
      <trkpt lat="43.71245" lon="5.06537">
        <ele>123</ele>
        <time>2019-09-26T08:42:06Z</time>
      </trkpt>
      <trkpt lat="43.71245" lon="5.06534">
        <ele>123</ele>
        <time>2019-09-26T08:42:08Z</time>
      </trkpt>
      <trkpt lat="43.71246" lon="5.06531">
        <ele>123</ele>
        <time>2019-09-26T08:42:10Z</time>
      </trkpt>
      <trkpt lat="43.71246" lon="5.06528">
        <ele>123</ele>
        <time>2019-09-26T08:42:12Z</time>
      </trkpt>
      <trkpt lat="43.71245" lon="5.06525">
        <ele>124</ele>
        <time>2019-09-26T08:42:14Z</time>
      </trkpt>
      <trkpt lat="43.71245" lon="5.06522">
        <ele>124</ele>
        <time>2019-09-26T08:42:16Z</time>
      </trkpt>
      <trkpt lat="43.71245" lon="5.06519">
        <ele>124</ele>
        <time>2019-09-26T08:42:18Z</time>
      </trkpt>
      <trkpt lat="43.71246" lon="5.06516">
        <ele>124</ele>
        <time>2019-09-26T08:42:20Z</time>
      </trkpt>
      <trkpt lat="43.71247" lon="5.06513">
        <ele>124</ele>
        <time>2019-09-26T08:42:22Z</time>
      </trkpt>
      <trkpt lat="43.71248" lon="5.06511">
        <ele>124</ele>
        <time>2019-09-26T08:42:24Z</time>
      </trkpt>
      <trkpt lat="43.71248" lon="5.06508">
        <ele>124</ele>
        <time>2019-09-26T08:42:26Z</time>
      </trkpt>
      <trkpt lat="43.71249" lon="5.06505">
        <ele>124</ele>
        <time>2019-09-26T08:42:28Z</time>
      </trkpt>
      <trkpt lat="43.7125" lon="5.06502">
        <ele>124</ele>
        <time>2019-09-26T08:42:30Z</time>
      </trkpt>
      <trkpt lat="43.71251" lon="5.06499">
        <ele>124</ele>
        <time>2019-09-26T08:42:32Z</time>
      </trkpt>
      <trkpt lat="43.71252" lon="5.06496">
        <ele>124</ele>
        <time>2019-09-26T08:42:34Z</time>
      </trkpt>
      <trkpt lat="43.71253" lon="5.06494">
        <ele>124</ele>
        <time>2019-09-26T08:42:36Z</time>
      </trkpt>
      <trkpt lat="43.71254" lon="5.06491">
        <ele>124</ele>
        <time>2019-09-26T08:42:38Z</time>
      </trkpt>
      <trkpt lat="43.71254" lon="5.06488">
        <ele>124</ele>
        <time>2019-09-26T08:42:40Z</time>
      </trkpt>
      <trkpt lat="43.71254" lon="5.06484">
        <ele>124</ele>
        <time>2019-09-26T08:42:42Z</time>
      </trkpt>
      <trkpt lat="43.71255" lon="5.06481">
        <ele>125</ele>
        <time>2019-09-26T08:42:44Z</time>
      </trkpt>
      <trkpt lat="43.71255" lon="5.06478">
        <ele>125</ele>
        <time>2019-09-26T08:42:46Z</time>
      </trkpt>
      <trkpt lat="43.71255" lon="5.06475">
        <ele>125</ele>
        <time>2019-09-26T08:42:48Z</time>
      </trkpt>
      <trkpt lat="43.71254" lon="5.06472">
        <ele>125</ele>
        <time>2019-09-26T08:42:50Z</time>
      </trkpt>
      <trkpt lat="43.71254" lon="5.06469">
        <ele>125</ele>
        <time>2019-09-26T08:42:52Z</time>
      </trkpt>
      <trkpt lat="43.71254" lon="5.06467">
        <ele>125</ele>
        <time>2019-09-26T08:42:54Z</time>
      </trkpt>
      <trkpt lat="43.71254" lon="5.06463">
        <ele>125</ele>
        <time>2019-09-26T08:42:57Z</time>
      </trkpt>
      <trkpt lat="43.71255" lon="5.0646">
        <ele>125</ele>
        <time>2019-09-26T08:42:59Z</time>
      </trkpt>
      <trkpt lat="43.71255" lon="5.06458">
        <ele>125</ele>
        <time>2019-09-26T08:43:01Z</time>
      </trkpt>
      <trkpt lat="43.71256" lon="5.06454">
        <ele>125</ele>
        <time>2019-09-26T08:43:04Z</time>
      </trkpt>
      <trkpt lat="43.71257" lon="5.0645">
        <ele>125</ele>
        <time>2019-09-26T08:43:06Z</time>
      </trkpt>
      <trkpt lat="43.71257" lon="5.06448">
        <ele>125</ele>
        <time>2019-09-26T08:43:08Z</time>
      </trkpt>
      <trkpt lat="43.71257" lon="5.06446">
        <ele>125</ele>
        <time>2019-09-26T08:43:11Z</time>
      </trkpt>
      <trkpt lat="43.71257" lon="5.06444">
        <ele>125</ele>
        <time>2019-09-26T08:43:13Z</time>
      </trkpt>
      <trkpt lat="43.71257" lon="5.06442">
        <ele>125</ele>
        <time>2019-09-26T08:43:14Z</time>
      </trkpt>
      <trkpt lat="43.71257" lon="5.06439">
        <ele>125</ele>
        <time>2019-09-26T08:43:16Z</time>
      </trkpt>
      <trkpt lat="43.71256" lon="5.06435">
        <ele>125</ele>
        <time>2019-09-26T08:43:19Z</time>
      </trkpt>
      <trkpt lat="43.71256" lon="5.06432">
        <ele>125</ele>
        <time>2019-09-26T08:43:22Z</time>
      </trkpt>
      <trkpt lat="43.71256" lon="5.06432">
        <ele>126</ele>
        <time>2019-09-26T08:43:24Z</time>
      </trkpt>
      <trkpt lat="43.71256" lon="5.06426">
        <ele>126</ele>
        <time>2019-09-26T08:43:25Z</time>
      </trkpt>
      <trkpt lat="43.71256" lon="5.06424">
        <ele>126</ele>
        <time>2019-09-26T08:43:27Z</time>
      </trkpt>
      <trkpt lat="43.71256" lon="5.06422">
        <ele>126</ele>
        <time>2019-09-26T08:43:29Z</time>
      </trkpt>
      <trkpt lat="43.71256" lon="5.06419">
        <ele>126</ele>
        <time>2019-09-26T08:43:31Z</time>
      </trkpt>
      <trkpt lat="43.71256" lon="5.06417">
        <ele>126</ele>
        <time>2019-09-26T08:43:33Z</time>
      </trkpt>
      <trkpt lat="43.71256" lon="5.06415">
        <ele>126</ele>
        <time>2019-09-26T08:43:34Z</time>
      </trkpt>
      <trkpt lat="43.71257" lon="5.06411">
        <ele>126</ele>
        <time>2019-09-26T08:43:35Z</time>
      </trkpt>
      <trkpt lat="43.71257" lon="5.06409">
        <ele>126</ele>
        <time>2019-09-26T08:43:37Z</time>
      </trkpt>
      <trkpt lat="43.71257" lon="5.06407">
        <ele>126</ele>
        <time>2019-09-26T08:43:39Z</time>
      </trkpt>
      <trkpt lat="43.71257" lon="5.06404">
        <ele>126</ele>
        <time>2019-09-26T08:43:41Z</time>
      </trkpt>
      <trkpt lat="43.71257" lon="5.06402">
        <ele>126</ele>
        <time>2019-09-26T08:43:43Z</time>
      </trkpt>
      <trkpt lat="43.71258" lon="5.064">
        <ele>127</ele>
        <time>2019-09-26T08:43:44Z</time>
      </trkpt>
      <trkpt lat="43.71258" lon="5.06396">
        <ele>127</ele>
        <time>2019-09-26T08:43:45Z</time>
      </trkpt>
      <trkpt lat="43.71258" lon="5.06394">
        <ele>127</ele>
        <time>2019-09-26T08:43:47Z</time>
      </trkpt>
      <trkpt lat="43.71258" lon="5.06392">
        <ele>127</ele>
        <time>2019-09-26T08:43:49Z</time>
      </trkpt>
      <trkpt lat="43.71258" lon="5.06389">
        <ele>127</ele>
        <time>2019-09-26T08:43:51Z</time>
      </trkpt>
      <trkpt lat="43.71258" lon="5.06387">
        <ele>127</ele>
        <time>2019-09-26T08:43:53Z</time>
      </trkpt>
      <trkpt lat="43.71259" lon="5.06385">
        <ele>127</ele>
        <time>2019-09-26T08:43:54Z</time>
      </trkpt>
      <trkpt lat="43.71258" lon="5.06383">
        <ele>127</ele>
        <time>2019-09-26T08:43:55Z</time>
      </trkpt>
      <trkpt lat="43.71258" lon="5.06381">
        <ele>127</ele>
        <time>2019-09-26T08:43:57Z</time>
      </trkpt>
      <trkpt lat="43.71258" lon="5.06377">
        <ele>127</ele>
        <time>2019-09-26T08:44:00Z</time>
      </trkpt>
      <trkpt lat="43.71258" lon="5.06374">
        <ele>127</ele>
        <time>2019-09-26T08:44:02Z</time>
      </trkpt>
      <trkpt lat="43.71258" lon="5.06371">
        <ele>127</ele>
        <time>2019-09-26T08:44:04Z</time>
      </trkpt>
      <trkpt lat="43.71258" lon="5.06368">
        <ele>127</ele>
        <time>2019-09-26T08:44:06Z</time>
      </trkpt>
      <trkpt lat="43.71258" lon="5.06365">
        <ele>127</ele>
        <time>2019-09-26T08:44:08Z</time>
      </trkpt>
      <trkpt lat="43.71258" lon="5.06362">
        <ele>127</ele>
        <time>2019-09-26T08:44:10Z</time>
      </trkpt>
      <trkpt lat="43.71259" lon="5.06359">
        <ele>127</ele>
        <time>2019-09-26T08:44:12Z</time>
      </trkpt>
      <trkpt lat="43.7126" lon="5.06356">
        <ele>128</ele>
        <time>2019-09-26T08:44:14Z</time>
      </trkpt>
      <trkpt lat="43.7126" lon="5.06354">
        <ele>128</ele>
        <time>2019-09-26T08:44:16Z</time>
      </trkpt>
      <trkpt lat="43.7126" lon="5.06351">
        <ele>128</ele>
        <time>2019-09-26T08:44:18Z</time>
      </trkpt>
      <trkpt lat="43.71261" lon="5.06348">
        <ele>128</ele>
        <time>2019-09-26T08:44:20Z</time>
      </trkpt>
      <trkpt lat="43.71261" lon="5.06346">
        <ele>128</ele>
        <time>2019-09-26T08:44:22Z</time>
      </trkpt>
      <trkpt lat="43.71261" lon="5.06343">
        <ele>128</ele>
        <time>2019-09-26T08:44:24Z</time>
      </trkpt>
      <trkpt lat="43.71262" lon="5.0634">
        <ele>128</ele>
        <time>2019-09-26T08:44:26Z</time>
      </trkpt>
      <trkpt lat="43.71262" lon="5.06337">
        <ele>128</ele>
        <time>2019-09-26T08:44:28Z</time>
      </trkpt>
      <trkpt lat="43.71262" lon="5.06334">
        <ele>128</ele>
        <time>2019-09-26T08:44:30Z</time>
      </trkpt>
      <trkpt lat="43.71262" lon="5.06331">
        <ele>128</ele>
        <time>2019-09-26T08:44:32Z</time>
      </trkpt>
      <trkpt lat="43.71261" lon="5.06328">
        <ele>128</ele>
        <time>2019-09-26T08:44:34Z</time>
      </trkpt>
      <trkpt lat="43.71261" lon="5.06324">
        <ele>128</ele>
        <time>2019-09-26T08:44:36Z</time>
      </trkpt>
      <trkpt lat="43.71261" lon="5.06322">
        <ele>128</ele>
        <time>2019-09-26T08:44:38Z</time>
      </trkpt>
      <trkpt lat="43.71262" lon="5.06318">
        <ele>128</ele>
        <time>2019-09-26T08:44:40Z</time>
      </trkpt>
      <trkpt lat="43.71262" lon="5.06315">
        <ele>128</ele>
        <time>2019-09-26T08:44:42Z</time>
      </trkpt>
      <trkpt lat="43.71262" lon="5.06312">
        <ele>129</ele>
        <time>2019-09-26T08:44:44Z</time>
      </trkpt>
      <trkpt lat="43.71263" lon="5.06308">
        <ele>129</ele>
        <time>2019-09-26T08:44:46Z</time>
      </trkpt>
      <trkpt lat="43.71264" lon="5.06305">
        <ele>129</ele>
        <time>2019-09-26T08:44:48Z</time>
      </trkpt>
      <trkpt lat="43.71264" lon="5.06301">
        <ele>129</ele>
        <time>2019-09-26T08:44:50Z</time>
      </trkpt>
      <trkpt lat="43.71265" lon="5.06299">
        <ele>129</ele>
        <time>2019-09-26T08:44:52Z</time>
      </trkpt>
      <trkpt lat="43.71266" lon="5.06296">
        <ele>129</ele>
        <time>2019-09-26T08:44:54Z</time>
      </trkpt>
      <trkpt lat="43.71267" lon="5.06292">
        <ele>129</ele>
        <time>2019-09-26T08:44:56Z</time>
      </trkpt>
      <trkpt lat="43.71267" lon="5.06289">
        <ele>129</ele>
        <time>2019-09-26T08:44:58Z</time>
      </trkpt>
      <trkpt lat="43.71267" lon="5.06286">
        <ele>129</ele>
        <time>2019-09-26T08:45:00Z</time>
      </trkpt>
      <trkpt lat="43.71268" lon="5.06283">
        <ele>129</ele>
        <time>2019-09-26T08:45:02Z</time>
      </trkpt>
      <trkpt lat="43.71268" lon="5.0628">
        <ele>129</ele>
        <time>2019-09-26T08:45:04Z</time>
      </trkpt>
      <trkpt lat="43.71269" lon="5.06274">
        <ele>129</ele>
        <time>2019-09-26T08:45:07Z</time>
      </trkpt>
      <trkpt lat="43.71269" lon="5.06272">
        <ele>129</ele>
        <time>2019-09-26T08:45:09Z</time>
      </trkpt>
      <trkpt lat="43.71269" lon="5.0627">
        <ele>129</ele>
        <time>2019-09-26T08:45:11Z</time>
      </trkpt>
      <trkpt lat="43.71269" lon="5.06267">
        <ele>129</ele>
        <time>2019-09-26T08:45:13Z</time>
      </trkpt>
      <trkpt lat="43.71269" lon="5.06265">
        <ele>129</ele>
        <time>2019-09-26T08:45:14Z</time>
      </trkpt>
      <trkpt lat="43.71269" lon="5.06262">
        <ele>129</ele>
        <time>2019-09-26T08:45:15Z</time>
      </trkpt>
      <trkpt lat="43.7127" lon="5.0626">
        <ele>129</ele>
        <time>2019-09-26T08:45:17Z</time>
      </trkpt>
      <trkpt lat="43.7127" lon="5.06258">
        <ele>129</ele>
        <time>2019-09-26T08:45:19Z</time>
      </trkpt>
      <trkpt lat="43.7127" lon="5.06257">
        <ele>129</ele>
        <time>2019-09-26T08:45:21Z</time>
      </trkpt>
      <trkpt lat="43.71271" lon="5.06255">
        <ele>129</ele>
        <time>2019-09-26T08:45:23Z</time>
      </trkpt>
      <trkpt lat="43.71271" lon="5.06253">
        <ele>129</ele>
        <time>2019-09-26T08:45:24Z</time>
      </trkpt>
      <trkpt lat="43.71273" lon="5.06249">
        <ele>129</ele>
        <time>2019-09-26T08:45:25Z</time>
      </trkpt>
      <trkpt lat="43.71273" lon="5.06247">
        <ele>129</ele>
        <time>2019-09-26T08:45:27Z</time>
      </trkpt>
      <trkpt lat="43.71274" lon="5.06245">
        <ele>129</ele>
        <time>2019-09-26T08:45:29Z</time>
      </trkpt>
      <trkpt lat="43.71274" lon="5.06243">
        <ele>129</ele>
        <time>2019-09-26T08:45:31Z</time>
      </trkpt>
      <trkpt lat="43.71275" lon="5.06241">
        <ele>129</ele>
        <time>2019-09-26T08:45:33Z</time>
      </trkpt>
      <trkpt lat="43.71275" lon="5.06239">
        <ele>129</ele>
        <time>2019-09-26T08:45:34Z</time>
      </trkpt>
      <trkpt lat="43.71276" lon="5.06235">
        <ele>129</ele>
        <time>2019-09-26T08:45:35Z</time>
      </trkpt>
      <trkpt lat="43.71277" lon="5.06234">
        <ele>129</ele>
        <time>2019-09-26T08:45:37Z</time>
      </trkpt>
      <trkpt lat="43.71278" lon="5.06232">
        <ele>129</ele>
        <time>2019-09-26T08:45:39Z</time>
      </trkpt>
      <trkpt lat="43.71279" lon="5.0623">
        <ele>129</ele>
        <time>2019-09-26T08:45:41Z</time>
      </trkpt>
      <trkpt lat="43.71281" lon="5.06229">
        <ele>129</ele>
        <time>2019-09-26T08:45:43Z</time>
      </trkpt>
      <trkpt lat="43.71282" lon="5.06227">
        <ele>128</ele>
        <time>2019-09-26T08:45:44Z</time>
      </trkpt>
      <trkpt lat="43.71283" lon="5.06224">
        <ele>128</ele>
        <time>2019-09-26T08:45:45Z</time>
      </trkpt>
      <trkpt lat="43.71284" lon="5.06223">
        <ele>128</ele>
        <time>2019-09-26T08:45:47Z</time>
      </trkpt>
      <trkpt lat="43.71285" lon="5.06221">
        <ele>128</ele>
        <time>2019-09-26T08:45:49Z</time>
      </trkpt>
      <trkpt lat="43.71286" lon="5.06219">
        <ele>128</ele>
        <time>2019-09-26T08:45:51Z</time>
      </trkpt>
      <trkpt lat="43.71288" lon="5.06218">
        <ele>128</ele>
        <time>2019-09-26T08:45:53Z</time>
      </trkpt>
      <trkpt lat="43.71289" lon="5.06216">
        <ele>128</ele>
        <time>2019-09-26T08:45:54Z</time>
      </trkpt>
      <trkpt lat="43.7129" lon="5.06213">
        <ele>128</ele>
        <time>2019-09-26T08:45:55Z</time>
      </trkpt>
      <trkpt lat="43.7129" lon="5.06211">
        <ele>128</ele>
        <time>2019-09-26T08:45:57Z</time>
      </trkpt>
      <trkpt lat="43.71291" lon="5.06209">
        <ele>128</ele>
        <time>2019-09-26T08:45:59Z</time>
      </trkpt>
      <trkpt lat="43.71291" lon="5.06207">
        <ele>128</ele>
        <time>2019-09-26T08:46:01Z</time>
      </trkpt>
      <trkpt lat="43.71292" lon="5.06206">
        <ele>128</ele>
        <time>2019-09-26T08:46:03Z</time>
      </trkpt>
      <trkpt lat="43.71292" lon="5.06204">
        <ele>128</ele>
        <time>2019-09-26T08:46:04Z</time>
      </trkpt>
      <trkpt lat="43.71293" lon="5.062">
        <ele>128</ele>
        <time>2019-09-26T08:46:06Z</time>
      </trkpt>
      <trkpt lat="43.71294" lon="5.06198">
        <ele>128</ele>
        <time>2019-09-26T08:46:08Z</time>
      </trkpt>
      <trkpt lat="43.71296" lon="5.06195">
        <ele>128</ele>
        <time>2019-09-26T08:46:10Z</time>
      </trkpt>
      <trkpt lat="43.71297" lon="5.06193">
        <ele>128</ele>
        <time>2019-09-26T08:46:12Z</time>
      </trkpt>
      <trkpt lat="43.71298" lon="5.0619">
        <ele>128</ele>
        <time>2019-09-26T08:46:14Z</time>
      </trkpt>
      <trkpt lat="43.713" lon="5.06187">
        <ele>128</ele>
        <time>2019-09-26T08:46:16Z</time>
      </trkpt>
      <trkpt lat="43.71301" lon="5.06184">
        <ele>128</ele>
        <time>2019-09-26T08:46:18Z</time>
      </trkpt>
      <trkpt lat="43.71302" lon="5.06181">
        <ele>128</ele>
        <time>2019-09-26T08:46:20Z</time>
      </trkpt>
      <trkpt lat="43.71303" lon="5.06179">
        <ele>128</ele>
        <time>2019-09-26T08:46:22Z</time>
      </trkpt>
      <trkpt lat="43.71304" lon="5.06176">
        <ele>127</ele>
        <time>2019-09-26T08:46:24Z</time>
      </trkpt>
      <trkpt lat="43.71306" lon="5.06174">
        <ele>127</ele>
        <time>2019-09-26T08:46:26Z</time>
      </trkpt>
      <trkpt lat="43.71307" lon="5.06171">
        <ele>127</ele>
        <time>2019-09-26T08:46:28Z</time>
      </trkpt>
      <trkpt lat="43.71308" lon="5.06169">
        <ele>127</ele>
        <time>2019-09-26T08:46:30Z</time>
      </trkpt>
      <trkpt lat="43.71309" lon="5.06166">
        <ele>127</ele>
        <time>2019-09-26T08:46:32Z</time>
      </trkpt>
      <trkpt lat="43.7131" lon="5.06163">
        <ele>127</ele>
        <time>2019-09-26T08:46:34Z</time>
      </trkpt>
      <trkpt lat="43.71312" lon="5.06161">
        <ele>127</ele>
        <time>2019-09-26T08:46:36Z</time>
      </trkpt>
      <trkpt lat="43.71313" lon="5.06158">
        <ele>127</ele>
        <time>2019-09-26T08:46:38Z</time>
      </trkpt>
      <trkpt lat="43.71315" lon="5.06156">
        <ele>127</ele>
        <time>2019-09-26T08:46:40Z</time>
      </trkpt>
      <trkpt lat="43.71316" lon="5.06153">
        <ele>127</ele>
        <time>2019-09-26T08:46:42Z</time>
      </trkpt>
      <trkpt lat="43.71318" lon="5.06151">
        <ele>127</ele>
        <time>2019-09-26T08:46:44Z</time>
      </trkpt>
      <trkpt lat="43.71319" lon="5.06148">
        <ele>127</ele>
        <time>2019-09-26T08:46:46Z</time>
      </trkpt>
      <trkpt lat="43.7132" lon="5.06145">
        <ele>127</ele>
        <time>2019-09-26T08:46:48Z</time>
      </trkpt>
      <trkpt lat="43.7132" lon="5.06142">
        <ele>127</ele>
        <time>2019-09-26T08:46:50Z</time>
      </trkpt>
      <trkpt lat="43.71321" lon="5.06139">
        <ele>127</ele>
        <time>2019-09-26T08:46:52Z</time>
      </trkpt>
      <trkpt lat="43.71321" lon="5.06136">
        <ele>127</ele>
        <time>2019-09-26T08:46:54Z</time>
      </trkpt>
      <trkpt lat="43.71322" lon="5.06133">
        <ele>127</ele>
        <time>2019-09-26T08:46:56Z</time>
      </trkpt>
      <trkpt lat="43.71323" lon="5.0613">
        <ele>127</ele>
        <time>2019-09-26T08:46:58Z</time>
      </trkpt>
      <trkpt lat="43.71324" lon="5.06128">
        <ele>127</ele>
        <time>2019-09-26T08:47:00Z</time>
      </trkpt>
      <trkpt lat="43.71325" lon="5.06125">
        <ele>127</ele>
        <time>2019-09-26T08:47:02Z</time>
      </trkpt>
      <trkpt lat="43.71326" lon="5.06122">
        <ele>127</ele>
        <time>2019-09-26T08:47:04Z</time>
      </trkpt>
      <trkpt lat="43.71328" lon="5.0612">
        <ele>127</ele>
        <time>2019-09-26T08:47:06Z</time>
      </trkpt>
      <trkpt lat="43.7133" lon="5.06118">
        <ele>127</ele>
        <time>2019-09-26T08:47:08Z</time>
      </trkpt>
      <trkpt lat="43.71332" lon="5.06116">
        <ele>127</ele>
        <time>2019-09-26T08:47:10Z</time>
      </trkpt>
      <trkpt lat="43.71333" lon="5.06114">
        <ele>127</ele>
        <time>2019-09-26T08:47:12Z</time>
      </trkpt>
      <trkpt lat="43.71335" lon="5.06112">
        <ele>127</ele>
        <time>2019-09-26T08:47:14Z</time>
      </trkpt>
      <trkpt lat="43.71336" lon="5.0611">
        <ele>127</ele>
        <time>2019-09-26T08:47:16Z</time>
      </trkpt>
      <trkpt lat="43.71337" lon="5.06107">
        <ele>127</ele>
        <time>2019-09-26T08:47:18Z</time>
      </trkpt>
      <trkpt lat="43.71339" lon="5.06105">
        <ele>127</ele>
        <time>2019-09-26T08:47:20Z</time>
      </trkpt>
      <trkpt lat="43.71341" lon="5.06103">
        <ele>127</ele>
        <time>2019-09-26T08:47:22Z</time>
      </trkpt>
      <trkpt lat="43.71343" lon="5.06101">
        <ele>127</ele>
        <time>2019-09-26T08:47:24Z</time>
      </trkpt>
      <trkpt lat="43.71344" lon="5.06099">
        <ele>127</ele>
        <time>2019-09-26T08:47:26Z</time>
      </trkpt>
      <trkpt lat="43.71346" lon="5.06097">
        <ele>127</ele>
        <time>2019-09-26T08:47:28Z</time>
      </trkpt>
      <trkpt lat="43.71348" lon="5.06094">
        <ele>127</ele>
        <time>2019-09-26T08:47:30Z</time>
      </trkpt>
      <trkpt lat="43.7135" lon="5.06091">
        <ele>127</ele>
        <time>2019-09-26T08:47:32Z</time>
      </trkpt>
      <trkpt lat="43.7135" lon="5.06091">
        <ele>127</ele>
        <time>2019-09-26T08:47:34Z</time>
      </trkpt>
      <trkpt lat="43.71351" lon="5.06088">
        <ele>127</ele>
        <time>2019-09-26T08:47:35Z</time>
      </trkpt>
      <trkpt lat="43.71353" lon="5.06086">
        <ele>127</ele>
        <time>2019-09-26T08:47:37Z</time>
      </trkpt>
      <trkpt lat="43.71354" lon="5.06084">
        <ele>127</ele>
        <time>2019-09-26T08:47:39Z</time>
      </trkpt>
      <trkpt lat="43.71356" lon="5.06082">
        <ele>127</ele>
        <time>2019-09-26T08:47:42Z</time>
      </trkpt>
      <trkpt lat="43.71358" lon="5.0608">
        <ele>126</ele>
        <time>2019-09-26T08:47:44Z</time>
      </trkpt>
      <trkpt lat="43.71359" lon="5.06077">
        <ele>126</ele>
        <time>2019-09-26T08:47:46Z</time>
      </trkpt>
      <trkpt lat="43.7136" lon="5.06075">
        <ele>126</ele>
        <time>2019-09-26T08:47:48Z</time>
      </trkpt>
      <trkpt lat="43.71361" lon="5.06072">
        <ele>126</ele>
        <time>2019-09-26T08:47:50Z</time>
      </trkpt>
      <trkpt lat="43.71362" lon="5.0607">
        <ele>126</ele>
        <time>2019-09-26T08:47:52Z</time>
      </trkpt>
      <trkpt lat="43.71364" lon="5.06067">
        <ele>126</ele>
        <time>2019-09-26T08:47:54Z</time>
      </trkpt>
      <trkpt lat="43.71365" lon="5.06064">
        <ele>126</ele>
        <time>2019-09-26T08:47:56Z</time>
      </trkpt>
      <trkpt lat="43.71366" lon="5.06061">
        <ele>126</ele>
        <time>2019-09-26T08:47:58Z</time>
      </trkpt>
      <trkpt lat="43.71367" lon="5.06059">
        <ele>126</ele>
        <time>2019-09-26T08:48:00Z</time>
      </trkpt>
      <trkpt lat="43.71368" lon="5.06056">
        <ele>126</ele>
        <time>2019-09-26T08:48:02Z</time>
      </trkpt>
      <trkpt lat="43.71369" lon="5.06053">
        <ele>126</ele>
        <time>2019-09-26T08:48:04Z</time>
      </trkpt>
      <trkpt lat="43.71369" lon="5.06049">
        <ele>126</ele>
        <time>2019-09-26T08:48:06Z</time>
      </trkpt>
      <trkpt lat="43.7137" lon="5.06046">
        <ele>126</ele>
        <time>2019-09-26T08:48:08Z</time>
      </trkpt>
      <trkpt lat="43.71371" lon="5.06043">
        <ele>126</ele>
        <time>2019-09-26T08:48:10Z</time>
      </trkpt>
      <trkpt lat="43.71371" lon="5.06041">
        <ele>126</ele>
        <time>2019-09-26T08:48:12Z</time>
      </trkpt>
      <trkpt lat="43.71372" lon="5.06038">
        <ele>125</ele>
        <time>2019-09-26T08:48:14Z</time>
      </trkpt>
      <trkpt lat="43.71373" lon="5.06035">
        <ele>125</ele>
        <time>2019-09-26T08:48:16Z</time>
      </trkpt>
      <trkpt lat="43.71374" lon="5.06032">
        <ele>125</ele>
        <time>2019-09-26T08:48:18Z</time>
      </trkpt>
      <trkpt lat="43.71375" lon="5.06029">
        <ele>125</ele>
        <time>2019-09-26T08:48:20Z</time>
      </trkpt>
      <trkpt lat="43.71376" lon="5.06026">
        <ele>125</ele>
        <time>2019-09-26T08:48:22Z</time>
      </trkpt>
      <trkpt lat="43.71376" lon="5.06023">
        <ele>125</ele>
        <time>2019-09-26T08:48:24Z</time>
      </trkpt>
      <trkpt lat="43.71377" lon="5.0602">
        <ele>125</ele>
        <time>2019-09-26T08:48:26Z</time>
      </trkpt>
      <trkpt lat="43.71379" lon="5.06017">
        <ele>125</ele>
        <time>2019-09-26T08:48:28Z</time>
      </trkpt>
      <trkpt lat="43.7138" lon="5.06014">
        <ele>125</ele>
        <time>2019-09-26T08:48:30Z</time>
      </trkpt>
      <trkpt lat="43.71381" lon="5.06012">
        <ele>125</ele>
        <time>2019-09-26T08:48:32Z</time>
      </trkpt>
      <trkpt lat="43.71383" lon="5.06009">
        <ele>125</ele>
        <time>2019-09-26T08:48:34Z</time>
      </trkpt>
      <trkpt lat="43.71383" lon="5.06006">
        <ele>125</ele>
        <time>2019-09-26T08:48:36Z</time>
      </trkpt>
      <trkpt lat="43.71384" lon="5.06004">
        <ele>125</ele>
        <time>2019-09-26T08:48:38Z</time>
      </trkpt>
      <trkpt lat="43.71385" lon="5.06001">
        <ele>125</ele>
        <time>2019-09-26T08:48:40Z</time>
      </trkpt>
      <trkpt lat="43.71385" lon="5.05997">
        <ele>125</ele>
        <time>2019-09-26T08:48:42Z</time>
      </trkpt>
      <trkpt lat="43.71386" lon="5.05994">
        <ele>124</ele>
        <time>2019-09-26T08:48:44Z</time>
      </trkpt>
      <trkpt lat="43.71386" lon="5.05991">
        <ele>124</ele>
        <time>2019-09-26T08:48:46Z</time>
      </trkpt>
      <trkpt lat="43.71387" lon="5.05989">
        <ele>124</ele>
        <time>2019-09-26T08:48:48Z</time>
      </trkpt>
      <trkpt lat="43.71388" lon="5.05986">
        <ele>124</ele>
        <time>2019-09-26T08:48:50Z</time>
      </trkpt>
      <trkpt lat="43.71388" lon="5.05984">
        <ele>124</ele>
        <time>2019-09-26T08:48:52Z</time>
      </trkpt>
      <trkpt lat="43.71389" lon="5.05981">
        <ele>123</ele>
        <time>2019-09-26T08:48:54Z</time>
      </trkpt>
      <trkpt lat="43.71391" lon="5.05978">
        <ele>123</ele>
        <time>2019-09-26T08:48:56Z</time>
      </trkpt>
      <trkpt lat="43.71391" lon="5.05975">
        <ele>123</ele>
        <time>2019-09-26T08:48:58Z</time>
      </trkpt>
      <trkpt lat="43.71392" lon="5.05973">
        <ele>123</ele>
        <time>2019-09-26T08:49:00Z</time>
      </trkpt>
      <trkpt lat="43.71393" lon="5.05971">
        <ele>123</ele>
        <time>2019-09-26T08:49:02Z</time>
      </trkpt>
      <trkpt lat="43.71394" lon="5.05968">
        <ele>123</ele>
        <time>2019-09-26T08:49:04Z</time>
      </trkpt>
      <trkpt lat="43.71396" lon="5.05965">
        <ele>123</ele>
        <time>2019-09-26T08:49:06Z</time>
      </trkpt>
      <trkpt lat="43.71397" lon="5.05962">
        <ele>123</ele>
        <time>2019-09-26T08:49:08Z</time>
      </trkpt>
      <trkpt lat="43.71398" lon="5.05959">
        <ele>123</ele>
        <time>2019-09-26T08:49:10Z</time>
      </trkpt>
      <trkpt lat="43.71398" lon="5.05956">
        <ele>123</ele>
        <time>2019-09-26T08:49:12Z</time>
      </trkpt>
      <trkpt lat="43.71398" lon="5.05956">
        <ele>123</ele>
        <time>2019-09-26T08:49:14Z</time>
      </trkpt>
      <trkpt lat="43.71401" lon="5.05951">
        <ele>123</ele>
        <time>2019-09-26T08:49:15Z</time>
      </trkpt>
      <trkpt lat="43.71402" lon="5.05949">
        <ele>123</ele>
        <time>2019-09-26T08:49:17Z</time>
      </trkpt>
      <trkpt lat="43.71403" lon="5.05947">
        <ele>123</ele>
        <time>2019-09-26T08:49:19Z</time>
      </trkpt>
      <trkpt lat="43.71404" lon="5.05946">
        <ele>123</ele>
        <time>2019-09-26T08:49:21Z</time>
      </trkpt>
      <trkpt lat="43.71406" lon="5.05944">
        <ele>123</ele>
        <time>2019-09-26T08:49:23Z</time>
      </trkpt>
      <trkpt lat="43.71407" lon="5.05942">
        <ele>123</ele>
        <time>2019-09-26T08:49:24Z</time>
      </trkpt>
      <trkpt lat="43.71409" lon="5.05941">
        <ele>123</ele>
        <time>2019-09-26T08:49:25Z</time>
      </trkpt>
      <trkpt lat="43.71411" lon="5.05939">
        <ele>123</ele>
        <time>2019-09-26T08:49:27Z</time>
      </trkpt>
      <trkpt lat="43.71412" lon="5.05938">
        <ele>123</ele>
        <time>2019-09-26T08:49:29Z</time>
      </trkpt>
      <trkpt lat="43.71414" lon="5.05937">
        <ele>123</ele>
        <time>2019-09-26T08:49:31Z</time>
      </trkpt>
      <trkpt lat="43.71415" lon="5.05936">
        <ele>123</ele>
        <time>2019-09-26T08:49:33Z</time>
      </trkpt>
      <trkpt lat="43.71416" lon="5.05935">
        <ele>123</ele>
        <time>2019-09-26T08:49:34Z</time>
      </trkpt>
      <trkpt lat="43.71418" lon="5.05932">
        <ele>123</ele>
        <time>2019-09-26T08:49:35Z</time>
      </trkpt>
      <trkpt lat="43.71419" lon="5.05931">
        <ele>123</ele>
        <time>2019-09-26T08:49:37Z</time>
      </trkpt>
      <trkpt lat="43.7142" lon="5.0593">
        <ele>123</ele>
        <time>2019-09-26T08:49:39Z</time>
      </trkpt>
      <trkpt lat="43.7142" lon="5.05929">
        <ele>123</ele>
        <time>2019-09-26T08:49:41Z</time>
      </trkpt>
      <trkpt lat="43.71421" lon="5.05928">
        <ele>123</ele>
        <time>2019-09-26T08:49:43Z</time>
      </trkpt>
      <trkpt lat="43.71422" lon="5.05926">
        <ele>122</ele>
        <time>2019-09-26T08:49:44Z</time>
      </trkpt>
      <trkpt lat="43.71424" lon="5.05924">
        <ele>122</ele>
        <time>2019-09-26T08:49:46Z</time>
      </trkpt>
      <trkpt lat="43.71425" lon="5.05922">
        <ele>122</ele>
        <time>2019-09-26T08:49:49Z</time>
      </trkpt>
      <trkpt lat="43.71426" lon="5.05919">
        <ele>122</ele>
        <time>2019-09-26T08:49:52Z</time>
      </trkpt>
      <trkpt lat="43.71426" lon="5.05919">
        <ele>121</ele>
        <time>2019-09-26T08:49:54Z</time>
      </trkpt>
      <trkpt lat="43.71426" lon="5.05917">
        <ele>121</ele>
        <time>2019-09-26T08:49:56Z</time>
      </trkpt>
      <trkpt lat="43.71425" lon="5.05915">
        <ele>121</ele>
        <time>2019-09-26T08:50:02Z</time>
      </trkpt>
      <trkpt lat="43.71425" lon="5.05915">
        <ele>119</ele>
        <time>2019-09-26T08:50:04Z</time>
      </trkpt>
      <trkpt lat="43.71423" lon="5.05913">
        <ele>119</ele>
        <time>2019-09-26T08:50:07Z</time>
      </trkpt>
      <trkpt lat="43.71422" lon="5.0591">
        <ele>119</ele>
        <time>2019-09-26T08:50:09Z</time>
      </trkpt>
      <trkpt lat="43.71422" lon="5.05908">
        <ele>119</ele>
        <time>2019-09-26T08:50:11Z</time>
      </trkpt>
      <trkpt lat="43.71421" lon="5.05905">
        <ele>119</ele>
        <time>2019-09-26T08:50:14Z</time>
      </trkpt>
      <trkpt lat="43.71421" lon="5.05899">
        <ele>119</ele>
        <time>2019-09-26T08:50:17Z</time>
      </trkpt>
      <trkpt lat="43.71421" lon="5.05897">
        <ele>119</ele>
        <time>2019-09-26T08:50:19Z</time>
      </trkpt>
      <trkpt lat="43.71421" lon="5.05894">
        <ele>119</ele>
        <time>2019-09-26T08:50:21Z</time>
      </trkpt>
      <trkpt lat="43.71421" lon="5.05892">
        <ele>119</ele>
        <time>2019-09-26T08:50:23Z</time>
      </trkpt>
      <trkpt lat="43.71421" lon="5.0589">
        <ele>118</ele>
        <time>2019-09-26T08:50:24Z</time>
      </trkpt>
      <trkpt lat="43.71421" lon="5.05889">
        <ele>118</ele>
        <time>2019-09-26T08:50:25Z</time>
      </trkpt>
      <trkpt lat="43.71423" lon="5.05885">
        <ele>118</ele>
        <time>2019-09-26T08:50:28Z</time>
      </trkpt>
      <trkpt lat="43.71424" lon="5.05883">
        <ele>118</ele>
        <time>2019-09-26T08:50:30Z</time>
      </trkpt>
      <trkpt lat="43.71426" lon="5.05881">
        <ele>118</ele>
        <time>2019-09-26T08:50:32Z</time>
      </trkpt>
      <trkpt lat="43.71426" lon="5.05881">
        <ele>117</ele>
        <time>2019-09-26T08:50:34Z</time>
      </trkpt>
      <trkpt lat="43.71429" lon="5.05877">
        <ele>117</ele>
        <time>2019-09-26T08:50:35Z</time>
      </trkpt>
      <trkpt lat="43.71429" lon="5.05876">
        <ele>117</ele>
        <time>2019-09-26T08:50:37Z</time>
      </trkpt>
      <trkpt lat="43.7143" lon="5.05874">
        <ele>117</ele>
        <time>2019-09-26T08:50:39Z</time>
      </trkpt>
      <trkpt lat="43.71431" lon="5.05873">
        <ele>117</ele>
        <time>2019-09-26T08:50:41Z</time>
      </trkpt>
      <trkpt lat="43.71432" lon="5.05871">
        <ele>117</ele>
        <time>2019-09-26T08:50:43Z</time>
      </trkpt>
      <trkpt lat="43.71432" lon="5.0587">
        <ele>117</ele>
        <time>2019-09-26T08:50:44Z</time>
      </trkpt>
      <trkpt lat="43.71433" lon="5.05868">
        <ele>117</ele>
        <time>2019-09-26T08:50:45Z</time>
      </trkpt>
      <trkpt lat="43.71434" lon="5.05865">
        <ele>117</ele>
        <time>2019-09-26T08:50:47Z</time>
      </trkpt>
      <trkpt lat="43.71435" lon="5.05862">
        <ele>117</ele>
        <time>2019-09-26T08:50:50Z</time>
      </trkpt>
      <trkpt lat="43.71436" lon="5.05859">
        <ele>117</ele>
        <time>2019-09-26T08:50:52Z</time>
      </trkpt>
      <trkpt lat="43.71437" lon="5.05856">
        <ele>113</ele>
        <time>2019-09-26T08:50:54Z</time>
      </trkpt>
      <trkpt lat="43.71437" lon="5.05853">
        <ele>113</ele>
        <time>2019-09-26T08:50:56Z</time>
      </trkpt>
      <trkpt lat="43.71438" lon="5.05851">
        <ele>113</ele>
        <time>2019-09-26T08:50:58Z</time>
      </trkpt>
      <trkpt lat="43.71439" lon="5.05848">
        <ele>113</ele>
        <time>2019-09-26T08:51:00Z</time>
      </trkpt>
      <trkpt lat="43.71439" lon="5.05845">
        <ele>113</ele>
        <time>2019-09-26T08:51:02Z</time>
      </trkpt>
      <trkpt lat="43.7144" lon="5.05842">
        <ele>113</ele>
        <time>2019-09-26T08:51:04Z</time>
      </trkpt>
      <trkpt lat="43.71441" lon="5.05837">
        <ele>113</ele>
        <time>2019-09-26T08:51:07Z</time>
      </trkpt>
      <trkpt lat="43.71442" lon="5.05836">
        <ele>113</ele>
        <time>2019-09-26T08:51:09Z</time>
      </trkpt>
      <trkpt lat="43.71442" lon="5.05834">
        <ele>113</ele>
        <time>2019-09-26T08:51:11Z</time>
      </trkpt>
      <trkpt lat="43.71443" lon="5.05833">
        <ele>113</ele>
        <time>2019-09-26T08:51:13Z</time>
      </trkpt>
      <trkpt lat="43.71443" lon="5.05831">
        <ele>112</ele>
        <time>2019-09-26T08:51:14Z</time>
      </trkpt>
      <trkpt lat="43.71445" lon="5.05828">
        <ele>112</ele>
        <time>2019-09-26T08:51:16Z</time>
      </trkpt>
      <trkpt lat="43.71446" lon="5.05826">
        <ele>112</ele>
        <time>2019-09-26T08:51:18Z</time>
      </trkpt>
      <trkpt lat="43.71446" lon="5.05823">
        <ele>112</ele>
        <time>2019-09-26T08:51:20Z</time>
      </trkpt>
      <trkpt lat="43.71447" lon="5.0582">
        <ele>112</ele>
        <time>2019-09-26T08:51:22Z</time>
      </trkpt>
      <trkpt lat="43.71448" lon="5.05818">
        <ele>112</ele>
        <time>2019-09-26T08:51:24Z</time>
      </trkpt>
      <trkpt lat="43.71448" lon="5.05815">
        <ele>112</ele>
        <time>2019-09-26T08:51:26Z</time>
      </trkpt>
      <trkpt lat="43.71448" lon="5.05813">
        <ele>112</ele>
        <time>2019-09-26T08:51:28Z</time>
      </trkpt>
      <trkpt lat="43.71449" lon="5.05809">
        <ele>112</ele>
        <time>2019-09-26T08:51:31Z</time>
      </trkpt>
      <trkpt lat="43.71449" lon="5.05806">
        <ele>112</ele>
        <time>2019-09-26T08:51:33Z</time>
      </trkpt>
      <trkpt lat="43.71449" lon="5.05803">
        <ele>111</ele>
        <time>2019-09-26T08:51:35Z</time>
      </trkpt>
      <trkpt lat="43.71449" lon="5.05798">
        <ele>111</ele>
        <time>2019-09-26T08:51:37Z</time>
      </trkpt>
      <trkpt lat="43.71449" lon="5.05796">
        <ele>111</ele>
        <time>2019-09-26T08:51:39Z</time>
      </trkpt>
      <trkpt lat="43.71449" lon="5.05794">
        <ele>111</ele>
        <time>2019-09-26T08:51:41Z</time>
      </trkpt>
      <trkpt lat="43.71449" lon="5.05792">
        <ele>111</ele>
        <time>2019-09-26T08:51:43Z</time>
      </trkpt>
      <trkpt lat="43.71449" lon="5.0579">
        <ele>112</ele>
        <time>2019-09-26T08:51:44Z</time>
      </trkpt>
      <trkpt lat="43.71448" lon="5.05788">
        <ele>112</ele>
        <time>2019-09-26T08:51:45Z</time>
      </trkpt>
      <trkpt lat="43.71449" lon="5.05785">
        <ele>112</ele>
        <time>2019-09-26T08:51:47Z</time>
      </trkpt>
      <trkpt lat="43.71449" lon="5.05782">
        <ele>112</ele>
        <time>2019-09-26T08:51:49Z</time>
      </trkpt>
      <trkpt lat="43.7145" lon="5.05779">
        <ele>112</ele>
        <time>2019-09-26T08:51:52Z</time>
      </trkpt>
      <trkpt lat="43.7145" lon="5.05777">
        <ele>112</ele>
        <time>2019-09-26T08:51:54Z</time>
      </trkpt>
      <trkpt lat="43.7145" lon="5.05774">
        <ele>112</ele>
        <time>2019-09-26T08:51:56Z</time>
      </trkpt>
      <trkpt lat="43.71451" lon="5.05771">
        <ele>112</ele>
        <time>2019-09-26T08:51:58Z</time>
      </trkpt>
      <trkpt lat="43.71452" lon="5.05768">
        <ele>112</ele>
        <time>2019-09-26T08:52:01Z</time>
      </trkpt>
      <trkpt lat="43.71452" lon="5.05768">
        <ele>112</ele>
        <time>2019-09-26T08:52:04Z</time>
      </trkpt>
      <trkpt lat="43.71452" lon="5.05764">
        <ele>112</ele>
        <time>2019-09-26T08:52:05Z</time>
      </trkpt>
      <trkpt lat="43.71452" lon="5.05762">
        <ele>112</ele>
        <time>2019-09-26T08:52:11Z</time>
      </trkpt>
      <trkpt lat="43.71453" lon="5.0576">
        <ele>112</ele>
        <time>2019-09-26T08:52:14Z</time>
      </trkpt>
      <trkpt lat="43.71453" lon="5.05758">
        <ele>112</ele>
        <time>2019-09-26T08:52:21Z</time>
      </trkpt>
      <trkpt lat="43.71453" lon="5.05756">
        <ele>112</ele>
        <time>2019-09-26T08:52:22Z</time>
      </trkpt>
      <trkpt lat="43.71453" lon="5.05754">
        <ele>111</ele>
        <time>2019-09-26T08:53:26Z</time>
      </trkpt>
      <trkpt lat="43.71453" lon="5.05752">
        <ele>111</ele>
        <time>2019-09-26T08:53:28Z</time>
      </trkpt>
      <trkpt lat="43.71453" lon="5.0575">
        <ele>111</ele>
        <time>2019-09-26T08:53:30Z</time>
      </trkpt>
      <trkpt lat="43.71453" lon="5.05748">
        <ele>111</ele>
        <time>2019-09-26T08:53:32Z</time>
      </trkpt>
      <trkpt lat="43.71453" lon="5.05746">
        <ele>111</ele>
        <time>2019-09-26T08:53:34Z</time>
      </trkpt>
      <trkpt lat="43.71453" lon="5.05744">
        <ele>111</ele>
        <time>2019-09-26T08:53:35Z</time>
      </trkpt>
      <trkpt lat="43.71454" lon="5.0574">
        <ele>111</ele>
        <time>2019-09-26T08:53:36Z</time>
      </trkpt>
      <trkpt lat="43.71454" lon="5.05737">
        <ele>111</ele>
        <time>2019-09-26T08:53:38Z</time>
      </trkpt>
      <trkpt lat="43.71454" lon="5.05735">
        <ele>111</ele>
        <time>2019-09-26T08:53:40Z</time>
      </trkpt>
      <trkpt lat="43.71454" lon="5.05733">
        <ele>111</ele>
        <time>2019-09-26T08:53:42Z</time>
      </trkpt>
      <trkpt lat="43.71454" lon="5.0573">
        <ele>111</ele>
        <time>2019-09-26T08:53:44Z</time>
      </trkpt>
      <trkpt lat="43.71455" lon="5.05728">
        <ele>111</ele>
        <time>2019-09-26T08:53:45Z</time>
      </trkpt>
      <trkpt lat="43.71455" lon="5.05724">
        <ele>111</ele>
        <time>2019-09-26T08:53:46Z</time>
      </trkpt>
      <trkpt lat="43.71455" lon="5.05721">
        <ele>111</ele>
        <time>2019-09-26T08:53:48Z</time>
      </trkpt>
      <trkpt lat="43.71456" lon="5.05718">
        <ele>111</ele>
        <time>2019-09-26T08:53:50Z</time>
      </trkpt>
      <trkpt lat="43.71456" lon="5.05716">
        <ele>111</ele>
        <time>2019-09-26T08:53:52Z</time>
      </trkpt>
      <trkpt lat="43.71456" lon="5.05713">
        <ele>111</ele>
        <time>2019-09-26T08:53:54Z</time>
      </trkpt>
      <trkpt lat="43.71457" lon="5.0571">
        <ele>111</ele>
        <time>2019-09-26T08:53:55Z</time>
      </trkpt>
      <trkpt lat="43.71458" lon="5.05707">
        <ele>111</ele>
        <time>2019-09-26T08:53:56Z</time>
      </trkpt>
      <trkpt lat="43.71458" lon="5.05704">
        <ele>111</ele>
        <time>2019-09-26T08:53:58Z</time>
      </trkpt>
      <trkpt lat="43.71459" lon="5.05702">
        <ele>111</ele>
        <time>2019-09-26T08:54:00Z</time>
      </trkpt>
      <trkpt lat="43.71459" lon="5.05699">
        <ele>111</ele>
        <time>2019-09-26T08:54:02Z</time>
      </trkpt>
      <trkpt lat="43.7146" lon="5.05697">
        <ele>111</ele>
        <time>2019-09-26T08:54:04Z</time>
      </trkpt>
      <trkpt lat="43.7146" lon="5.05695">
        <ele>111</ele>
        <time>2019-09-26T08:54:05Z</time>
      </trkpt>
      <trkpt lat="43.71461" lon="5.05691">
        <ele>111</ele>
        <time>2019-09-26T08:54:06Z</time>
      </trkpt>
      <trkpt lat="43.71462" lon="5.05688">
        <ele>111</ele>
        <time>2019-09-26T08:54:08Z</time>
      </trkpt>
      <trkpt lat="43.71463" lon="5.05686">
        <ele>111</ele>
        <time>2019-09-26T08:54:10Z</time>
      </trkpt>
      <trkpt lat="43.71463" lon="5.05684">
        <ele>111</ele>
        <time>2019-09-26T08:54:12Z</time>
      </trkpt>
      <trkpt lat="43.71464" lon="5.05682">
        <ele>111</ele>
        <time>2019-09-26T08:54:14Z</time>
      </trkpt>
      <trkpt lat="43.71464" lon="5.0568">
        <ele>111</ele>
        <time>2019-09-26T08:54:15Z</time>
      </trkpt>
      <trkpt lat="43.71465" lon="5.05676">
        <ele>111</ele>
        <time>2019-09-26T08:54:16Z</time>
      </trkpt>
      <trkpt lat="43.71466" lon="5.05673">
        <ele>111</ele>
        <time>2019-09-26T08:54:18Z</time>
      </trkpt>
      <trkpt lat="43.71467" lon="5.05671">
        <ele>111</ele>
        <time>2019-09-26T08:54:20Z</time>
      </trkpt>
      <trkpt lat="43.71467" lon="5.05669">
        <ele>111</ele>
        <time>2019-09-26T08:54:22Z</time>
      </trkpt>
      <trkpt lat="43.71468" lon="5.05667">
        <ele>111</ele>
        <time>2019-09-26T08:54:24Z</time>
      </trkpt>
      <trkpt lat="43.71469" lon="5.05665">
        <ele>111</ele>
        <time>2019-09-26T08:54:25Z</time>
      </trkpt>
      <trkpt lat="43.71471" lon="5.05661">
        <ele>111</ele>
        <time>2019-09-26T08:54:26Z</time>
      </trkpt>
      <trkpt lat="43.71472" lon="5.05659">
        <ele>111</ele>
        <time>2019-09-26T08:54:28Z</time>
      </trkpt>
      <trkpt lat="43.71473" lon="5.05656">
        <ele>111</ele>
        <time>2019-09-26T08:54:30Z</time>
      </trkpt>
      <trkpt lat="43.71474" lon="5.05654">
        <ele>111</ele>
        <time>2019-09-26T08:54:32Z</time>
      </trkpt>
      <trkpt lat="43.71475" lon="5.05652">
        <ele>111</ele>
        <time>2019-09-26T08:54:34Z</time>
      </trkpt>
      <trkpt lat="43.71477" lon="5.05649">
        <ele>111</ele>
        <time>2019-09-26T08:54:35Z</time>
      </trkpt>
      <trkpt lat="43.71478" lon="5.05645">
        <ele>111</ele>
        <time>2019-09-26T08:54:36Z</time>
      </trkpt>
      <trkpt lat="43.71478" lon="5.05643">
        <ele>111</ele>
        <time>2019-09-26T08:54:38Z</time>
      </trkpt>
      <trkpt lat="43.71478" lon="5.0564">
        <ele>111</ele>
        <time>2019-09-26T08:54:40Z</time>
      </trkpt>
      <trkpt lat="43.71479" lon="5.05638">
        <ele>111</ele>
        <time>2019-09-26T08:54:42Z</time>
      </trkpt>
      <trkpt lat="43.71479" lon="5.05635">
        <ele>111</ele>
        <time>2019-09-26T08:54:44Z</time>
      </trkpt>
      <trkpt lat="43.7148" lon="5.05633">
        <ele>111</ele>
        <time>2019-09-26T08:54:45Z</time>
      </trkpt>
      <trkpt lat="43.7148" lon="5.05628">
        <ele>111</ele>
        <time>2019-09-26T08:54:46Z</time>
      </trkpt>
      <trkpt lat="43.7148" lon="5.05626">
        <ele>111</ele>
        <time>2019-09-26T08:54:48Z</time>
      </trkpt>
      <trkpt lat="43.71481" lon="5.05623">
        <ele>111</ele>
        <time>2019-09-26T08:54:50Z</time>
      </trkpt>
      <trkpt lat="43.71481" lon="5.05621">
        <ele>111</ele>
        <time>2019-09-26T08:54:52Z</time>
      </trkpt>
      <trkpt lat="43.71481" lon="5.05618">
        <ele>111</ele>
        <time>2019-09-26T08:54:54Z</time>
      </trkpt>
      <trkpt lat="43.71481" lon="5.05616">
        <ele>110</ele>
        <time>2019-09-26T08:54:55Z</time>
      </trkpt>
      <trkpt lat="43.71482" lon="5.05611">
        <ele>110</ele>
        <time>2019-09-26T08:54:56Z</time>
      </trkpt>
      <trkpt lat="43.71483" lon="5.05608">
        <ele>110</ele>
        <time>2019-09-26T08:54:58Z</time>
      </trkpt>
      <trkpt lat="43.71484" lon="5.05606">
        <ele>110</ele>
        <time>2019-09-26T08:55:00Z</time>
      </trkpt>
      <trkpt lat="43.71484" lon="5.05603">
        <ele>110</ele>
        <time>2019-09-26T08:55:02Z</time>
      </trkpt>
      <trkpt lat="43.71485" lon="5.056">
        <ele>110</ele>
        <time>2019-09-26T08:55:04Z</time>
      </trkpt>
      <trkpt lat="43.71486" lon="5.05597">
        <ele>110</ele>
        <time>2019-09-26T08:55:05Z</time>
      </trkpt>
      <trkpt lat="43.71487" lon="5.05593">
        <ele>110</ele>
        <time>2019-09-26T08:55:06Z</time>
      </trkpt>
      <trkpt lat="43.71488" lon="5.05591">
        <ele>110</ele>
        <time>2019-09-26T08:55:08Z</time>
      </trkpt>
      <trkpt lat="43.71489" lon="5.05589">
        <ele>110</ele>
        <time>2019-09-26T08:55:10Z</time>
      </trkpt>
      <trkpt lat="43.71489" lon="5.05586">
        <ele>110</ele>
        <time>2019-09-26T08:55:12Z</time>
      </trkpt>
      <trkpt lat="43.7149" lon="5.05584">
        <ele>110</ele>
        <time>2019-09-26T08:55:14Z</time>
      </trkpt>
      <trkpt lat="43.71491" lon="5.05582">
        <ele>110</ele>
        <time>2019-09-26T08:55:15Z</time>
      </trkpt>
      <trkpt lat="43.71492" lon="5.05578">
        <ele>110</ele>
        <time>2019-09-26T08:55:16Z</time>
      </trkpt>
      <trkpt lat="43.71493" lon="5.05576">
        <ele>110</ele>
        <time>2019-09-26T08:55:18Z</time>
      </trkpt>
      <trkpt lat="43.71494" lon="5.05573">
        <ele>110</ele>
        <time>2019-09-26T08:55:20Z</time>
      </trkpt>
      <trkpt lat="43.71495" lon="5.05571">
        <ele>110</ele>
        <time>2019-09-26T08:55:22Z</time>
      </trkpt>
      <trkpt lat="43.71496" lon="5.05568">
        <ele>110</ele>
        <time>2019-09-26T08:55:24Z</time>
      </trkpt>
      <trkpt lat="43.71496" lon="5.05566">
        <ele>109</ele>
        <time>2019-09-26T08:55:25Z</time>
      </trkpt>
      <trkpt lat="43.71498" lon="5.05562">
        <ele>109</ele>
        <time>2019-09-26T08:55:26Z</time>
      </trkpt>
      <trkpt lat="43.71499" lon="5.05559">
        <ele>109</ele>
        <time>2019-09-26T08:55:28Z</time>
      </trkpt>
      <trkpt lat="43.715" lon="5.05557">
        <ele>109</ele>
        <time>2019-09-26T08:55:30Z</time>
      </trkpt>
      <trkpt lat="43.715" lon="5.05554">
        <ele>109</ele>
        <time>2019-09-26T08:55:32Z</time>
      </trkpt>
      <trkpt lat="43.71501" lon="5.05552">
        <ele>109</ele>
        <time>2019-09-26T08:55:34Z</time>
      </trkpt>
      <trkpt lat="43.71502" lon="5.0555">
        <ele>109</ele>
        <time>2019-09-26T08:55:35Z</time>
      </trkpt>
      <trkpt lat="43.71504" lon="5.05546">
        <ele>109</ele>
        <time>2019-09-26T08:55:36Z</time>
      </trkpt>
      <trkpt lat="43.71505" lon="5.05544">
        <ele>109</ele>
        <time>2019-09-26T08:55:38Z</time>
      </trkpt>
      <trkpt lat="43.71506" lon="5.05541">
        <ele>109</ele>
        <time>2019-09-26T08:55:40Z</time>
      </trkpt>
      <trkpt lat="43.71507" lon="5.05539">
        <ele>109</ele>
        <time>2019-09-26T08:55:42Z</time>
      </trkpt>
      <trkpt lat="43.71508" lon="5.05537">
        <ele>109</ele>
        <time>2019-09-26T08:55:44Z</time>
      </trkpt>
      <trkpt lat="43.7151" lon="5.05535">
        <ele>108</ele>
        <time>2019-09-26T08:55:45Z</time>
      </trkpt>
      <trkpt lat="43.71512" lon="5.05533">
        <ele>108</ele>
        <time>2019-09-26T08:55:46Z</time>
      </trkpt>
      <trkpt lat="43.71514" lon="5.05532">
        <ele>108</ele>
        <time>2019-09-26T08:55:48Z</time>
      </trkpt>
      <trkpt lat="43.71516" lon="5.05531">
        <ele>108</ele>
        <time>2019-09-26T08:55:50Z</time>
      </trkpt>
      <trkpt lat="43.71518" lon="5.0553">
        <ele>108</ele>
        <time>2019-09-26T08:55:52Z</time>
      </trkpt>
      <trkpt lat="43.71519" lon="5.05529">
        <ele>108</ele>
        <time>2019-09-26T08:55:54Z</time>
      </trkpt>
      <trkpt lat="43.71521" lon="5.05528">
        <ele>108</ele>
        <time>2019-09-26T08:55:55Z</time>
      </trkpt>
      <trkpt lat="43.71522" lon="5.05527">
        <ele>108</ele>
        <time>2019-09-26T08:55:56Z</time>
      </trkpt>
      <trkpt lat="43.71524" lon="5.05526">
        <ele>108</ele>
        <time>2019-09-26T08:55:58Z</time>
      </trkpt>
      <trkpt lat="43.71525" lon="5.05523">
        <ele>108</ele>
        <time>2019-09-26T08:56:00Z</time>
      </trkpt>
      <trkpt lat="43.71526" lon="5.05521">
        <ele>108</ele>
        <time>2019-09-26T08:56:03Z</time>
      </trkpt>
      <trkpt lat="43.71528" lon="5.05519">
        <ele>107</ele>
        <time>2019-09-26T08:56:05Z</time>
      </trkpt>
      <trkpt lat="43.71529" lon="5.05516">
        <ele>107</ele>
        <time>2019-09-26T08:56:07Z</time>
      </trkpt>
      <trkpt lat="43.71531" lon="5.05514">
        <ele>107</ele>
        <time>2019-09-26T08:56:09Z</time>
      </trkpt>
      <trkpt lat="43.71532" lon="5.05511">
        <ele>107</ele>
        <time>2019-09-26T08:56:11Z</time>
      </trkpt>
      <trkpt lat="43.71533" lon="5.05508">
        <ele>107</ele>
        <time>2019-09-26T08:56:13Z</time>
      </trkpt>
      <trkpt lat="43.71533" lon="5.05508">
        <ele>108</ele>
        <time>2019-09-26T08:56:15Z</time>
      </trkpt>
      <trkpt lat="43.71535" lon="5.05505">
        <ele>108</ele>
        <time>2019-09-26T08:56:16Z</time>
      </trkpt>
      <trkpt lat="43.71536" lon="5.05503">
        <ele>108</ele>
        <time>2019-09-26T08:56:18Z</time>
      </trkpt>
      <trkpt lat="43.71536" lon="5.055">
        <ele>108</ele>
        <time>2019-09-26T08:56:20Z</time>
      </trkpt>
      <trkpt lat="43.71537" lon="5.05497">
        <ele>108</ele>
        <time>2019-09-26T08:56:22Z</time>
      </trkpt>
      <trkpt lat="43.71538" lon="5.05494">
        <ele>108</ele>
        <time>2019-09-26T08:56:25Z</time>
      </trkpt>
      <trkpt lat="43.71539" lon="5.05489">
        <ele>108</ele>
        <time>2019-09-26T08:56:27Z</time>
      </trkpt>
      <trkpt lat="43.71539" lon="5.05486">
        <ele>108</ele>
        <time>2019-09-26T08:56:29Z</time>
      </trkpt>
      <trkpt lat="43.7154" lon="5.05484">
        <ele>108</ele>
        <time>2019-09-26T08:56:32Z</time>
      </trkpt>
      <trkpt lat="43.7154" lon="5.05482">
        <ele>108</ele>
        <time>2019-09-26T08:56:34Z</time>
      </trkpt>
      <trkpt lat="43.71541" lon="5.0548">
        <ele>108</ele>
        <time>2019-09-26T08:56:35Z</time>
      </trkpt>
      <trkpt lat="43.71542" lon="5.05477">
        <ele>108</ele>
        <time>2019-09-26T08:56:36Z</time>
      </trkpt>
      <trkpt lat="43.71543" lon="5.05475">
        <ele>108</ele>
        <time>2019-09-26T08:56:38Z</time>
      </trkpt>
      <trkpt lat="43.71544" lon="5.05473">
        <ele>108</ele>
        <time>2019-09-26T08:56:40Z</time>
      </trkpt>
      <trkpt lat="43.71545" lon="5.0547">
        <ele>108</ele>
        <time>2019-09-26T08:56:42Z</time>
      </trkpt>
      <trkpt lat="43.71546" lon="5.05468">
        <ele>108</ele>
        <time>2019-09-26T08:56:44Z</time>
      </trkpt>
      <trkpt lat="43.71547" lon="5.05466">
        <ele>105</ele>
        <time>2019-09-26T08:56:45Z</time>
      </trkpt>
      <trkpt lat="43.71549" lon="5.05464">
        <ele>105</ele>
        <time>2019-09-26T08:56:46Z</time>
      </trkpt>
      <trkpt lat="43.71551" lon="5.05463">
        <ele>105</ele>
        <time>2019-09-26T08:56:48Z</time>
      </trkpt>
      <trkpt lat="43.71552" lon="5.05461">
        <ele>105</ele>
        <time>2019-09-26T08:56:50Z</time>
      </trkpt>
      <trkpt lat="43.71553" lon="5.0546">
        <ele>105</ele>
        <time>2019-09-26T08:56:52Z</time>
      </trkpt>
      <trkpt lat="43.71555" lon="5.05459">
        <ele>105</ele>
        <time>2019-09-26T08:56:54Z</time>
      </trkpt>
      <trkpt lat="43.71556" lon="5.05458">
        <ele>105</ele>
        <time>2019-09-26T08:56:55Z</time>
      </trkpt>
      <trkpt lat="43.71559" lon="5.05457">
        <ele>105</ele>
        <time>2019-09-26T08:56:56Z</time>
      </trkpt>
      <trkpt lat="43.7156" lon="5.05456">
        <ele>105</ele>
        <time>2019-09-26T08:56:58Z</time>
      </trkpt>
      <trkpt lat="43.71562" lon="5.05455">
        <ele>105</ele>
        <time>2019-09-26T08:57:00Z</time>
      </trkpt>
      <trkpt lat="43.71563" lon="5.05454">
        <ele>105</ele>
        <time>2019-09-26T08:57:02Z</time>
      </trkpt>
      <trkpt lat="43.71565" lon="5.05453">
        <ele>105</ele>
        <time>2019-09-26T08:57:04Z</time>
      </trkpt>
      <trkpt lat="43.71566" lon="5.05452">
        <ele>105</ele>
        <time>2019-09-26T08:57:05Z</time>
      </trkpt>
      <trkpt lat="43.71568" lon="5.0545">
        <ele>105</ele>
        <time>2019-09-26T08:57:06Z</time>
      </trkpt>
      <trkpt lat="43.7157" lon="5.05448">
        <ele>105</ele>
        <time>2019-09-26T08:57:08Z</time>
      </trkpt>
      <trkpt lat="43.71571" lon="5.05446">
        <ele>105</ele>
        <time>2019-09-26T08:57:10Z</time>
      </trkpt>
      <trkpt lat="43.71572" lon="5.05445">
        <ele>105</ele>
        <time>2019-09-26T08:57:12Z</time>
      </trkpt>
      <trkpt lat="43.71573" lon="5.05443">
        <ele>105</ele>
        <time>2019-09-26T08:57:14Z</time>
      </trkpt>
      <trkpt lat="43.71574" lon="5.05441">
        <ele>105</ele>
        <time>2019-09-26T08:57:15Z</time>
      </trkpt>
      <trkpt lat="43.71576" lon="5.05438">
        <ele>105</ele>
        <time>2019-09-26T08:57:16Z</time>
      </trkpt>
      <trkpt lat="43.71577" lon="5.05436">
        <ele>105</ele>
        <time>2019-09-26T08:57:18Z</time>
      </trkpt>
      <trkpt lat="43.71579" lon="5.05435">
        <ele>105</ele>
        <time>2019-09-26T08:57:20Z</time>
      </trkpt>
      <trkpt lat="43.7158" lon="5.05433">
        <ele>105</ele>
        <time>2019-09-26T08:57:22Z</time>
      </trkpt>
      <trkpt lat="43.71581" lon="5.05431">
        <ele>105</ele>
        <time>2019-09-26T08:57:24Z</time>
      </trkpt>
      <trkpt lat="43.71582" lon="5.05429">
        <ele>105</ele>
        <time>2019-09-26T08:57:25Z</time>
      </trkpt>
      <trkpt lat="43.71584" lon="5.05425">
        <ele>105</ele>
        <time>2019-09-26T08:57:26Z</time>
      </trkpt>
      <trkpt lat="43.71584" lon="5.05423">
        <ele>105</ele>
        <time>2019-09-26T08:57:28Z</time>
      </trkpt>
      <trkpt lat="43.71585" lon="5.0542">
        <ele>105</ele>
        <time>2019-09-26T08:57:30Z</time>
      </trkpt>
      <trkpt lat="43.71585" lon="5.05418">
        <ele>105</ele>
        <time>2019-09-26T08:57:32Z</time>
      </trkpt>
      <trkpt lat="43.71586" lon="5.05416">
        <ele>105</ele>
        <time>2019-09-26T08:57:34Z</time>
      </trkpt>
      <trkpt lat="43.71587" lon="5.05413">
        <ele>105</ele>
        <time>2019-09-26T08:57:35Z</time>
      </trkpt>
      <trkpt lat="43.71587" lon="5.05409">
        <ele>105</ele>
        <time>2019-09-26T08:57:36Z</time>
      </trkpt>
      <trkpt lat="43.71587" lon="5.05407">
        <ele>105</ele>
        <time>2019-09-26T08:57:38Z</time>
      </trkpt>
      <trkpt lat="43.71588" lon="5.05405">
        <ele>105</ele>
        <time>2019-09-26T08:57:40Z</time>
      </trkpt>
      <trkpt lat="43.71588" lon="5.05402">
        <ele>105</ele>
        <time>2019-09-26T08:57:42Z</time>
      </trkpt>
      <trkpt lat="43.71588" lon="5.054">
        <ele>105</ele>
        <time>2019-09-26T08:57:44Z</time>
      </trkpt>
      <trkpt lat="43.71589" lon="5.05397">
        <ele>104</ele>
        <time>2019-09-26T08:57:45Z</time>
      </trkpt>
      <trkpt lat="43.71589" lon="5.05393">
        <ele>104</ele>
        <time>2019-09-26T08:57:46Z</time>
      </trkpt>
      <trkpt lat="43.71589" lon="5.05391">
        <ele>104</ele>
        <time>2019-09-26T08:57:48Z</time>
      </trkpt>
      <trkpt lat="43.71589" lon="5.05388">
        <ele>104</ele>
        <time>2019-09-26T08:57:50Z</time>
      </trkpt>
      <trkpt lat="43.71589" lon="5.05386">
        <ele>104</ele>
        <time>2019-09-26T08:57:52Z</time>
      </trkpt>
      <trkpt lat="43.71589" lon="5.05384">
        <ele>104</ele>
        <time>2019-09-26T08:57:54Z</time>
      </trkpt>
      <trkpt lat="43.71589" lon="5.05381">
        <ele>104</ele>
        <time>2019-09-26T08:57:55Z</time>
      </trkpt>
      <trkpt lat="43.71589" lon="5.05377">
        <ele>104</ele>
        <time>2019-09-26T08:57:56Z</time>
      </trkpt>
      <trkpt lat="43.71589" lon="5.05375">
        <ele>104</ele>
        <time>2019-09-26T08:57:58Z</time>
      </trkpt>
      <trkpt lat="43.71589" lon="5.05373">
        <ele>104</ele>
        <time>2019-09-26T08:58:00Z</time>
      </trkpt>
      <trkpt lat="43.71589" lon="5.0537">
        <ele>104</ele>
        <time>2019-09-26T08:58:02Z</time>
      </trkpt>
      <trkpt lat="43.71589" lon="5.05368">
        <ele>104</ele>
        <time>2019-09-26T08:58:04Z</time>
      </trkpt>
      <trkpt lat="43.71589" lon="5.05366">
        <ele>103</ele>
        <time>2019-09-26T08:58:05Z</time>
      </trkpt>
      <trkpt lat="43.71588" lon="5.05362">
        <ele>103</ele>
        <time>2019-09-26T08:58:06Z</time>
      </trkpt>
      <trkpt lat="43.71588" lon="5.0536">
        <ele>103</ele>
        <time>2019-09-26T08:58:08Z</time>
      </trkpt>
      <trkpt lat="43.71588" lon="5.05358">
        <ele>103</ele>
        <time>2019-09-26T08:58:10Z</time>
      </trkpt>
      <trkpt lat="43.71588" lon="5.05355">
        <ele>103</ele>
        <time>2019-09-26T08:58:12Z</time>
      </trkpt>
      <trkpt lat="43.71588" lon="5.05353">
        <ele>103</ele>
        <time>2019-09-26T08:58:14Z</time>
      </trkpt>
      <trkpt lat="43.71588" lon="5.05351">
        <ele>103</ele>
        <time>2019-09-26T08:58:15Z</time>
      </trkpt>
      <trkpt lat="43.71588" lon="5.05347">
        <ele>103</ele>
        <time>2019-09-26T08:58:16Z</time>
      </trkpt>
      <trkpt lat="43.71588" lon="5.05344">
        <ele>103</ele>
        <time>2019-09-26T08:58:18Z</time>
      </trkpt>
      <trkpt lat="43.71588" lon="5.05342">
        <ele>103</ele>
        <time>2019-09-26T08:58:20Z</time>
      </trkpt>
      <trkpt lat="43.71588" lon="5.05339">
        <ele>103</ele>
        <time>2019-09-26T08:58:22Z</time>
      </trkpt>
      <trkpt lat="43.71588" lon="5.05337">
        <ele>103</ele>
        <time>2019-09-26T08:58:24Z</time>
      </trkpt>
      <trkpt lat="43.71588" lon="5.05334">
        <ele>104</ele>
        <time>2019-09-26T08:58:25Z</time>
      </trkpt>
      <trkpt lat="43.71588" lon="5.0533">
        <ele>104</ele>
        <time>2019-09-26T08:58:26Z</time>
      </trkpt>
      <trkpt lat="43.71589" lon="5.05328">
        <ele>104</ele>
        <time>2019-09-26T08:58:28Z</time>
      </trkpt>
      <trkpt lat="43.71589" lon="5.05326">
        <ele>104</ele>
        <time>2019-09-26T08:58:30Z</time>
      </trkpt>
      <trkpt lat="43.71589" lon="5.05323">
        <ele>104</ele>
        <time>2019-09-26T08:58:32Z</time>
      </trkpt>
      <trkpt lat="43.71589" lon="5.05321">
        <ele>104</ele>
        <time>2019-09-26T08:58:34Z</time>
      </trkpt>
      <trkpt lat="43.71589" lon="5.05319">
        <ele>104</ele>
        <time>2019-09-26T08:58:35Z</time>
      </trkpt>
      <trkpt lat="43.7159" lon="5.05315">
        <ele>104</ele>
        <time>2019-09-26T08:58:36Z</time>
      </trkpt>
      <trkpt lat="43.71591" lon="5.05313">
        <ele>104</ele>
        <time>2019-09-26T08:58:38Z</time>
      </trkpt>
      <trkpt lat="43.71591" lon="5.05311">
        <ele>104</ele>
        <time>2019-09-26T08:58:40Z</time>
      </trkpt>
      <trkpt lat="43.71592" lon="5.05309">
        <ele>104</ele>
        <time>2019-09-26T08:58:42Z</time>
      </trkpt>
      <trkpt lat="43.71592" lon="5.05306">
        <ele>104</ele>
        <time>2019-09-26T08:58:44Z</time>
      </trkpt>
      <trkpt lat="43.71593" lon="5.05304">
        <ele>104</ele>
        <time>2019-09-26T08:58:45Z</time>
      </trkpt>
      <trkpt lat="43.71594" lon="5.053">
        <ele>104</ele>
        <time>2019-09-26T08:58:46Z</time>
      </trkpt>
      <trkpt lat="43.71594" lon="5.05298">
        <ele>104</ele>
        <time>2019-09-26T08:58:48Z</time>
      </trkpt>
      <trkpt lat="43.71594" lon="5.05296">
        <ele>104</ele>
        <time>2019-09-26T08:58:50Z</time>
      </trkpt>
      <trkpt lat="43.71595" lon="5.05293">
        <ele>104</ele>
        <time>2019-09-26T08:58:52Z</time>
      </trkpt>
      <trkpt lat="43.71595" lon="5.05291">
        <ele>104</ele>
        <time>2019-09-26T08:58:54Z</time>
      </trkpt>
      <trkpt lat="43.71595" lon="5.05289">
        <ele>104</ele>
        <time>2019-09-26T08:58:55Z</time>
      </trkpt>
      <trkpt lat="43.71596" lon="5.05285">
        <ele>104</ele>
        <time>2019-09-26T08:58:56Z</time>
      </trkpt>
      <trkpt lat="43.71596" lon="5.05283">
        <ele>104</ele>
        <time>2019-09-26T08:58:58Z</time>
      </trkpt>
      <trkpt lat="43.71596" lon="5.0528">
        <ele>104</ele>
        <time>2019-09-26T08:59:00Z</time>
      </trkpt>
      <trkpt lat="43.71597" lon="5.05278">
        <ele>104</ele>
        <time>2019-09-26T08:59:02Z</time>
      </trkpt>
      <trkpt lat="43.71597" lon="5.05276">
        <ele>104</ele>
        <time>2019-09-26T08:59:04Z</time>
      </trkpt>
      <trkpt lat="43.71597" lon="5.05274">
        <ele>104</ele>
        <time>2019-09-26T08:59:05Z</time>
      </trkpt>
      <trkpt lat="43.71598" lon="5.0527">
        <ele>104</ele>
        <time>2019-09-26T08:59:06Z</time>
      </trkpt>
      <trkpt lat="43.71598" lon="5.05268">
        <ele>104</ele>
        <time>2019-09-26T08:59:08Z</time>
      </trkpt>
      <trkpt lat="43.71599" lon="5.05265">
        <ele>104</ele>
        <time>2019-09-26T08:59:10Z</time>
      </trkpt>
      <trkpt lat="43.71599" lon="5.05263">
        <ele>104</ele>
        <time>2019-09-26T08:59:12Z</time>
      </trkpt>
      <trkpt lat="43.71599" lon="5.05261">
        <ele>104</ele>
        <time>2019-09-26T08:59:14Z</time>
      </trkpt>
      <trkpt lat="43.716" lon="5.05258">
        <ele>104</ele>
        <time>2019-09-26T08:59:15Z</time>
      </trkpt>
      <trkpt lat="43.716" lon="5.05257">
        <ele>104</ele>
        <time>2019-09-26T08:59:16Z</time>
      </trkpt>
      <trkpt lat="43.71601" lon="5.05255">
        <ele>104</ele>
        <time>2019-09-26T08:59:18Z</time>
      </trkpt>
      <trkpt lat="43.71602" lon="5.05251">
        <ele>104</ele>
        <time>2019-09-26T08:59:21Z</time>
      </trkpt>
      <trkpt lat="43.71602" lon="5.05248">
        <ele>104</ele>
        <time>2019-09-26T08:59:23Z</time>
      </trkpt>
      <trkpt lat="43.71602" lon="5.05245">
        <ele>104</ele>
        <time>2019-09-26T08:59:25Z</time>
      </trkpt>
      <trkpt lat="43.71603" lon="5.05242">
        <ele>104</ele>
        <time>2019-09-26T08:59:27Z</time>
      </trkpt>
      <trkpt lat="43.71603" lon="5.0524">
        <ele>104</ele>
        <time>2019-09-26T08:59:29Z</time>
      </trkpt>
      <trkpt lat="43.71603" lon="5.05237">
        <ele>104</ele>
        <time>2019-09-26T08:59:31Z</time>
      </trkpt>
      <trkpt lat="43.71604" lon="5.05233">
        <ele>104</ele>
        <time>2019-09-26T08:59:33Z</time>
      </trkpt>
      <trkpt lat="43.71604" lon="5.0523">
        <ele>104</ele>
        <time>2019-09-26T08:59:35Z</time>
      </trkpt>
      <trkpt lat="43.71605" lon="5.05228">
        <ele>104</ele>
        <time>2019-09-26T08:59:37Z</time>
      </trkpt>
      <trkpt lat="43.71606" lon="5.05225">
        <ele>104</ele>
        <time>2019-09-26T08:59:39Z</time>
      </trkpt>
      <trkpt lat="43.71607" lon="5.05222">
        <ele>104</ele>
        <time>2019-09-26T08:59:41Z</time>
      </trkpt>
      <trkpt lat="43.71608" lon="5.05219">
        <ele>104</ele>
        <time>2019-09-26T08:59:43Z</time>
      </trkpt>
      <trkpt lat="43.71608" lon="5.05216">
        <ele>103</ele>
        <time>2019-09-26T08:59:45Z</time>
      </trkpt>
      <trkpt lat="43.71609" lon="5.05213">
        <ele>103</ele>
        <time>2019-09-26T08:59:47Z</time>
      </trkpt>
      <trkpt lat="43.7161" lon="5.0521">
        <ele>103</ele>
        <time>2019-09-26T08:59:49Z</time>
      </trkpt>
      <trkpt lat="43.71611" lon="5.05207">
        <ele>103</ele>
        <time>2019-09-26T08:59:51Z</time>
      </trkpt>
      <trkpt lat="43.71612" lon="5.05204">
        <ele>103</ele>
        <time>2019-09-26T08:59:53Z</time>
      </trkpt>
      <trkpt lat="43.71614" lon="5.05201">
        <ele>104</ele>
        <time>2019-09-26T08:59:55Z</time>
      </trkpt>
      <trkpt lat="43.71615" lon="5.05199">
        <ele>104</ele>
        <time>2019-09-26T08:59:57Z</time>
      </trkpt>
      <trkpt lat="43.71616" lon="5.05196">
        <ele>104</ele>
        <time>2019-09-26T08:59:59Z</time>
      </trkpt>
      <trkpt lat="43.71618" lon="5.05194">
        <ele>104</ele>
        <time>2019-09-26T09:00:01Z</time>
      </trkpt>
      <trkpt lat="43.71619" lon="5.05192">
        <ele>104</ele>
        <time>2019-09-26T09:00:03Z</time>
      </trkpt>
      <trkpt lat="43.71619" lon="5.05192">
        <ele>104</ele>
        <time>2019-09-26T09:00:05Z</time>
      </trkpt>
      <trkpt lat="43.71623" lon="5.05191">
        <ele>104</ele>
        <time>2019-09-26T09:00:06Z</time>
      </trkpt>
      <trkpt lat="43.71625" lon="5.0519">
        <ele>104</ele>
        <time>2019-09-26T09:00:09Z</time>
      </trkpt>
      <trkpt lat="43.71626" lon="5.0519">
        <ele>104</ele>
        <time>2019-09-26T09:00:12Z</time>
      </trkpt>
      <trkpt lat="43.71627" lon="5.0519">
        <ele>104</ele>
        <time>2019-09-26T09:00:14Z</time>
      </trkpt>
      <trkpt lat="43.71629" lon="5.0519">
        <ele>104</ele>
        <time>2019-09-26T09:00:15Z</time>
      </trkpt>
      <trkpt lat="43.71631" lon="5.05189">
        <ele>104</ele>
        <time>2019-09-26T09:00:17Z</time>
      </trkpt>
      <trkpt lat="43.71633" lon="5.05188">
        <ele>104</ele>
        <time>2019-09-26T09:00:20Z</time>
      </trkpt>
      <trkpt lat="43.71635" lon="5.05187">
        <ele>104</ele>
        <time>2019-09-26T09:00:22Z</time>
      </trkpt>
      <trkpt lat="43.71635" lon="5.05187">
        <ele>104</ele>
        <time>2019-09-26T09:00:25Z</time>
      </trkpt>
      <trkpt lat="43.71639" lon="5.05186">
        <ele>104</ele>
        <time>2019-09-26T09:00:28Z</time>
      </trkpt>
      <trkpt lat="43.71641" lon="5.05186">
        <ele>104</ele>
        <time>2019-09-26T09:00:30Z</time>
      </trkpt>
      <trkpt lat="43.71643" lon="5.05185">
        <ele>104</ele>
        <time>2019-09-26T09:00:32Z</time>
      </trkpt>
      <trkpt lat="43.71645" lon="5.05185">
        <ele>104</ele>
        <time>2019-09-26T09:00:34Z</time>
      </trkpt>
      <trkpt lat="43.71647" lon="5.05185">
        <ele>103</ele>
        <time>2019-09-26T09:00:35Z</time>
      </trkpt>
      <trkpt lat="43.71651" lon="5.05184">
        <ele>103</ele>
        <time>2019-09-26T09:00:36Z</time>
      </trkpt>
      <trkpt lat="43.71653" lon="5.05184">
        <ele>103</ele>
        <time>2019-09-26T09:00:38Z</time>
      </trkpt>
      <trkpt lat="43.71655" lon="5.05184">
        <ele>103</ele>
        <time>2019-09-26T09:00:40Z</time>
      </trkpt>
      <trkpt lat="43.71657" lon="5.05183">
        <ele>103</ele>
        <time>2019-09-26T09:00:42Z</time>
      </trkpt>
      <trkpt lat="43.71659" lon="5.05183">
        <ele>103</ele>
        <time>2019-09-26T09:00:44Z</time>
      </trkpt>
      <trkpt lat="43.71661" lon="5.05182">
        <ele>102</ele>
        <time>2019-09-26T09:00:45Z</time>
      </trkpt>
      <trkpt lat="43.71664" lon="5.05182">
        <ele>102</ele>
        <time>2019-09-26T09:00:46Z</time>
      </trkpt>
      <trkpt lat="43.71666" lon="5.05182">
        <ele>102</ele>
        <time>2019-09-26T09:00:48Z</time>
      </trkpt>
      <trkpt lat="43.71668" lon="5.05182">
        <ele>102</ele>
        <time>2019-09-26T09:00:50Z</time>
      </trkpt>
      <trkpt lat="43.7167" lon="5.05181">
        <ele>102</ele>
        <time>2019-09-26T09:00:52Z</time>
      </trkpt>
      <trkpt lat="43.71671" lon="5.05181">
        <ele>102</ele>
        <time>2019-09-26T09:00:54Z</time>
      </trkpt>
      <trkpt lat="43.71673" lon="5.05181">
        <ele>102</ele>
        <time>2019-09-26T09:00:55Z</time>
      </trkpt>
      <trkpt lat="43.71676" lon="5.0518">
        <ele>102</ele>
        <time>2019-09-26T09:00:56Z</time>
      </trkpt>
      <trkpt lat="43.71678" lon="5.0518">
        <ele>102</ele>
        <time>2019-09-26T09:00:58Z</time>
      </trkpt>
      <trkpt lat="43.7168" lon="5.0518">
        <ele>102</ele>
        <time>2019-09-26T09:01:00Z</time>
      </trkpt>
      <trkpt lat="43.71682" lon="5.05179">
        <ele>102</ele>
        <time>2019-09-26T09:01:02Z</time>
      </trkpt>
      <trkpt lat="43.71684" lon="5.05179">
        <ele>102</ele>
        <time>2019-09-26T09:01:04Z</time>
      </trkpt>
      <trkpt lat="43.71686" lon="5.05179">
        <ele>102</ele>
        <time>2019-09-26T09:01:05Z</time>
      </trkpt>
      <trkpt lat="43.71689" lon="5.05178">
        <ele>102</ele>
        <time>2019-09-26T09:01:06Z</time>
      </trkpt>
      <trkpt lat="43.7169" lon="5.05178">
        <ele>102</ele>
        <time>2019-09-26T09:01:08Z</time>
      </trkpt>
      <trkpt lat="43.71692" lon="5.05178">
        <ele>102</ele>
        <time>2019-09-26T09:01:10Z</time>
      </trkpt>
      <trkpt lat="43.71693" lon="5.05177">
        <ele>102</ele>
        <time>2019-09-26T09:01:12Z</time>
      </trkpt>
      <trkpt lat="43.71695" lon="5.05177">
        <ele>102</ele>
        <time>2019-09-26T09:01:14Z</time>
      </trkpt>
      <trkpt lat="43.71697" lon="5.05177">
        <ele>102</ele>
        <time>2019-09-26T09:01:15Z</time>
      </trkpt>
      <trkpt lat="43.717" lon="5.05176">
        <ele>102</ele>
        <time>2019-09-26T09:01:16Z</time>
      </trkpt>
      <trkpt lat="43.71702" lon="5.05176">
        <ele>102</ele>
        <time>2019-09-26T09:01:18Z</time>
      </trkpt>
      <trkpt lat="43.71703" lon="5.05176">
        <ele>102</ele>
        <time>2019-09-26T09:01:20Z</time>
      </trkpt>
      <trkpt lat="43.71705" lon="5.05175">
        <ele>102</ele>
        <time>2019-09-26T09:01:22Z</time>
      </trkpt>
      <trkpt lat="43.71707" lon="5.05175">
        <ele>102</ele>
        <time>2019-09-26T09:01:24Z</time>
      </trkpt>
      <trkpt lat="43.71709" lon="5.05175">
        <ele>102</ele>
        <time>2019-09-26T09:01:25Z</time>
      </trkpt>
      <trkpt lat="43.71712" lon="5.05174">
        <ele>102</ele>
        <time>2019-09-26T09:01:26Z</time>
      </trkpt>
      <trkpt lat="43.71713" lon="5.05174">
        <ele>102</ele>
        <time>2019-09-26T09:01:28Z</time>
      </trkpt>
      <trkpt lat="43.71715" lon="5.05173">
        <ele>102</ele>
        <time>2019-09-26T09:01:30Z</time>
      </trkpt>
      <trkpt lat="43.71717" lon="5.05173">
        <ele>102</ele>
        <time>2019-09-26T09:01:32Z</time>
      </trkpt>
      <trkpt lat="43.71718" lon="5.05172">
        <ele>102</ele>
        <time>2019-09-26T09:01:34Z</time>
      </trkpt>
      <trkpt lat="43.7172" lon="5.05172">
        <ele>102</ele>
        <time>2019-09-26T09:01:35Z</time>
      </trkpt>
      <trkpt lat="43.71722" lon="5.0517">
        <ele>102</ele>
        <time>2019-09-26T09:01:36Z</time>
      </trkpt>
      <trkpt lat="43.71724" lon="5.05169">
        <ele>102</ele>
        <time>2019-09-26T09:01:38Z</time>
      </trkpt>
      <trkpt lat="43.71725" lon="5.05168">
        <ele>102</ele>
        <time>2019-09-26T09:01:40Z</time>
      </trkpt>
      <trkpt lat="43.71726" lon="5.05166">
        <ele>102</ele>
        <time>2019-09-26T09:01:42Z</time>
      </trkpt>
      <trkpt lat="43.71728" lon="5.05165">
        <ele>102</ele>
        <time>2019-09-26T09:01:44Z</time>
      </trkpt>
      <trkpt lat="43.71729" lon="5.05164">
        <ele>102</ele>
        <time>2019-09-26T09:01:45Z</time>
      </trkpt>
      <trkpt lat="43.7173" lon="5.05163">
        <ele>102</ele>
        <time>2019-09-26T09:01:46Z</time>
      </trkpt>
      <trkpt lat="43.71731" lon="5.05161">
        <ele>102</ele>
        <time>2019-09-26T09:01:48Z</time>
      </trkpt>
      <trkpt lat="43.71733" lon="5.05159">
        <ele>102</ele>
        <time>2019-09-26T09:01:51Z</time>
      </trkpt>
      <trkpt lat="43.71734" lon="5.05157">
        <ele>102</ele>
        <time>2019-09-26T09:01:53Z</time>
      </trkpt>
      <trkpt lat="43.71735" lon="5.05154">
        <ele>102</ele>
        <time>2019-09-26T09:01:55Z</time>
      </trkpt>
      <trkpt lat="43.71737" lon="5.05152">
        <ele>102</ele>
        <time>2019-09-26T09:01:57Z</time>
      </trkpt>
      <trkpt lat="43.71738" lon="5.05149">
        <ele>102</ele>
        <time>2019-09-26T09:01:59Z</time>
      </trkpt>
      <trkpt lat="43.71739" lon="5.05146">
        <ele>102</ele>
        <time>2019-09-26T09:02:01Z</time>
      </trkpt>
      <trkpt lat="43.7174" lon="5.05143">
        <ele>102</ele>
        <time>2019-09-26T09:02:03Z</time>
      </trkpt>
      <trkpt lat="43.71741" lon="5.0514">
        <ele>101</ele>
        <time>2019-09-26T09:02:05Z</time>
      </trkpt>
      <trkpt lat="43.71742" lon="5.05137">
        <ele>101</ele>
        <time>2019-09-26T09:02:07Z</time>
      </trkpt>
      <trkpt lat="43.71743" lon="5.05134">
        <ele>101</ele>
        <time>2019-09-26T09:02:09Z</time>
      </trkpt>
      <trkpt lat="43.71744" lon="5.05131">
        <ele>101</ele>
        <time>2019-09-26T09:02:11Z</time>
      </trkpt>
      <trkpt lat="43.71745" lon="5.05128">
        <ele>101</ele>
        <time>2019-09-26T09:02:13Z</time>
      </trkpt>
      <trkpt lat="43.71745" lon="5.05125">
        <ele>101</ele>
        <time>2019-09-26T09:02:15Z</time>
      </trkpt>
      <trkpt lat="43.71746" lon="5.05122">
        <ele>101</ele>
        <time>2019-09-26T09:02:17Z</time>
      </trkpt>
      <trkpt lat="43.71748" lon="5.0512">
        <ele>101</ele>
        <time>2019-09-26T09:02:19Z</time>
      </trkpt>
      <trkpt lat="43.71749" lon="5.05117">
        <ele>101</ele>
        <time>2019-09-26T09:02:21Z</time>
      </trkpt>
      <trkpt lat="43.71749" lon="5.05115">
        <ele>101</ele>
        <time>2019-09-26T09:02:23Z</time>
      </trkpt>
      <trkpt lat="43.7175" lon="5.05111">
        <ele>101</ele>
        <time>2019-09-26T09:02:25Z</time>
      </trkpt>
      <trkpt lat="43.71751" lon="5.05108">
        <ele>101</ele>
        <time>2019-09-26T09:02:27Z</time>
      </trkpt>
      <trkpt lat="43.71752" lon="5.05105">
        <ele>101</ele>
        <time>2019-09-26T09:02:29Z</time>
      </trkpt>
      <trkpt lat="43.71752" lon="5.05102">
        <ele>101</ele>
        <time>2019-09-26T09:02:31Z</time>
      </trkpt>
      <trkpt lat="43.71752" lon="5.05099">
        <ele>101</ele>
        <time>2019-09-26T09:02:33Z</time>
      </trkpt>
      <trkpt lat="43.71752" lon="5.05096">
        <ele>102</ele>
        <time>2019-09-26T09:02:35Z</time>
      </trkpt>
      <trkpt lat="43.71753" lon="5.05093">
        <ele>102</ele>
        <time>2019-09-26T09:02:37Z</time>
      </trkpt>
      <trkpt lat="43.71752" lon="5.0509">
        <ele>102</ele>
        <time>2019-09-26T09:02:39Z</time>
      </trkpt>
      <trkpt lat="43.71753" lon="5.05087">
        <ele>102</ele>
        <time>2019-09-26T09:02:41Z</time>
      </trkpt>
      <trkpt lat="43.71753" lon="5.05084">
        <ele>102</ele>
        <time>2019-09-26T09:02:43Z</time>
      </trkpt>
      <trkpt lat="43.71752" lon="5.05081">
        <ele>102</ele>
        <time>2019-09-26T09:02:45Z</time>
      </trkpt>
      <trkpt lat="43.71752" lon="5.05078">
        <ele>102</ele>
        <time>2019-09-26T09:02:47Z</time>
      </trkpt>
      <trkpt lat="43.71752" lon="5.05075">
        <ele>102</ele>
        <time>2019-09-26T09:02:49Z</time>
      </trkpt>
      <trkpt lat="43.71751" lon="5.05072">
        <ele>102</ele>
        <time>2019-09-26T09:02:51Z</time>
      </trkpt>
      <trkpt lat="43.71751" lon="5.05069">
        <ele>102</ele>
        <time>2019-09-26T09:02:53Z</time>
      </trkpt>
      <trkpt lat="43.71751" lon="5.05066">
        <ele>103</ele>
        <time>2019-09-26T09:02:55Z</time>
      </trkpt>
      <trkpt lat="43.71751" lon="5.05063">
        <ele>103</ele>
        <time>2019-09-26T09:02:57Z</time>
      </trkpt>
      <trkpt lat="43.7175" lon="5.0506">
        <ele>103</ele>
        <time>2019-09-26T09:02:59Z</time>
      </trkpt>
      <trkpt lat="43.7175" lon="5.05057">
        <ele>103</ele>
        <time>2019-09-26T09:03:01Z</time>
      </trkpt>
      <trkpt lat="43.7175" lon="5.05055">
        <ele>103</ele>
        <time>2019-09-26T09:03:03Z</time>
      </trkpt>
      <trkpt lat="43.7175" lon="5.05052">
        <ele>103</ele>
        <time>2019-09-26T09:03:05Z</time>
      </trkpt>
      <trkpt lat="43.7175" lon="5.05049">
        <ele>103</ele>
        <time>2019-09-26T09:03:07Z</time>
      </trkpt>
      <trkpt lat="43.71749" lon="5.05046">
        <ele>103</ele>
        <time>2019-09-26T09:03:09Z</time>
      </trkpt>
      <trkpt lat="43.71748" lon="5.05044">
        <ele>103</ele>
        <time>2019-09-26T09:03:11Z</time>
      </trkpt>
      <trkpt lat="43.71746" lon="5.05041">
        <ele>103</ele>
        <time>2019-09-26T09:03:13Z</time>
      </trkpt>
      <trkpt lat="43.71745" lon="5.05039">
        <ele>104</ele>
        <time>2019-09-26T09:03:15Z</time>
      </trkpt>
      <trkpt lat="43.71744" lon="5.05037">
        <ele>104</ele>
        <time>2019-09-26T09:03:17Z</time>
      </trkpt>
      <trkpt lat="43.71743" lon="5.05034">
        <ele>104</ele>
        <time>2019-09-26T09:03:19Z</time>
      </trkpt>
      <trkpt lat="43.71742" lon="5.05032">
        <ele>104</ele>
        <time>2019-09-26T09:03:21Z</time>
      </trkpt>
      <trkpt lat="43.71742" lon="5.05029">
        <ele>104</ele>
        <time>2019-09-26T09:03:23Z</time>
      </trkpt>
      <trkpt lat="43.71741" lon="5.05026">
        <ele>104</ele>
        <time>2019-09-26T09:03:25Z</time>
      </trkpt>
      <trkpt lat="43.71741" lon="5.05023">
        <ele>104</ele>
        <time>2019-09-26T09:03:27Z</time>
      </trkpt>
      <trkpt lat="43.71741" lon="5.05021">
        <ele>104</ele>
        <time>2019-09-26T09:03:29Z</time>
      </trkpt>
      <trkpt lat="43.71741" lon="5.05018">
        <ele>104</ele>
        <time>2019-09-26T09:03:31Z</time>
      </trkpt>
      <trkpt lat="43.71741" lon="5.05015">
        <ele>104</ele>
        <time>2019-09-26T09:03:33Z</time>
      </trkpt>
      <trkpt lat="43.7174" lon="5.05012">
        <ele>103</ele>
        <time>2019-09-26T09:03:35Z</time>
      </trkpt>
      <trkpt lat="43.7174" lon="5.05009">
        <ele>103</ele>
        <time>2019-09-26T09:03:37Z</time>
      </trkpt>
      <trkpt lat="43.7174" lon="5.05007">
        <ele>103</ele>
        <time>2019-09-26T09:03:39Z</time>
      </trkpt>
      <trkpt lat="43.71741" lon="5.05004">
        <ele>103</ele>
        <time>2019-09-26T09:03:41Z</time>
      </trkpt>
      <trkpt lat="43.71741" lon="5.05001">
        <ele>103</ele>
        <time>2019-09-26T09:03:43Z</time>
      </trkpt>
      <trkpt lat="43.7174" lon="5.04998">
        <ele>103</ele>
        <time>2019-09-26T09:03:45Z</time>
      </trkpt>
      <trkpt lat="43.7174" lon="5.04995">
        <ele>103</ele>
        <time>2019-09-26T09:03:47Z</time>
      </trkpt>
      <trkpt lat="43.7174" lon="5.04992">
        <ele>103</ele>
        <time>2019-09-26T09:03:49Z</time>
      </trkpt>
      <trkpt lat="43.71739" lon="5.04989">
        <ele>103</ele>
        <time>2019-09-26T09:03:51Z</time>
      </trkpt>
      <trkpt lat="43.71739" lon="5.04986">
        <ele>103</ele>
        <time>2019-09-26T09:03:53Z</time>
      </trkpt>
      <trkpt lat="43.71739" lon="5.04983">
        <ele>104</ele>
        <time>2019-09-26T09:03:55Z</time>
      </trkpt>
      <trkpt lat="43.71739" lon="5.04981">
        <ele>104</ele>
        <time>2019-09-26T09:03:57Z</time>
      </trkpt>
      <trkpt lat="43.71739" lon="5.04978">
        <ele>104</ele>
        <time>2019-09-26T09:03:59Z</time>
      </trkpt>
      <trkpt lat="43.71738" lon="5.04974">
        <ele>104</ele>
        <time>2019-09-26T09:04:01Z</time>
      </trkpt>
      <trkpt lat="43.71738" lon="5.04971">
        <ele>104</ele>
        <time>2019-09-26T09:04:03Z</time>
      </trkpt>
      <trkpt lat="43.71738" lon="5.04968">
        <ele>104</ele>
        <time>2019-09-26T09:04:05Z</time>
      </trkpt>
      <trkpt lat="43.71737" lon="5.04965">
        <ele>104</ele>
        <time>2019-09-26T09:04:07Z</time>
      </trkpt>
      <trkpt lat="43.71737" lon="5.04962">
        <ele>104</ele>
        <time>2019-09-26T09:04:09Z</time>
      </trkpt>
      <trkpt lat="43.71737" lon="5.04959">
        <ele>104</ele>
        <time>2019-09-26T09:04:11Z</time>
      </trkpt>
      <trkpt lat="43.71737" lon="5.04955">
        <ele>104</ele>
        <time>2019-09-26T09:04:13Z</time>
      </trkpt>
      <trkpt lat="43.71736" lon="5.04953">
        <ele>104</ele>
        <time>2019-09-26T09:04:15Z</time>
      </trkpt>
      <trkpt lat="43.71736" lon="5.04947">
        <ele>104</ele>
        <time>2019-09-26T09:04:17Z</time>
      </trkpt>
      <trkpt lat="43.71736" lon="5.04945">
        <ele>104</ele>
        <time>2019-09-26T09:04:20Z</time>
      </trkpt>
      <trkpt lat="43.71736" lon="5.04943">
        <ele>104</ele>
        <time>2019-09-26T09:04:22Z</time>
      </trkpt>
      <trkpt lat="43.71736" lon="5.04942">
        <ele>104</ele>
        <time>2019-09-26T09:04:24Z</time>
      </trkpt>
      <trkpt lat="43.71736" lon="5.0494">
        <ele>104</ele>
        <time>2019-09-26T09:04:25Z</time>
      </trkpt>
      <trkpt lat="43.71736" lon="5.04936">
        <ele>104</ele>
        <time>2019-09-26T09:04:27Z</time>
      </trkpt>
      <trkpt lat="43.71736" lon="5.04932">
        <ele>104</ele>
        <time>2019-09-26T09:04:29Z</time>
      </trkpt>
      <trkpt lat="43.71736" lon="5.04929">
        <ele>104</ele>
        <time>2019-09-26T09:04:31Z</time>
      </trkpt>
      <trkpt lat="43.71736" lon="5.04926">
        <ele>104</ele>
        <time>2019-09-26T09:04:33Z</time>
      </trkpt>
      <trkpt lat="43.71735" lon="5.04923">
        <ele>104</ele>
        <time>2019-09-26T09:04:35Z</time>
      </trkpt>
      <trkpt lat="43.71735" lon="5.0492">
        <ele>104</ele>
        <time>2019-09-26T09:04:37Z</time>
      </trkpt>
      <trkpt lat="43.71735" lon="5.04917">
        <ele>104</ele>
        <time>2019-09-26T09:04:39Z</time>
      </trkpt>
      <trkpt lat="43.71735" lon="5.04914">
        <ele>104</ele>
        <time>2019-09-26T09:04:41Z</time>
      </trkpt>
      <trkpt lat="43.71735" lon="5.04911">
        <ele>104</ele>
        <time>2019-09-26T09:04:43Z</time>
      </trkpt>
      <trkpt lat="43.71735" lon="5.04908">
        <ele>104</ele>
        <time>2019-09-26T09:04:45Z</time>
      </trkpt>
      <trkpt lat="43.71735" lon="5.04905">
        <ele>104</ele>
        <time>2019-09-26T09:04:47Z</time>
      </trkpt>
      <trkpt lat="43.71734" lon="5.04902">
        <ele>104</ele>
        <time>2019-09-26T09:04:49Z</time>
      </trkpt>
      <trkpt lat="43.71734" lon="5.04899">
        <ele>104</ele>
        <time>2019-09-26T09:04:51Z</time>
      </trkpt>
      <trkpt lat="43.71734" lon="5.04895">
        <ele>104</ele>
        <time>2019-09-26T09:04:53Z</time>
      </trkpt>
      <trkpt lat="43.71734" lon="5.04892">
        <ele>104</ele>
        <time>2019-09-26T09:04:55Z</time>
      </trkpt>
      <trkpt lat="43.71733" lon="5.04889">
        <ele>104</ele>
        <time>2019-09-26T09:04:57Z</time>
      </trkpt>
      <trkpt lat="43.71733" lon="5.04885">
        <ele>104</ele>
        <time>2019-09-26T09:04:59Z</time>
      </trkpt>
      <trkpt lat="43.71733" lon="5.04883">
        <ele>104</ele>
        <time>2019-09-26T09:05:01Z</time>
      </trkpt>
      <trkpt lat="43.71733" lon="5.04879">
        <ele>104</ele>
        <time>2019-09-26T09:05:03Z</time>
      </trkpt>
      <trkpt lat="43.71733" lon="5.04876">
        <ele>105</ele>
        <time>2019-09-26T09:05:05Z</time>
      </trkpt>
      <trkpt lat="43.71732" lon="5.04873">
        <ele>105</ele>
        <time>2019-09-26T09:05:07Z</time>
      </trkpt>
      <trkpt lat="43.71732" lon="5.04869">
        <ele>105</ele>
        <time>2019-09-26T09:05:09Z</time>
      </trkpt>
      <trkpt lat="43.71732" lon="5.04866">
        <ele>105</ele>
        <time>2019-09-26T09:05:11Z</time>
      </trkpt>
      <trkpt lat="43.71731" lon="5.04863">
        <ele>105</ele>
        <time>2019-09-26T09:05:13Z</time>
      </trkpt>
      <trkpt lat="43.7173" lon="5.04859">
        <ele>105</ele>
        <time>2019-09-26T09:05:15Z</time>
      </trkpt>
      <trkpt lat="43.71729" lon="5.04856">
        <ele>105</ele>
        <time>2019-09-26T09:05:17Z</time>
      </trkpt>
      <trkpt lat="43.71728" lon="5.04853">
        <ele>105</ele>
        <time>2019-09-26T09:05:19Z</time>
      </trkpt>
      <trkpt lat="43.71727" lon="5.0485">
        <ele>105</ele>
        <time>2019-09-26T09:05:21Z</time>
      </trkpt>
      <trkpt lat="43.71726" lon="5.04847">
        <ele>105</ele>
        <time>2019-09-26T09:05:23Z</time>
      </trkpt>
      <trkpt lat="43.71726" lon="5.04844">
        <ele>104</ele>
        <time>2019-09-26T09:05:25Z</time>
      </trkpt>
      <trkpt lat="43.71726" lon="5.04841">
        <ele>104</ele>
        <time>2019-09-26T09:05:27Z</time>
      </trkpt>
      <trkpt lat="43.71725" lon="5.04838">
        <ele>104</ele>
        <time>2019-09-26T09:05:29Z</time>
      </trkpt>
      <trkpt lat="43.71725" lon="5.04835">
        <ele>104</ele>
        <time>2019-09-26T09:05:31Z</time>
      </trkpt>
      <trkpt lat="43.71725" lon="5.04832">
        <ele>104</ele>
        <time>2019-09-26T09:05:33Z</time>
      </trkpt>
      <trkpt lat="43.71724" lon="5.0483">
        <ele>106</ele>
        <time>2019-09-26T09:05:35Z</time>
      </trkpt>
      <trkpt lat="43.71724" lon="5.04827">
        <ele>106</ele>
        <time>2019-09-26T09:05:37Z</time>
      </trkpt>
      <trkpt lat="43.71724" lon="5.04824">
        <ele>106</ele>
        <time>2019-09-26T09:05:39Z</time>
      </trkpt>
      <trkpt lat="43.71724" lon="5.04821">
        <ele>106</ele>
        <time>2019-09-26T09:05:41Z</time>
      </trkpt>
      <trkpt lat="43.71723" lon="5.04818">
        <ele>106</ele>
        <time>2019-09-26T09:05:43Z</time>
      </trkpt>
      <trkpt lat="43.71723" lon="5.04814">
        <ele>106</ele>
        <time>2019-09-26T09:05:45Z</time>
      </trkpt>
      <trkpt lat="43.71723" lon="5.04812">
        <ele>106</ele>
        <time>2019-09-26T09:05:47Z</time>
      </trkpt>
      <trkpt lat="43.71722" lon="5.04808">
        <ele>106</ele>
        <time>2019-09-26T09:05:49Z</time>
      </trkpt>
      <trkpt lat="43.71722" lon="5.04805">
        <ele>106</ele>
        <time>2019-09-26T09:05:51Z</time>
      </trkpt>
      <trkpt lat="43.71721" lon="5.04802">
        <ele>106</ele>
        <time>2019-09-26T09:05:53Z</time>
      </trkpt>
      <trkpt lat="43.7172" lon="5.04799">
        <ele>106</ele>
        <time>2019-09-26T09:05:55Z</time>
      </trkpt>
      <trkpt lat="43.7172" lon="5.04797">
        <ele>106</ele>
        <time>2019-09-26T09:05:57Z</time>
      </trkpt>
      <trkpt lat="43.71719" lon="5.04794">
        <ele>106</ele>
        <time>2019-09-26T09:05:59Z</time>
      </trkpt>
      <trkpt lat="43.71719" lon="5.0479">
        <ele>106</ele>
        <time>2019-09-26T09:06:01Z</time>
      </trkpt>
      <trkpt lat="43.71719" lon="5.04787">
        <ele>106</ele>
        <time>2019-09-26T09:06:03Z</time>
      </trkpt>
      <trkpt lat="43.71719" lon="5.04784">
        <ele>106</ele>
        <time>2019-09-26T09:06:05Z</time>
      </trkpt>
      <trkpt lat="43.71719" lon="5.04781">
        <ele>106</ele>
        <time>2019-09-26T09:06:07Z</time>
      </trkpt>
      <trkpt lat="43.71719" lon="5.04778">
        <ele>106</ele>
        <time>2019-09-26T09:06:09Z</time>
      </trkpt>
      <trkpt lat="43.71719" lon="5.04775">
        <ele>106</ele>
        <time>2019-09-26T09:06:11Z</time>
      </trkpt>
      <trkpt lat="43.71718" lon="5.04771">
        <ele>106</ele>
        <time>2019-09-26T09:06:13Z</time>
      </trkpt>
      <trkpt lat="43.71718" lon="5.04768">
        <ele>105</ele>
        <time>2019-09-26T09:06:15Z</time>
      </trkpt>
      <trkpt lat="43.71718" lon="5.04764">
        <ele>105</ele>
        <time>2019-09-26T09:06:17Z</time>
      </trkpt>
      <trkpt lat="43.71718" lon="5.04761">
        <ele>105</ele>
        <time>2019-09-26T09:06:19Z</time>
      </trkpt>
      <trkpt lat="43.71718" lon="5.04758">
        <ele>105</ele>
        <time>2019-09-26T09:06:21Z</time>
      </trkpt>
      <trkpt lat="43.71718" lon="5.04755">
        <ele>105</ele>
        <time>2019-09-26T09:06:23Z</time>
      </trkpt>
      <trkpt lat="43.71719" lon="5.04752">
        <ele>106</ele>
        <time>2019-09-26T09:06:25Z</time>
      </trkpt>
      <trkpt lat="43.71719" lon="5.04749">
        <ele>106</ele>
        <time>2019-09-26T09:06:27Z</time>
      </trkpt>
      <trkpt lat="43.71718" lon="5.04746">
        <ele>106</ele>
        <time>2019-09-26T09:06:29Z</time>
      </trkpt>
      <trkpt lat="43.71718" lon="5.04743">
        <ele>106</ele>
        <time>2019-09-26T09:06:31Z</time>
      </trkpt>
      <trkpt lat="43.71718" lon="5.0474">
        <ele>106</ele>
        <time>2019-09-26T09:06:33Z</time>
      </trkpt>
      <trkpt lat="43.71718" lon="5.04737">
        <ele>106</ele>
        <time>2019-09-26T09:06:35Z</time>
      </trkpt>
      <trkpt lat="43.71718" lon="5.04734">
        <ele>106</ele>
        <time>2019-09-26T09:06:37Z</time>
      </trkpt>
      <trkpt lat="43.71719" lon="5.04731">
        <ele>106</ele>
        <time>2019-09-26T09:06:39Z</time>
      </trkpt>
      <trkpt lat="43.71718" lon="5.04728">
        <ele>106</ele>
        <time>2019-09-26T09:06:41Z</time>
      </trkpt>
      <trkpt lat="43.71719" lon="5.04725">
        <ele>106</ele>
        <time>2019-09-26T09:06:43Z</time>
      </trkpt>
      <trkpt lat="43.71719" lon="5.04722">
        <ele>105</ele>
        <time>2019-09-26T09:06:45Z</time>
      </trkpt>
      <trkpt lat="43.7172" lon="5.04718">
        <ele>105</ele>
        <time>2019-09-26T09:06:47Z</time>
      </trkpt>
      <trkpt lat="43.7172" lon="5.04715">
        <ele>105</ele>
        <time>2019-09-26T09:06:49Z</time>
      </trkpt>
      <trkpt lat="43.7172" lon="5.04711">
        <ele>105</ele>
        <time>2019-09-26T09:06:51Z</time>
      </trkpt>
      <trkpt lat="43.71721" lon="5.04708">
        <ele>105</ele>
        <time>2019-09-26T09:06:53Z</time>
      </trkpt>
      <trkpt lat="43.71721" lon="5.04705">
        <ele>105</ele>
        <time>2019-09-26T09:06:55Z</time>
      </trkpt>
      <trkpt lat="43.71721" lon="5.04702">
        <ele>105</ele>
        <time>2019-09-26T09:06:57Z</time>
      </trkpt>
      <trkpt lat="43.7172" lon="5.047">
        <ele>105</ele>
        <time>2019-09-26T09:06:59Z</time>
      </trkpt>
      <trkpt lat="43.7172" lon="5.04697">
        <ele>105</ele>
        <time>2019-09-26T09:07:01Z</time>
      </trkpt>
      <trkpt lat="43.71719" lon="5.04694">
        <ele>105</ele>
        <time>2019-09-26T09:07:03Z</time>
      </trkpt>
      <trkpt lat="43.71718" lon="5.04691">
        <ele>105</ele>
        <time>2019-09-26T09:07:05Z</time>
      </trkpt>
      <trkpt lat="43.71718" lon="5.04688">
        <ele>105</ele>
        <time>2019-09-26T09:07:07Z</time>
      </trkpt>
      <trkpt lat="43.71719" lon="5.04685">
        <ele>105</ele>
        <time>2019-09-26T09:07:09Z</time>
      </trkpt>
      <trkpt lat="43.71719" lon="5.04682">
        <ele>105</ele>
        <time>2019-09-26T09:07:11Z</time>
      </trkpt>
      <trkpt lat="43.71719" lon="5.04679">
        <ele>105</ele>
        <time>2019-09-26T09:07:13Z</time>
      </trkpt>
      <trkpt lat="43.7172" lon="5.04676">
        <ele>106</ele>
        <time>2019-09-26T09:07:15Z</time>
      </trkpt>
      <trkpt lat="43.7172" lon="5.04672">
        <ele>106</ele>
        <time>2019-09-26T09:07:17Z</time>
      </trkpt>
      <trkpt lat="43.7172" lon="5.04669">
        <ele>106</ele>
        <time>2019-09-26T09:07:19Z</time>
      </trkpt>
      <trkpt lat="43.7172" lon="5.04666">
        <ele>106</ele>
        <time>2019-09-26T09:07:21Z</time>
      </trkpt>
      <trkpt lat="43.71721" lon="5.04663">
        <ele>106</ele>
        <time>2019-09-26T09:07:23Z</time>
      </trkpt>
      <trkpt lat="43.71721" lon="5.0466">
        <ele>106</ele>
        <time>2019-09-26T09:07:25Z</time>
      </trkpt>
      <trkpt lat="43.71722" lon="5.04657">
        <ele>106</ele>
        <time>2019-09-26T09:07:27Z</time>
      </trkpt>
      <trkpt lat="43.71722" lon="5.04653">
        <ele>106</ele>
        <time>2019-09-26T09:07:29Z</time>
      </trkpt>
      <trkpt lat="43.71722" lon="5.0465">
        <ele>106</ele>
        <time>2019-09-26T09:07:31Z</time>
      </trkpt>
      <trkpt lat="43.71723" lon="5.04647">
        <ele>106</ele>
        <time>2019-09-26T09:07:33Z</time>
      </trkpt>
      <trkpt lat="43.71723" lon="5.04644">
        <ele>105</ele>
        <time>2019-09-26T09:07:35Z</time>
      </trkpt>
      <trkpt lat="43.71723" lon="5.04638">
        <ele>105</ele>
        <time>2019-09-26T09:07:37Z</time>
      </trkpt>
      <trkpt lat="43.71724" lon="5.04636">
        <ele>105</ele>
        <time>2019-09-26T09:07:39Z</time>
      </trkpt>
      <trkpt lat="43.71724" lon="5.04634">
        <ele>105</ele>
        <time>2019-09-26T09:07:42Z</time>
      </trkpt>
      <trkpt lat="43.71724" lon="5.04632">
        <ele>105</ele>
        <time>2019-09-26T09:07:44Z</time>
      </trkpt>
      <trkpt lat="43.71724" lon="5.0463">
        <ele>106</ele>
        <time>2019-09-26T09:07:45Z</time>
      </trkpt>
      <trkpt lat="43.71724" lon="5.04629">
        <ele>106</ele>
        <time>2019-09-26T09:07:46Z</time>
      </trkpt>
      <trkpt lat="43.71725" lon="5.04626">
        <ele>106</ele>
        <time>2019-09-26T09:07:48Z</time>
      </trkpt>
      <trkpt lat="43.71725" lon="5.04623">
        <ele>106</ele>
        <time>2019-09-26T09:07:50Z</time>
      </trkpt>
      <trkpt lat="43.71726" lon="5.0462">
        <ele>106</ele>
        <time>2019-09-26T09:07:52Z</time>
      </trkpt>
      <trkpt lat="43.71727" lon="5.04616">
        <ele>106</ele>
        <time>2019-09-26T09:07:55Z</time>
      </trkpt>
      <trkpt lat="43.71727" lon="5.04613">
        <ele>106</ele>
        <time>2019-09-26T09:07:57Z</time>
      </trkpt>
      <trkpt lat="43.71727" lon="5.04609">
        <ele>106</ele>
        <time>2019-09-26T09:07:59Z</time>
      </trkpt>
      <trkpt lat="43.71727" lon="5.04607">
        <ele>106</ele>
        <time>2019-09-26T09:08:01Z</time>
      </trkpt>
      <trkpt lat="43.71727" lon="5.04604">
        <ele>106</ele>
        <time>2019-09-26T09:08:03Z</time>
      </trkpt>
      <trkpt lat="43.71727" lon="5.04604">
        <ele>106</ele>
        <time>2019-09-26T09:08:05Z</time>
      </trkpt>
      <trkpt lat="43.71728" lon="5.04599">
        <ele>106</ele>
        <time>2019-09-26T09:08:06Z</time>
      </trkpt>
      <trkpt lat="43.71728" lon="5.04597">
        <ele>106</ele>
        <time>2019-09-26T09:08:09Z</time>
      </trkpt>
      <trkpt lat="43.71728" lon="5.04595">
        <ele>106</ele>
        <time>2019-09-26T09:08:12Z</time>
      </trkpt>
      <trkpt lat="43.71728" lon="5.04593">
        <ele>106</ele>
        <time>2019-09-26T09:08:15Z</time>
      </trkpt>
      <trkpt lat="43.71728" lon="5.04591">
        <ele>106</ele>
        <time>2019-09-26T09:08:22Z</time>
      </trkpt>
      <trkpt lat="43.71728" lon="5.04589">
        <ele>106</ele>
        <time>2019-09-26T09:08:25Z</time>
      </trkpt>
      <trkpt lat="43.71728" lon="5.04587">
        <ele>106</ele>
        <time>2019-09-26T09:08:29Z</time>
      </trkpt>
      <trkpt lat="43.71728" lon="5.04584">
        <ele>106</ele>
        <time>2019-09-26T09:08:30Z</time>
      </trkpt>
      <trkpt lat="43.71728" lon="5.04582">
        <ele>106</ele>
        <time>2019-09-26T09:10:21Z</time>
      </trkpt>
      <trkpt lat="43.71728" lon="5.0458">
        <ele>106</ele>
        <time>2019-09-26T09:10:22Z</time>
      </trkpt>
      <trkpt lat="43.71728" lon="5.04578">
        <ele>106</ele>
        <time>2019-09-26T09:10:25Z</time>
      </trkpt>
      <trkpt lat="43.71728" lon="5.04576">
        <ele>106</ele>
        <time>2019-09-26T09:10:27Z</time>
      </trkpt>
      <trkpt lat="43.71728" lon="5.04574">
        <ele>106</ele>
        <time>2019-09-26T09:10:29Z</time>
      </trkpt>
      <trkpt lat="43.71728" lon="5.04572">
        <ele>106</ele>
        <time>2019-09-26T09:10:30Z</time>
      </trkpt>
      <trkpt lat="43.71728" lon="5.04566">
        <ele>106</ele>
        <time>2019-09-26T09:10:32Z</time>
      </trkpt>
      <trkpt lat="43.71727" lon="5.04564">
        <ele>106</ele>
        <time>2019-09-26T09:10:35Z</time>
      </trkpt>
      <trkpt lat="43.71727" lon="5.04562">
        <ele>106</ele>
        <time>2019-09-26T09:10:37Z</time>
      </trkpt>
      <trkpt lat="43.71727" lon="5.0456">
        <ele>106</ele>
        <time>2019-09-26T09:10:39Z</time>
      </trkpt>
      <trkpt lat="43.71727" lon="5.04558">
        <ele>106</ele>
        <time>2019-09-26T09:10:40Z</time>
      </trkpt>
      <trkpt lat="43.71726" lon="5.04554">
        <ele>106</ele>
        <time>2019-09-26T09:10:41Z</time>
      </trkpt>
      <trkpt lat="43.71726" lon="5.04551">
        <ele>106</ele>
        <time>2019-09-26T09:10:43Z</time>
      </trkpt>
      <trkpt lat="43.71725" lon="5.04549">
        <ele>106</ele>
        <time>2019-09-26T09:10:45Z</time>
      </trkpt>
      <trkpt lat="43.71725" lon="5.04547">
        <ele>106</ele>
        <time>2019-09-26T09:10:47Z</time>
      </trkpt>
      <trkpt lat="43.71725" lon="5.04544">
        <ele>106</ele>
        <time>2019-09-26T09:10:49Z</time>
      </trkpt>
      <trkpt lat="43.71724" lon="5.04542">
        <ele>106</ele>
        <time>2019-09-26T09:10:50Z</time>
      </trkpt>
      <trkpt lat="43.71724" lon="5.04538">
        <ele>106</ele>
        <time>2019-09-26T09:10:51Z</time>
      </trkpt>
      <trkpt lat="43.71724" lon="5.04536">
        <ele>106</ele>
        <time>2019-09-26T09:10:53Z</time>
      </trkpt>
      <trkpt lat="43.71724" lon="5.04533">
        <ele>106</ele>
        <time>2019-09-26T09:10:55Z</time>
      </trkpt>
      <trkpt lat="43.71723" lon="5.04531">
        <ele>106</ele>
        <time>2019-09-26T09:10:57Z</time>
      </trkpt>
      <trkpt lat="43.71723" lon="5.04529">
        <ele>106</ele>
        <time>2019-09-26T09:10:59Z</time>
      </trkpt>
      <trkpt lat="43.71723" lon="5.04526">
        <ele>106</ele>
        <time>2019-09-26T09:11:00Z</time>
      </trkpt>
      <trkpt lat="43.71723" lon="5.04523">
        <ele>106</ele>
        <time>2019-09-26T09:11:02Z</time>
      </trkpt>
      <trkpt lat="43.71723" lon="5.0452">
        <ele>106</ele>
        <time>2019-09-26T09:11:04Z</time>
      </trkpt>
      <trkpt lat="43.71723" lon="5.04516">
        <ele>106</ele>
        <time>2019-09-26T09:11:06Z</time>
      </trkpt>
      <trkpt lat="43.71723" lon="5.04513">
        <ele>106</ele>
        <time>2019-09-26T09:11:08Z</time>
      </trkpt>
      <trkpt lat="43.71723" lon="5.0451">
        <ele>106</ele>
        <time>2019-09-26T09:11:10Z</time>
      </trkpt>
      <trkpt lat="43.71723" lon="5.04507">
        <ele>106</ele>
        <time>2019-09-26T09:11:12Z</time>
      </trkpt>
      <trkpt lat="43.71723" lon="5.04505">
        <ele>106</ele>
        <time>2019-09-26T09:11:14Z</time>
      </trkpt>
      <trkpt lat="43.71723" lon="5.04502">
        <ele>106</ele>
        <time>2019-09-26T09:11:16Z</time>
      </trkpt>
      <trkpt lat="43.71723" lon="5.04499">
        <ele>106</ele>
        <time>2019-09-26T09:11:18Z</time>
      </trkpt>
      <trkpt lat="43.71723" lon="5.04496">
        <ele>106</ele>
        <time>2019-09-26T09:11:20Z</time>
      </trkpt>
      <trkpt lat="43.71722" lon="5.04492">
        <ele>106</ele>
        <time>2019-09-26T09:11:22Z</time>
      </trkpt>
      <trkpt lat="43.71722" lon="5.04489">
        <ele>106</ele>
        <time>2019-09-26T09:11:24Z</time>
      </trkpt>
      <trkpt lat="43.71722" lon="5.04486">
        <ele>106</ele>
        <time>2019-09-26T09:11:26Z</time>
      </trkpt>
      <trkpt lat="43.71722" lon="5.04483">
        <ele>106</ele>
        <time>2019-09-26T09:11:28Z</time>
      </trkpt>
      <trkpt lat="43.71723" lon="5.04479">
        <ele>106</ele>
        <time>2019-09-26T09:11:30Z</time>
      </trkpt>
      <trkpt lat="43.71724" lon="5.04476">
        <ele>106</ele>
        <time>2019-09-26T09:11:32Z</time>
      </trkpt>
      <trkpt lat="43.71724" lon="5.04472">
        <ele>106</ele>
        <time>2019-09-26T09:11:34Z</time>
      </trkpt>
      <trkpt lat="43.71726" lon="5.04469">
        <ele>106</ele>
        <time>2019-09-26T09:11:36Z</time>
      </trkpt>
      <trkpt lat="43.71727" lon="5.04466">
        <ele>106</ele>
        <time>2019-09-26T09:11:38Z</time>
      </trkpt>
      <trkpt lat="43.71728" lon="5.04463">
        <ele>106</ele>
        <time>2019-09-26T09:11:40Z</time>
      </trkpt>
      <trkpt lat="43.71728" lon="5.0446">
        <ele>106</ele>
        <time>2019-09-26T09:11:42Z</time>
      </trkpt>
      <trkpt lat="43.71729" lon="5.04456">
        <ele>106</ele>
        <time>2019-09-26T09:11:44Z</time>
      </trkpt>
      <trkpt lat="43.71731" lon="5.04453">
        <ele>106</ele>
        <time>2019-09-26T09:11:46Z</time>
      </trkpt>
      <trkpt lat="43.71732" lon="5.0445">
        <ele>106</ele>
        <time>2019-09-26T09:11:48Z</time>
      </trkpt>
      <trkpt lat="43.71733" lon="5.04447">
        <ele>106</ele>
        <time>2019-09-26T09:11:50Z</time>
      </trkpt>
      <trkpt lat="43.71733" lon="5.04445">
        <ele>106</ele>
        <time>2019-09-26T09:11:52Z</time>
      </trkpt>
      <trkpt lat="43.71734" lon="5.04441">
        <ele>106</ele>
        <time>2019-09-26T09:11:54Z</time>
      </trkpt>
      <trkpt lat="43.71734" lon="5.04438">
        <ele>106</ele>
        <time>2019-09-26T09:11:56Z</time>
      </trkpt>
      <trkpt lat="43.71734" lon="5.04435">
        <ele>106</ele>
        <time>2019-09-26T09:11:58Z</time>
      </trkpt>
      <trkpt lat="43.71733" lon="5.04431">
        <ele>106</ele>
        <time>2019-09-26T09:12:00Z</time>
      </trkpt>
      <trkpt lat="43.71732" lon="5.04426">
        <ele>106</ele>
        <time>2019-09-26T09:12:02Z</time>
      </trkpt>
      <trkpt lat="43.71732" lon="5.04424">
        <ele>106</ele>
        <time>2019-09-26T09:12:05Z</time>
      </trkpt>
      <trkpt lat="43.71732" lon="5.04421">
        <ele>106</ele>
        <time>2019-09-26T09:12:07Z</time>
      </trkpt>
      <trkpt lat="43.71732" lon="5.04419">
        <ele>106</ele>
        <time>2019-09-26T09:12:09Z</time>
      </trkpt>
      <trkpt lat="43.71731" lon="5.04417">
        <ele>106</ele>
        <time>2019-09-26T09:12:10Z</time>
      </trkpt>
      <trkpt lat="43.71731" lon="5.04413">
        <ele>106</ele>
        <time>2019-09-26T09:12:11Z</time>
      </trkpt>
      <trkpt lat="43.71731" lon="5.0441">
        <ele>106</ele>
        <time>2019-09-26T09:12:13Z</time>
      </trkpt>
      <trkpt lat="43.71731" lon="5.04407">
        <ele>106</ele>
        <time>2019-09-26T09:12:15Z</time>
      </trkpt>
      <trkpt lat="43.71731" lon="5.04405">
        <ele>106</ele>
        <time>2019-09-26T09:12:17Z</time>
      </trkpt>
      <trkpt lat="43.71731" lon="5.04402">
        <ele>106</ele>
        <time>2019-09-26T09:12:19Z</time>
      </trkpt>
      <trkpt lat="43.71731" lon="5.044">
        <ele>106</ele>
        <time>2019-09-26T09:12:20Z</time>
      </trkpt>
      <trkpt lat="43.71731" lon="5.04395">
        <ele>106</ele>
        <time>2019-09-26T09:12:21Z</time>
      </trkpt>
      <trkpt lat="43.71731" lon="5.04393">
        <ele>106</ele>
        <time>2019-09-26T09:12:23Z</time>
      </trkpt>
      <trkpt lat="43.71731" lon="5.0439">
        <ele>106</ele>
        <time>2019-09-26T09:12:25Z</time>
      </trkpt>
      <trkpt lat="43.71731" lon="5.04388">
        <ele>106</ele>
        <time>2019-09-26T09:12:27Z</time>
      </trkpt>
      <trkpt lat="43.71731" lon="5.04385">
        <ele>106</ele>
        <time>2019-09-26T09:12:29Z</time>
      </trkpt>
      <trkpt lat="43.71731" lon="5.04383">
        <ele>106</ele>
        <time>2019-09-26T09:12:30Z</time>
      </trkpt>
      <trkpt lat="43.7173" lon="5.04379">
        <ele>106</ele>
        <time>2019-09-26T09:12:31Z</time>
      </trkpt>
      <trkpt lat="43.7173" lon="5.04377">
        <ele>106</ele>
        <time>2019-09-26T09:12:33Z</time>
      </trkpt>
      <trkpt lat="43.71729" lon="5.04374">
        <ele>106</ele>
        <time>2019-09-26T09:12:35Z</time>
      </trkpt>
      <trkpt lat="43.71729" lon="5.04372">
        <ele>106</ele>
        <time>2019-09-26T09:12:37Z</time>
      </trkpt>
      <trkpt lat="43.71728" lon="5.0437">
        <ele>106</ele>
        <time>2019-09-26T09:12:39Z</time>
      </trkpt>
      <trkpt lat="43.71728" lon="5.04367">
        <ele>106</ele>
        <time>2019-09-26T09:12:40Z</time>
      </trkpt>
      <trkpt lat="43.71728" lon="5.04365">
        <ele>106</ele>
        <time>2019-09-26T09:12:41Z</time>
      </trkpt>
      <trkpt lat="43.71728" lon="5.04362">
        <ele>106</ele>
        <time>2019-09-26T09:12:43Z</time>
      </trkpt>
      <trkpt lat="43.71727" lon="5.04359">
        <ele>106</ele>
        <time>2019-09-26T09:12:45Z</time>
      </trkpt>
      <trkpt lat="43.71727" lon="5.04356">
        <ele>106</ele>
        <time>2019-09-26T09:12:47Z</time>
      </trkpt>
      <trkpt lat="43.71727" lon="5.04352">
        <ele>106</ele>
        <time>2019-09-26T09:12:49Z</time>
      </trkpt>
      <trkpt lat="43.71726" lon="5.04348">
        <ele>106</ele>
        <time>2019-09-26T09:12:51Z</time>
      </trkpt>
      <trkpt lat="43.71726" lon="5.04343">
        <ele>106</ele>
        <time>2019-09-26T09:12:53Z</time>
      </trkpt>
      <trkpt lat="43.71726" lon="5.04341">
        <ele>106</ele>
        <time>2019-09-26T09:12:55Z</time>
      </trkpt>
      <trkpt lat="43.71726" lon="5.04339">
        <ele>106</ele>
        <time>2019-09-26T09:12:57Z</time>
      </trkpt>
      <trkpt lat="43.71726" lon="5.04337">
        <ele>106</ele>
        <time>2019-09-26T09:12:59Z</time>
      </trkpt>
      <trkpt lat="43.71726" lon="5.04335">
        <ele>106</ele>
        <time>2019-09-26T09:13:00Z</time>
      </trkpt>
      <trkpt lat="43.71726" lon="5.04331">
        <ele>106</ele>
        <time>2019-09-26T09:13:01Z</time>
      </trkpt>
      <trkpt lat="43.71725" lon="5.04329">
        <ele>106</ele>
        <time>2019-09-26T09:13:03Z</time>
      </trkpt>
      <trkpt lat="43.71725" lon="5.04326">
        <ele>106</ele>
        <time>2019-09-26T09:13:05Z</time>
      </trkpt>
      <trkpt lat="43.71725" lon="5.04324">
        <ele>106</ele>
        <time>2019-09-26T09:13:07Z</time>
      </trkpt>
      <trkpt lat="43.71725" lon="5.04322">
        <ele>106</ele>
        <time>2019-09-26T09:13:09Z</time>
      </trkpt>
      <trkpt lat="43.71725" lon="5.04319">
        <ele>106</ele>
        <time>2019-09-26T09:13:10Z</time>
      </trkpt>
      <trkpt lat="43.71725" lon="5.04318">
        <ele>106</ele>
        <time>2019-09-26T09:13:11Z</time>
      </trkpt>
      <trkpt lat="43.71725" lon="5.04315">
        <ele>106</ele>
        <time>2019-09-26T09:13:13Z</time>
      </trkpt>
      <trkpt lat="43.71724" lon="5.04313">
        <ele>106</ele>
        <time>2019-09-26T09:13:15Z</time>
      </trkpt>
      <trkpt lat="43.71725" lon="5.04309">
        <ele>106</ele>
        <time>2019-09-26T09:13:18Z</time>
      </trkpt>
      <trkpt lat="43.71725" lon="5.04307">
        <ele>106</ele>
        <time>2019-09-26T09:13:20Z</time>
      </trkpt>
      <trkpt lat="43.71725" lon="5.04303">
        <ele>106</ele>
        <time>2019-09-26T09:13:22Z</time>
      </trkpt>
      <trkpt lat="43.71725" lon="5.04301">
        <ele>106</ele>
        <time>2019-09-26T09:13:24Z</time>
      </trkpt>
      <trkpt lat="43.71726" lon="5.04298">
        <ele>106</ele>
        <time>2019-09-26T09:13:27Z</time>
      </trkpt>
      <trkpt lat="43.71725" lon="5.04295">
        <ele>106</ele>
        <time>2019-09-26T09:13:30Z</time>
      </trkpt>
      <trkpt lat="43.71726" lon="5.0429">
        <ele>106</ele>
        <time>2019-09-26T09:13:32Z</time>
      </trkpt>
      <trkpt lat="43.71726" lon="5.04288">
        <ele>106</ele>
        <time>2019-09-26T09:13:34Z</time>
      </trkpt>
      <trkpt lat="43.71726" lon="5.04286">
        <ele>106</ele>
        <time>2019-09-26T09:13:37Z</time>
      </trkpt>
      <trkpt lat="43.71726" lon="5.04284">
        <ele>106</ele>
        <time>2019-09-26T09:13:39Z</time>
      </trkpt>
      <trkpt lat="43.71726" lon="5.04281">
        <ele>106</ele>
        <time>2019-09-26T09:13:40Z</time>
      </trkpt>
      <trkpt lat="43.71726" lon="5.0428">
        <ele>106</ele>
        <time>2019-09-26T09:13:41Z</time>
      </trkpt>
      <trkpt lat="43.71726" lon="5.04277">
        <ele>106</ele>
        <time>2019-09-26T09:13:43Z</time>
      </trkpt>
      <trkpt lat="43.71726" lon="5.04273">
        <ele>106</ele>
        <time>2019-09-26T09:13:46Z</time>
      </trkpt>
      <trkpt lat="43.71726" lon="5.0427">
        <ele>106</ele>
        <time>2019-09-26T09:13:48Z</time>
      </trkpt>
      <trkpt lat="43.71725" lon="5.04267">
        <ele>106</ele>
        <time>2019-09-26T09:13:50Z</time>
      </trkpt>
      <trkpt lat="43.71725" lon="5.04263">
        <ele>106</ele>
        <time>2019-09-26T09:13:52Z</time>
      </trkpt>
      <trkpt lat="43.71724" lon="5.04259">
        <ele>106</ele>
        <time>2019-09-26T09:13:54Z</time>
      </trkpt>
      <trkpt lat="43.71724" lon="5.04255">
        <ele>106</ele>
        <time>2019-09-26T09:13:56Z</time>
      </trkpt>
      <trkpt lat="43.71724" lon="5.04252">
        <ele>106</ele>
        <time>2019-09-26T09:13:58Z</time>
      </trkpt>
      <trkpt lat="43.71723" lon="5.04248">
        <ele>106</ele>
        <time>2019-09-26T09:14:00Z</time>
      </trkpt>
      <trkpt lat="43.71723" lon="5.04245">
        <ele>106</ele>
        <time>2019-09-26T09:14:02Z</time>
      </trkpt>
      <trkpt lat="43.71723" lon="5.04241">
        <ele>106</ele>
        <time>2019-09-26T09:14:04Z</time>
      </trkpt>
      <trkpt lat="43.71723" lon="5.04238">
        <ele>106</ele>
        <time>2019-09-26T09:14:06Z</time>
      </trkpt>
      <trkpt lat="43.71723" lon="5.04235">
        <ele>106</ele>
        <time>2019-09-26T09:14:08Z</time>
      </trkpt>
      <trkpt lat="43.71723" lon="5.04232">
        <ele>106</ele>
        <time>2019-09-26T09:14:10Z</time>
      </trkpt>
      <trkpt lat="43.71722" lon="5.04228">
        <ele>106</ele>
        <time>2019-09-26T09:14:13Z</time>
      </trkpt>
      <trkpt lat="43.71721" lon="5.04226">
        <ele>106</ele>
        <time>2019-09-26T09:14:16Z</time>
      </trkpt>
      <trkpt lat="43.71721" lon="5.04225">
        <ele>106</ele>
        <time>2019-09-26T09:14:20Z</time>
      </trkpt>
      <trkpt lat="43.7172" lon="5.04223">
        <ele>106</ele>
        <time>2019-09-26T09:14:24Z</time>
      </trkpt>
      <trkpt lat="43.7172" lon="5.04221">
        <ele>106</ele>
        <time>2019-09-26T09:14:27Z</time>
      </trkpt>
      <trkpt lat="43.71719" lon="5.0422">
        <ele>106</ele>
        <time>2019-09-26T09:14:29Z</time>
      </trkpt>
      <trkpt lat="43.71719" lon="5.04218">
        <ele>106</ele>
        <time>2019-09-26T09:14:30Z</time>
      </trkpt>
      <trkpt lat="43.7172" lon="5.04212">
        <ele>106</ele>
        <time>2019-09-26T09:14:31Z</time>
      </trkpt>
      <trkpt lat="43.7172" lon="5.0421">
        <ele>106</ele>
        <time>2019-09-26T09:14:33Z</time>
      </trkpt>
      <trkpt lat="43.7172" lon="5.04208">
        <ele>106</ele>
        <time>2019-09-26T09:14:35Z</time>
      </trkpt>
      <trkpt lat="43.71721" lon="5.04206">
        <ele>106</ele>
        <time>2019-09-26T09:14:37Z</time>
      </trkpt>
      <trkpt lat="43.71721" lon="5.04203">
        <ele>106</ele>
        <time>2019-09-26T09:14:39Z</time>
      </trkpt>
      <trkpt lat="43.71721" lon="5.04201">
        <ele>106</ele>
        <time>2019-09-26T09:14:40Z</time>
      </trkpt>
      <trkpt lat="43.71721" lon="5.04199">
        <ele>106</ele>
        <time>2019-09-26T09:14:41Z</time>
      </trkpt>
      <trkpt lat="43.71722" lon="5.04197">
        <ele>106</ele>
        <time>2019-09-26T09:14:43Z</time>
      </trkpt>
      <trkpt lat="43.71722" lon="5.04193">
        <ele>106</ele>
        <time>2019-09-26T09:14:46Z</time>
      </trkpt>
      <trkpt lat="43.71722" lon="5.0419">
        <ele>106</ele>
        <time>2019-09-26T09:14:48Z</time>
      </trkpt>
      <trkpt lat="43.71722" lon="5.04186">
        <ele>106</ele>
        <time>2019-09-26T09:14:50Z</time>
      </trkpt>
      <trkpt lat="43.71722" lon="5.04184">
        <ele>106</ele>
        <time>2019-09-26T09:14:52Z</time>
      </trkpt>
      <trkpt lat="43.71723" lon="5.0418">
        <ele>106</ele>
        <time>2019-09-26T09:14:55Z</time>
      </trkpt>
      <trkpt lat="43.71723" lon="5.04177">
        <ele>106</ele>
        <time>2019-09-26T09:14:57Z</time>
      </trkpt>
      <trkpt lat="43.71724" lon="5.04174">
        <ele>106</ele>
        <time>2019-09-26T09:14:59Z</time>
      </trkpt>
      <trkpt lat="43.71724" lon="5.04172">
        <ele>106</ele>
        <time>2019-09-26T09:15:01Z</time>
      </trkpt>
      <trkpt lat="43.71725" lon="5.04167">
        <ele>106</ele>
        <time>2019-09-26T09:15:03Z</time>
      </trkpt>
      <trkpt lat="43.71725" lon="5.04165">
        <ele>106</ele>
        <time>2019-09-26T09:15:05Z</time>
      </trkpt>
      <trkpt lat="43.71725" lon="5.04163">
        <ele>106</ele>
        <time>2019-09-26T09:15:07Z</time>
      </trkpt>
      <trkpt lat="43.71725" lon="5.04161">
        <ele>106</ele>
        <time>2019-09-26T09:15:09Z</time>
      </trkpt>
      <trkpt lat="43.71726" lon="5.04159">
        <ele>106</ele>
        <time>2019-09-26T09:15:10Z</time>
      </trkpt>
      <trkpt lat="43.71726" lon="5.04156">
        <ele>106</ele>
        <time>2019-09-26T09:15:11Z</time>
      </trkpt>
      <trkpt lat="43.71726" lon="5.04154">
        <ele>106</ele>
        <time>2019-09-26T09:15:14Z</time>
      </trkpt>
      <trkpt lat="43.71726" lon="5.04152">
        <ele>106</ele>
        <time>2019-09-26T09:15:17Z</time>
      </trkpt>
      <trkpt lat="43.71726" lon="5.0415">
        <ele>106</ele>
        <time>2019-09-26T09:15:19Z</time>
      </trkpt>
      <trkpt lat="43.71726" lon="5.04148">
        <ele>106</ele>
        <time>2019-09-26T09:15:20Z</time>
      </trkpt>
      <trkpt lat="43.71726" lon="5.04143">
        <ele>106</ele>
        <time>2019-09-26T09:15:21Z</time>
      </trkpt>
      <trkpt lat="43.71726" lon="5.0414">
        <ele>106</ele>
        <time>2019-09-26T09:15:23Z</time>
      </trkpt>
      <trkpt lat="43.71727" lon="5.04138">
        <ele>106</ele>
        <time>2019-09-26T09:15:25Z</time>
      </trkpt>
      <trkpt lat="43.71727" lon="5.04136">
        <ele>106</ele>
        <time>2019-09-26T09:15:27Z</time>
      </trkpt>
      <trkpt lat="43.71727" lon="5.04133">
        <ele>106</ele>
        <time>2019-09-26T09:15:29Z</time>
      </trkpt>
      <trkpt lat="43.71727" lon="5.04131">
        <ele>106</ele>
        <time>2019-09-26T09:15:30Z</time>
      </trkpt>
      <trkpt lat="43.71727" lon="5.04127">
        <ele>106</ele>
        <time>2019-09-26T09:15:31Z</time>
      </trkpt>
      <trkpt lat="43.71728" lon="5.04125">
        <ele>106</ele>
        <time>2019-09-26T09:15:34Z</time>
      </trkpt>
      <trkpt lat="43.71728" lon="5.04123">
        <ele>106</ele>
        <time>2019-09-26T09:15:36Z</time>
      </trkpt>
      <trkpt lat="43.71728" lon="5.04121">
        <ele>106</ele>
        <time>2019-09-26T09:15:39Z</time>
      </trkpt>
      <trkpt lat="43.71728" lon="5.0412">
        <ele>106</ele>
        <time>2019-09-26T09:15:40Z</time>
      </trkpt>
      <trkpt lat="43.71729" lon="5.04114">
        <ele>106</ele>
        <time>2019-09-26T09:15:41Z</time>
      </trkpt>
      <trkpt lat="43.71729" lon="5.04112">
        <ele>106</ele>
        <time>2019-09-26T09:15:43Z</time>
      </trkpt>
      <trkpt lat="43.71729" lon="5.0411">
        <ele>106</ele>
        <time>2019-09-26T09:15:45Z</time>
      </trkpt>
      <trkpt lat="43.71729" lon="5.04107">
        <ele>106</ele>
        <time>2019-09-26T09:15:47Z</time>
      </trkpt>
      <trkpt lat="43.71729" lon="5.04105">
        <ele>106</ele>
        <time>2019-09-26T09:15:49Z</time>
      </trkpt>
      <trkpt lat="43.71729" lon="5.04103">
        <ele>106</ele>
        <time>2019-09-26T09:15:50Z</time>
      </trkpt>
      <trkpt lat="43.7173" lon="5.04099">
        <ele>106</ele>
        <time>2019-09-26T09:15:51Z</time>
      </trkpt>
      <trkpt lat="43.7173" lon="5.04097">
        <ele>106</ele>
        <time>2019-09-26T09:15:53Z</time>
      </trkpt>
      <trkpt lat="43.7173" lon="5.04094">
        <ele>106</ele>
        <time>2019-09-26T09:15:55Z</time>
      </trkpt>
      <trkpt lat="43.7173" lon="5.04092">
        <ele>106</ele>
        <time>2019-09-26T09:15:57Z</time>
      </trkpt>
      <trkpt lat="43.71731" lon="5.0409">
        <ele>106</ele>
        <time>2019-09-26T09:15:59Z</time>
      </trkpt>
      <trkpt lat="43.71731" lon="5.04087">
        <ele>106</ele>
        <time>2019-09-26T09:16:00Z</time>
      </trkpt>
      <trkpt lat="43.71731" lon="5.04083">
        <ele>106</ele>
        <time>2019-09-26T09:16:01Z</time>
      </trkpt>
      <trkpt lat="43.71731" lon="5.04081">
        <ele>106</ele>
        <time>2019-09-26T09:16:03Z</time>
      </trkpt>
      <trkpt lat="43.71732" lon="5.04078">
        <ele>106</ele>
        <time>2019-09-26T09:16:05Z</time>
      </trkpt>
      <trkpt lat="43.71732" lon="5.04075">
        <ele>106</ele>
        <time>2019-09-26T09:16:07Z</time>
      </trkpt>
      <trkpt lat="43.71732" lon="5.04073">
        <ele>106</ele>
        <time>2019-09-26T09:16:09Z</time>
      </trkpt>
      <trkpt lat="43.71732" lon="5.0407">
        <ele>106</ele>
        <time>2019-09-26T09:16:10Z</time>
      </trkpt>
      <trkpt lat="43.71733" lon="5.04067">
        <ele>106</ele>
        <time>2019-09-26T09:16:11Z</time>
      </trkpt>
      <trkpt lat="43.71733" lon="5.04064">
        <ele>106</ele>
        <time>2019-09-26T09:16:13Z</time>
      </trkpt>
      <trkpt lat="43.71733" lon="5.04062">
        <ele>106</ele>
        <time>2019-09-26T09:16:15Z</time>
      </trkpt>
      <trkpt lat="43.71733" lon="5.0406">
        <ele>106</ele>
        <time>2019-09-26T09:16:17Z</time>
      </trkpt>
      <trkpt lat="43.71733" lon="5.04057">
        <ele>106</ele>
        <time>2019-09-26T09:16:19Z</time>
      </trkpt>
      <trkpt lat="43.71734" lon="5.04055">
        <ele>106</ele>
        <time>2019-09-26T09:16:20Z</time>
      </trkpt>
      <trkpt lat="43.71734" lon="5.04051">
        <ele>106</ele>
        <time>2019-09-26T09:16:21Z</time>
      </trkpt>
      <trkpt lat="43.71734" lon="5.04049">
        <ele>106</ele>
        <time>2019-09-26T09:16:23Z</time>
      </trkpt>
      <trkpt lat="43.71734" lon="5.04046">
        <ele>106</ele>
        <time>2019-09-26T09:16:25Z</time>
      </trkpt>
      <trkpt lat="43.71734" lon="5.04044">
        <ele>106</ele>
        <time>2019-09-26T09:16:27Z</time>
      </trkpt>
      <trkpt lat="43.71735" lon="5.04042">
        <ele>106</ele>
        <time>2019-09-26T09:16:29Z</time>
      </trkpt>
      <trkpt lat="43.71735" lon="5.04039">
        <ele>106</ele>
        <time>2019-09-26T09:16:30Z</time>
      </trkpt>
      <trkpt lat="43.71735" lon="5.04036">
        <ele>106</ele>
        <time>2019-09-26T09:16:31Z</time>
      </trkpt>
      <trkpt lat="43.71736" lon="5.04034">
        <ele>106</ele>
        <time>2019-09-26T09:16:33Z</time>
      </trkpt>
      <trkpt lat="43.71736" lon="5.04032">
        <ele>106</ele>
        <time>2019-09-26T09:16:35Z</time>
      </trkpt>
      <trkpt lat="43.71736" lon="5.0403">
        <ele>106</ele>
        <time>2019-09-26T09:16:37Z</time>
      </trkpt>
      <trkpt lat="43.71737" lon="5.04028">
        <ele>106</ele>
        <time>2019-09-26T09:16:39Z</time>
      </trkpt>
      <trkpt lat="43.71737" lon="5.04026">
        <ele>106</ele>
        <time>2019-09-26T09:16:40Z</time>
      </trkpt>
      <trkpt lat="43.71737" lon="5.04023">
        <ele>106</ele>
        <time>2019-09-26T09:16:43Z</time>
      </trkpt>
      <trkpt lat="43.71738" lon="5.04021">
        <ele>106</ele>
        <time>2019-09-26T09:16:46Z</time>
      </trkpt>
      <trkpt lat="43.71737" lon="5.04018">
        <ele>106</ele>
        <time>2019-09-26T09:16:48Z</time>
      </trkpt>
      <trkpt lat="43.71735" lon="5.04015">
        <ele>106</ele>
        <time>2019-09-26T09:16:50Z</time>
      </trkpt>
      <trkpt lat="43.71733" lon="5.0401">
        <ele>106</ele>
        <time>2019-09-26T09:16:52Z</time>
      </trkpt>
      <trkpt lat="43.71733" lon="5.04008">
        <ele>106</ele>
        <time>2019-09-26T09:16:54Z</time>
      </trkpt>
      <trkpt lat="43.71733" lon="5.04006">
        <ele>106</ele>
        <time>2019-09-26T09:16:56Z</time>
      </trkpt>
      <trkpt lat="43.71733" lon="5.04004">
        <ele>106</ele>
        <time>2019-09-26T09:16:58Z</time>
      </trkpt>
      <trkpt lat="43.71733" lon="5.04002">
        <ele>106</ele>
        <time>2019-09-26T09:17:00Z</time>
      </trkpt>
      <trkpt lat="43.71732" lon="5.04">
        <ele>106</ele>
        <time>2019-09-26T09:17:01Z</time>
      </trkpt>
      <trkpt lat="43.71733" lon="5.03997">
        <ele>106</ele>
        <time>2019-09-26T09:17:03Z</time>
      </trkpt>
      <trkpt lat="43.71733" lon="5.03994">
        <ele>106</ele>
        <time>2019-09-26T09:17:05Z</time>
      </trkpt>
      <trkpt lat="43.71733" lon="5.03991">
        <ele>106</ele>
        <time>2019-09-26T09:17:07Z</time>
      </trkpt>
      <trkpt lat="43.71733" lon="5.03988">
        <ele>106</ele>
        <time>2019-09-26T09:17:10Z</time>
      </trkpt>
      <trkpt lat="43.71733" lon="5.03985">
        <ele>106</ele>
        <time>2019-09-26T09:17:18Z</time>
      </trkpt>
      <trkpt lat="43.71734" lon="5.03981">
        <ele>106</ele>
        <time>2019-09-26T09:17:21Z</time>
      </trkpt>
      <trkpt lat="43.71734" lon="5.03979">
        <ele>106</ele>
        <time>2019-09-26T09:17:22Z</time>
      </trkpt>
      <trkpt lat="43.71734" lon="5.03976">
        <ele>106</ele>
        <time>2019-09-26T09:17:24Z</time>
      </trkpt>
      <trkpt lat="43.71734" lon="5.03973">
        <ele>106</ele>
        <time>2019-09-26T09:17:26Z</time>
      </trkpt>
      <trkpt lat="43.71734" lon="5.0397">
        <ele>106</ele>
        <time>2019-09-26T09:17:28Z</time>
      </trkpt>
      <trkpt lat="43.71733" lon="5.03966">
        <ele>106</ele>
        <time>2019-09-26T09:17:30Z</time>
      </trkpt>
      <trkpt lat="43.71733" lon="5.03964">
        <ele>106</ele>
        <time>2019-09-26T09:17:32Z</time>
      </trkpt>
      <trkpt lat="43.71734" lon="5.0396">
        <ele>106</ele>
        <time>2019-09-26T09:17:35Z</time>
      </trkpt>
      <trkpt lat="43.71734" lon="5.03958">
        <ele>106</ele>
        <time>2019-09-26T09:17:37Z</time>
      </trkpt>
      <trkpt lat="43.71734" lon="5.03955">
        <ele>106</ele>
        <time>2019-09-26T09:17:39Z</time>
      </trkpt>
      <trkpt lat="43.71734" lon="5.03952">
        <ele>106</ele>
        <time>2019-09-26T09:17:41Z</time>
      </trkpt>
      <trkpt lat="43.71733" lon="5.0395">
        <ele>106</ele>
        <time>2019-09-26T09:17:43Z</time>
      </trkpt>
      <trkpt lat="43.71733" lon="5.03946">
        <ele>106</ele>
        <time>2019-09-26T09:17:45Z</time>
      </trkpt>
      <trkpt lat="43.71734" lon="5.03943">
        <ele>106</ele>
        <time>2019-09-26T09:17:48Z</time>
      </trkpt>
      <trkpt lat="43.71734" lon="5.03943">
        <ele>106</ele>
        <time>2019-09-26T09:17:50Z</time>
      </trkpt>
      <trkpt lat="43.71737" lon="5.03942">
        <ele>106</ele>
        <time>2019-09-26T09:17:51Z</time>
      </trkpt>
      <trkpt lat="43.71738" lon="5.0394">
        <ele>106</ele>
        <time>2019-09-26T09:17:54Z</time>
      </trkpt>
      <trkpt lat="43.71739" lon="5.03939">
        <ele>106</ele>
        <time>2019-09-26T09:17:56Z</time>
      </trkpt>
      <trkpt lat="43.7174" lon="5.03938">
        <ele>106</ele>
        <time>2019-09-26T09:17:59Z</time>
      </trkpt>
      <trkpt lat="43.71741" lon="5.03937">
        <ele>106</ele>
        <time>2019-09-26T09:18:00Z</time>
      </trkpt>
      <trkpt lat="43.71741" lon="5.03932">
        <ele>106</ele>
        <time>2019-09-26T09:18:01Z</time>
      </trkpt>
      <trkpt lat="43.71741" lon="5.0393">
        <ele>106</ele>
        <time>2019-09-26T09:18:03Z</time>
      </trkpt>
      <trkpt lat="43.71742" lon="5.03928">
        <ele>106</ele>
        <time>2019-09-26T09:18:05Z</time>
      </trkpt>
      <trkpt lat="43.71742" lon="5.03926">
        <ele>106</ele>
        <time>2019-09-26T09:18:07Z</time>
      </trkpt>
      <trkpt lat="43.71743" lon="5.03924">
        <ele>106</ele>
        <time>2019-09-26T09:18:09Z</time>
      </trkpt>
      <trkpt lat="43.71743" lon="5.03922">
        <ele>106</ele>
        <time>2019-09-26T09:18:10Z</time>
      </trkpt>
      <trkpt lat="43.71744" lon="5.0392">
        <ele>106</ele>
        <time>2019-09-26T09:18:11Z</time>
      </trkpt>
      <trkpt lat="43.71745" lon="5.03918">
        <ele>106</ele>
        <time>2019-09-26T09:18:14Z</time>
      </trkpt>
      <trkpt lat="43.71745" lon="5.03914">
        <ele>106</ele>
        <time>2019-09-26T09:18:17Z</time>
      </trkpt>
      <trkpt lat="43.71746" lon="5.03911">
        <ele>107</ele>
        <time>2019-09-26T09:18:20Z</time>
      </trkpt>
      <trkpt lat="43.71748" lon="5.03909">
        <ele>107</ele>
        <time>2019-09-26T09:18:22Z</time>
      </trkpt>
      <trkpt lat="43.71749" lon="5.03907">
        <ele>107</ele>
        <time>2019-09-26T09:18:24Z</time>
      </trkpt>
      <trkpt lat="43.71751" lon="5.03904">
        <ele>107</ele>
        <time>2019-09-26T09:18:27Z</time>
      </trkpt>
      <trkpt lat="43.71751" lon="5.03901">
        <ele>118</ele>
        <time>2019-09-26T09:18:30Z</time>
      </trkpt>
      <trkpt lat="43.71753" lon="5.03898">
        <ele>118</ele>
        <time>2019-09-26T09:18:32Z</time>
      </trkpt>
      <trkpt lat="43.71755" lon="5.03896">
        <ele>118</ele>
        <time>2019-09-26T09:18:34Z</time>
      </trkpt>
      <trkpt lat="43.71756" lon="5.03894">
        <ele>118</ele>
        <time>2019-09-26T09:18:36Z</time>
      </trkpt>
      <trkpt lat="43.71757" lon="5.03893">
        <ele>118</ele>
        <time>2019-09-26T09:18:38Z</time>
      </trkpt>
      <trkpt lat="43.71759" lon="5.03891">
        <ele>114</ele>
        <time>2019-09-26T09:18:40Z</time>
      </trkpt>
      <trkpt lat="43.71761" lon="5.0389">
        <ele>114</ele>
        <time>2019-09-26T09:18:42Z</time>
      </trkpt>
      <trkpt lat="43.71763" lon="5.03888">
        <ele>114</ele>
        <time>2019-09-26T09:18:44Z</time>
      </trkpt>
      <trkpt lat="43.71765" lon="5.03887">
        <ele>114</ele>
        <time>2019-09-26T09:18:46Z</time>
      </trkpt>
      <trkpt lat="43.71767" lon="5.03886">
        <ele>114</ele>
        <time>2019-09-26T09:18:48Z</time>
      </trkpt>
      <trkpt lat="43.71769" lon="5.03884">
        <ele>117</ele>
        <time>2019-09-26T09:18:50Z</time>
      </trkpt>
      <trkpt lat="43.71772" lon="5.03881">
        <ele>117</ele>
        <time>2019-09-26T09:18:53Z</time>
      </trkpt>
      <trkpt lat="43.71774" lon="5.03879">
        <ele>117</ele>
        <time>2019-09-26T09:18:55Z</time>
      </trkpt>
      <trkpt lat="43.71775" lon="5.03878">
        <ele>117</ele>
        <time>2019-09-26T09:18:57Z</time>
      </trkpt>
      <trkpt lat="43.71776" lon="5.03877">
        <ele>117</ele>
        <time>2019-09-26T09:18:59Z</time>
      </trkpt>
      <trkpt lat="43.71778" lon="5.03876">
        <ele>118</ele>
        <time>2019-09-26T09:19:00Z</time>
      </trkpt>
      <trkpt lat="43.7178" lon="5.03874">
        <ele>118</ele>
        <time>2019-09-26T09:19:01Z</time>
      </trkpt>
      <trkpt lat="43.71781" lon="5.03873">
        <ele>118</ele>
        <time>2019-09-26T09:19:03Z</time>
      </trkpt>
      <trkpt lat="43.71782" lon="5.03871">
        <ele>118</ele>
        <time>2019-09-26T09:19:05Z</time>
      </trkpt>
      <trkpt lat="43.71784" lon="5.0387">
        <ele>118</ele>
        <time>2019-09-26T09:19:07Z</time>
      </trkpt>
      <trkpt lat="43.71785" lon="5.03869">
        <ele>118</ele>
        <time>2019-09-26T09:19:09Z</time>
      </trkpt>
      <trkpt lat="43.71786" lon="5.03868">
        <ele>118</ele>
        <time>2019-09-26T09:19:10Z</time>
      </trkpt>
      <trkpt lat="43.71788" lon="5.03865">
        <ele>118</ele>
        <time>2019-09-26T09:19:11Z</time>
      </trkpt>
      <trkpt lat="43.71789" lon="5.03864">
        <ele>118</ele>
        <time>2019-09-26T09:19:13Z</time>
      </trkpt>
      <trkpt lat="43.7179" lon="5.03863">
        <ele>118</ele>
        <time>2019-09-26T09:19:15Z</time>
      </trkpt>
      <trkpt lat="43.71791" lon="5.03862">
        <ele>118</ele>
        <time>2019-09-26T09:19:17Z</time>
      </trkpt>
      <trkpt lat="43.71792" lon="5.0386">
        <ele>118</ele>
        <time>2019-09-26T09:19:19Z</time>
      </trkpt>
      <trkpt lat="43.71793" lon="5.03859">
        <ele>118</ele>
        <time>2019-09-26T09:19:20Z</time>
      </trkpt>
      <trkpt lat="43.71794" lon="5.03856">
        <ele>118</ele>
        <time>2019-09-26T09:19:22Z</time>
      </trkpt>
      <trkpt lat="43.71795" lon="5.03854">
        <ele>118</ele>
        <time>2019-09-26T09:19:26Z</time>
      </trkpt>
      <trkpt lat="43.71796" lon="5.03851">
        <ele>119</ele>
        <time>2019-09-26T09:19:30Z</time>
      </trkpt>
      <trkpt lat="43.71796" lon="5.03847">
        <ele>119</ele>
        <time>2019-09-26T09:19:33Z</time>
      </trkpt>
      <trkpt lat="43.71797" lon="5.03845">
        <ele>119</ele>
        <time>2019-09-26T09:19:35Z</time>
      </trkpt>
      <trkpt lat="43.71797" lon="5.03842">
        <ele>119</ele>
        <time>2019-09-26T09:19:37Z</time>
      </trkpt>
      <trkpt lat="43.71797" lon="5.03842">
        <ele>119</ele>
        <time>2019-09-26T09:19:40Z</time>
      </trkpt>
      <trkpt lat="43.71797" lon="5.03838">
        <ele>119</ele>
        <time>2019-09-26T09:19:44Z</time>
      </trkpt>
      <trkpt lat="43.71797" lon="5.03836">
        <ele>119</ele>
        <time>2019-09-26T09:19:47Z</time>
      </trkpt>
      <trkpt lat="43.71797" lon="5.03835">
        <ele>119</ele>
        <time>2019-09-26T09:19:49Z</time>
      </trkpt>
      <trkpt lat="43.71797" lon="5.03834">
        <ele>119</ele>
        <time>2019-09-26T09:19:50Z</time>
      </trkpt>
      <trkpt lat="43.71798" lon="5.03831">
        <ele>119</ele>
        <time>2019-09-26T09:19:51Z</time>
      </trkpt>
      <trkpt lat="43.71798" lon="5.03828">
        <ele>119</ele>
        <time>2019-09-26T09:19:53Z</time>
      </trkpt>
      <trkpt lat="43.71798" lon="5.03825">
        <ele>119</ele>
        <time>2019-09-26T09:20:00Z</time>
      </trkpt>
      <trkpt lat="43.71798" lon="5.03825">
        <ele>118</ele>
        <time>2019-09-26T09:20:02Z</time>
      </trkpt>
      <trkpt lat="43.71798" lon="5.03824">
        <ele>118</ele>
        <time>2019-09-26T09:20:03Z</time>
      </trkpt>
      <trkpt lat="43.71801" lon="5.03806">
        <ele>120</ele>
        <time>2019-09-26T09:20:20Z</time>
      </trkpt>
      <trkpt lat="43.71802" lon="5.03805">
        <ele>120</ele>
        <time>2019-09-26T09:20:21Z</time>
      </trkpt>
      <trkpt lat="43.71802" lon="5.03802">
        <ele>120</ele>
        <time>2019-09-26T09:20:23Z</time>
      </trkpt>
      <trkpt lat="43.71804" lon="5.038">
        <ele>120</ele>
        <time>2019-09-26T09:20:25Z</time>
      </trkpt>
      <trkpt lat="43.71804" lon="5.03797">
        <ele>120</ele>
        <time>2019-09-26T09:20:27Z</time>
      </trkpt>
      <trkpt lat="43.71804" lon="5.03794">
        <ele>120</ele>
        <time>2019-09-26T09:20:29Z</time>
      </trkpt>
      <trkpt lat="43.71805" lon="5.0379">
        <ele>120</ele>
        <time>2019-09-26T09:20:31Z</time>
      </trkpt>
      <trkpt lat="43.71805" lon="5.03788">
        <ele>120</ele>
        <time>2019-09-26T09:20:34Z</time>
      </trkpt>
      <trkpt lat="43.71805" lon="5.03786">
        <ele>120</ele>
        <time>2019-09-26T09:20:36Z</time>
      </trkpt>
      <trkpt lat="43.71805" lon="5.03784">
        <ele>120</ele>
        <time>2019-09-26T09:20:38Z</time>
      </trkpt>
      <trkpt lat="43.71805" lon="5.03782">
        <ele>120</ele>
        <time>2019-09-26T09:20:39Z</time>
      </trkpt>
      <trkpt lat="43.71805" lon="5.0378">
        <ele>120</ele>
        <time>2019-09-26T09:20:48Z</time>
      </trkpt>
      <trkpt lat="43.71805" lon="5.0378">
        <ele>121</ele>
        <time>2019-09-26T09:20:49Z</time>
      </trkpt>
      <trkpt lat="43.71805" lon="5.03776">
        <ele>121</ele>
        <time>2019-09-26T09:20:52Z</time>
      </trkpt>
      <trkpt lat="43.71806" lon="5.03775">
        <ele>121</ele>
        <time>2019-09-26T09:20:55Z</time>
      </trkpt>
      <trkpt lat="43.71806" lon="5.03773">
        <ele>121</ele>
        <time>2019-09-26T09:20:58Z</time>
      </trkpt>
      <trkpt lat="43.71806" lon="5.03772">
        <ele>121</ele>
        <time>2019-09-26T09:20:59Z</time>
      </trkpt>
      <trkpt lat="43.71806" lon="5.0377">
        <ele>121</ele>
        <time>2019-09-26T09:21:09Z</time>
      </trkpt>
      <trkpt lat="43.71807" lon="5.03757">
        <ele>120</ele>
        <time>2019-09-26T09:21:26Z</time>
      </trkpt>
      <trkpt lat="43.71807" lon="5.03755">
        <ele>120</ele>
        <time>2019-09-26T09:21:28Z</time>
      </trkpt>
      <trkpt lat="43.71808" lon="5.03752">
        <ele>120</ele>
        <time>2019-09-26T09:21:30Z</time>
      </trkpt>
      <trkpt lat="43.71808" lon="5.03749">
        <ele>120</ele>
        <time>2019-09-26T09:21:33Z</time>
      </trkpt>
      <trkpt lat="43.71809" lon="5.03746">
        <ele>120</ele>
        <time>2019-09-26T09:21:35Z</time>
      </trkpt>
      <trkpt lat="43.71809" lon="5.03742">
        <ele>120</ele>
        <time>2019-09-26T09:21:37Z</time>
      </trkpt>
      <trkpt lat="43.71809" lon="5.03739">
        <ele>120</ele>
        <time>2019-09-26T09:21:39Z</time>
      </trkpt>
      <trkpt lat="43.71809" lon="5.03737">
        <ele>120</ele>
        <time>2019-09-26T09:21:41Z</time>
      </trkpt>
      <trkpt lat="43.71809" lon="5.03734">
        <ele>120</ele>
        <time>2019-09-26T09:21:43Z</time>
      </trkpt>
      <trkpt lat="43.71809" lon="5.03734">
        <ele>122</ele>
        <time>2019-09-26T09:21:45Z</time>
      </trkpt>
      <trkpt lat="43.71809" lon="5.0373">
        <ele>122</ele>
        <time>2019-09-26T09:21:46Z</time>
      </trkpt>
      <trkpt lat="43.71809" lon="5.03727">
        <ele>122</ele>
        <time>2019-09-26T09:21:48Z</time>
      </trkpt>
      <trkpt lat="43.71809" lon="5.03723">
        <ele>122</ele>
        <time>2019-09-26T09:21:51Z</time>
      </trkpt>
      <trkpt lat="43.71809" lon="5.03721">
        <ele>122</ele>
        <time>2019-09-26T09:21:53Z</time>
      </trkpt>
      <trkpt lat="43.71809" lon="5.03721">
        <ele>123</ele>
        <time>2019-09-26T09:21:55Z</time>
      </trkpt>
      <trkpt lat="43.71809" lon="5.03717">
        <ele>123</ele>
        <time>2019-09-26T09:21:56Z</time>
      </trkpt>
      <trkpt lat="43.7181" lon="5.03714">
        <ele>123</ele>
        <time>2019-09-26T09:21:59Z</time>
      </trkpt>
      <trkpt lat="43.71811" lon="5.03711">
        <ele>123</ele>
        <time>2019-09-26T09:22:01Z</time>
      </trkpt>
      <trkpt lat="43.71811" lon="5.03708">
        <ele>123</ele>
        <time>2019-09-26T09:22:03Z</time>
      </trkpt>
      <trkpt lat="43.71812" lon="5.03705">
        <ele>124</ele>
        <time>2019-09-26T09:22:05Z</time>
      </trkpt>
      <trkpt lat="43.71812" lon="5.03702">
        <ele>124</ele>
        <time>2019-09-26T09:22:07Z</time>
      </trkpt>
      <trkpt lat="43.71813" lon="5.03698">
        <ele>124</ele>
        <time>2019-09-26T09:22:10Z</time>
      </trkpt>
      <trkpt lat="43.71813" lon="5.03695">
        <ele>124</ele>
        <time>2019-09-26T09:22:13Z</time>
      </trkpt>
      <trkpt lat="43.71813" lon="5.03692">
        <ele>124</ele>
        <time>2019-09-26T09:22:15Z</time>
      </trkpt>
      <trkpt lat="43.71813" lon="5.03688">
        <ele>124</ele>
        <time>2019-09-26T09:22:18Z</time>
      </trkpt>
      <trkpt lat="43.71813" lon="5.03685">
        <ele>124</ele>
        <time>2019-09-26T09:22:21Z</time>
      </trkpt>
      <trkpt lat="43.71813" lon="5.03682">
        <ele>124</ele>
        <time>2019-09-26T09:22:23Z</time>
      </trkpt>
      <trkpt lat="43.71813" lon="5.0368">
        <ele>125</ele>
        <time>2019-09-26T09:22:25Z</time>
      </trkpt>
      <trkpt lat="43.71813" lon="5.03676">
        <ele>125</ele>
        <time>2019-09-26T09:22:28Z</time>
      </trkpt>
      <trkpt lat="43.71813" lon="5.03672">
        <ele>125</ele>
        <time>2019-09-26T09:22:31Z</time>
      </trkpt>
      <trkpt lat="43.71813" lon="5.03669">
        <ele>125</ele>
        <time>2019-09-26T09:22:33Z</time>
      </trkpt>
      <trkpt lat="43.71813" lon="5.03669">
        <ele>126</ele>
        <time>2019-09-26T09:22:35Z</time>
      </trkpt>
      <trkpt lat="43.71812" lon="5.03666">
        <ele>126</ele>
        <time>2019-09-26T09:22:36Z</time>
      </trkpt>
      <trkpt lat="43.71812" lon="5.03663">
        <ele>126</ele>
        <time>2019-09-26T09:22:38Z</time>
      </trkpt>
      <trkpt lat="43.71812" lon="5.0366">
        <ele>126</ele>
        <time>2019-09-26T09:22:40Z</time>
      </trkpt>
      <trkpt lat="43.71812" lon="5.03658">
        <ele>126</ele>
        <time>2019-09-26T09:22:42Z</time>
      </trkpt>
      <trkpt lat="43.71812" lon="5.03654">
        <ele>127</ele>
        <time>2019-09-26T09:22:45Z</time>
      </trkpt>
      <trkpt lat="43.71812" lon="5.0365">
        <ele>127</ele>
        <time>2019-09-26T09:22:47Z</time>
      </trkpt>
      <trkpt lat="43.71812" lon="5.03648">
        <ele>127</ele>
        <time>2019-09-26T09:22:49Z</time>
      </trkpt>
      <trkpt lat="43.71811" lon="5.03646">
        <ele>127</ele>
        <time>2019-09-26T09:22:51Z</time>
      </trkpt>
      <trkpt lat="43.71811" lon="5.03644">
        <ele>127</ele>
        <time>2019-09-26T09:22:54Z</time>
      </trkpt>
      <trkpt lat="43.71811" lon="5.03642">
        <ele>128</ele>
        <time>2019-09-26T09:22:55Z</time>
      </trkpt>
      <trkpt lat="43.7181" lon="5.03637">
        <ele>128</ele>
        <time>2019-09-26T09:22:56Z</time>
      </trkpt>
      <trkpt lat="43.7181" lon="5.03635">
        <ele>128</ele>
        <time>2019-09-26T09:22:58Z</time>
      </trkpt>
      <trkpt lat="43.7181" lon="5.03633">
        <ele>128</ele>
        <time>2019-09-26T09:23:00Z</time>
      </trkpt>
      <trkpt lat="43.71809" lon="5.03631">
        <ele>128</ele>
        <time>2019-09-26T09:23:02Z</time>
      </trkpt>
      <trkpt lat="43.71809" lon="5.03629">
        <ele>128</ele>
        <time>2019-09-26T09:23:04Z</time>
      </trkpt>
      <trkpt lat="43.71808" lon="5.03627">
        <ele>130</ele>
        <time>2019-09-26T09:23:05Z</time>
      </trkpt>
      <trkpt lat="43.71808" lon="5.03624">
        <ele>130</ele>
        <time>2019-09-26T09:23:06Z</time>
      </trkpt>
      <trkpt lat="43.71808" lon="5.03622">
        <ele>130</ele>
        <time>2019-09-26T09:23:09Z</time>
      </trkpt>
      <trkpt lat="43.71807" lon="5.0362">
        <ele>130</ele>
        <time>2019-09-26T09:23:12Z</time>
      </trkpt>
      <trkpt lat="43.71807" lon="5.03618">
        <ele>130</ele>
        <time>2019-09-26T09:23:14Z</time>
      </trkpt>
      <trkpt lat="43.71807" lon="5.03616">
        <ele>130</ele>
        <time>2019-09-26T09:23:15Z</time>
      </trkpt>
      <trkpt lat="43.71807" lon="5.0361">
        <ele>130</ele>
        <time>2019-09-26T09:23:17Z</time>
      </trkpt>
      <trkpt lat="43.71807" lon="5.03609">
        <ele>130</ele>
        <time>2019-09-26T09:23:19Z</time>
      </trkpt>
      <trkpt lat="43.71806" lon="5.03607">
        <ele>130</ele>
        <time>2019-09-26T09:23:21Z</time>
      </trkpt>
      <trkpt lat="43.71806" lon="5.03605">
        <ele>130</ele>
        <time>2019-09-26T09:23:24Z</time>
      </trkpt>
      <trkpt lat="43.71806" lon="5.03603">
        <ele>131</ele>
        <time>2019-09-26T09:23:25Z</time>
      </trkpt>
      <trkpt lat="43.71806" lon="5.03597">
        <ele>131</ele>
        <time>2019-09-26T09:23:27Z</time>
      </trkpt>
      <trkpt lat="43.71806" lon="5.03595">
        <ele>131</ele>
        <time>2019-09-26T09:23:30Z</time>
      </trkpt>
      <trkpt lat="43.71806" lon="5.03593">
        <ele>131</ele>
        <time>2019-09-26T09:23:32Z</time>
      </trkpt>
      <trkpt lat="43.71806" lon="5.03591">
        <ele>131</ele>
        <time>2019-09-26T09:23:34Z</time>
      </trkpt>
      <trkpt lat="43.71806" lon="5.03589">
        <ele>132</ele>
        <time>2019-09-26T09:23:35Z</time>
      </trkpt>
      <trkpt lat="43.71806" lon="5.03585">
        <ele>132</ele>
        <time>2019-09-26T09:23:36Z</time>
      </trkpt>
      <trkpt lat="43.71806" lon="5.03584">
        <ele>132</ele>
        <time>2019-09-26T09:23:38Z</time>
      </trkpt>
      <trkpt lat="43.71805" lon="5.03582">
        <ele>132</ele>
        <time>2019-09-26T09:23:41Z</time>
      </trkpt>
      <trkpt lat="43.71805" lon="5.0358">
        <ele>132</ele>
        <time>2019-09-26T09:23:44Z</time>
      </trkpt>
      <trkpt lat="43.71805" lon="5.03578">
        <ele>133</ele>
        <time>2019-09-26T09:23:45Z</time>
      </trkpt>
      <trkpt lat="43.71805" lon="5.03573">
        <ele>133</ele>
        <time>2019-09-26T09:23:46Z</time>
      </trkpt>
      <trkpt lat="43.71804" lon="5.03572">
        <ele>133</ele>
        <time>2019-09-26T09:23:48Z</time>
      </trkpt>
      <trkpt lat="43.71804" lon="5.0357">
        <ele>133</ele>
        <time>2019-09-26T09:23:50Z</time>
      </trkpt>
      <trkpt lat="43.71804" lon="5.03568">
        <ele>133</ele>
        <time>2019-09-26T09:23:52Z</time>
      </trkpt>
      <trkpt lat="43.71804" lon="5.03566">
        <ele>133</ele>
        <time>2019-09-26T09:23:54Z</time>
      </trkpt>
      <trkpt lat="43.71804" lon="5.03564">
        <ele>134</ele>
        <time>2019-09-26T09:23:55Z</time>
      </trkpt>
      <trkpt lat="43.71804" lon="5.03562">
        <ele>134</ele>
        <time>2019-09-26T09:23:56Z</time>
      </trkpt>
      <trkpt lat="43.71804" lon="5.03559">
        <ele>134</ele>
        <time>2019-09-26T09:23:58Z</time>
      </trkpt>
      <trkpt lat="43.71804" lon="5.03555">
        <ele>134</ele>
        <time>2019-09-26T09:24:01Z</time>
      </trkpt>
      <trkpt lat="43.71804" lon="5.03553">
        <ele>134</ele>
        <time>2019-09-26T09:24:03Z</time>
      </trkpt>
      <trkpt lat="43.71804" lon="5.0355">
        <ele>136</ele>
        <time>2019-09-26T09:24:05Z</time>
      </trkpt>
      <trkpt lat="43.71804" lon="5.03547">
        <ele>136</ele>
        <time>2019-09-26T09:24:08Z</time>
      </trkpt>
      <trkpt lat="43.71804" lon="5.03544">
        <ele>136</ele>
        <time>2019-09-26T09:24:10Z</time>
      </trkpt>
      <trkpt lat="43.71805" lon="5.03541">
        <ele>136</ele>
        <time>2019-09-26T09:24:13Z</time>
      </trkpt>
      <trkpt lat="43.71806" lon="5.03538">
        <ele>137</ele>
        <time>2019-09-26T09:24:15Z</time>
      </trkpt>
      <trkpt lat="43.71806" lon="5.03535">
        <ele>137</ele>
        <time>2019-09-26T09:24:18Z</time>
      </trkpt>
      <trkpt lat="43.71806" lon="5.03532">
        <ele>137</ele>
        <time>2019-09-26T09:24:20Z</time>
      </trkpt>
      <trkpt lat="43.71806" lon="5.03528">
        <ele>137</ele>
        <time>2019-09-26T09:24:23Z</time>
      </trkpt>
      <trkpt lat="43.71806" lon="5.03528">
        <ele>139</ele>
        <time>2019-09-26T09:24:25Z</time>
      </trkpt>
      <trkpt lat="43.71806" lon="5.03525">
        <ele>139</ele>
        <time>2019-09-26T09:24:26Z</time>
      </trkpt>
      <trkpt lat="43.71806" lon="5.03522">
        <ele>139</ele>
        <time>2019-09-26T09:24:29Z</time>
      </trkpt>
      <trkpt lat="43.71807" lon="5.03518">
        <ele>139</ele>
        <time>2019-09-26T09:24:32Z</time>
      </trkpt>
      <trkpt lat="43.71806" lon="5.03514">
        <ele>139</ele>
        <time>2019-09-26T09:24:35Z</time>
      </trkpt>
      <trkpt lat="43.71806" lon="5.03511">
        <ele>139</ele>
        <time>2019-09-26T09:24:38Z</time>
      </trkpt>
      <trkpt lat="43.71805" lon="5.03507">
        <ele>139</ele>
        <time>2019-09-26T09:24:41Z</time>
      </trkpt>
      <trkpt lat="43.71805" lon="5.03505">
        <ele>139</ele>
        <time>2019-09-26T09:24:43Z</time>
      </trkpt>
      <trkpt lat="43.71805" lon="5.03502">
        <ele>142</ele>
        <time>2019-09-26T09:24:45Z</time>
      </trkpt>
      <trkpt lat="43.71805" lon="5.03497">
        <ele>142</ele>
        <time>2019-09-26T09:24:47Z</time>
      </trkpt>
      <trkpt lat="43.71805" lon="5.03495">
        <ele>142</ele>
        <time>2019-09-26T09:24:49Z</time>
      </trkpt>
      <trkpt lat="43.71804" lon="5.03493">
        <ele>142</ele>
        <time>2019-09-26T09:24:51Z</time>
      </trkpt>
      <trkpt lat="43.71804" lon="5.03491">
        <ele>142</ele>
        <time>2019-09-26T09:24:54Z</time>
      </trkpt>
      <trkpt lat="43.71804" lon="5.03489">
        <ele>142</ele>
        <time>2019-09-26T09:24:55Z</time>
      </trkpt>
      <trkpt lat="43.71804" lon="5.03488">
        <ele>142</ele>
        <time>2019-09-26T09:24:56Z</time>
      </trkpt>
      <trkpt lat="43.71804" lon="5.03484">
        <ele>142</ele>
        <time>2019-09-26T09:24:59Z</time>
      </trkpt>
      <trkpt lat="43.71804" lon="5.03484">
        <ele>142</ele>
        <time>2019-09-26T09:25:05Z</time>
      </trkpt>
      <trkpt lat="43.71804" lon="5.03484">
        <ele>142</ele>
        <time>2019-09-26T09:25:15Z</time>
      </trkpt>
      <trkpt lat="43.71802" lon="5.03482">
        <ele>142</ele>
        <time>2019-09-26T09:25:20Z</time>
      </trkpt>
      <trkpt lat="43.718" lon="5.03481">
        <ele>142</ele>
        <time>2019-09-26T09:25:23Z</time>
      </trkpt>
      <trkpt lat="43.718" lon="5.03481">
        <ele>142</ele>
        <time>2019-09-26T09:25:25Z</time>
      </trkpt>
      <trkpt lat="43.71796" lon="5.03481">
        <ele>142</ele>
        <time>2019-09-26T09:25:26Z</time>
      </trkpt>
      <trkpt lat="43.71795" lon="5.03481">
        <ele>142</ele>
        <time>2019-09-26T09:25:29Z</time>
      </trkpt>
      <trkpt lat="43.71794" lon="5.0348">
        <ele>142</ele>
        <time>2019-09-26T09:25:31Z</time>
      </trkpt>
      <trkpt lat="43.71792" lon="5.0348">
        <ele>142</ele>
        <time>2019-09-26T09:25:34Z</time>
      </trkpt>
      <trkpt lat="43.71791" lon="5.0348">
        <ele>142</ele>
        <time>2019-09-26T09:25:35Z</time>
      </trkpt>
      <trkpt lat="43.71789" lon="5.0348">
        <ele>142</ele>
        <time>2019-09-26T09:25:37Z</time>
      </trkpt>
      <trkpt lat="43.71787" lon="5.03479">
        <ele>142</ele>
        <time>2019-09-26T09:25:40Z</time>
      </trkpt>
      <trkpt lat="43.71784" lon="5.03479">
        <ele>142</ele>
        <time>2019-09-26T09:25:42Z</time>
      </trkpt>
      <trkpt lat="43.71782" lon="5.03478">
        <ele>142</ele>
        <time>2019-09-26T09:25:45Z</time>
      </trkpt>
      <trkpt lat="43.7178" lon="5.03478">
        <ele>142</ele>
        <time>2019-09-26T09:25:49Z</time>
      </trkpt>
      <trkpt lat="43.71777" lon="5.03478">
        <ele>142</ele>
        <time>2019-09-26T09:25:52Z</time>
      </trkpt>
      <trkpt lat="43.71776" lon="5.03477">
        <ele>142</ele>
        <time>2019-09-26T09:25:55Z</time>
      </trkpt>
      <trkpt lat="43.71773" lon="5.03478">
        <ele>142</ele>
        <time>2019-09-26T09:25:58Z</time>
      </trkpt>
      <trkpt lat="43.71771" lon="5.03479">
        <ele>142</ele>
        <time>2019-09-26T09:26:01Z</time>
      </trkpt>
      <trkpt lat="43.71769" lon="5.0348">
        <ele>142</ele>
        <time>2019-09-26T09:26:05Z</time>
      </trkpt>
      <trkpt lat="43.71767" lon="5.03482">
        <ele>142</ele>
        <time>2019-09-26T09:26:08Z</time>
      </trkpt>
      <trkpt lat="43.71766" lon="5.03484">
        <ele>142</ele>
        <time>2019-09-26T09:26:12Z</time>
      </trkpt>
      <trkpt lat="43.71764" lon="5.03483">
        <ele>144</ele>
        <time>2019-09-26T09:26:15Z</time>
      </trkpt>
      <trkpt lat="43.71762" lon="5.0348">
        <ele>144</ele>
        <time>2019-09-26T09:26:19Z</time>
      </trkpt>
      <trkpt lat="43.71761" lon="5.0348">
        <ele>144</ele>
        <time>2019-09-26T09:26:24Z</time>
      </trkpt>
      <trkpt lat="43.71761" lon="5.03479">
        <ele>144</ele>
        <time>2019-09-26T09:26:25Z</time>
      </trkpt>
      <trkpt lat="43.71758" lon="5.03479">
        <ele>144</ele>
        <time>2019-09-26T09:26:27Z</time>
      </trkpt>
      <trkpt lat="43.71756" lon="5.0348">
        <ele>144</ele>
        <time>2019-09-26T09:26:30Z</time>
      </trkpt>
      <trkpt lat="43.71754" lon="5.03482">
        <ele>144</ele>
        <time>2019-09-26T09:26:33Z</time>
      </trkpt>
      <trkpt lat="43.71754" lon="5.03482">
        <ele>144</ele>
        <time>2019-09-26T09:26:35Z</time>
      </trkpt>
      <trkpt lat="43.71753" lon="5.03484">
        <ele>144</ele>
        <time>2019-09-26T09:26:36Z</time>
      </trkpt>
      <trkpt lat="43.71752" lon="5.03487">
        <ele>144</ele>
        <time>2019-09-26T09:26:42Z</time>
      </trkpt>
      <trkpt lat="43.71752" lon="5.03487">
        <ele>144</ele>
        <time>2019-09-26T09:26:45Z</time>
      </trkpt>
      <trkpt lat="43.71753" lon="5.03489">
        <ele>144</ele>
        <time>2019-09-26T09:26:46Z</time>
      </trkpt>
      <trkpt lat="43.71753" lon="5.03489">
        <ele>144</ele>
        <time>2019-09-26T09:26:47Z</time>
      </trkpt>
      <trkpt lat="43.71753" lon="5.03489">
        <ele>144</ele>
        <time>2019-09-26T09:29:11Z</time>
      </trkpt>
      <trkpt lat="43.71756" lon="5.03495">
        <ele>144</ele>
        <time>2019-09-26T09:29:12Z</time>
      </trkpt>
      <trkpt lat="43.71754" lon="5.03496">
        <ele>144</ele>
        <time>2019-09-26T09:29:15Z</time>
      </trkpt>
      <trkpt lat="43.71754" lon="5.03496">
        <ele>144</ele>
        <time>2019-09-26T09:29:21Z</time>
      </trkpt>
      <trkpt lat="43.71754" lon="5.03495">
        <ele>144</ele>
        <time>2019-09-26T09:29:22Z</time>
      </trkpt>
      <trkpt lat="43.71754" lon="5.03495">
        <ele>144</ele>
        <time>2019-09-26T09:30:05Z</time>
      </trkpt>
      <trkpt lat="43.71765" lon="5.03483">
        <ele>144</ele>
        <time>2019-09-26T09:30:06Z</time>
      </trkpt>
      <trkpt lat="43.71767" lon="5.03483">
        <ele>144</ele>
        <time>2019-09-26T09:30:09Z</time>
      </trkpt>
      <trkpt lat="43.71768" lon="5.0348">
        <ele>144</ele>
        <time>2019-09-26T09:30:12Z</time>
      </trkpt>
      <trkpt lat="43.7177" lon="5.03478">
        <ele>143</ele>
        <time>2019-09-26T09:30:15Z</time>
      </trkpt>
      <trkpt lat="43.71772" lon="5.03477">
        <ele>143</ele>
        <time>2019-09-26T09:30:17Z</time>
      </trkpt>
      <trkpt lat="43.71774" lon="5.03476">
        <ele>143</ele>
        <time>2019-09-26T09:30:20Z</time>
      </trkpt>
      <trkpt lat="43.71776" lon="5.03476">
        <ele>143</ele>
        <time>2019-09-26T09:30:23Z</time>
      </trkpt>
      <trkpt lat="43.71776" lon="5.03476">
        <ele>143</ele>
        <time>2019-09-26T09:30:25Z</time>
      </trkpt>
      <trkpt lat="43.71779" lon="5.03476">
        <ele>143</ele>
        <time>2019-09-26T09:30:27Z</time>
      </trkpt>
      <trkpt lat="43.71781" lon="5.03476">
        <ele>143</ele>
        <time>2019-09-26T09:30:31Z</time>
      </trkpt>
      <trkpt lat="43.71781" lon="5.03476">
        <ele>142</ele>
        <time>2019-09-26T09:30:35Z</time>
      </trkpt>
      <trkpt lat="43.71784" lon="5.03477">
        <ele>142</ele>
        <time>2019-09-26T09:30:36Z</time>
      </trkpt>
      <trkpt lat="43.71786" lon="5.03477">
        <ele>142</ele>
        <time>2019-09-26T09:30:39Z</time>
      </trkpt>
      <trkpt lat="43.71787" lon="5.03477">
        <ele>142</ele>
        <time>2019-09-26T09:30:41Z</time>
      </trkpt>
      <trkpt lat="43.71788" lon="5.03477">
        <ele>142</ele>
        <time>2019-09-26T09:30:44Z</time>
      </trkpt>
      <trkpt lat="43.7179" lon="5.03477">
        <ele>142</ele>
        <time>2019-09-26T09:30:45Z</time>
      </trkpt>
      <trkpt lat="43.71793" lon="5.03476">
        <ele>142</ele>
        <time>2019-09-26T09:30:47Z</time>
      </trkpt>
      <trkpt lat="43.71794" lon="5.03475">
        <ele>142</ele>
        <time>2019-09-26T09:30:50Z</time>
      </trkpt>
      <trkpt lat="43.71795" lon="5.03474">
        <ele>142</ele>
        <time>2019-09-26T09:30:52Z</time>
      </trkpt>
      <trkpt lat="43.71797" lon="5.03473">
        <ele>142</ele>
        <time>2019-09-26T09:30:54Z</time>
      </trkpt>
      <trkpt lat="43.71798" lon="5.03472">
        <ele>142</ele>
        <time>2019-09-26T09:30:55Z</time>
      </trkpt>
      <trkpt lat="43.71799" lon="5.03471">
        <ele>142</ele>
        <time>2019-09-26T09:30:56Z</time>
      </trkpt>
      <trkpt lat="43.71801" lon="5.03469">
        <ele>142</ele>
        <time>2019-09-26T09:30:59Z</time>
      </trkpt>
      <trkpt lat="43.71802" lon="5.03467">
        <ele>142</ele>
        <time>2019-09-26T09:31:01Z</time>
      </trkpt>
      <trkpt lat="43.71802" lon="5.03464">
        <ele>142</ele>
        <time>2019-09-26T09:31:03Z</time>
      </trkpt>
      <trkpt lat="43.71803" lon="5.03461">
        <ele>144</ele>
        <time>2019-09-26T09:31:05Z</time>
      </trkpt>
      <trkpt lat="43.71803" lon="5.03457">
        <ele>144</ele>
        <time>2019-09-26T09:31:07Z</time>
      </trkpt>
      <trkpt lat="43.71804" lon="5.03455">
        <ele>144</ele>
        <time>2019-09-26T09:31:09Z</time>
      </trkpt>
      <trkpt lat="43.71804" lon="5.03454">
        <ele>144</ele>
        <time>2019-09-26T09:31:11Z</time>
      </trkpt>
      <trkpt lat="43.71804" lon="5.03452">
        <ele>144</ele>
        <time>2019-09-26T09:31:14Z</time>
      </trkpt>
      <trkpt lat="43.71804" lon="5.0345">
        <ele>143</ele>
        <time>2019-09-26T09:31:15Z</time>
      </trkpt>
      <trkpt lat="43.71806" lon="5.03446">
        <ele>143</ele>
        <time>2019-09-26T09:31:16Z</time>
      </trkpt>
      <trkpt lat="43.71806" lon="5.03444">
        <ele>143</ele>
        <time>2019-09-26T09:31:18Z</time>
      </trkpt>
      <trkpt lat="43.71807" lon="5.03442">
        <ele>143</ele>
        <time>2019-09-26T09:31:20Z</time>
      </trkpt>
      <trkpt lat="43.71807" lon="5.0344">
        <ele>143</ele>
        <time>2019-09-26T09:31:22Z</time>
      </trkpt>
      <trkpt lat="43.71808" lon="5.03438">
        <ele>143</ele>
        <time>2019-09-26T09:31:24Z</time>
      </trkpt>
      <trkpt lat="43.71808" lon="5.03436">
        <ele>143</ele>
        <time>2019-09-26T09:31:25Z</time>
      </trkpt>
      <trkpt lat="43.71809" lon="5.03432">
        <ele>143</ele>
        <time>2019-09-26T09:31:26Z</time>
      </trkpt>
      <trkpt lat="43.71809" lon="5.03431">
        <ele>143</ele>
        <time>2019-09-26T09:31:28Z</time>
      </trkpt>
      <trkpt lat="43.71809" lon="5.03429">
        <ele>143</ele>
        <time>2019-09-26T09:31:30Z</time>
      </trkpt>
      <trkpt lat="43.71809" lon="5.03427">
        <ele>143</ele>
        <time>2019-09-26T09:31:32Z</time>
      </trkpt>
      <trkpt lat="43.71809" lon="5.03425">
        <ele>143</ele>
        <time>2019-09-26T09:31:34Z</time>
      </trkpt>
      <trkpt lat="43.71809" lon="5.03423">
        <ele>145</ele>
        <time>2019-09-26T09:31:35Z</time>
      </trkpt>
      <trkpt lat="43.71809" lon="5.03419">
        <ele>145</ele>
        <time>2019-09-26T09:31:36Z</time>
      </trkpt>
      <trkpt lat="43.71809" lon="5.03417">
        <ele>145</ele>
        <time>2019-09-26T09:31:38Z</time>
      </trkpt>
      <trkpt lat="43.71809" lon="5.03415">
        <ele>145</ele>
        <time>2019-09-26T09:31:40Z</time>
      </trkpt>
      <trkpt lat="43.71809" lon="5.03413">
        <ele>145</ele>
        <time>2019-09-26T09:31:42Z</time>
      </trkpt>
      <trkpt lat="43.71809" lon="5.03411">
        <ele>145</ele>
        <time>2019-09-26T09:31:44Z</time>
      </trkpt>
      <trkpt lat="43.71808" lon="5.0341">
        <ele>146</ele>
        <time>2019-09-26T09:31:45Z</time>
      </trkpt>
      <trkpt lat="43.71808" lon="5.03405">
        <ele>146</ele>
        <time>2019-09-26T09:31:46Z</time>
      </trkpt>
      <trkpt lat="43.71807" lon="5.03403">
        <ele>146</ele>
        <time>2019-09-26T09:31:48Z</time>
      </trkpt>
      <trkpt lat="43.71807" lon="5.03401">
        <ele>146</ele>
        <time>2019-09-26T09:31:50Z</time>
      </trkpt>
      <trkpt lat="43.71807" lon="5.03399">
        <ele>146</ele>
        <time>2019-09-26T09:31:52Z</time>
      </trkpt>
      <trkpt lat="43.71807" lon="5.03398">
        <ele>146</ele>
        <time>2019-09-26T09:31:54Z</time>
      </trkpt>
      <trkpt lat="43.71807" lon="5.03396">
        <ele>146</ele>
        <time>2019-09-26T09:31:55Z</time>
      </trkpt>
      <trkpt lat="43.71807" lon="5.03393">
        <ele>146</ele>
        <time>2019-09-26T09:31:56Z</time>
      </trkpt>
      <trkpt lat="43.71806" lon="5.0339">
        <ele>146</ele>
        <time>2019-09-26T09:31:58Z</time>
      </trkpt>
      <trkpt lat="43.71806" lon="5.03388">
        <ele>146</ele>
        <time>2019-09-26T09:32:00Z</time>
      </trkpt>
      <trkpt lat="43.71805" lon="5.03385">
        <ele>146</ele>
        <time>2019-09-26T09:32:02Z</time>
      </trkpt>
      <trkpt lat="43.71805" lon="5.03381">
        <ele>147</ele>
        <time>2019-09-26T09:32:05Z</time>
      </trkpt>
      <trkpt lat="43.71805" lon="5.03378">
        <ele>147</ele>
        <time>2019-09-26T09:32:08Z</time>
      </trkpt>
      <trkpt lat="43.71805" lon="5.03375">
        <ele>147</ele>
        <time>2019-09-26T09:32:11Z</time>
      </trkpt>
      <trkpt lat="43.71804" lon="5.03372">
        <ele>147</ele>
        <time>2019-09-26T09:32:13Z</time>
      </trkpt>
      <trkpt lat="43.71804" lon="5.0337">
        <ele>148</ele>
        <time>2019-09-26T09:32:15Z</time>
      </trkpt>
      <trkpt lat="43.71803" lon="5.03367">
        <ele>148</ele>
        <time>2019-09-26T09:32:17Z</time>
      </trkpt>
      <trkpt lat="43.71803" lon="5.03363">
        <ele>148</ele>
        <time>2019-09-26T09:32:20Z</time>
      </trkpt>
      <trkpt lat="43.71802" lon="5.0336">
        <ele>148</ele>
        <time>2019-09-26T09:32:23Z</time>
      </trkpt>
      <trkpt lat="43.71802" lon="5.0336">
        <ele>148</ele>
        <time>2019-09-26T09:32:25Z</time>
      </trkpt>
      <trkpt lat="43.71801" lon="5.03354">
        <ele>148</ele>
        <time>2019-09-26T09:32:26Z</time>
      </trkpt>
      <trkpt lat="43.718" lon="5.03352">
        <ele>148</ele>
        <time>2019-09-26T09:32:28Z</time>
      </trkpt>
      <trkpt lat="43.71799" lon="5.0335">
        <ele>148</ele>
        <time>2019-09-26T09:32:30Z</time>
      </trkpt>
      <trkpt lat="43.71799" lon="5.03349">
        <ele>148</ele>
        <time>2019-09-26T09:32:32Z</time>
      </trkpt>
      <trkpt lat="43.71798" lon="5.03347">
        <ele>148</ele>
        <time>2019-09-26T09:32:34Z</time>
      </trkpt>
      <trkpt lat="43.71798" lon="5.03345">
        <ele>148</ele>
        <time>2019-09-26T09:32:35Z</time>
      </trkpt>
      <trkpt lat="43.71798" lon="5.03343">
        <ele>148</ele>
        <time>2019-09-26T09:32:36Z</time>
      </trkpt>
      <trkpt lat="43.71797" lon="5.03341">
        <ele>148</ele>
        <time>2019-09-26T09:32:38Z</time>
      </trkpt>
      <trkpt lat="43.71795" lon="5.03338">
        <ele>148</ele>
        <time>2019-09-26T09:32:41Z</time>
      </trkpt>
      <trkpt lat="43.71795" lon="5.03335">
        <ele>148</ele>
        <time>2019-09-26T09:32:43Z</time>
      </trkpt>
      <trkpt lat="43.71794" lon="5.03333">
        <ele>149</ele>
        <time>2019-09-26T09:32:45Z</time>
      </trkpt>
      <trkpt lat="43.71792" lon="5.03328">
        <ele>149</ele>
        <time>2019-09-26T09:32:48Z</time>
      </trkpt>
      <trkpt lat="43.71792" lon="5.03326">
        <ele>149</ele>
        <time>2019-09-26T09:32:50Z</time>
      </trkpt>
      <trkpt lat="43.71791" lon="5.03325">
        <ele>149</ele>
        <time>2019-09-26T09:32:52Z</time>
      </trkpt>
      <trkpt lat="43.71791" lon="5.03323">
        <ele>149</ele>
        <time>2019-09-26T09:32:54Z</time>
      </trkpt>
      <trkpt lat="43.7179" lon="5.03322">
        <ele>149</ele>
        <time>2019-09-26T09:32:55Z</time>
      </trkpt>
      <trkpt lat="43.71789" lon="5.03319">
        <ele>149</ele>
        <time>2019-09-26T09:32:57Z</time>
      </trkpt>
      <trkpt lat="43.71789" lon="5.03316">
        <ele>149</ele>
        <time>2019-09-26T09:32:59Z</time>
      </trkpt>
      <trkpt lat="43.71788" lon="5.03314">
        <ele>149</ele>
        <time>2019-09-26T09:33:01Z</time>
      </trkpt>
      <trkpt lat="43.71787" lon="5.03311">
        <ele>149</ele>
        <time>2019-09-26T09:33:03Z</time>
      </trkpt>
      <trkpt lat="43.71786" lon="5.03309">
        <ele>149</ele>
        <time>2019-09-26T09:33:05Z</time>
      </trkpt>
      <trkpt lat="43.71784" lon="5.03305">
        <ele>149</ele>
        <time>2019-09-26T09:33:07Z</time>
      </trkpt>
      <trkpt lat="43.71784" lon="5.03303">
        <ele>149</ele>
        <time>2019-09-26T09:33:10Z</time>
      </trkpt>
      <trkpt lat="43.71783" lon="5.03302">
        <ele>149</ele>
        <time>2019-09-26T09:33:14Z</time>
      </trkpt>
      <trkpt lat="43.71783" lon="5.033">
        <ele>150</ele>
        <time>2019-09-26T09:33:15Z</time>
      </trkpt>
      <trkpt lat="43.71782" lon="5.03298">
        <ele>150</ele>
        <time>2019-09-26T09:33:23Z</time>
      </trkpt>
      <trkpt lat="43.71782" lon="5.03298">
        <ele>150</ele>
        <time>2019-09-26T09:33:24Z</time>
      </trkpt>
      <trkpt lat="43.71782" lon="5.03296">
        <ele>150</ele>
        <time>2019-09-26T09:33:25Z</time>
      </trkpt>
      <trkpt lat="43.7178" lon="5.03291">
        <ele>151</ele>
        <time>2019-09-26T09:33:29Z</time>
      </trkpt>
      <trkpt lat="43.7178" lon="5.03289">
        <ele>151</ele>
        <time>2019-09-26T09:33:31Z</time>
      </trkpt>
      <trkpt lat="43.71779" lon="5.03286">
        <ele>151</ele>
        <time>2019-09-26T09:33:33Z</time>
      </trkpt>
      <trkpt lat="43.71778" lon="5.03284">
        <ele>151</ele>
        <time>2019-09-26T09:33:36Z</time>
      </trkpt>
      <trkpt lat="43.71777" lon="5.0328">
        <ele>151</ele>
        <time>2019-09-26T09:33:38Z</time>
      </trkpt>
      <trkpt lat="43.71775" lon="5.03275">
        <ele>151</ele>
        <time>2019-09-26T09:33:40Z</time>
      </trkpt>
      <trkpt lat="43.71774" lon="5.03273">
        <ele>151</ele>
        <time>2019-09-26T09:33:43Z</time>
      </trkpt>
      <trkpt lat="43.71774" lon="5.03271">
        <ele>151</ele>
        <time>2019-09-26T09:33:45Z</time>
      </trkpt>
      <trkpt lat="43.71773" lon="5.03269">
        <ele>151</ele>
        <time>2019-09-26T09:33:47Z</time>
      </trkpt>
      <trkpt lat="43.71772" lon="5.03267">
        <ele>153</ele>
        <time>2019-09-26T09:33:48Z</time>
      </trkpt>
      <trkpt lat="43.71771" lon="5.03263">
        <ele>153</ele>
        <time>2019-09-26T09:33:49Z</time>
      </trkpt>
      <trkpt lat="43.7177" lon="5.03261">
        <ele>153</ele>
        <time>2019-09-26T09:33:51Z</time>
      </trkpt>
      <trkpt lat="43.7177" lon="5.0326">
        <ele>153</ele>
        <time>2019-09-26T09:33:54Z</time>
      </trkpt>
      <trkpt lat="43.71769" lon="5.03258">
        <ele>153</ele>
        <time>2019-09-26T09:33:57Z</time>
      </trkpt>
      <trkpt lat="43.71768" lon="5.03256">
        <ele>155</ele>
        <time>2019-09-26T09:33:58Z</time>
      </trkpt>
      <trkpt lat="43.71767" lon="5.03253">
        <ele>155</ele>
        <time>2019-09-26T09:33:59Z</time>
      </trkpt>
      <trkpt lat="43.71765" lon="5.03252">
        <ele>155</ele>
        <time>2019-09-26T09:34:01Z</time>
      </trkpt>
      <trkpt lat="43.71763" lon="5.03251">
        <ele>155</ele>
        <time>2019-09-26T09:34:04Z</time>
      </trkpt>
      <trkpt lat="43.71761" lon="5.03251">
        <ele>155</ele>
        <time>2019-09-26T09:34:06Z</time>
      </trkpt>
      <trkpt lat="43.71761" lon="5.03251">
        <ele>155</ele>
        <time>2019-09-26T09:34:08Z</time>
      </trkpt>
      <trkpt lat="43.71759" lon="5.03251">
        <ele>155</ele>
        <time>2019-09-26T09:34:16Z</time>
      </trkpt>
      <trkpt lat="43.71759" lon="5.03251">
        <ele>155</ele>
        <time>2019-09-26T09:34:18Z</time>
      </trkpt>
      <trkpt lat="43.71756" lon="5.03251">
        <ele>155</ele>
        <time>2019-09-26T09:34:19Z</time>
      </trkpt>
      <trkpt lat="43.71754" lon="5.03253">
        <ele>155</ele>
        <time>2019-09-26T09:34:22Z</time>
      </trkpt>
      <trkpt lat="43.71752" lon="5.03253">
        <ele>155</ele>
        <time>2019-09-26T09:34:25Z</time>
      </trkpt>
      <trkpt lat="43.71752" lon="5.03253">
        <ele>155</ele>
        <time>2019-09-26T09:34:28Z</time>
      </trkpt>
      <trkpt lat="43.7175" lon="5.03255">
        <ele>155</ele>
        <time>2019-09-26T09:34:33Z</time>
      </trkpt>
      <trkpt lat="43.71748" lon="5.03257">
        <ele>155</ele>
        <time>2019-09-26T09:34:36Z</time>
      </trkpt>
      <trkpt lat="43.71748" lon="5.03257">
        <ele>155</ele>
        <time>2019-09-26T09:34:38Z</time>
      </trkpt>
      <trkpt lat="43.71744" lon="5.03259">
        <ele>155</ele>
        <time>2019-09-26T09:34:39Z</time>
      </trkpt>
      <trkpt lat="43.71743" lon="5.03261">
        <ele>155</ele>
        <time>2019-09-26T09:34:41Z</time>
      </trkpt>
      <trkpt lat="43.71742" lon="5.03262">
        <ele>155</ele>
        <time>2019-09-26T09:34:43Z</time>
      </trkpt>
      <trkpt lat="43.71741" lon="5.03264">
        <ele>155</ele>
        <time>2019-09-26T09:34:45Z</time>
      </trkpt>
      <trkpt lat="43.7174" lon="5.03265">
        <ele>155</ele>
        <time>2019-09-26T09:34:47Z</time>
      </trkpt>
      <trkpt lat="43.7174" lon="5.03267">
        <ele>156</ele>
        <time>2019-09-26T09:34:48Z</time>
      </trkpt>
      <trkpt lat="43.71737" lon="5.0327">
        <ele>156</ele>
        <time>2019-09-26T09:34:49Z</time>
      </trkpt>
      <trkpt lat="43.71736" lon="5.03271">
        <ele>156</ele>
        <time>2019-09-26T09:34:51Z</time>
      </trkpt>
      <trkpt lat="43.71735" lon="5.03273">
        <ele>156</ele>
        <time>2019-09-26T09:34:53Z</time>
      </trkpt>
      <trkpt lat="43.71733" lon="5.03274">
        <ele>156</ele>
        <time>2019-09-26T09:34:55Z</time>
      </trkpt>
      <trkpt lat="43.71732" lon="5.03276">
        <ele>156</ele>
        <time>2019-09-26T09:34:57Z</time>
      </trkpt>
      <trkpt lat="43.71731" lon="5.03277">
        <ele>157</ele>
        <time>2019-09-26T09:34:58Z</time>
      </trkpt>
      <trkpt lat="43.71729" lon="5.0328">
        <ele>157</ele>
        <time>2019-09-26T09:34:59Z</time>
      </trkpt>
      <trkpt lat="43.71728" lon="5.03281">
        <ele>157</ele>
        <time>2019-09-26T09:35:01Z</time>
      </trkpt>
      <trkpt lat="43.71727" lon="5.03283">
        <ele>157</ele>
        <time>2019-09-26T09:35:03Z</time>
      </trkpt>
      <trkpt lat="43.71725" lon="5.03285">
        <ele>157</ele>
        <time>2019-09-26T09:35:05Z</time>
      </trkpt>
      <trkpt lat="43.71724" lon="5.03286">
        <ele>157</ele>
        <time>2019-09-26T09:35:07Z</time>
      </trkpt>
      <trkpt lat="43.71723" lon="5.03288">
        <ele>157</ele>
        <time>2019-09-26T09:35:08Z</time>
      </trkpt>
      <trkpt lat="43.71721" lon="5.0329">
        <ele>157</ele>
        <time>2019-09-26T09:35:09Z</time>
      </trkpt>
      <trkpt lat="43.7172" lon="5.03291">
        <ele>157</ele>
        <time>2019-09-26T09:35:11Z</time>
      </trkpt>
      <trkpt lat="43.71719" lon="5.03292">
        <ele>157</ele>
        <time>2019-09-26T09:35:13Z</time>
      </trkpt>
      <trkpt lat="43.71718" lon="5.03293">
        <ele>157</ele>
        <time>2019-09-26T09:35:15Z</time>
      </trkpt>
      <trkpt lat="43.71717" lon="5.03295">
        <ele>157</ele>
        <time>2019-09-26T09:35:17Z</time>
      </trkpt>
      <trkpt lat="43.71715" lon="5.03296">
        <ele>157</ele>
        <time>2019-09-26T09:35:18Z</time>
      </trkpt>
      <trkpt lat="43.71713" lon="5.03299">
        <ele>157</ele>
        <time>2019-09-26T09:35:20Z</time>
      </trkpt>
      <trkpt lat="43.71712" lon="5.03301">
        <ele>157</ele>
        <time>2019-09-26T09:35:22Z</time>
      </trkpt>
      <trkpt lat="43.71711" lon="5.03302">
        <ele>157</ele>
        <time>2019-09-26T09:35:25Z</time>
      </trkpt>
      <trkpt lat="43.7171" lon="5.03303">
        <ele>157</ele>
        <time>2019-09-26T09:35:27Z</time>
      </trkpt>
      <trkpt lat="43.71709" lon="5.03304">
        <ele>158</ele>
        <time>2019-09-26T09:35:28Z</time>
      </trkpt>
      <trkpt lat="43.71708" lon="5.03307">
        <ele>158</ele>
        <time>2019-09-26T09:35:37Z</time>
      </trkpt>
      <trkpt lat="43.71708" lon="5.03307">
        <ele>159</ele>
        <time>2019-09-26T09:35:38Z</time>
      </trkpt>
      <trkpt lat="43.71706" lon="5.03309">
        <ele>159</ele>
        <time>2019-09-26T09:35:40Z</time>
      </trkpt>
      <trkpt lat="43.71705" lon="5.03311">
        <ele>159</ele>
        <time>2019-09-26T09:35:42Z</time>
      </trkpt>
      <trkpt lat="43.71703" lon="5.03313">
        <ele>159</ele>
        <time>2019-09-26T09:35:44Z</time>
      </trkpt>
      <trkpt lat="43.71702" lon="5.03316">
        <ele>159</ele>
        <time>2019-09-26T09:35:46Z</time>
      </trkpt>
      <trkpt lat="43.71701" lon="5.03317">
        <ele>160</ele>
        <time>2019-09-26T09:35:48Z</time>
      </trkpt>
      <trkpt lat="43.71699" lon="5.03319">
        <ele>160</ele>
        <time>2019-09-26T09:35:50Z</time>
      </trkpt>
      <trkpt lat="43.71698" lon="5.03321">
        <ele>160</ele>
        <time>2019-09-26T09:35:52Z</time>
      </trkpt>
      <trkpt lat="43.71696" lon="5.03323">
        <ele>160</ele>
        <time>2019-09-26T09:35:54Z</time>
      </trkpt>
      <trkpt lat="43.71694" lon="5.03325">
        <ele>160</ele>
        <time>2019-09-26T09:35:56Z</time>
      </trkpt>
      <trkpt lat="43.71694" lon="5.03325">
        <ele>161</ele>
        <time>2019-09-26T09:35:58Z</time>
      </trkpt>
      <trkpt lat="43.71692" lon="5.03327">
        <ele>161</ele>
        <time>2019-09-26T09:35:59Z</time>
      </trkpt>
      <trkpt lat="43.7169" lon="5.03328">
        <ele>161</ele>
        <time>2019-09-26T09:36:01Z</time>
      </trkpt>
      <trkpt lat="43.71688" lon="5.0333">
        <ele>161</ele>
        <time>2019-09-26T09:36:04Z</time>
      </trkpt>
      <trkpt lat="43.71686" lon="5.03331">
        <ele>161</ele>
        <time>2019-09-26T09:36:06Z</time>
      </trkpt>
      <trkpt lat="43.71684" lon="5.03332">
        <ele>162</ele>
        <time>2019-09-26T09:36:08Z</time>
      </trkpt>
      <trkpt lat="43.71682" lon="5.03335">
        <ele>162</ele>
        <time>2019-09-26T09:36:10Z</time>
      </trkpt>
      <trkpt lat="43.71681" lon="5.03336">
        <ele>162</ele>
        <time>2019-09-26T09:36:12Z</time>
      </trkpt>
      <trkpt lat="43.71679" lon="5.03337">
        <ele>162</ele>
        <time>2019-09-26T09:36:14Z</time>
      </trkpt>
      <trkpt lat="43.71678" lon="5.03337">
        <ele>162</ele>
        <time>2019-09-26T09:36:17Z</time>
      </trkpt>
      <trkpt lat="43.71677" lon="5.03338">
        <ele>163</ele>
        <time>2019-09-26T09:36:18Z</time>
      </trkpt>
      <trkpt lat="43.71676" lon="5.03339">
        <ele>163</ele>
        <time>2019-09-26T09:36:19Z</time>
      </trkpt>
      <trkpt lat="43.71673" lon="5.0334">
        <ele>163</ele>
        <time>2019-09-26T09:36:21Z</time>
      </trkpt>
      <trkpt lat="43.71672" lon="5.03341">
        <ele>163</ele>
        <time>2019-09-26T09:36:23Z</time>
      </trkpt>
      <trkpt lat="43.7167" lon="5.03343">
        <ele>163</ele>
        <time>2019-09-26T09:36:26Z</time>
      </trkpt>
      <trkpt lat="43.7167" lon="5.03343">
        <ele>164</ele>
        <time>2019-09-26T09:36:28Z</time>
      </trkpt>
      <trkpt lat="43.71667" lon="5.03345">
        <ele>164</ele>
        <time>2019-09-26T09:36:29Z</time>
      </trkpt>
      <trkpt lat="43.71666" lon="5.03347">
        <ele>164</ele>
        <time>2019-09-26T09:36:31Z</time>
      </trkpt>
      <trkpt lat="43.71665" lon="5.03348">
        <ele>164</ele>
        <time>2019-09-26T09:36:33Z</time>
      </trkpt>
      <trkpt lat="43.71664" lon="5.03349">
        <ele>164</ele>
        <time>2019-09-26T09:36:35Z</time>
      </trkpt>
      <trkpt lat="43.71663" lon="5.0335">
        <ele>164</ele>
        <time>2019-09-26T09:36:37Z</time>
      </trkpt>
      <trkpt lat="43.71662" lon="5.03351">
        <ele>167</ele>
        <time>2019-09-26T09:36:38Z</time>
      </trkpt>
      <trkpt lat="43.71659" lon="5.03354">
        <ele>167</ele>
        <time>2019-09-26T09:36:40Z</time>
      </trkpt>
      <trkpt lat="43.71658" lon="5.03355">
        <ele>167</ele>
        <time>2019-09-26T09:36:42Z</time>
      </trkpt>
      <trkpt lat="43.71657" lon="5.03356">
        <ele>167</ele>
        <time>2019-09-26T09:36:45Z</time>
      </trkpt>
      <trkpt lat="43.71656" lon="5.03357">
        <ele>167</ele>
        <time>2019-09-26T09:36:47Z</time>
      </trkpt>
      <trkpt lat="43.71655" lon="5.03358">
        <ele>167</ele>
        <time>2019-09-26T09:36:48Z</time>
      </trkpt>
      <trkpt lat="43.71651" lon="5.03359">
        <ele>167</ele>
        <time>2019-09-26T09:36:50Z</time>
      </trkpt>
      <trkpt lat="43.7165" lon="5.03359">
        <ele>167</ele>
        <time>2019-09-26T09:36:53Z</time>
      </trkpt>
      <trkpt lat="43.71648" lon="5.03359">
        <ele>169</ele>
        <time>2019-09-26T09:36:58Z</time>
      </trkpt>
      <trkpt lat="43.71646" lon="5.03359">
        <ele>169</ele>
        <time>2019-09-26T09:37:02Z</time>
      </trkpt>
      <trkpt lat="43.71645" lon="5.03359">
        <ele>168</ele>
        <time>2019-09-26T09:37:05Z</time>
      </trkpt>
      <trkpt lat="43.71643" lon="5.03359">
        <ele>168</ele>
        <time>2019-09-26T09:37:06Z</time>
      </trkpt>
      <trkpt lat="43.71642" lon="5.03358">
        <ele>168</ele>
        <time>2019-09-26T09:37:15Z</time>
      </trkpt>
      <trkpt lat="43.7164" lon="5.03358">
        <ele>168</ele>
        <time>2019-09-26T09:37:16Z</time>
      </trkpt>
      <trkpt lat="43.71639" lon="5.03358">
        <ele>168</ele>
        <time>2019-09-26T09:37:18Z</time>
      </trkpt>
      <trkpt lat="43.71637" lon="5.03358">
        <ele>168</ele>
        <time>2019-09-26T09:37:21Z</time>
      </trkpt>
      <trkpt lat="43.71636" lon="5.03358">
        <ele>168</ele>
        <time>2019-09-26T09:37:23Z</time>
      </trkpt>
      <trkpt lat="43.71634" lon="5.03358">
        <ele>168</ele>
        <time>2019-09-26T09:37:24Z</time>
      </trkpt>
      <trkpt lat="43.71632" lon="5.03357">
        <ele>168</ele>
        <time>2019-09-26T09:37:25Z</time>
      </trkpt>
      <trkpt lat="43.7163" lon="5.03357">
        <ele>168</ele>
        <time>2019-09-26T09:37:28Z</time>
      </trkpt>
      <trkpt lat="43.71627" lon="5.03356">
        <ele>168</ele>
        <time>2019-09-26T09:37:31Z</time>
      </trkpt>
      <trkpt lat="43.71625" lon="5.03355">
        <ele>168</ele>
        <time>2019-09-26T09:37:34Z</time>
      </trkpt>
      <trkpt lat="43.71622" lon="5.03354">
        <ele>168</ele>
        <time>2019-09-26T09:37:37Z</time>
      </trkpt>
      <trkpt lat="43.7162" lon="5.03353">
        <ele>168</ele>
        <time>2019-09-26T09:37:39Z</time>
      </trkpt>
      <trkpt lat="43.71618" lon="5.03353">
        <ele>168</ele>
        <time>2019-09-26T09:37:42Z</time>
      </trkpt>
      <trkpt lat="43.71616" lon="5.03352">
        <ele>168</ele>
        <time>2019-09-26T09:37:44Z</time>
      </trkpt>
      <trkpt lat="43.71614" lon="5.03352">
        <ele>168</ele>
        <time>2019-09-26T09:37:46Z</time>
      </trkpt>
      <trkpt lat="43.71612" lon="5.03352">
        <ele>168</ele>
        <time>2019-09-26T09:37:49Z</time>
      </trkpt>
      <trkpt lat="43.7161" lon="5.03352">
        <ele>168</ele>
        <time>2019-09-26T09:37:52Z</time>
      </trkpt>
      <trkpt lat="43.7161" lon="5.03352">
        <ele>168</ele>
        <time>2019-09-26T09:37:54Z</time>
      </trkpt>
      <trkpt lat="43.71607" lon="5.03352">
        <ele>168</ele>
        <time>2019-09-26T09:37:55Z</time>
      </trkpt>
      <trkpt lat="43.71605" lon="5.03352">
        <ele>168</ele>
        <time>2019-09-26T09:37:58Z</time>
      </trkpt>
      <trkpt lat="43.71602" lon="5.03352">
        <ele>168</ele>
        <time>2019-09-26T09:38:02Z</time>
      </trkpt>
      <trkpt lat="43.71602" lon="5.03352">
        <ele>171</ele>
        <time>2019-09-26T09:38:04Z</time>
      </trkpt>
      <trkpt lat="43.716" lon="5.03353">
        <ele>171</ele>
        <time>2019-09-26T09:38:05Z</time>
      </trkpt>
      <trkpt lat="43.71598" lon="5.03353">
        <ele>171</ele>
        <time>2019-09-26T09:38:08Z</time>
      </trkpt>
      <trkpt lat="43.71595" lon="5.03354">
        <ele>171</ele>
        <time>2019-09-26T09:38:11Z</time>
      </trkpt>
      <trkpt lat="43.71593" lon="5.03355">
        <ele>172</ele>
        <time>2019-09-26T09:38:14Z</time>
      </trkpt>
      <trkpt lat="43.71591" lon="5.03355">
        <ele>172</ele>
        <time>2019-09-26T09:38:16Z</time>
      </trkpt>
      <trkpt lat="43.71589" lon="5.03356">
        <ele>172</ele>
        <time>2019-09-26T09:38:19Z</time>
      </trkpt>
      <trkpt lat="43.71587" lon="5.03357">
        <ele>172</ele>
        <time>2019-09-26T09:38:22Z</time>
      </trkpt>
      <trkpt lat="43.71587" lon="5.03357">
        <ele>172</ele>
        <time>2019-09-26T09:38:24Z</time>
      </trkpt>
      <trkpt lat="43.71584" lon="5.03358">
        <ele>172</ele>
        <time>2019-09-26T09:38:25Z</time>
      </trkpt>
      <trkpt lat="43.71582" lon="5.03359">
        <ele>172</ele>
        <time>2019-09-26T09:38:28Z</time>
      </trkpt>
      <trkpt lat="43.71579" lon="5.0336">
        <ele>172</ele>
        <time>2019-09-26T09:38:31Z</time>
      </trkpt>
      <trkpt lat="43.71577" lon="5.03361">
        <ele>173</ele>
        <time>2019-09-26T09:38:34Z</time>
      </trkpt>
      <trkpt lat="43.71574" lon="5.03361">
        <ele>173</ele>
        <time>2019-09-26T09:38:37Z</time>
      </trkpt>
      <trkpt lat="43.71572" lon="5.03362">
        <ele>173</ele>
        <time>2019-09-26T09:38:39Z</time>
      </trkpt>
      <trkpt lat="43.7157" lon="5.03362">
        <ele>173</ele>
        <time>2019-09-26T09:38:42Z</time>
      </trkpt>
      <trkpt lat="43.7157" lon="5.03362">
        <ele>173</ele>
        <time>2019-09-26T09:38:44Z</time>
      </trkpt>
      <trkpt lat="43.71566" lon="5.03364">
        <ele>173</ele>
        <time>2019-09-26T09:38:45Z</time>
      </trkpt>
      <trkpt lat="43.71565" lon="5.03364">
        <ele>173</ele>
        <time>2019-09-26T09:38:48Z</time>
      </trkpt>
      <trkpt lat="43.71564" lon="5.03364">
        <ele>173</ele>
        <time>2019-09-26T09:38:51Z</time>
      </trkpt>
      <trkpt lat="43.71563" lon="5.03365">
        <ele>173</ele>
        <time>2019-09-26T09:38:53Z</time>
      </trkpt>
      <trkpt lat="43.71562" lon="5.03365">
        <ele>174</ele>
        <time>2019-09-26T09:38:54Z</time>
      </trkpt>
      <trkpt lat="43.7156" lon="5.03366">
        <ele>174</ele>
        <time>2019-09-26T09:38:56Z</time>
      </trkpt>
      <trkpt lat="43.71558" lon="5.03366">
        <ele>174</ele>
        <time>2019-09-26T09:38:59Z</time>
      </trkpt>
      <trkpt lat="43.71556" lon="5.03367">
        <ele>174</ele>
        <time>2019-09-26T09:39:02Z</time>
      </trkpt>
      <trkpt lat="43.71556" lon="5.03367">
        <ele>176</ele>
        <time>2019-09-26T09:39:04Z</time>
      </trkpt>
      <trkpt lat="43.71554" lon="5.03368">
        <ele>176</ele>
        <time>2019-09-26T09:39:05Z</time>
      </trkpt>
      <trkpt lat="43.71552" lon="5.03369">
        <ele>176</ele>
        <time>2019-09-26T09:39:08Z</time>
      </trkpt>
      <trkpt lat="43.7155" lon="5.0337">
        <ele>176</ele>
        <time>2019-09-26T09:39:11Z</time>
      </trkpt>
      <trkpt lat="43.71547" lon="5.03371">
        <ele>176</ele>
        <time>2019-09-26T09:39:14Z</time>
      </trkpt>
      <trkpt lat="43.71544" lon="5.03373">
        <ele>176</ele>
        <time>2019-09-26T09:39:17Z</time>
      </trkpt>
      <trkpt lat="43.71542" lon="5.03373">
        <ele>176</ele>
        <time>2019-09-26T09:39:20Z</time>
      </trkpt>
      <trkpt lat="43.71541" lon="5.03373">
        <ele>176</ele>
        <time>2019-09-26T09:39:23Z</time>
      </trkpt>
      <trkpt lat="43.7154" lon="5.03374">
        <ele>179</ele>
        <time>2019-09-26T09:39:24Z</time>
      </trkpt>
      <trkpt lat="43.71537" lon="5.03373">
        <ele>179</ele>
        <time>2019-09-26T09:39:25Z</time>
      </trkpt>
      <trkpt lat="43.71535" lon="5.03373">
        <ele>179</ele>
        <time>2019-09-26T09:39:27Z</time>
      </trkpt>
      <trkpt lat="43.71534" lon="5.03373">
        <ele>179</ele>
        <time>2019-09-26T09:39:29Z</time>
      </trkpt>
      <trkpt lat="43.71532" lon="5.03373">
        <ele>179</ele>
        <time>2019-09-26T09:39:31Z</time>
      </trkpt>
      <trkpt lat="43.71531" lon="5.03372">
        <ele>179</ele>
        <time>2019-09-26T09:39:33Z</time>
      </trkpt>
      <trkpt lat="43.71529" lon="5.03372">
        <ele>179</ele>
        <time>2019-09-26T09:39:34Z</time>
      </trkpt>
      <trkpt lat="43.71528" lon="5.03372">
        <ele>179</ele>
        <time>2019-09-26T09:39:35Z</time>
      </trkpt>
      <trkpt lat="43.71526" lon="5.03371">
        <ele>179</ele>
        <time>2019-09-26T09:39:37Z</time>
      </trkpt>
      <trkpt lat="43.71524" lon="5.03371">
        <ele>179</ele>
        <time>2019-09-26T09:39:39Z</time>
      </trkpt>
      <trkpt lat="43.71522" lon="5.0337">
        <ele>179</ele>
        <time>2019-09-26T09:39:42Z</time>
      </trkpt>
      <trkpt lat="43.7152" lon="5.03368">
        <ele>180</ele>
        <time>2019-09-26T09:39:44Z</time>
      </trkpt>
      <trkpt lat="43.71519" lon="5.03366">
        <ele>180</ele>
        <time>2019-09-26T09:39:46Z</time>
      </trkpt>
      <trkpt lat="43.71518" lon="5.03364">
        <ele>180</ele>
        <time>2019-09-26T09:39:48Z</time>
      </trkpt>
      <trkpt lat="43.71517" lon="5.03362">
        <ele>180</ele>
        <time>2019-09-26T09:39:50Z</time>
      </trkpt>
      <trkpt lat="43.71516" lon="5.0336">
        <ele>180</ele>
        <time>2019-09-26T09:39:52Z</time>
      </trkpt>
      <trkpt lat="43.71516" lon="5.0336">
        <ele>180</ele>
        <time>2019-09-26T09:39:54Z</time>
      </trkpt>
      <trkpt lat="43.71514" lon="5.03355">
        <ele>180</ele>
        <time>2019-09-26T09:39:55Z</time>
      </trkpt>
      <trkpt lat="43.71513" lon="5.03354">
        <ele>180</ele>
        <time>2019-09-26T09:39:57Z</time>
      </trkpt>
      <trkpt lat="43.71512" lon="5.03352">
        <ele>180</ele>
        <time>2019-09-26T09:39:59Z</time>
      </trkpt>
      <trkpt lat="43.71511" lon="5.03351">
        <ele>180</ele>
        <time>2019-09-26T09:40:01Z</time>
      </trkpt>
      <trkpt lat="43.71511" lon="5.03349">
        <ele>180</ele>
        <time>2019-09-26T09:40:03Z</time>
      </trkpt>
      <trkpt lat="43.7151" lon="5.03348">
        <ele>184</ele>
        <time>2019-09-26T09:40:04Z</time>
      </trkpt>
      <trkpt lat="43.71508" lon="5.03345">
        <ele>184</ele>
        <time>2019-09-26T09:40:05Z</time>
      </trkpt>
      <trkpt lat="43.71507" lon="5.03343">
        <ele>184</ele>
        <time>2019-09-26T09:40:07Z</time>
      </trkpt>
      <trkpt lat="43.71506" lon="5.03341">
        <ele>184</ele>
        <time>2019-09-26T09:40:09Z</time>
      </trkpt>
      <trkpt lat="43.71505" lon="5.03339">
        <ele>184</ele>
        <time>2019-09-26T09:40:11Z</time>
      </trkpt>
      <trkpt lat="43.71503" lon="5.03337">
        <ele>184</ele>
        <time>2019-09-26T09:40:14Z</time>
      </trkpt>
      <trkpt lat="43.71502" lon="5.03334">
        <ele>184</ele>
        <time>2019-09-26T09:40:17Z</time>
      </trkpt>
      <trkpt lat="43.71501" lon="5.03332">
        <ele>184</ele>
        <time>2019-09-26T09:40:19Z</time>
      </trkpt>
      <trkpt lat="43.71499" lon="5.03329">
        <ele>184</ele>
        <time>2019-09-26T09:40:22Z</time>
      </trkpt>
      <trkpt lat="43.71499" lon="5.03329">
        <ele>185</ele>
        <time>2019-09-26T09:40:24Z</time>
      </trkpt>
      <trkpt lat="43.71498" lon="5.03326">
        <ele>185</ele>
        <time>2019-09-26T09:40:25Z</time>
      </trkpt>
      <trkpt lat="43.71497" lon="5.03323">
        <ele>185</ele>
        <time>2019-09-26T09:40:28Z</time>
      </trkpt>
      <trkpt lat="43.71495" lon="5.0332">
        <ele>185</ele>
        <time>2019-09-26T09:40:31Z</time>
      </trkpt>
      <trkpt lat="43.71494" lon="5.03318">
        <ele>186</ele>
        <time>2019-09-26T09:40:34Z</time>
      </trkpt>
      <trkpt lat="43.71492" lon="5.03317">
        <ele>186</ele>
        <time>2019-09-26T09:40:40Z</time>
      </trkpt>
      <trkpt lat="43.71492" lon="5.03317">
        <ele>187</ele>
        <time>2019-09-26T09:40:42Z</time>
      </trkpt>
      <trkpt lat="43.71492" lon="5.03316">
        <ele>187</ele>
        <time>2019-09-26T09:40:43Z</time>
      </trkpt>
      <trkpt lat="43.71492" lon="5.03316">
        <ele>213</ele>
        <time>2019-09-26T09:48:23Z</time>
      </trkpt>
      <trkpt lat="43.7154" lon="5.03258">
        <ele>213</ele>
        <time>2019-09-26T09:48:24Z</time>
      </trkpt>
      <trkpt lat="43.71552" lon="5.03252">
        <ele>213</ele>
        <time>2019-09-26T09:48:28Z</time>
      </trkpt>
      <trkpt lat="43.71565" lon="5.03248">
        <ele>213</ele>
        <time>2019-09-26T09:48:31Z</time>
      </trkpt>
      <trkpt lat="43.71565" lon="5.03248">
        <ele>214</ele>
        <time>2019-09-26T09:48:33Z</time>
      </trkpt>
      <trkpt lat="43.71555" lon="5.03255">
        <ele>214</ele>
        <time>2019-09-26T09:48:39Z</time>
      </trkpt>
      <trkpt lat="43.71555" lon="5.03259">
        <ele>214</ele>
        <time>2019-09-26T09:48:43Z</time>
      </trkpt>
      <trkpt lat="43.71555" lon="5.03262">
        <ele>214</ele>
        <time>2019-09-26T09:48:44Z</time>
      </trkpt>
      <trkpt lat="43.7156" lon="5.03257">
        <ele>214</ele>
        <time>2019-09-26T09:48:46Z</time>
      </trkpt>
      <trkpt lat="43.7156" lon="5.03257">
        <ele>214</ele>
        <time>2019-09-26T09:48:53Z</time>
      </trkpt>
      <trkpt lat="43.71551" lon="5.03256">
        <ele>215</ele>
        <time>2019-09-26T09:49:03Z</time>
      </trkpt>
      <trkpt lat="43.71551" lon="5.03256">
        <ele>215</ele>
        <time>2019-09-26T09:49:13Z</time>
      </trkpt>
      <trkpt lat="43.71548" lon="5.03268">
        <ele>215</ele>
        <time>2019-09-26T09:49:15Z</time>
      </trkpt>
      <trkpt lat="43.71548" lon="5.03268">
        <ele>215</ele>
        <time>2019-09-26T09:49:23Z</time>
      </trkpt>
      <trkpt lat="43.71548" lon="5.03268">
        <ele>214</ele>
        <time>2019-09-26T09:49:30Z</time>
      </trkpt>
      <trkpt lat="43.71546" lon="5.03274">
        <ele>214</ele>
        <time>2019-09-26T09:49:31Z</time>
      </trkpt>
      <trkpt lat="43.71546" lon="5.03274">
        <ele>215</ele>
        <time>2019-09-26T09:49:39Z</time>
      </trkpt>
      <trkpt lat="43.71545" lon="5.03272">
        <ele>215</ele>
        <time>2019-09-26T09:49:40Z</time>
      </trkpt>
      <trkpt lat="43.71545" lon="5.03272">
        <ele>214</ele>
        <time>2019-09-26T09:49:49Z</time>
      </trkpt>
      <trkpt lat="43.71545" lon="5.03272">
        <ele>213</ele>
        <time>2019-09-26T09:49:59Z</time>
      </trkpt>
      <trkpt lat="43.71541" lon="5.03265">
        <ele>213</ele>
        <time>2019-09-26T09:50:08Z</time>
      </trkpt>
      <trkpt lat="43.71531" lon="5.03268">
        <ele>212</ele>
        <time>2019-09-26T09:52:34Z</time>
      </trkpt>
      <trkpt lat="43.7153" lon="5.0327">
        <ele>212</ele>
        <time>2019-09-26T09:52:36Z</time>
      </trkpt>
      <trkpt lat="43.71529" lon="5.03272">
        <ele>212</ele>
        <time>2019-09-26T09:52:40Z</time>
      </trkpt>
      <trkpt lat="43.71529" lon="5.03275">
        <ele>209</ele>
        <time>2019-09-26T09:52:44Z</time>
      </trkpt>
      <trkpt lat="43.71529" lon="5.03278">
        <ele>209</ele>
        <time>2019-09-26T09:52:49Z</time>
      </trkpt>
      <trkpt lat="43.71529" lon="5.03278">
        <ele>209</ele>
        <time>2019-09-26T09:52:52Z</time>
      </trkpt>
      <trkpt lat="43.71529" lon="5.03279">
        <ele>209</ele>
        <time>2019-09-26T09:52:53Z</time>
      </trkpt>
      <trkpt lat="43.71529" lon="5.03279">
        <ele>202</ele>
        <time>2019-09-26T09:53:57Z</time>
      </trkpt>
      <trkpt lat="43.71546" lon="5.0329">
        <ele>202</ele>
        <time>2019-09-26T09:53:58Z</time>
      </trkpt>
      <trkpt lat="43.71547" lon="5.03291">
        <ele>202</ele>
        <time>2019-09-26T09:53:59Z</time>
      </trkpt>
      <trkpt lat="43.71545" lon="5.03292">
        <ele>202</ele>
        <time>2019-09-26T09:54:03Z</time>
      </trkpt>
      <trkpt lat="43.71545" lon="5.03292">
        <ele>200</ele>
        <time>2019-09-26T09:54:07Z</time>
      </trkpt>
      <trkpt lat="43.71544" lon="5.03294">
        <ele>200</ele>
        <time>2019-09-26T09:54:09Z</time>
      </trkpt>
      <trkpt lat="43.71543" lon="5.03295">
        <ele>200</ele>
        <time>2019-09-26T09:54:11Z</time>
      </trkpt>
      <trkpt lat="43.71543" lon="5.03295">
        <ele>193</ele>
        <time>2019-09-26T09:55:33Z</time>
      </trkpt>
      <trkpt lat="43.71528" lon="5.03328">
        <ele>193</ele>
        <time>2019-09-26T09:55:34Z</time>
      </trkpt>
      <trkpt lat="43.71527" lon="5.03328">
        <ele>193</ele>
        <time>2019-09-26T09:55:35Z</time>
      </trkpt>
      <trkpt lat="43.71525" lon="5.03326">
        <ele>193</ele>
        <time>2019-09-26T09:55:38Z</time>
      </trkpt>
      <trkpt lat="43.71523" lon="5.03324">
        <ele>193</ele>
        <time>2019-09-26T09:55:41Z</time>
      </trkpt>
      <trkpt lat="43.71523" lon="5.03324">
        <ele>194</ele>
        <time>2019-09-26T09:55:43Z</time>
      </trkpt>
      <trkpt lat="43.7152" lon="5.0332">
        <ele>194</ele>
        <time>2019-09-26T09:55:44Z</time>
      </trkpt>
      <trkpt lat="43.71519" lon="5.03319">
        <ele>194</ele>
        <time>2019-09-26T09:55:46Z</time>
      </trkpt>
      <trkpt lat="43.71518" lon="5.03317">
        <ele>194</ele>
        <time>2019-09-26T09:55:48Z</time>
      </trkpt>
      <trkpt lat="43.71516" lon="5.03316">
        <ele>194</ele>
        <time>2019-09-26T09:55:50Z</time>
      </trkpt>
      <trkpt lat="43.71515" lon="5.03315">
        <ele>194</ele>
        <time>2019-09-26T09:55:52Z</time>
      </trkpt>
      <trkpt lat="43.71514" lon="5.03314">
        <ele>193</ele>
        <time>2019-09-26T09:55:53Z</time>
      </trkpt>
      <trkpt lat="43.71511" lon="5.0331">
        <ele>193</ele>
        <time>2019-09-26T09:55:54Z</time>
      </trkpt>
      <trkpt lat="43.7151" lon="5.03309">
        <ele>193</ele>
        <time>2019-09-26T09:55:56Z</time>
      </trkpt>
      <trkpt lat="43.71508" lon="5.03308">
        <ele>193</ele>
        <time>2019-09-26T09:55:58Z</time>
      </trkpt>
      <trkpt lat="43.71507" lon="5.03306">
        <ele>193</ele>
        <time>2019-09-26T09:56:00Z</time>
      </trkpt>
      <trkpt lat="43.71506" lon="5.03305">
        <ele>193</ele>
        <time>2019-09-26T09:56:02Z</time>
      </trkpt>
      <trkpt lat="43.71505" lon="5.03304">
        <ele>192</ele>
        <time>2019-09-26T09:56:03Z</time>
      </trkpt>
      <trkpt lat="43.71503" lon="5.03302">
        <ele>192</ele>
        <time>2019-09-26T09:56:04Z</time>
      </trkpt>
      <trkpt lat="43.71502" lon="5.03301">
        <ele>192</ele>
        <time>2019-09-26T09:56:07Z</time>
      </trkpt>
      <trkpt lat="43.71501" lon="5.03299">
        <ele>192</ele>
        <time>2019-09-26T09:56:10Z</time>
      </trkpt>
      <trkpt lat="43.715" lon="5.03298">
        <ele>192</ele>
        <time>2019-09-26T09:56:13Z</time>
      </trkpt>
      <trkpt lat="43.715" lon="5.03297">
        <ele>192</ele>
        <time>2019-09-26T09:56:14Z</time>
      </trkpt>
      <trkpt lat="43.71497" lon="5.03295">
        <ele>192</ele>
        <time>2019-09-26T09:56:16Z</time>
      </trkpt>
      <trkpt lat="43.71496" lon="5.03295">
        <ele>192</ele>
        <time>2019-09-26T09:56:19Z</time>
      </trkpt>
      <trkpt lat="43.71495" lon="5.03295">
        <ele>192</ele>
        <time>2019-09-26T09:56:22Z</time>
      </trkpt>
      <trkpt lat="43.71494" lon="5.03295">
        <ele>192</ele>
        <time>2019-09-26T09:56:23Z</time>
      </trkpt>
      <trkpt lat="43.71492" lon="5.03297">
        <ele>192</ele>
        <time>2019-09-26T09:56:26Z</time>
      </trkpt>
      <trkpt lat="43.71493" lon="5.03301">
        <ele>192</ele>
        <time>2019-09-26T09:56:30Z</time>
      </trkpt>
      <trkpt lat="43.71493" lon="5.03304">
        <ele>191</ele>
        <time>2019-09-26T09:56:33Z</time>
      </trkpt>
      <trkpt lat="43.71494" lon="5.03309">
        <ele>191</ele>
        <time>2019-09-26T09:56:36Z</time>
      </trkpt>
      <trkpt lat="43.71494" lon="5.03311">
        <ele>191</ele>
        <time>2019-09-26T09:56:38Z</time>
      </trkpt>
      <trkpt lat="43.71494" lon="5.03313">
        <ele>191</ele>
        <time>2019-09-26T09:56:40Z</time>
      </trkpt>
      <trkpt lat="43.71494" lon="5.03314">
        <ele>191</ele>
        <time>2019-09-26T09:56:42Z</time>
      </trkpt>
      <trkpt lat="43.71494" lon="5.03316">
        <ele>188</ele>
        <time>2019-09-26T09:56:43Z</time>
      </trkpt>
      <trkpt lat="43.71494" lon="5.03318">
        <ele>188</ele>
        <time>2019-09-26T09:56:44Z</time>
      </trkpt>
      <trkpt lat="43.71492" lon="5.03316">
        <ele>188</ele>
        <time>2019-09-26T09:56:47Z</time>
      </trkpt>
      <trkpt lat="43.71491" lon="5.03314">
        <ele>188</ele>
        <time>2019-09-26T09:56:51Z</time>
      </trkpt>
      <trkpt lat="43.71491" lon="5.03314">
        <ele>187</ele>
        <time>2019-09-26T09:56:53Z</time>
      </trkpt>
      <trkpt lat="43.71489" lon="5.03312">
        <ele>187</ele>
        <time>2019-09-26T09:56:54Z</time>
      </trkpt>
      <trkpt lat="43.71487" lon="5.03313">
        <ele>187</ele>
        <time>2019-09-26T09:56:57Z</time>
      </trkpt>
      <trkpt lat="43.71486" lon="5.03314">
        <ele>186</ele>
        <time>2019-09-26T09:57:03Z</time>
      </trkpt>
      <trkpt lat="43.71485" lon="5.03314">
        <ele>186</ele>
        <time>2019-09-26T09:57:06Z</time>
      </trkpt>
      <trkpt lat="43.71483" lon="5.03315">
        <ele>186</ele>
        <time>2019-09-26T09:57:10Z</time>
      </trkpt>
      <trkpt lat="43.71482" lon="5.03316">
        <ele>185</ele>
        <time>2019-09-26T09:57:13Z</time>
      </trkpt>
      <trkpt lat="43.71481" lon="5.03316">
        <ele>185</ele>
        <time>2019-09-26T09:57:14Z</time>
      </trkpt>
      <trkpt lat="43.71479" lon="5.03317">
        <ele>185</ele>
        <time>2019-09-26T09:57:19Z</time>
      </trkpt>
      <trkpt lat="43.71478" lon="5.03317">
        <ele>183</ele>
        <time>2019-09-26T09:57:23Z</time>
      </trkpt>
      <trkpt lat="43.71476" lon="5.03318">
        <ele>184</ele>
        <time>2019-09-26T09:57:33Z</time>
      </trkpt>
      <trkpt lat="43.71475" lon="5.03319">
        <ele>184</ele>
        <time>2019-09-26T09:57:34Z</time>
      </trkpt>
      <trkpt lat="43.71474" lon="5.03319">
        <ele>185</ele>
        <time>2019-09-26T09:58:49Z</time>
      </trkpt>
      <trkpt lat="43.71472" lon="5.0332">
        <ele>185</ele>
        <time>2019-09-26T09:58:50Z</time>
      </trkpt>
      <trkpt lat="43.71471" lon="5.0332">
        <ele>185</ele>
        <time>2019-09-26T09:58:52Z</time>
      </trkpt>
      <trkpt lat="43.7147" lon="5.03321">
        <ele>185</ele>
        <time>2019-09-26T09:58:54Z</time>
      </trkpt>
      <trkpt lat="43.71468" lon="5.03322">
        <ele>185</ele>
        <time>2019-09-26T09:58:57Z</time>
      </trkpt>
      <trkpt lat="43.71467" lon="5.03322">
        <ele>185</ele>
        <time>2019-09-26T09:58:58Z</time>
      </trkpt>
      <trkpt lat="43.71466" lon="5.03323">
        <ele>185</ele>
        <time>2019-09-26T09:58:59Z</time>
      </trkpt>
      <trkpt lat="43.71465" lon="5.03325">
        <ele>185</ele>
        <time>2019-09-26T09:59:02Z</time>
      </trkpt>
      <trkpt lat="43.71464" lon="5.03328">
        <ele>185</ele>
        <time>2019-09-26T09:59:05Z</time>
      </trkpt>
      <trkpt lat="43.71463" lon="5.03331">
        <ele>185</ele>
        <time>2019-09-26T09:59:08Z</time>
      </trkpt>
      <trkpt lat="43.71462" lon="5.03333">
        <ele>185</ele>
        <time>2019-09-26T09:59:12Z</time>
      </trkpt>
      <trkpt lat="43.7146" lon="5.03334">
        <ele>185</ele>
        <time>2019-09-26T09:59:16Z</time>
      </trkpt>
      <trkpt lat="43.7146" lon="5.03334">
        <ele>185</ele>
        <time>2019-09-26T09:59:18Z</time>
      </trkpt>
      <trkpt lat="43.7146" lon="5.03334">
        <ele>185</ele>
        <time>2019-09-26T09:59:28Z</time>
      </trkpt>
      <trkpt lat="43.7146" lon="5.03334">
        <ele>185</ele>
        <time>2019-09-26T09:59:36Z</time>
      </trkpt>
      <trkpt lat="43.71459" lon="5.03334">
        <ele>185</ele>
        <time>2019-09-26T09:59:37Z</time>
      </trkpt>
      <trkpt lat="43.71313" lon="5.03208">
        <ele>210</ele>
        <time>2019-09-26T10:55:54Z</time>
      </trkpt>
      <trkpt lat="43.71312" lon="5.03208">
        <ele>210</ele>
        <time>2019-09-26T10:55:55Z</time>
      </trkpt>
      <trkpt lat="43.7131" lon="5.03209">
        <ele>210</ele>
        <time>2019-09-26T10:55:57Z</time>
      </trkpt>
      <trkpt lat="43.71308" lon="5.03209">
        <ele>210</ele>
        <time>2019-09-26T10:55:59Z</time>
      </trkpt>
      <trkpt lat="43.71306" lon="5.0321">
        <ele>210</ele>
        <time>2019-09-26T10:56:01Z</time>
      </trkpt>
      <trkpt lat="43.71306" lon="5.0321">
        <ele>209</ele>
        <time>2019-09-26T10:56:03Z</time>
      </trkpt>
      <trkpt lat="43.71304" lon="5.03211">
        <ele>209</ele>
        <time>2019-09-26T10:56:04Z</time>
      </trkpt>
      <trkpt lat="43.71302" lon="5.03212">
        <ele>209</ele>
        <time>2019-09-26T10:56:07Z</time>
      </trkpt>
      <trkpt lat="43.713" lon="5.03214">
        <ele>209</ele>
        <time>2019-09-26T10:56:11Z</time>
      </trkpt>
      <trkpt lat="43.713" lon="5.03214">
        <ele>210</ele>
        <time>2019-09-26T10:56:13Z</time>
      </trkpt>
      <trkpt lat="43.71298" lon="5.03215">
        <ele>210</ele>
        <time>2019-09-26T10:56:15Z</time>
      </trkpt>
      <trkpt lat="43.71297" lon="5.03218">
        <ele>210</ele>
        <time>2019-09-26T10:56:20Z</time>
      </trkpt>
      <trkpt lat="43.71295" lon="5.0322">
        <ele>209</ele>
        <time>2019-09-26T10:56:23Z</time>
      </trkpt>
      <trkpt lat="43.71292" lon="5.03223">
        <ele>209</ele>
        <time>2019-09-26T10:56:25Z</time>
      </trkpt>
      <trkpt lat="43.71291" lon="5.03223">
        <ele>209</ele>
        <time>2019-09-26T10:56:27Z</time>
      </trkpt>
      <trkpt lat="43.71289" lon="5.03224">
        <ele>209</ele>
        <time>2019-09-26T10:56:30Z</time>
      </trkpt>
      <trkpt lat="43.71288" lon="5.03225">
        <ele>209</ele>
        <time>2019-09-26T10:56:32Z</time>
      </trkpt>
      <trkpt lat="43.71287" lon="5.03226">
        <ele>208</ele>
        <time>2019-09-26T10:56:33Z</time>
      </trkpt>
      <trkpt lat="43.71286" lon="5.03226">
        <ele>208</ele>
        <time>2019-09-26T10:56:34Z</time>
      </trkpt>
      <trkpt lat="43.71284" lon="5.03226">
        <ele>208</ele>
        <time>2019-09-26T10:56:37Z</time>
      </trkpt>
      <trkpt lat="43.71282" lon="5.03227">
        <ele>208</ele>
        <time>2019-09-26T10:56:40Z</time>
      </trkpt>
      <trkpt lat="43.7128" lon="5.03228">
        <ele>209</ele>
        <time>2019-09-26T10:56:43Z</time>
      </trkpt>
      <trkpt lat="43.71277" lon="5.03229">
        <ele>209</ele>
        <time>2019-09-26T10:56:45Z</time>
      </trkpt>
      <trkpt lat="43.71276" lon="5.03229">
        <ele>209</ele>
        <time>2019-09-26T10:56:48Z</time>
      </trkpt>
      <trkpt lat="43.71274" lon="5.0323">
        <ele>209</ele>
        <time>2019-09-26T10:56:52Z</time>
      </trkpt>
      <trkpt lat="43.71273" lon="5.0323">
        <ele>211</ele>
        <time>2019-09-26T10:56:53Z</time>
      </trkpt>
      <trkpt lat="43.7127" lon="5.03233">
        <ele>211</ele>
        <time>2019-09-26T10:56:55Z</time>
      </trkpt>
      <trkpt lat="43.71268" lon="5.03234">
        <ele>211</ele>
        <time>2019-09-26T10:56:57Z</time>
      </trkpt>
      <trkpt lat="43.71267" lon="5.03235">
        <ele>211</ele>
        <time>2019-09-26T10:56:59Z</time>
      </trkpt>
      <trkpt lat="43.71266" lon="5.03236">
        <ele>211</ele>
        <time>2019-09-26T10:57:02Z</time>
      </trkpt>
      <trkpt lat="43.71265" lon="5.03238">
        <ele>212</ele>
        <time>2019-09-26T10:57:03Z</time>
      </trkpt>
      <trkpt lat="43.71264" lon="5.0324">
        <ele>212</ele>
        <time>2019-09-26T10:57:04Z</time>
      </trkpt>
      <trkpt lat="43.71263" lon="5.03242">
        <ele>212</ele>
        <time>2019-09-26T10:57:06Z</time>
      </trkpt>
      <trkpt lat="43.71262" lon="5.03243">
        <ele>212</ele>
        <time>2019-09-26T10:57:09Z</time>
      </trkpt>
      <trkpt lat="43.71261" lon="5.03245">
        <ele>212</ele>
        <time>2019-09-26T10:57:12Z</time>
      </trkpt>
      <trkpt lat="43.71261" lon="5.03247">
        <ele>212</ele>
        <time>2019-09-26T10:57:13Z</time>
      </trkpt>
      <trkpt lat="43.71259" lon="5.03248">
        <ele>212</ele>
        <time>2019-09-26T10:57:14Z</time>
      </trkpt>
      <trkpt lat="43.71257" lon="5.03251">
        <ele>212</ele>
        <time>2019-09-26T10:57:17Z</time>
      </trkpt>
      <trkpt lat="43.71256" lon="5.03252">
        <ele>212</ele>
        <time>2019-09-26T10:57:20Z</time>
      </trkpt>
      <trkpt lat="43.71254" lon="5.03253">
        <ele>214</ele>
        <time>2019-09-26T10:57:23Z</time>
      </trkpt>
      <trkpt lat="43.71251" lon="5.03254">
        <ele>214</ele>
        <time>2019-09-26T10:57:26Z</time>
      </trkpt>
      <trkpt lat="43.7125" lon="5.03254">
        <ele>214</ele>
        <time>2019-09-26T10:57:29Z</time>
      </trkpt>
      <trkpt lat="43.71249" lon="5.03254">
        <ele>214</ele>
        <time>2019-09-26T10:57:32Z</time>
      </trkpt>
      <trkpt lat="43.71248" lon="5.03254">
        <ele>215</ele>
        <time>2019-09-26T10:57:33Z</time>
      </trkpt>
      <trkpt lat="43.71248" lon="5.03254">
        <ele>216</ele>
        <time>2019-09-26T10:57:43Z</time>
      </trkpt>
      <trkpt lat="43.71246" lon="5.03254">
        <ele>216</ele>
        <time>2019-09-26T10:57:51Z</time>
      </trkpt>
      <trkpt lat="43.71245" lon="5.03254">
        <ele>216</ele>
        <time>2019-09-26T10:57:52Z</time>
      </trkpt>
      <trkpt lat="43.71245" lon="5.03254">
        <ele>216</ele>
        <time>2019-09-26T10:58:03Z</time>
      </trkpt>
      <trkpt lat="43.7124" lon="5.03256">
        <ele>216</ele>
        <time>2019-09-26T10:58:04Z</time>
      </trkpt>
      <trkpt lat="43.7124" lon="5.03256">
        <ele>216</ele>
        <time>2019-09-26T10:58:08Z</time>
      </trkpt>
      <trkpt lat="43.7124" lon="5.03255">
        <ele>216</ele>
        <time>2019-09-26T10:58:09Z</time>
      </trkpt>
      <trkpt lat="43.7124" lon="5.03255">
        <ele>219</ele>
        <time>2019-09-26T10:58:27Z</time>
      </trkpt>
      <trkpt lat="43.71235" lon="5.03261">
        <ele>219</ele>
        <time>2019-09-26T10:58:28Z</time>
      </trkpt>
      <trkpt lat="43.71234" lon="5.03263">
        <ele>219</ele>
        <time>2019-09-26T10:58:30Z</time>
      </trkpt>
      <trkpt lat="43.71232" lon="5.03265">
        <ele>219</ele>
        <time>2019-09-26T10:58:33Z</time>
      </trkpt>
      <trkpt lat="43.7123" lon="5.03267">
        <ele>219</ele>
        <time>2019-09-26T10:58:35Z</time>
      </trkpt>
      <trkpt lat="43.7123" lon="5.03267">
        <ele>217</ele>
        <time>2019-09-26T10:58:37Z</time>
      </trkpt>
      <trkpt lat="43.71229" lon="5.0327">
        <ele>217</ele>
        <time>2019-09-26T10:58:38Z</time>
      </trkpt>
      <trkpt lat="43.71227" lon="5.03271">
        <ele>217</ele>
        <time>2019-09-26T10:58:40Z</time>
      </trkpt>
      <trkpt lat="43.71225" lon="5.03273">
        <ele>217</ele>
        <time>2019-09-26T10:58:42Z</time>
      </trkpt>
      <trkpt lat="43.71224" lon="5.03274">
        <ele>217</ele>
        <time>2019-09-26T10:58:44Z</time>
      </trkpt>
      <trkpt lat="43.71221" lon="5.03275">
        <ele>216</ele>
        <time>2019-09-26T10:58:47Z</time>
      </trkpt>
      <trkpt lat="43.71218" lon="5.03278">
        <ele>216</ele>
        <time>2019-09-26T10:58:50Z</time>
      </trkpt>
      <trkpt lat="43.71217" lon="5.03279">
        <ele>216</ele>
        <time>2019-09-26T10:58:53Z</time>
      </trkpt>
      <trkpt lat="43.71216" lon="5.03279">
        <ele>216</ele>
        <time>2019-09-26T10:58:56Z</time>
      </trkpt>
      <trkpt lat="43.71214" lon="5.0328">
        <ele>217</ele>
        <time>2019-09-26T10:58:57Z</time>
      </trkpt>
      <trkpt lat="43.71212" lon="5.03281">
        <ele>217</ele>
        <time>2019-09-26T10:58:58Z</time>
      </trkpt>
      <trkpt lat="43.71211" lon="5.03282">
        <ele>217</ele>
        <time>2019-09-26T10:59:00Z</time>
      </trkpt>
      <trkpt lat="43.71209" lon="5.03282">
        <ele>217</ele>
        <time>2019-09-26T10:59:02Z</time>
      </trkpt>
      <trkpt lat="43.71206" lon="5.03283">
        <ele>217</ele>
        <time>2019-09-26T10:59:05Z</time>
      </trkpt>
      <trkpt lat="43.71204" lon="5.03285">
        <ele>218</ele>
        <time>2019-09-26T10:59:07Z</time>
      </trkpt>
      <trkpt lat="43.71203" lon="5.03286">
        <ele>218</ele>
        <time>2019-09-26T10:59:09Z</time>
      </trkpt>
      <trkpt lat="43.71201" lon="5.03287">
        <ele>218</ele>
        <time>2019-09-26T10:59:11Z</time>
      </trkpt>
      <trkpt lat="43.71199" lon="5.03288">
        <ele>218</ele>
        <time>2019-09-26T10:59:13Z</time>
      </trkpt>
      <trkpt lat="43.71197" lon="5.0329">
        <ele>218</ele>
        <time>2019-09-26T10:59:15Z</time>
      </trkpt>
      <trkpt lat="43.71197" lon="5.0329">
        <ele>220</ele>
        <time>2019-09-26T10:59:17Z</time>
      </trkpt>
      <trkpt lat="43.71194" lon="5.03293">
        <ele>220</ele>
        <time>2019-09-26T10:59:18Z</time>
      </trkpt>
      <trkpt lat="43.71193" lon="5.03294">
        <ele>220</ele>
        <time>2019-09-26T10:59:20Z</time>
      </trkpt>
      <trkpt lat="43.71192" lon="5.03295">
        <ele>220</ele>
        <time>2019-09-26T10:59:22Z</time>
      </trkpt>
      <trkpt lat="43.7119" lon="5.03296">
        <ele>220</ele>
        <time>2019-09-26T10:59:24Z</time>
      </trkpt>
      <trkpt lat="43.71189" lon="5.03298">
        <ele>220</ele>
        <time>2019-09-26T10:59:26Z</time>
      </trkpt>
      <trkpt lat="43.71188" lon="5.03299">
        <ele>220</ele>
        <time>2019-09-26T10:59:27Z</time>
      </trkpt>
      <trkpt lat="43.71187" lon="5.033">
        <ele>220</ele>
        <time>2019-09-26T10:59:28Z</time>
      </trkpt>
      <trkpt lat="43.71186" lon="5.03302">
        <ele>220</ele>
        <time>2019-09-26T10:59:30Z</time>
      </trkpt>
      <trkpt lat="43.71185" lon="5.03304">
        <ele>220</ele>
        <time>2019-09-26T10:59:32Z</time>
      </trkpt>
      <trkpt lat="43.71183" lon="5.03306">
        <ele>220</ele>
        <time>2019-09-26T10:59:35Z</time>
      </trkpt>
      <trkpt lat="43.71183" lon="5.03306">
        <ele>219</ele>
        <time>2019-09-26T10:59:37Z</time>
      </trkpt>
      <trkpt lat="43.71182" lon="5.03309">
        <ele>219</ele>
        <time>2019-09-26T10:59:38Z</time>
      </trkpt>
      <trkpt lat="43.71181" lon="5.03311">
        <ele>219</ele>
        <time>2019-09-26T10:59:41Z</time>
      </trkpt>
      <trkpt lat="43.71179" lon="5.03313">
        <ele>219</ele>
        <time>2019-09-26T10:59:44Z</time>
      </trkpt>
      <trkpt lat="43.71178" lon="5.03316">
        <ele>218</ele>
        <time>2019-09-26T10:59:47Z</time>
      </trkpt>
      <trkpt lat="43.71176" lon="5.03318">
        <ele>218</ele>
        <time>2019-09-26T10:59:50Z</time>
      </trkpt>
      <trkpt lat="43.71175" lon="5.03321">
        <ele>218</ele>
        <time>2019-09-26T10:59:52Z</time>
      </trkpt>
      <trkpt lat="43.71174" lon="5.03323">
        <ele>218</ele>
        <time>2019-09-26T10:59:54Z</time>
      </trkpt>
      <trkpt lat="43.71172" lon="5.03326">
        <ele>216</ele>
        <time>2019-09-26T10:59:57Z</time>
      </trkpt>
      <trkpt lat="43.71171" lon="5.03328">
        <ele>216</ele>
        <time>2019-09-26T10:59:59Z</time>
      </trkpt>
      <trkpt lat="43.7117" lon="5.0333">
        <ele>216</ele>
        <time>2019-09-26T11:00:01Z</time>
      </trkpt>
      <trkpt lat="43.71169" lon="5.03332">
        <ele>216</ele>
        <time>2019-09-26T11:00:03Z</time>
      </trkpt>
      <trkpt lat="43.71168" lon="5.03335">
        <ele>216</ele>
        <time>2019-09-26T11:00:05Z</time>
      </trkpt>
      <trkpt lat="43.71166" lon="5.03337">
        <ele>214</ele>
        <time>2019-09-26T11:00:07Z</time>
      </trkpt>
      <trkpt lat="43.71165" lon="5.03339">
        <ele>214</ele>
        <time>2019-09-26T11:00:09Z</time>
      </trkpt>
      <trkpt lat="43.71164" lon="5.03341">
        <ele>214</ele>
        <time>2019-09-26T11:00:11Z</time>
      </trkpt>
      <trkpt lat="43.71163" lon="5.03344">
        <ele>214</ele>
        <time>2019-09-26T11:00:13Z</time>
      </trkpt>
      <trkpt lat="43.71163" lon="5.03346">
        <ele>214</ele>
        <time>2019-09-26T11:00:15Z</time>
      </trkpt>
      <trkpt lat="43.71162" lon="5.03349">
        <ele>214</ele>
        <time>2019-09-26T11:00:17Z</time>
      </trkpt>
      <trkpt lat="43.71161" lon="5.03351">
        <ele>214</ele>
        <time>2019-09-26T11:00:19Z</time>
      </trkpt>
      <trkpt lat="43.7116" lon="5.03354">
        <ele>214</ele>
        <time>2019-09-26T11:00:21Z</time>
      </trkpt>
      <trkpt lat="43.71159" lon="5.03356">
        <ele>214</ele>
        <time>2019-09-26T11:00:23Z</time>
      </trkpt>
      <trkpt lat="43.71158" lon="5.03358">
        <ele>214</ele>
        <time>2019-09-26T11:00:25Z</time>
      </trkpt>
      <trkpt lat="43.71156" lon="5.0336">
        <ele>214</ele>
        <time>2019-09-26T11:00:27Z</time>
      </trkpt>
      <trkpt lat="43.71154" lon="5.03363">
        <ele>214</ele>
        <time>2019-09-26T11:00:30Z</time>
      </trkpt>
      <trkpt lat="43.71152" lon="5.03364">
        <ele>214</ele>
        <time>2019-09-26T11:00:32Z</time>
      </trkpt>
      <trkpt lat="43.7115" lon="5.03365">
        <ele>214</ele>
        <time>2019-09-26T11:00:35Z</time>
      </trkpt>
      <trkpt lat="43.7115" lon="5.03365">
        <ele>214</ele>
        <time>2019-09-26T11:00:37Z</time>
      </trkpt>
      <trkpt lat="43.71148" lon="5.03367">
        <ele>214</ele>
        <time>2019-09-26T11:00:38Z</time>
      </trkpt>
      <trkpt lat="43.71146" lon="5.03368">
        <ele>214</ele>
        <time>2019-09-26T11:00:41Z</time>
      </trkpt>
      <trkpt lat="43.71144" lon="5.0337">
        <ele>214</ele>
        <time>2019-09-26T11:00:44Z</time>
      </trkpt>
      <trkpt lat="43.71142" lon="5.03372">
        <ele>214</ele>
        <time>2019-09-26T11:00:47Z</time>
      </trkpt>
      <trkpt lat="43.7114" lon="5.03374">
        <ele>214</ele>
        <time>2019-09-26T11:00:49Z</time>
      </trkpt>
      <trkpt lat="43.71138" lon="5.03375">
        <ele>214</ele>
        <time>2019-09-26T11:00:51Z</time>
      </trkpt>
      <trkpt lat="43.71136" lon="5.03377">
        <ele>214</ele>
        <time>2019-09-26T11:00:53Z</time>
      </trkpt>
      <trkpt lat="43.71134" lon="5.03378">
        <ele>214</ele>
        <time>2019-09-26T11:00:55Z</time>
      </trkpt>
      <trkpt lat="43.71134" lon="5.03378">
        <ele>213</ele>
        <time>2019-09-26T11:00:57Z</time>
      </trkpt>
      <trkpt lat="43.71131" lon="5.03381">
        <ele>213</ele>
        <time>2019-09-26T11:00:58Z</time>
      </trkpt>
      <trkpt lat="43.71129" lon="5.03382">
        <ele>213</ele>
        <time>2019-09-26T11:01:00Z</time>
      </trkpt>
      <trkpt lat="43.71128" lon="5.03383">
        <ele>213</ele>
        <time>2019-09-26T11:01:02Z</time>
      </trkpt>
      <trkpt lat="43.71127" lon="5.03384">
        <ele>213</ele>
        <time>2019-09-26T11:01:04Z</time>
      </trkpt>
      <trkpt lat="43.71126" lon="5.03385">
        <ele>213</ele>
        <time>2019-09-26T11:01:06Z</time>
      </trkpt>
      <trkpt lat="43.71124" lon="5.03386">
        <ele>211</ele>
        <time>2019-09-26T11:01:07Z</time>
      </trkpt>
      <trkpt lat="43.71121" lon="5.03387">
        <ele>211</ele>
        <time>2019-09-26T11:01:09Z</time>
      </trkpt>
      <trkpt lat="43.71119" lon="5.03388">
        <ele>211</ele>
        <time>2019-09-26T11:01:11Z</time>
      </trkpt>
      <trkpt lat="43.71118" lon="5.03389">
        <ele>211</ele>
        <time>2019-09-26T11:01:13Z</time>
      </trkpt>
      <trkpt lat="43.71117" lon="5.03389">
        <ele>211</ele>
        <time>2019-09-26T11:01:16Z</time>
      </trkpt>
      <trkpt lat="43.71116" lon="5.0339">
        <ele>211</ele>
        <time>2019-09-26T11:01:17Z</time>
      </trkpt>
      <trkpt lat="43.71114" lon="5.03391">
        <ele>211</ele>
        <time>2019-09-26T11:01:18Z</time>
      </trkpt>
      <trkpt lat="43.71111" lon="5.03392">
        <ele>211</ele>
        <time>2019-09-26T11:01:21Z</time>
      </trkpt>
      <trkpt lat="43.71109" lon="5.03393">
        <ele>211</ele>
        <time>2019-09-26T11:01:23Z</time>
      </trkpt>
      <trkpt lat="43.71108" lon="5.03394">
        <ele>211</ele>
        <time>2019-09-26T11:01:25Z</time>
      </trkpt>
      <trkpt lat="43.71106" lon="5.03394">
        <ele>212</ele>
        <time>2019-09-26T11:01:27Z</time>
      </trkpt>
      <trkpt lat="43.71104" lon="5.03395">
        <ele>212</ele>
        <time>2019-09-26T11:01:29Z</time>
      </trkpt>
      <trkpt lat="43.71102" lon="5.03396">
        <ele>212</ele>
        <time>2019-09-26T11:01:31Z</time>
      </trkpt>
      <trkpt lat="43.711" lon="5.03397">
        <ele>212</ele>
        <time>2019-09-26T11:01:33Z</time>
      </trkpt>
      <trkpt lat="43.71098" lon="5.03399">
        <ele>212</ele>
        <time>2019-09-26T11:01:35Z</time>
      </trkpt>
      <trkpt lat="43.71096" lon="5.034">
        <ele>214</ele>
        <time>2019-09-26T11:01:37Z</time>
      </trkpt>
      <trkpt lat="43.71093" lon="5.034">
        <ele>214</ele>
        <time>2019-09-26T11:01:40Z</time>
      </trkpt>
      <trkpt lat="43.71091" lon="5.03399">
        <ele>214</ele>
        <time>2019-09-26T11:01:42Z</time>
      </trkpt>
      <trkpt lat="43.71089" lon="5.03398">
        <ele>214</ele>
        <time>2019-09-26T11:01:44Z</time>
      </trkpt>
      <trkpt lat="43.71086" lon="5.03396">
        <ele>214</ele>
        <time>2019-09-26T11:01:47Z</time>
      </trkpt>
      <trkpt lat="43.71084" lon="5.03395">
        <ele>214</ele>
        <time>2019-09-26T11:01:49Z</time>
      </trkpt>
      <trkpt lat="43.71082" lon="5.03395">
        <ele>214</ele>
        <time>2019-09-26T11:01:51Z</time>
      </trkpt>
      <trkpt lat="43.7108" lon="5.03394">
        <ele>214</ele>
        <time>2019-09-26T11:01:53Z</time>
      </trkpt>
      <trkpt lat="43.71078" lon="5.03393">
        <ele>214</ele>
        <time>2019-09-26T11:01:55Z</time>
      </trkpt>
      <trkpt lat="43.71076" lon="5.03393">
        <ele>215</ele>
        <time>2019-09-26T11:01:57Z</time>
      </trkpt>
      <trkpt lat="43.71074" lon="5.03392">
        <ele>215</ele>
        <time>2019-09-26T11:01:59Z</time>
      </trkpt>
      <trkpt lat="43.71072" lon="5.03391">
        <ele>215</ele>
        <time>2019-09-26T11:02:01Z</time>
      </trkpt>
      <trkpt lat="43.71069" lon="5.0339">
        <ele>215</ele>
        <time>2019-09-26T11:02:03Z</time>
      </trkpt>
      <trkpt lat="43.71068" lon="5.03389">
        <ele>215</ele>
        <time>2019-09-26T11:02:05Z</time>
      </trkpt>
      <trkpt lat="43.71065" lon="5.03388">
        <ele>216</ele>
        <time>2019-09-26T11:02:07Z</time>
      </trkpt>
      <trkpt lat="43.71063" lon="5.03387">
        <ele>216</ele>
        <time>2019-09-26T11:02:09Z</time>
      </trkpt>
      <trkpt lat="43.71061" lon="5.03387">
        <ele>216</ele>
        <time>2019-09-26T11:02:11Z</time>
      </trkpt>
      <trkpt lat="43.71059" lon="5.03386">
        <ele>216</ele>
        <time>2019-09-26T11:02:13Z</time>
      </trkpt>
      <trkpt lat="43.71057" lon="5.03385">
        <ele>216</ele>
        <time>2019-09-26T11:02:15Z</time>
      </trkpt>
      <trkpt lat="43.71055" lon="5.03385">
        <ele>217</ele>
        <time>2019-09-26T11:02:17Z</time>
      </trkpt>
      <trkpt lat="43.71053" lon="5.03384">
        <ele>217</ele>
        <time>2019-09-26T11:02:19Z</time>
      </trkpt>
      <trkpt lat="43.71051" lon="5.03384">
        <ele>217</ele>
        <time>2019-09-26T11:02:21Z</time>
      </trkpt>
      <trkpt lat="43.71049" lon="5.03384">
        <ele>217</ele>
        <time>2019-09-26T11:02:23Z</time>
      </trkpt>
      <trkpt lat="43.71047" lon="5.03385">
        <ele>217</ele>
        <time>2019-09-26T11:02:25Z</time>
      </trkpt>
      <trkpt lat="43.71045" lon="5.03385">
        <ele>217</ele>
        <time>2019-09-26T11:02:27Z</time>
      </trkpt>
      <trkpt lat="43.71043" lon="5.03386">
        <ele>217</ele>
        <time>2019-09-26T11:02:29Z</time>
      </trkpt>
      <trkpt lat="43.71041" lon="5.03387">
        <ele>217</ele>
        <time>2019-09-26T11:02:31Z</time>
      </trkpt>
      <trkpt lat="43.71039" lon="5.03388">
        <ele>217</ele>
        <time>2019-09-26T11:02:33Z</time>
      </trkpt>
      <trkpt lat="43.71037" lon="5.03388">
        <ele>217</ele>
        <time>2019-09-26T11:02:35Z</time>
      </trkpt>
      <trkpt lat="43.71034" lon="5.03389">
        <ele>217</ele>
        <time>2019-09-26T11:02:37Z</time>
      </trkpt>
      <trkpt lat="43.71032" lon="5.0339">
        <ele>217</ele>
        <time>2019-09-26T11:02:39Z</time>
      </trkpt>
      <trkpt lat="43.71031" lon="5.03391">
        <ele>217</ele>
        <time>2019-09-26T11:02:41Z</time>
      </trkpt>
      <trkpt lat="43.71028" lon="5.03392">
        <ele>217</ele>
        <time>2019-09-26T11:02:43Z</time>
      </trkpt>
      <trkpt lat="43.71026" lon="5.03392">
        <ele>217</ele>
        <time>2019-09-26T11:02:45Z</time>
      </trkpt>
      <trkpt lat="43.71024" lon="5.03393">
        <ele>218</ele>
        <time>2019-09-26T11:02:47Z</time>
      </trkpt>
      <trkpt lat="43.7102" lon="5.03395">
        <ele>218</ele>
        <time>2019-09-26T11:02:50Z</time>
      </trkpt>
      <trkpt lat="43.71019" lon="5.03396">
        <ele>218</ele>
        <time>2019-09-26T11:02:52Z</time>
      </trkpt>
      <trkpt lat="43.71018" lon="5.03396">
        <ele>218</ele>
        <time>2019-09-26T11:02:54Z</time>
      </trkpt>
      <trkpt lat="43.71016" lon="5.03397">
        <ele>218</ele>
        <time>2019-09-26T11:02:56Z</time>
      </trkpt>
      <trkpt lat="43.71015" lon="5.03397">
        <ele>219</ele>
        <time>2019-09-26T11:02:57Z</time>
      </trkpt>
      <trkpt lat="43.71013" lon="5.03399">
        <ele>219</ele>
        <time>2019-09-26T11:02:58Z</time>
      </trkpt>
      <trkpt lat="43.71011" lon="5.03401">
        <ele>219</ele>
        <time>2019-09-26T11:03:01Z</time>
      </trkpt>
      <trkpt lat="43.71009" lon="5.03402">
        <ele>219</ele>
        <time>2019-09-26T11:03:03Z</time>
      </trkpt>
      <trkpt lat="43.71008" lon="5.03404">
        <ele>219</ele>
        <time>2019-09-26T11:03:05Z</time>
      </trkpt>
      <trkpt lat="43.71008" lon="5.03404">
        <ele>218</ele>
        <time>2019-09-26T11:03:07Z</time>
      </trkpt>
      <trkpt lat="43.71004" lon="5.03407">
        <ele>218</ele>
        <time>2019-09-26T11:03:08Z</time>
      </trkpt>
      <trkpt lat="43.71003" lon="5.03408">
        <ele>218</ele>
        <time>2019-09-26T11:03:10Z</time>
      </trkpt>
      <trkpt lat="43.71002" lon="5.03409">
        <ele>218</ele>
        <time>2019-09-26T11:03:13Z</time>
      </trkpt>
      <trkpt lat="43.71001" lon="5.0341">
        <ele>218</ele>
        <time>2019-09-26T11:03:16Z</time>
      </trkpt>
      <trkpt lat="43.71" lon="5.03412">
        <ele>218</ele>
        <time>2019-09-26T11:03:17Z</time>
      </trkpt>
      <trkpt lat="43.70998" lon="5.03413">
        <ele>218</ele>
        <time>2019-09-26T11:03:19Z</time>
      </trkpt>
      <trkpt lat="43.70997" lon="5.03415">
        <ele>218</ele>
        <time>2019-09-26T11:03:22Z</time>
      </trkpt>
      <trkpt lat="43.70994" lon="5.03417">
        <ele>218</ele>
        <time>2019-09-26T11:03:25Z</time>
      </trkpt>
      <trkpt lat="43.70993" lon="5.03419">
        <ele>214</ele>
        <time>2019-09-26T11:03:27Z</time>
      </trkpt>
      <trkpt lat="43.70991" lon="5.03421">
        <ele>214</ele>
        <time>2019-09-26T11:03:30Z</time>
      </trkpt>
      <trkpt lat="43.7099" lon="5.03423">
        <ele>214</ele>
        <time>2019-09-26T11:03:33Z</time>
      </trkpt>
      <trkpt lat="43.70988" lon="5.03425">
        <ele>214</ele>
        <time>2019-09-26T11:03:35Z</time>
      </trkpt>
      <trkpt lat="43.70988" lon="5.03425">
        <ele>213</ele>
        <time>2019-09-26T11:03:37Z</time>
      </trkpt>
      <trkpt lat="43.70987" lon="5.03427">
        <ele>213</ele>
        <time>2019-09-26T11:03:38Z</time>
      </trkpt>
      <trkpt lat="43.70985" lon="5.03429">
        <ele>213</ele>
        <time>2019-09-26T11:03:41Z</time>
      </trkpt>
      <trkpt lat="43.70984" lon="5.03431">
        <ele>213</ele>
        <time>2019-09-26T11:03:44Z</time>
      </trkpt>
      <trkpt lat="43.70983" lon="5.03434">
        <ele>213</ele>
        <time>2019-09-26T11:03:47Z</time>
      </trkpt>
      <trkpt lat="43.70981" lon="5.03436">
        <ele>213</ele>
        <time>2019-09-26T11:03:51Z</time>
      </trkpt>
      <trkpt lat="43.7098" lon="5.03439">
        <ele>213</ele>
        <time>2019-09-26T11:03:55Z</time>
      </trkpt>
      <trkpt lat="43.7098" lon="5.03439">
        <ele>212</ele>
        <time>2019-09-26T11:03:57Z</time>
      </trkpt>
      <trkpt lat="43.70979" lon="5.03443">
        <ele>212</ele>
        <time>2019-09-26T11:03:59Z</time>
      </trkpt>
      <trkpt lat="43.70979" lon="5.03444">
        <ele>212</ele>
        <time>2019-09-26T11:04:02Z</time>
      </trkpt>
      <trkpt lat="43.70978" lon="5.03446">
        <ele>212</ele>
        <time>2019-09-26T11:04:06Z</time>
      </trkpt>
      <trkpt lat="43.70978" lon="5.03447">
        <ele>208</ele>
        <time>2019-09-26T11:04:07Z</time>
      </trkpt>
      <trkpt lat="43.70977" lon="5.03451">
        <ele>208</ele>
        <time>2019-09-26T11:04:09Z</time>
      </trkpt>
      <trkpt lat="43.70976" lon="5.03452">
        <ele>208</ele>
        <time>2019-09-26T11:04:12Z</time>
      </trkpt>
      <trkpt lat="43.70976" lon="5.03454">
        <ele>208</ele>
        <time>2019-09-26T11:04:16Z</time>
      </trkpt>
      <trkpt lat="43.70975" lon="5.03455">
        <ele>207</ele>
        <time>2019-09-26T11:04:17Z</time>
      </trkpt>
      <trkpt lat="43.70974" lon="5.03457">
        <ele>207</ele>
        <time>2019-09-26T11:04:19Z</time>
      </trkpt>
      <trkpt lat="43.70973" lon="5.0346">
        <ele>207</ele>
        <time>2019-09-26T11:04:23Z</time>
      </trkpt>
      <trkpt lat="43.70972" lon="5.03463">
        <ele>206</ele>
        <time>2019-09-26T11:04:27Z</time>
      </trkpt>
      <trkpt lat="43.70971" lon="5.03467">
        <ele>206</ele>
        <time>2019-09-26T11:04:29Z</time>
      </trkpt>
      <trkpt lat="43.7097" lon="5.03468">
        <ele>206</ele>
        <time>2019-09-26T11:04:31Z</time>
      </trkpt>
      <trkpt lat="43.7097" lon="5.03469">
        <ele>206</ele>
        <time>2019-09-26T11:04:36Z</time>
      </trkpt>
      <trkpt lat="43.70969" lon="5.03471">
        <ele>205</ele>
        <time>2019-09-26T11:04:37Z</time>
      </trkpt>
      <trkpt lat="43.70967" lon="5.03474">
        <ele>205</ele>
        <time>2019-09-26T11:04:38Z</time>
      </trkpt>
      <trkpt lat="43.70966" lon="5.03475">
        <ele>205</ele>
        <time>2019-09-26T11:04:40Z</time>
      </trkpt>
      <trkpt lat="43.70966" lon="5.03476">
        <ele>205</ele>
        <time>2019-09-26T11:04:46Z</time>
      </trkpt>
      <trkpt lat="43.70965" lon="5.03477">
        <ele>204</ele>
        <time>2019-09-26T11:04:47Z</time>
      </trkpt>
      <trkpt lat="43.70962" lon="5.03481">
        <ele>204</ele>
        <time>2019-09-26T11:04:48Z</time>
      </trkpt>
      <trkpt lat="43.7096" lon="5.03483">
        <ele>204</ele>
        <time>2019-09-26T11:04:50Z</time>
      </trkpt>
      <trkpt lat="43.70959" lon="5.03484">
        <ele>204</ele>
        <time>2019-09-26T11:04:52Z</time>
      </trkpt>
      <trkpt lat="43.70958" lon="5.03486">
        <ele>204</ele>
        <time>2019-09-26T11:04:54Z</time>
      </trkpt>
      <trkpt lat="43.70956" lon="5.03487">
        <ele>204</ele>
        <time>2019-09-26T11:04:56Z</time>
      </trkpt>
      <trkpt lat="43.70955" lon="5.03489">
        <ele>201</ele>
        <time>2019-09-26T11:04:57Z</time>
      </trkpt>
      <trkpt lat="43.70952" lon="5.03491">
        <ele>201</ele>
        <time>2019-09-26T11:04:58Z</time>
      </trkpt>
      <trkpt lat="43.70951" lon="5.03493">
        <ele>201</ele>
        <time>2019-09-26T11:05:00Z</time>
      </trkpt>
      <trkpt lat="43.7095" lon="5.03494">
        <ele>201</ele>
        <time>2019-09-26T11:05:02Z</time>
      </trkpt>
      <trkpt lat="43.70949" lon="5.03495">
        <ele>201</ele>
        <time>2019-09-26T11:05:04Z</time>
      </trkpt>
      <trkpt lat="43.70947" lon="5.03497">
        <ele>201</ele>
        <time>2019-09-26T11:05:06Z</time>
      </trkpt>
      <trkpt lat="43.70946" lon="5.03498">
        <ele>200</ele>
        <time>2019-09-26T11:05:07Z</time>
      </trkpt>
      <trkpt lat="43.70945" lon="5.03499">
        <ele>200</ele>
        <time>2019-09-26T11:05:08Z</time>
      </trkpt>
      <trkpt lat="43.70943" lon="5.03501">
        <ele>200</ele>
        <time>2019-09-26T11:05:10Z</time>
      </trkpt>
      <trkpt lat="43.70941" lon="5.03503">
        <ele>200</ele>
        <time>2019-09-26T11:05:12Z</time>
      </trkpt>
      <trkpt lat="43.70939" lon="5.03505">
        <ele>200</ele>
        <time>2019-09-26T11:05:15Z</time>
      </trkpt>
      <trkpt lat="43.70938" lon="5.03507">
        <ele>200</ele>
        <time>2019-09-26T11:05:17Z</time>
      </trkpt>
      <trkpt lat="43.70935" lon="5.03509">
        <ele>200</ele>
        <time>2019-09-26T11:05:19Z</time>
      </trkpt>
      <trkpt lat="43.70933" lon="5.0351">
        <ele>200</ele>
        <time>2019-09-26T11:05:22Z</time>
      </trkpt>
      <trkpt lat="43.70932" lon="5.03511">
        <ele>200</ele>
        <time>2019-09-26T11:05:24Z</time>
      </trkpt>
      <trkpt lat="43.70931" lon="5.03512">
        <ele>200</ele>
        <time>2019-09-26T11:05:26Z</time>
      </trkpt>
      <trkpt lat="43.7093" lon="5.03513">
        <ele>200</ele>
        <time>2019-09-26T11:05:27Z</time>
      </trkpt>
      <trkpt lat="43.70928" lon="5.03515">
        <ele>200</ele>
        <time>2019-09-26T11:05:29Z</time>
      </trkpt>
      <trkpt lat="43.70926" lon="5.03516">
        <ele>200</ele>
        <time>2019-09-26T11:05:31Z</time>
      </trkpt>
      <trkpt lat="43.70924" lon="5.03518">
        <ele>200</ele>
        <time>2019-09-26T11:05:33Z</time>
      </trkpt>
      <trkpt lat="43.70923" lon="5.03519">
        <ele>200</ele>
        <time>2019-09-26T11:05:35Z</time>
      </trkpt>
      <trkpt lat="43.70921" lon="5.03521">
        <ele>200</ele>
        <time>2019-09-26T11:05:37Z</time>
      </trkpt>
      <trkpt lat="43.70919" lon="5.03522">
        <ele>200</ele>
        <time>2019-09-26T11:05:39Z</time>
      </trkpt>
      <trkpt lat="43.70917" lon="5.03524">
        <ele>200</ele>
        <time>2019-09-26T11:05:42Z</time>
      </trkpt>
      <trkpt lat="43.70915" lon="5.03525">
        <ele>200</ele>
        <time>2019-09-26T11:05:44Z</time>
      </trkpt>
      <trkpt lat="43.70913" lon="5.03527">
        <ele>200</ele>
        <time>2019-09-26T11:05:47Z</time>
      </trkpt>
      <trkpt lat="43.7091" lon="5.0353">
        <ele>200</ele>
        <time>2019-09-26T11:05:49Z</time>
      </trkpt>
      <trkpt lat="43.70909" lon="5.03531">
        <ele>200</ele>
        <time>2019-09-26T11:05:51Z</time>
      </trkpt>
      <trkpt lat="43.70907" lon="5.03533">
        <ele>200</ele>
        <time>2019-09-26T11:05:54Z</time>
      </trkpt>
      <trkpt lat="43.70906" lon="5.03534">
        <ele>200</ele>
        <time>2019-09-26T11:05:56Z</time>
      </trkpt>
      <trkpt lat="43.70905" lon="5.03535">
        <ele>200</ele>
        <time>2019-09-26T11:05:57Z</time>
      </trkpt>
      <trkpt lat="43.70903" lon="5.03537">
        <ele>200</ele>
        <time>2019-09-26T11:05:58Z</time>
      </trkpt>
      <trkpt lat="43.70901" lon="5.03538">
        <ele>200</ele>
        <time>2019-09-26T11:06:00Z</time>
      </trkpt>
      <trkpt lat="43.709" lon="5.0354">
        <ele>200</ele>
        <time>2019-09-26T11:06:02Z</time>
      </trkpt>
      <trkpt lat="43.70899" lon="5.03541">
        <ele>200</ele>
        <time>2019-09-26T11:06:04Z</time>
      </trkpt>
      <trkpt lat="43.70898" lon="5.03542">
        <ele>200</ele>
        <time>2019-09-26T11:06:06Z</time>
      </trkpt>
      <trkpt lat="43.70896" lon="5.03543">
        <ele>200</ele>
        <time>2019-09-26T11:06:07Z</time>
      </trkpt>
      <trkpt lat="43.70895" lon="5.03544">
        <ele>200</ele>
        <time>2019-09-26T11:06:08Z</time>
      </trkpt>
      <trkpt lat="43.70893" lon="5.03546">
        <ele>200</ele>
        <time>2019-09-26T11:06:11Z</time>
      </trkpt>
      <trkpt lat="43.70892" lon="5.03548">
        <ele>200</ele>
        <time>2019-09-26T11:06:13Z</time>
      </trkpt>
      <trkpt lat="43.70891" lon="5.0355">
        <ele>200</ele>
        <time>2019-09-26T11:06:15Z</time>
      </trkpt>
      <trkpt lat="43.70891" lon="5.0355">
        <ele>200</ele>
        <time>2019-09-26T11:06:17Z</time>
      </trkpt>
      <trkpt lat="43.7089" lon="5.03553">
        <ele>200</ele>
        <time>2019-09-26T11:06:18Z</time>
      </trkpt>
      <trkpt lat="43.70889" lon="5.03556">
        <ele>200</ele>
        <time>2019-09-26T11:06:21Z</time>
      </trkpt>
      <trkpt lat="43.70888" lon="5.03559">
        <ele>200</ele>
        <time>2019-09-26T11:06:23Z</time>
      </trkpt>
      <trkpt lat="43.70887" lon="5.03562">
        <ele>200</ele>
        <time>2019-09-26T11:06:25Z</time>
      </trkpt>
      <trkpt lat="43.70887" lon="5.03562">
        <ele>200</ele>
        <time>2019-09-26T11:06:27Z</time>
      </trkpt>
      <trkpt lat="43.70885" lon="5.03565">
        <ele>200</ele>
        <time>2019-09-26T11:06:28Z</time>
      </trkpt>
      <trkpt lat="43.70884" lon="5.03568">
        <ele>200</ele>
        <time>2019-09-26T11:06:31Z</time>
      </trkpt>
      <trkpt lat="43.70883" lon="5.0357">
        <ele>200</ele>
        <time>2019-09-26T11:06:33Z</time>
      </trkpt>
      <trkpt lat="43.70881" lon="5.03573">
        <ele>200</ele>
        <time>2019-09-26T11:06:35Z</time>
      </trkpt>
      <trkpt lat="43.70879" lon="5.03575">
        <ele>198</ele>
        <time>2019-09-26T11:06:37Z</time>
      </trkpt>
      <trkpt lat="43.70878" lon="5.03577">
        <ele>198</ele>
        <time>2019-09-26T11:06:39Z</time>
      </trkpt>
      <trkpt lat="43.70876" lon="5.03579">
        <ele>198</ele>
        <time>2019-09-26T11:06:41Z</time>
      </trkpt>
      <trkpt lat="43.70875" lon="5.03581">
        <ele>198</ele>
        <time>2019-09-26T11:06:43Z</time>
      </trkpt>
      <trkpt lat="43.70873" lon="5.03583">
        <ele>198</ele>
        <time>2019-09-26T11:06:45Z</time>
      </trkpt>
      <trkpt lat="43.70872" lon="5.03585">
        <ele>197</ele>
        <time>2019-09-26T11:06:47Z</time>
      </trkpt>
      <trkpt lat="43.7087" lon="5.03587">
        <ele>197</ele>
        <time>2019-09-26T11:06:49Z</time>
      </trkpt>
      <trkpt lat="43.70868" lon="5.03589">
        <ele>197</ele>
        <time>2019-09-26T11:06:51Z</time>
      </trkpt>
      <trkpt lat="43.70866" lon="5.03591">
        <ele>197</ele>
        <time>2019-09-26T11:06:53Z</time>
      </trkpt>
      <trkpt lat="43.70864" lon="5.03593">
        <ele>197</ele>
        <time>2019-09-26T11:06:55Z</time>
      </trkpt>
      <trkpt lat="43.70863" lon="5.03595">
        <ele>197</ele>
        <time>2019-09-26T11:06:57Z</time>
      </trkpt>
      <trkpt lat="43.70861" lon="5.03597">
        <ele>197</ele>
        <time>2019-09-26T11:07:00Z</time>
      </trkpt>
      <trkpt lat="43.7086" lon="5.03599">
        <ele>197</ele>
        <time>2019-09-26T11:07:03Z</time>
      </trkpt>
      <trkpt lat="43.70858" lon="5.03601">
        <ele>197</ele>
        <time>2019-09-26T11:07:07Z</time>
      </trkpt>
      <trkpt lat="43.70858" lon="5.03601">
        <ele>197</ele>
        <time>2019-09-26T11:07:17Z</time>
      </trkpt>
      <trkpt lat="43.70857" lon="5.03603">
        <ele>197</ele>
        <time>2019-09-26T11:07:18Z</time>
      </trkpt>
      <trkpt lat="43.70855" lon="5.03605">
        <ele>197</ele>
        <time>2019-09-26T11:07:21Z</time>
      </trkpt>
      <trkpt lat="43.70853" lon="5.03607">
        <ele>197</ele>
        <time>2019-09-26T11:07:24Z</time>
      </trkpt>
      <trkpt lat="43.70852" lon="5.03609">
        <ele>196</ele>
        <time>2019-09-26T11:07:27Z</time>
      </trkpt>
      <trkpt lat="43.7085" lon="5.03611">
        <ele>196</ele>
        <time>2019-09-26T11:07:31Z</time>
      </trkpt>
      <trkpt lat="43.7085" lon="5.03611">
        <ele>196</ele>
        <time>2019-09-26T11:07:37Z</time>
      </trkpt>
      <trkpt lat="43.7085" lon="5.03611">
        <ele>196</ele>
        <time>2019-09-26T11:07:40Z</time>
      </trkpt>
      <trkpt lat="43.70849" lon="5.03612">
        <ele>196</ele>
        <time>2019-09-26T11:07:41Z</time>
      </trkpt>
      <trkpt lat="43.70849" lon="5.03612">
        <ele>174</ele>
        <time>2019-09-26T11:11:13Z</time>
      </trkpt>
      <trkpt lat="43.70861" lon="5.03716">
        <ele>174</ele>
        <time>2019-09-26T11:11:14Z</time>
      </trkpt>
      <trkpt lat="43.70861" lon="5.03718">
        <ele>174</ele>
        <time>2019-09-26T11:11:16Z</time>
      </trkpt>
      <trkpt lat="43.70859" lon="5.03721">
        <ele>174</ele>
        <time>2019-09-26T11:11:19Z</time>
      </trkpt>
      <trkpt lat="43.70858" lon="5.03722">
        <ele>174</ele>
        <time>2019-09-26T11:11:21Z</time>
      </trkpt>
      <trkpt lat="43.70858" lon="5.03722">
        <ele>173</ele>
        <time>2019-09-26T11:11:23Z</time>
      </trkpt>
      <trkpt lat="43.70855" lon="5.03727">
        <ele>173</ele>
        <time>2019-09-26T11:11:24Z</time>
      </trkpt>
      <trkpt lat="43.70854" lon="5.03728">
        <ele>173</ele>
        <time>2019-09-26T11:11:26Z</time>
      </trkpt>
      <trkpt lat="43.70853" lon="5.0373">
        <ele>173</ele>
        <time>2019-09-26T11:11:28Z</time>
      </trkpt>
      <trkpt lat="43.70852" lon="5.03732">
        <ele>173</ele>
        <time>2019-09-26T11:11:30Z</time>
      </trkpt>
      <trkpt lat="43.70851" lon="5.03733">
        <ele>173</ele>
        <time>2019-09-26T11:11:32Z</time>
      </trkpt>
      <trkpt lat="43.70851" lon="5.03735">
        <ele>172</ele>
        <time>2019-09-26T11:11:33Z</time>
      </trkpt>
      <trkpt lat="43.70849" lon="5.03738">
        <ele>172</ele>
        <time>2019-09-26T11:11:35Z</time>
      </trkpt>
      <trkpt lat="43.70848" lon="5.03741">
        <ele>172</ele>
        <time>2019-09-26T11:11:38Z</time>
      </trkpt>
      <trkpt lat="43.70847" lon="5.03743">
        <ele>172</ele>
        <time>2019-09-26T11:11:40Z</time>
      </trkpt>
      <trkpt lat="43.70846" lon="5.03746">
        <ele>171</ele>
        <time>2019-09-26T11:11:43Z</time>
      </trkpt>
      <trkpt lat="43.70845" lon="5.03749">
        <ele>171</ele>
        <time>2019-09-26T11:11:46Z</time>
      </trkpt>
      <trkpt lat="43.70844" lon="5.03751">
        <ele>171</ele>
        <time>2019-09-26T11:11:48Z</time>
      </trkpt>
      <trkpt lat="43.70843" lon="5.03755">
        <ele>171</ele>
        <time>2019-09-26T11:11:51Z</time>
      </trkpt>
      <trkpt lat="43.70843" lon="5.03755">
        <ele>170</ele>
        <time>2019-09-26T11:11:53Z</time>
      </trkpt>
      <trkpt lat="43.70843" lon="5.03761">
        <ele>170</ele>
        <time>2019-09-26T11:11:54Z</time>
      </trkpt>
      <trkpt lat="43.70843" lon="5.03763">
        <ele>170</ele>
        <time>2019-09-26T11:11:56Z</time>
      </trkpt>
      <trkpt lat="43.70843" lon="5.03765">
        <ele>170</ele>
        <time>2019-09-26T11:11:58Z</time>
      </trkpt>
      <trkpt lat="43.70842" lon="5.03767">
        <ele>170</ele>
        <time>2019-09-26T11:12:00Z</time>
      </trkpt>
      <trkpt lat="43.70842" lon="5.03769">
        <ele>170</ele>
        <time>2019-09-26T11:12:02Z</time>
      </trkpt>
      <trkpt lat="43.70842" lon="5.0377">
        <ele>167</ele>
        <time>2019-09-26T11:12:03Z</time>
      </trkpt>
      <trkpt lat="43.70842" lon="5.03776">
        <ele>167</ele>
        <time>2019-09-26T11:12:05Z</time>
      </trkpt>
      <trkpt lat="43.70842" lon="5.03778">
        <ele>167</ele>
        <time>2019-09-26T11:12:08Z</time>
      </trkpt>
      <trkpt lat="43.70842" lon="5.0378">
        <ele>167</ele>
        <time>2019-09-26T11:12:10Z</time>
      </trkpt>
      <trkpt lat="43.70842" lon="5.03782">
        <ele>167</ele>
        <time>2019-09-26T11:12:12Z</time>
      </trkpt>
      <trkpt lat="43.70842" lon="5.03783">
        <ele>166</ele>
        <time>2019-09-26T11:12:13Z</time>
      </trkpt>
      <trkpt lat="43.70842" lon="5.03789">
        <ele>166</ele>
        <time>2019-09-26T11:12:15Z</time>
      </trkpt>
      <trkpt lat="43.70842" lon="5.03791">
        <ele>166</ele>
        <time>2019-09-26T11:12:18Z</time>
      </trkpt>
      <trkpt lat="43.70842" lon="5.03793">
        <ele>166</ele>
        <time>2019-09-26T11:12:20Z</time>
      </trkpt>
      <trkpt lat="43.70842" lon="5.03795">
        <ele>166</ele>
        <time>2019-09-26T11:12:22Z</time>
      </trkpt>
      <trkpt lat="43.70843" lon="5.03797">
        <ele>166</ele>
        <time>2019-09-26T11:12:23Z</time>
      </trkpt>
      <trkpt lat="43.70843" lon="5.03803">
        <ele>166</ele>
        <time>2019-09-26T11:12:24Z</time>
      </trkpt>
      <trkpt lat="43.70843" lon="5.03805">
        <ele>166</ele>
        <time>2019-09-26T11:12:26Z</time>
      </trkpt>
      <trkpt lat="43.70844" lon="5.03808">
        <ele>166</ele>
        <time>2019-09-26T11:12:28Z</time>
      </trkpt>
      <trkpt lat="43.70844" lon="5.0381">
        <ele>166</ele>
        <time>2019-09-26T11:12:30Z</time>
      </trkpt>
      <trkpt lat="43.70845" lon="5.03812">
        <ele>166</ele>
        <time>2019-09-26T11:12:32Z</time>
      </trkpt>
      <trkpt lat="43.70845" lon="5.03814">
        <ele>165</ele>
        <time>2019-09-26T11:12:33Z</time>
      </trkpt>
      <trkpt lat="43.70846" lon="5.03818">
        <ele>165</ele>
        <time>2019-09-26T11:12:34Z</time>
      </trkpt>
      <trkpt lat="43.70846" lon="5.0382">
        <ele>165</ele>
        <time>2019-09-26T11:12:36Z</time>
      </trkpt>
      <trkpt lat="43.70846" lon="5.03822">
        <ele>165</ele>
        <time>2019-09-26T11:12:38Z</time>
      </trkpt>
      <trkpt lat="43.70846" lon="5.03824">
        <ele>165</ele>
        <time>2019-09-26T11:12:40Z</time>
      </trkpt>
      <trkpt lat="43.70846" lon="5.03826">
        <ele>165</ele>
        <time>2019-09-26T11:12:42Z</time>
      </trkpt>
      <trkpt lat="43.70847" lon="5.03828">
        <ele>164</ele>
        <time>2019-09-26T11:12:43Z</time>
      </trkpt>
      <trkpt lat="43.70847" lon="5.03832">
        <ele>164</ele>
        <time>2019-09-26T11:12:45Z</time>
      </trkpt>
      <trkpt lat="43.70847" lon="5.03834">
        <ele>164</ele>
        <time>2019-09-26T11:12:47Z</time>
      </trkpt>
      <trkpt lat="43.70848" lon="5.03836">
        <ele>164</ele>
        <time>2019-09-26T11:12:49Z</time>
      </trkpt>
      <trkpt lat="43.70848" lon="5.03838">
        <ele>164</ele>
        <time>2019-09-26T11:12:52Z</time>
      </trkpt>
      <trkpt lat="43.70848" lon="5.03841">
        <ele>163</ele>
        <time>2019-09-26T11:12:53Z</time>
      </trkpt>
      <trkpt lat="43.70849" lon="5.03844">
        <ele>163</ele>
        <time>2019-09-26T11:12:54Z</time>
      </trkpt>
      <trkpt lat="43.70849" lon="5.03846">
        <ele>163</ele>
        <time>2019-09-26T11:12:56Z</time>
      </trkpt>
      <trkpt lat="43.70849" lon="5.03848">
        <ele>163</ele>
        <time>2019-09-26T11:12:59Z</time>
      </trkpt>
      <trkpt lat="43.7085" lon="5.0385">
        <ele>163</ele>
        <time>2019-09-26T11:13:02Z</time>
      </trkpt>
      <trkpt lat="43.7085" lon="5.03852">
        <ele>160</ele>
        <time>2019-09-26T11:13:03Z</time>
      </trkpt>
      <trkpt lat="43.7085" lon="5.03855">
        <ele>160</ele>
        <time>2019-09-26T11:13:04Z</time>
      </trkpt>
      <trkpt lat="43.70851" lon="5.03858">
        <ele>160</ele>
        <time>2019-09-26T11:13:06Z</time>
      </trkpt>
      <trkpt lat="43.70851" lon="5.03861">
        <ele>160</ele>
        <time>2019-09-26T11:13:09Z</time>
      </trkpt>
      <trkpt lat="43.70851" lon="5.03864">
        <ele>160</ele>
        <time>2019-09-26T11:13:11Z</time>
      </trkpt>
      <trkpt lat="43.70851" lon="5.03867">
        <ele>161</ele>
        <time>2019-09-26T11:13:13Z</time>
      </trkpt>
      <trkpt lat="43.70852" lon="5.03872">
        <ele>161</ele>
        <time>2019-09-26T11:13:15Z</time>
      </trkpt>
      <trkpt lat="43.70852" lon="5.03874">
        <ele>161</ele>
        <time>2019-09-26T11:13:17Z</time>
      </trkpt>
      <trkpt lat="43.70852" lon="5.03876">
        <ele>161</ele>
        <time>2019-09-26T11:13:19Z</time>
      </trkpt>
      <trkpt lat="43.70852" lon="5.03878">
        <ele>161</ele>
        <time>2019-09-26T11:13:22Z</time>
      </trkpt>
      <trkpt lat="43.70852" lon="5.0388">
        <ele>160</ele>
        <time>2019-09-26T11:13:23Z</time>
      </trkpt>
      <trkpt lat="43.70852" lon="5.03884">
        <ele>160</ele>
        <time>2019-09-26T11:13:24Z</time>
      </trkpt>
      <trkpt lat="43.70851" lon="5.03886">
        <ele>160</ele>
        <time>2019-09-26T11:13:26Z</time>
      </trkpt>
      <trkpt lat="43.70851" lon="5.03888">
        <ele>160</ele>
        <time>2019-09-26T11:13:28Z</time>
      </trkpt>
      <trkpt lat="43.7085" lon="5.0389">
        <ele>160</ele>
        <time>2019-09-26T11:13:30Z</time>
      </trkpt>
      <trkpt lat="43.70849" lon="5.03892">
        <ele>160</ele>
        <time>2019-09-26T11:13:32Z</time>
      </trkpt>
      <trkpt lat="43.70849" lon="5.03894">
        <ele>160</ele>
        <time>2019-09-26T11:13:33Z</time>
      </trkpt>
      <trkpt lat="43.70847" lon="5.03899">
        <ele>160</ele>
        <time>2019-09-26T11:13:34Z</time>
      </trkpt>
      <trkpt lat="43.70847" lon="5.03901">
        <ele>160</ele>
        <time>2019-09-26T11:13:36Z</time>
      </trkpt>
      <trkpt lat="43.70847" lon="5.03903">
        <ele>160</ele>
        <time>2019-09-26T11:13:38Z</time>
      </trkpt>
      <trkpt lat="43.70846" lon="5.03905">
        <ele>160</ele>
        <time>2019-09-26T11:13:40Z</time>
      </trkpt>
      <trkpt lat="43.70846" lon="5.03908">
        <ele>160</ele>
        <time>2019-09-26T11:13:42Z</time>
      </trkpt>
      <trkpt lat="43.70846" lon="5.0391">
        <ele>159</ele>
        <time>2019-09-26T11:13:43Z</time>
      </trkpt>
      <trkpt lat="43.70845" lon="5.03913">
        <ele>159</ele>
        <time>2019-09-26T11:13:44Z</time>
      </trkpt>
      <trkpt lat="43.70845" lon="5.03915">
        <ele>159</ele>
        <time>2019-09-26T11:13:46Z</time>
      </trkpt>
      <trkpt lat="43.70845" lon="5.03917">
        <ele>159</ele>
        <time>2019-09-26T11:13:48Z</time>
      </trkpt>
      <trkpt lat="43.70845" lon="5.03919">
        <ele>159</ele>
        <time>2019-09-26T11:13:50Z</time>
      </trkpt>
      <trkpt lat="43.70845" lon="5.03921">
        <ele>159</ele>
        <time>2019-09-26T11:13:52Z</time>
      </trkpt>
      <trkpt lat="43.70845" lon="5.03923">
        <ele>159</ele>
        <time>2019-09-26T11:13:53Z</time>
      </trkpt>
      <trkpt lat="43.70844" lon="5.03928">
        <ele>159</ele>
        <time>2019-09-26T11:13:54Z</time>
      </trkpt>
      <trkpt lat="43.70843" lon="5.0393">
        <ele>159</ele>
        <time>2019-09-26T11:13:56Z</time>
      </trkpt>
      <trkpt lat="43.70842" lon="5.03932">
        <ele>159</ele>
        <time>2019-09-26T11:13:58Z</time>
      </trkpt>
      <trkpt lat="43.70842" lon="5.03934">
        <ele>159</ele>
        <time>2019-09-26T11:14:00Z</time>
      </trkpt>
      <trkpt lat="43.70841" lon="5.03936">
        <ele>159</ele>
        <time>2019-09-26T11:14:02Z</time>
      </trkpt>
      <trkpt lat="43.7084" lon="5.03938">
        <ele>156</ele>
        <time>2019-09-26T11:14:03Z</time>
      </trkpt>
      <trkpt lat="43.70839" lon="5.03939">
        <ele>156</ele>
        <time>2019-09-26T11:14:04Z</time>
      </trkpt>
      <trkpt lat="43.70838" lon="5.03941">
        <ele>156</ele>
        <time>2019-09-26T11:14:06Z</time>
      </trkpt>
      <trkpt lat="43.70837" lon="5.03943">
        <ele>156</ele>
        <time>2019-09-26T11:14:08Z</time>
      </trkpt>
      <trkpt lat="43.70835" lon="5.03946">
        <ele>156</ele>
        <time>2019-09-26T11:14:10Z</time>
      </trkpt>
      <trkpt lat="43.70834" lon="5.03949">
        <ele>155</ele>
        <time>2019-09-26T11:14:13Z</time>
      </trkpt>
      <trkpt lat="43.70833" lon="5.03952">
        <ele>155</ele>
        <time>2019-09-26T11:14:15Z</time>
      </trkpt>
      <trkpt lat="43.70833" lon="5.03955">
        <ele>155</ele>
        <time>2019-09-26T11:14:17Z</time>
      </trkpt>
      <trkpt lat="43.70833" lon="5.03958">
        <ele>155</ele>
        <time>2019-09-26T11:14:19Z</time>
      </trkpt>
      <trkpt lat="43.70833" lon="5.03961">
        <ele>155</ele>
        <time>2019-09-26T11:14:21Z</time>
      </trkpt>
      <trkpt lat="43.70832" lon="5.03963">
        <ele>155</ele>
        <time>2019-09-26T11:14:23Z</time>
      </trkpt>
      <trkpt lat="43.70831" lon="5.03966">
        <ele>155</ele>
        <time>2019-09-26T11:14:25Z</time>
      </trkpt>
      <trkpt lat="43.7083" lon="5.03968">
        <ele>155</ele>
        <time>2019-09-26T11:14:27Z</time>
      </trkpt>
      <trkpt lat="43.70829" lon="5.03971">
        <ele>155</ele>
        <time>2019-09-26T11:14:29Z</time>
      </trkpt>
      <trkpt lat="43.70829" lon="5.03973">
        <ele>155</ele>
        <time>2019-09-26T11:14:31Z</time>
      </trkpt>
      <trkpt lat="43.70828" lon="5.03975">
        <ele>154</ele>
        <time>2019-09-26T11:14:33Z</time>
      </trkpt>
      <trkpt lat="43.70826" lon="5.03979">
        <ele>154</ele>
        <time>2019-09-26T11:14:35Z</time>
      </trkpt>
      <trkpt lat="43.70825" lon="5.0398">
        <ele>154</ele>
        <time>2019-09-26T11:14:37Z</time>
      </trkpt>
      <trkpt lat="43.70825" lon="5.03982">
        <ele>154</ele>
        <time>2019-09-26T11:14:39Z</time>
      </trkpt>
      <trkpt lat="43.70824" lon="5.03983">
        <ele>154</ele>
        <time>2019-09-26T11:14:42Z</time>
      </trkpt>
      <trkpt lat="43.70823" lon="5.03985">
        <ele>153</ele>
        <time>2019-09-26T11:14:43Z</time>
      </trkpt>
      <trkpt lat="43.70823" lon="5.0399">
        <ele>153</ele>
        <time>2019-09-26T11:14:44Z</time>
      </trkpt>
      <trkpt lat="43.70823" lon="5.03992">
        <ele>153</ele>
        <time>2019-09-26T11:14:46Z</time>
      </trkpt>
      <trkpt lat="43.70823" lon="5.03994">
        <ele>153</ele>
        <time>2019-09-26T11:14:48Z</time>
      </trkpt>
      <trkpt lat="43.70823" lon="5.03996">
        <ele>153</ele>
        <time>2019-09-26T11:14:50Z</time>
      </trkpt>
      <trkpt lat="43.70823" lon="5.03998">
        <ele>153</ele>
        <time>2019-09-26T11:14:52Z</time>
      </trkpt>
      <trkpt lat="43.70823" lon="5.04001">
        <ele>151</ele>
        <time>2019-09-26T11:14:53Z</time>
      </trkpt>
      <trkpt lat="43.70823" lon="5.04002">
        <ele>151</ele>
        <time>2019-09-26T11:14:54Z</time>
      </trkpt>
      <trkpt lat="43.70823" lon="5.04006">
        <ele>151</ele>
        <time>2019-09-26T11:14:57Z</time>
      </trkpt>
      <trkpt lat="43.70823" lon="5.04008">
        <ele>151</ele>
        <time>2019-09-26T11:14:59Z</time>
      </trkpt>
      <trkpt lat="43.70823" lon="5.04011">
        <ele>151</ele>
        <time>2019-09-26T11:15:01Z</time>
      </trkpt>
      <trkpt lat="43.70824" lon="5.04013">
        <ele>150</ele>
        <time>2019-09-26T11:15:03Z</time>
      </trkpt>
      <trkpt lat="43.70824" lon="5.04016">
        <ele>150</ele>
        <time>2019-09-26T11:15:05Z</time>
      </trkpt>
      <trkpt lat="43.70825" lon="5.04019">
        <ele>150</ele>
        <time>2019-09-26T11:15:07Z</time>
      </trkpt>
      <trkpt lat="43.70825" lon="5.04022">
        <ele>150</ele>
        <time>2019-09-26T11:15:09Z</time>
      </trkpt>
      <trkpt lat="43.70825" lon="5.04025">
        <ele>150</ele>
        <time>2019-09-26T11:15:11Z</time>
      </trkpt>
      <trkpt lat="43.70827" lon="5.04028">
        <ele>150</ele>
        <time>2019-09-26T11:15:13Z</time>
      </trkpt>
      <trkpt lat="43.70828" lon="5.04029">
        <ele>150</ele>
        <time>2019-09-26T11:15:15Z</time>
      </trkpt>
      <trkpt lat="43.7083" lon="5.04031">
        <ele>150</ele>
        <time>2019-09-26T11:15:17Z</time>
      </trkpt>
      <trkpt lat="43.70831" lon="5.04033">
        <ele>150</ele>
        <time>2019-09-26T11:15:19Z</time>
      </trkpt>
      <trkpt lat="43.70833" lon="5.04036">
        <ele>150</ele>
        <time>2019-09-26T11:15:21Z</time>
      </trkpt>
      <trkpt lat="43.70834" lon="5.04039">
        <ele>148</ele>
        <time>2019-09-26T11:15:23Z</time>
      </trkpt>
      <trkpt lat="43.70835" lon="5.04041">
        <ele>148</ele>
        <time>2019-09-26T11:15:25Z</time>
      </trkpt>
      <trkpt lat="43.70836" lon="5.04044">
        <ele>148</ele>
        <time>2019-09-26T11:15:27Z</time>
      </trkpt>
      <trkpt lat="43.70837" lon="5.04047">
        <ele>148</ele>
        <time>2019-09-26T11:15:29Z</time>
      </trkpt>
      <trkpt lat="43.70838" lon="5.0405">
        <ele>148</ele>
        <time>2019-09-26T11:15:31Z</time>
      </trkpt>
      <trkpt lat="43.70839" lon="5.04053">
        <ele>147</ele>
        <time>2019-09-26T11:15:33Z</time>
      </trkpt>
      <trkpt lat="43.7084" lon="5.04055">
        <ele>147</ele>
        <time>2019-09-26T11:15:35Z</time>
      </trkpt>
      <trkpt lat="43.70842" lon="5.04057">
        <ele>147</ele>
        <time>2019-09-26T11:15:38Z</time>
      </trkpt>
      <trkpt lat="43.70844" lon="5.0406">
        <ele>147</ele>
        <time>2019-09-26T11:15:41Z</time>
      </trkpt>
      <trkpt lat="43.70846" lon="5.04061">
        <ele>147</ele>
        <time>2019-09-26T11:15:43Z</time>
      </trkpt>
      <trkpt lat="43.70848" lon="5.04063">
        <ele>147</ele>
        <time>2019-09-26T11:15:45Z</time>
      </trkpt>
      <trkpt lat="43.70849" lon="5.04066">
        <ele>147</ele>
        <time>2019-09-26T11:15:47Z</time>
      </trkpt>
      <trkpt lat="43.7085" lon="5.04068">
        <ele>147</ele>
        <time>2019-09-26T11:15:49Z</time>
      </trkpt>
      <trkpt lat="43.70852" lon="5.04071">
        <ele>147</ele>
        <time>2019-09-26T11:15:51Z</time>
      </trkpt>
      <trkpt lat="43.70852" lon="5.04074">
        <ele>146</ele>
        <time>2019-09-26T11:15:53Z</time>
      </trkpt>
      <trkpt lat="43.70853" lon="5.04077">
        <ele>146</ele>
        <time>2019-09-26T11:15:55Z</time>
      </trkpt>
      <trkpt lat="43.70853" lon="5.0408">
        <ele>146</ele>
        <time>2019-09-26T11:15:57Z</time>
      </trkpt>
      <trkpt lat="43.70853" lon="5.04083">
        <ele>146</ele>
        <time>2019-09-26T11:15:59Z</time>
      </trkpt>
      <trkpt lat="43.70852" lon="5.04085">
        <ele>146</ele>
        <time>2019-09-26T11:16:01Z</time>
      </trkpt>
      <trkpt lat="43.70851" lon="5.04087">
        <ele>147</ele>
        <time>2019-09-26T11:16:03Z</time>
      </trkpt>
      <trkpt lat="43.70849" lon="5.04089">
        <ele>147</ele>
        <time>2019-09-26T11:16:05Z</time>
      </trkpt>
      <trkpt lat="43.70847" lon="5.04091">
        <ele>147</ele>
        <time>2019-09-26T11:16:07Z</time>
      </trkpt>
      <trkpt lat="43.70845" lon="5.04092">
        <ele>147</ele>
        <time>2019-09-26T11:16:09Z</time>
      </trkpt>
      <trkpt lat="43.70843" lon="5.04093">
        <ele>147</ele>
        <time>2019-09-26T11:16:11Z</time>
      </trkpt>
      <trkpt lat="43.70841" lon="5.04095">
        <ele>147</ele>
        <time>2019-09-26T11:16:13Z</time>
      </trkpt>
      <trkpt lat="43.70838" lon="5.04097">
        <ele>147</ele>
        <time>2019-09-26T11:16:15Z</time>
      </trkpt>
      <trkpt lat="43.70837" lon="5.04098">
        <ele>147</ele>
        <time>2019-09-26T11:16:17Z</time>
      </trkpt>
      <trkpt lat="43.70835" lon="5.04099">
        <ele>147</ele>
        <time>2019-09-26T11:16:19Z</time>
      </trkpt>
      <trkpt lat="43.70834" lon="5.04101">
        <ele>147</ele>
        <time>2019-09-26T11:16:21Z</time>
      </trkpt>
      <trkpt lat="43.70834" lon="5.04101">
        <ele>146</ele>
        <time>2019-09-26T11:16:23Z</time>
      </trkpt>
      <trkpt lat="43.70832" lon="5.04104">
        <ele>146</ele>
        <time>2019-09-26T11:16:24Z</time>
      </trkpt>
      <trkpt lat="43.70832" lon="5.04104">
        <ele>147</ele>
        <time>2019-09-26T11:16:32Z</time>
      </trkpt>
      <trkpt lat="43.70832" lon="5.04105">
        <ele>147</ele>
        <time>2019-09-26T11:16:33Z</time>
      </trkpt>
      <trkpt lat="43.70832" lon="5.04105">
        <ele>147</ele>
        <time>2019-09-26T11:18:21Z</time>
      </trkpt>
      <trkpt lat="43.70828" lon="5.041">
        <ele>147</ele>
        <time>2019-09-26T11:18:22Z</time>
      </trkpt>
      <trkpt lat="43.70827" lon="5.04099">
        <ele>147</ele>
        <time>2019-09-26T11:18:23Z</time>
      </trkpt>
      <trkpt lat="43.70825" lon="5.04098">
        <ele>147</ele>
        <time>2019-09-26T11:18:25Z</time>
      </trkpt>
      <trkpt lat="43.70823" lon="5.04099">
        <ele>147</ele>
        <time>2019-09-26T11:18:27Z</time>
      </trkpt>
      <trkpt lat="43.70821" lon="5.04099">
        <ele>147</ele>
        <time>2019-09-26T11:18:29Z</time>
      </trkpt>
      <trkpt lat="43.70819" lon="5.04099">
        <ele>146</ele>
        <time>2019-09-26T11:18:31Z</time>
      </trkpt>
      <trkpt lat="43.70817" lon="5.04099">
        <ele>146</ele>
        <time>2019-09-26T11:18:33Z</time>
      </trkpt>
      <trkpt lat="43.70815" lon="5.04099">
        <ele>146</ele>
        <time>2019-09-26T11:18:35Z</time>
      </trkpt>
      <trkpt lat="43.70813" lon="5.04099">
        <ele>146</ele>
        <time>2019-09-26T11:18:37Z</time>
      </trkpt>
      <trkpt lat="43.70811" lon="5.04099">
        <ele>146</ele>
        <time>2019-09-26T11:18:39Z</time>
      </trkpt>
      <trkpt lat="43.70809" lon="5.041">
        <ele>146</ele>
        <time>2019-09-26T11:18:41Z</time>
      </trkpt>
      <trkpt lat="43.70807" lon="5.04101">
        <ele>146</ele>
        <time>2019-09-26T11:18:43Z</time>
      </trkpt>
      <trkpt lat="43.70805" lon="5.04101">
        <ele>146</ele>
        <time>2019-09-26T11:18:46Z</time>
      </trkpt>
      <trkpt lat="43.70803" lon="5.04102">
        <ele>146</ele>
        <time>2019-09-26T11:18:49Z</time>
      </trkpt>
      <trkpt lat="43.70803" lon="5.04102">
        <ele>146</ele>
        <time>2019-09-26T11:18:51Z</time>
      </trkpt>
      <trkpt lat="43.70799" lon="5.04102">
        <ele>146</ele>
        <time>2019-09-26T11:18:52Z</time>
      </trkpt>
      <trkpt lat="43.70798" lon="5.04103">
        <ele>146</ele>
        <time>2019-09-26T11:18:54Z</time>
      </trkpt>
      <trkpt lat="43.70796" lon="5.04103">
        <ele>146</ele>
        <time>2019-09-26T11:18:57Z</time>
      </trkpt>
      <trkpt lat="43.70795" lon="5.04103">
        <ele>146</ele>
        <time>2019-09-26T11:19:00Z</time>
      </trkpt>
      <trkpt lat="43.70793" lon="5.04103">
        <ele>146</ele>
        <time>2019-09-26T11:19:01Z</time>
      </trkpt>
      <trkpt lat="43.70791" lon="5.04104">
        <ele>146</ele>
        <time>2019-09-26T11:19:02Z</time>
      </trkpt>
      <trkpt lat="43.70789" lon="5.04104">
        <ele>146</ele>
        <time>2019-09-26T11:19:04Z</time>
      </trkpt>
      <trkpt lat="43.70788" lon="5.04105">
        <ele>146</ele>
        <time>2019-09-26T11:19:06Z</time>
      </trkpt>
      <trkpt lat="43.70785" lon="5.04104">
        <ele>146</ele>
        <time>2019-09-26T11:19:09Z</time>
      </trkpt>
      <trkpt lat="43.70782" lon="5.04104">
        <ele>144</ele>
        <time>2019-09-26T11:19:11Z</time>
      </trkpt>
      <trkpt lat="43.7078" lon="5.04104">
        <ele>144</ele>
        <time>2019-09-26T11:19:13Z</time>
      </trkpt>
      <trkpt lat="43.70778" lon="5.04103">
        <ele>144</ele>
        <time>2019-09-26T11:19:15Z</time>
      </trkpt>
      <trkpt lat="43.70775" lon="5.04103">
        <ele>144</ele>
        <time>2019-09-26T11:19:17Z</time>
      </trkpt>
      <trkpt lat="43.70773" lon="5.04102">
        <ele>144</ele>
        <time>2019-09-26T11:19:19Z</time>
      </trkpt>
      <trkpt lat="43.7077" lon="5.04101">
        <ele>145</ele>
        <time>2019-09-26T11:19:21Z</time>
      </trkpt>
      <trkpt lat="43.70768" lon="5.04101">
        <ele>145</ele>
        <time>2019-09-26T11:19:23Z</time>
      </trkpt>
      <trkpt lat="43.70766" lon="5.041">
        <ele>145</ele>
        <time>2019-09-26T11:19:25Z</time>
      </trkpt>
      <trkpt lat="43.70764" lon="5.04099">
        <ele>145</ele>
        <time>2019-09-26T11:19:27Z</time>
      </trkpt>
      <trkpt lat="43.70762" lon="5.04098">
        <ele>145</ele>
        <time>2019-09-26T11:19:29Z</time>
      </trkpt>
      <trkpt lat="43.7076" lon="5.04098">
        <ele>144</ele>
        <time>2019-09-26T11:19:31Z</time>
      </trkpt>
      <trkpt lat="43.70756" lon="5.04099">
        <ele>144</ele>
        <time>2019-09-26T11:19:33Z</time>
      </trkpt>
      <trkpt lat="43.70754" lon="5.04099">
        <ele>144</ele>
        <time>2019-09-26T11:19:36Z</time>
      </trkpt>
      <trkpt lat="43.70753" lon="5.04099">
        <ele>144</ele>
        <time>2019-09-26T11:19:38Z</time>
      </trkpt>
      <trkpt lat="43.70751" lon="5.041">
        <ele>144</ele>
        <time>2019-09-26T11:19:40Z</time>
      </trkpt>
      <trkpt lat="43.70749" lon="5.041">
        <ele>144</ele>
        <time>2019-09-26T11:19:41Z</time>
      </trkpt>
      <trkpt lat="43.70748" lon="5.041">
        <ele>144</ele>
        <time>2019-09-26T11:19:42Z</time>
      </trkpt>
      <trkpt lat="43.70746" lon="5.041">
        <ele>144</ele>
        <time>2019-09-26T11:19:44Z</time>
      </trkpt>
      <trkpt lat="43.70744" lon="5.04101">
        <ele>144</ele>
        <time>2019-09-26T11:19:46Z</time>
      </trkpt>
      <trkpt lat="43.70742" lon="5.04102">
        <ele>144</ele>
        <time>2019-09-26T11:19:48Z</time>
      </trkpt>
      <trkpt lat="43.7074" lon="5.04104">
        <ele>144</ele>
        <time>2019-09-26T11:19:51Z</time>
      </trkpt>
      <trkpt lat="43.70737" lon="5.04106">
        <ele>144</ele>
        <time>2019-09-26T11:19:53Z</time>
      </trkpt>
      <trkpt lat="43.70735" lon="5.04107">
        <ele>144</ele>
        <time>2019-09-26T11:19:56Z</time>
      </trkpt>
      <trkpt lat="43.70734" lon="5.04107">
        <ele>144</ele>
        <time>2019-09-26T11:19:58Z</time>
      </trkpt>
      <trkpt lat="43.70732" lon="5.04108">
        <ele>144</ele>
        <time>2019-09-26T11:20:00Z</time>
      </trkpt>
      <trkpt lat="43.70731" lon="5.04108">
        <ele>144</ele>
        <time>2019-09-26T11:20:01Z</time>
      </trkpt>
      <trkpt lat="43.70728" lon="5.04109">
        <ele>144</ele>
        <time>2019-09-26T11:20:02Z</time>
      </trkpt>
      <trkpt lat="43.70726" lon="5.0411">
        <ele>144</ele>
        <time>2019-09-26T11:20:04Z</time>
      </trkpt>
      <trkpt lat="43.70725" lon="5.04111">
        <ele>144</ele>
        <time>2019-09-26T11:20:06Z</time>
      </trkpt>
      <trkpt lat="43.70723" lon="5.04111">
        <ele>144</ele>
        <time>2019-09-26T11:20:08Z</time>
      </trkpt>
      <trkpt lat="43.70722" lon="5.04112">
        <ele>144</ele>
        <time>2019-09-26T11:20:10Z</time>
      </trkpt>
      <trkpt lat="43.7072" lon="5.04112">
        <ele>144</ele>
        <time>2019-09-26T11:20:11Z</time>
      </trkpt>
      <trkpt lat="43.70718" lon="5.04113">
        <ele>144</ele>
        <time>2019-09-26T11:20:12Z</time>
      </trkpt>
      <trkpt lat="43.70716" lon="5.04114">
        <ele>144</ele>
        <time>2019-09-26T11:20:14Z</time>
      </trkpt>
      <trkpt lat="43.70715" lon="5.04115">
        <ele>144</ele>
        <time>2019-09-26T11:20:16Z</time>
      </trkpt>
      <trkpt lat="43.70714" lon="5.04115">
        <ele>144</ele>
        <time>2019-09-26T11:20:18Z</time>
      </trkpt>
      <trkpt lat="43.70712" lon="5.04116">
        <ele>144</ele>
        <time>2019-09-26T11:20:20Z</time>
      </trkpt>
      <trkpt lat="43.70711" lon="5.04116">
        <ele>144</ele>
        <time>2019-09-26T11:20:21Z</time>
      </trkpt>
      <trkpt lat="43.70707" lon="5.04118">
        <ele>144</ele>
        <time>2019-09-26T11:20:22Z</time>
      </trkpt>
      <trkpt lat="43.70706" lon="5.04119">
        <ele>144</ele>
        <time>2019-09-26T11:20:24Z</time>
      </trkpt>
      <trkpt lat="43.70704" lon="5.04119">
        <ele>144</ele>
        <time>2019-09-26T11:20:26Z</time>
      </trkpt>
      <trkpt lat="43.70702" lon="5.0412">
        <ele>144</ele>
        <time>2019-09-26T11:20:28Z</time>
      </trkpt>
      <trkpt lat="43.70701" lon="5.0412">
        <ele>144</ele>
        <time>2019-09-26T11:20:30Z</time>
      </trkpt>
      <trkpt lat="43.70699" lon="5.04121">
        <ele>144</ele>
        <time>2019-09-26T11:20:31Z</time>
      </trkpt>
      <trkpt lat="43.70697" lon="5.04121">
        <ele>144</ele>
        <time>2019-09-26T11:20:32Z</time>
      </trkpt>
      <trkpt lat="43.70695" lon="5.04122">
        <ele>144</ele>
        <time>2019-09-26T11:20:34Z</time>
      </trkpt>
      <trkpt lat="43.70693" lon="5.04122">
        <ele>144</ele>
        <time>2019-09-26T11:20:36Z</time>
      </trkpt>
      <trkpt lat="43.70692" lon="5.04122">
        <ele>144</ele>
        <time>2019-09-26T11:20:38Z</time>
      </trkpt>
      <trkpt lat="43.7069" lon="5.04122">
        <ele>144</ele>
        <time>2019-09-26T11:20:40Z</time>
      </trkpt>
      <trkpt lat="43.70689" lon="5.04123">
        <ele>144</ele>
        <time>2019-09-26T11:20:41Z</time>
      </trkpt>
      <trkpt lat="43.70686" lon="5.04122">
        <ele>144</ele>
        <time>2019-09-26T11:20:42Z</time>
      </trkpt>
      <trkpt lat="43.70684" lon="5.04122">
        <ele>144</ele>
        <time>2019-09-26T11:20:44Z</time>
      </trkpt>
      <trkpt lat="43.70682" lon="5.04122">
        <ele>144</ele>
        <time>2019-09-26T11:20:46Z</time>
      </trkpt>
      <trkpt lat="43.70681" lon="5.04123">
        <ele>144</ele>
        <time>2019-09-26T11:20:48Z</time>
      </trkpt>
      <trkpt lat="43.70679" lon="5.04123">
        <ele>144</ele>
        <time>2019-09-26T11:20:50Z</time>
      </trkpt>
      <trkpt lat="43.70677" lon="5.04123">
        <ele>144</ele>
        <time>2019-09-26T11:20:51Z</time>
      </trkpt>
      <trkpt lat="43.70676" lon="5.04123">
        <ele>144</ele>
        <time>2019-09-26T11:20:52Z</time>
      </trkpt>
      <trkpt lat="43.70674" lon="5.04123">
        <ele>144</ele>
        <time>2019-09-26T11:20:54Z</time>
      </trkpt>
      <trkpt lat="43.70672" lon="5.04124">
        <ele>144</ele>
        <time>2019-09-26T11:20:56Z</time>
      </trkpt>
      <trkpt lat="43.7067" lon="5.04125">
        <ele>144</ele>
        <time>2019-09-26T11:20:58Z</time>
      </trkpt>
      <trkpt lat="43.70668" lon="5.04126">
        <ele>144</ele>
        <time>2019-09-26T11:21:01Z</time>
      </trkpt>
      <trkpt lat="43.70666" lon="5.04126">
        <ele>144</ele>
        <time>2019-09-26T11:21:03Z</time>
      </trkpt>
      <trkpt lat="43.70663" lon="5.04128">
        <ele>144</ele>
        <time>2019-09-26T11:21:05Z</time>
      </trkpt>
      <trkpt lat="43.70661" lon="5.04129">
        <ele>144</ele>
        <time>2019-09-26T11:21:07Z</time>
      </trkpt>
      <trkpt lat="43.70659" lon="5.0413">
        <ele>144</ele>
        <time>2019-09-26T11:21:09Z</time>
      </trkpt>
      <trkpt lat="43.70657" lon="5.04132">
        <ele>144</ele>
        <time>2019-09-26T11:21:11Z</time>
      </trkpt>
      <trkpt lat="43.70655" lon="5.04134">
        <ele>144</ele>
        <time>2019-09-26T11:21:13Z</time>
      </trkpt>
      <trkpt lat="43.70653" lon="5.04135">
        <ele>144</ele>
        <time>2019-09-26T11:21:15Z</time>
      </trkpt>
      <trkpt lat="43.70651" lon="5.04137">
        <ele>144</ele>
        <time>2019-09-26T11:21:17Z</time>
      </trkpt>
      <trkpt lat="43.70649" lon="5.04138">
        <ele>144</ele>
        <time>2019-09-26T11:21:19Z</time>
      </trkpt>
      <trkpt lat="43.70648" lon="5.0414">
        <ele>144</ele>
        <time>2019-09-26T11:21:21Z</time>
      </trkpt>
      <trkpt lat="43.70646" lon="5.04142">
        <ele>144</ele>
        <time>2019-09-26T11:21:23Z</time>
      </trkpt>
      <trkpt lat="43.70644" lon="5.04144">
        <ele>144</ele>
        <time>2019-09-26T11:21:25Z</time>
      </trkpt>
      <trkpt lat="43.70643" lon="5.04146">
        <ele>144</ele>
        <time>2019-09-26T11:21:27Z</time>
      </trkpt>
      <trkpt lat="43.70641" lon="5.04148">
        <ele>144</ele>
        <time>2019-09-26T11:21:29Z</time>
      </trkpt>
      <trkpt lat="43.70641" lon="5.04148">
        <ele>143</ele>
        <time>2019-09-26T11:21:31Z</time>
      </trkpt>
      <trkpt lat="43.70637" lon="5.0415">
        <ele>143</ele>
        <time>2019-09-26T11:21:32Z</time>
      </trkpt>
      <trkpt lat="43.70636" lon="5.04151">
        <ele>143</ele>
        <time>2019-09-26T11:21:34Z</time>
      </trkpt>
      <trkpt lat="43.70634" lon="5.04152">
        <ele>143</ele>
        <time>2019-09-26T11:21:36Z</time>
      </trkpt>
      <trkpt lat="43.70633" lon="5.04153">
        <ele>143</ele>
        <time>2019-09-26T11:21:38Z</time>
      </trkpt>
      <trkpt lat="43.70632" lon="5.04154">
        <ele>143</ele>
        <time>2019-09-26T11:21:40Z</time>
      </trkpt>
      <trkpt lat="43.7063" lon="5.04155">
        <ele>143</ele>
        <time>2019-09-26T11:21:41Z</time>
      </trkpt>
      <trkpt lat="43.70628" lon="5.04157">
        <ele>143</ele>
        <time>2019-09-26T11:21:42Z</time>
      </trkpt>
      <trkpt lat="43.70627" lon="5.04158">
        <ele>143</ele>
        <time>2019-09-26T11:21:44Z</time>
      </trkpt>
      <trkpt lat="43.70626" lon="5.0416">
        <ele>143</ele>
        <time>2019-09-26T11:21:46Z</time>
      </trkpt>
      <trkpt lat="43.70625" lon="5.04162">
        <ele>143</ele>
        <time>2019-09-26T11:21:48Z</time>
      </trkpt>
      <trkpt lat="43.70624" lon="5.04163">
        <ele>143</ele>
        <time>2019-09-26T11:21:50Z</time>
      </trkpt>
      <trkpt lat="43.70623" lon="5.04165">
        <ele>143</ele>
        <time>2019-09-26T11:21:51Z</time>
      </trkpt>
      <trkpt lat="43.70623" lon="5.04167">
        <ele>143</ele>
        <time>2019-09-26T11:21:52Z</time>
      </trkpt>
      <trkpt lat="43.70623" lon="5.0417">
        <ele>143</ele>
        <time>2019-09-26T11:21:55Z</time>
      </trkpt>
      <trkpt lat="43.70624" lon="5.04173">
        <ele>143</ele>
        <time>2019-09-26T11:21:58Z</time>
      </trkpt>
      <trkpt lat="43.70624" lon="5.04173">
        <ele>142</ele>
        <time>2019-09-26T11:22:01Z</time>
      </trkpt>
      <trkpt lat="43.70622" lon="5.04176">
        <ele>142</ele>
        <time>2019-09-26T11:22:02Z</time>
      </trkpt>
      <trkpt lat="43.70621" lon="5.04177">
        <ele>142</ele>
        <time>2019-09-26T11:22:05Z</time>
      </trkpt>
      <trkpt lat="43.70619" lon="5.04177">
        <ele>142</ele>
        <time>2019-09-26T11:22:08Z</time>
      </trkpt>
      <trkpt lat="43.70618" lon="5.04178">
        <ele>142</ele>
        <time>2019-09-26T11:22:10Z</time>
      </trkpt>
      <trkpt lat="43.70617" lon="5.04178">
        <ele>144</ele>
        <time>2019-09-26T11:22:11Z</time>
      </trkpt>
      <trkpt lat="43.70613" lon="5.04178">
        <ele>144</ele>
        <time>2019-09-26T11:22:12Z</time>
      </trkpt>
      <trkpt lat="43.70612" lon="5.04178">
        <ele>144</ele>
        <time>2019-09-26T11:22:14Z</time>
      </trkpt>
      <trkpt lat="43.7061" lon="5.04178">
        <ele>144</ele>
        <time>2019-09-26T11:22:16Z</time>
      </trkpt>
      <trkpt lat="43.70609" lon="5.04177">
        <ele>144</ele>
        <time>2019-09-26T11:22:18Z</time>
      </trkpt>
      <trkpt lat="43.70607" lon="5.04177">
        <ele>144</ele>
        <time>2019-09-26T11:22:20Z</time>
      </trkpt>
      <trkpt lat="43.70605" lon="5.04177">
        <ele>144</ele>
        <time>2019-09-26T11:22:21Z</time>
      </trkpt>
      <trkpt lat="43.70603" lon="5.04176">
        <ele>144</ele>
        <time>2019-09-26T11:22:22Z</time>
      </trkpt>
      <trkpt lat="43.70602" lon="5.04176">
        <ele>144</ele>
        <time>2019-09-26T11:22:24Z</time>
      </trkpt>
      <trkpt lat="43.706" lon="5.04176">
        <ele>144</ele>
        <time>2019-09-26T11:22:26Z</time>
      </trkpt>
      <trkpt lat="43.70599" lon="5.04176">
        <ele>144</ele>
        <time>2019-09-26T11:22:28Z</time>
      </trkpt>
      <trkpt lat="43.70597" lon="5.04176">
        <ele>144</ele>
        <time>2019-09-26T11:22:30Z</time>
      </trkpt>
      <trkpt lat="43.70596" lon="5.04175">
        <ele>146</ele>
        <time>2019-09-26T11:22:31Z</time>
      </trkpt>
      <trkpt lat="43.70592" lon="5.04174">
        <ele>146</ele>
        <time>2019-09-26T11:22:33Z</time>
      </trkpt>
      <trkpt lat="43.70591" lon="5.04173">
        <ele>146</ele>
        <time>2019-09-26T11:22:36Z</time>
      </trkpt>
      <trkpt lat="43.7059" lon="5.04173">
        <ele>146</ele>
        <time>2019-09-26T11:22:38Z</time>
      </trkpt>
      <trkpt lat="43.70588" lon="5.04172">
        <ele>146</ele>
        <time>2019-09-26T11:22:40Z</time>
      </trkpt>
      <trkpt lat="43.70587" lon="5.04171">
        <ele>147</ele>
        <time>2019-09-26T11:22:41Z</time>
      </trkpt>
      <trkpt lat="43.70584" lon="5.04172">
        <ele>147</ele>
        <time>2019-09-26T11:22:42Z</time>
      </trkpt>
      <trkpt lat="43.70582" lon="5.04173">
        <ele>147</ele>
        <time>2019-09-26T11:22:44Z</time>
      </trkpt>
      <trkpt lat="43.70581" lon="5.04174">
        <ele>147</ele>
        <time>2019-09-26T11:22:46Z</time>
      </trkpt>
      <trkpt lat="43.70579" lon="5.04175">
        <ele>147</ele>
        <time>2019-09-26T11:22:48Z</time>
      </trkpt>
      <trkpt lat="43.70578" lon="5.04176">
        <ele>147</ele>
        <time>2019-09-26T11:22:50Z</time>
      </trkpt>
      <trkpt lat="43.70576" lon="5.04177">
        <ele>147</ele>
        <time>2019-09-26T11:22:51Z</time>
      </trkpt>
      <trkpt lat="43.70574" lon="5.04179">
        <ele>147</ele>
        <time>2019-09-26T11:22:52Z</time>
      </trkpt>
      <trkpt lat="43.70573" lon="5.0418">
        <ele>147</ele>
        <time>2019-09-26T11:22:54Z</time>
      </trkpt>
      <trkpt lat="43.70572" lon="5.04181">
        <ele>147</ele>
        <time>2019-09-26T11:22:56Z</time>
      </trkpt>
      <trkpt lat="43.70571" lon="5.04182">
        <ele>147</ele>
        <time>2019-09-26T11:22:58Z</time>
      </trkpt>
      <trkpt lat="43.7057" lon="5.04182">
        <ele>147</ele>
        <time>2019-09-26T11:23:00Z</time>
      </trkpt>
      <trkpt lat="43.70568" lon="5.04183">
        <ele>149</ele>
        <time>2019-09-26T11:23:01Z</time>
      </trkpt>
      <trkpt lat="43.70565" lon="5.04187">
        <ele>149</ele>
        <time>2019-09-26T11:23:03Z</time>
      </trkpt>
      <trkpt lat="43.70564" lon="5.04188">
        <ele>149</ele>
        <time>2019-09-26T11:23:05Z</time>
      </trkpt>
      <trkpt lat="43.70563" lon="5.0419">
        <ele>149</ele>
        <time>2019-09-26T11:23:07Z</time>
      </trkpt>
      <trkpt lat="43.70562" lon="5.04192">
        <ele>149</ele>
        <time>2019-09-26T11:23:10Z</time>
      </trkpt>
      <trkpt lat="43.70561" lon="5.04193">
        <ele>149</ele>
        <time>2019-09-26T11:23:11Z</time>
      </trkpt>
      <trkpt lat="43.7056" lon="5.04194">
        <ele>149</ele>
        <time>2019-09-26T11:23:12Z</time>
      </trkpt>
      <trkpt lat="43.70559" lon="5.04196">
        <ele>149</ele>
        <time>2019-09-26T11:23:14Z</time>
      </trkpt>
      <trkpt lat="43.70558" lon="5.04199">
        <ele>149</ele>
        <time>2019-09-26T11:23:16Z</time>
      </trkpt>
      <trkpt lat="43.70556" lon="5.04201">
        <ele>149</ele>
        <time>2019-09-26T11:23:19Z</time>
      </trkpt>
      <trkpt lat="43.70555" lon="5.04203">
        <ele>150</ele>
        <time>2019-09-26T11:23:21Z</time>
      </trkpt>
      <trkpt lat="43.70553" lon="5.04206">
        <ele>150</ele>
        <time>2019-09-26T11:23:24Z</time>
      </trkpt>
      <trkpt lat="43.70551" lon="5.04209">
        <ele>150</ele>
        <time>2019-09-26T11:23:27Z</time>
      </trkpt>
      <trkpt lat="43.70551" lon="5.04212">
        <ele>150</ele>
        <time>2019-09-26T11:23:29Z</time>
      </trkpt>
      <trkpt lat="43.70551" lon="5.04214">
        <ele>151</ele>
        <time>2019-09-26T11:23:31Z</time>
      </trkpt>
      <trkpt lat="43.7055" lon="5.04219">
        <ele>151</ele>
        <time>2019-09-26T11:23:33Z</time>
      </trkpt>
      <trkpt lat="43.70549" lon="5.04221">
        <ele>151</ele>
        <time>2019-09-26T11:23:35Z</time>
      </trkpt>
      <trkpt lat="43.70548" lon="5.04223">
        <ele>151</ele>
        <time>2019-09-26T11:23:38Z</time>
      </trkpt>
      <trkpt lat="43.70548" lon="5.04225">
        <ele>151</ele>
        <time>2019-09-26T11:23:40Z</time>
      </trkpt>
      <trkpt lat="43.70547" lon="5.04227">
        <ele>152</ele>
        <time>2019-09-26T11:23:41Z</time>
      </trkpt>
      <trkpt lat="43.70547" lon="5.04228">
        <ele>152</ele>
        <time>2019-09-26T11:23:42Z</time>
      </trkpt>
      <trkpt lat="43.70545" lon="5.0423">
        <ele>152</ele>
        <time>2019-09-26T11:23:44Z</time>
      </trkpt>
      <trkpt lat="43.70543" lon="5.04233">
        <ele>152</ele>
        <time>2019-09-26T11:23:47Z</time>
      </trkpt>
      <trkpt lat="43.70542" lon="5.04235">
        <ele>152</ele>
        <time>2019-09-26T11:23:49Z</time>
      </trkpt>
      <trkpt lat="43.7054" lon="5.04237">
        <ele>154</ele>
        <time>2019-09-26T11:23:51Z</time>
      </trkpt>
      <trkpt lat="43.70538" lon="5.04241">
        <ele>154</ele>
        <time>2019-09-26T11:23:54Z</time>
      </trkpt>
      <trkpt lat="43.70537" lon="5.04242">
        <ele>154</ele>
        <time>2019-09-26T11:23:56Z</time>
      </trkpt>
      <trkpt lat="43.70535" lon="5.04243">
        <ele>154</ele>
        <time>2019-09-26T11:23:58Z</time>
      </trkpt>
      <trkpt lat="43.70534" lon="5.04245">
        <ele>154</ele>
        <time>2019-09-26T11:24:00Z</time>
      </trkpt>
      <trkpt lat="43.70533" lon="5.04246">
        <ele>155</ele>
        <time>2019-09-26T11:24:01Z</time>
      </trkpt>
      <trkpt lat="43.70533" lon="5.04247">
        <ele>155</ele>
        <time>2019-09-26T11:24:02Z</time>
      </trkpt>
      <trkpt lat="43.70531" lon="5.04249">
        <ele>155</ele>
        <time>2019-09-26T11:24:04Z</time>
      </trkpt>
      <trkpt lat="43.7053" lon="5.04251">
        <ele>155</ele>
        <time>2019-09-26T11:24:06Z</time>
      </trkpt>
      <trkpt lat="43.70528" lon="5.04253">
        <ele>155</ele>
        <time>2019-09-26T11:24:08Z</time>
      </trkpt>
      <trkpt lat="43.70527" lon="5.04256">
        <ele>156</ele>
        <time>2019-09-26T11:24:11Z</time>
      </trkpt>
      <trkpt lat="43.70526" lon="5.0426">
        <ele>156</ele>
        <time>2019-09-26T11:24:13Z</time>
      </trkpt>
      <trkpt lat="43.70525" lon="5.04262">
        <ele>156</ele>
        <time>2019-09-26T11:24:15Z</time>
      </trkpt>
      <trkpt lat="43.70525" lon="5.04263">
        <ele>156</ele>
        <time>2019-09-26T11:24:17Z</time>
      </trkpt>
      <trkpt lat="43.70524" lon="5.04265">
        <ele>156</ele>
        <time>2019-09-26T11:24:20Z</time>
      </trkpt>
      <trkpt lat="43.70524" lon="5.04267">
        <ele>156</ele>
        <time>2019-09-26T11:24:21Z</time>
      </trkpt>
      <trkpt lat="43.70524" lon="5.04269">
        <ele>158</ele>
        <time>2019-09-26T11:24:31Z</time>
      </trkpt>
      <trkpt lat="43.70523" lon="5.04271">
        <ele>158</ele>
        <time>2019-09-26T11:24:34Z</time>
      </trkpt>
      <trkpt lat="43.70523" lon="5.04273">
        <ele>158</ele>
        <time>2019-09-26T11:24:35Z</time>
      </trkpt>
      <trkpt lat="43.70523" lon="5.04275">
        <ele>158</ele>
        <time>2019-09-26T11:27:15Z</time>
      </trkpt>
      <trkpt lat="43.70522" lon="5.04276">
        <ele>158</ele>
        <time>2019-09-26T11:27:16Z</time>
      </trkpt>
      <trkpt lat="43.70522" lon="5.04278">
        <ele>158</ele>
        <time>2019-09-26T11:27:18Z</time>
      </trkpt>
      <trkpt lat="43.70522" lon="5.0428">
        <ele>158</ele>
        <time>2019-09-26T11:27:20Z</time>
      </trkpt>
      <trkpt lat="43.70521" lon="5.04282">
        <ele>158</ele>
        <time>2019-09-26T11:27:22Z</time>
      </trkpt>
      <trkpt lat="43.70521" lon="5.04284">
        <ele>158</ele>
        <time>2019-09-26T11:27:24Z</time>
      </trkpt>
      <trkpt lat="43.70521" lon="5.04286">
        <ele>158</ele>
        <time>2019-09-26T11:27:25Z</time>
      </trkpt>
      <trkpt lat="43.70521" lon="5.04291">
        <ele>158</ele>
        <time>2019-09-26T11:27:26Z</time>
      </trkpt>
      <trkpt lat="43.70521" lon="5.04293">
        <ele>158</ele>
        <time>2019-09-26T11:27:29Z</time>
      </trkpt>
      <trkpt lat="43.70521" lon="5.04295">
        <ele>158</ele>
        <time>2019-09-26T11:27:31Z</time>
      </trkpt>
      <trkpt lat="43.70521" lon="5.04297">
        <ele>158</ele>
        <time>2019-09-26T11:27:34Z</time>
      </trkpt>
      <trkpt lat="43.70521" lon="5.043">
        <ele>159</ele>
        <time>2019-09-26T11:27:35Z</time>
      </trkpt>
      <trkpt lat="43.7052" lon="5.04307">
        <ele>159</ele>
        <time>2019-09-26T11:27:37Z</time>
      </trkpt>
      <trkpt lat="43.7052" lon="5.04309">
        <ele>159</ele>
        <time>2019-09-26T11:27:39Z</time>
      </trkpt>
      <trkpt lat="43.7052" lon="5.04311">
        <ele>159</ele>
        <time>2019-09-26T11:27:42Z</time>
      </trkpt>
      <trkpt lat="43.70519" lon="5.04314">
        <ele>159</ele>
        <time>2019-09-26T11:27:44Z</time>
      </trkpt>
      <trkpt lat="43.70519" lon="5.04316">
        <ele>160</ele>
        <time>2019-09-26T11:27:45Z</time>
      </trkpt>
      <trkpt lat="43.70518" lon="5.0432">
        <ele>160</ele>
        <time>2019-09-26T11:27:46Z</time>
      </trkpt>
      <trkpt lat="43.70518" lon="5.04322">
        <ele>160</ele>
        <time>2019-09-26T11:27:48Z</time>
      </trkpt>
      <trkpt lat="43.70518" lon="5.04325">
        <ele>160</ele>
        <time>2019-09-26T11:27:50Z</time>
      </trkpt>
      <trkpt lat="43.70517" lon="5.04327">
        <ele>160</ele>
        <time>2019-09-26T11:27:52Z</time>
      </trkpt>
      <trkpt lat="43.70517" lon="5.0433">
        <ele>160</ele>
        <time>2019-09-26T11:27:55Z</time>
      </trkpt>
      <trkpt lat="43.70516" lon="5.04332">
        <ele>160</ele>
        <time>2019-09-26T11:27:56Z</time>
      </trkpt>
      <trkpt lat="43.70516" lon="5.04336">
        <ele>160</ele>
        <time>2019-09-26T11:27:57Z</time>
      </trkpt>
      <trkpt lat="43.70516" lon="5.04338">
        <ele>160</ele>
        <time>2019-09-26T11:27:59Z</time>
      </trkpt>
      <trkpt lat="43.70516" lon="5.0434">
        <ele>160</ele>
        <time>2019-09-26T11:28:02Z</time>
      </trkpt>
      <trkpt lat="43.70516" lon="5.04341">
        <ele>160</ele>
        <time>2019-09-26T11:28:04Z</time>
      </trkpt>
      <trkpt lat="43.70516" lon="5.04343">
        <ele>162</ele>
        <time>2019-09-26T11:28:05Z</time>
      </trkpt>
      <trkpt lat="43.70515" lon="5.04349">
        <ele>162</ele>
        <time>2019-09-26T11:28:07Z</time>
      </trkpt>
      <trkpt lat="43.70515" lon="5.04351">
        <ele>162</ele>
        <time>2019-09-26T11:28:09Z</time>
      </trkpt>
      <trkpt lat="43.70514" lon="5.04354">
        <ele>162</ele>
        <time>2019-09-26T11:28:11Z</time>
      </trkpt>
      <trkpt lat="43.70514" lon="5.04356">
        <ele>162</ele>
        <time>2019-09-26T11:28:14Z</time>
      </trkpt>
      <trkpt lat="43.70513" lon="5.04358">
        <ele>162</ele>
        <time>2019-09-26T11:28:15Z</time>
      </trkpt>
      <trkpt lat="43.70513" lon="5.04359">
        <ele>162</ele>
        <time>2019-09-26T11:28:16Z</time>
      </trkpt>
      <trkpt lat="43.70513" lon="5.04362">
        <ele>162</ele>
        <time>2019-09-26T11:28:19Z</time>
      </trkpt>
      <trkpt lat="43.70512" lon="5.04365">
        <ele>162</ele>
        <time>2019-09-26T11:28:21Z</time>
      </trkpt>
      <trkpt lat="43.7051" lon="5.04368">
        <ele>162</ele>
        <time>2019-09-26T11:28:23Z</time>
      </trkpt>
      <trkpt lat="43.7051" lon="5.04368">
        <ele>163</ele>
        <time>2019-09-26T11:28:25Z</time>
      </trkpt>
      <trkpt lat="43.70508" lon="5.04373">
        <ele>163</ele>
        <time>2019-09-26T11:28:27Z</time>
      </trkpt>
      <trkpt lat="43.70507" lon="5.04375">
        <ele>163</ele>
        <time>2019-09-26T11:28:29Z</time>
      </trkpt>
      <trkpt lat="43.70506" lon="5.04377">
        <ele>163</ele>
        <time>2019-09-26T11:28:32Z</time>
      </trkpt>
      <trkpt lat="43.70505" lon="5.0438">
        <ele>163</ele>
        <time>2019-09-26T11:28:34Z</time>
      </trkpt>
      <trkpt lat="43.70504" lon="5.04382">
        <ele>165</ele>
        <time>2019-09-26T11:28:35Z</time>
      </trkpt>
      <trkpt lat="43.70503" lon="5.04383">
        <ele>165</ele>
        <time>2019-09-26T11:28:37Z</time>
      </trkpt>
      <trkpt lat="43.70502" lon="5.04387">
        <ele>165</ele>
        <time>2019-09-26T11:28:39Z</time>
      </trkpt>
      <trkpt lat="43.70501" lon="5.04389">
        <ele>165</ele>
        <time>2019-09-26T11:28:40Z</time>
      </trkpt>
      <trkpt lat="43.705" lon="5.04392">
        <ele>165</ele>
        <time>2019-09-26T11:28:42Z</time>
      </trkpt>
      <trkpt lat="43.705" lon="5.04392">
        <ele>167</ele>
        <time>2019-09-26T11:28:45Z</time>
      </trkpt>
      <trkpt lat="43.70499" lon="5.04397">
        <ele>167</ele>
        <time>2019-09-26T11:28:46Z</time>
      </trkpt>
      <trkpt lat="43.70499" lon="5.04399">
        <ele>167</ele>
        <time>2019-09-26T11:28:47Z</time>
      </trkpt>
      <trkpt lat="43.70498" lon="5.04401">
        <ele>167</ele>
        <time>2019-09-26T11:28:49Z</time>
      </trkpt>
      <trkpt lat="43.70497" lon="5.04403">
        <ele>167</ele>
        <time>2019-09-26T11:28:52Z</time>
      </trkpt>
      <trkpt lat="43.70497" lon="5.04405">
        <ele>167</ele>
        <time>2019-09-26T11:28:53Z</time>
      </trkpt>
      <trkpt lat="43.70496" lon="5.04406">
        <ele>167</ele>
        <time>2019-09-26T11:28:54Z</time>
      </trkpt>
      <trkpt lat="43.70496" lon="5.04408">
        <ele>167</ele>
        <time>2019-09-26T11:28:55Z</time>
      </trkpt>
      <trkpt lat="43.70495" lon="5.0441">
        <ele>167</ele>
        <time>2019-09-26T11:28:57Z</time>
      </trkpt>
      <trkpt lat="43.70495" lon="5.04415">
        <ele>167</ele>
        <time>2019-09-26T11:29:00Z</time>
      </trkpt>
      <trkpt lat="43.70494" lon="5.04417">
        <ele>167</ele>
        <time>2019-09-26T11:29:01Z</time>
      </trkpt>
      <trkpt lat="43.70493" lon="5.0442">
        <ele>167</ele>
        <time>2019-09-26T11:29:03Z</time>
      </trkpt>
      <trkpt lat="43.70493" lon="5.0442">
        <ele>167</ele>
        <time>2019-09-26T11:29:05Z</time>
      </trkpt>
      <trkpt lat="43.70492" lon="5.04424">
        <ele>167</ele>
        <time>2019-09-26T11:29:06Z</time>
      </trkpt>
      <trkpt lat="43.70492" lon="5.04426">
        <ele>167</ele>
        <time>2019-09-26T11:29:08Z</time>
      </trkpt>
      <trkpt lat="43.70492" lon="5.04428">
        <ele>167</ele>
        <time>2019-09-26T11:29:10Z</time>
      </trkpt>
      <trkpt lat="43.70491" lon="5.0443">
        <ele>167</ele>
        <time>2019-09-26T11:29:14Z</time>
      </trkpt>
      <trkpt lat="43.70491" lon="5.04432">
        <ele>168</ele>
        <time>2019-09-26T11:29:15Z</time>
      </trkpt>
      <trkpt lat="43.7049" lon="5.04435">
        <ele>168</ele>
        <time>2019-09-26T11:29:16Z</time>
      </trkpt>
      <trkpt lat="43.70489" lon="5.04438">
        <ele>168</ele>
        <time>2019-09-26T11:29:19Z</time>
      </trkpt>
      <trkpt lat="43.70488" lon="5.04442">
        <ele>168</ele>
        <time>2019-09-26T11:29:21Z</time>
      </trkpt>
      <trkpt lat="43.70487" lon="5.04445">
        <ele>168</ele>
        <time>2019-09-26T11:29:23Z</time>
      </trkpt>
      <trkpt lat="43.70487" lon="5.04445">
        <ele>170</ele>
        <time>2019-09-26T11:29:25Z</time>
      </trkpt>
      <trkpt lat="43.70485" lon="5.0445">
        <ele>170</ele>
        <time>2019-09-26T11:29:26Z</time>
      </trkpt>
      <trkpt lat="43.70484" lon="5.04452">
        <ele>170</ele>
        <time>2019-09-26T11:29:27Z</time>
      </trkpt>
      <trkpt lat="43.70483" lon="5.04454">
        <ele>170</ele>
        <time>2019-09-26T11:29:29Z</time>
      </trkpt>
      <trkpt lat="43.70482" lon="5.04457">
        <ele>170</ele>
        <time>2019-09-26T11:29:32Z</time>
      </trkpt>
      <trkpt lat="43.70481" lon="5.04459">
        <ele>170</ele>
        <time>2019-09-26T11:29:34Z</time>
      </trkpt>
      <trkpt lat="43.7048" lon="5.04461">
        <ele>170</ele>
        <time>2019-09-26T11:29:35Z</time>
      </trkpt>
      <trkpt lat="43.70479" lon="5.04462">
        <ele>170</ele>
        <time>2019-09-26T11:29:36Z</time>
      </trkpt>
      <trkpt lat="43.70477" lon="5.04465">
        <ele>170</ele>
        <time>2019-09-26T11:29:39Z</time>
      </trkpt>
      <trkpt lat="43.70476" lon="5.04467">
        <ele>170</ele>
        <time>2019-09-26T11:29:40Z</time>
      </trkpt>
      <trkpt lat="43.70475" lon="5.04469">
        <ele>170</ele>
        <time>2019-09-26T11:29:42Z</time>
      </trkpt>
      <trkpt lat="43.70474" lon="5.04473">
        <ele>170</ele>
        <time>2019-09-26T11:29:45Z</time>
      </trkpt>
      <trkpt lat="43.70472" lon="5.04478">
        <ele>170</ele>
        <time>2019-09-26T11:29:47Z</time>
      </trkpt>
      <trkpt lat="43.70472" lon="5.0448">
        <ele>170</ele>
        <time>2019-09-26T11:29:49Z</time>
      </trkpt>
      <trkpt lat="43.70471" lon="5.04482">
        <ele>170</ele>
        <time>2019-09-26T11:29:52Z</time>
      </trkpt>
      <trkpt lat="43.70471" lon="5.04484">
        <ele>170</ele>
        <time>2019-09-26T11:29:54Z</time>
      </trkpt>
      <trkpt lat="43.7047" lon="5.04486">
        <ele>171</ele>
        <time>2019-09-26T11:29:55Z</time>
      </trkpt>
      <trkpt lat="43.7047" lon="5.04487">
        <ele>171</ele>
        <time>2019-09-26T11:29:56Z</time>
      </trkpt>
      <trkpt lat="43.70469" lon="5.0449">
        <ele>171</ele>
        <time>2019-09-26T11:29:59Z</time>
      </trkpt>
      <trkpt lat="43.70468" lon="5.04494">
        <ele>171</ele>
        <time>2019-09-26T11:30:01Z</time>
      </trkpt>
      <trkpt lat="43.70468" lon="5.04497">
        <ele>171</ele>
        <time>2019-09-26T11:30:03Z</time>
      </trkpt>
      <trkpt lat="43.70468" lon="5.04497">
        <ele>172</ele>
        <time>2019-09-26T11:30:05Z</time>
      </trkpt>
      <trkpt lat="43.70467" lon="5.04503">
        <ele>172</ele>
        <time>2019-09-26T11:30:06Z</time>
      </trkpt>
      <trkpt lat="43.70467" lon="5.04504">
        <ele>172</ele>
        <time>2019-09-26T11:30:08Z</time>
      </trkpt>
      <trkpt lat="43.70467" lon="5.04506">
        <ele>172</ele>
        <time>2019-09-26T11:30:11Z</time>
      </trkpt>
      <trkpt lat="43.70467" lon="5.04507">
        <ele>172</ele>
        <time>2019-09-26T11:30:14Z</time>
      </trkpt>
      <trkpt lat="43.70467" lon="5.04509">
        <ele>174</ele>
        <time>2019-09-26T11:30:15Z</time>
      </trkpt>
      <trkpt lat="43.70468" lon="5.04511">
        <ele>174</ele>
        <time>2019-09-26T11:30:17Z</time>
      </trkpt>
      <trkpt lat="43.7047" lon="5.04511">
        <ele>175</ele>
        <time>2019-09-26T11:30:25Z</time>
      </trkpt>
      <trkpt lat="43.70471" lon="5.0451">
        <ele>175</ele>
        <time>2019-09-26T11:30:27Z</time>
      </trkpt>
      <trkpt lat="43.70473" lon="5.0451">
        <ele>175</ele>
        <time>2019-09-26T11:30:28Z</time>
      </trkpt>
      <trkpt lat="43.70475" lon="5.04509">
        <ele>175</ele>
        <time>2019-09-26T11:30:37Z</time>
      </trkpt>
      <trkpt lat="43.70476" lon="5.04509">
        <ele>175</ele>
        <time>2019-09-26T11:30:39Z</time>
      </trkpt>
      <trkpt lat="43.70478" lon="5.04508">
        <ele>174</ele>
        <time>2019-09-26T11:30:46Z</time>
      </trkpt>
      <trkpt lat="43.7048" lon="5.04508">
        <ele>174</ele>
        <time>2019-09-26T11:30:48Z</time>
      </trkpt>
      <trkpt lat="43.70481" lon="5.04507">
        <ele>174</ele>
        <time>2019-09-26T11:30:53Z</time>
      </trkpt>
      <trkpt lat="43.70483" lon="5.04506">
        <ele>174</ele>
        <time>2019-09-26T11:30:54Z</time>
      </trkpt>
      <trkpt lat="43.70485" lon="5.04506">
        <ele>174</ele>
        <time>2019-09-26T11:30:55Z</time>
      </trkpt>
      <trkpt lat="43.70487" lon="5.04505">
        <ele>174</ele>
        <time>2019-09-26T11:30:57Z</time>
      </trkpt>
      <trkpt lat="43.70488" lon="5.04505">
        <ele>174</ele>
        <time>2019-09-26T11:30:59Z</time>
      </trkpt>
      <trkpt lat="43.7049" lon="5.04504">
        <ele>174</ele>
        <time>2019-09-26T11:31:01Z</time>
      </trkpt>
      <trkpt lat="43.70492" lon="5.04504">
        <ele>174</ele>
        <time>2019-09-26T11:31:02Z</time>
      </trkpt>
      <trkpt lat="43.70494" lon="5.04504">
        <ele>174</ele>
        <time>2019-09-26T11:31:03Z</time>
      </trkpt>
      <trkpt lat="43.70496" lon="5.04504">
        <ele>174</ele>
        <time>2019-09-26T11:31:05Z</time>
      </trkpt>
      <trkpt lat="43.70498" lon="5.04505">
        <ele>174</ele>
        <time>2019-09-26T11:31:10Z</time>
      </trkpt>
      <trkpt lat="43.70498" lon="5.04505">
        <ele>175</ele>
        <time>2019-09-26T11:31:12Z</time>
      </trkpt>
      <trkpt lat="43.70499" lon="5.04508">
        <ele>175</ele>
        <time>2019-09-26T11:31:14Z</time>
      </trkpt>
      <trkpt lat="43.70499" lon="5.04508">
        <ele>175</ele>
        <time>2019-09-26T11:31:22Z</time>
      </trkpt>
      <trkpt lat="43.70498" lon="5.04509">
        <ele>175</ele>
        <time>2019-09-26T11:31:23Z</time>
      </trkpt>
      <trkpt lat="43.705" lon="5.0452">
        <ele>174</ele>
        <time>2019-09-26T11:31:33Z</time>
      </trkpt>
      <trkpt lat="43.705" lon="5.04522">
        <ele>174</ele>
        <time>2019-09-26T11:31:35Z</time>
      </trkpt>
      <trkpt lat="43.705" lon="5.04525">
        <ele>174</ele>
        <time>2019-09-26T11:31:37Z</time>
      </trkpt>
      <trkpt lat="43.705" lon="5.04528">
        <ele>174</ele>
        <time>2019-09-26T11:31:40Z</time>
      </trkpt>
      <trkpt lat="43.705" lon="5.04528">
        <ele>174</ele>
        <time>2019-09-26T11:31:42Z</time>
      </trkpt>
      <trkpt lat="43.705" lon="5.04531">
        <ele>175</ele>
        <time>2019-09-26T11:31:51Z</time>
      </trkpt>
      <trkpt lat="43.70501" lon="5.04535">
        <ele>175</ele>
        <time>2019-09-26T11:31:52Z</time>
      </trkpt>
      <trkpt lat="43.70501" lon="5.04538">
        <ele>174</ele>
        <time>2019-09-26T11:35:57Z</time>
      </trkpt>
      <trkpt lat="43.70502" lon="5.04541">
        <ele>174</ele>
        <time>2019-09-26T11:35:59Z</time>
      </trkpt>
      <trkpt lat="43.70502" lon="5.04545">
        <ele>174</ele>
        <time>2019-09-26T11:36:01Z</time>
      </trkpt>
      <trkpt lat="43.70503" lon="5.04548">
        <ele>174</ele>
        <time>2019-09-26T11:36:03Z</time>
      </trkpt>
      <trkpt lat="43.70503" lon="5.04551">
        <ele>174</ele>
        <time>2019-09-26T11:36:05Z</time>
      </trkpt>
      <trkpt lat="43.70504" lon="5.04554">
        <ele>175</ele>
        <time>2019-09-26T11:36:06Z</time>
      </trkpt>
      <trkpt lat="43.70503" lon="5.04557">
        <ele>175</ele>
        <time>2019-09-26T11:36:07Z</time>
      </trkpt>
      <trkpt lat="43.70502" lon="5.0456">
        <ele>175</ele>
        <time>2019-09-26T11:36:09Z</time>
      </trkpt>
      <trkpt lat="43.70501" lon="5.04563">
        <ele>175</ele>
        <time>2019-09-26T11:36:11Z</time>
      </trkpt>
      <trkpt lat="43.705" lon="5.04566">
        <ele>175</ele>
        <time>2019-09-26T11:36:13Z</time>
      </trkpt>
      <trkpt lat="43.70499" lon="5.04568">
        <ele>175</ele>
        <time>2019-09-26T11:36:15Z</time>
      </trkpt>
      <trkpt lat="43.70498" lon="5.04571">
        <ele>176</ele>
        <time>2019-09-26T11:36:17Z</time>
      </trkpt>
      <trkpt lat="43.70497" lon="5.04575">
        <ele>176</ele>
        <time>2019-09-26T11:36:19Z</time>
      </trkpt>
      <trkpt lat="43.70497" lon="5.04577">
        <ele>176</ele>
        <time>2019-09-26T11:36:21Z</time>
      </trkpt>
      <trkpt lat="43.70496" lon="5.04578">
        <ele>176</ele>
        <time>2019-09-26T11:36:23Z</time>
      </trkpt>
      <trkpt lat="43.70496" lon="5.0458">
        <ele>176</ele>
        <time>2019-09-26T11:36:25Z</time>
      </trkpt>
      <trkpt lat="43.70495" lon="5.04581">
        <ele>177</ele>
        <time>2019-09-26T11:36:26Z</time>
      </trkpt>
      <trkpt lat="43.70494" lon="5.04585">
        <ele>177</ele>
        <time>2019-09-26T11:36:27Z</time>
      </trkpt>
      <trkpt lat="43.70493" lon="5.04587">
        <ele>177</ele>
        <time>2019-09-26T11:36:29Z</time>
      </trkpt>
      <trkpt lat="43.70492" lon="5.04588">
        <ele>177</ele>
        <time>2019-09-26T11:36:31Z</time>
      </trkpt>
      <trkpt lat="43.70491" lon="5.04589">
        <ele>177</ele>
        <time>2019-09-26T11:36:33Z</time>
      </trkpt>
      <trkpt lat="43.7049" lon="5.04591">
        <ele>177</ele>
        <time>2019-09-26T11:36:35Z</time>
      </trkpt>
      <trkpt lat="43.70489" lon="5.04592">
        <ele>178</ele>
        <time>2019-09-26T11:36:36Z</time>
      </trkpt>
      <trkpt lat="43.70487" lon="5.04596">
        <ele>178</ele>
        <time>2019-09-26T11:36:37Z</time>
      </trkpt>
      <trkpt lat="43.70486" lon="5.04597">
        <ele>178</ele>
        <time>2019-09-26T11:36:39Z</time>
      </trkpt>
      <trkpt lat="43.70485" lon="5.04599">
        <ele>178</ele>
        <time>2019-09-26T11:36:41Z</time>
      </trkpt>
      <trkpt lat="43.70484" lon="5.046">
        <ele>178</ele>
        <time>2019-09-26T11:36:43Z</time>
      </trkpt>
      <trkpt lat="43.70483" lon="5.04602">
        <ele>178</ele>
        <time>2019-09-26T11:36:45Z</time>
      </trkpt>
      <trkpt lat="43.70482" lon="5.04604">
        <ele>178</ele>
        <time>2019-09-26T11:36:46Z</time>
      </trkpt>
      <trkpt lat="43.70482" lon="5.04605">
        <ele>178</ele>
        <time>2019-09-26T11:36:47Z</time>
      </trkpt>
      <trkpt lat="43.7048" lon="5.04607">
        <ele>178</ele>
        <time>2019-09-26T11:36:49Z</time>
      </trkpt>
      <trkpt lat="43.70479" lon="5.0461">
        <ele>178</ele>
        <time>2019-09-26T11:36:51Z</time>
      </trkpt>
      <trkpt lat="43.70478" lon="5.04613">
        <ele>178</ele>
        <time>2019-09-26T11:36:54Z</time>
      </trkpt>
      <trkpt lat="43.70477" lon="5.04615">
        <ele>178</ele>
        <time>2019-09-26T11:36:56Z</time>
      </trkpt>
      <trkpt lat="43.70475" lon="5.04619">
        <ele>178</ele>
        <time>2019-09-26T11:36:59Z</time>
      </trkpt>
      <trkpt lat="43.70475" lon="5.04621">
        <ele>178</ele>
        <time>2019-09-26T11:37:01Z</time>
      </trkpt>
      <trkpt lat="43.70474" lon="5.04622">
        <ele>178</ele>
        <time>2019-09-26T11:37:03Z</time>
      </trkpt>
      <trkpt lat="43.70473" lon="5.04624">
        <ele>178</ele>
        <time>2019-09-26T11:37:05Z</time>
      </trkpt>
      <trkpt lat="43.70473" lon="5.04625">
        <ele>178</ele>
        <time>2019-09-26T11:37:06Z</time>
      </trkpt>
      <trkpt lat="43.70471" lon="5.04629">
        <ele>178</ele>
        <time>2019-09-26T11:37:07Z</time>
      </trkpt>
      <trkpt lat="43.70471" lon="5.04631">
        <ele>178</ele>
        <time>2019-09-26T11:37:09Z</time>
      </trkpt>
      <trkpt lat="43.7047" lon="5.04632">
        <ele>178</ele>
        <time>2019-09-26T11:37:11Z</time>
      </trkpt>
      <trkpt lat="43.7047" lon="5.04634">
        <ele>178</ele>
        <time>2019-09-26T11:37:13Z</time>
      </trkpt>
      <trkpt lat="43.70469" lon="5.04636">
        <ele>178</ele>
        <time>2019-09-26T11:37:15Z</time>
      </trkpt>
      <trkpt lat="43.70469" lon="5.04637">
        <ele>180</ele>
        <time>2019-09-26T11:37:16Z</time>
      </trkpt>
      <trkpt lat="43.70468" lon="5.0464">
        <ele>180</ele>
        <time>2019-09-26T11:37:17Z</time>
      </trkpt>
      <trkpt lat="43.70467" lon="5.04642">
        <ele>180</ele>
        <time>2019-09-26T11:37:19Z</time>
      </trkpt>
      <trkpt lat="43.70466" lon="5.04645">
        <ele>180</ele>
        <time>2019-09-26T11:37:22Z</time>
      </trkpt>
      <trkpt lat="43.70465" lon="5.04648">
        <ele>180</ele>
        <time>2019-09-26T11:37:24Z</time>
      </trkpt>
      <trkpt lat="43.70464" lon="5.04651">
        <ele>181</ele>
        <time>2019-09-26T11:37:26Z</time>
      </trkpt>
      <trkpt lat="43.70463" lon="5.04655">
        <ele>181</ele>
        <time>2019-09-26T11:37:28Z</time>
      </trkpt>
      <trkpt lat="43.70462" lon="5.04657">
        <ele>181</ele>
        <time>2019-09-26T11:37:31Z</time>
      </trkpt>
      <trkpt lat="43.70462" lon="5.04659">
        <ele>181</ele>
        <time>2019-09-26T11:37:33Z</time>
      </trkpt>
      <trkpt lat="43.70462" lon="5.0466">
        <ele>181</ele>
        <time>2019-09-26T11:37:35Z</time>
      </trkpt>
      <trkpt lat="43.70461" lon="5.04662">
        <ele>182</ele>
        <time>2019-09-26T11:37:36Z</time>
      </trkpt>
      <trkpt lat="43.7046" lon="5.04667">
        <ele>182</ele>
        <time>2019-09-26T11:37:38Z</time>
      </trkpt>
      <trkpt lat="43.7046" lon="5.04669">
        <ele>182</ele>
        <time>2019-09-26T11:37:40Z</time>
      </trkpt>
      <trkpt lat="43.7046" lon="5.0467">
        <ele>182</ele>
        <time>2019-09-26T11:37:43Z</time>
      </trkpt>
      <trkpt lat="43.70459" lon="5.04672">
        <ele>182</ele>
        <time>2019-09-26T11:37:45Z</time>
      </trkpt>
      <trkpt lat="43.70459" lon="5.04674">
        <ele>182</ele>
        <time>2019-09-26T11:37:46Z</time>
      </trkpt>
      <trkpt lat="43.70459" lon="5.04676">
        <ele>182</ele>
        <time>2019-09-26T11:37:47Z</time>
      </trkpt>
      <trkpt lat="43.70458" lon="5.04679">
        <ele>182</ele>
        <time>2019-09-26T11:37:50Z</time>
      </trkpt>
      <trkpt lat="43.70457" lon="5.04682">
        <ele>182</ele>
        <time>2019-09-26T11:37:52Z</time>
      </trkpt>
      <trkpt lat="43.70457" lon="5.04685">
        <ele>182</ele>
        <time>2019-09-26T11:37:54Z</time>
      </trkpt>
      <trkpt lat="43.70456" lon="5.04687">
        <ele>183</ele>
        <time>2019-09-26T11:37:56Z</time>
      </trkpt>
      <trkpt lat="43.70455" lon="5.04692">
        <ele>183</ele>
        <time>2019-09-26T11:37:58Z</time>
      </trkpt>
      <trkpt lat="43.70455" lon="5.04694">
        <ele>183</ele>
        <time>2019-09-26T11:38:00Z</time>
      </trkpt>
      <trkpt lat="43.70455" lon="5.04696">
        <ele>183</ele>
        <time>2019-09-26T11:38:03Z</time>
      </trkpt>
      <trkpt lat="43.70454" lon="5.04697">
        <ele>183</ele>
        <time>2019-09-26T11:38:05Z</time>
      </trkpt>
      <trkpt lat="43.70454" lon="5.04699">
        <ele>184</ele>
        <time>2019-09-26T11:38:06Z</time>
      </trkpt>
      <trkpt lat="43.70453" lon="5.04704">
        <ele>184</ele>
        <time>2019-09-26T11:38:07Z</time>
      </trkpt>
      <trkpt lat="43.70452" lon="5.04706">
        <ele>184</ele>
        <time>2019-09-26T11:38:09Z</time>
      </trkpt>
      <trkpt lat="43.70451" lon="5.04708">
        <ele>184</ele>
        <time>2019-09-26T11:38:11Z</time>
      </trkpt>
      <trkpt lat="43.70451" lon="5.0471">
        <ele>184</ele>
        <time>2019-09-26T11:38:13Z</time>
      </trkpt>
      <trkpt lat="43.7045" lon="5.04712">
        <ele>184</ele>
        <time>2019-09-26T11:38:15Z</time>
      </trkpt>
      <trkpt lat="43.70449" lon="5.04714">
        <ele>184</ele>
        <time>2019-09-26T11:38:16Z</time>
      </trkpt>
      <trkpt lat="43.70448" lon="5.04717">
        <ele>184</ele>
        <time>2019-09-26T11:38:17Z</time>
      </trkpt>
      <trkpt lat="43.70447" lon="5.04718">
        <ele>184</ele>
        <time>2019-09-26T11:38:19Z</time>
      </trkpt>
      <trkpt lat="43.70447" lon="5.0472">
        <ele>184</ele>
        <time>2019-09-26T11:38:21Z</time>
      </trkpt>
      <trkpt lat="43.70446" lon="5.04722">
        <ele>184</ele>
        <time>2019-09-26T11:38:23Z</time>
      </trkpt>
      <trkpt lat="43.70445" lon="5.04723">
        <ele>184</ele>
        <time>2019-09-26T11:38:25Z</time>
      </trkpt>
      <trkpt lat="43.70445" lon="5.04725">
        <ele>187</ele>
        <time>2019-09-26T11:38:26Z</time>
      </trkpt>
      <trkpt lat="43.70444" lon="5.04727">
        <ele>187</ele>
        <time>2019-09-26T11:38:27Z</time>
      </trkpt>
      <trkpt lat="43.70443" lon="5.0473">
        <ele>187</ele>
        <time>2019-09-26T11:38:29Z</time>
      </trkpt>
      <trkpt lat="43.70441" lon="5.04733">
        <ele>187</ele>
        <time>2019-09-26T11:38:32Z</time>
      </trkpt>
      <trkpt lat="43.7044" lon="5.04736">
        <ele>187</ele>
        <time>2019-09-26T11:38:34Z</time>
      </trkpt>
      <trkpt lat="43.70439" lon="5.04739">
        <ele>186</ele>
        <time>2019-09-26T11:38:36Z</time>
      </trkpt>
      <trkpt lat="43.70438" lon="5.04741">
        <ele>186</ele>
        <time>2019-09-26T11:38:38Z</time>
      </trkpt>
      <trkpt lat="43.70437" lon="5.04744">
        <ele>186</ele>
        <time>2019-09-26T11:38:40Z</time>
      </trkpt>
      <trkpt lat="43.70436" lon="5.04747">
        <ele>186</ele>
        <time>2019-09-26T11:38:42Z</time>
      </trkpt>
      <trkpt lat="43.70435" lon="5.04749">
        <ele>186</ele>
        <time>2019-09-26T11:38:44Z</time>
      </trkpt>
      <trkpt lat="43.70433" lon="5.04751">
        <ele>187</ele>
        <time>2019-09-26T11:38:46Z</time>
      </trkpt>
      <trkpt lat="43.70432" lon="5.04755">
        <ele>187</ele>
        <time>2019-09-26T11:38:48Z</time>
      </trkpt>
      <trkpt lat="43.70431" lon="5.04757">
        <ele>187</ele>
        <time>2019-09-26T11:38:50Z</time>
      </trkpt>
      <trkpt lat="43.7043" lon="5.04758">
        <ele>187</ele>
        <time>2019-09-26T11:38:53Z</time>
      </trkpt>
      <trkpt lat="43.7043" lon="5.0476">
        <ele>187</ele>
        <time>2019-09-26T11:38:55Z</time>
      </trkpt>
      <trkpt lat="43.70429" lon="5.04761">
        <ele>188</ele>
        <time>2019-09-26T11:38:56Z</time>
      </trkpt>
      <trkpt lat="43.70428" lon="5.04764">
        <ele>188</ele>
        <time>2019-09-26T11:38:58Z</time>
      </trkpt>
      <trkpt lat="43.70427" lon="5.04766">
        <ele>188</ele>
        <time>2019-09-26T11:39:00Z</time>
      </trkpt>
      <trkpt lat="43.70425" lon="5.04768">
        <ele>188</ele>
        <time>2019-09-26T11:39:02Z</time>
      </trkpt>
      <trkpt lat="43.70424" lon="5.0477">
        <ele>188</ele>
        <time>2019-09-26T11:39:04Z</time>
      </trkpt>
      <trkpt lat="43.70422" lon="5.04772">
        <ele>189</ele>
        <time>2019-09-26T11:39:06Z</time>
      </trkpt>
      <trkpt lat="43.70421" lon="5.04774">
        <ele>189</ele>
        <time>2019-09-26T11:39:08Z</time>
      </trkpt>
      <trkpt lat="43.7042" lon="5.04777">
        <ele>189</ele>
        <time>2019-09-26T11:39:10Z</time>
      </trkpt>
      <trkpt lat="43.70419" lon="5.0478">
        <ele>189</ele>
        <time>2019-09-26T11:39:12Z</time>
      </trkpt>
      <trkpt lat="43.70419" lon="5.04783">
        <ele>189</ele>
        <time>2019-09-26T11:39:14Z</time>
      </trkpt>
      <trkpt lat="43.70418" lon="5.04786">
        <ele>191</ele>
        <time>2019-09-26T11:39:16Z</time>
      </trkpt>
      <trkpt lat="43.70416" lon="5.0479">
        <ele>191</ele>
        <time>2019-09-26T11:39:18Z</time>
      </trkpt>
      <trkpt lat="43.70416" lon="5.04792">
        <ele>191</ele>
        <time>2019-09-26T11:39:20Z</time>
      </trkpt>
      <trkpt lat="43.70415" lon="5.04793">
        <ele>191</ele>
        <time>2019-09-26T11:39:23Z</time>
      </trkpt>
      <trkpt lat="43.70415" lon="5.04795">
        <ele>191</ele>
        <time>2019-09-26T11:39:25Z</time>
      </trkpt>
      <trkpt lat="43.70414" lon="5.04796">
        <ele>192</ele>
        <time>2019-09-26T11:39:26Z</time>
      </trkpt>
      <trkpt lat="43.70413" lon="5.04802">
        <ele>192</ele>
        <time>2019-09-26T11:39:28Z</time>
      </trkpt>
      <trkpt lat="43.70413" lon="5.04804">
        <ele>192</ele>
        <time>2019-09-26T11:39:30Z</time>
      </trkpt>
      <trkpt lat="43.70412" lon="5.04806">
        <ele>192</ele>
        <time>2019-09-26T11:39:32Z</time>
      </trkpt>
      <trkpt lat="43.70412" lon="5.04807">
        <ele>192</ele>
        <time>2019-09-26T11:39:35Z</time>
      </trkpt>
      <trkpt lat="43.70412" lon="5.04809">
        <ele>193</ele>
        <time>2019-09-26T11:39:36Z</time>
      </trkpt>
      <trkpt lat="43.70411" lon="5.04815">
        <ele>193</ele>
        <time>2019-09-26T11:39:38Z</time>
      </trkpt>
      <trkpt lat="43.70411" lon="5.04817">
        <ele>193</ele>
        <time>2019-09-26T11:39:41Z</time>
      </trkpt>
      <trkpt lat="43.70411" lon="5.04819">
        <ele>193</ele>
        <time>2019-09-26T11:39:43Z</time>
      </trkpt>
      <trkpt lat="43.70411" lon="5.04821">
        <ele>193</ele>
        <time>2019-09-26T11:39:45Z</time>
      </trkpt>
      <trkpt lat="43.70411" lon="5.04823">
        <ele>194</ele>
        <time>2019-09-26T11:39:46Z</time>
      </trkpt>
      <trkpt lat="43.70412" lon="5.04825">
        <ele>194</ele>
        <time>2019-09-26T11:39:47Z</time>
      </trkpt>
      <trkpt lat="43.70412" lon="5.04829">
        <ele>194</ele>
        <time>2019-09-26T11:39:50Z</time>
      </trkpt>
      <trkpt lat="43.70412" lon="5.04832">
        <ele>194</ele>
        <time>2019-09-26T11:39:52Z</time>
      </trkpt>
      <trkpt lat="43.70412" lon="5.04835">
        <ele>194</ele>
        <time>2019-09-26T11:39:54Z</time>
      </trkpt>
      <trkpt lat="43.70413" lon="5.04838">
        <ele>195</ele>
        <time>2019-09-26T11:39:56Z</time>
      </trkpt>
      <trkpt lat="43.70412" lon="5.04841">
        <ele>195</ele>
        <time>2019-09-26T11:39:58Z</time>
      </trkpt>
      <trkpt lat="43.70412" lon="5.04844">
        <ele>195</ele>
        <time>2019-09-26T11:40:00Z</time>
      </trkpt>
      <trkpt lat="43.70412" lon="5.04847">
        <ele>195</ele>
        <time>2019-09-26T11:40:02Z</time>
      </trkpt>
      <trkpt lat="43.70412" lon="5.04849">
        <ele>195</ele>
        <time>2019-09-26T11:40:04Z</time>
      </trkpt>
      <trkpt lat="43.70411" lon="5.04852">
        <ele>195</ele>
        <time>2019-09-26T11:40:06Z</time>
      </trkpt>
      <trkpt lat="43.70412" lon="5.04856">
        <ele>195</ele>
        <time>2019-09-26T11:40:09Z</time>
      </trkpt>
      <trkpt lat="43.70412" lon="5.04858">
        <ele>195</ele>
        <time>2019-09-26T11:40:11Z</time>
      </trkpt>
      <trkpt lat="43.70412" lon="5.04861">
        <ele>195</ele>
        <time>2019-09-26T11:40:13Z</time>
      </trkpt>
      <trkpt lat="43.70412" lon="5.04865">
        <ele>196</ele>
        <time>2019-09-26T11:40:16Z</time>
      </trkpt>
      <trkpt lat="43.70413" lon="5.04867">
        <ele>196</ele>
        <time>2019-09-26T11:40:18Z</time>
      </trkpt>
      <trkpt lat="43.70413" lon="5.0487">
        <ele>196</ele>
        <time>2019-09-26T11:40:20Z</time>
      </trkpt>
      <trkpt lat="43.70414" lon="5.04873">
        <ele>196</ele>
        <time>2019-09-26T11:40:22Z</time>
      </trkpt>
      <trkpt lat="43.70414" lon="5.04875">
        <ele>196</ele>
        <time>2019-09-26T11:40:24Z</time>
      </trkpt>
      <trkpt lat="43.70414" lon="5.04879">
        <ele>197</ele>
        <time>2019-09-26T11:40:26Z</time>
      </trkpt>
      <trkpt lat="43.70414" lon="5.04881">
        <ele>197</ele>
        <time>2019-09-26T11:40:28Z</time>
      </trkpt>
      <trkpt lat="43.70414" lon="5.04884">
        <ele>197</ele>
        <time>2019-09-26T11:40:30Z</time>
      </trkpt>
      <trkpt lat="43.70413" lon="5.04888">
        <ele>197</ele>
        <time>2019-09-26T11:40:32Z</time>
      </trkpt>
      <trkpt lat="43.70413" lon="5.0489">
        <ele>197</ele>
        <time>2019-09-26T11:40:34Z</time>
      </trkpt>
      <trkpt lat="43.70412" lon="5.04893">
        <ele>198</ele>
        <time>2019-09-26T11:40:36Z</time>
      </trkpt>
      <trkpt lat="43.70412" lon="5.04896">
        <ele>198</ele>
        <time>2019-09-26T11:40:38Z</time>
      </trkpt>
      <trkpt lat="43.70412" lon="5.04899">
        <ele>198</ele>
        <time>2019-09-26T11:40:40Z</time>
      </trkpt>
      <trkpt lat="43.70412" lon="5.04902">
        <ele>198</ele>
        <time>2019-09-26T11:40:42Z</time>
      </trkpt>
      <trkpt lat="43.70412" lon="5.04905">
        <ele>198</ele>
        <time>2019-09-26T11:40:44Z</time>
      </trkpt>
      <trkpt lat="43.70412" lon="5.04908">
        <ele>198</ele>
        <time>2019-09-26T11:40:46Z</time>
      </trkpt>
      <trkpt lat="43.70412" lon="5.04912">
        <ele>198</ele>
        <time>2019-09-26T11:40:48Z</time>
      </trkpt>
      <trkpt lat="43.70412" lon="5.04915">
        <ele>198</ele>
        <time>2019-09-26T11:40:50Z</time>
      </trkpt>
      <trkpt lat="43.70412" lon="5.04918">
        <ele>198</ele>
        <time>2019-09-26T11:40:52Z</time>
      </trkpt>
      <trkpt lat="43.70413" lon="5.04921">
        <ele>198</ele>
        <time>2019-09-26T11:40:54Z</time>
      </trkpt>
      <trkpt lat="43.70413" lon="5.04925">
        <ele>198</ele>
        <time>2019-09-26T11:40:56Z</time>
      </trkpt>
      <trkpt lat="43.70414" lon="5.04927">
        <ele>198</ele>
        <time>2019-09-26T11:40:58Z</time>
      </trkpt>
      <trkpt lat="43.70415" lon="5.0493">
        <ele>198</ele>
        <time>2019-09-26T11:41:00Z</time>
      </trkpt>
      <trkpt lat="43.70417" lon="5.04933">
        <ele>198</ele>
        <time>2019-09-26T11:41:02Z</time>
      </trkpt>
      <trkpt lat="43.70418" lon="5.04936">
        <ele>198</ele>
        <time>2019-09-26T11:41:04Z</time>
      </trkpt>
      <trkpt lat="43.70418" lon="5.0494">
        <ele>198</ele>
        <time>2019-09-26T11:41:06Z</time>
      </trkpt>
      <trkpt lat="43.70418" lon="5.04945">
        <ele>198</ele>
        <time>2019-09-26T11:41:08Z</time>
      </trkpt>
      <trkpt lat="43.70418" lon="5.04947">
        <ele>198</ele>
        <time>2019-09-26T11:41:10Z</time>
      </trkpt>
      <trkpt lat="43.70419" lon="5.04949">
        <ele>198</ele>
        <time>2019-09-26T11:41:13Z</time>
      </trkpt>
      <trkpt lat="43.70419" lon="5.04951">
        <ele>198</ele>
        <time>2019-09-26T11:41:15Z</time>
      </trkpt>
      <trkpt lat="43.70419" lon="5.04953">
        <ele>199</ele>
        <time>2019-09-26T11:41:16Z</time>
      </trkpt>
      <trkpt lat="43.7042" lon="5.04958">
        <ele>199</ele>
        <time>2019-09-26T11:41:17Z</time>
      </trkpt>
      <trkpt lat="43.7042" lon="5.04961">
        <ele>199</ele>
        <time>2019-09-26T11:41:19Z</time>
      </trkpt>
      <trkpt lat="43.7042" lon="5.04963">
        <ele>199</ele>
        <time>2019-09-26T11:41:21Z</time>
      </trkpt>
      <trkpt lat="43.7042" lon="5.04966">
        <ele>199</ele>
        <time>2019-09-26T11:41:23Z</time>
      </trkpt>
      <trkpt lat="43.7042" lon="5.04968">
        <ele>199</ele>
        <time>2019-09-26T11:41:25Z</time>
      </trkpt>
      <trkpt lat="43.7042" lon="5.0497">
        <ele>199</ele>
        <time>2019-09-26T11:41:26Z</time>
      </trkpt>
      <trkpt lat="43.7042" lon="5.04975">
        <ele>199</ele>
        <time>2019-09-26T11:41:27Z</time>
      </trkpt>
      <trkpt lat="43.70421" lon="5.04978">
        <ele>199</ele>
        <time>2019-09-26T11:41:29Z</time>
      </trkpt>
      <trkpt lat="43.70421" lon="5.0498">
        <ele>199</ele>
        <time>2019-09-26T11:41:31Z</time>
      </trkpt>
      <trkpt lat="43.70421" lon="5.04983">
        <ele>199</ele>
        <time>2019-09-26T11:41:33Z</time>
      </trkpt>
      <trkpt lat="43.70421" lon="5.04986">
        <ele>199</ele>
        <time>2019-09-26T11:41:35Z</time>
      </trkpt>
      <trkpt lat="43.70421" lon="5.04988">
        <ele>199</ele>
        <time>2019-09-26T11:41:36Z</time>
      </trkpt>
      <trkpt lat="43.70422" lon="5.04992">
        <ele>199</ele>
        <time>2019-09-26T11:41:37Z</time>
      </trkpt>
      <trkpt lat="43.70422" lon="5.04995">
        <ele>199</ele>
        <time>2019-09-26T11:41:39Z</time>
      </trkpt>
      <trkpt lat="43.70423" lon="5.04997">
        <ele>199</ele>
        <time>2019-09-26T11:41:41Z</time>
      </trkpt>
      <trkpt lat="43.70423" lon="5.05">
        <ele>199</ele>
        <time>2019-09-26T11:41:43Z</time>
      </trkpt>
      <trkpt lat="43.70424" lon="5.05002">
        <ele>199</ele>
        <time>2019-09-26T11:41:45Z</time>
      </trkpt>
      <trkpt lat="43.70424" lon="5.05004">
        <ele>199</ele>
        <time>2019-09-26T11:41:46Z</time>
      </trkpt>
      <trkpt lat="43.70425" lon="5.05009">
        <ele>199</ele>
        <time>2019-09-26T11:41:47Z</time>
      </trkpt>
      <trkpt lat="43.70426" lon="5.05011">
        <ele>199</ele>
        <time>2019-09-26T11:41:49Z</time>
      </trkpt>
      <trkpt lat="43.70426" lon="5.05014">
        <ele>199</ele>
        <time>2019-09-26T11:41:51Z</time>
      </trkpt>
      <trkpt lat="43.70427" lon="5.05016">
        <ele>199</ele>
        <time>2019-09-26T11:41:53Z</time>
      </trkpt>
      <trkpt lat="43.70427" lon="5.05019">
        <ele>199</ele>
        <time>2019-09-26T11:41:55Z</time>
      </trkpt>
      <trkpt lat="43.70428" lon="5.05021">
        <ele>198</ele>
        <time>2019-09-26T11:41:56Z</time>
      </trkpt>
      <trkpt lat="43.70428" lon="5.05025">
        <ele>198</ele>
        <time>2019-09-26T11:41:57Z</time>
      </trkpt>
      <trkpt lat="43.70429" lon="5.05027">
        <ele>198</ele>
        <time>2019-09-26T11:41:59Z</time>
      </trkpt>
      <trkpt lat="43.70429" lon="5.05029">
        <ele>198</ele>
        <time>2019-09-26T11:42:01Z</time>
      </trkpt>
      <trkpt lat="43.70429" lon="5.05031">
        <ele>198</ele>
        <time>2019-09-26T11:42:03Z</time>
      </trkpt>
      <trkpt lat="43.7043" lon="5.05033">
        <ele>198</ele>
        <time>2019-09-26T11:42:05Z</time>
      </trkpt>
      <trkpt lat="43.7043" lon="5.05035">
        <ele>199</ele>
        <time>2019-09-26T11:42:06Z</time>
      </trkpt>
      <trkpt lat="43.70431" lon="5.05039">
        <ele>199</ele>
        <time>2019-09-26T11:42:07Z</time>
      </trkpt>
      <trkpt lat="43.70432" lon="5.05041">
        <ele>199</ele>
        <time>2019-09-26T11:42:09Z</time>
      </trkpt>
      <trkpt lat="43.70433" lon="5.05043">
        <ele>199</ele>
        <time>2019-09-26T11:42:11Z</time>
      </trkpt>
      <trkpt lat="43.70434" lon="5.05045">
        <ele>199</ele>
        <time>2019-09-26T11:42:13Z</time>
      </trkpt>
      <trkpt lat="43.70435" lon="5.05047">
        <ele>199</ele>
        <time>2019-09-26T11:42:15Z</time>
      </trkpt>
      <trkpt lat="43.70435" lon="5.05049">
        <ele>200</ele>
        <time>2019-09-26T11:42:16Z</time>
      </trkpt>
      <trkpt lat="43.70436" lon="5.05051">
        <ele>200</ele>
        <time>2019-09-26T11:42:18Z</time>
      </trkpt>
      <trkpt lat="43.70438" lon="5.05053">
        <ele>200</ele>
        <time>2019-09-26T11:42:20Z</time>
      </trkpt>
      <trkpt lat="43.70439" lon="5.05056">
        <ele>200</ele>
        <time>2019-09-26T11:42:22Z</time>
      </trkpt>
      <trkpt lat="43.70441" lon="5.05057">
        <ele>200</ele>
        <time>2019-09-26T11:42:24Z</time>
      </trkpt>
      <trkpt lat="43.70441" lon="5.05057">
        <ele>201</ele>
        <time>2019-09-26T11:42:26Z</time>
      </trkpt>
      <trkpt lat="43.70442" lon="5.0506">
        <ele>201</ele>
        <time>2019-09-26T11:42:27Z</time>
      </trkpt>
      <trkpt lat="43.70444" lon="5.05062">
        <ele>201</ele>
        <time>2019-09-26T11:42:29Z</time>
      </trkpt>
      <trkpt lat="43.70446" lon="5.05063">
        <ele>201</ele>
        <time>2019-09-26T11:42:31Z</time>
      </trkpt>
      <trkpt lat="43.70448" lon="5.05065">
        <ele>201</ele>
        <time>2019-09-26T11:42:34Z</time>
      </trkpt>
      <trkpt lat="43.70448" lon="5.05065">
        <ele>203</ele>
        <time>2019-09-26T11:42:36Z</time>
      </trkpt>
      <trkpt lat="43.7045" lon="5.05066">
        <ele>203</ele>
        <time>2019-09-26T11:42:37Z</time>
      </trkpt>
      <trkpt lat="43.70452" lon="5.05068">
        <ele>203</ele>
        <time>2019-09-26T11:42:39Z</time>
      </trkpt>
      <trkpt lat="43.70454" lon="5.05069">
        <ele>203</ele>
        <time>2019-09-26T11:42:41Z</time>
      </trkpt>
      <trkpt lat="43.70456" lon="5.0507">
        <ele>203</ele>
        <time>2019-09-26T11:42:44Z</time>
      </trkpt>
      <trkpt lat="43.70458" lon="5.05072">
        <ele>205</ele>
        <time>2019-09-26T11:42:46Z</time>
      </trkpt>
      <trkpt lat="43.7046" lon="5.05074">
        <ele>205</ele>
        <time>2019-09-26T11:42:48Z</time>
      </trkpt>
      <trkpt lat="43.70462" lon="5.05075">
        <ele>205</ele>
        <time>2019-09-26T11:42:50Z</time>
      </trkpt>
      <trkpt lat="43.70464" lon="5.05077">
        <ele>205</ele>
        <time>2019-09-26T11:42:52Z</time>
      </trkpt>
      <trkpt lat="43.70465" lon="5.0508">
        <ele>205</ele>
        <time>2019-09-26T11:42:54Z</time>
      </trkpt>
      <trkpt lat="43.70467" lon="5.05082">
        <ele>206</ele>
        <time>2019-09-26T11:42:56Z</time>
      </trkpt>
      <trkpt lat="43.70469" lon="5.05085">
        <ele>206</ele>
        <time>2019-09-26T11:42:58Z</time>
      </trkpt>
      <trkpt lat="43.70469" lon="5.05086">
        <ele>206</ele>
        <time>2019-09-26T11:43:00Z</time>
      </trkpt>
      <trkpt lat="43.7047" lon="5.05088">
        <ele>206</ele>
        <time>2019-09-26T11:43:02Z</time>
      </trkpt>
      <trkpt lat="43.70471" lon="5.05089">
        <ele>206</ele>
        <time>2019-09-26T11:43:05Z</time>
      </trkpt>
      <trkpt lat="43.70472" lon="5.0509">
        <ele>207</ele>
        <time>2019-09-26T11:43:06Z</time>
      </trkpt>
      <trkpt lat="43.70474" lon="5.05095">
        <ele>207</ele>
        <time>2019-09-26T11:43:07Z</time>
      </trkpt>
      <trkpt lat="43.70475" lon="5.05097">
        <ele>207</ele>
        <time>2019-09-26T11:43:09Z</time>
      </trkpt>
      <trkpt lat="43.70475" lon="5.05099">
        <ele>207</ele>
        <time>2019-09-26T11:43:11Z</time>
      </trkpt>
      <trkpt lat="43.70476" lon="5.05101">
        <ele>207</ele>
        <time>2019-09-26T11:43:13Z</time>
      </trkpt>
      <trkpt lat="43.70477" lon="5.05102">
        <ele>207</ele>
        <time>2019-09-26T11:43:15Z</time>
      </trkpt>
      <trkpt lat="43.70478" lon="5.05104">
        <ele>207</ele>
        <time>2019-09-26T11:43:16Z</time>
      </trkpt>
      <trkpt lat="43.70478" lon="5.05105">
        <ele>207</ele>
        <time>2019-09-26T11:43:17Z</time>
      </trkpt>
      <trkpt lat="43.70477" lon="5.05108">
        <ele>207</ele>
        <time>2019-09-26T11:43:19Z</time>
      </trkpt>
      <trkpt lat="43.70476" lon="5.05111">
        <ele>207</ele>
        <time>2019-09-26T11:43:21Z</time>
      </trkpt>
      <trkpt lat="43.70474" lon="5.05114">
        <ele>207</ele>
        <time>2019-09-26T11:43:24Z</time>
      </trkpt>
      <trkpt lat="43.70474" lon="5.05114">
        <ele>207</ele>
        <time>2019-09-26T11:43:26Z</time>
      </trkpt>
      <trkpt lat="43.70472" lon="5.05116">
        <ele>207</ele>
        <time>2019-09-26T11:43:27Z</time>
      </trkpt>
      <trkpt lat="43.70471" lon="5.05118">
        <ele>207</ele>
        <time>2019-09-26T11:43:29Z</time>
      </trkpt>
      <trkpt lat="43.7047" lon="5.05121">
        <ele>207</ele>
        <time>2019-09-26T11:43:32Z</time>
      </trkpt>
      <trkpt lat="43.70469" lon="5.05123">
        <ele>207</ele>
        <time>2019-09-26T11:43:34Z</time>
      </trkpt>
      <trkpt lat="43.70469" lon="5.05123">
        <ele>209</ele>
        <time>2019-09-26T11:43:36Z</time>
      </trkpt>
      <trkpt lat="43.70469" lon="5.05126">
        <ele>209</ele>
        <time>2019-09-26T11:43:37Z</time>
      </trkpt>
      <trkpt lat="43.70468" lon="5.05129">
        <ele>209</ele>
        <time>2019-09-26T11:43:39Z</time>
      </trkpt>
      <trkpt lat="43.70468" lon="5.05132">
        <ele>209</ele>
        <time>2019-09-26T11:43:42Z</time>
      </trkpt>
      <trkpt lat="43.70468" lon="5.05134">
        <ele>209</ele>
        <time>2019-09-26T11:43:44Z</time>
      </trkpt>
      <trkpt lat="43.70468" lon="5.05134">
        <ele>210</ele>
        <time>2019-09-26T11:43:46Z</time>
      </trkpt>
      <trkpt lat="43.70468" lon="5.05138">
        <ele>210</ele>
        <time>2019-09-26T11:43:47Z</time>
      </trkpt>
      <trkpt lat="43.70469" lon="5.0514">
        <ele>210</ele>
        <time>2019-09-26T11:43:49Z</time>
      </trkpt>
      <trkpt lat="43.7047" lon="5.05143">
        <ele>210</ele>
        <time>2019-09-26T11:43:51Z</time>
      </trkpt>
      <trkpt lat="43.70472" lon="5.05146">
        <ele>210</ele>
        <time>2019-09-26T11:43:54Z</time>
      </trkpt>
      <trkpt lat="43.70473" lon="5.05149">
        <ele>211</ele>
        <time>2019-09-26T11:43:56Z</time>
      </trkpt>
      <trkpt lat="43.70475" lon="5.05152">
        <ele>211</ele>
        <time>2019-09-26T11:43:58Z</time>
      </trkpt>
      <trkpt lat="43.70476" lon="5.05154">
        <ele>211</ele>
        <time>2019-09-26T11:44:01Z</time>
      </trkpt>
      <trkpt lat="43.70477" lon="5.05156">
        <ele>211</ele>
        <time>2019-09-26T11:44:03Z</time>
      </trkpt>
      <trkpt lat="43.70477" lon="5.05157">
        <ele>211</ele>
        <time>2019-09-26T11:44:05Z</time>
      </trkpt>
      <trkpt lat="43.70478" lon="5.05159">
        <ele>213</ele>
        <time>2019-09-26T11:44:06Z</time>
      </trkpt>
      <trkpt lat="43.70481" lon="5.05164">
        <ele>213</ele>
        <time>2019-09-26T11:44:08Z</time>
      </trkpt>
      <trkpt lat="43.70481" lon="5.05165">
        <ele>213</ele>
        <time>2019-09-26T11:44:10Z</time>
      </trkpt>
      <trkpt lat="43.70482" lon="5.05167">
        <ele>213</ele>
        <time>2019-09-26T11:44:13Z</time>
      </trkpt>
      <trkpt lat="43.70483" lon="5.05169">
        <ele>213</ele>
        <time>2019-09-26T11:44:15Z</time>
      </trkpt>
      <trkpt lat="43.70484" lon="5.0517">
        <ele>215</ele>
        <time>2019-09-26T11:44:16Z</time>
      </trkpt>
      <trkpt lat="43.70486" lon="5.05175">
        <ele>215</ele>
        <time>2019-09-26T11:44:17Z</time>
      </trkpt>
      <trkpt lat="43.70486" lon="5.05177">
        <ele>215</ele>
        <time>2019-09-26T11:44:19Z</time>
      </trkpt>
      <trkpt lat="43.70487" lon="5.05179">
        <ele>215</ele>
        <time>2019-09-26T11:44:21Z</time>
      </trkpt>
      <trkpt lat="43.70487" lon="5.05181">
        <ele>215</ele>
        <time>2019-09-26T11:44:23Z</time>
      </trkpt>
      <trkpt lat="43.70488" lon="5.05183">
        <ele>215</ele>
        <time>2019-09-26T11:44:25Z</time>
      </trkpt>
      <trkpt lat="43.70488" lon="5.05185">
        <ele>215</ele>
        <time>2019-09-26T11:44:26Z</time>
      </trkpt>
      <trkpt lat="43.70488" lon="5.05186">
        <ele>215</ele>
        <time>2019-09-26T11:44:27Z</time>
      </trkpt>
      <trkpt lat="43.70487" lon="5.0519">
        <ele>215</ele>
        <time>2019-09-26T11:44:30Z</time>
      </trkpt>
      <trkpt lat="43.70486" lon="5.05192">
        <ele>215</ele>
        <time>2019-09-26T11:44:32Z</time>
      </trkpt>
      <trkpt lat="43.70484" lon="5.05193">
        <ele>215</ele>
        <time>2019-09-26T11:44:34Z</time>
      </trkpt>
      <trkpt lat="43.70482" lon="5.05195">
        <ele>216</ele>
        <time>2019-09-26T11:44:36Z</time>
      </trkpt>
      <trkpt lat="43.70479" lon="5.05195">
        <ele>216</ele>
        <time>2019-09-26T11:44:39Z</time>
      </trkpt>
      <trkpt lat="43.70477" lon="5.05195">
        <ele>216</ele>
        <time>2019-09-26T11:44:41Z</time>
      </trkpt>
      <trkpt lat="43.70475" lon="5.05195">
        <ele>216</ele>
        <time>2019-09-26T11:44:44Z</time>
      </trkpt>
      <trkpt lat="43.70473" lon="5.05195">
        <ele>217</ele>
        <time>2019-09-26T11:44:46Z</time>
      </trkpt>
      <trkpt lat="43.7047" lon="5.05195">
        <ele>217</ele>
        <time>2019-09-26T11:44:48Z</time>
      </trkpt>
      <trkpt lat="43.70468" lon="5.05196">
        <ele>217</ele>
        <time>2019-09-26T11:44:51Z</time>
      </trkpt>
      <trkpt lat="43.70465" lon="5.05196">
        <ele>217</ele>
        <time>2019-09-26T11:44:54Z</time>
      </trkpt>
      <trkpt lat="43.70465" lon="5.05196">
        <ele>219</ele>
        <time>2019-09-26T11:44:56Z</time>
      </trkpt>
      <trkpt lat="43.70463" lon="5.05196">
        <ele>219</ele>
        <time>2019-09-26T11:44:57Z</time>
      </trkpt>
      <trkpt lat="43.70461" lon="5.05196">
        <ele>219</ele>
        <time>2019-09-26T11:44:59Z</time>
      </trkpt>
      <trkpt lat="43.70458" lon="5.05197">
        <ele>219</ele>
        <time>2019-09-26T11:45:02Z</time>
      </trkpt>
      <trkpt lat="43.70456" lon="5.05198">
        <ele>219</ele>
        <time>2019-09-26T11:45:04Z</time>
      </trkpt>
      <trkpt lat="43.70454" lon="5.05199">
        <ele>219</ele>
        <time>2019-09-26T11:45:06Z</time>
      </trkpt>
      <trkpt lat="43.70452" lon="5.05201">
        <ele>219</ele>
        <time>2019-09-26T11:45:09Z</time>
      </trkpt>
      <trkpt lat="43.7045" lon="5.05204">
        <ele>219</ele>
        <time>2019-09-26T11:45:12Z</time>
      </trkpt>
      <trkpt lat="43.70449" lon="5.05206">
        <ele>219</ele>
        <time>2019-09-26T11:45:14Z</time>
      </trkpt>
      <trkpt lat="43.70448" lon="5.05208">
        <ele>220</ele>
        <time>2019-09-26T11:45:16Z</time>
      </trkpt>
      <trkpt lat="43.70447" lon="5.05211">
        <ele>220</ele>
        <time>2019-09-26T11:45:19Z</time>
      </trkpt>
      <trkpt lat="43.70446" lon="5.05214">
        <ele>220</ele>
        <time>2019-09-26T11:45:21Z</time>
      </trkpt>
      <trkpt lat="43.70446" lon="5.05218">
        <ele>220</ele>
        <time>2019-09-26T11:45:24Z</time>
      </trkpt>
      <trkpt lat="43.70446" lon="5.0522">
        <ele>223</ele>
        <time>2019-09-26T11:45:26Z</time>
      </trkpt>
      <trkpt lat="43.70446" lon="5.05224">
        <ele>223</ele>
        <time>2019-09-26T11:45:29Z</time>
      </trkpt>
      <trkpt lat="43.70446" lon="5.05227">
        <ele>223</ele>
        <time>2019-09-26T11:45:31Z</time>
      </trkpt>
      <trkpt lat="43.70446" lon="5.05231">
        <ele>223</ele>
        <time>2019-09-26T11:45:34Z</time>
      </trkpt>
      <trkpt lat="43.70446" lon="5.05234">
        <ele>224</ele>
        <time>2019-09-26T11:45:36Z</time>
      </trkpt>
      <trkpt lat="43.70447" lon="5.05237">
        <ele>224</ele>
        <time>2019-09-26T11:45:39Z</time>
      </trkpt>
      <trkpt lat="43.70447" lon="5.0524">
        <ele>224</ele>
        <time>2019-09-26T11:45:41Z</time>
      </trkpt>
      <trkpt lat="43.70447" lon="5.05243">
        <ele>224</ele>
        <time>2019-09-26T11:45:44Z</time>
      </trkpt>
      <trkpt lat="43.70447" lon="5.05246">
        <ele>225</ele>
        <time>2019-09-26T11:45:46Z</time>
      </trkpt>
      <trkpt lat="43.70447" lon="5.05249">
        <ele>225</ele>
        <time>2019-09-26T11:45:49Z</time>
      </trkpt>
      <trkpt lat="43.70447" lon="5.05253">
        <ele>225</ele>
        <time>2019-09-26T11:45:52Z</time>
      </trkpt>
      <trkpt lat="43.70447" lon="5.05256">
        <ele>225</ele>
        <time>2019-09-26T11:45:54Z</time>
      </trkpt>
      <trkpt lat="43.70447" lon="5.05256">
        <ele>226</ele>
        <time>2019-09-26T11:45:56Z</time>
      </trkpt>
      <trkpt lat="43.70447" lon="5.0526">
        <ele>226</ele>
        <time>2019-09-26T11:45:57Z</time>
      </trkpt>
      <trkpt lat="43.70446" lon="5.05263">
        <ele>226</ele>
        <time>2019-09-26T11:45:59Z</time>
      </trkpt>
      <trkpt lat="43.70446" lon="5.05266">
        <ele>226</ele>
        <time>2019-09-26T11:46:02Z</time>
      </trkpt>
      <trkpt lat="43.70445" lon="5.05268">
        <ele>226</ele>
        <time>2019-09-26T11:46:04Z</time>
      </trkpt>
      <trkpt lat="43.70445" lon="5.05268">
        <ele>228</ele>
        <time>2019-09-26T11:46:06Z</time>
      </trkpt>
      <trkpt lat="43.70443" lon="5.05273">
        <ele>228</ele>
        <time>2019-09-26T11:46:07Z</time>
      </trkpt>
      <trkpt lat="43.70442" lon="5.05275">
        <ele>228</ele>
        <time>2019-09-26T11:46:09Z</time>
      </trkpt>
      <trkpt lat="43.70441" lon="5.05276">
        <ele>228</ele>
        <time>2019-09-26T11:46:12Z</time>
      </trkpt>
      <trkpt lat="43.7044" lon="5.05277">
        <ele>228</ele>
        <time>2019-09-26T11:46:15Z</time>
      </trkpt>
      <trkpt lat="43.7044" lon="5.05279">
        <ele>229</ele>
        <time>2019-09-26T11:46:16Z</time>
      </trkpt>
      <trkpt lat="43.70438" lon="5.05279">
        <ele>229</ele>
        <time>2019-09-26T11:46:17Z</time>
      </trkpt>
      <trkpt lat="43.70436" lon="5.0528">
        <ele>229</ele>
        <time>2019-09-26T11:46:20Z</time>
      </trkpt>
      <trkpt lat="43.70433" lon="5.05281">
        <ele>229</ele>
        <time>2019-09-26T11:46:23Z</time>
      </trkpt>
      <trkpt lat="43.70431" lon="5.05282">
        <ele>231</ele>
        <time>2019-09-26T11:46:26Z</time>
      </trkpt>
      <trkpt lat="43.70429" lon="5.05283">
        <ele>231</ele>
        <time>2019-09-26T11:46:28Z</time>
      </trkpt>
      <trkpt lat="43.70427" lon="5.05283">
        <ele>231</ele>
        <time>2019-09-26T11:46:30Z</time>
      </trkpt>
      <trkpt lat="43.70425" lon="5.05284">
        <ele>231</ele>
        <time>2019-09-26T11:46:33Z</time>
      </trkpt>
      <trkpt lat="43.70422" lon="5.05285">
        <ele>233</ele>
        <time>2019-09-26T11:46:36Z</time>
      </trkpt>
      <trkpt lat="43.70421" lon="5.05285">
        <ele>233</ele>
        <time>2019-09-26T11:46:38Z</time>
      </trkpt>
      <trkpt lat="43.70418" lon="5.05286">
        <ele>233</ele>
        <time>2019-09-26T11:46:41Z</time>
      </trkpt>
      <trkpt lat="43.70416" lon="5.05287">
        <ele>233</ele>
        <time>2019-09-26T11:46:44Z</time>
      </trkpt>
      <trkpt lat="43.70416" lon="5.05287">
        <ele>236</ele>
        <time>2019-09-26T11:46:46Z</time>
      </trkpt>
      <trkpt lat="43.70412" lon="5.05289">
        <ele>236</ele>
        <time>2019-09-26T11:46:47Z</time>
      </trkpt>
      <trkpt lat="43.70411" lon="5.05289">
        <ele>236</ele>
        <time>2019-09-26T11:46:50Z</time>
      </trkpt>
      <trkpt lat="43.70409" lon="5.0529">
        <ele>236</ele>
        <time>2019-09-26T11:46:52Z</time>
      </trkpt>
      <trkpt lat="43.70408" lon="5.0529">
        <ele>236</ele>
        <time>2019-09-26T11:46:55Z</time>
      </trkpt>
      <trkpt lat="43.70407" lon="5.05291">
        <ele>237</ele>
        <time>2019-09-26T11:46:56Z</time>
      </trkpt>
      <trkpt lat="43.70403" lon="5.05292">
        <ele>237</ele>
        <time>2019-09-26T11:46:57Z</time>
      </trkpt>
      <trkpt lat="43.70402" lon="5.05292">
        <ele>237</ele>
        <time>2019-09-26T11:47:00Z</time>
      </trkpt>
      <trkpt lat="43.70401" lon="5.05293">
        <ele>237</ele>
        <time>2019-09-26T11:47:02Z</time>
      </trkpt>
      <trkpt lat="43.704" lon="5.05293">
        <ele>237</ele>
        <time>2019-09-26T11:47:05Z</time>
      </trkpt>
      <trkpt lat="43.70399" lon="5.05294">
        <ele>237</ele>
        <time>2019-09-26T11:47:06Z</time>
      </trkpt>
      <trkpt lat="43.70395" lon="5.05294">
        <ele>237</ele>
        <time>2019-09-26T11:47:07Z</time>
      </trkpt>
      <trkpt lat="43.70394" lon="5.05295">
        <ele>237</ele>
        <time>2019-09-26T11:47:10Z</time>
      </trkpt>
      <trkpt lat="43.70392" lon="5.05295">
        <ele>237</ele>
        <time>2019-09-26T11:47:14Z</time>
      </trkpt>
      <trkpt lat="43.70391" lon="5.05296">
        <ele>237</ele>
        <time>2019-09-26T11:47:16Z</time>
      </trkpt>
      <trkpt lat="43.7039" lon="5.05296">
        <ele>239</ele>
        <time>2019-09-26T11:47:17Z</time>
      </trkpt>
      <trkpt lat="43.70388" lon="5.05297">
        <ele>239</ele>
        <time>2019-09-26T11:47:18Z</time>
      </trkpt>
      <trkpt lat="43.70386" lon="5.05296">
        <ele>239</ele>
        <time>2019-09-26T11:47:20Z</time>
      </trkpt>
      <trkpt lat="43.70384" lon="5.05296">
        <ele>239</ele>
        <time>2019-09-26T11:47:23Z</time>
      </trkpt>
      <trkpt lat="43.70382" lon="5.05297">
        <ele>241</ele>
        <time>2019-09-26T11:47:26Z</time>
      </trkpt>
      <trkpt lat="43.70379" lon="5.05297">
        <ele>241</ele>
        <time>2019-09-26T11:47:29Z</time>
      </trkpt>
      <trkpt lat="43.70377" lon="5.05298">
        <ele>241</ele>
        <time>2019-09-26T11:47:32Z</time>
      </trkpt>
      <trkpt lat="43.70375" lon="5.05299">
        <ele>241</ele>
        <time>2019-09-26T11:47:34Z</time>
      </trkpt>
      <trkpt lat="43.70373" lon="5.05299">
        <ele>242</ele>
        <time>2019-09-26T11:47:36Z</time>
      </trkpt>
      <trkpt lat="43.70371" lon="5.053">
        <ele>242</ele>
        <time>2019-09-26T11:47:39Z</time>
      </trkpt>
      <trkpt lat="43.70369" lon="5.053">
        <ele>242</ele>
        <time>2019-09-26T11:47:41Z</time>
      </trkpt>
      <trkpt lat="43.70366" lon="5.05302">
        <ele>242</ele>
        <time>2019-09-26T11:47:44Z</time>
      </trkpt>
      <trkpt lat="43.70364" lon="5.05302">
        <ele>244</ele>
        <time>2019-09-26T11:47:46Z</time>
      </trkpt>
      <trkpt lat="43.70361" lon="5.05304">
        <ele>244</ele>
        <time>2019-09-26T11:47:49Z</time>
      </trkpt>
      <trkpt lat="43.7036" lon="5.05304">
        <ele>244</ele>
        <time>2019-09-26T11:47:51Z</time>
      </trkpt>
      <trkpt lat="43.70359" lon="5.05304">
        <ele>244</ele>
        <time>2019-09-26T11:47:53Z</time>
      </trkpt>
      <trkpt lat="43.70357" lon="5.05304">
        <ele>244</ele>
        <time>2019-09-26T11:47:55Z</time>
      </trkpt>
      <trkpt lat="43.70356" lon="5.05304">
        <ele>246</ele>
        <time>2019-09-26T11:47:56Z</time>
      </trkpt>
      <trkpt lat="43.70354" lon="5.05306">
        <ele>246</ele>
        <time>2019-09-26T11:47:58Z</time>
      </trkpt>
      <trkpt lat="43.70353" lon="5.05306">
        <ele>246</ele>
        <time>2019-09-26T11:48:00Z</time>
      </trkpt>
      <trkpt lat="43.70351" lon="5.05307">
        <ele>246</ele>
        <time>2019-09-26T11:48:03Z</time>
      </trkpt>
      <trkpt lat="43.70349" lon="5.05308">
        <ele>248</ele>
        <time>2019-09-26T11:48:06Z</time>
      </trkpt>
      <trkpt lat="43.70346" lon="5.05311">
        <ele>248</ele>
        <time>2019-09-26T11:48:09Z</time>
      </trkpt>
      <trkpt lat="43.70345" lon="5.05313">
        <ele>248</ele>
        <time>2019-09-26T11:48:12Z</time>
      </trkpt>
      <trkpt lat="43.70344" lon="5.05314">
        <ele>248</ele>
        <time>2019-09-26T11:48:15Z</time>
      </trkpt>
      <trkpt lat="43.70343" lon="5.05315">
        <ele>249</ele>
        <time>2019-09-26T11:48:16Z</time>
      </trkpt>
      <trkpt lat="43.70342" lon="5.05317">
        <ele>249</ele>
        <time>2019-09-26T11:48:18Z</time>
      </trkpt>
      <trkpt lat="43.70341" lon="5.05319">
        <ele>249</ele>
        <time>2019-09-26T11:48:20Z</time>
      </trkpt>
      <trkpt lat="43.7034" lon="5.05322">
        <ele>249</ele>
        <time>2019-09-26T11:48:23Z</time>
      </trkpt>
      <trkpt lat="43.70339" lon="5.05325">
        <ele>251</ele>
        <time>2019-09-26T11:48:26Z</time>
      </trkpt>
      <trkpt lat="43.70338" lon="5.05328">
        <ele>251</ele>
        <time>2019-09-26T11:48:29Z</time>
      </trkpt>
      <trkpt lat="43.70337" lon="5.05331">
        <ele>251</ele>
        <time>2019-09-26T11:48:32Z</time>
      </trkpt>
      <trkpt lat="43.70337" lon="5.05331">
        <ele>253</ele>
        <time>2019-09-26T11:48:36Z</time>
      </trkpt>
      <trkpt lat="43.70336" lon="5.05334">
        <ele>253</ele>
        <time>2019-09-26T11:48:37Z</time>
      </trkpt>
      <trkpt lat="43.70336" lon="5.05334">
        <ele>253</ele>
        <time>2019-09-26T11:48:46Z</time>
      </trkpt>
      <trkpt lat="43.70334" lon="5.05337">
        <ele>253</ele>
        <time>2019-09-26T11:48:48Z</time>
      </trkpt>
      <trkpt lat="43.70334" lon="5.0534">
        <ele>253</ele>
        <time>2019-09-26T11:48:52Z</time>
      </trkpt>
      <trkpt lat="43.70333" lon="5.05342">
        <ele>253</ele>
        <time>2019-09-26T11:48:55Z</time>
      </trkpt>
      <trkpt lat="43.70333" lon="5.05342">
        <ele>254</ele>
        <time>2019-09-26T11:48:57Z</time>
      </trkpt>
      <trkpt lat="43.70332" lon="5.05343">
        <ele>255</ele>
        <time>2019-09-26T11:49:05Z</time>
      </trkpt>
      <trkpt lat="43.70268" lon="5.05395">
        <ele>255</ele>
        <time>2019-09-26T11:52:25Z</time>
      </trkpt>
      <trkpt lat="43.70267" lon="5.05396">
        <ele>269</ele>
        <time>2019-09-26T11:52:26Z</time>
      </trkpt>
      <trkpt lat="43.70266" lon="5.05397">
        <ele>269</ele>
        <time>2019-09-26T11:52:28Z</time>
      </trkpt>
      <trkpt lat="43.70264" lon="5.05398">
        <ele>269</ele>
        <time>2019-09-26T11:52:31Z</time>
      </trkpt>
      <trkpt lat="43.70263" lon="5.054">
        <ele>269</ele>
        <time>2019-09-26T11:52:34Z</time>
      </trkpt>
      <trkpt lat="43.70262" lon="5.05401">
        <ele>269</ele>
        <time>2019-09-26T11:52:35Z</time>
      </trkpt>
      <trkpt lat="43.7026" lon="5.05406">
        <ele>269</ele>
        <time>2019-09-26T11:52:37Z</time>
      </trkpt>
      <trkpt lat="43.70259" lon="5.05407">
        <ele>269</ele>
        <time>2019-09-26T11:52:40Z</time>
      </trkpt>
      <trkpt lat="43.70258" lon="5.05409">
        <ele>269</ele>
        <time>2019-09-26T11:52:42Z</time>
      </trkpt>
      <trkpt lat="43.70258" lon="5.05411">
        <ele>269</ele>
        <time>2019-09-26T11:52:44Z</time>
      </trkpt>
      <trkpt lat="43.70257" lon="5.05413">
        <ele>270</ele>
        <time>2019-09-26T11:52:45Z</time>
      </trkpt>
      <trkpt lat="43.70256" lon="5.05414">
        <ele>270</ele>
        <time>2019-09-26T11:52:46Z</time>
      </trkpt>
      <trkpt lat="43.70255" lon="5.05416">
        <ele>270</ele>
        <time>2019-09-26T11:52:49Z</time>
      </trkpt>
      <trkpt lat="43.70253" lon="5.05419">
        <ele>270</ele>
        <time>2019-09-26T11:52:52Z</time>
      </trkpt>
      <trkpt lat="43.70252" lon="5.05422">
        <ele>271</ele>
        <time>2019-09-26T11:52:55Z</time>
      </trkpt>
      <trkpt lat="43.70249" lon="5.05425">
        <ele>271</ele>
        <time>2019-09-26T11:52:58Z</time>
      </trkpt>
      <trkpt lat="43.70248" lon="5.05426">
        <ele>271</ele>
        <time>2019-09-26T11:53:01Z</time>
      </trkpt>
      <trkpt lat="43.70247" lon="5.05426">
        <ele>271</ele>
        <time>2019-09-26T11:53:04Z</time>
      </trkpt>
      <trkpt lat="43.70246" lon="5.05427">
        <ele>274</ele>
        <time>2019-09-26T11:53:05Z</time>
      </trkpt>
      <trkpt lat="43.70244" lon="5.05429">
        <ele>274</ele>
        <time>2019-09-26T11:53:07Z</time>
      </trkpt>
      <trkpt lat="43.70242" lon="5.05431">
        <ele>274</ele>
        <time>2019-09-26T11:53:10Z</time>
      </trkpt>
      <trkpt lat="43.70241" lon="5.05433">
        <ele>274</ele>
        <time>2019-09-26T11:53:13Z</time>
      </trkpt>
      <trkpt lat="43.70241" lon="5.05433">
        <ele>276</ele>
        <time>2019-09-26T11:53:15Z</time>
      </trkpt>
      <trkpt lat="43.70239" lon="5.05435">
        <ele>276</ele>
        <time>2019-09-26T11:53:16Z</time>
      </trkpt>
      <trkpt lat="43.70238" lon="5.05438">
        <ele>276</ele>
        <time>2019-09-26T11:53:19Z</time>
      </trkpt>
      <trkpt lat="43.70236" lon="5.05439">
        <ele>276</ele>
        <time>2019-09-26T11:53:23Z</time>
      </trkpt>
      <trkpt lat="43.70236" lon="5.05439">
        <ele>276</ele>
        <time>2019-09-26T11:53:25Z</time>
      </trkpt>
      <trkpt lat="43.70234" lon="5.05441">
        <ele>276</ele>
        <time>2019-09-26T11:53:27Z</time>
      </trkpt>
      <trkpt lat="43.70231" lon="5.05442">
        <ele>276</ele>
        <time>2019-09-26T11:53:30Z</time>
      </trkpt>
      <trkpt lat="43.70229" lon="5.05443">
        <ele>276</ele>
        <time>2019-09-26T11:53:33Z</time>
      </trkpt>
      <trkpt lat="43.70229" lon="5.05443">
        <ele>277</ele>
        <time>2019-09-26T11:53:35Z</time>
      </trkpt>
      <trkpt lat="43.70226" lon="5.05444">
        <ele>277</ele>
        <time>2019-09-26T11:53:37Z</time>
      </trkpt>
      <trkpt lat="43.70224" lon="5.05444">
        <ele>277</ele>
        <time>2019-09-26T11:53:40Z</time>
      </trkpt>
      <trkpt lat="43.70224" lon="5.05444">
        <ele>278</ele>
        <time>2019-09-26T11:53:45Z</time>
      </trkpt>
      <trkpt lat="43.70224" lon="5.05444">
        <ele>278</ele>
        <time>2019-09-26T11:53:50Z</time>
      </trkpt>
      <trkpt lat="43.70224" lon="5.05445">
        <ele>278</ele>
        <time>2019-09-26T11:53:51Z</time>
      </trkpt>
      <trkpt lat="43.70219" lon="5.05448">
        <ele>279</ele>
        <time>2019-09-26T11:54:16Z</time>
      </trkpt>
      <trkpt lat="43.70218" lon="5.05448">
        <ele>279</ele>
        <time>2019-09-26T11:54:17Z</time>
      </trkpt>
      <trkpt lat="43.70217" lon="5.0545">
        <ele>279</ele>
        <time>2019-09-26T11:54:23Z</time>
      </trkpt>
      <trkpt lat="43.70215" lon="5.05452">
        <ele>281</ele>
        <time>2019-09-26T11:54:25Z</time>
      </trkpt>
      <trkpt lat="43.70214" lon="5.05454">
        <ele>281</ele>
        <time>2019-09-26T11:54:27Z</time>
      </trkpt>
      <trkpt lat="43.70213" lon="5.05456">
        <ele>281</ele>
        <time>2019-09-26T11:54:29Z</time>
      </trkpt>
      <trkpt lat="43.70212" lon="5.05458">
        <ele>281</ele>
        <time>2019-09-26T11:54:31Z</time>
      </trkpt>
      <trkpt lat="43.70211" lon="5.0546">
        <ele>281</ele>
        <time>2019-09-26T11:54:33Z</time>
      </trkpt>
      <trkpt lat="43.70209" lon="5.05462">
        <ele>283</ele>
        <time>2019-09-26T11:54:35Z</time>
      </trkpt>
      <trkpt lat="43.70208" lon="5.05465">
        <ele>283</ele>
        <time>2019-09-26T11:54:37Z</time>
      </trkpt>
      <trkpt lat="43.70207" lon="5.05467">
        <ele>283</ele>
        <time>2019-09-26T11:54:40Z</time>
      </trkpt>
      <trkpt lat="43.70206" lon="5.0547">
        <ele>283</ele>
        <time>2019-09-26T11:54:42Z</time>
      </trkpt>
      <trkpt lat="43.70205" lon="5.05473">
        <ele>284</ele>
        <time>2019-09-26T11:54:45Z</time>
      </trkpt>
      <trkpt lat="43.70204" lon="5.05475">
        <ele>284</ele>
        <time>2019-09-26T11:54:47Z</time>
      </trkpt>
      <trkpt lat="43.70204" lon="5.05478">
        <ele>284</ele>
        <time>2019-09-26T11:54:50Z</time>
      </trkpt>
      <trkpt lat="43.70203" lon="5.05481">
        <ele>284</ele>
        <time>2019-09-26T11:54:52Z</time>
      </trkpt>
      <trkpt lat="43.70201" lon="5.05483">
        <ele>284</ele>
        <time>2019-09-26T11:54:55Z</time>
      </trkpt>
      <trkpt lat="43.702" lon="5.05486">
        <ele>284</ele>
        <time>2019-09-26T11:54:58Z</time>
      </trkpt>
      <trkpt lat="43.70198" lon="5.05487">
        <ele>284</ele>
        <time>2019-09-26T11:55:00Z</time>
      </trkpt>
      <trkpt lat="43.70196" lon="5.05488">
        <ele>284</ele>
        <time>2019-09-26T11:55:02Z</time>
      </trkpt>
      <trkpt lat="43.70193" lon="5.05489">
        <ele>285</ele>
        <time>2019-09-26T11:55:05Z</time>
      </trkpt>
      <trkpt lat="43.70191" lon="5.05489">
        <ele>285</ele>
        <time>2019-09-26T11:55:08Z</time>
      </trkpt>
      <trkpt lat="43.70189" lon="5.0549">
        <ele>285</ele>
        <time>2019-09-26T11:55:10Z</time>
      </trkpt>
      <trkpt lat="43.70187" lon="5.0549">
        <ele>285</ele>
        <time>2019-09-26T11:55:13Z</time>
      </trkpt>
      <trkpt lat="43.70185" lon="5.0549">
        <ele>287</ele>
        <time>2019-09-26T11:55:15Z</time>
      </trkpt>
      <trkpt lat="43.70182" lon="5.0549">
        <ele>287</ele>
        <time>2019-09-26T11:55:18Z</time>
      </trkpt>
      <trkpt lat="43.7018" lon="5.0549">
        <ele>287</ele>
        <time>2019-09-26T11:55:20Z</time>
      </trkpt>
      <trkpt lat="43.70178" lon="5.0549">
        <ele>287</ele>
        <time>2019-09-26T11:55:22Z</time>
      </trkpt>
      <trkpt lat="43.70175" lon="5.05491">
        <ele>289</ele>
        <time>2019-09-26T11:55:25Z</time>
      </trkpt>
      <trkpt lat="43.70172" lon="5.05492">
        <ele>289</ele>
        <time>2019-09-26T11:55:27Z</time>
      </trkpt>
      <trkpt lat="43.7017" lon="5.05492">
        <ele>289</ele>
        <time>2019-09-26T11:55:29Z</time>
      </trkpt>
      <trkpt lat="43.70169" lon="5.05492">
        <ele>289</ele>
        <time>2019-09-26T11:55:31Z</time>
      </trkpt>
      <trkpt lat="43.70168" lon="5.05492">
        <ele>289</ele>
        <time>2019-09-26T11:55:34Z</time>
      </trkpt>
      <trkpt lat="43.70166" lon="5.05493">
        <ele>290</ele>
        <time>2019-09-26T11:55:35Z</time>
      </trkpt>
      <trkpt lat="43.70164" lon="5.05493">
        <ele>290</ele>
        <time>2019-09-26T11:55:36Z</time>
      </trkpt>
      <trkpt lat="43.70163" lon="5.05493">
        <ele>290</ele>
        <time>2019-09-26T11:55:38Z</time>
      </trkpt>
      <trkpt lat="43.70161" lon="5.05494">
        <ele>290</ele>
        <time>2019-09-26T11:55:40Z</time>
      </trkpt>
      <trkpt lat="43.70159" lon="5.05495">
        <ele>290</ele>
        <time>2019-09-26T11:55:42Z</time>
      </trkpt>
      <trkpt lat="43.70156" lon="5.05496">
        <ele>290</ele>
        <time>2019-09-26T11:55:45Z</time>
      </trkpt>
      <trkpt lat="43.70154" lon="5.05497">
        <ele>290</ele>
        <time>2019-09-26T11:55:47Z</time>
      </trkpt>
      <trkpt lat="43.70153" lon="5.05498">
        <ele>290</ele>
        <time>2019-09-26T11:55:49Z</time>
      </trkpt>
      <trkpt lat="43.70151" lon="5.055">
        <ele>290</ele>
        <time>2019-09-26T11:55:51Z</time>
      </trkpt>
      <trkpt lat="43.7015" lon="5.05502">
        <ele>290</ele>
        <time>2019-09-26T11:55:53Z</time>
      </trkpt>
      <trkpt lat="43.7015" lon="5.05502">
        <ele>292</ele>
        <time>2019-09-26T11:55:55Z</time>
      </trkpt>
      <trkpt lat="43.70148" lon="5.05505">
        <ele>292</ele>
        <time>2019-09-26T11:55:56Z</time>
      </trkpt>
      <trkpt lat="43.70146" lon="5.05507">
        <ele>292</ele>
        <time>2019-09-26T11:55:58Z</time>
      </trkpt>
      <trkpt lat="43.70145" lon="5.0551">
        <ele>292</ele>
        <time>2019-09-26T11:56:01Z</time>
      </trkpt>
      <trkpt lat="43.70143" lon="5.05512">
        <ele>292</ele>
        <time>2019-09-26T11:56:03Z</time>
      </trkpt>
      <trkpt lat="43.70142" lon="5.05514">
        <ele>293</ele>
        <time>2019-09-26T11:56:05Z</time>
      </trkpt>
      <trkpt lat="43.7014" lon="5.05517">
        <ele>293</ele>
        <time>2019-09-26T11:56:07Z</time>
      </trkpt>
      <trkpt lat="43.70139" lon="5.05519">
        <ele>293</ele>
        <time>2019-09-26T11:56:10Z</time>
      </trkpt>
      <trkpt lat="43.70138" lon="5.0552">
        <ele>293</ele>
        <time>2019-09-26T11:56:12Z</time>
      </trkpt>
      <trkpt lat="43.70137" lon="5.05522">
        <ele>293</ele>
        <time>2019-09-26T11:56:14Z</time>
      </trkpt>
      <trkpt lat="43.70136" lon="5.05523">
        <ele>295</ele>
        <time>2019-09-26T11:56:15Z</time>
      </trkpt>
      <trkpt lat="43.70135" lon="5.05525">
        <ele>295</ele>
        <time>2019-09-26T11:56:16Z</time>
      </trkpt>
      <trkpt lat="43.70134" lon="5.05527">
        <ele>295</ele>
        <time>2019-09-26T11:56:18Z</time>
      </trkpt>
      <trkpt lat="43.70132" lon="5.0553">
        <ele>295</ele>
        <time>2019-09-26T11:56:21Z</time>
      </trkpt>
      <trkpt lat="43.70131" lon="5.05532">
        <ele>295</ele>
        <time>2019-09-26T11:56:23Z</time>
      </trkpt>
      <trkpt lat="43.70131" lon="5.05532">
        <ele>296</ele>
        <time>2019-09-26T11:56:25Z</time>
      </trkpt>
      <trkpt lat="43.70129" lon="5.05535">
        <ele>296</ele>
        <time>2019-09-26T11:56:26Z</time>
      </trkpt>
      <trkpt lat="43.70127" lon="5.05538">
        <ele>296</ele>
        <time>2019-09-26T11:56:29Z</time>
      </trkpt>
      <trkpt lat="43.70126" lon="5.0554">
        <ele>296</ele>
        <time>2019-09-26T11:56:31Z</time>
      </trkpt>
      <trkpt lat="43.70124" lon="5.05542">
        <ele>296</ele>
        <time>2019-09-26T11:56:33Z</time>
      </trkpt>
      <trkpt lat="43.70123" lon="5.05544">
        <ele>297</ele>
        <time>2019-09-26T11:56:35Z</time>
      </trkpt>
      <trkpt lat="43.70121" lon="5.05546">
        <ele>297</ele>
        <time>2019-09-26T11:56:37Z</time>
      </trkpt>
      <trkpt lat="43.70119" lon="5.05548">
        <ele>297</ele>
        <time>2019-09-26T11:56:39Z</time>
      </trkpt>
      <trkpt lat="43.70118" lon="5.05549">
        <ele>297</ele>
        <time>2019-09-26T11:56:41Z</time>
      </trkpt>
      <trkpt lat="43.70116" lon="5.05551">
        <ele>297</ele>
        <time>2019-09-26T11:56:43Z</time>
      </trkpt>
      <trkpt lat="43.70114" lon="5.05553">
        <ele>298</ele>
        <time>2019-09-26T11:56:45Z</time>
      </trkpt>
      <trkpt lat="43.70113" lon="5.05555">
        <ele>298</ele>
        <time>2019-09-26T11:56:47Z</time>
      </trkpt>
      <trkpt lat="43.70111" lon="5.05557">
        <ele>298</ele>
        <time>2019-09-26T11:56:49Z</time>
      </trkpt>
      <trkpt lat="43.70109" lon="5.05558">
        <ele>298</ele>
        <time>2019-09-26T11:56:51Z</time>
      </trkpt>
      <trkpt lat="43.70107" lon="5.0556">
        <ele>298</ele>
        <time>2019-09-26T11:56:53Z</time>
      </trkpt>
      <trkpt lat="43.70106" lon="5.05561">
        <ele>298</ele>
        <time>2019-09-26T11:56:55Z</time>
      </trkpt>
      <trkpt lat="43.70104" lon="5.05563">
        <ele>298</ele>
        <time>2019-09-26T11:56:57Z</time>
      </trkpt>
      <trkpt lat="43.70102" lon="5.05564">
        <ele>298</ele>
        <time>2019-09-26T11:56:59Z</time>
      </trkpt>
      <trkpt lat="43.70099" lon="5.05566">
        <ele>298</ele>
        <time>2019-09-26T11:57:01Z</time>
      </trkpt>
      <trkpt lat="43.70098" lon="5.05567">
        <ele>298</ele>
        <time>2019-09-26T11:57:03Z</time>
      </trkpt>
      <trkpt lat="43.70096" lon="5.05568">
        <ele>299</ele>
        <time>2019-09-26T11:57:05Z</time>
      </trkpt>
      <trkpt lat="43.70093" lon="5.0557">
        <ele>299</ele>
        <time>2019-09-26T11:57:07Z</time>
      </trkpt>
      <trkpt lat="43.70091" lon="5.05571">
        <ele>299</ele>
        <time>2019-09-26T11:57:09Z</time>
      </trkpt>
      <trkpt lat="43.70089" lon="5.05572">
        <ele>299</ele>
        <time>2019-09-26T11:57:11Z</time>
      </trkpt>
      <trkpt lat="43.70087" lon="5.05574">
        <ele>299</ele>
        <time>2019-09-26T11:57:13Z</time>
      </trkpt>
      <trkpt lat="43.70085" lon="5.05575">
        <ele>300</ele>
        <time>2019-09-26T11:57:15Z</time>
      </trkpt>
      <trkpt lat="43.70084" lon="5.05576">
        <ele>300</ele>
        <time>2019-09-26T11:57:17Z</time>
      </trkpt>
      <trkpt lat="43.70082" lon="5.05578">
        <ele>300</ele>
        <time>2019-09-26T11:57:19Z</time>
      </trkpt>
      <trkpt lat="43.7008" lon="5.05579">
        <ele>300</ele>
        <time>2019-09-26T11:57:21Z</time>
      </trkpt>
      <trkpt lat="43.70077" lon="5.0558">
        <ele>300</ele>
        <time>2019-09-26T11:57:23Z</time>
      </trkpt>
      <trkpt lat="43.70075" lon="5.05582">
        <ele>302</ele>
        <time>2019-09-26T11:57:25Z</time>
      </trkpt>
      <trkpt lat="43.70073" lon="5.05583">
        <ele>302</ele>
        <time>2019-09-26T11:57:27Z</time>
      </trkpt>
      <trkpt lat="43.70071" lon="5.05584">
        <ele>302</ele>
        <time>2019-09-26T11:57:29Z</time>
      </trkpt>
      <trkpt lat="43.70069" lon="5.05585">
        <ele>302</ele>
        <time>2019-09-26T11:57:31Z</time>
      </trkpt>
      <trkpt lat="43.70067" lon="5.05587">
        <ele>302</ele>
        <time>2019-09-26T11:57:33Z</time>
      </trkpt>
      <trkpt lat="43.70065" lon="5.05588">
        <ele>302</ele>
        <time>2019-09-26T11:57:35Z</time>
      </trkpt>
      <trkpt lat="43.7006" lon="5.05591">
        <ele>302</ele>
        <time>2019-09-26T11:57:37Z</time>
      </trkpt>
      <trkpt lat="43.70059" lon="5.05591">
        <ele>302</ele>
        <time>2019-09-26T11:57:39Z</time>
      </trkpt>
      <trkpt lat="43.70057" lon="5.05592">
        <ele>302</ele>
        <time>2019-09-26T11:57:42Z</time>
      </trkpt>
      <trkpt lat="43.70056" lon="5.05593">
        <ele>302</ele>
        <time>2019-09-26T11:57:44Z</time>
      </trkpt>
      <trkpt lat="43.70054" lon="5.05594">
        <ele>302</ele>
        <time>2019-09-26T11:57:45Z</time>
      </trkpt>
      <trkpt lat="43.70052" lon="5.05595">
        <ele>302</ele>
        <time>2019-09-26T11:57:46Z</time>
      </trkpt>
      <trkpt lat="43.7005" lon="5.05596">
        <ele>302</ele>
        <time>2019-09-26T11:57:48Z</time>
      </trkpt>
      <trkpt lat="43.70049" lon="5.05597">
        <ele>302</ele>
        <time>2019-09-26T11:57:50Z</time>
      </trkpt>
      <trkpt lat="43.70048" lon="5.05598">
        <ele>302</ele>
        <time>2019-09-26T11:57:52Z</time>
      </trkpt>
      <trkpt lat="43.70047" lon="5.05598">
        <ele>302</ele>
        <time>2019-09-26T11:57:54Z</time>
      </trkpt>
      <trkpt lat="43.70045" lon="5.05599">
        <ele>302</ele>
        <time>2019-09-26T11:57:55Z</time>
      </trkpt>
      <trkpt lat="43.70044" lon="5.05601">
        <ele>302</ele>
        <time>2019-09-26T11:57:56Z</time>
      </trkpt>
      <trkpt lat="43.70041" lon="5.05602">
        <ele>302</ele>
        <time>2019-09-26T11:57:58Z</time>
      </trkpt>
      <trkpt lat="43.70039" lon="5.05604">
        <ele>302</ele>
        <time>2019-09-26T11:58:00Z</time>
      </trkpt>
      <trkpt lat="43.70038" lon="5.05605">
        <ele>302</ele>
        <time>2019-09-26T11:58:02Z</time>
      </trkpt>
      <trkpt lat="43.70036" lon="5.05606">
        <ele>302</ele>
        <time>2019-09-26T11:58:04Z</time>
      </trkpt>
      <trkpt lat="43.70033" lon="5.05608">
        <ele>303</ele>
        <time>2019-09-26T11:58:06Z</time>
      </trkpt>
      <trkpt lat="43.7003" lon="5.05611">
        <ele>303</ele>
        <time>2019-09-26T11:58:08Z</time>
      </trkpt>
      <trkpt lat="43.70029" lon="5.05612">
        <ele>303</ele>
        <time>2019-09-26T11:58:10Z</time>
      </trkpt>
      <trkpt lat="43.70027" lon="5.05612">
        <ele>303</ele>
        <time>2019-09-26T11:58:12Z</time>
      </trkpt>
      <trkpt lat="43.70026" lon="5.05613">
        <ele>303</ele>
        <time>2019-09-26T11:58:14Z</time>
      </trkpt>
      <trkpt lat="43.70025" lon="5.05614">
        <ele>305</ele>
        <time>2019-09-26T11:58:15Z</time>
      </trkpt>
      <trkpt lat="43.70023" lon="5.05616">
        <ele>305</ele>
        <time>2019-09-26T11:58:16Z</time>
      </trkpt>
      <trkpt lat="43.70021" lon="5.05617">
        <ele>305</ele>
        <time>2019-09-26T11:58:18Z</time>
      </trkpt>
      <trkpt lat="43.7002" lon="5.05618">
        <ele>305</ele>
        <time>2019-09-26T11:58:20Z</time>
      </trkpt>
      <trkpt lat="43.70019" lon="5.05619">
        <ele>305</ele>
        <time>2019-09-26T11:58:22Z</time>
      </trkpt>
      <trkpt lat="43.70018" lon="5.05619">
        <ele>305</ele>
        <time>2019-09-26T11:58:24Z</time>
      </trkpt>
      <trkpt lat="43.70016" lon="5.0562">
        <ele>307</ele>
        <time>2019-09-26T11:58:25Z</time>
      </trkpt>
      <trkpt lat="43.70013" lon="5.05622">
        <ele>307</ele>
        <time>2019-09-26T11:58:26Z</time>
      </trkpt>
      <trkpt lat="43.70011" lon="5.05623">
        <ele>307</ele>
        <time>2019-09-26T11:58:28Z</time>
      </trkpt>
      <trkpt lat="43.7001" lon="5.05624">
        <ele>307</ele>
        <time>2019-09-26T11:58:30Z</time>
      </trkpt>
      <trkpt lat="43.70008" lon="5.05625">
        <ele>307</ele>
        <time>2019-09-26T11:58:32Z</time>
      </trkpt>
      <trkpt lat="43.70007" lon="5.05626">
        <ele>307</ele>
        <time>2019-09-26T11:58:34Z</time>
      </trkpt>
      <trkpt lat="43.70005" lon="5.05627">
        <ele>308</ele>
        <time>2019-09-26T11:58:35Z</time>
      </trkpt>
      <trkpt lat="43.70003" lon="5.05629">
        <ele>308</ele>
        <time>2019-09-26T11:58:36Z</time>
      </trkpt>
      <trkpt lat="43.70001" lon="5.0563">
        <ele>308</ele>
        <time>2019-09-26T11:58:38Z</time>
      </trkpt>
      <trkpt lat="43.7" lon="5.05631">
        <ele>308</ele>
        <time>2019-09-26T11:58:40Z</time>
      </trkpt>
      <trkpt lat="43.69999" lon="5.05631">
        <ele>308</ele>
        <time>2019-09-26T11:58:42Z</time>
      </trkpt>
      <trkpt lat="43.69997" lon="5.05632">
        <ele>308</ele>
        <time>2019-09-26T11:58:44Z</time>
      </trkpt>
      <trkpt lat="43.69996" lon="5.05633">
        <ele>308</ele>
        <time>2019-09-26T11:58:45Z</time>
      </trkpt>
      <trkpt lat="43.69993" lon="5.05632">
        <ele>308</ele>
        <time>2019-09-26T11:58:47Z</time>
      </trkpt>
      <trkpt lat="43.69992" lon="5.05632">
        <ele>308</ele>
        <time>2019-09-26T11:58:49Z</time>
      </trkpt>
      <trkpt lat="43.6999" lon="5.05631">
        <ele>308</ele>
        <time>2019-09-26T11:58:51Z</time>
      </trkpt>
      <trkpt lat="43.69989" lon="5.0563">
        <ele>308</ele>
        <time>2019-09-26T11:58:54Z</time>
      </trkpt>
      <trkpt lat="43.69988" lon="5.0563">
        <ele>308</ele>
        <time>2019-09-26T11:58:55Z</time>
      </trkpt>
      <trkpt lat="43.69986" lon="5.0563">
        <ele>308</ele>
        <time>2019-09-26T11:58:57Z</time>
      </trkpt>
      <trkpt lat="43.69983" lon="5.05631">
        <ele>308</ele>
        <time>2019-09-26T11:59:00Z</time>
      </trkpt>
      <trkpt lat="43.69981" lon="5.05632">
        <ele>308</ele>
        <time>2019-09-26T11:59:03Z</time>
      </trkpt>
      <trkpt lat="43.69979" lon="5.05631">
        <ele>308</ele>
        <time>2019-09-26T11:59:05Z</time>
      </trkpt>
      <trkpt lat="43.69977" lon="5.05629">
        <ele>308</ele>
        <time>2019-09-26T11:59:08Z</time>
      </trkpt>
      <trkpt lat="43.69975" lon="5.05628">
        <ele>308</ele>
        <time>2019-09-26T11:59:11Z</time>
      </trkpt>
      <trkpt lat="43.69973" lon="5.05627">
        <ele>308</ele>
        <time>2019-09-26T11:59:15Z</time>
      </trkpt>
      <trkpt lat="43.69974" lon="5.05628">
        <ele>308</ele>
        <time>2019-09-26T11:59:25Z</time>
      </trkpt>
      <trkpt lat="43.69975" lon="5.05629">
        <ele>308</ele>
        <time>2019-09-26T11:59:31Z</time>
      </trkpt>
      <trkpt lat="43.69977" lon="5.0563">
        <ele>308</ele>
        <time>2019-09-26T11:59:32Z</time>
      </trkpt>
      <trkpt lat="43.69978" lon="5.05631">
        <ele>308</ele>
        <time>2019-09-26T12:04:06Z</time>
      </trkpt>
      <trkpt lat="43.69979" lon="5.05632">
        <ele>308</ele>
        <time>2019-09-26T12:04:08Z</time>
      </trkpt>
      <trkpt lat="43.6998" lon="5.05633">
        <ele>308</ele>
        <time>2019-09-26T12:04:10Z</time>
      </trkpt>
      <trkpt lat="43.69981" lon="5.05634">
        <ele>308</ele>
        <time>2019-09-26T12:04:12Z</time>
      </trkpt>
      <trkpt lat="43.69982" lon="5.05635">
        <ele>308</ele>
        <time>2019-09-26T12:04:14Z</time>
      </trkpt>
      <trkpt lat="43.69983" lon="5.05636">
        <ele>308</ele>
        <time>2019-09-26T12:04:15Z</time>
      </trkpt>
      <trkpt lat="43.69985" lon="5.05638">
        <ele>308</ele>
        <time>2019-09-26T12:04:16Z</time>
      </trkpt>
      <trkpt lat="43.69987" lon="5.05641">
        <ele>308</ele>
        <time>2019-09-26T12:04:19Z</time>
      </trkpt>
      <trkpt lat="43.69988" lon="5.05643">
        <ele>308</ele>
        <time>2019-09-26T12:04:21Z</time>
      </trkpt>
      <trkpt lat="43.6999" lon="5.05644">
        <ele>308</ele>
        <time>2019-09-26T12:04:23Z</time>
      </trkpt>
      <trkpt lat="43.69991" lon="5.05647">
        <ele>308</ele>
        <time>2019-09-26T12:04:25Z</time>
      </trkpt>
      <trkpt lat="43.69993" lon="5.05649">
        <ele>308</ele>
        <time>2019-09-26T12:04:27Z</time>
      </trkpt>
      <trkpt lat="43.69995" lon="5.05651">
        <ele>308</ele>
        <time>2019-09-26T12:04:29Z</time>
      </trkpt>
      <trkpt lat="43.69996" lon="5.05654">
        <ele>308</ele>
        <time>2019-09-26T12:04:31Z</time>
      </trkpt>
      <trkpt lat="43.69997" lon="5.05656">
        <ele>308</ele>
        <time>2019-09-26T12:04:33Z</time>
      </trkpt>
      <trkpt lat="43.69999" lon="5.05659">
        <ele>308</ele>
        <time>2019-09-26T12:04:35Z</time>
      </trkpt>
      <trkpt lat="43.7" lon="5.05661">
        <ele>308</ele>
        <time>2019-09-26T12:04:37Z</time>
      </trkpt>
      <trkpt lat="43.70001" lon="5.05664">
        <ele>308</ele>
        <time>2019-09-26T12:04:39Z</time>
      </trkpt>
      <trkpt lat="43.70002" lon="5.05667">
        <ele>308</ele>
        <time>2019-09-26T12:04:41Z</time>
      </trkpt>
      <trkpt lat="43.70003" lon="5.0567">
        <ele>308</ele>
        <time>2019-09-26T12:04:43Z</time>
      </trkpt>
      <trkpt lat="43.70004" lon="5.05672">
        <ele>308</ele>
        <time>2019-09-26T12:04:45Z</time>
      </trkpt>
      <trkpt lat="43.70005" lon="5.05675">
        <ele>308</ele>
        <time>2019-09-26T12:04:47Z</time>
      </trkpt>
      <trkpt lat="43.70006" lon="5.05678">
        <ele>308</ele>
        <time>2019-09-26T12:04:49Z</time>
      </trkpt>
      <trkpt lat="43.70007" lon="5.05681">
        <ele>308</ele>
        <time>2019-09-26T12:04:51Z</time>
      </trkpt>
      <trkpt lat="43.70007" lon="5.05684">
        <ele>308</ele>
        <time>2019-09-26T12:04:53Z</time>
      </trkpt>
      <trkpt lat="43.70008" lon="5.05687">
        <ele>308</ele>
        <time>2019-09-26T12:04:55Z</time>
      </trkpt>
      <trkpt lat="43.70008" lon="5.0569">
        <ele>308</ele>
        <time>2019-09-26T12:04:57Z</time>
      </trkpt>
      <trkpt lat="43.70009" lon="5.05693">
        <ele>308</ele>
        <time>2019-09-26T12:04:59Z</time>
      </trkpt>
      <trkpt lat="43.7001" lon="5.05696">
        <ele>308</ele>
        <time>2019-09-26T12:05:01Z</time>
      </trkpt>
      <trkpt lat="43.70011" lon="5.057">
        <ele>308</ele>
        <time>2019-09-26T12:05:03Z</time>
      </trkpt>
      <trkpt lat="43.70012" lon="5.05703">
        <ele>308</ele>
        <time>2019-09-26T12:05:05Z</time>
      </trkpt>
      <trkpt lat="43.70013" lon="5.05706">
        <ele>308</ele>
        <time>2019-09-26T12:05:07Z</time>
      </trkpt>
      <trkpt lat="43.70014" lon="5.05708">
        <ele>308</ele>
        <time>2019-09-26T12:05:09Z</time>
      </trkpt>
      <trkpt lat="43.70014" lon="5.0571">
        <ele>308</ele>
        <time>2019-09-26T12:05:11Z</time>
      </trkpt>
      <trkpt lat="43.70014" lon="5.05712">
        <ele>308</ele>
        <time>2019-09-26T12:05:14Z</time>
      </trkpt>
      <trkpt lat="43.70015" lon="5.05713">
        <ele>308</ele>
        <time>2019-09-26T12:05:15Z</time>
      </trkpt>
      <trkpt lat="43.70015" lon="5.05718">
        <ele>308</ele>
        <time>2019-09-26T12:05:17Z</time>
      </trkpt>
      <trkpt lat="43.70014" lon="5.05719">
        <ele>308</ele>
        <time>2019-09-26T12:05:20Z</time>
      </trkpt>
      <trkpt lat="43.70013" lon="5.05721">
        <ele>308</ele>
        <time>2019-09-26T12:05:22Z</time>
      </trkpt>
      <trkpt lat="43.70013" lon="5.05722">
        <ele>308</ele>
        <time>2019-09-26T12:05:24Z</time>
      </trkpt>
      <trkpt lat="43.70012" lon="5.05723">
        <ele>308</ele>
        <time>2019-09-26T12:05:25Z</time>
      </trkpt>
      <trkpt lat="43.7001" lon="5.05728">
        <ele>308</ele>
        <time>2019-09-26T12:05:27Z</time>
      </trkpt>
      <trkpt lat="43.7001" lon="5.05729">
        <ele>308</ele>
        <time>2019-09-26T12:05:30Z</time>
      </trkpt>
      <trkpt lat="43.70009" lon="5.05731">
        <ele>308</ele>
        <time>2019-09-26T12:05:32Z</time>
      </trkpt>
      <trkpt lat="43.70008" lon="5.05732">
        <ele>308</ele>
        <time>2019-09-26T12:05:34Z</time>
      </trkpt>
      <trkpt lat="43.70008" lon="5.05734">
        <ele>308</ele>
        <time>2019-09-26T12:05:35Z</time>
      </trkpt>
      <trkpt lat="43.70006" lon="5.05738">
        <ele>308</ele>
        <time>2019-09-26T12:05:36Z</time>
      </trkpt>
      <trkpt lat="43.70005" lon="5.0574">
        <ele>308</ele>
        <time>2019-09-26T12:05:38Z</time>
      </trkpt>
      <trkpt lat="43.70004" lon="5.05742">
        <ele>308</ele>
        <time>2019-09-26T12:05:40Z</time>
      </trkpt>
      <trkpt lat="43.70003" lon="5.05744">
        <ele>308</ele>
        <time>2019-09-26T12:05:42Z</time>
      </trkpt>
      <trkpt lat="43.70002" lon="5.05746">
        <ele>308</ele>
        <time>2019-09-26T12:05:44Z</time>
      </trkpt>
      <trkpt lat="43.70001" lon="5.05747">
        <ele>309</ele>
        <time>2019-09-26T12:05:45Z</time>
      </trkpt>
      <trkpt lat="43.7" lon="5.05749">
        <ele>309</ele>
        <time>2019-09-26T12:05:46Z</time>
      </trkpt>
      <trkpt lat="43.69999" lon="5.05751">
        <ele>309</ele>
        <time>2019-09-26T12:05:48Z</time>
      </trkpt>
      <trkpt lat="43.69998" lon="5.05754">
        <ele>309</ele>
        <time>2019-09-26T12:05:51Z</time>
      </trkpt>
      <trkpt lat="43.69999" lon="5.05756">
        <ele>309</ele>
        <time>2019-09-26T12:05:53Z</time>
      </trkpt>
      <trkpt lat="43.69999" lon="5.05756">
        <ele>310</ele>
        <time>2019-09-26T12:05:55Z</time>
      </trkpt>
      <trkpt lat="43.69998" lon="5.0576">
        <ele>310</ele>
        <time>2019-09-26T12:05:56Z</time>
      </trkpt>
      <trkpt lat="43.69997" lon="5.05762">
        <ele>310</ele>
        <time>2019-09-26T12:05:58Z</time>
      </trkpt>
      <trkpt lat="43.69996" lon="5.05765">
        <ele>310</ele>
        <time>2019-09-26T12:06:00Z</time>
      </trkpt>
      <trkpt lat="43.69995" lon="5.05768">
        <ele>310</ele>
        <time>2019-09-26T12:06:03Z</time>
      </trkpt>
      <trkpt lat="43.69995" lon="5.05768">
        <ele>310</ele>
        <time>2019-09-26T12:06:05Z</time>
      </trkpt>
      <trkpt lat="43.69995" lon="5.05772">
        <ele>310</ele>
        <time>2019-09-26T12:06:06Z</time>
      </trkpt>
      <trkpt lat="43.69994" lon="5.05775">
        <ele>310</ele>
        <time>2019-09-26T12:06:09Z</time>
      </trkpt>
      <trkpt lat="43.69994" lon="5.05778">
        <ele>310</ele>
        <time>2019-09-26T12:06:11Z</time>
      </trkpt>
      <trkpt lat="43.69994" lon="5.05778">
        <ele>310</ele>
        <time>2019-09-26T12:06:15Z</time>
      </trkpt>
      <trkpt lat="43.69993" lon="5.05781">
        <ele>310</ele>
        <time>2019-09-26T12:06:17Z</time>
      </trkpt>
      <trkpt lat="43.69993" lon="5.05784">
        <ele>310</ele>
        <time>2019-09-26T12:06:20Z</time>
      </trkpt>
      <trkpt lat="43.69992" lon="5.05786">
        <ele>310</ele>
        <time>2019-09-26T12:06:23Z</time>
      </trkpt>
      <trkpt lat="43.69992" lon="5.05786">
        <ele>310</ele>
        <time>2019-09-26T12:06:25Z</time>
      </trkpt>
      <trkpt lat="43.69992" lon="5.05789">
        <ele>310</ele>
        <time>2019-09-26T12:06:27Z</time>
      </trkpt>
      <trkpt lat="43.69993" lon="5.05792">
        <ele>310</ele>
        <time>2019-09-26T12:06:31Z</time>
      </trkpt>
      <trkpt lat="43.69994" lon="5.05794">
        <ele>311</ele>
        <time>2019-09-26T12:06:35Z</time>
      </trkpt>
      <trkpt lat="43.69993" lon="5.05797">
        <ele>311</ele>
        <time>2019-09-26T12:06:44Z</time>
      </trkpt>
      <trkpt lat="43.69993" lon="5.05797">
        <ele>311</ele>
        <time>2019-09-26T12:06:45Z</time>
      </trkpt>
      <trkpt lat="43.69992" lon="5.05798">
        <ele>311</ele>
        <time>2019-09-26T12:06:53Z</time>
      </trkpt>
      <trkpt lat="43.69994" lon="5.05807">
        <ele>310</ele>
        <time>2019-09-26T12:07:09Z</time>
      </trkpt>
      <trkpt lat="43.69995" lon="5.05809">
        <ele>310</ele>
        <time>2019-09-26T12:07:11Z</time>
      </trkpt>
      <trkpt lat="43.69997" lon="5.05811">
        <ele>310</ele>
        <time>2019-09-26T12:07:13Z</time>
      </trkpt>
      <trkpt lat="43.69998" lon="5.05812">
        <ele>310</ele>
        <time>2019-09-26T12:07:15Z</time>
      </trkpt>
      <trkpt lat="43.7" lon="5.05815">
        <ele>309</ele>
        <time>2019-09-26T12:07:18Z</time>
      </trkpt>
      <trkpt lat="43.7" lon="5.05818">
        <ele>309</ele>
        <time>2019-09-26T12:07:23Z</time>
      </trkpt>
      <trkpt lat="43.70001" lon="5.05821">
        <ele>308</ele>
        <time>2019-09-26T12:07:28Z</time>
      </trkpt>
      <trkpt lat="43.70003" lon="5.05822">
        <ele>308</ele>
        <time>2019-09-26T12:07:33Z</time>
      </trkpt>
      <trkpt lat="43.70005" lon="5.05825">
        <ele>308</ele>
        <time>2019-09-26T12:07:36Z</time>
      </trkpt>
      <trkpt lat="43.70005" lon="5.05825">
        <ele>307</ele>
        <time>2019-09-26T12:07:38Z</time>
      </trkpt>
      <trkpt lat="43.70005" lon="5.05828">
        <ele>307</ele>
        <time>2019-09-26T12:07:39Z</time>
      </trkpt>
      <trkpt lat="43.70006" lon="5.0583">
        <ele>307</ele>
        <time>2019-09-26T12:07:42Z</time>
      </trkpt>
      <trkpt lat="43.70006" lon="5.05833">
        <ele>307</ele>
        <time>2019-09-26T12:07:46Z</time>
      </trkpt>
      <trkpt lat="43.70006" lon="5.05833">
        <ele>306</ele>
        <time>2019-09-26T12:07:48Z</time>
      </trkpt>
      <trkpt lat="43.70006" lon="5.05835">
        <ele>306</ele>
        <time>2019-09-26T12:07:50Z</time>
      </trkpt>
      <trkpt lat="43.70006" lon="5.05835">
        <ele>307</ele>
        <time>2019-09-26T12:07:58Z</time>
      </trkpt>
      <trkpt lat="43.70006" lon="5.05835">
        <ele>306</ele>
        <time>2019-09-26T12:08:05Z</time>
      </trkpt>
      <trkpt lat="43.70005" lon="5.05836">
        <ele>306</ele>
        <time>2019-09-26T12:08:06Z</time>
      </trkpt>
      <trkpt lat="43.7" lon="5.05851">
        <ele>306</ele>
        <time>2019-09-26T12:08:51Z</time>
      </trkpt>
      <trkpt lat="43.7" lon="5.05853">
        <ele>306</ele>
        <time>2019-09-26T12:08:53Z</time>
      </trkpt>
      <trkpt lat="43.7" lon="5.05857">
        <ele>306</ele>
        <time>2019-09-26T12:08:56Z</time>
      </trkpt>
      <trkpt lat="43.7" lon="5.0586">
        <ele>306</ele>
        <time>2019-09-26T12:08:58Z</time>
      </trkpt>
      <trkpt lat="43.7" lon="5.05862">
        <ele>305</ele>
        <time>2019-09-26T12:09:00Z</time>
      </trkpt>
      <trkpt lat="43.69999" lon="5.05865">
        <ele>305</ele>
        <time>2019-09-26T12:09:02Z</time>
      </trkpt>
      <trkpt lat="43.69998" lon="5.05868">
        <ele>305</ele>
        <time>2019-09-26T12:09:04Z</time>
      </trkpt>
      <trkpt lat="43.69996" lon="5.0587">
        <ele>305</ele>
        <time>2019-09-26T12:09:06Z</time>
      </trkpt>
      <trkpt lat="43.69995" lon="5.05872">
        <ele>305</ele>
        <time>2019-09-26T12:09:08Z</time>
      </trkpt>
      <trkpt lat="43.69994" lon="5.05875">
        <ele>304</ele>
        <time>2019-09-26T12:09:10Z</time>
      </trkpt>
      <trkpt lat="43.69992" lon="5.05877">
        <ele>304</ele>
        <time>2019-09-26T12:09:12Z</time>
      </trkpt>
      <trkpt lat="43.6999" lon="5.05878">
        <ele>304</ele>
        <time>2019-09-26T12:09:14Z</time>
      </trkpt>
      <trkpt lat="43.69989" lon="5.0588">
        <ele>304</ele>
        <time>2019-09-26T12:09:16Z</time>
      </trkpt>
      <trkpt lat="43.69987" lon="5.05881">
        <ele>304</ele>
        <time>2019-09-26T12:09:18Z</time>
      </trkpt>
      <trkpt lat="43.69986" lon="5.05884">
        <ele>304</ele>
        <time>2019-09-26T12:09:20Z</time>
      </trkpt>
      <trkpt lat="43.69984" lon="5.05886">
        <ele>304</ele>
        <time>2019-09-26T12:09:22Z</time>
      </trkpt>
      <trkpt lat="43.69983" lon="5.05888">
        <ele>304</ele>
        <time>2019-09-26T12:09:24Z</time>
      </trkpt>
      <trkpt lat="43.69981" lon="5.05889">
        <ele>304</ele>
        <time>2019-09-26T12:09:26Z</time>
      </trkpt>
      <trkpt lat="43.6998" lon="5.05892">
        <ele>304</ele>
        <time>2019-09-26T12:09:28Z</time>
      </trkpt>
      <trkpt lat="43.69978" lon="5.05894">
        <ele>304</ele>
        <time>2019-09-26T12:09:30Z</time>
      </trkpt>
      <trkpt lat="43.69976" lon="5.05896">
        <ele>304</ele>
        <time>2019-09-26T12:09:32Z</time>
      </trkpt>
      <trkpt lat="43.69974" lon="5.05898">
        <ele>304</ele>
        <time>2019-09-26T12:09:34Z</time>
      </trkpt>
      <trkpt lat="43.69973" lon="5.059">
        <ele>304</ele>
        <time>2019-09-26T12:09:36Z</time>
      </trkpt>
      <trkpt lat="43.69971" lon="5.05901">
        <ele>304</ele>
        <time>2019-09-26T12:09:38Z</time>
      </trkpt>
      <trkpt lat="43.69969" lon="5.05903">
        <ele>304</ele>
        <time>2019-09-26T12:09:40Z</time>
      </trkpt>
      <trkpt lat="43.69967" lon="5.05905">
        <ele>304</ele>
        <time>2019-09-26T12:09:42Z</time>
      </trkpt>
      <trkpt lat="43.69966" lon="5.05908">
        <ele>304</ele>
        <time>2019-09-26T12:09:44Z</time>
      </trkpt>
      <trkpt lat="43.69964" lon="5.0591">
        <ele>304</ele>
        <time>2019-09-26T12:09:46Z</time>
      </trkpt>
      <trkpt lat="43.69963" lon="5.05912">
        <ele>304</ele>
        <time>2019-09-26T12:09:48Z</time>
      </trkpt>
      <trkpt lat="43.69962" lon="5.05914">
        <ele>304</ele>
        <time>2019-09-26T12:09:50Z</time>
      </trkpt>
      <trkpt lat="43.6996" lon="5.05917">
        <ele>304</ele>
        <time>2019-09-26T12:09:52Z</time>
      </trkpt>
      <trkpt lat="43.69959" lon="5.0592">
        <ele>304</ele>
        <time>2019-09-26T12:09:54Z</time>
      </trkpt>
      <trkpt lat="43.69958" lon="5.05922">
        <ele>304</ele>
        <time>2019-09-26T12:09:56Z</time>
      </trkpt>
      <trkpt lat="43.69957" lon="5.05925">
        <ele>304</ele>
        <time>2019-09-26T12:09:58Z</time>
      </trkpt>
      <trkpt lat="43.69957" lon="5.05925">
        <ele>304</ele>
        <time>2019-09-26T12:10:00Z</time>
      </trkpt>
      <trkpt lat="43.69957" lon="5.05928">
        <ele>304</ele>
        <time>2019-09-26T12:10:01Z</time>
      </trkpt>
      <trkpt lat="43.69958" lon="5.05932">
        <ele>304</ele>
        <time>2019-09-26T12:10:04Z</time>
      </trkpt>
      <trkpt lat="43.69958" lon="5.05935">
        <ele>304</ele>
        <time>2019-09-26T12:10:06Z</time>
      </trkpt>
      <trkpt lat="43.69958" lon="5.05939">
        <ele>304</ele>
        <time>2019-09-26T12:10:08Z</time>
      </trkpt>
      <trkpt lat="43.69958" lon="5.05942">
        <ele>303</ele>
        <time>2019-09-26T12:10:10Z</time>
      </trkpt>
      <trkpt lat="43.69959" lon="5.05945">
        <ele>303</ele>
        <time>2019-09-26T12:10:12Z</time>
      </trkpt>
      <trkpt lat="43.69959" lon="5.05949">
        <ele>303</ele>
        <time>2019-09-26T12:10:14Z</time>
      </trkpt>
      <trkpt lat="43.69959" lon="5.05952">
        <ele>303</ele>
        <time>2019-09-26T12:10:16Z</time>
      </trkpt>
      <trkpt lat="43.69959" lon="5.05955">
        <ele>303</ele>
        <time>2019-09-26T12:10:18Z</time>
      </trkpt>
      <trkpt lat="43.6996" lon="5.05958">
        <ele>302</ele>
        <time>2019-09-26T12:10:20Z</time>
      </trkpt>
      <trkpt lat="43.6996" lon="5.05961">
        <ele>302</ele>
        <time>2019-09-26T12:10:22Z</time>
      </trkpt>
      <trkpt lat="43.69961" lon="5.05964">
        <ele>302</ele>
        <time>2019-09-26T12:10:24Z</time>
      </trkpt>
      <trkpt lat="43.69962" lon="5.05967">
        <ele>302</ele>
        <time>2019-09-26T12:10:26Z</time>
      </trkpt>
      <trkpt lat="43.69962" lon="5.0597">
        <ele>302</ele>
        <time>2019-09-26T12:10:28Z</time>
      </trkpt>
      <trkpt lat="43.69963" lon="5.05973">
        <ele>302</ele>
        <time>2019-09-26T12:10:30Z</time>
      </trkpt>
      <trkpt lat="43.69963" lon="5.05977">
        <ele>302</ele>
        <time>2019-09-26T12:10:32Z</time>
      </trkpt>
      <trkpt lat="43.69964" lon="5.0598">
        <ele>302</ele>
        <time>2019-09-26T12:10:34Z</time>
      </trkpt>
      <trkpt lat="43.69964" lon="5.05983">
        <ele>302</ele>
        <time>2019-09-26T12:10:36Z</time>
      </trkpt>
      <trkpt lat="43.69964" lon="5.05986">
        <ele>302</ele>
        <time>2019-09-26T12:10:38Z</time>
      </trkpt>
      <trkpt lat="43.69965" lon="5.0599">
        <ele>303</ele>
        <time>2019-09-26T12:10:40Z</time>
      </trkpt>
      <trkpt lat="43.69965" lon="5.05993">
        <ele>303</ele>
        <time>2019-09-26T12:10:42Z</time>
      </trkpt>
      <trkpt lat="43.69966" lon="5.05997">
        <ele>303</ele>
        <time>2019-09-26T12:10:44Z</time>
      </trkpt>
      <trkpt lat="43.69966" lon="5.06">
        <ele>303</ele>
        <time>2019-09-26T12:10:46Z</time>
      </trkpt>
      <trkpt lat="43.69967" lon="5.06002">
        <ele>303</ele>
        <time>2019-09-26T12:10:48Z</time>
      </trkpt>
      <trkpt lat="43.69967" lon="5.06005">
        <ele>303</ele>
        <time>2019-09-26T12:10:50Z</time>
      </trkpt>
      <trkpt lat="43.69968" lon="5.06009">
        <ele>303</ele>
        <time>2019-09-26T12:10:52Z</time>
      </trkpt>
      <trkpt lat="43.69969" lon="5.06012">
        <ele>303</ele>
        <time>2019-09-26T12:10:54Z</time>
      </trkpt>
      <trkpt lat="43.6997" lon="5.06015">
        <ele>303</ele>
        <time>2019-09-26T12:10:56Z</time>
      </trkpt>
      <trkpt lat="43.69971" lon="5.06018">
        <ele>303</ele>
        <time>2019-09-26T12:10:58Z</time>
      </trkpt>
      <trkpt lat="43.69971" lon="5.06021">
        <ele>302</ele>
        <time>2019-09-26T12:11:00Z</time>
      </trkpt>
      <trkpt lat="43.69972" lon="5.06025">
        <ele>302</ele>
        <time>2019-09-26T12:11:03Z</time>
      </trkpt>
      <trkpt lat="43.69972" lon="5.06028">
        <ele>302</ele>
        <time>2019-09-26T12:11:05Z</time>
      </trkpt>
      <trkpt lat="43.69973" lon="5.06031">
        <ele>302</ele>
        <time>2019-09-26T12:11:07Z</time>
      </trkpt>
      <trkpt lat="43.69974" lon="5.06034">
        <ele>301</ele>
        <time>2019-09-26T12:11:10Z</time>
      </trkpt>
      <trkpt lat="43.69975" lon="5.06037">
        <ele>301</ele>
        <time>2019-09-26T12:11:12Z</time>
      </trkpt>
      <trkpt lat="43.69975" lon="5.0604">
        <ele>301</ele>
        <time>2019-09-26T12:11:14Z</time>
      </trkpt>
      <trkpt lat="43.69976" lon="5.06043">
        <ele>301</ele>
        <time>2019-09-26T12:11:16Z</time>
      </trkpt>
      <trkpt lat="43.69976" lon="5.06046">
        <ele>301</ele>
        <time>2019-09-26T12:11:18Z</time>
      </trkpt>
      <trkpt lat="43.69977" lon="5.06049">
        <ele>301</ele>
        <time>2019-09-26T12:11:20Z</time>
      </trkpt>
      <trkpt lat="43.69978" lon="5.06052">
        <ele>301</ele>
        <time>2019-09-26T12:11:22Z</time>
      </trkpt>
      <trkpt lat="43.69978" lon="5.06055">
        <ele>301</ele>
        <time>2019-09-26T12:11:24Z</time>
      </trkpt>
      <trkpt lat="43.69979" lon="5.06058">
        <ele>301</ele>
        <time>2019-09-26T12:11:26Z</time>
      </trkpt>
      <trkpt lat="43.6998" lon="5.06061">
        <ele>301</ele>
        <time>2019-09-26T12:11:28Z</time>
      </trkpt>
      <trkpt lat="43.6998" lon="5.06064">
        <ele>300</ele>
        <time>2019-09-26T12:11:30Z</time>
      </trkpt>
      <trkpt lat="43.69981" lon="5.06067">
        <ele>300</ele>
        <time>2019-09-26T12:11:32Z</time>
      </trkpt>
      <trkpt lat="43.69982" lon="5.0607">
        <ele>300</ele>
        <time>2019-09-26T12:11:35Z</time>
      </trkpt>
      <trkpt lat="43.69982" lon="5.06073">
        <ele>300</ele>
        <time>2019-09-26T12:11:37Z</time>
      </trkpt>
      <trkpt lat="43.69982" lon="5.06077">
        <ele>299</ele>
        <time>2019-09-26T12:11:40Z</time>
      </trkpt>
      <trkpt lat="43.69983" lon="5.0608">
        <ele>299</ele>
        <time>2019-09-26T12:11:42Z</time>
      </trkpt>
      <trkpt lat="43.69984" lon="5.06083">
        <ele>299</ele>
        <time>2019-09-26T12:11:44Z</time>
      </trkpt>
      <trkpt lat="43.69984" lon="5.06085">
        <ele>299</ele>
        <time>2019-09-26T12:11:46Z</time>
      </trkpt>
      <trkpt lat="43.69985" lon="5.06088">
        <ele>299</ele>
        <time>2019-09-26T12:11:48Z</time>
      </trkpt>
      <trkpt lat="43.69986" lon="5.06091">
        <ele>299</ele>
        <time>2019-09-26T12:11:50Z</time>
      </trkpt>
      <trkpt lat="43.69986" lon="5.06094">
        <ele>299</ele>
        <time>2019-09-26T12:11:52Z</time>
      </trkpt>
      <trkpt lat="43.69987" lon="5.06097">
        <ele>299</ele>
        <time>2019-09-26T12:11:54Z</time>
      </trkpt>
      <trkpt lat="43.69987" lon="5.061">
        <ele>299</ele>
        <time>2019-09-26T12:11:56Z</time>
      </trkpt>
      <trkpt lat="43.69988" lon="5.06103">
        <ele>299</ele>
        <time>2019-09-26T12:11:58Z</time>
      </trkpt>
      <trkpt lat="43.69988" lon="5.06106">
        <ele>298</ele>
        <time>2019-09-26T12:12:00Z</time>
      </trkpt>
      <trkpt lat="43.69988" lon="5.06111">
        <ele>298</ele>
        <time>2019-09-26T12:12:03Z</time>
      </trkpt>
      <trkpt lat="43.69988" lon="5.06113">
        <ele>298</ele>
        <time>2019-09-26T12:12:05Z</time>
      </trkpt>
      <trkpt lat="43.69989" lon="5.06115">
        <ele>298</ele>
        <time>2019-09-26T12:12:07Z</time>
      </trkpt>
      <trkpt lat="43.69989" lon="5.06117">
        <ele>298</ele>
        <time>2019-09-26T12:12:09Z</time>
      </trkpt>
      <trkpt lat="43.69989" lon="5.06119">
        <ele>296</ele>
        <time>2019-09-26T12:12:10Z</time>
      </trkpt>
      <trkpt lat="43.69989" lon="5.06124">
        <ele>296</ele>
        <time>2019-09-26T12:12:11Z</time>
      </trkpt>
      <trkpt lat="43.69989" lon="5.06126">
        <ele>296</ele>
        <time>2019-09-26T12:12:13Z</time>
      </trkpt>
      <trkpt lat="43.69989" lon="5.06128">
        <ele>296</ele>
        <time>2019-09-26T12:12:15Z</time>
      </trkpt>
      <trkpt lat="43.69989" lon="5.0613">
        <ele>296</ele>
        <time>2019-09-26T12:12:17Z</time>
      </trkpt>
      <trkpt lat="43.69989" lon="5.06132">
        <ele>296</ele>
        <time>2019-09-26T12:12:19Z</time>
      </trkpt>
      <trkpt lat="43.6999" lon="5.06134">
        <ele>294</ele>
        <time>2019-09-26T12:12:20Z</time>
      </trkpt>
      <trkpt lat="43.69989" lon="5.06136">
        <ele>294</ele>
        <time>2019-09-26T12:12:21Z</time>
      </trkpt>
      <trkpt lat="43.6999" lon="5.06139">
        <ele>294</ele>
        <time>2019-09-26T12:12:23Z</time>
      </trkpt>
      <trkpt lat="43.6999" lon="5.06143">
        <ele>294</ele>
        <time>2019-09-26T12:12:25Z</time>
      </trkpt>
      <trkpt lat="43.6999" lon="5.06145">
        <ele>294</ele>
        <time>2019-09-26T12:12:27Z</time>
      </trkpt>
      <trkpt lat="43.69991" lon="5.06149">
        <ele>294</ele>
        <time>2019-09-26T12:12:30Z</time>
      </trkpt>
      <trkpt lat="43.69991" lon="5.06152">
        <ele>294</ele>
        <time>2019-09-26T12:12:32Z</time>
      </trkpt>
      <trkpt lat="43.69991" lon="5.06155">
        <ele>294</ele>
        <time>2019-09-26T12:12:34Z</time>
      </trkpt>
      <trkpt lat="43.69991" lon="5.06158">
        <ele>294</ele>
        <time>2019-09-26T12:12:36Z</time>
      </trkpt>
      <trkpt lat="43.69992" lon="5.06161">
        <ele>294</ele>
        <time>2019-09-26T12:12:38Z</time>
      </trkpt>
      <trkpt lat="43.69992" lon="5.06164">
        <ele>293</ele>
        <time>2019-09-26T12:12:40Z</time>
      </trkpt>
      <trkpt lat="43.69992" lon="5.06167">
        <ele>293</ele>
        <time>2019-09-26T12:12:42Z</time>
      </trkpt>
      <trkpt lat="43.69993" lon="5.0617">
        <ele>293</ele>
        <time>2019-09-26T12:12:44Z</time>
      </trkpt>
      <trkpt lat="43.69992" lon="5.06172">
        <ele>293</ele>
        <time>2019-09-26T12:12:46Z</time>
      </trkpt>
      <trkpt lat="43.69992" lon="5.06175">
        <ele>293</ele>
        <time>2019-09-26T12:12:48Z</time>
      </trkpt>
      <trkpt lat="43.69992" lon="5.06178">
        <ele>292</ele>
        <time>2019-09-26T12:12:50Z</time>
      </trkpt>
      <trkpt lat="43.69992" lon="5.06181">
        <ele>292</ele>
        <time>2019-09-26T12:12:52Z</time>
      </trkpt>
      <trkpt lat="43.69992" lon="5.06185">
        <ele>292</ele>
        <time>2019-09-26T12:12:54Z</time>
      </trkpt>
      <trkpt lat="43.69993" lon="5.06188">
        <ele>292</ele>
        <time>2019-09-26T12:12:56Z</time>
      </trkpt>
      <trkpt lat="43.69993" lon="5.06191">
        <ele>292</ele>
        <time>2019-09-26T12:12:58Z</time>
      </trkpt>
      <trkpt lat="43.69993" lon="5.06193">
        <ele>289</ele>
        <time>2019-09-26T12:13:00Z</time>
      </trkpt>
      <trkpt lat="43.69992" lon="5.06196">
        <ele>289</ele>
        <time>2019-09-26T12:13:02Z</time>
      </trkpt>
      <trkpt lat="43.69993" lon="5.062">
        <ele>289</ele>
        <time>2019-09-26T12:13:04Z</time>
      </trkpt>
      <trkpt lat="43.69993" lon="5.06204">
        <ele>289</ele>
        <time>2019-09-26T12:13:06Z</time>
      </trkpt>
      <trkpt lat="43.69993" lon="5.06207">
        <ele>289</ele>
        <time>2019-09-26T12:13:08Z</time>
      </trkpt>
      <trkpt lat="43.69993" lon="5.0621">
        <ele>288</ele>
        <time>2019-09-26T12:13:10Z</time>
      </trkpt>
      <trkpt lat="43.69992" lon="5.06213">
        <ele>288</ele>
        <time>2019-09-26T12:13:12Z</time>
      </trkpt>
      <trkpt lat="43.69992" lon="5.06216">
        <ele>288</ele>
        <time>2019-09-26T12:13:14Z</time>
      </trkpt>
      <trkpt lat="43.69992" lon="5.06219">
        <ele>288</ele>
        <time>2019-09-26T12:13:16Z</time>
      </trkpt>
      <trkpt lat="43.69992" lon="5.06223">
        <ele>288</ele>
        <time>2019-09-26T12:13:18Z</time>
      </trkpt>
      <trkpt lat="43.69991" lon="5.06226">
        <ele>288</ele>
        <time>2019-09-26T12:13:20Z</time>
      </trkpt>
      <trkpt lat="43.69991" lon="5.06229">
        <ele>288</ele>
        <time>2019-09-26T12:13:22Z</time>
      </trkpt>
      <trkpt lat="43.69992" lon="5.06232">
        <ele>288</ele>
        <time>2019-09-26T12:13:24Z</time>
      </trkpt>
      <trkpt lat="43.69992" lon="5.06235">
        <ele>288</ele>
        <time>2019-09-26T12:13:26Z</time>
      </trkpt>
      <trkpt lat="43.69992" lon="5.06238">
        <ele>288</ele>
        <time>2019-09-26T12:13:28Z</time>
      </trkpt>
      <trkpt lat="43.69992" lon="5.06241">
        <ele>287</ele>
        <time>2019-09-26T12:13:30Z</time>
      </trkpt>
      <trkpt lat="43.69993" lon="5.06244">
        <ele>287</ele>
        <time>2019-09-26T12:13:32Z</time>
      </trkpt>
      <trkpt lat="43.69993" lon="5.06246">
        <ele>287</ele>
        <time>2019-09-26T12:13:34Z</time>
      </trkpt>
      <trkpt lat="43.69993" lon="5.06249">
        <ele>287</ele>
        <time>2019-09-26T12:13:36Z</time>
      </trkpt>
      <trkpt lat="43.69993" lon="5.06252">
        <ele>287</ele>
        <time>2019-09-26T12:13:38Z</time>
      </trkpt>
      <trkpt lat="43.69993" lon="5.06256">
        <ele>286</ele>
        <time>2019-09-26T12:13:40Z</time>
      </trkpt>
      <trkpt lat="43.69993" lon="5.06261">
        <ele>286</ele>
        <time>2019-09-26T12:13:42Z</time>
      </trkpt>
      <trkpt lat="43.69993" lon="5.06263">
        <ele>286</ele>
        <time>2019-09-26T12:13:44Z</time>
      </trkpt>
      <trkpt lat="43.69993" lon="5.06265">
        <ele>286</ele>
        <time>2019-09-26T12:13:46Z</time>
      </trkpt>
      <trkpt lat="43.69993" lon="5.06267">
        <ele>286</ele>
        <time>2019-09-26T12:13:49Z</time>
      </trkpt>
      <trkpt lat="43.69993" lon="5.06269">
        <ele>286</ele>
        <time>2019-09-26T12:13:50Z</time>
      </trkpt>
      <trkpt lat="43.69993" lon="5.06275">
        <ele>286</ele>
        <time>2019-09-26T12:13:51Z</time>
      </trkpt>
      <trkpt lat="43.69993" lon="5.06277">
        <ele>286</ele>
        <time>2019-09-26T12:13:53Z</time>
      </trkpt>
      <trkpt lat="43.69993" lon="5.06279">
        <ele>286</ele>
        <time>2019-09-26T12:13:55Z</time>
      </trkpt>
      <trkpt lat="43.69993" lon="5.06281">
        <ele>286</ele>
        <time>2019-09-26T12:13:57Z</time>
      </trkpt>
      <trkpt lat="43.69993" lon="5.06284">
        <ele>286</ele>
        <time>2019-09-26T12:13:59Z</time>
      </trkpt>
      <trkpt lat="43.69993" lon="5.06286">
        <ele>286</ele>
        <time>2019-09-26T12:14:00Z</time>
      </trkpt>
      <trkpt lat="43.69993" lon="5.0629">
        <ele>286</ele>
        <time>2019-09-26T12:14:01Z</time>
      </trkpt>
      <trkpt lat="43.69993" lon="5.06292">
        <ele>286</ele>
        <time>2019-09-26T12:14:03Z</time>
      </trkpt>
      <trkpt lat="43.69993" lon="5.06295">
        <ele>286</ele>
        <time>2019-09-26T12:14:05Z</time>
      </trkpt>
      <trkpt lat="43.69993" lon="5.06297">
        <ele>286</ele>
        <time>2019-09-26T12:14:07Z</time>
      </trkpt>
      <trkpt lat="43.69994" lon="5.063">
        <ele>286</ele>
        <time>2019-09-26T12:14:09Z</time>
      </trkpt>
      <trkpt lat="43.69994" lon="5.06302">
        <ele>284</ele>
        <time>2019-09-26T12:14:10Z</time>
      </trkpt>
      <trkpt lat="43.69994" lon="5.06306">
        <ele>284</ele>
        <time>2019-09-26T12:14:11Z</time>
      </trkpt>
      <trkpt lat="43.69994" lon="5.06308">
        <ele>284</ele>
        <time>2019-09-26T12:14:13Z</time>
      </trkpt>
      <trkpt lat="43.69994" lon="5.0631">
        <ele>284</ele>
        <time>2019-09-26T12:14:15Z</time>
      </trkpt>
      <trkpt lat="43.69995" lon="5.06313">
        <ele>284</ele>
        <time>2019-09-26T12:14:17Z</time>
      </trkpt>
      <trkpt lat="43.69995" lon="5.06315">
        <ele>284</ele>
        <time>2019-09-26T12:14:19Z</time>
      </trkpt>
      <trkpt lat="43.69995" lon="5.06317">
        <ele>283</ele>
        <time>2019-09-26T12:14:20Z</time>
      </trkpt>
      <trkpt lat="43.69995" lon="5.06321">
        <ele>283</ele>
        <time>2019-09-26T12:14:21Z</time>
      </trkpt>
      <trkpt lat="43.69995" lon="5.06323">
        <ele>283</ele>
        <time>2019-09-26T12:14:23Z</time>
      </trkpt>
      <trkpt lat="43.69995" lon="5.06326">
        <ele>283</ele>
        <time>2019-09-26T12:14:25Z</time>
      </trkpt>
      <trkpt lat="43.69996" lon="5.06328">
        <ele>283</ele>
        <time>2019-09-26T12:14:27Z</time>
      </trkpt>
      <trkpt lat="43.69996" lon="5.0633">
        <ele>283</ele>
        <time>2019-09-26T12:14:29Z</time>
      </trkpt>
      <trkpt lat="43.69996" lon="5.06333">
        <ele>283</ele>
        <time>2019-09-26T12:14:30Z</time>
      </trkpt>
      <trkpt lat="43.69996" lon="5.06334">
        <ele>283</ele>
        <time>2019-09-26T12:14:31Z</time>
      </trkpt>
      <trkpt lat="43.69996" lon="5.06338">
        <ele>283</ele>
        <time>2019-09-26T12:14:33Z</time>
      </trkpt>
      <trkpt lat="43.69996" lon="5.06341">
        <ele>283</ele>
        <time>2019-09-26T12:14:35Z</time>
      </trkpt>
      <trkpt lat="43.69997" lon="5.06344">
        <ele>283</ele>
        <time>2019-09-26T12:14:38Z</time>
      </trkpt>
      <trkpt lat="43.69997" lon="5.06347">
        <ele>282</ele>
        <time>2019-09-26T12:14:40Z</time>
      </trkpt>
      <trkpt lat="43.69996" lon="5.0635">
        <ele>282</ele>
        <time>2019-09-26T12:14:42Z</time>
      </trkpt>
      <trkpt lat="43.69997" lon="5.06354">
        <ele>282</ele>
        <time>2019-09-26T12:14:44Z</time>
      </trkpt>
      <trkpt lat="43.69996" lon="5.06356">
        <ele>282</ele>
        <time>2019-09-26T12:14:46Z</time>
      </trkpt>
      <trkpt lat="43.69996" lon="5.06359">
        <ele>282</ele>
        <time>2019-09-26T12:14:48Z</time>
      </trkpt>
      <trkpt lat="43.69996" lon="5.06362">
        <ele>281</ele>
        <time>2019-09-26T12:14:50Z</time>
      </trkpt>
      <trkpt lat="43.69996" lon="5.06365">
        <ele>281</ele>
        <time>2019-09-26T12:14:52Z</time>
      </trkpt>
      <trkpt lat="43.69995" lon="5.06368">
        <ele>281</ele>
        <time>2019-09-26T12:14:54Z</time>
      </trkpt>
      <trkpt lat="43.69995" lon="5.06371">
        <ele>281</ele>
        <time>2019-09-26T12:14:56Z</time>
      </trkpt>
      <trkpt lat="43.69994" lon="5.06374">
        <ele>281</ele>
        <time>2019-09-26T12:14:58Z</time>
      </trkpt>
      <trkpt lat="43.69994" lon="5.06377">
        <ele>281</ele>
        <time>2019-09-26T12:15:00Z</time>
      </trkpt>
      <trkpt lat="43.69994" lon="5.0638">
        <ele>281</ele>
        <time>2019-09-26T12:15:02Z</time>
      </trkpt>
      <trkpt lat="43.69994" lon="5.06383">
        <ele>281</ele>
        <time>2019-09-26T12:15:04Z</time>
      </trkpt>
      <trkpt lat="43.69994" lon="5.06386">
        <ele>281</ele>
        <time>2019-09-26T12:15:06Z</time>
      </trkpt>
      <trkpt lat="43.69993" lon="5.0639">
        <ele>281</ele>
        <time>2019-09-26T12:15:08Z</time>
      </trkpt>
      <trkpt lat="43.69993" lon="5.06393">
        <ele>280</ele>
        <time>2019-09-26T12:15:10Z</time>
      </trkpt>
      <trkpt lat="43.69993" lon="5.06396">
        <ele>280</ele>
        <time>2019-09-26T12:15:12Z</time>
      </trkpt>
      <trkpt lat="43.69993" lon="5.06398">
        <ele>280</ele>
        <time>2019-09-26T12:15:14Z</time>
      </trkpt>
      <trkpt lat="43.69993" lon="5.06401">
        <ele>280</ele>
        <time>2019-09-26T12:15:16Z</time>
      </trkpt>
      <trkpt lat="43.69992" lon="5.06404">
        <ele>280</ele>
        <time>2019-09-26T12:15:18Z</time>
      </trkpt>
      <trkpt lat="43.69992" lon="5.06408">
        <ele>279</ele>
        <time>2019-09-26T12:15:20Z</time>
      </trkpt>
      <trkpt lat="43.69992" lon="5.06411">
        <ele>279</ele>
        <time>2019-09-26T12:15:22Z</time>
      </trkpt>
      <trkpt lat="43.69992" lon="5.06414">
        <ele>279</ele>
        <time>2019-09-26T12:15:24Z</time>
      </trkpt>
      <trkpt lat="43.69991" lon="5.06417">
        <ele>279</ele>
        <time>2019-09-26T12:15:26Z</time>
      </trkpt>
      <trkpt lat="43.69991" lon="5.0642">
        <ele>279</ele>
        <time>2019-09-26T12:15:28Z</time>
      </trkpt>
      <trkpt lat="43.69991" lon="5.06424">
        <ele>278</ele>
        <time>2019-09-26T12:15:30Z</time>
      </trkpt>
      <trkpt lat="43.6999" lon="5.06427">
        <ele>278</ele>
        <time>2019-09-26T12:15:32Z</time>
      </trkpt>
      <trkpt lat="43.6999" lon="5.0643">
        <ele>278</ele>
        <time>2019-09-26T12:15:34Z</time>
      </trkpt>
      <trkpt lat="43.6999" lon="5.06432">
        <ele>278</ele>
        <time>2019-09-26T12:15:36Z</time>
      </trkpt>
      <trkpt lat="43.6999" lon="5.06435">
        <ele>278</ele>
        <time>2019-09-26T12:15:38Z</time>
      </trkpt>
      <trkpt lat="43.6999" lon="5.06439">
        <ele>277</ele>
        <time>2019-09-26T12:15:40Z</time>
      </trkpt>
      <trkpt lat="43.69989" lon="5.06442">
        <ele>277</ele>
        <time>2019-09-26T12:15:42Z</time>
      </trkpt>
      <trkpt lat="43.69989" lon="5.06444">
        <ele>277</ele>
        <time>2019-09-26T12:15:44Z</time>
      </trkpt>
      <trkpt lat="43.69989" lon="5.06447">
        <ele>277</ele>
        <time>2019-09-26T12:15:46Z</time>
      </trkpt>
      <trkpt lat="43.69989" lon="5.0645">
        <ele>277</ele>
        <time>2019-09-26T12:15:48Z</time>
      </trkpt>
      <trkpt lat="43.69989" lon="5.06453">
        <ele>276</ele>
        <time>2019-09-26T12:15:50Z</time>
      </trkpt>
      <trkpt lat="43.69988" lon="5.06456">
        <ele>276</ele>
        <time>2019-09-26T12:15:52Z</time>
      </trkpt>
      <trkpt lat="43.69987" lon="5.06458">
        <ele>276</ele>
        <time>2019-09-26T12:15:55Z</time>
      </trkpt>
      <trkpt lat="43.69987" lon="5.06461">
        <ele>275</ele>
        <time>2019-09-26T12:16:00Z</time>
      </trkpt>
      <trkpt lat="43.69987" lon="5.06464">
        <ele>275</ele>
        <time>2019-09-26T12:16:02Z</time>
      </trkpt>
      <trkpt lat="43.69986" lon="5.06467">
        <ele>275</ele>
        <time>2019-09-26T12:16:04Z</time>
      </trkpt>
      <trkpt lat="43.69986" lon="5.0647">
        <ele>275</ele>
        <time>2019-09-26T12:16:06Z</time>
      </trkpt>
      <trkpt lat="43.69986" lon="5.06473">
        <ele>275</ele>
        <time>2019-09-26T12:16:08Z</time>
      </trkpt>
      <trkpt lat="43.69985" lon="5.06476">
        <ele>275</ele>
        <time>2019-09-26T12:16:10Z</time>
      </trkpt>
      <trkpt lat="43.69985" lon="5.0648">
        <ele>275</ele>
        <time>2019-09-26T12:16:12Z</time>
      </trkpt>
      <trkpt lat="43.69985" lon="5.06483">
        <ele>275</ele>
        <time>2019-09-26T12:16:14Z</time>
      </trkpt>
      <trkpt lat="43.69984" lon="5.06486">
        <ele>275</ele>
        <time>2019-09-26T12:16:16Z</time>
      </trkpt>
      <trkpt lat="43.69984" lon="5.06488">
        <ele>275</ele>
        <time>2019-09-26T12:16:18Z</time>
      </trkpt>
      <trkpt lat="43.69984" lon="5.06491">
        <ele>274</ele>
        <time>2019-09-26T12:16:20Z</time>
      </trkpt>
      <trkpt lat="43.69983" lon="5.06494">
        <ele>274</ele>
        <time>2019-09-26T12:16:22Z</time>
      </trkpt>
      <trkpt lat="43.69983" lon="5.06497">
        <ele>274</ele>
        <time>2019-09-26T12:16:24Z</time>
      </trkpt>
      <trkpt lat="43.69982" lon="5.065">
        <ele>274</ele>
        <time>2019-09-26T12:16:26Z</time>
      </trkpt>
      <trkpt lat="43.69982" lon="5.06504">
        <ele>274</ele>
        <time>2019-09-26T12:16:28Z</time>
      </trkpt>
      <trkpt lat="43.69981" lon="5.06507">
        <ele>273</ele>
        <time>2019-09-26T12:16:30Z</time>
      </trkpt>
      <trkpt lat="43.6998" lon="5.06513">
        <ele>273</ele>
        <time>2019-09-26T12:16:33Z</time>
      </trkpt>
      <trkpt lat="43.6998" lon="5.06514">
        <ele>273</ele>
        <time>2019-09-26T12:16:36Z</time>
      </trkpt>
      <trkpt lat="43.6998" lon="5.06516">
        <ele>273</ele>
        <time>2019-09-26T12:16:39Z</time>
      </trkpt>
      <trkpt lat="43.69979" lon="5.06518">
        <ele>272</ele>
        <time>2019-09-26T12:16:40Z</time>
      </trkpt>
      <trkpt lat="43.69979" lon="5.06521">
        <ele>272</ele>
        <time>2019-09-26T12:16:42Z</time>
      </trkpt>
      <trkpt lat="43.69978" lon="5.06524">
        <ele>272</ele>
        <time>2019-09-26T12:16:44Z</time>
      </trkpt>
      <trkpt lat="43.69977" lon="5.06526">
        <ele>272</ele>
        <time>2019-09-26T12:16:47Z</time>
      </trkpt>
      <trkpt lat="43.69976" lon="5.06529">
        <ele>271</ele>
        <time>2019-09-26T12:16:50Z</time>
      </trkpt>
      <trkpt lat="43.69976" lon="5.06534">
        <ele>271</ele>
        <time>2019-09-26T12:16:53Z</time>
      </trkpt>
      <trkpt lat="43.69976" lon="5.06535">
        <ele>271</ele>
        <time>2019-09-26T12:16:55Z</time>
      </trkpt>
      <trkpt lat="43.69975" lon="5.06537">
        <ele>271</ele>
        <time>2019-09-26T12:16:57Z</time>
      </trkpt>
      <trkpt lat="43.69975" lon="5.06539">
        <ele>271</ele>
        <time>2019-09-26T12:16:59Z</time>
      </trkpt>
      <trkpt lat="43.69975" lon="5.0654">
        <ele>270</ele>
        <time>2019-09-26T12:17:00Z</time>
      </trkpt>
      <trkpt lat="43.69974" lon="5.06545">
        <ele>270</ele>
        <time>2019-09-26T12:17:01Z</time>
      </trkpt>
      <trkpt lat="43.69973" lon="5.06547">
        <ele>270</ele>
        <time>2019-09-26T12:17:03Z</time>
      </trkpt>
      <trkpt lat="43.69973" lon="5.06549">
        <ele>270</ele>
        <time>2019-09-26T12:17:05Z</time>
      </trkpt>
      <trkpt lat="43.69973" lon="5.06551">
        <ele>270</ele>
        <time>2019-09-26T12:17:07Z</time>
      </trkpt>
      <trkpt lat="43.69972" lon="5.06553">
        <ele>270</ele>
        <time>2019-09-26T12:17:09Z</time>
      </trkpt>
      <trkpt lat="43.69972" lon="5.06555">
        <ele>269</ele>
        <time>2019-09-26T12:17:10Z</time>
      </trkpt>
      <trkpt lat="43.69971" lon="5.06556">
        <ele>269</ele>
        <time>2019-09-26T12:17:11Z</time>
      </trkpt>
      <trkpt lat="43.69971" lon="5.0656">
        <ele>269</ele>
        <time>2019-09-26T12:17:14Z</time>
      </trkpt>
      <trkpt lat="43.6997" lon="5.06562">
        <ele>269</ele>
        <time>2019-09-26T12:17:16Z</time>
      </trkpt>
      <trkpt lat="43.69969" lon="5.06565">
        <ele>269</ele>
        <time>2019-09-26T12:17:18Z</time>
      </trkpt>
      <trkpt lat="43.69968" lon="5.06567">
        <ele>267</ele>
        <time>2019-09-26T12:17:20Z</time>
      </trkpt>
      <trkpt lat="43.69967" lon="5.06572">
        <ele>267</ele>
        <time>2019-09-26T12:17:22Z</time>
      </trkpt>
      <trkpt lat="43.69967" lon="5.06573">
        <ele>267</ele>
        <time>2019-09-26T12:17:25Z</time>
      </trkpt>
      <trkpt lat="43.69966" lon="5.06575">
        <ele>267</ele>
        <time>2019-09-26T12:17:27Z</time>
      </trkpt>
      <trkpt lat="43.69966" lon="5.06577">
        <ele>267</ele>
        <time>2019-09-26T12:17:29Z</time>
      </trkpt>
      <trkpt lat="43.69966" lon="5.06578">
        <ele>266</ele>
        <time>2019-09-26T12:17:30Z</time>
      </trkpt>
      <trkpt lat="43.69965" lon="5.06581">
        <ele>266</ele>
        <time>2019-09-26T12:17:31Z</time>
      </trkpt>
      <trkpt lat="43.69965" lon="5.06583">
        <ele>266</ele>
        <time>2019-09-26T12:17:33Z</time>
      </trkpt>
      <trkpt lat="43.69964" lon="5.06587">
        <ele>266</ele>
        <time>2019-09-26T12:17:36Z</time>
      </trkpt>
      <trkpt lat="43.69963" lon="5.0659">
        <ele>266</ele>
        <time>2019-09-26T12:17:38Z</time>
      </trkpt>
      <trkpt lat="43.69962" lon="5.06593">
        <ele>265</ele>
        <time>2019-09-26T12:17:40Z</time>
      </trkpt>
      <trkpt lat="43.69961" lon="5.06597">
        <ele>265</ele>
        <time>2019-09-26T12:17:42Z</time>
      </trkpt>
      <trkpt lat="43.69961" lon="5.06599">
        <ele>265</ele>
        <time>2019-09-26T12:17:50Z</time>
      </trkpt>
      <trkpt lat="43.6996" lon="5.06601">
        <ele>265</ele>
        <time>2019-09-26T12:17:51Z</time>
      </trkpt>
      <trkpt lat="43.6996" lon="5.06603">
        <ele>265</ele>
        <time>2019-09-26T12:17:53Z</time>
      </trkpt>
      <trkpt lat="43.69959" lon="5.06605">
        <ele>265</ele>
        <time>2019-09-26T12:17:55Z</time>
      </trkpt>
      <trkpt lat="43.69959" lon="5.06606">
        <ele>265</ele>
        <time>2019-09-26T12:17:57Z</time>
      </trkpt>
      <trkpt lat="43.69959" lon="5.06608">
        <ele>265</ele>
        <time>2019-09-26T12:17:59Z</time>
      </trkpt>
      <trkpt lat="43.69958" lon="5.0661">
        <ele>264</ele>
        <time>2019-09-26T12:18:00Z</time>
      </trkpt>
      <trkpt lat="43.69958" lon="5.06612">
        <ele>264</ele>
        <time>2019-09-26T12:18:02Z</time>
      </trkpt>
      <trkpt lat="43.69957" lon="5.06615">
        <ele>264</ele>
        <time>2019-09-26T12:18:05Z</time>
      </trkpt>
      <trkpt lat="43.69956" lon="5.06618">
        <ele>264</ele>
        <time>2019-09-26T12:18:08Z</time>
      </trkpt>
      <trkpt lat="43.69956" lon="5.06618">
        <ele>263</ele>
        <time>2019-09-26T12:18:10Z</time>
      </trkpt>
      <trkpt lat="43.69955" lon="5.06621">
        <ele>263</ele>
        <time>2019-09-26T12:18:11Z</time>
      </trkpt>
      <trkpt lat="43.69954" lon="5.06623">
        <ele>263</ele>
        <time>2019-09-26T12:18:13Z</time>
      </trkpt>
      <trkpt lat="43.69954" lon="5.06623">
        <ele>263</ele>
        <time>2019-09-26T12:18:20Z</time>
      </trkpt>
      <trkpt lat="43.69952" lon="5.06625">
        <ele>263</ele>
        <time>2019-09-26T12:18:22Z</time>
      </trkpt>
      <trkpt lat="43.69952" lon="5.06629">
        <ele>263</ele>
        <time>2019-09-26T12:18:25Z</time>
      </trkpt>
      <trkpt lat="43.69951" lon="5.06631">
        <ele>263</ele>
        <time>2019-09-26T12:18:27Z</time>
      </trkpt>
      <trkpt lat="43.6995" lon="5.06635">
        <ele>262</ele>
        <time>2019-09-26T12:18:30Z</time>
      </trkpt>
      <trkpt lat="43.69949" lon="5.06637">
        <ele>262</ele>
        <time>2019-09-26T12:18:33Z</time>
      </trkpt>
      <trkpt lat="43.69949" lon="5.06637">
        <ele>262</ele>
        <time>2019-09-26T12:18:40Z</time>
      </trkpt>
      <trkpt lat="43.69949" lon="5.06636">
        <ele>261</ele>
        <time>2019-09-26T12:18:47Z</time>
      </trkpt>
      <trkpt lat="43.69947" lon="5.06646">
        <ele>261</ele>
        <time>2019-09-26T12:19:04Z</time>
      </trkpt>
      <trkpt lat="43.69946" lon="5.06647">
        <ele>260</ele>
        <time>2019-09-26T12:19:12Z</time>
      </trkpt>
      <trkpt lat="43.69946" lon="5.06647">
        <ele>260</ele>
        <time>2019-09-26T12:19:13Z</time>
      </trkpt>
      <trkpt lat="43.69943" lon="5.06659">
        <ele>260</ele>
        <time>2019-09-26T12:19:21Z</time>
      </trkpt>
      <trkpt lat="43.69943" lon="5.0666">
        <ele>260</ele>
        <time>2019-09-26T12:19:22Z</time>
      </trkpt>
      <trkpt lat="43.69942" lon="5.06663">
        <ele>260</ele>
        <time>2019-09-26T12:19:24Z</time>
      </trkpt>
      <trkpt lat="43.69941" lon="5.06665">
        <ele>260</ele>
        <time>2019-09-26T12:19:26Z</time>
      </trkpt>
      <trkpt lat="43.69941" lon="5.06668">
        <ele>260</ele>
        <time>2019-09-26T12:19:28Z</time>
      </trkpt>
      <trkpt lat="43.6994" lon="5.06671">
        <ele>259</ele>
        <time>2019-09-26T12:19:30Z</time>
      </trkpt>
      <trkpt lat="43.69939" lon="5.06676">
        <ele>259</ele>
        <time>2019-09-26T12:19:33Z</time>
      </trkpt>
      <trkpt lat="43.69939" lon="5.06678">
        <ele>259</ele>
        <time>2019-09-26T12:19:35Z</time>
      </trkpt>
      <trkpt lat="43.69938" lon="5.06679">
        <ele>259</ele>
        <time>2019-09-26T12:19:37Z</time>
      </trkpt>
      <trkpt lat="43.69938" lon="5.06681">
        <ele>259</ele>
        <time>2019-09-26T12:19:39Z</time>
      </trkpt>
      <trkpt lat="43.69937" lon="5.06683">
        <ele>258</ele>
        <time>2019-09-26T12:19:40Z</time>
      </trkpt>
      <trkpt lat="43.69937" lon="5.06687">
        <ele>258</ele>
        <time>2019-09-26T12:19:42Z</time>
      </trkpt>
      <trkpt lat="43.69936" lon="5.0669">
        <ele>258</ele>
        <time>2019-09-26T12:19:44Z</time>
      </trkpt>
      <trkpt lat="43.69935" lon="5.06692">
        <ele>258</ele>
        <time>2019-09-26T12:19:46Z</time>
      </trkpt>
      <trkpt lat="43.69934" lon="5.06695">
        <ele>258</ele>
        <time>2019-09-26T12:19:48Z</time>
      </trkpt>
      <trkpt lat="43.69933" lon="5.06697">
        <ele>258</ele>
        <time>2019-09-26T12:19:50Z</time>
      </trkpt>
      <trkpt lat="43.69932" lon="5.06702">
        <ele>258</ele>
        <time>2019-09-26T12:19:52Z</time>
      </trkpt>
      <trkpt lat="43.69931" lon="5.06704">
        <ele>258</ele>
        <time>2019-09-26T12:19:54Z</time>
      </trkpt>
      <trkpt lat="43.69931" lon="5.06706">
        <ele>258</ele>
        <time>2019-09-26T12:19:56Z</time>
      </trkpt>
      <trkpt lat="43.69931" lon="5.06708">
        <ele>258</ele>
        <time>2019-09-26T12:19:59Z</time>
      </trkpt>
      <trkpt lat="43.6993" lon="5.06709">
        <ele>256</ele>
        <time>2019-09-26T12:20:00Z</time>
      </trkpt>
      <trkpt lat="43.69929" lon="5.06714">
        <ele>256</ele>
        <time>2019-09-26T12:20:01Z</time>
      </trkpt>
      <trkpt lat="43.69929" lon="5.06716">
        <ele>256</ele>
        <time>2019-09-26T12:20:03Z</time>
      </trkpt>
      <trkpt lat="43.69928" lon="5.06719">
        <ele>256</ele>
        <time>2019-09-26T12:20:05Z</time>
      </trkpt>
      <trkpt lat="43.69928" lon="5.06721">
        <ele>256</ele>
        <time>2019-09-26T12:20:07Z</time>
      </trkpt>
      <trkpt lat="43.69927" lon="5.06723">
        <ele>256</ele>
        <time>2019-09-26T12:20:09Z</time>
      </trkpt>
      <trkpt lat="43.69927" lon="5.06725">
        <ele>254</ele>
        <time>2019-09-26T12:20:10Z</time>
      </trkpt>
      <trkpt lat="43.69926" lon="5.06728">
        <ele>254</ele>
        <time>2019-09-26T12:20:11Z</time>
      </trkpt>
      <trkpt lat="43.69926" lon="5.0673">
        <ele>254</ele>
        <time>2019-09-26T12:20:13Z</time>
      </trkpt>
      <trkpt lat="43.69926" lon="5.06732">
        <ele>254</ele>
        <time>2019-09-26T12:20:15Z</time>
      </trkpt>
      <trkpt lat="43.69926" lon="5.06734">
        <ele>254</ele>
        <time>2019-09-26T12:20:17Z</time>
      </trkpt>
      <trkpt lat="43.69925" lon="5.06736">
        <ele>254</ele>
        <time>2019-09-26T12:20:19Z</time>
      </trkpt>
      <trkpt lat="43.69925" lon="5.06738">
        <ele>254</ele>
        <time>2019-09-26T12:20:20Z</time>
      </trkpt>
      <trkpt lat="43.69923" lon="5.06743">
        <ele>254</ele>
        <time>2019-09-26T12:20:21Z</time>
      </trkpt>
      <trkpt lat="43.69922" lon="5.06745">
        <ele>254</ele>
        <time>2019-09-26T12:20:23Z</time>
      </trkpt>
      <trkpt lat="43.69922" lon="5.06747">
        <ele>254</ele>
        <time>2019-09-26T12:20:25Z</time>
      </trkpt>
      <trkpt lat="43.69921" lon="5.06749">
        <ele>254</ele>
        <time>2019-09-26T12:20:27Z</time>
      </trkpt>
      <trkpt lat="43.6992" lon="5.06751">
        <ele>254</ele>
        <time>2019-09-26T12:20:29Z</time>
      </trkpt>
      <trkpt lat="43.69919" lon="5.06753">
        <ele>253</ele>
        <time>2019-09-26T12:20:30Z</time>
      </trkpt>
      <trkpt lat="43.69919" lon="5.06756">
        <ele>253</ele>
        <time>2019-09-26T12:20:31Z</time>
      </trkpt>
      <trkpt lat="43.69919" lon="5.06758">
        <ele>253</ele>
        <time>2019-09-26T12:20:33Z</time>
      </trkpt>
      <trkpt lat="43.69918" lon="5.0676">
        <ele>253</ele>
        <time>2019-09-26T12:20:35Z</time>
      </trkpt>
      <trkpt lat="43.69918" lon="5.06761">
        <ele>253</ele>
        <time>2019-09-26T12:20:37Z</time>
      </trkpt>
      <trkpt lat="43.69918" lon="5.06763">
        <ele>253</ele>
        <time>2019-09-26T12:20:39Z</time>
      </trkpt>
      <trkpt lat="43.69918" lon="5.06765">
        <ele>252</ele>
        <time>2019-09-26T12:20:40Z</time>
      </trkpt>
      <trkpt lat="43.69918" lon="5.06768">
        <ele>250</ele>
        <time>2019-09-26T12:20:46Z</time>
      </trkpt>
      <trkpt lat="43.69919" lon="5.06776">
        <ele>250</ele>
        <time>2019-09-26T12:20:53Z</time>
      </trkpt>
      <trkpt lat="43.69919" lon="5.06777">
        <ele>250</ele>
        <time>2019-09-26T12:20:54Z</time>
      </trkpt>
      <trkpt lat="43.6992" lon="5.0678">
        <ele>250</ele>
        <time>2019-09-26T12:20:56Z</time>
      </trkpt>
      <trkpt lat="43.69921" lon="5.06782">
        <ele>250</ele>
        <time>2019-09-26T12:20:58Z</time>
      </trkpt>
      <trkpt lat="43.69921" lon="5.06785">
        <ele>250</ele>
        <time>2019-09-26T12:21:00Z</time>
      </trkpt>
      <trkpt lat="43.69921" lon="5.06788">
        <ele>249</ele>
        <time>2019-09-26T12:21:02Z</time>
      </trkpt>
      <trkpt lat="43.69922" lon="5.06791">
        <ele>249</ele>
        <time>2019-09-26T12:21:04Z</time>
      </trkpt>
      <trkpt lat="43.69923" lon="5.06794">
        <ele>249</ele>
        <time>2019-09-26T12:21:08Z</time>
      </trkpt>
      <trkpt lat="43.69923" lon="5.06794">
        <ele>249</ele>
        <time>2019-09-26T12:21:12Z</time>
      </trkpt>
      <trkpt lat="43.69923" lon="5.06796">
        <ele>249</ele>
        <time>2019-09-26T12:21:17Z</time>
      </trkpt>
      <trkpt lat="43.69924" lon="5.068">
        <ele>249</ele>
        <time>2019-09-26T12:21:20Z</time>
      </trkpt>
      <trkpt lat="43.69925" lon="5.06803">
        <ele>248</ele>
        <time>2019-09-26T12:21:22Z</time>
      </trkpt>
      <trkpt lat="43.69926" lon="5.06806">
        <ele>248</ele>
        <time>2019-09-26T12:21:27Z</time>
      </trkpt>
      <trkpt lat="43.69926" lon="5.06806">
        <ele>247</ele>
        <time>2019-09-26T12:21:32Z</time>
      </trkpt>
      <trkpt lat="43.69926" lon="5.06807">
        <ele>247</ele>
        <time>2019-09-26T12:21:37Z</time>
      </trkpt>
      <trkpt lat="43.6993" lon="5.06828">
        <ele>247</ele>
        <time>2019-09-26T12:22:25Z</time>
      </trkpt>
      <trkpt lat="43.6993" lon="5.0683">
        <ele>247</ele>
        <time>2019-09-26T12:22:30Z</time>
      </trkpt>
      <trkpt lat="43.69931" lon="5.06833">
        <ele>247</ele>
        <time>2019-09-26T12:22:34Z</time>
      </trkpt>
      <trkpt lat="43.69932" lon="5.06836">
        <ele>247</ele>
        <time>2019-09-26T12:22:37Z</time>
      </trkpt>
      <trkpt lat="43.69933" lon="5.06838">
        <ele>247</ele>
        <time>2019-09-26T12:22:39Z</time>
      </trkpt>
      <trkpt lat="43.69934" lon="5.06841">
        <ele>247</ele>
        <time>2019-09-26T12:22:41Z</time>
      </trkpt>
      <trkpt lat="43.69935" lon="5.06844">
        <ele>246</ele>
        <time>2019-09-26T12:22:44Z</time>
      </trkpt>
      <trkpt lat="43.69936" lon="5.06846">
        <ele>246</ele>
        <time>2019-09-26T12:22:46Z</time>
      </trkpt>
      <trkpt lat="43.69937" lon="5.06849">
        <ele>246</ele>
        <time>2019-09-26T12:22:49Z</time>
      </trkpt>
      <trkpt lat="43.69938" lon="5.06851">
        <ele>246</ele>
        <time>2019-09-26T12:22:52Z</time>
      </trkpt>
      <trkpt lat="43.69938" lon="5.06851">
        <ele>246</ele>
        <time>2019-09-26T12:22:54Z</time>
      </trkpt>
      <trkpt lat="43.6994" lon="5.06854">
        <ele>246</ele>
        <time>2019-09-26T12:22:55Z</time>
      </trkpt>
      <trkpt lat="43.69941" lon="5.06856">
        <ele>246</ele>
        <time>2019-09-26T12:22:57Z</time>
      </trkpt>
      <trkpt lat="43.69943" lon="5.06859">
        <ele>246</ele>
        <time>2019-09-26T12:23:00Z</time>
      </trkpt>
      <trkpt lat="43.69944" lon="5.06862">
        <ele>246</ele>
        <time>2019-09-26T12:23:02Z</time>
      </trkpt>
      <trkpt lat="43.69946" lon="5.06864">
        <ele>246</ele>
        <time>2019-09-26T12:23:04Z</time>
      </trkpt>
      <trkpt lat="43.69948" lon="5.06866">
        <ele>246</ele>
        <time>2019-09-26T12:23:06Z</time>
      </trkpt>
      <trkpt lat="43.69949" lon="5.06867">
        <ele>246</ele>
        <time>2019-09-26T12:23:08Z</time>
      </trkpt>
      <trkpt lat="43.69951" lon="5.06869">
        <ele>246</ele>
        <time>2019-09-26T12:23:10Z</time>
      </trkpt>
      <trkpt lat="43.69952" lon="5.06871">
        <ele>246</ele>
        <time>2019-09-26T12:23:12Z</time>
      </trkpt>
      <trkpt lat="43.69954" lon="5.06873">
        <ele>247</ele>
        <time>2019-09-26T12:23:14Z</time>
      </trkpt>
      <trkpt lat="43.69956" lon="5.06876">
        <ele>247</ele>
        <time>2019-09-26T12:23:16Z</time>
      </trkpt>
      <trkpt lat="43.69958" lon="5.06878">
        <ele>247</ele>
        <time>2019-09-26T12:23:18Z</time>
      </trkpt>
      <trkpt lat="43.69959" lon="5.06879">
        <ele>247</ele>
        <time>2019-09-26T12:23:20Z</time>
      </trkpt>
      <trkpt lat="43.6996" lon="5.0688">
        <ele>247</ele>
        <time>2019-09-26T12:23:23Z</time>
      </trkpt>
      <trkpt lat="43.69961" lon="5.06881">
        <ele>247</ele>
        <time>2019-09-26T12:23:24Z</time>
      </trkpt>
      <trkpt lat="43.69963" lon="5.06885">
        <ele>247</ele>
        <time>2019-09-26T12:23:25Z</time>
      </trkpt>
      <trkpt lat="43.69964" lon="5.06886">
        <ele>247</ele>
        <time>2019-09-26T12:23:27Z</time>
      </trkpt>
      <trkpt lat="43.69965" lon="5.06888">
        <ele>247</ele>
        <time>2019-09-26T12:23:29Z</time>
      </trkpt>
      <trkpt lat="43.69966" lon="5.06889">
        <ele>247</ele>
        <time>2019-09-26T12:23:31Z</time>
      </trkpt>
      <trkpt lat="43.69967" lon="5.06891">
        <ele>247</ele>
        <time>2019-09-26T12:23:33Z</time>
      </trkpt>
      <trkpt lat="43.69968" lon="5.06892">
        <ele>246</ele>
        <time>2019-09-26T12:23:34Z</time>
      </trkpt>
      <trkpt lat="43.69969" lon="5.06894">
        <ele>246</ele>
        <time>2019-09-26T12:23:36Z</time>
      </trkpt>
      <trkpt lat="43.69971" lon="5.06897">
        <ele>246</ele>
        <time>2019-09-26T12:23:38Z</time>
      </trkpt>
      <trkpt lat="43.69972" lon="5.069">
        <ele>246</ele>
        <time>2019-09-26T12:23:40Z</time>
      </trkpt>
      <trkpt lat="43.69973" lon="5.06903">
        <ele>246</ele>
        <time>2019-09-26T12:23:42Z</time>
      </trkpt>
      <trkpt lat="43.69974" lon="5.06906">
        <ele>245</ele>
        <time>2019-09-26T12:23:44Z</time>
      </trkpt>
      <trkpt lat="43.69975" lon="5.0691">
        <ele>245</ele>
        <time>2019-09-26T12:23:46Z</time>
      </trkpt>
      <trkpt lat="43.69976" lon="5.06911">
        <ele>245</ele>
        <time>2019-09-26T12:23:48Z</time>
      </trkpt>
      <trkpt lat="43.69976" lon="5.06913">
        <ele>245</ele>
        <time>2019-09-26T12:23:51Z</time>
      </trkpt>
      <trkpt lat="43.69977" lon="5.06914">
        <ele>245</ele>
        <time>2019-09-26T12:23:53Z</time>
      </trkpt>
      <trkpt lat="43.69978" lon="5.06916">
        <ele>244</ele>
        <time>2019-09-26T12:23:54Z</time>
      </trkpt>
      <trkpt lat="43.6998" lon="5.0692">
        <ele>244</ele>
        <time>2019-09-26T12:23:55Z</time>
      </trkpt>
      <trkpt lat="43.69981" lon="5.06922">
        <ele>244</ele>
        <time>2019-09-26T12:23:57Z</time>
      </trkpt>
      <trkpt lat="43.69982" lon="5.06924">
        <ele>244</ele>
        <time>2019-09-26T12:23:59Z</time>
      </trkpt>
      <trkpt lat="43.69983" lon="5.06926">
        <ele>244</ele>
        <time>2019-09-26T12:24:01Z</time>
      </trkpt>
      <trkpt lat="43.69984" lon="5.06928">
        <ele>244</ele>
        <time>2019-09-26T12:24:03Z</time>
      </trkpt>
      <trkpt lat="43.69985" lon="5.06929">
        <ele>243</ele>
        <time>2019-09-26T12:24:04Z</time>
      </trkpt>
      <trkpt lat="43.69987" lon="5.06933">
        <ele>243</ele>
        <time>2019-09-26T12:24:05Z</time>
      </trkpt>
      <trkpt lat="43.69988" lon="5.06935">
        <ele>243</ele>
        <time>2019-09-26T12:24:07Z</time>
      </trkpt>
      <trkpt lat="43.69989" lon="5.06937">
        <ele>243</ele>
        <time>2019-09-26T12:24:09Z</time>
      </trkpt>
      <trkpt lat="43.6999" lon="5.06939">
        <ele>243</ele>
        <time>2019-09-26T12:24:11Z</time>
      </trkpt>
      <trkpt lat="43.69991" lon="5.06941">
        <ele>243</ele>
        <time>2019-09-26T12:24:13Z</time>
      </trkpt>
      <trkpt lat="43.69992" lon="5.06943">
        <ele>242</ele>
        <time>2019-09-26T12:24:14Z</time>
      </trkpt>
      <trkpt lat="43.69993" lon="5.06946">
        <ele>242</ele>
        <time>2019-09-26T12:24:15Z</time>
      </trkpt>
      <trkpt lat="43.69993" lon="5.06947">
        <ele>242</ele>
        <time>2019-09-26T12:24:17Z</time>
      </trkpt>
      <trkpt lat="43.69994" lon="5.06949">
        <ele>242</ele>
        <time>2019-09-26T12:24:19Z</time>
      </trkpt>
      <trkpt lat="43.69995" lon="5.06951">
        <ele>242</ele>
        <time>2019-09-26T12:24:21Z</time>
      </trkpt>
      <trkpt lat="43.69995" lon="5.06953">
        <ele>242</ele>
        <time>2019-09-26T12:24:23Z</time>
      </trkpt>
      <trkpt lat="43.69996" lon="5.06954">
        <ele>241</ele>
        <time>2019-09-26T12:24:24Z</time>
      </trkpt>
      <trkpt lat="43.69997" lon="5.06959">
        <ele>241</ele>
        <time>2019-09-26T12:24:25Z</time>
      </trkpt>
      <trkpt lat="43.69998" lon="5.06961">
        <ele>241</ele>
        <time>2019-09-26T12:24:27Z</time>
      </trkpt>
      <trkpt lat="43.69999" lon="5.06964">
        <ele>241</ele>
        <time>2019-09-26T12:24:29Z</time>
      </trkpt>
      <trkpt lat="43.69999" lon="5.06966">
        <ele>241</ele>
        <time>2019-09-26T12:24:31Z</time>
      </trkpt>
      <trkpt lat="43.7" lon="5.06968">
        <ele>241</ele>
        <time>2019-09-26T12:24:33Z</time>
      </trkpt>
      <trkpt lat="43.70001" lon="5.0697">
        <ele>240</ele>
        <time>2019-09-26T12:24:34Z</time>
      </trkpt>
      <trkpt lat="43.70002" lon="5.06974">
        <ele>240</ele>
        <time>2019-09-26T12:24:35Z</time>
      </trkpt>
      <trkpt lat="43.70002" lon="5.06976">
        <ele>240</ele>
        <time>2019-09-26T12:24:37Z</time>
      </trkpt>
      <trkpt lat="43.70003" lon="5.06978">
        <ele>240</ele>
        <time>2019-09-26T12:24:39Z</time>
      </trkpt>
      <trkpt lat="43.70004" lon="5.0698">
        <ele>240</ele>
        <time>2019-09-26T12:24:41Z</time>
      </trkpt>
      <trkpt lat="43.70004" lon="5.06982">
        <ele>240</ele>
        <time>2019-09-26T12:24:43Z</time>
      </trkpt>
      <trkpt lat="43.70005" lon="5.06984">
        <ele>240</ele>
        <time>2019-09-26T12:24:44Z</time>
      </trkpt>
      <trkpt lat="43.70005" lon="5.06987">
        <ele>240</ele>
        <time>2019-09-26T12:24:45Z</time>
      </trkpt>
      <trkpt lat="43.70006" lon="5.06989">
        <ele>240</ele>
        <time>2019-09-26T12:24:48Z</time>
      </trkpt>
      <trkpt lat="43.70006" lon="5.0699">
        <ele>240</ele>
        <time>2019-09-26T12:24:50Z</time>
      </trkpt>
      <trkpt lat="43.70006" lon="5.06992">
        <ele>240</ele>
        <time>2019-09-26T12:24:52Z</time>
      </trkpt>
      <trkpt lat="43.70006" lon="5.06994">
        <ele>240</ele>
        <time>2019-09-26T12:24:54Z</time>
      </trkpt>
      <trkpt lat="43.70007" lon="5.06996">
        <ele>239</ele>
        <time>2019-09-26T12:24:55Z</time>
      </trkpt>
      <trkpt lat="43.70007" lon="5.06999">
        <ele>239</ele>
        <time>2019-09-26T12:24:57Z</time>
      </trkpt>
      <trkpt lat="43.70008" lon="5.07003">
        <ele>239</ele>
        <time>2019-09-26T12:25:00Z</time>
      </trkpt>
      <trkpt lat="43.70009" lon="5.07006">
        <ele>239</ele>
        <time>2019-09-26T12:25:02Z</time>
      </trkpt>
      <trkpt lat="43.7001" lon="5.07009">
        <ele>239</ele>
        <time>2019-09-26T12:25:04Z</time>
      </trkpt>
      <trkpt lat="43.70011" lon="5.07012">
        <ele>239</ele>
        <time>2019-09-26T12:25:06Z</time>
      </trkpt>
      <trkpt lat="43.70011" lon="5.07015">
        <ele>239</ele>
        <time>2019-09-26T12:25:08Z</time>
      </trkpt>
      <trkpt lat="43.70012" lon="5.07017">
        <ele>239</ele>
        <time>2019-09-26T12:25:10Z</time>
      </trkpt>
      <trkpt lat="43.70013" lon="5.07021">
        <ele>239</ele>
        <time>2019-09-26T12:25:12Z</time>
      </trkpt>
      <trkpt lat="43.70014" lon="5.07023">
        <ele>239</ele>
        <time>2019-09-26T12:25:14Z</time>
      </trkpt>
      <trkpt lat="43.70015" lon="5.07025">
        <ele>239</ele>
        <time>2019-09-26T12:25:16Z</time>
      </trkpt>
      <trkpt lat="43.70017" lon="5.07028">
        <ele>239</ele>
        <time>2019-09-26T12:25:18Z</time>
      </trkpt>
      <trkpt lat="43.70018" lon="5.07032">
        <ele>239</ele>
        <time>2019-09-26T12:25:20Z</time>
      </trkpt>
      <trkpt lat="43.70019" lon="5.07035">
        <ele>239</ele>
        <time>2019-09-26T12:25:22Z</time>
      </trkpt>
      <trkpt lat="43.7002" lon="5.07038">
        <ele>238</ele>
        <time>2019-09-26T12:25:24Z</time>
      </trkpt>
      <trkpt lat="43.70021" lon="5.07041">
        <ele>238</ele>
        <time>2019-09-26T12:25:26Z</time>
      </trkpt>
      <trkpt lat="43.70022" lon="5.07044">
        <ele>238</ele>
        <time>2019-09-26T12:25:28Z</time>
      </trkpt>
      <trkpt lat="43.70024" lon="5.07047">
        <ele>238</ele>
        <time>2019-09-26T12:25:30Z</time>
      </trkpt>
      <trkpt lat="43.70025" lon="5.0705">
        <ele>238</ele>
        <time>2019-09-26T12:25:32Z</time>
      </trkpt>
      <trkpt lat="43.70026" lon="5.07053">
        <ele>238</ele>
        <time>2019-09-26T12:25:34Z</time>
      </trkpt>
      <trkpt lat="43.70027" lon="5.07055">
        <ele>238</ele>
        <time>2019-09-26T12:25:36Z</time>
      </trkpt>
      <trkpt lat="43.70029" lon="5.07057">
        <ele>238</ele>
        <time>2019-09-26T12:25:38Z</time>
      </trkpt>
      <trkpt lat="43.7003" lon="5.0706">
        <ele>238</ele>
        <time>2019-09-26T12:25:40Z</time>
      </trkpt>
      <trkpt lat="43.70031" lon="5.07062">
        <ele>238</ele>
        <time>2019-09-26T12:25:42Z</time>
      </trkpt>
      <trkpt lat="43.70032" lon="5.07064">
        <ele>238</ele>
        <time>2019-09-26T12:25:44Z</time>
      </trkpt>
      <trkpt lat="43.70034" lon="5.07068">
        <ele>238</ele>
        <time>2019-09-26T12:25:46Z</time>
      </trkpt>
      <trkpt lat="43.70035" lon="5.0707">
        <ele>238</ele>
        <time>2019-09-26T12:25:48Z</time>
      </trkpt>
      <trkpt lat="43.70036" lon="5.07072">
        <ele>238</ele>
        <time>2019-09-26T12:25:50Z</time>
      </trkpt>
      <trkpt lat="43.70037" lon="5.07074">
        <ele>238</ele>
        <time>2019-09-26T12:25:52Z</time>
      </trkpt>
      <trkpt lat="43.70038" lon="5.07075">
        <ele>238</ele>
        <time>2019-09-26T12:25:54Z</time>
      </trkpt>
      <trkpt lat="43.70039" lon="5.07077">
        <ele>239</ele>
        <time>2019-09-26T12:25:55Z</time>
      </trkpt>
      <trkpt lat="43.70039" lon="5.07078">
        <ele>239</ele>
        <time>2019-09-26T12:25:56Z</time>
      </trkpt>
      <trkpt lat="43.7004" lon="5.07081">
        <ele>239</ele>
        <time>2019-09-26T12:25:58Z</time>
      </trkpt>
      <trkpt lat="43.70041" lon="5.07084">
        <ele>239</ele>
        <time>2019-09-26T12:26:00Z</time>
      </trkpt>
      <trkpt lat="43.70043" lon="5.07086">
        <ele>239</ele>
        <time>2019-09-26T12:26:02Z</time>
      </trkpt>
      <trkpt lat="43.70044" lon="5.07088">
        <ele>240</ele>
        <time>2019-09-26T12:26:04Z</time>
      </trkpt>
      <trkpt lat="43.70045" lon="5.07091">
        <ele>240</ele>
        <time>2019-09-26T12:26:06Z</time>
      </trkpt>
      <trkpt lat="43.70046" lon="5.07094">
        <ele>240</ele>
        <time>2019-09-26T12:26:08Z</time>
      </trkpt>
      <trkpt lat="43.70047" lon="5.07097">
        <ele>240</ele>
        <time>2019-09-26T12:26:10Z</time>
      </trkpt>
      <trkpt lat="43.70048" lon="5.07101">
        <ele>240</ele>
        <time>2019-09-26T12:26:12Z</time>
      </trkpt>
      <trkpt lat="43.70049" lon="5.07104">
        <ele>240</ele>
        <time>2019-09-26T12:26:14Z</time>
      </trkpt>
      <trkpt lat="43.70049" lon="5.07107">
        <ele>240</ele>
        <time>2019-09-26T12:26:16Z</time>
      </trkpt>
      <trkpt lat="43.70049" lon="5.0711">
        <ele>240</ele>
        <time>2019-09-26T12:26:18Z</time>
      </trkpt>
      <trkpt lat="43.7005" lon="5.07113">
        <ele>240</ele>
        <time>2019-09-26T12:26:20Z</time>
      </trkpt>
      <trkpt lat="43.7005" lon="5.07116">
        <ele>240</ele>
        <time>2019-09-26T12:26:22Z</time>
      </trkpt>
      <trkpt lat="43.7005" lon="5.07119">
        <ele>240</ele>
        <time>2019-09-26T12:26:24Z</time>
      </trkpt>
      <trkpt lat="43.7005" lon="5.07123">
        <ele>240</ele>
        <time>2019-09-26T12:26:26Z</time>
      </trkpt>
      <trkpt lat="43.7005" lon="5.07126">
        <ele>240</ele>
        <time>2019-09-26T12:26:28Z</time>
      </trkpt>
      <trkpt lat="43.7005" lon="5.07129">
        <ele>240</ele>
        <time>2019-09-26T12:26:30Z</time>
      </trkpt>
      <trkpt lat="43.7005" lon="5.07132">
        <ele>240</ele>
        <time>2019-09-26T12:26:32Z</time>
      </trkpt>
      <trkpt lat="43.70051" lon="5.07134">
        <ele>240</ele>
        <time>2019-09-26T12:26:34Z</time>
      </trkpt>
      <trkpt lat="43.70052" lon="5.07137">
        <ele>240</ele>
        <time>2019-09-26T12:26:36Z</time>
      </trkpt>
      <trkpt lat="43.70053" lon="5.07141">
        <ele>240</ele>
        <time>2019-09-26T12:26:38Z</time>
      </trkpt>
      <trkpt lat="43.70053" lon="5.07144">
        <ele>240</ele>
        <time>2019-09-26T12:26:40Z</time>
      </trkpt>
      <trkpt lat="43.70054" lon="5.07147">
        <ele>240</ele>
        <time>2019-09-26T12:26:42Z</time>
      </trkpt>
      <trkpt lat="43.70054" lon="5.0715">
        <ele>240</ele>
        <time>2019-09-26T12:26:44Z</time>
      </trkpt>
      <trkpt lat="43.70055" lon="5.07153">
        <ele>240</ele>
        <time>2019-09-26T12:26:46Z</time>
      </trkpt>
      <trkpt lat="43.70055" lon="5.07156">
        <ele>240</ele>
        <time>2019-09-26T12:26:48Z</time>
      </trkpt>
      <trkpt lat="43.70056" lon="5.07159">
        <ele>240</ele>
        <time>2019-09-26T12:26:50Z</time>
      </trkpt>
      <trkpt lat="43.70056" lon="5.07162">
        <ele>240</ele>
        <time>2019-09-26T12:26:52Z</time>
      </trkpt>
      <trkpt lat="43.70057" lon="5.07164">
        <ele>240</ele>
        <time>2019-09-26T12:26:54Z</time>
      </trkpt>
      <trkpt lat="43.70056" lon="5.07167">
        <ele>240</ele>
        <time>2019-09-26T12:26:56Z</time>
      </trkpt>
      <trkpt lat="43.70057" lon="5.0717">
        <ele>240</ele>
        <time>2019-09-26T12:26:58Z</time>
      </trkpt>
      <trkpt lat="43.70058" lon="5.07172">
        <ele>240</ele>
        <time>2019-09-26T12:27:00Z</time>
      </trkpt>
      <trkpt lat="43.70059" lon="5.07173">
        <ele>240</ele>
        <time>2019-09-26T12:27:02Z</time>
      </trkpt>
      <trkpt lat="43.70059" lon="5.07173">
        <ele>240</ele>
        <time>2019-09-26T12:27:04Z</time>
      </trkpt>
      <trkpt lat="43.70062" lon="5.07175">
        <ele>240</ele>
        <time>2019-09-26T12:27:05Z</time>
      </trkpt>
      <trkpt lat="43.70064" lon="5.07176">
        <ele>240</ele>
        <time>2019-09-26T12:27:08Z</time>
      </trkpt>
      <trkpt lat="43.70067" lon="5.07177">
        <ele>240</ele>
        <time>2019-09-26T12:27:10Z</time>
      </trkpt>
      <trkpt lat="43.70069" lon="5.07178">
        <ele>240</ele>
        <time>2019-09-26T12:27:12Z</time>
      </trkpt>
      <trkpt lat="43.70069" lon="5.07178">
        <ele>240</ele>
        <time>2019-09-26T12:27:14Z</time>
      </trkpt>
      <trkpt lat="43.70073" lon="5.07178">
        <ele>240</ele>
        <time>2019-09-26T12:27:15Z</time>
      </trkpt>
      <trkpt lat="43.70074" lon="5.07178">
        <ele>240</ele>
        <time>2019-09-26T12:27:17Z</time>
      </trkpt>
      <trkpt lat="43.70075" lon="5.07178">
        <ele>240</ele>
        <time>2019-09-26T12:27:20Z</time>
      </trkpt>
      <trkpt lat="43.70077" lon="5.07177">
        <ele>240</ele>
        <time>2019-09-26T12:27:23Z</time>
      </trkpt>
      <trkpt lat="43.70078" lon="5.07177">
        <ele>238</ele>
        <time>2019-09-26T12:27:24Z</time>
      </trkpt>
      <trkpt lat="43.70082" lon="5.07177">
        <ele>238</ele>
        <time>2019-09-26T12:27:25Z</time>
      </trkpt>
      <trkpt lat="43.70083" lon="5.07176">
        <ele>238</ele>
        <time>2019-09-26T12:27:27Z</time>
      </trkpt>
      <trkpt lat="43.70085" lon="5.07176">
        <ele>238</ele>
        <time>2019-09-26T12:27:29Z</time>
      </trkpt>
      <trkpt lat="43.70086" lon="5.07176">
        <ele>238</ele>
        <time>2019-09-26T12:27:31Z</time>
      </trkpt>
      <trkpt lat="43.70088" lon="5.07175">
        <ele>238</ele>
        <time>2019-09-26T12:27:33Z</time>
      </trkpt>
      <trkpt lat="43.7009" lon="5.07175">
        <ele>238</ele>
        <time>2019-09-26T12:27:34Z</time>
      </trkpt>
      <trkpt lat="43.7009" lon="5.07175">
        <ele>238</ele>
        <time>2019-09-26T12:27:35Z</time>
      </trkpt>
      <trkpt lat="43.70092" lon="5.07174">
        <ele>238</ele>
        <time>2019-09-26T12:27:37Z</time>
      </trkpt>
      <trkpt lat="43.70095" lon="5.07175">
        <ele>238</ele>
        <time>2019-09-26T12:27:39Z</time>
      </trkpt>
      <trkpt lat="43.70097" lon="5.07174">
        <ele>238</ele>
        <time>2019-09-26T12:27:41Z</time>
      </trkpt>
      <trkpt lat="43.70099" lon="5.07173">
        <ele>237</ele>
        <time>2019-09-26T12:27:44Z</time>
      </trkpt>
      <trkpt lat="43.70101" lon="5.07173">
        <ele>237</ele>
        <time>2019-09-26T12:27:46Z</time>
      </trkpt>
      <trkpt lat="43.70104" lon="5.07172">
        <ele>237</ele>
        <time>2019-09-26T12:27:48Z</time>
      </trkpt>
      <trkpt lat="43.70106" lon="5.07172">
        <ele>237</ele>
        <time>2019-09-26T12:27:50Z</time>
      </trkpt>
      <trkpt lat="43.70108" lon="5.07171">
        <ele>237</ele>
        <time>2019-09-26T12:27:52Z</time>
      </trkpt>
      <trkpt lat="43.70108" lon="5.07171">
        <ele>237</ele>
        <time>2019-09-26T12:27:54Z</time>
      </trkpt>
      <trkpt lat="43.70112" lon="5.0717">
        <ele>237</ele>
        <time>2019-09-26T12:27:55Z</time>
      </trkpt>
      <trkpt lat="43.70114" lon="5.0717">
        <ele>237</ele>
        <time>2019-09-26T12:27:57Z</time>
      </trkpt>
      <trkpt lat="43.70116" lon="5.07169">
        <ele>237</ele>
        <time>2019-09-26T12:27:59Z</time>
      </trkpt>
      <trkpt lat="43.70117" lon="5.07169">
        <ele>237</ele>
        <time>2019-09-26T12:28:01Z</time>
      </trkpt>
      <trkpt lat="43.70119" lon="5.07169">
        <ele>237</ele>
        <time>2019-09-26T12:28:03Z</time>
      </trkpt>
      <trkpt lat="43.70121" lon="5.07168">
        <ele>235</ele>
        <time>2019-09-26T12:28:04Z</time>
      </trkpt>
      <trkpt lat="43.70123" lon="5.07167">
        <ele>235</ele>
        <time>2019-09-26T12:28:05Z</time>
      </trkpt>
      <trkpt lat="43.70125" lon="5.07167">
        <ele>235</ele>
        <time>2019-09-26T12:28:07Z</time>
      </trkpt>
      <trkpt lat="43.70126" lon="5.07167">
        <ele>235</ele>
        <time>2019-09-26T12:28:09Z</time>
      </trkpt>
      <trkpt lat="43.70128" lon="5.07167">
        <ele>235</ele>
        <time>2019-09-26T12:28:11Z</time>
      </trkpt>
      <trkpt lat="43.7013" lon="5.07167">
        <ele>235</ele>
        <time>2019-09-26T12:28:13Z</time>
      </trkpt>
      <trkpt lat="43.70131" lon="5.07166">
        <ele>235</ele>
        <time>2019-09-26T12:28:14Z</time>
      </trkpt>
      <trkpt lat="43.70135" lon="5.07166">
        <ele>235</ele>
        <time>2019-09-26T12:28:15Z</time>
      </trkpt>
      <trkpt lat="43.70137" lon="5.07165">
        <ele>235</ele>
        <time>2019-09-26T12:28:17Z</time>
      </trkpt>
      <trkpt lat="43.70139" lon="5.07164">
        <ele>235</ele>
        <time>2019-09-26T12:28:19Z</time>
      </trkpt>
      <trkpt lat="43.7014" lon="5.07164">
        <ele>235</ele>
        <time>2019-09-26T12:28:21Z</time>
      </trkpt>
      <trkpt lat="43.70142" lon="5.07163">
        <ele>235</ele>
        <time>2019-09-26T12:28:23Z</time>
      </trkpt>
      <trkpt lat="43.70143" lon="5.07162">
        <ele>234</ele>
        <time>2019-09-26T12:28:24Z</time>
      </trkpt>
      <trkpt lat="43.70146" lon="5.07162">
        <ele>234</ele>
        <time>2019-09-26T12:28:25Z</time>
      </trkpt>
      <trkpt lat="43.70148" lon="5.07162">
        <ele>234</ele>
        <time>2019-09-26T12:28:27Z</time>
      </trkpt>
      <trkpt lat="43.7015" lon="5.07161">
        <ele>234</ele>
        <time>2019-09-26T12:28:29Z</time>
      </trkpt>
      <trkpt lat="43.70152" lon="5.07161">
        <ele>234</ele>
        <time>2019-09-26T12:28:31Z</time>
      </trkpt>
      <trkpt lat="43.70154" lon="5.07161">
        <ele>234</ele>
        <time>2019-09-26T12:28:33Z</time>
      </trkpt>
      <trkpt lat="43.70155" lon="5.07161">
        <ele>234</ele>
        <time>2019-09-26T12:28:34Z</time>
      </trkpt>
      <trkpt lat="43.70156" lon="5.0716">
        <ele>234</ele>
        <time>2019-09-26T12:28:35Z</time>
      </trkpt>
      <trkpt lat="43.70158" lon="5.0716">
        <ele>234</ele>
        <time>2019-09-26T12:28:37Z</time>
      </trkpt>
      <trkpt lat="43.70161" lon="5.0716">
        <ele>234</ele>
        <time>2019-09-26T12:28:39Z</time>
      </trkpt>
      <trkpt lat="43.70163" lon="5.0716">
        <ele>234</ele>
        <time>2019-09-26T12:28:41Z</time>
      </trkpt>
      <trkpt lat="43.70165" lon="5.0716">
        <ele>234</ele>
        <time>2019-09-26T12:28:44Z</time>
      </trkpt>
      <trkpt lat="43.70167" lon="5.07159">
        <ele>234</ele>
        <time>2019-09-26T12:28:46Z</time>
      </trkpt>
      <trkpt lat="43.70169" lon="5.07159">
        <ele>234</ele>
        <time>2019-09-26T12:28:48Z</time>
      </trkpt>
      <trkpt lat="43.70172" lon="5.07158">
        <ele>234</ele>
        <time>2019-09-26T12:28:50Z</time>
      </trkpt>
      <trkpt lat="43.70174" lon="5.07158">
        <ele>234</ele>
        <time>2019-09-26T12:28:52Z</time>
      </trkpt>
      <trkpt lat="43.70176" lon="5.07158">
        <ele>233</ele>
        <time>2019-09-26T12:28:54Z</time>
      </trkpt>
      <trkpt lat="43.70177" lon="5.07157">
        <ele>233</ele>
        <time>2019-09-26T12:28:56Z</time>
      </trkpt>
      <trkpt lat="43.7018" lon="5.07157">
        <ele>233</ele>
        <time>2019-09-26T12:28:58Z</time>
      </trkpt>
      <trkpt lat="43.70182" lon="5.07156">
        <ele>233</ele>
        <time>2019-09-26T12:29:00Z</time>
      </trkpt>
      <trkpt lat="43.70184" lon="5.07155">
        <ele>233</ele>
        <time>2019-09-26T12:29:02Z</time>
      </trkpt>
      <trkpt lat="43.70186" lon="5.07154">
        <ele>232</ele>
        <time>2019-09-26T12:29:04Z</time>
      </trkpt>
      <trkpt lat="43.70189" lon="5.07154">
        <ele>232</ele>
        <time>2019-09-26T12:29:06Z</time>
      </trkpt>
      <trkpt lat="43.70191" lon="5.07153">
        <ele>232</ele>
        <time>2019-09-26T12:29:08Z</time>
      </trkpt>
      <trkpt lat="43.70193" lon="5.07153">
        <ele>232</ele>
        <time>2019-09-26T12:29:10Z</time>
      </trkpt>
      <trkpt lat="43.70196" lon="5.07153">
        <ele>232</ele>
        <time>2019-09-26T12:29:12Z</time>
      </trkpt>
      <trkpt lat="43.70198" lon="5.07152">
        <ele>232</ele>
        <time>2019-09-26T12:29:14Z</time>
      </trkpt>
      <trkpt lat="43.702" lon="5.07152">
        <ele>232</ele>
        <time>2019-09-26T12:29:16Z</time>
      </trkpt>
      <trkpt lat="43.70202" lon="5.07151">
        <ele>232</ele>
        <time>2019-09-26T12:29:18Z</time>
      </trkpt>
      <trkpt lat="43.70204" lon="5.07151">
        <ele>232</ele>
        <time>2019-09-26T12:29:20Z</time>
      </trkpt>
      <trkpt lat="43.70207" lon="5.0715">
        <ele>232</ele>
        <time>2019-09-26T12:29:22Z</time>
      </trkpt>
      <trkpt lat="43.70209" lon="5.0715">
        <ele>232</ele>
        <time>2019-09-26T12:29:24Z</time>
      </trkpt>
      <trkpt lat="43.70211" lon="5.07149">
        <ele>232</ele>
        <time>2019-09-26T12:29:26Z</time>
      </trkpt>
      <trkpt lat="43.70213" lon="5.07148">
        <ele>232</ele>
        <time>2019-09-26T12:29:28Z</time>
      </trkpt>
      <trkpt lat="43.70215" lon="5.07148">
        <ele>232</ele>
        <time>2019-09-26T12:29:30Z</time>
      </trkpt>
      <trkpt lat="43.70218" lon="5.07147">
        <ele>232</ele>
        <time>2019-09-26T12:29:32Z</time>
      </trkpt>
      <trkpt lat="43.7022" lon="5.07146">
        <ele>231</ele>
        <time>2019-09-26T12:29:34Z</time>
      </trkpt>
      <trkpt lat="43.70223" lon="5.07146">
        <ele>231</ele>
        <time>2019-09-26T12:29:36Z</time>
      </trkpt>
      <trkpt lat="43.70225" lon="5.07145">
        <ele>231</ele>
        <time>2019-09-26T12:29:38Z</time>
      </trkpt>
      <trkpt lat="43.70227" lon="5.07144">
        <ele>231</ele>
        <time>2019-09-26T12:29:40Z</time>
      </trkpt>
      <trkpt lat="43.70229" lon="5.07143">
        <ele>231</ele>
        <time>2019-09-26T12:29:42Z</time>
      </trkpt>
      <trkpt lat="43.7023" lon="5.07142">
        <ele>231</ele>
        <time>2019-09-26T12:29:44Z</time>
      </trkpt>
      <trkpt lat="43.70232" lon="5.07141">
        <ele>231</ele>
        <time>2019-09-26T12:29:46Z</time>
      </trkpt>
      <trkpt lat="43.70234" lon="5.0714">
        <ele>231</ele>
        <time>2019-09-26T12:29:48Z</time>
      </trkpt>
      <trkpt lat="43.70237" lon="5.07139">
        <ele>231</ele>
        <time>2019-09-26T12:29:50Z</time>
      </trkpt>
      <trkpt lat="43.70239" lon="5.07138">
        <ele>231</ele>
        <time>2019-09-26T12:29:52Z</time>
      </trkpt>
      <trkpt lat="43.70242" lon="5.07139">
        <ele>230</ele>
        <time>2019-09-26T12:29:54Z</time>
      </trkpt>
      <trkpt lat="43.70244" lon="5.07139">
        <ele>230</ele>
        <time>2019-09-26T12:29:56Z</time>
      </trkpt>
      <trkpt lat="43.70247" lon="5.07139">
        <ele>230</ele>
        <time>2019-09-26T12:29:58Z</time>
      </trkpt>
      <trkpt lat="43.70249" lon="5.07139">
        <ele>230</ele>
        <time>2019-09-26T12:30:00Z</time>
      </trkpt>
      <trkpt lat="43.70251" lon="5.07138">
        <ele>230</ele>
        <time>2019-09-26T12:30:02Z</time>
      </trkpt>
      <trkpt lat="43.70251" lon="5.07138">
        <ele>230</ele>
        <time>2019-09-26T12:30:04Z</time>
      </trkpt>
      <trkpt lat="43.70255" lon="5.07136">
        <ele>230</ele>
        <time>2019-09-26T12:30:05Z</time>
      </trkpt>
      <trkpt lat="43.70257" lon="5.07136">
        <ele>230</ele>
        <time>2019-09-26T12:30:07Z</time>
      </trkpt>
      <trkpt lat="43.70258" lon="5.07135">
        <ele>230</ele>
        <time>2019-09-26T12:30:09Z</time>
      </trkpt>
      <trkpt lat="43.7026" lon="5.07135">
        <ele>230</ele>
        <time>2019-09-26T12:30:11Z</time>
      </trkpt>
      <trkpt lat="43.70262" lon="5.07134">
        <ele>230</ele>
        <time>2019-09-26T12:30:13Z</time>
      </trkpt>
      <trkpt lat="43.70263" lon="5.07134">
        <ele>230</ele>
        <time>2019-09-26T12:30:14Z</time>
      </trkpt>
      <trkpt lat="43.70264" lon="5.07133">
        <ele>230</ele>
        <time>2019-09-26T12:30:15Z</time>
      </trkpt>
      <trkpt lat="43.70267" lon="5.07133">
        <ele>230</ele>
        <time>2019-09-26T12:30:17Z</time>
      </trkpt>
      <trkpt lat="43.70269" lon="5.07132">
        <ele>230</ele>
        <time>2019-09-26T12:30:19Z</time>
      </trkpt>
      <trkpt lat="43.70271" lon="5.07131">
        <ele>230</ele>
        <time>2019-09-26T12:30:22Z</time>
      </trkpt>
      <trkpt lat="43.70271" lon="5.07131">
        <ele>229</ele>
        <time>2019-09-26T12:30:24Z</time>
      </trkpt>
      <trkpt lat="43.70274" lon="5.07131">
        <ele>229</ele>
        <time>2019-09-26T12:30:31Z</time>
      </trkpt>
      <trkpt lat="43.70275" lon="5.07131">
        <ele>229</ele>
        <time>2019-09-26T12:30:33Z</time>
      </trkpt>
      <trkpt lat="43.70275" lon="5.0713">
        <ele>229</ele>
        <time>2019-09-26T12:30:34Z</time>
      </trkpt>
      <trkpt lat="43.70279" lon="5.07129">
        <ele>229</ele>
        <time>2019-09-26T12:30:35Z</time>
      </trkpt>
      <trkpt lat="43.70281" lon="5.07128">
        <ele>229</ele>
        <time>2019-09-26T12:30:37Z</time>
      </trkpt>
      <trkpt lat="43.70282" lon="5.07128">
        <ele>229</ele>
        <time>2019-09-26T12:30:39Z</time>
      </trkpt>
      <trkpt lat="43.70284" lon="5.07128">
        <ele>229</ele>
        <time>2019-09-26T12:30:41Z</time>
      </trkpt>
      <trkpt lat="43.70286" lon="5.07127">
        <ele>229</ele>
        <time>2019-09-26T12:30:43Z</time>
      </trkpt>
      <trkpt lat="43.70288" lon="5.07127">
        <ele>229</ele>
        <time>2019-09-26T12:30:44Z</time>
      </trkpt>
      <trkpt lat="43.7029" lon="5.07126">
        <ele>229</ele>
        <time>2019-09-26T12:30:45Z</time>
      </trkpt>
      <trkpt lat="43.70292" lon="5.07126">
        <ele>229</ele>
        <time>2019-09-26T12:30:47Z</time>
      </trkpt>
      <trkpt lat="43.70294" lon="5.07127">
        <ele>229</ele>
        <time>2019-09-26T12:30:49Z</time>
      </trkpt>
      <trkpt lat="43.70296" lon="5.07127">
        <ele>229</ele>
        <time>2019-09-26T12:30:51Z</time>
      </trkpt>
      <trkpt lat="43.70297" lon="5.07127">
        <ele>229</ele>
        <time>2019-09-26T12:30:53Z</time>
      </trkpt>
      <trkpt lat="43.70299" lon="5.07127">
        <ele>229</ele>
        <time>2019-09-26T12:30:54Z</time>
      </trkpt>
      <trkpt lat="43.70302" lon="5.07128">
        <ele>229</ele>
        <time>2019-09-26T12:30:55Z</time>
      </trkpt>
      <trkpt lat="43.70304" lon="5.07129">
        <ele>229</ele>
        <time>2019-09-26T12:30:57Z</time>
      </trkpt>
      <trkpt lat="43.70305" lon="5.0713">
        <ele>229</ele>
        <time>2019-09-26T12:30:59Z</time>
      </trkpt>
      <trkpt lat="43.70307" lon="5.07131">
        <ele>229</ele>
        <time>2019-09-26T12:31:01Z</time>
      </trkpt>
      <trkpt lat="43.70308" lon="5.07132">
        <ele>229</ele>
        <time>2019-09-26T12:31:03Z</time>
      </trkpt>
      <trkpt lat="43.7031" lon="5.07133">
        <ele>228</ele>
        <time>2019-09-26T12:31:04Z</time>
      </trkpt>
      <trkpt lat="43.70314" lon="5.07136">
        <ele>228</ele>
        <time>2019-09-26T12:31:07Z</time>
      </trkpt>
      <trkpt lat="43.70315" lon="5.07138">
        <ele>228</ele>
        <time>2019-09-26T12:31:09Z</time>
      </trkpt>
      <trkpt lat="43.70317" lon="5.07139">
        <ele>228</ele>
        <time>2019-09-26T12:31:11Z</time>
      </trkpt>
      <trkpt lat="43.70319" lon="5.07141">
        <ele>228</ele>
        <time>2019-09-26T12:31:13Z</time>
      </trkpt>
      <trkpt lat="43.70321" lon="5.07143">
        <ele>228</ele>
        <time>2019-09-26T12:31:14Z</time>
      </trkpt>
      <trkpt lat="43.70323" lon="5.07145">
        <ele>228</ele>
        <time>2019-09-26T12:31:15Z</time>
      </trkpt>
      <trkpt lat="43.70325" lon="5.07146">
        <ele>228</ele>
        <time>2019-09-26T12:31:17Z</time>
      </trkpt>
      <trkpt lat="43.70326" lon="5.07147">
        <ele>228</ele>
        <time>2019-09-26T12:31:19Z</time>
      </trkpt>
      <trkpt lat="43.70328" lon="5.07148">
        <ele>228</ele>
        <time>2019-09-26T12:31:21Z</time>
      </trkpt>
      <trkpt lat="43.70329" lon="5.0715">
        <ele>228</ele>
        <time>2019-09-26T12:31:23Z</time>
      </trkpt>
      <trkpt lat="43.70331" lon="5.07151">
        <ele>226</ele>
        <time>2019-09-26T12:31:24Z</time>
      </trkpt>
      <trkpt lat="43.70334" lon="5.07153">
        <ele>226</ele>
        <time>2019-09-26T12:31:25Z</time>
      </trkpt>
      <trkpt lat="43.70335" lon="5.07154">
        <ele>226</ele>
        <time>2019-09-26T12:31:27Z</time>
      </trkpt>
      <trkpt lat="43.70337" lon="5.07155">
        <ele>226</ele>
        <time>2019-09-26T12:31:29Z</time>
      </trkpt>
      <trkpt lat="43.70338" lon="5.07156">
        <ele>226</ele>
        <time>2019-09-26T12:31:31Z</time>
      </trkpt>
      <trkpt lat="43.70339" lon="5.07157">
        <ele>226</ele>
        <time>2019-09-26T12:31:33Z</time>
      </trkpt>
      <trkpt lat="43.70341" lon="5.07158">
        <ele>225</ele>
        <time>2019-09-26T12:31:34Z</time>
      </trkpt>
      <trkpt lat="43.70343" lon="5.0716">
        <ele>225</ele>
        <time>2019-09-26T12:31:35Z</time>
      </trkpt>
      <trkpt lat="43.70344" lon="5.07162">
        <ele>225</ele>
        <time>2019-09-26T12:31:37Z</time>
      </trkpt>
      <trkpt lat="43.70345" lon="5.07164">
        <ele>225</ele>
        <time>2019-09-26T12:31:39Z</time>
      </trkpt>
      <trkpt lat="43.70346" lon="5.07166">
        <ele>225</ele>
        <time>2019-09-26T12:31:41Z</time>
      </trkpt>
      <trkpt lat="43.70347" lon="5.07167">
        <ele>225</ele>
        <time>2019-09-26T12:31:43Z</time>
      </trkpt>
      <trkpt lat="43.70348" lon="5.07169">
        <ele>224</ele>
        <time>2019-09-26T12:31:44Z</time>
      </trkpt>
      <trkpt lat="43.70349" lon="5.07172">
        <ele>224</ele>
        <time>2019-09-26T12:31:46Z</time>
      </trkpt>
      <trkpt lat="43.70349" lon="5.07172">
        <ele>223</ele>
        <time>2019-09-26T12:31:54Z</time>
      </trkpt>
      <trkpt lat="43.70349" lon="5.07172">
        <ele>223</ele>
        <time>2019-09-26T12:31:56Z</time>
      </trkpt>
      <trkpt lat="43.70349" lon="5.07173">
        <ele>223</ele>
        <time>2019-09-26T12:31:57Z</time>
      </trkpt>
      <trkpt lat="43.70349" lon="5.07173">
        <ele>223</ele>
        <time>2019-09-26T12:32:09Z</time>
      </trkpt>
      <trkpt lat="43.70353" lon="5.07182">
        <ele>223</ele>
        <time>2019-09-26T12:32:10Z</time>
      </trkpt>
      <trkpt lat="43.70353" lon="5.07183">
        <ele>223</ele>
        <time>2019-09-26T12:32:11Z</time>
      </trkpt>
      <trkpt lat="43.70354" lon="5.07186">
        <ele>223</ele>
        <time>2019-09-26T12:32:13Z</time>
      </trkpt>
      <trkpt lat="43.70356" lon="5.07189">
        <ele>223</ele>
        <time>2019-09-26T12:32:15Z</time>
      </trkpt>
      <trkpt lat="43.70356" lon="5.07192">
        <ele>223</ele>
        <time>2019-09-26T12:32:17Z</time>
      </trkpt>
      <trkpt lat="43.70358" lon="5.07195">
        <ele>223</ele>
        <time>2019-09-26T12:32:19Z</time>
      </trkpt>
      <trkpt lat="43.7036" lon="5.072">
        <ele>223</ele>
        <time>2019-09-26T12:32:21Z</time>
      </trkpt>
      <trkpt lat="43.70361" lon="5.07202">
        <ele>223</ele>
        <time>2019-09-26T12:32:23Z</time>
      </trkpt>
      <trkpt lat="43.70362" lon="5.07205">
        <ele>223</ele>
        <time>2019-09-26T12:32:25Z</time>
      </trkpt>
      <trkpt lat="43.70363" lon="5.07207">
        <ele>223</ele>
        <time>2019-09-26T12:32:27Z</time>
      </trkpt>
      <trkpt lat="43.70364" lon="5.07209">
        <ele>223</ele>
        <time>2019-09-26T12:32:29Z</time>
      </trkpt>
      <trkpt lat="43.70364" lon="5.07212">
        <ele>223</ele>
        <time>2019-09-26T12:32:30Z</time>
      </trkpt>
      <trkpt lat="43.70365" lon="5.07213">
        <ele>223</ele>
        <time>2019-09-26T12:32:31Z</time>
      </trkpt>
      <trkpt lat="43.70365" lon="5.07216">
        <ele>223</ele>
        <time>2019-09-26T12:32:33Z</time>
      </trkpt>
      <trkpt lat="43.70366" lon="5.07219">
        <ele>223</ele>
        <time>2019-09-26T12:32:35Z</time>
      </trkpt>
      <trkpt lat="43.70366" lon="5.07221">
        <ele>223</ele>
        <time>2019-09-26T12:32:37Z</time>
      </trkpt>
      <trkpt lat="43.70366" lon="5.07224">
        <ele>222</ele>
        <time>2019-09-26T12:32:39Z</time>
      </trkpt>
      <trkpt lat="43.70366" lon="5.07226">
        <ele>222</ele>
        <time>2019-09-26T12:32:41Z</time>
      </trkpt>
      <trkpt lat="43.70365" lon="5.0723">
        <ele>222</ele>
        <time>2019-09-26T12:32:43Z</time>
      </trkpt>
      <trkpt lat="43.70364" lon="5.07233">
        <ele>222</ele>
        <time>2019-09-26T12:32:45Z</time>
      </trkpt>
      <trkpt lat="43.70363" lon="5.07236">
        <ele>222</ele>
        <time>2019-09-26T12:32:47Z</time>
      </trkpt>
      <trkpt lat="43.70362" lon="5.07238">
        <ele>222</ele>
        <time>2019-09-26T12:32:49Z</time>
      </trkpt>
      <trkpt lat="43.70361" lon="5.07241">
        <ele>222</ele>
        <time>2019-09-26T12:32:51Z</time>
      </trkpt>
      <trkpt lat="43.7036" lon="5.07244">
        <ele>222</ele>
        <time>2019-09-26T12:32:53Z</time>
      </trkpt>
      <trkpt lat="43.70359" lon="5.07247">
        <ele>222</ele>
        <time>2019-09-26T12:32:55Z</time>
      </trkpt>
      <trkpt lat="43.70358" lon="5.0725">
        <ele>222</ele>
        <time>2019-09-26T12:32:57Z</time>
      </trkpt>
      <trkpt lat="43.70357" lon="5.07253">
        <ele>222</ele>
        <time>2019-09-26T12:32:59Z</time>
      </trkpt>
      <trkpt lat="43.70356" lon="5.07255">
        <ele>222</ele>
        <time>2019-09-26T12:33:09Z</time>
      </trkpt>
      <trkpt lat="43.70355" lon="5.07257">
        <ele>222</ele>
        <time>2019-09-26T12:33:10Z</time>
      </trkpt>
      <trkpt lat="43.70354" lon="5.07259">
        <ele>222</ele>
        <time>2019-09-26T12:33:12Z</time>
      </trkpt>
      <trkpt lat="43.70353" lon="5.07261">
        <ele>222</ele>
        <time>2019-09-26T12:33:14Z</time>
      </trkpt>
      <trkpt lat="43.70352" lon="5.07263">
        <ele>222</ele>
        <time>2019-09-26T12:33:16Z</time>
      </trkpt>
      <trkpt lat="43.70352" lon="5.07265">
        <ele>222</ele>
        <time>2019-09-26T12:33:18Z</time>
      </trkpt>
      <trkpt lat="43.70351" lon="5.07267">
        <ele>220</ele>
        <time>2019-09-26T12:33:19Z</time>
      </trkpt>
      <trkpt lat="43.70349" lon="5.07271">
        <ele>220</ele>
        <time>2019-09-26T12:33:20Z</time>
      </trkpt>
      <trkpt lat="43.70349" lon="5.07274">
        <ele>220</ele>
        <time>2019-09-26T12:33:22Z</time>
      </trkpt>
      <trkpt lat="43.70348" lon="5.07276">
        <ele>220</ele>
        <time>2019-09-26T12:33:24Z</time>
      </trkpt>
      <trkpt lat="43.70347" lon="5.07278">
        <ele>220</ele>
        <time>2019-09-26T12:33:26Z</time>
      </trkpt>
      <trkpt lat="43.70346" lon="5.0728">
        <ele>220</ele>
        <time>2019-09-26T12:33:28Z</time>
      </trkpt>
      <trkpt lat="43.70345" lon="5.07282">
        <ele>219</ele>
        <time>2019-09-26T12:33:29Z</time>
      </trkpt>
      <trkpt lat="43.70345" lon="5.07284">
        <ele>219</ele>
        <time>2019-09-26T12:33:30Z</time>
      </trkpt>
      <trkpt lat="43.70344" lon="5.07286">
        <ele>219</ele>
        <time>2019-09-26T12:33:32Z</time>
      </trkpt>
      <trkpt lat="43.70343" lon="5.07289">
        <ele>219</ele>
        <time>2019-09-26T12:33:35Z</time>
      </trkpt>
      <trkpt lat="43.70341" lon="5.07292">
        <ele>219</ele>
        <time>2019-09-26T12:33:37Z</time>
      </trkpt>
      <trkpt lat="43.70339" lon="5.07294">
        <ele>218</ele>
        <time>2019-09-26T12:33:39Z</time>
      </trkpt>
      <trkpt lat="43.70338" lon="5.07296">
        <ele>218</ele>
        <time>2019-09-26T12:33:41Z</time>
      </trkpt>
      <trkpt lat="43.70336" lon="5.07298">
        <ele>218</ele>
        <time>2019-09-26T12:33:43Z</time>
      </trkpt>
      <trkpt lat="43.70334" lon="5.073">
        <ele>218</ele>
        <time>2019-09-26T12:33:45Z</time>
      </trkpt>
      <trkpt lat="43.70332" lon="5.07302">
        <ele>218</ele>
        <time>2019-09-26T12:33:47Z</time>
      </trkpt>
      <trkpt lat="43.7033" lon="5.07303">
        <ele>216</ele>
        <time>2019-09-26T12:33:49Z</time>
      </trkpt>
      <trkpt lat="43.70327" lon="5.07305">
        <ele>216</ele>
        <time>2019-09-26T12:33:51Z</time>
      </trkpt>
      <trkpt lat="43.70325" lon="5.07307">
        <ele>216</ele>
        <time>2019-09-26T12:33:53Z</time>
      </trkpt>
      <trkpt lat="43.70323" lon="5.07309">
        <ele>216</ele>
        <time>2019-09-26T12:33:55Z</time>
      </trkpt>
      <trkpt lat="43.70321" lon="5.07311">
        <ele>216</ele>
        <time>2019-09-26T12:33:57Z</time>
      </trkpt>
      <trkpt lat="43.70319" lon="5.07314">
        <ele>215</ele>
        <time>2019-09-26T12:33:59Z</time>
      </trkpt>
      <trkpt lat="43.70317" lon="5.07316">
        <ele>215</ele>
        <time>2019-09-26T12:34:01Z</time>
      </trkpt>
      <trkpt lat="43.70315" lon="5.07319">
        <ele>215</ele>
        <time>2019-09-26T12:34:03Z</time>
      </trkpt>
      <trkpt lat="43.70314" lon="5.07321">
        <ele>215</ele>
        <time>2019-09-26T12:34:05Z</time>
      </trkpt>
      <trkpt lat="43.70313" lon="5.07324">
        <ele>215</ele>
        <time>2019-09-26T12:34:07Z</time>
      </trkpt>
      <trkpt lat="43.70311" lon="5.07327">
        <ele>213</ele>
        <time>2019-09-26T12:34:09Z</time>
      </trkpt>
      <trkpt lat="43.7031" lon="5.07329">
        <ele>213</ele>
        <time>2019-09-26T12:34:11Z</time>
      </trkpt>
      <trkpt lat="43.70308" lon="5.07331">
        <ele>213</ele>
        <time>2019-09-26T12:34:13Z</time>
      </trkpt>
      <trkpt lat="43.70308" lon="5.07333">
        <ele>213</ele>
        <time>2019-09-26T12:34:15Z</time>
      </trkpt>
      <trkpt lat="43.70306" lon="5.07336">
        <ele>213</ele>
        <time>2019-09-26T12:34:17Z</time>
      </trkpt>
      <trkpt lat="43.70305" lon="5.07338">
        <ele>211</ele>
        <time>2019-09-26T12:34:19Z</time>
      </trkpt>
      <trkpt lat="43.70304" lon="5.0734">
        <ele>211</ele>
        <time>2019-09-26T12:34:21Z</time>
      </trkpt>
      <trkpt lat="43.70303" lon="5.07343">
        <ele>211</ele>
        <time>2019-09-26T12:34:23Z</time>
      </trkpt>
      <trkpt lat="43.70302" lon="5.07345">
        <ele>211</ele>
        <time>2019-09-26T12:34:25Z</time>
      </trkpt>
      <trkpt lat="43.70301" lon="5.07348">
        <ele>211</ele>
        <time>2019-09-26T12:34:27Z</time>
      </trkpt>
      <trkpt lat="43.703" lon="5.07351">
        <ele>210</ele>
        <time>2019-09-26T12:34:29Z</time>
      </trkpt>
      <trkpt lat="43.70298" lon="5.07354">
        <ele>210</ele>
        <time>2019-09-26T12:34:31Z</time>
      </trkpt>
      <trkpt lat="43.70297" lon="5.07356">
        <ele>210</ele>
        <time>2019-09-26T12:34:33Z</time>
      </trkpt>
      <trkpt lat="43.70296" lon="5.07359">
        <ele>210</ele>
        <time>2019-09-26T12:34:35Z</time>
      </trkpt>
      <trkpt lat="43.70295" lon="5.07361">
        <ele>210</ele>
        <time>2019-09-26T12:34:37Z</time>
      </trkpt>
      <trkpt lat="43.70294" lon="5.07363">
        <ele>210</ele>
        <time>2019-09-26T12:34:39Z</time>
      </trkpt>
      <trkpt lat="43.70294" lon="5.07366">
        <ele>210</ele>
        <time>2019-09-26T12:34:41Z</time>
      </trkpt>
      <trkpt lat="43.70293" lon="5.07369">
        <ele>210</ele>
        <time>2019-09-26T12:34:43Z</time>
      </trkpt>
      <trkpt lat="43.70292" lon="5.07371">
        <ele>210</ele>
        <time>2019-09-26T12:34:45Z</time>
      </trkpt>
      <trkpt lat="43.70291" lon="5.07374">
        <ele>210</ele>
        <time>2019-09-26T12:34:47Z</time>
      </trkpt>
      <trkpt lat="43.70289" lon="5.07377">
        <ele>208</ele>
        <time>2019-09-26T12:34:49Z</time>
      </trkpt>
      <trkpt lat="43.70289" lon="5.07379">
        <ele>208</ele>
        <time>2019-09-26T12:34:51Z</time>
      </trkpt>
      <trkpt lat="43.70288" lon="5.07382">
        <ele>208</ele>
        <time>2019-09-26T12:34:53Z</time>
      </trkpt>
      <trkpt lat="43.70286" lon="5.07385">
        <ele>208</ele>
        <time>2019-09-26T12:34:55Z</time>
      </trkpt>
      <trkpt lat="43.70285" lon="5.07388">
        <ele>208</ele>
        <time>2019-09-26T12:34:57Z</time>
      </trkpt>
      <trkpt lat="43.70285" lon="5.0739">
        <ele>206</ele>
        <time>2019-09-26T12:34:59Z</time>
      </trkpt>
      <trkpt lat="43.70284" lon="5.07393">
        <ele>206</ele>
        <time>2019-09-26T12:35:01Z</time>
      </trkpt>
      <trkpt lat="43.70283" lon="5.07396">
        <ele>206</ele>
        <time>2019-09-26T12:35:03Z</time>
      </trkpt>
      <trkpt lat="43.70281" lon="5.07398">
        <ele>206</ele>
        <time>2019-09-26T12:35:05Z</time>
      </trkpt>
      <trkpt lat="43.7028" lon="5.07401">
        <ele>206</ele>
        <time>2019-09-26T12:35:07Z</time>
      </trkpt>
      <trkpt lat="43.70279" lon="5.07404">
        <ele>204</ele>
        <time>2019-09-26T12:35:09Z</time>
      </trkpt>
      <trkpt lat="43.70278" lon="5.07407">
        <ele>204</ele>
        <time>2019-09-26T12:35:11Z</time>
      </trkpt>
      <trkpt lat="43.70278" lon="5.07411">
        <ele>204</ele>
        <time>2019-09-26T12:35:13Z</time>
      </trkpt>
      <trkpt lat="43.70277" lon="5.07414">
        <ele>204</ele>
        <time>2019-09-26T12:35:15Z</time>
      </trkpt>
      <trkpt lat="43.70277" lon="5.07417">
        <ele>204</ele>
        <time>2019-09-26T12:35:17Z</time>
      </trkpt>
      <trkpt lat="43.70276" lon="5.0742">
        <ele>203</ele>
        <time>2019-09-26T12:35:19Z</time>
      </trkpt>
      <trkpt lat="43.70275" lon="5.07423">
        <ele>203</ele>
        <time>2019-09-26T12:35:21Z</time>
      </trkpt>
      <trkpt lat="43.70276" lon="5.07426">
        <ele>203</ele>
        <time>2019-09-26T12:35:23Z</time>
      </trkpt>
      <trkpt lat="43.70275" lon="5.0743">
        <ele>203</ele>
        <time>2019-09-26T12:35:25Z</time>
      </trkpt>
      <trkpt lat="43.70276" lon="5.07433">
        <ele>203</ele>
        <time>2019-09-26T12:35:27Z</time>
      </trkpt>
      <trkpt lat="43.70276" lon="5.07436">
        <ele>201</ele>
        <time>2019-09-26T12:35:29Z</time>
      </trkpt>
      <trkpt lat="43.70276" lon="5.07439">
        <ele>201</ele>
        <time>2019-09-26T12:35:31Z</time>
      </trkpt>
      <trkpt lat="43.70276" lon="5.07443">
        <ele>201</ele>
        <time>2019-09-26T12:35:33Z</time>
      </trkpt>
      <trkpt lat="43.70276" lon="5.07446">
        <ele>201</ele>
        <time>2019-09-26T12:35:35Z</time>
      </trkpt>
      <trkpt lat="43.70276" lon="5.07449">
        <ele>201</ele>
        <time>2019-09-26T12:35:37Z</time>
      </trkpt>
      <trkpt lat="43.70276" lon="5.07452">
        <ele>200</ele>
        <time>2019-09-26T12:35:39Z</time>
      </trkpt>
      <trkpt lat="43.70276" lon="5.07457">
        <ele>200</ele>
        <time>2019-09-26T12:35:41Z</time>
      </trkpt>
      <trkpt lat="43.70276" lon="5.07459">
        <ele>200</ele>
        <time>2019-09-26T12:35:44Z</time>
      </trkpt>
      <trkpt lat="43.70276" lon="5.07461">
        <ele>200</ele>
        <time>2019-09-26T12:35:46Z</time>
      </trkpt>
      <trkpt lat="43.70276" lon="5.07463">
        <ele>200</ele>
        <time>2019-09-26T12:35:48Z</time>
      </trkpt>
      <trkpt lat="43.70276" lon="5.07465">
        <ele>200</ele>
        <time>2019-09-26T12:35:49Z</time>
      </trkpt>
      <trkpt lat="43.70276" lon="5.07468">
        <ele>200</ele>
        <time>2019-09-26T12:35:50Z</time>
      </trkpt>
      <trkpt lat="43.70276" lon="5.07471">
        <ele>200</ele>
        <time>2019-09-26T12:35:52Z</time>
      </trkpt>
      <trkpt lat="43.70277" lon="5.07474">
        <ele>200</ele>
        <time>2019-09-26T12:35:54Z</time>
      </trkpt>
      <trkpt lat="43.70279" lon="5.07477">
        <ele>200</ele>
        <time>2019-09-26T12:35:57Z</time>
      </trkpt>
      <trkpt lat="43.7028" lon="5.07478">
        <ele>197</ele>
        <time>2019-09-26T12:35:59Z</time>
      </trkpt>
      <trkpt lat="43.70282" lon="5.0748">
        <ele>197</ele>
        <time>2019-09-26T12:36:01Z</time>
      </trkpt>
      <trkpt lat="43.70284" lon="5.07481">
        <ele>197</ele>
        <time>2019-09-26T12:36:03Z</time>
      </trkpt>
      <trkpt lat="43.70286" lon="5.07481">
        <ele>197</ele>
        <time>2019-09-26T12:36:05Z</time>
      </trkpt>
      <trkpt lat="43.70288" lon="5.07481">
        <ele>197</ele>
        <time>2019-09-26T12:36:07Z</time>
      </trkpt>
      <trkpt lat="43.70288" lon="5.07481">
        <ele>197</ele>
        <time>2019-09-26T12:36:09Z</time>
      </trkpt>
      <trkpt lat="43.70292" lon="5.07481">
        <ele>197</ele>
        <time>2019-09-26T12:36:10Z</time>
      </trkpt>
      <trkpt lat="43.70293" lon="5.07481">
        <ele>197</ele>
        <time>2019-09-26T12:36:12Z</time>
      </trkpt>
      <trkpt lat="43.70295" lon="5.07481">
        <ele>197</ele>
        <time>2019-09-26T12:36:14Z</time>
      </trkpt>
      <trkpt lat="43.70296" lon="5.07482">
        <ele>197</ele>
        <time>2019-09-26T12:36:16Z</time>
      </trkpt>
      <trkpt lat="43.70298" lon="5.07482">
        <ele>197</ele>
        <time>2019-09-26T12:36:18Z</time>
      </trkpt>
      <trkpt lat="43.70299" lon="5.07482">
        <ele>197</ele>
        <time>2019-09-26T12:36:19Z</time>
      </trkpt>
      <trkpt lat="43.70303" lon="5.07484">
        <ele>197</ele>
        <time>2019-09-26T12:36:20Z</time>
      </trkpt>
      <trkpt lat="43.70305" lon="5.07485">
        <ele>197</ele>
        <time>2019-09-26T12:36:22Z</time>
      </trkpt>
      <trkpt lat="43.70307" lon="5.07487">
        <ele>197</ele>
        <time>2019-09-26T12:36:24Z</time>
      </trkpt>
      <trkpt lat="43.70308" lon="5.07488">
        <ele>197</ele>
        <time>2019-09-26T12:36:26Z</time>
      </trkpt>
      <trkpt lat="43.7031" lon="5.07489">
        <ele>197</ele>
        <time>2019-09-26T12:36:28Z</time>
      </trkpt>
      <trkpt lat="43.70312" lon="5.0749">
        <ele>197</ele>
        <time>2019-09-26T12:36:29Z</time>
      </trkpt>
      <trkpt lat="43.70314" lon="5.07493">
        <ele>197</ele>
        <time>2019-09-26T12:36:30Z</time>
      </trkpt>
      <trkpt lat="43.70316" lon="5.07494">
        <ele>197</ele>
        <time>2019-09-26T12:36:32Z</time>
      </trkpt>
      <trkpt lat="43.70317" lon="5.07494">
        <ele>197</ele>
        <time>2019-09-26T12:36:34Z</time>
      </trkpt>
      <trkpt lat="43.70318" lon="5.07495">
        <ele>197</ele>
        <time>2019-09-26T12:36:36Z</time>
      </trkpt>
      <trkpt lat="43.70319" lon="5.07496">
        <ele>197</ele>
        <time>2019-09-26T12:36:38Z</time>
      </trkpt>
      <trkpt lat="43.70321" lon="5.07497">
        <ele>197</ele>
        <time>2019-09-26T12:36:39Z</time>
      </trkpt>
      <trkpt lat="43.70324" lon="5.07498">
        <ele>197</ele>
        <time>2019-09-26T12:36:40Z</time>
      </trkpt>
      <trkpt lat="43.70325" lon="5.07498">
        <ele>197</ele>
        <time>2019-09-26T12:36:43Z</time>
      </trkpt>
      <trkpt lat="43.70326" lon="5.07498">
        <ele>197</ele>
        <time>2019-09-26T12:36:46Z</time>
      </trkpt>
      <trkpt lat="43.70328" lon="5.07498">
        <ele>197</ele>
        <time>2019-09-26T12:36:48Z</time>
      </trkpt>
      <trkpt lat="43.70329" lon="5.07497">
        <ele>195</ele>
        <time>2019-09-26T12:36:49Z</time>
      </trkpt>
      <trkpt lat="43.70331" lon="5.07497">
        <ele>195</ele>
        <time>2019-09-26T12:36:50Z</time>
      </trkpt>
      <trkpt lat="43.70333" lon="5.07497">
        <ele>195</ele>
        <time>2019-09-26T12:36:52Z</time>
      </trkpt>
      <trkpt lat="43.70335" lon="5.07498">
        <ele>195</ele>
        <time>2019-09-26T12:36:54Z</time>
      </trkpt>
      <trkpt lat="43.70337" lon="5.07498">
        <ele>195</ele>
        <time>2019-09-26T12:36:56Z</time>
      </trkpt>
      <trkpt lat="43.7034" lon="5.07498">
        <ele>194</ele>
        <time>2019-09-26T12:36:59Z</time>
      </trkpt>
      <trkpt lat="43.70342" lon="5.07498">
        <ele>194</ele>
        <time>2019-09-26T12:37:01Z</time>
      </trkpt>
      <trkpt lat="43.70344" lon="5.07497">
        <ele>194</ele>
        <time>2019-09-26T12:37:03Z</time>
      </trkpt>
      <trkpt lat="43.70346" lon="5.07497">
        <ele>194</ele>
        <time>2019-09-26T12:37:05Z</time>
      </trkpt>
      <trkpt lat="43.70349" lon="5.07498">
        <ele>194</ele>
        <time>2019-09-26T12:37:07Z</time>
      </trkpt>
      <trkpt lat="43.70349" lon="5.07498">
        <ele>192</ele>
        <time>2019-09-26T12:37:09Z</time>
      </trkpt>
      <trkpt lat="43.70351" lon="5.07498">
        <ele>192</ele>
        <time>2019-09-26T12:37:11Z</time>
      </trkpt>
      <trkpt lat="43.70353" lon="5.07498">
        <ele>192</ele>
        <time>2019-09-26T12:37:13Z</time>
      </trkpt>
      <trkpt lat="43.70355" lon="5.07498">
        <ele>192</ele>
        <time>2019-09-26T12:37:15Z</time>
      </trkpt>
      <trkpt lat="43.70357" lon="5.07498">
        <ele>192</ele>
        <time>2019-09-26T12:37:17Z</time>
      </trkpt>
      <trkpt lat="43.7036" lon="5.07498">
        <ele>191</ele>
        <time>2019-09-26T12:37:19Z</time>
      </trkpt>
      <trkpt lat="43.70362" lon="5.07499">
        <ele>191</ele>
        <time>2019-09-26T12:37:21Z</time>
      </trkpt>
      <trkpt lat="43.70365" lon="5.075">
        <ele>191</ele>
        <time>2019-09-26T12:37:23Z</time>
      </trkpt>
      <trkpt lat="43.70368" lon="5.07501">
        <ele>191</ele>
        <time>2019-09-26T12:37:25Z</time>
      </trkpt>
      <trkpt lat="43.7037" lon="5.07501">
        <ele>191</ele>
        <time>2019-09-26T12:37:27Z</time>
      </trkpt>
      <trkpt lat="43.70373" lon="5.07502">
        <ele>190</ele>
        <time>2019-09-26T12:37:29Z</time>
      </trkpt>
      <trkpt lat="43.70376" lon="5.07504">
        <ele>190</ele>
        <time>2019-09-26T12:37:31Z</time>
      </trkpt>
      <trkpt lat="43.70378" lon="5.07505">
        <ele>190</ele>
        <time>2019-09-26T12:37:33Z</time>
      </trkpt>
      <trkpt lat="43.7038" lon="5.07506">
        <ele>190</ele>
        <time>2019-09-26T12:37:35Z</time>
      </trkpt>
      <trkpt lat="43.70382" lon="5.07507">
        <ele>190</ele>
        <time>2019-09-26T12:37:37Z</time>
      </trkpt>
      <trkpt lat="43.70385" lon="5.07509">
        <ele>190</ele>
        <time>2019-09-26T12:37:39Z</time>
      </trkpt>
      <trkpt lat="43.70387" lon="5.0751">
        <ele>190</ele>
        <time>2019-09-26T12:37:41Z</time>
      </trkpt>
      <trkpt lat="43.7039" lon="5.07512">
        <ele>190</ele>
        <time>2019-09-26T12:37:43Z</time>
      </trkpt>
      <trkpt lat="43.70392" lon="5.07514">
        <ele>190</ele>
        <time>2019-09-26T12:37:45Z</time>
      </trkpt>
      <trkpt lat="43.70394" lon="5.07516">
        <ele>190</ele>
        <time>2019-09-26T12:37:47Z</time>
      </trkpt>
      <trkpt lat="43.70397" lon="5.07517">
        <ele>190</ele>
        <time>2019-09-26T12:37:49Z</time>
      </trkpt>
      <trkpt lat="43.70399" lon="5.07518">
        <ele>190</ele>
        <time>2019-09-26T12:37:51Z</time>
      </trkpt>
      <trkpt lat="43.70401" lon="5.0752">
        <ele>190</ele>
        <time>2019-09-26T12:37:53Z</time>
      </trkpt>
      <trkpt lat="43.70402" lon="5.07521">
        <ele>190</ele>
        <time>2019-09-26T12:37:55Z</time>
      </trkpt>
      <trkpt lat="43.70405" lon="5.07523">
        <ele>190</ele>
        <time>2019-09-26T12:37:57Z</time>
      </trkpt>
      <trkpt lat="43.70407" lon="5.07525">
        <ele>189</ele>
        <time>2019-09-26T12:37:59Z</time>
      </trkpt>
      <trkpt lat="43.70409" lon="5.07527">
        <ele>189</ele>
        <time>2019-09-26T12:38:01Z</time>
      </trkpt>
      <trkpt lat="43.70411" lon="5.07527">
        <ele>189</ele>
        <time>2019-09-26T12:38:03Z</time>
      </trkpt>
      <trkpt lat="43.70414" lon="5.07529">
        <ele>189</ele>
        <time>2019-09-26T12:38:05Z</time>
      </trkpt>
      <trkpt lat="43.70416" lon="5.0753">
        <ele>189</ele>
        <time>2019-09-26T12:38:07Z</time>
      </trkpt>
      <trkpt lat="43.70418" lon="5.07531">
        <ele>186</ele>
        <time>2019-09-26T12:38:09Z</time>
      </trkpt>
      <trkpt lat="43.7042" lon="5.07532">
        <ele>186</ele>
        <time>2019-09-26T12:38:11Z</time>
      </trkpt>
      <trkpt lat="43.70422" lon="5.07534">
        <ele>186</ele>
        <time>2019-09-26T12:38:13Z</time>
      </trkpt>
      <trkpt lat="43.70425" lon="5.07535">
        <ele>186</ele>
        <time>2019-09-26T12:38:15Z</time>
      </trkpt>
      <trkpt lat="43.70427" lon="5.07536">
        <ele>186</ele>
        <time>2019-09-26T12:38:17Z</time>
      </trkpt>
      <trkpt lat="43.70429" lon="5.07538">
        <ele>186</ele>
        <time>2019-09-26T12:38:19Z</time>
      </trkpt>
      <trkpt lat="43.70432" lon="5.07542">
        <ele>186</ele>
        <time>2019-09-26T12:38:21Z</time>
      </trkpt>
      <trkpt lat="43.70433" lon="5.07543">
        <ele>186</ele>
        <time>2019-09-26T12:38:24Z</time>
      </trkpt>
      <trkpt lat="43.70434" lon="5.07544">
        <ele>186</ele>
        <time>2019-09-26T12:38:26Z</time>
      </trkpt>
      <trkpt lat="43.70435" lon="5.07546">
        <ele>186</ele>
        <time>2019-09-26T12:38:28Z</time>
      </trkpt>
      <trkpt lat="43.70436" lon="5.07547">
        <ele>186</ele>
        <time>2019-09-26T12:38:29Z</time>
      </trkpt>
      <trkpt lat="43.70439" lon="5.07551">
        <ele>186</ele>
        <time>2019-09-26T12:38:30Z</time>
      </trkpt>
      <trkpt lat="43.70441" lon="5.07553">
        <ele>186</ele>
        <time>2019-09-26T12:38:32Z</time>
      </trkpt>
      <trkpt lat="43.70442" lon="5.07555">
        <ele>186</ele>
        <time>2019-09-26T12:38:34Z</time>
      </trkpt>
      <trkpt lat="43.70443" lon="5.07556">
        <ele>186</ele>
        <time>2019-09-26T12:38:36Z</time>
      </trkpt>
      <trkpt lat="43.70445" lon="5.07558">
        <ele>186</ele>
        <time>2019-09-26T12:38:38Z</time>
      </trkpt>
      <trkpt lat="43.70446" lon="5.0756">
        <ele>184</ele>
        <time>2019-09-26T12:38:39Z</time>
      </trkpt>
      <trkpt lat="43.70448" lon="5.07564">
        <ele>184</ele>
        <time>2019-09-26T12:38:40Z</time>
      </trkpt>
      <trkpt lat="43.70449" lon="5.07566">
        <ele>184</ele>
        <time>2019-09-26T12:38:42Z</time>
      </trkpt>
      <trkpt lat="43.7045" lon="5.07569">
        <ele>184</ele>
        <time>2019-09-26T12:38:44Z</time>
      </trkpt>
      <trkpt lat="43.7045" lon="5.07572">
        <ele>184</ele>
        <time>2019-09-26T12:38:46Z</time>
      </trkpt>
      <trkpt lat="43.70451" lon="5.07574">
        <ele>184</ele>
        <time>2019-09-26T12:38:48Z</time>
      </trkpt>
      <trkpt lat="43.70452" lon="5.07577">
        <ele>184</ele>
        <time>2019-09-26T12:38:49Z</time>
      </trkpt>
      <trkpt lat="43.70452" lon="5.0758">
        <ele>184</ele>
        <time>2019-09-26T12:38:50Z</time>
      </trkpt>
      <trkpt lat="43.70452" lon="5.07583">
        <ele>184</ele>
        <time>2019-09-26T12:38:52Z</time>
      </trkpt>
      <trkpt lat="43.70452" lon="5.07585">
        <ele>184</ele>
        <time>2019-09-26T12:38:54Z</time>
      </trkpt>
      <trkpt lat="43.70452" lon="5.07587">
        <ele>184</ele>
        <time>2019-09-26T12:38:56Z</time>
      </trkpt>
      <trkpt lat="43.70453" lon="5.07589">
        <ele>184</ele>
        <time>2019-09-26T12:38:58Z</time>
      </trkpt>
      <trkpt lat="43.70453" lon="5.07592">
        <ele>182</ele>
        <time>2019-09-26T12:38:59Z</time>
      </trkpt>
      <trkpt lat="43.70453" lon="5.07596">
        <ele>182</ele>
        <time>2019-09-26T12:39:00Z</time>
      </trkpt>
      <trkpt lat="43.70452" lon="5.07598">
        <ele>182</ele>
        <time>2019-09-26T12:39:02Z</time>
      </trkpt>
      <trkpt lat="43.70452" lon="5.076">
        <ele>182</ele>
        <time>2019-09-26T12:39:04Z</time>
      </trkpt>
      <trkpt lat="43.70452" lon="5.07603">
        <ele>182</ele>
        <time>2019-09-26T12:39:06Z</time>
      </trkpt>
      <trkpt lat="43.70452" lon="5.07605">
        <ele>182</ele>
        <time>2019-09-26T12:39:08Z</time>
      </trkpt>
      <trkpt lat="43.70452" lon="5.07607">
        <ele>180</ele>
        <time>2019-09-26T12:39:09Z</time>
      </trkpt>
      <trkpt lat="43.70452" lon="5.07611">
        <ele>180</ele>
        <time>2019-09-26T12:39:10Z</time>
      </trkpt>
      <trkpt lat="43.70453" lon="5.07613">
        <ele>180</ele>
        <time>2019-09-26T12:39:12Z</time>
      </trkpt>
      <trkpt lat="43.70453" lon="5.07615">
        <ele>180</ele>
        <time>2019-09-26T12:39:14Z</time>
      </trkpt>
      <trkpt lat="43.70454" lon="5.07618">
        <ele>180</ele>
        <time>2019-09-26T12:39:16Z</time>
      </trkpt>
      <trkpt lat="43.70455" lon="5.0762">
        <ele>180</ele>
        <time>2019-09-26T12:39:18Z</time>
      </trkpt>
      <trkpt lat="43.70455" lon="5.07622">
        <ele>180</ele>
        <time>2019-09-26T12:39:19Z</time>
      </trkpt>
      <trkpt lat="43.70456" lon="5.07626">
        <ele>180</ele>
        <time>2019-09-26T12:39:20Z</time>
      </trkpt>
      <trkpt lat="43.70457" lon="5.07627">
        <ele>180</ele>
        <time>2019-09-26T12:39:22Z</time>
      </trkpt>
      <trkpt lat="43.70458" lon="5.07629">
        <ele>180</ele>
        <time>2019-09-26T12:39:25Z</time>
      </trkpt>
      <trkpt lat="43.70459" lon="5.07631">
        <ele>180</ele>
        <time>2019-09-26T12:39:28Z</time>
      </trkpt>
      <trkpt lat="43.7046" lon="5.07632">
        <ele>179</ele>
        <time>2019-09-26T12:39:29Z</time>
      </trkpt>
      <trkpt lat="43.70463" lon="5.07635">
        <ele>179</ele>
        <time>2019-09-26T12:39:33Z</time>
      </trkpt>
      <trkpt lat="43.70464" lon="5.07635">
        <ele>179</ele>
        <time>2019-09-26T12:39:36Z</time>
      </trkpt>
      <trkpt lat="43.70466" lon="5.07636">
        <ele>179</ele>
        <time>2019-09-26T12:39:38Z</time>
      </trkpt>
      <trkpt lat="43.70467" lon="5.07636">
        <ele>178</ele>
        <time>2019-09-26T12:39:39Z</time>
      </trkpt>
      <trkpt lat="43.70469" lon="5.07636">
        <ele>178</ele>
        <time>2019-09-26T12:39:40Z</time>
      </trkpt>
      <trkpt lat="43.70471" lon="5.07637">
        <ele>178</ele>
        <time>2019-09-26T12:39:42Z</time>
      </trkpt>
      <trkpt lat="43.70474" lon="5.07637">
        <ele>178</ele>
        <time>2019-09-26T12:39:44Z</time>
      </trkpt>
      <trkpt lat="43.70476" lon="5.07637">
        <ele>178</ele>
        <time>2019-09-26T12:39:46Z</time>
      </trkpt>
      <trkpt lat="43.70478" lon="5.07636">
        <ele>177</ele>
        <time>2019-09-26T12:39:49Z</time>
      </trkpt>
      <trkpt lat="43.7048" lon="5.07635">
        <ele>177</ele>
        <time>2019-09-26T12:39:51Z</time>
      </trkpt>
      <trkpt lat="43.70483" lon="5.07634">
        <ele>177</ele>
        <time>2019-09-26T12:39:53Z</time>
      </trkpt>
      <trkpt lat="43.70485" lon="5.07634">
        <ele>177</ele>
        <time>2019-09-26T12:39:55Z</time>
      </trkpt>
      <trkpt lat="43.70487" lon="5.07634">
        <ele>177</ele>
        <time>2019-09-26T12:39:57Z</time>
      </trkpt>
      <trkpt lat="43.7049" lon="5.07634">
        <ele>177</ele>
        <time>2019-09-26T12:39:59Z</time>
      </trkpt>
      <trkpt lat="43.70492" lon="5.07634">
        <ele>177</ele>
        <time>2019-09-26T12:40:01Z</time>
      </trkpt>
      <trkpt lat="43.70494" lon="5.07634">
        <ele>177</ele>
        <time>2019-09-26T12:40:03Z</time>
      </trkpt>
      <trkpt lat="43.70497" lon="5.07633">
        <ele>177</ele>
        <time>2019-09-26T12:40:05Z</time>
      </trkpt>
      <trkpt lat="43.705" lon="5.07633">
        <ele>177</ele>
        <time>2019-09-26T12:40:07Z</time>
      </trkpt>
      <trkpt lat="43.70502" lon="5.07633">
        <ele>177</ele>
        <time>2019-09-26T12:40:09Z</time>
      </trkpt>
      <trkpt lat="43.70505" lon="5.07634">
        <ele>177</ele>
        <time>2019-09-26T12:40:11Z</time>
      </trkpt>
      <trkpt lat="43.70508" lon="5.07634">
        <ele>177</ele>
        <time>2019-09-26T12:40:13Z</time>
      </trkpt>
      <trkpt lat="43.70511" lon="5.07634">
        <ele>177</ele>
        <time>2019-09-26T12:40:15Z</time>
      </trkpt>
      <trkpt lat="43.70513" lon="5.07634">
        <ele>177</ele>
        <time>2019-09-26T12:40:17Z</time>
      </trkpt>
      <trkpt lat="43.70516" lon="5.07634">
        <ele>178</ele>
        <time>2019-09-26T12:40:19Z</time>
      </trkpt>
      <trkpt lat="43.70518" lon="5.07634">
        <ele>178</ele>
        <time>2019-09-26T12:40:21Z</time>
      </trkpt>
      <trkpt lat="43.7052" lon="5.07634">
        <ele>178</ele>
        <time>2019-09-26T12:40:23Z</time>
      </trkpt>
      <trkpt lat="43.70523" lon="5.07634">
        <ele>178</ele>
        <time>2019-09-26T12:40:25Z</time>
      </trkpt>
      <trkpt lat="43.70526" lon="5.07635">
        <ele>178</ele>
        <time>2019-09-26T12:40:27Z</time>
      </trkpt>
      <trkpt lat="43.70528" lon="5.07635">
        <ele>177</ele>
        <time>2019-09-26T12:40:29Z</time>
      </trkpt>
      <trkpt lat="43.70531" lon="5.07636">
        <ele>177</ele>
        <time>2019-09-26T12:40:31Z</time>
      </trkpt>
      <trkpt lat="43.70533" lon="5.07636">
        <ele>177</ele>
        <time>2019-09-26T12:40:33Z</time>
      </trkpt>
      <trkpt lat="43.70536" lon="5.07636">
        <ele>177</ele>
        <time>2019-09-26T12:40:37Z</time>
      </trkpt>
      <trkpt lat="43.70538" lon="5.07636">
        <ele>177</ele>
        <time>2019-09-26T12:40:39Z</time>
      </trkpt>
      <trkpt lat="43.7054" lon="5.07636">
        <ele>177</ele>
        <time>2019-09-26T12:40:41Z</time>
      </trkpt>
      <trkpt lat="43.70543" lon="5.07636">
        <ele>177</ele>
        <time>2019-09-26T12:40:43Z</time>
      </trkpt>
      <trkpt lat="43.70545" lon="5.07636">
        <ele>177</ele>
        <time>2019-09-26T12:40:45Z</time>
      </trkpt>
      <trkpt lat="43.70547" lon="5.07637">
        <ele>177</ele>
        <time>2019-09-26T12:40:47Z</time>
      </trkpt>
      <trkpt lat="43.7055" lon="5.07637">
        <ele>177</ele>
        <time>2019-09-26T12:40:49Z</time>
      </trkpt>
      <trkpt lat="43.70552" lon="5.07637">
        <ele>177</ele>
        <time>2019-09-26T12:40:51Z</time>
      </trkpt>
      <trkpt lat="43.70554" lon="5.07637">
        <ele>177</ele>
        <time>2019-09-26T12:40:53Z</time>
      </trkpt>
      <trkpt lat="43.70557" lon="5.07638">
        <ele>177</ele>
        <time>2019-09-26T12:40:55Z</time>
      </trkpt>
      <trkpt lat="43.70559" lon="5.07639">
        <ele>177</ele>
        <time>2019-09-26T12:40:57Z</time>
      </trkpt>
      <trkpt lat="43.70562" lon="5.07639">
        <ele>177</ele>
        <time>2019-09-26T12:40:59Z</time>
      </trkpt>
      <trkpt lat="43.70566" lon="5.07639">
        <ele>177</ele>
        <time>2019-09-26T12:41:01Z</time>
      </trkpt>
      <trkpt lat="43.70567" lon="5.07639">
        <ele>177</ele>
        <time>2019-09-26T12:41:03Z</time>
      </trkpt>
      <trkpt lat="43.70569" lon="5.07639">
        <ele>177</ele>
        <time>2019-09-26T12:41:06Z</time>
      </trkpt>
      <trkpt lat="43.7057" lon="5.07639">
        <ele>177</ele>
        <time>2019-09-26T12:41:08Z</time>
      </trkpt>
      <trkpt lat="43.70572" lon="5.07639">
        <ele>176</ele>
        <time>2019-09-26T12:41:09Z</time>
      </trkpt>
      <trkpt lat="43.70576" lon="5.07639">
        <ele>176</ele>
        <time>2019-09-26T12:41:10Z</time>
      </trkpt>
      <trkpt lat="43.70577" lon="5.0764">
        <ele>176</ele>
        <time>2019-09-26T12:41:12Z</time>
      </trkpt>
      <trkpt lat="43.70579" lon="5.0764">
        <ele>176</ele>
        <time>2019-09-26T12:41:14Z</time>
      </trkpt>
      <trkpt lat="43.70581" lon="5.0764">
        <ele>176</ele>
        <time>2019-09-26T12:41:16Z</time>
      </trkpt>
      <trkpt lat="43.70582" lon="5.0764">
        <ele>176</ele>
        <time>2019-09-26T12:41:18Z</time>
      </trkpt>
      <trkpt lat="43.70584" lon="5.07641">
        <ele>176</ele>
        <time>2019-09-26T12:41:19Z</time>
      </trkpt>
      <trkpt lat="43.70585" lon="5.07641">
        <ele>176</ele>
        <time>2019-09-26T12:41:21Z</time>
      </trkpt>
      <trkpt lat="43.70587" lon="5.07642">
        <ele>176</ele>
        <time>2019-09-26T12:41:23Z</time>
      </trkpt>
      <trkpt lat="43.70589" lon="5.07643">
        <ele>176</ele>
        <time>2019-09-26T12:41:27Z</time>
      </trkpt>
      <trkpt lat="43.70592" lon="5.07643">
        <ele>173</ele>
        <time>2019-09-26T12:41:29Z</time>
      </trkpt>
      <trkpt lat="43.70594" lon="5.07644">
        <ele>173</ele>
        <time>2019-09-26T12:41:31Z</time>
      </trkpt>
      <trkpt lat="43.70596" lon="5.07643">
        <ele>173</ele>
        <time>2019-09-26T12:41:33Z</time>
      </trkpt>
      <trkpt lat="43.70599" lon="5.07643">
        <ele>173</ele>
        <time>2019-09-26T12:41:35Z</time>
      </trkpt>
      <trkpt lat="43.70601" lon="5.07643">
        <ele>173</ele>
        <time>2019-09-26T12:41:37Z</time>
      </trkpt>
      <trkpt lat="43.70604" lon="5.07643">
        <ele>172</ele>
        <time>2019-09-26T12:41:39Z</time>
      </trkpt>
      <trkpt lat="43.70607" lon="5.07643">
        <ele>172</ele>
        <time>2019-09-26T12:41:41Z</time>
      </trkpt>
      <trkpt lat="43.70609" lon="5.07643">
        <ele>172</ele>
        <time>2019-09-26T12:41:43Z</time>
      </trkpt>
      <trkpt lat="43.70611" lon="5.07644">
        <ele>172</ele>
        <time>2019-09-26T12:41:45Z</time>
      </trkpt>
      <trkpt lat="43.70614" lon="5.07644">
        <ele>172</ele>
        <time>2019-09-26T12:41:47Z</time>
      </trkpt>
      <trkpt lat="43.70616" lon="5.07645">
        <ele>172</ele>
        <time>2019-09-26T12:41:49Z</time>
      </trkpt>
      <trkpt lat="43.70618" lon="5.07646">
        <ele>172</ele>
        <time>2019-09-26T12:41:51Z</time>
      </trkpt>
      <trkpt lat="43.7062" lon="5.07646">
        <ele>172</ele>
        <time>2019-09-26T12:41:53Z</time>
      </trkpt>
      <trkpt lat="43.70622" lon="5.07646">
        <ele>172</ele>
        <time>2019-09-26T12:41:55Z</time>
      </trkpt>
      <trkpt lat="43.70624" lon="5.07647">
        <ele>172</ele>
        <time>2019-09-26T12:41:57Z</time>
      </trkpt>
      <trkpt lat="43.70627" lon="5.07647">
        <ele>172</ele>
        <time>2019-09-26T12:41:59Z</time>
      </trkpt>
      <trkpt lat="43.70629" lon="5.07647">
        <ele>172</ele>
        <time>2019-09-26T12:42:01Z</time>
      </trkpt>
      <trkpt lat="43.70631" lon="5.07648">
        <ele>172</ele>
        <time>2019-09-26T12:42:03Z</time>
      </trkpt>
      <trkpt lat="43.70633" lon="5.07649">
        <ele>172</ele>
        <time>2019-09-26T12:42:05Z</time>
      </trkpt>
      <trkpt lat="43.70636" lon="5.07649">
        <ele>172</ele>
        <time>2019-09-26T12:42:07Z</time>
      </trkpt>
      <trkpt lat="43.70636" lon="5.07649">
        <ele>170</ele>
        <time>2019-09-26T12:42:09Z</time>
      </trkpt>
      <trkpt lat="43.70637" lon="5.0765">
        <ele>170</ele>
        <time>2019-09-26T12:42:11Z</time>
      </trkpt>
      <trkpt lat="43.7064" lon="5.07652">
        <ele>170</ele>
        <time>2019-09-26T12:42:13Z</time>
      </trkpt>
      <trkpt lat="43.70642" lon="5.07652">
        <ele>170</ele>
        <time>2019-09-26T12:42:15Z</time>
      </trkpt>
      <trkpt lat="43.70644" lon="5.07652">
        <ele>170</ele>
        <time>2019-09-26T12:42:17Z</time>
      </trkpt>
      <trkpt lat="43.70647" lon="5.07653">
        <ele>170</ele>
        <time>2019-09-26T12:42:19Z</time>
      </trkpt>
      <trkpt lat="43.70649" lon="5.07654">
        <ele>170</ele>
        <time>2019-09-26T12:42:21Z</time>
      </trkpt>
      <trkpt lat="43.70652" lon="5.07655">
        <ele>170</ele>
        <time>2019-09-26T12:42:23Z</time>
      </trkpt>
      <trkpt lat="43.70654" lon="5.07654">
        <ele>170</ele>
        <time>2019-09-26T12:42:25Z</time>
      </trkpt>
      <trkpt lat="43.70656" lon="5.07653">
        <ele>170</ele>
        <time>2019-09-26T12:42:27Z</time>
      </trkpt>
      <trkpt lat="43.70658" lon="5.07653">
        <ele>168</ele>
        <time>2019-09-26T12:42:29Z</time>
      </trkpt>
      <trkpt lat="43.7066" lon="5.07653">
        <ele>168</ele>
        <time>2019-09-26T12:42:31Z</time>
      </trkpt>
      <trkpt lat="43.70663" lon="5.07653">
        <ele>168</ele>
        <time>2019-09-26T12:42:33Z</time>
      </trkpt>
      <trkpt lat="43.70665" lon="5.07655">
        <ele>168</ele>
        <time>2019-09-26T12:42:35Z</time>
      </trkpt>
      <trkpt lat="43.70667" lon="5.07653">
        <ele>168</ele>
        <time>2019-09-26T12:42:37Z</time>
      </trkpt>
      <trkpt lat="43.70669" lon="5.07652">
        <ele>167</ele>
        <time>2019-09-26T12:42:39Z</time>
      </trkpt>
      <trkpt lat="43.7067" lon="5.0765">
        <ele>167</ele>
        <time>2019-09-26T12:42:41Z</time>
      </trkpt>
      <trkpt lat="43.70672" lon="5.07648">
        <ele>167</ele>
        <time>2019-09-26T12:42:43Z</time>
      </trkpt>
      <trkpt lat="43.70674" lon="5.07646">
        <ele>167</ele>
        <time>2019-09-26T12:42:45Z</time>
      </trkpt>
      <trkpt lat="43.70676" lon="5.07645">
        <ele>167</ele>
        <time>2019-09-26T12:42:47Z</time>
      </trkpt>
      <trkpt lat="43.70678" lon="5.07644">
        <ele>166</ele>
        <time>2019-09-26T12:42:49Z</time>
      </trkpt>
      <trkpt lat="43.7068" lon="5.07643">
        <ele>166</ele>
        <time>2019-09-26T12:42:51Z</time>
      </trkpt>
      <trkpt lat="43.70682" lon="5.07641">
        <ele>166</ele>
        <time>2019-09-26T12:42:53Z</time>
      </trkpt>
      <trkpt lat="43.70685" lon="5.0764">
        <ele>166</ele>
        <time>2019-09-26T12:42:55Z</time>
      </trkpt>
      <trkpt lat="43.70686" lon="5.07639">
        <ele>166</ele>
        <time>2019-09-26T12:42:57Z</time>
      </trkpt>
      <trkpt lat="43.70686" lon="5.07639">
        <ele>164</ele>
        <time>2019-09-26T12:42:59Z</time>
      </trkpt>
      <trkpt lat="43.7069" lon="5.07636">
        <ele>164</ele>
        <time>2019-09-26T12:43:00Z</time>
      </trkpt>
      <trkpt lat="43.70691" lon="5.07635">
        <ele>164</ele>
        <time>2019-09-26T12:43:02Z</time>
      </trkpt>
      <trkpt lat="43.70693" lon="5.07634">
        <ele>164</ele>
        <time>2019-09-26T12:43:04Z</time>
      </trkpt>
      <trkpt lat="43.70694" lon="5.07633">
        <ele>164</ele>
        <time>2019-09-26T12:43:06Z</time>
      </trkpt>
      <trkpt lat="43.70695" lon="5.07632">
        <ele>164</ele>
        <time>2019-09-26T12:43:08Z</time>
      </trkpt>
      <trkpt lat="43.70697" lon="5.07631">
        <ele>164</ele>
        <time>2019-09-26T12:43:09Z</time>
      </trkpt>
      <trkpt lat="43.70698" lon="5.0763">
        <ele>164</ele>
        <time>2019-09-26T12:43:11Z</time>
      </trkpt>
      <trkpt lat="43.70701" lon="5.07628">
        <ele>164</ele>
        <time>2019-09-26T12:43:13Z</time>
      </trkpt>
      <trkpt lat="43.70702" lon="5.07627">
        <ele>164</ele>
        <time>2019-09-26T12:43:15Z</time>
      </trkpt>
      <trkpt lat="43.70704" lon="5.07626">
        <ele>164</ele>
        <time>2019-09-26T12:43:17Z</time>
      </trkpt>
      <trkpt lat="43.70706" lon="5.07625">
        <ele>164</ele>
        <time>2019-09-26T12:43:19Z</time>
      </trkpt>
      <trkpt lat="43.70709" lon="5.07624">
        <ele>164</ele>
        <time>2019-09-26T12:43:21Z</time>
      </trkpt>
      <trkpt lat="43.70711" lon="5.07623">
        <ele>164</ele>
        <time>2019-09-26T12:43:23Z</time>
      </trkpt>
      <trkpt lat="43.70713" lon="5.07622">
        <ele>164</ele>
        <time>2019-09-26T12:43:25Z</time>
      </trkpt>
      <trkpt lat="43.70715" lon="5.07621">
        <ele>164</ele>
        <time>2019-09-26T12:43:27Z</time>
      </trkpt>
      <trkpt lat="43.70716" lon="5.0762">
        <ele>163</ele>
        <time>2019-09-26T12:43:29Z</time>
      </trkpt>
      <trkpt lat="43.70718" lon="5.07619">
        <ele>163</ele>
        <time>2019-09-26T12:43:31Z</time>
      </trkpt>
      <trkpt lat="43.7072" lon="5.07617">
        <ele>163</ele>
        <time>2019-09-26T12:43:33Z</time>
      </trkpt>
      <trkpt lat="43.70722" lon="5.07616">
        <ele>163</ele>
        <time>2019-09-26T12:43:35Z</time>
      </trkpt>
      <trkpt lat="43.70724" lon="5.07615">
        <ele>163</ele>
        <time>2019-09-26T12:43:37Z</time>
      </trkpt>
      <trkpt lat="43.70727" lon="5.07614">
        <ele>163</ele>
        <time>2019-09-26T12:43:39Z</time>
      </trkpt>
      <trkpt lat="43.70729" lon="5.07613">
        <ele>163</ele>
        <time>2019-09-26T12:43:41Z</time>
      </trkpt>
      <trkpt lat="43.70731" lon="5.07613">
        <ele>163</ele>
        <time>2019-09-26T12:43:43Z</time>
      </trkpt>
      <trkpt lat="43.70733" lon="5.07612">
        <ele>163</ele>
        <time>2019-09-26T12:43:45Z</time>
      </trkpt>
      <trkpt lat="43.70735" lon="5.0761">
        <ele>163</ele>
        <time>2019-09-26T12:43:47Z</time>
      </trkpt>
      <trkpt lat="43.70738" lon="5.0761">
        <ele>161</ele>
        <time>2019-09-26T12:43:49Z</time>
      </trkpt>
      <trkpt lat="43.70741" lon="5.07608">
        <ele>161</ele>
        <time>2019-09-26T12:43:51Z</time>
      </trkpt>
      <trkpt lat="43.70742" lon="5.07607">
        <ele>161</ele>
        <time>2019-09-26T12:43:53Z</time>
      </trkpt>
      <trkpt lat="43.70743" lon="5.07606">
        <ele>161</ele>
        <time>2019-09-26T12:43:55Z</time>
      </trkpt>
      <trkpt lat="43.70745" lon="5.07606">
        <ele>161</ele>
        <time>2019-09-26T12:43:58Z</time>
      </trkpt>
      <trkpt lat="43.70746" lon="5.07605">
        <ele>160</ele>
        <time>2019-09-26T12:43:59Z</time>
      </trkpt>
      <trkpt lat="43.70748" lon="5.07604">
        <ele>160</ele>
        <time>2019-09-26T12:44:02Z</time>
      </trkpt>
      <trkpt lat="43.7075" lon="5.07606">
        <ele>160</ele>
        <time>2019-09-26T12:44:04Z</time>
      </trkpt>
      <trkpt lat="43.70753" lon="5.07605">
        <ele>159</ele>
        <time>2019-09-26T12:44:09Z</time>
      </trkpt>
      <trkpt lat="43.70755" lon="5.07603">
        <ele>159</ele>
        <time>2019-09-26T12:44:11Z</time>
      </trkpt>
      <trkpt lat="43.70756" lon="5.07601">
        <ele>159</ele>
        <time>2019-09-26T12:44:14Z</time>
      </trkpt>
      <trkpt lat="43.70759" lon="5.076">
        <ele>159</ele>
        <time>2019-09-26T12:44:17Z</time>
      </trkpt>
      <trkpt lat="43.7076" lon="5.07599">
        <ele>158</ele>
        <time>2019-09-26T12:44:19Z</time>
      </trkpt>
      <trkpt lat="43.70762" lon="5.07598">
        <ele>158</ele>
        <time>2019-09-26T12:44:21Z</time>
      </trkpt>
      <trkpt lat="43.70764" lon="5.07596">
        <ele>158</ele>
        <time>2019-09-26T12:44:24Z</time>
      </trkpt>
      <trkpt lat="43.70767" lon="5.07594">
        <ele>158</ele>
        <time>2019-09-26T12:44:27Z</time>
      </trkpt>
      <trkpt lat="43.70769" lon="5.07593">
        <ele>157</ele>
        <time>2019-09-26T12:44:29Z</time>
      </trkpt>
      <trkpt lat="43.70772" lon="5.07592">
        <ele>157</ele>
        <time>2019-09-26T12:44:31Z</time>
      </trkpt>
      <trkpt lat="43.70773" lon="5.07591">
        <ele>157</ele>
        <time>2019-09-26T12:44:34Z</time>
      </trkpt>
      <trkpt lat="43.70774" lon="5.0759">
        <ele>157</ele>
        <time>2019-09-26T12:44:36Z</time>
      </trkpt>
      <trkpt lat="43.70776" lon="5.0759">
        <ele>157</ele>
        <time>2019-09-26T12:44:38Z</time>
      </trkpt>
      <trkpt lat="43.70777" lon="5.07589">
        <ele>156</ele>
        <time>2019-09-26T12:44:39Z</time>
      </trkpt>
      <trkpt lat="43.7078" lon="5.07587">
        <ele>156</ele>
        <time>2019-09-26T12:44:40Z</time>
      </trkpt>
      <trkpt lat="43.70781" lon="5.07585">
        <ele>156</ele>
        <time>2019-09-26T12:44:42Z</time>
      </trkpt>
      <trkpt lat="43.70783" lon="5.07584">
        <ele>156</ele>
        <time>2019-09-26T12:44:44Z</time>
      </trkpt>
      <trkpt lat="43.70784" lon="5.07583">
        <ele>156</ele>
        <time>2019-09-26T12:44:46Z</time>
      </trkpt>
      <trkpt lat="43.70785" lon="5.07582">
        <ele>156</ele>
        <time>2019-09-26T12:44:48Z</time>
      </trkpt>
      <trkpt lat="43.70787" lon="5.07581">
        <ele>155</ele>
        <time>2019-09-26T12:44:49Z</time>
      </trkpt>
      <trkpt lat="43.70789" lon="5.0758">
        <ele>155</ele>
        <time>2019-09-26T12:44:50Z</time>
      </trkpt>
      <trkpt lat="43.7079" lon="5.07579">
        <ele>155</ele>
        <time>2019-09-26T12:44:52Z</time>
      </trkpt>
      <trkpt lat="43.70791" lon="5.07579">
        <ele>155</ele>
        <time>2019-09-26T12:44:54Z</time>
      </trkpt>
      <trkpt lat="43.70793" lon="5.07578">
        <ele>155</ele>
        <time>2019-09-26T12:44:56Z</time>
      </trkpt>
      <trkpt lat="43.70794" lon="5.07577">
        <ele>155</ele>
        <time>2019-09-26T12:44:58Z</time>
      </trkpt>
      <trkpt lat="43.70795" lon="5.07577">
        <ele>154</ele>
        <time>2019-09-26T12:44:59Z</time>
      </trkpt>
      <trkpt lat="43.70798" lon="5.07575">
        <ele>154</ele>
        <time>2019-09-26T12:45:01Z</time>
      </trkpt>
      <trkpt lat="43.70799" lon="5.07574">
        <ele>154</ele>
        <time>2019-09-26T12:45:06Z</time>
      </trkpt>
      <trkpt lat="43.708" lon="5.07573">
        <ele>154</ele>
        <time>2019-09-26T12:45:09Z</time>
      </trkpt>
      <trkpt lat="43.70801" lon="5.07572">
        <ele>152</ele>
        <time>2019-09-26T12:45:10Z</time>
      </trkpt>
      <trkpt lat="43.70803" lon="5.07571">
        <ele>152</ele>
        <time>2019-09-26T12:45:11Z</time>
      </trkpt>
      <trkpt lat="43.70805" lon="5.0757">
        <ele>152</ele>
        <time>2019-09-26T12:45:13Z</time>
      </trkpt>
      <trkpt lat="43.70807" lon="5.07569">
        <ele>152</ele>
        <time>2019-09-26T12:45:15Z</time>
      </trkpt>
      <trkpt lat="43.70809" lon="5.07567">
        <ele>152</ele>
        <time>2019-09-26T12:45:17Z</time>
      </trkpt>
      <trkpt lat="43.70811" lon="5.07566">
        <ele>152</ele>
        <time>2019-09-26T12:45:19Z</time>
      </trkpt>
      <trkpt lat="43.70813" lon="5.07565">
        <ele>152</ele>
        <time>2019-09-26T12:45:21Z</time>
      </trkpt>
      <trkpt lat="43.70815" lon="5.07563">
        <ele>152</ele>
        <time>2019-09-26T12:45:23Z</time>
      </trkpt>
      <trkpt lat="43.70817" lon="5.07561">
        <ele>152</ele>
        <time>2019-09-26T12:45:25Z</time>
      </trkpt>
      <trkpt lat="43.70819" lon="5.0756">
        <ele>152</ele>
        <time>2019-09-26T12:45:27Z</time>
      </trkpt>
      <trkpt lat="43.70821" lon="5.07558">
        <ele>150</ele>
        <time>2019-09-26T12:45:29Z</time>
      </trkpt>
      <trkpt lat="43.70823" lon="5.07557">
        <ele>150</ele>
        <time>2019-09-26T12:45:31Z</time>
      </trkpt>
      <trkpt lat="43.70825" lon="5.07555">
        <ele>150</ele>
        <time>2019-09-26T12:45:33Z</time>
      </trkpt>
      <trkpt lat="43.70827" lon="5.07555">
        <ele>150</ele>
        <time>2019-09-26T12:45:35Z</time>
      </trkpt>
      <trkpt lat="43.70829" lon="5.07553">
        <ele>150</ele>
        <time>2019-09-26T12:45:37Z</time>
      </trkpt>
      <trkpt lat="43.70831" lon="5.07552">
        <ele>149</ele>
        <time>2019-09-26T12:45:39Z</time>
      </trkpt>
      <trkpt lat="43.70834" lon="5.07552">
        <ele>149</ele>
        <time>2019-09-26T12:45:41Z</time>
      </trkpt>
      <trkpt lat="43.70836" lon="5.07551">
        <ele>149</ele>
        <time>2019-09-26T12:45:43Z</time>
      </trkpt>
      <trkpt lat="43.70838" lon="5.07552">
        <ele>149</ele>
        <time>2019-09-26T12:45:45Z</time>
      </trkpt>
      <trkpt lat="43.70841" lon="5.07552">
        <ele>149</ele>
        <time>2019-09-26T12:45:47Z</time>
      </trkpt>
      <trkpt lat="43.70843" lon="5.07552">
        <ele>148</ele>
        <time>2019-09-26T12:45:49Z</time>
      </trkpt>
      <trkpt lat="43.70847" lon="5.07554">
        <ele>148</ele>
        <time>2019-09-26T12:45:51Z</time>
      </trkpt>
      <trkpt lat="43.70848" lon="5.07556">
        <ele>148</ele>
        <time>2019-09-26T12:45:53Z</time>
      </trkpt>
      <trkpt lat="43.7085" lon="5.07558">
        <ele>148</ele>
        <time>2019-09-26T12:45:54Z</time>
      </trkpt>
      <trkpt lat="43.70852" lon="5.0756">
        <ele>148</ele>
        <time>2019-09-26T12:45:56Z</time>
      </trkpt>
      <trkpt lat="43.70854" lon="5.07561">
        <ele>148</ele>
        <time>2019-09-26T12:45:58Z</time>
      </trkpt>
      <trkpt lat="43.70855" lon="5.07563">
        <ele>147</ele>
        <time>2019-09-26T12:45:59Z</time>
      </trkpt>
      <trkpt lat="43.70857" lon="5.07568">
        <ele>147</ele>
        <time>2019-09-26T12:46:00Z</time>
      </trkpt>
      <trkpt lat="43.70858" lon="5.07571">
        <ele>147</ele>
        <time>2019-09-26T12:46:01Z</time>
      </trkpt>
      <trkpt lat="43.70859" lon="5.07574">
        <ele>147</ele>
        <time>2019-09-26T12:46:03Z</time>
      </trkpt>
      <trkpt lat="43.7086" lon="5.07577">
        <ele>147</ele>
        <time>2019-09-26T12:46:05Z</time>
      </trkpt>
      <trkpt lat="43.70861" lon="5.0758">
        <ele>147</ele>
        <time>2019-09-26T12:46:07Z</time>
      </trkpt>
      <trkpt lat="43.70862" lon="5.07583">
        <ele>146</ele>
        <time>2019-09-26T12:46:09Z</time>
      </trkpt>
      <trkpt lat="43.70862" lon="5.07587">
        <ele>146</ele>
        <time>2019-09-26T12:46:11Z</time>
      </trkpt>
      <trkpt lat="43.70862" lon="5.0759">
        <ele>146</ele>
        <time>2019-09-26T12:46:13Z</time>
      </trkpt>
      <trkpt lat="43.70862" lon="5.07593">
        <ele>146</ele>
        <time>2019-09-26T12:46:15Z</time>
      </trkpt>
      <trkpt lat="43.70863" lon="5.07597">
        <ele>146</ele>
        <time>2019-09-26T12:46:17Z</time>
      </trkpt>
      <trkpt lat="43.70863" lon="5.076">
        <ele>146</ele>
        <time>2019-09-26T12:46:19Z</time>
      </trkpt>
      <trkpt lat="43.70864" lon="5.07603">
        <ele>146</ele>
        <time>2019-09-26T12:46:21Z</time>
      </trkpt>
      <trkpt lat="43.70864" lon="5.07606">
        <ele>146</ele>
        <time>2019-09-26T12:46:23Z</time>
      </trkpt>
      <trkpt lat="43.70864" lon="5.07609">
        <ele>146</ele>
        <time>2019-09-26T12:46:25Z</time>
      </trkpt>
      <trkpt lat="43.70864" lon="5.07613">
        <ele>146</ele>
        <time>2019-09-26T12:46:27Z</time>
      </trkpt>
      <trkpt lat="43.70865" lon="5.07615">
        <ele>145</ele>
        <time>2019-09-26T12:46:29Z</time>
      </trkpt>
      <trkpt lat="43.70865" lon="5.07619">
        <ele>145</ele>
        <time>2019-09-26T12:46:31Z</time>
      </trkpt>
      <trkpt lat="43.70866" lon="5.07621">
        <ele>145</ele>
        <time>2019-09-26T12:46:33Z</time>
      </trkpt>
      <trkpt lat="43.70866" lon="5.07624">
        <ele>145</ele>
        <time>2019-09-26T12:46:35Z</time>
      </trkpt>
      <trkpt lat="43.70867" lon="5.07627">
        <ele>145</ele>
        <time>2019-09-26T12:46:37Z</time>
      </trkpt>
      <trkpt lat="43.70868" lon="5.07631">
        <ele>143</ele>
        <time>2019-09-26T12:46:39Z</time>
      </trkpt>
      <trkpt lat="43.70868" lon="5.07634">
        <ele>143</ele>
        <time>2019-09-26T12:46:41Z</time>
      </trkpt>
      <trkpt lat="43.70869" lon="5.07637">
        <ele>143</ele>
        <time>2019-09-26T12:46:43Z</time>
      </trkpt>
      <trkpt lat="43.7087" lon="5.0764">
        <ele>143</ele>
        <time>2019-09-26T12:46:45Z</time>
      </trkpt>
      <trkpt lat="43.70871" lon="5.07643">
        <ele>143</ele>
        <time>2019-09-26T12:46:47Z</time>
      </trkpt>
      <trkpt lat="43.70872" lon="5.07646">
        <ele>143</ele>
        <time>2019-09-26T12:46:49Z</time>
      </trkpt>
      <trkpt lat="43.70873" lon="5.07649">
        <ele>143</ele>
        <time>2019-09-26T12:46:51Z</time>
      </trkpt>
      <trkpt lat="43.70874" lon="5.07653">
        <ele>143</ele>
        <time>2019-09-26T12:46:53Z</time>
      </trkpt>
      <trkpt lat="43.70875" lon="5.07656">
        <ele>143</ele>
        <time>2019-09-26T12:46:55Z</time>
      </trkpt>
      <trkpt lat="43.70876" lon="5.0766">
        <ele>143</ele>
        <time>2019-09-26T12:46:57Z</time>
      </trkpt>
      <trkpt lat="43.70876" lon="5.07663">
        <ele>142</ele>
        <time>2019-09-26T12:46:59Z</time>
      </trkpt>
      <trkpt lat="43.70877" lon="5.07666">
        <ele>142</ele>
        <time>2019-09-26T12:47:01Z</time>
      </trkpt>
      <trkpt lat="43.70878" lon="5.07669">
        <ele>142</ele>
        <time>2019-09-26T12:47:03Z</time>
      </trkpt>
      <trkpt lat="43.70879" lon="5.07672">
        <ele>142</ele>
        <time>2019-09-26T12:47:05Z</time>
      </trkpt>
      <trkpt lat="43.7088" lon="5.07675">
        <ele>142</ele>
        <time>2019-09-26T12:47:07Z</time>
      </trkpt>
      <trkpt lat="43.7088" lon="5.07678">
        <ele>141</ele>
        <time>2019-09-26T12:47:09Z</time>
      </trkpt>
      <trkpt lat="43.70881" lon="5.07684">
        <ele>141</ele>
        <time>2019-09-26T12:47:11Z</time>
      </trkpt>
      <trkpt lat="43.70881" lon="5.07686">
        <ele>141</ele>
        <time>2019-09-26T12:47:13Z</time>
      </trkpt>
      <trkpt lat="43.70881" lon="5.07688">
        <ele>141</ele>
        <time>2019-09-26T12:47:15Z</time>
      </trkpt>
      <trkpt lat="43.70881" lon="5.07691">
        <ele>141</ele>
        <time>2019-09-26T12:47:18Z</time>
      </trkpt>
      <trkpt lat="43.70881" lon="5.07693">
        <ele>141</ele>
        <time>2019-09-26T12:47:19Z</time>
      </trkpt>
      <trkpt lat="43.70881" lon="5.07696">
        <ele>141</ele>
        <time>2019-09-26T12:47:20Z</time>
      </trkpt>
      <trkpt lat="43.70881" lon="5.07699">
        <ele>141</ele>
        <time>2019-09-26T12:47:22Z</time>
      </trkpt>
      <trkpt lat="43.70881" lon="5.07701">
        <ele>141</ele>
        <time>2019-09-26T12:47:24Z</time>
      </trkpt>
      <trkpt lat="43.70881" lon="5.07703">
        <ele>141</ele>
        <time>2019-09-26T12:47:26Z</time>
      </trkpt>
      <trkpt lat="43.7088" lon="5.07706">
        <ele>141</ele>
        <time>2019-09-26T12:47:28Z</time>
      </trkpt>
      <trkpt lat="43.7088" lon="5.07708">
        <ele>140</ele>
        <time>2019-09-26T12:47:29Z</time>
      </trkpt>
      <trkpt lat="43.7088" lon="5.07712">
        <ele>140</ele>
        <time>2019-09-26T12:47:30Z</time>
      </trkpt>
      <trkpt lat="43.7088" lon="5.07715">
        <ele>140</ele>
        <time>2019-09-26T12:47:32Z</time>
      </trkpt>
      <trkpt lat="43.7088" lon="5.07718">
        <ele>140</ele>
        <time>2019-09-26T12:47:34Z</time>
      </trkpt>
      <trkpt lat="43.70879" lon="5.0772">
        <ele>140</ele>
        <time>2019-09-26T12:47:36Z</time>
      </trkpt>
      <trkpt lat="43.70879" lon="5.07723">
        <ele>140</ele>
        <time>2019-09-26T12:47:38Z</time>
      </trkpt>
      <trkpt lat="43.70879" lon="5.07725">
        <ele>139</ele>
        <time>2019-09-26T12:47:39Z</time>
      </trkpt>
      <trkpt lat="43.70878" lon="5.07729">
        <ele>139</ele>
        <time>2019-09-26T12:47:40Z</time>
      </trkpt>
      <trkpt lat="43.70877" lon="5.07732">
        <ele>139</ele>
        <time>2019-09-26T12:47:42Z</time>
      </trkpt>
      <trkpt lat="43.70877" lon="5.07734">
        <ele>139</ele>
        <time>2019-09-26T12:47:44Z</time>
      </trkpt>
      <trkpt lat="43.70876" lon="5.07737">
        <ele>139</ele>
        <time>2019-09-26T12:47:46Z</time>
      </trkpt>
      <trkpt lat="43.70875" lon="5.07739">
        <ele>139</ele>
        <time>2019-09-26T12:47:48Z</time>
      </trkpt>
      <trkpt lat="43.70875" lon="5.07741">
        <ele>138</ele>
        <time>2019-09-26T12:47:49Z</time>
      </trkpt>
      <trkpt lat="43.70873" lon="5.07745">
        <ele>138</ele>
        <time>2019-09-26T12:47:50Z</time>
      </trkpt>
      <trkpt lat="43.70873" lon="5.07747">
        <ele>138</ele>
        <time>2019-09-26T12:47:52Z</time>
      </trkpt>
      <trkpt lat="43.70872" lon="5.07749">
        <ele>138</ele>
        <time>2019-09-26T12:47:54Z</time>
      </trkpt>
      <trkpt lat="43.70871" lon="5.07751">
        <ele>138</ele>
        <time>2019-09-26T12:47:56Z</time>
      </trkpt>
      <trkpt lat="43.70871" lon="5.07753">
        <ele>138</ele>
        <time>2019-09-26T12:47:58Z</time>
      </trkpt>
      <trkpt lat="43.7087" lon="5.07755">
        <ele>138</ele>
        <time>2019-09-26T12:47:59Z</time>
      </trkpt>
      <trkpt lat="43.70868" lon="5.07761">
        <ele>138</ele>
        <time>2019-09-26T12:48:00Z</time>
      </trkpt>
      <trkpt lat="43.70867" lon="5.07763">
        <ele>138</ele>
        <time>2019-09-26T12:48:02Z</time>
      </trkpt>
      <trkpt lat="43.70867" lon="5.07766">
        <ele>138</ele>
        <time>2019-09-26T12:48:04Z</time>
      </trkpt>
      <trkpt lat="43.70866" lon="5.07768">
        <ele>138</ele>
        <time>2019-09-26T12:48:06Z</time>
      </trkpt>
      <trkpt lat="43.70865" lon="5.0777">
        <ele>138</ele>
        <time>2019-09-26T12:48:08Z</time>
      </trkpt>
      <trkpt lat="43.70864" lon="5.07773">
        <ele>138</ele>
        <time>2019-09-26T12:48:09Z</time>
      </trkpt>
      <trkpt lat="43.70862" lon="5.07776">
        <ele>138</ele>
        <time>2019-09-26T12:48:10Z</time>
      </trkpt>
      <trkpt lat="43.70861" lon="5.07778">
        <ele>138</ele>
        <time>2019-09-26T12:48:12Z</time>
      </trkpt>
      <trkpt lat="43.7086" lon="5.07779">
        <ele>138</ele>
        <time>2019-09-26T12:48:14Z</time>
      </trkpt>
      <trkpt lat="43.70859" lon="5.07781">
        <ele>138</ele>
        <time>2019-09-26T12:48:16Z</time>
      </trkpt>
      <trkpt lat="43.70857" lon="5.07783">
        <ele>138</ele>
        <time>2019-09-26T12:48:18Z</time>
      </trkpt>
      <trkpt lat="43.70856" lon="5.07784">
        <ele>138</ele>
        <time>2019-09-26T12:48:19Z</time>
      </trkpt>
      <trkpt lat="43.70854" lon="5.07788">
        <ele>138</ele>
        <time>2019-09-26T12:48:20Z</time>
      </trkpt>
      <trkpt lat="43.70853" lon="5.0779">
        <ele>138</ele>
        <time>2019-09-26T12:48:22Z</time>
      </trkpt>
      <trkpt lat="43.70852" lon="5.07792">
        <ele>138</ele>
        <time>2019-09-26T12:48:24Z</time>
      </trkpt>
      <trkpt lat="43.7085" lon="5.07793">
        <ele>138</ele>
        <time>2019-09-26T12:48:26Z</time>
      </trkpt>
      <trkpt lat="43.70849" lon="5.07795">
        <ele>138</ele>
        <time>2019-09-26T12:48:28Z</time>
      </trkpt>
      <trkpt lat="43.70848" lon="5.07797">
        <ele>138</ele>
        <time>2019-09-26T12:48:29Z</time>
      </trkpt>
      <trkpt lat="43.70846" lon="5.078">
        <ele>138</ele>
        <time>2019-09-26T12:48:30Z</time>
      </trkpt>
      <trkpt lat="43.70845" lon="5.07802">
        <ele>138</ele>
        <time>2019-09-26T12:48:32Z</time>
      </trkpt>
      <trkpt lat="43.70844" lon="5.07803">
        <ele>138</ele>
        <time>2019-09-26T12:48:34Z</time>
      </trkpt>
      <trkpt lat="43.70843" lon="5.07805">
        <ele>138</ele>
        <time>2019-09-26T12:48:36Z</time>
      </trkpt>
      <trkpt lat="43.70842" lon="5.07806">
        <ele>138</ele>
        <time>2019-09-26T12:48:38Z</time>
      </trkpt>
      <trkpt lat="43.70841" lon="5.07808">
        <ele>138</ele>
        <time>2019-09-26T12:48:39Z</time>
      </trkpt>
      <trkpt lat="43.7084" lon="5.0781">
        <ele>138</ele>
        <time>2019-09-26T12:48:40Z</time>
      </trkpt>
      <trkpt lat="43.70838" lon="5.07814">
        <ele>138</ele>
        <time>2019-09-26T12:48:43Z</time>
      </trkpt>
      <trkpt lat="43.70836" lon="5.07817">
        <ele>138</ele>
        <time>2019-09-26T12:48:45Z</time>
      </trkpt>
      <trkpt lat="43.70834" lon="5.07818">
        <ele>138</ele>
        <time>2019-09-26T12:48:47Z</time>
      </trkpt>
      <trkpt lat="43.70833" lon="5.07821">
        <ele>138</ele>
        <time>2019-09-26T12:48:49Z</time>
      </trkpt>
      <trkpt lat="43.7083" lon="5.07824">
        <ele>138</ele>
        <time>2019-09-26T12:48:51Z</time>
      </trkpt>
      <trkpt lat="43.70829" lon="5.07825">
        <ele>138</ele>
        <time>2019-09-26T12:48:54Z</time>
      </trkpt>
      <trkpt lat="43.70828" lon="5.07827">
        <ele>138</ele>
        <time>2019-09-26T12:48:56Z</time>
      </trkpt>
      <trkpt lat="43.70827" lon="5.07828">
        <ele>138</ele>
        <time>2019-09-26T12:48:58Z</time>
      </trkpt>
      <trkpt lat="43.70827" lon="5.0783">
        <ele>138</ele>
        <time>2019-09-26T12:48:59Z</time>
      </trkpt>
      <trkpt lat="43.70824" lon="5.07833">
        <ele>138</ele>
        <time>2019-09-26T12:49:00Z</time>
      </trkpt>
      <trkpt lat="43.70822" lon="5.07835">
        <ele>138</ele>
        <time>2019-09-26T12:49:02Z</time>
      </trkpt>
      <trkpt lat="43.70821" lon="5.07836">
        <ele>138</ele>
        <time>2019-09-26T12:49:04Z</time>
      </trkpt>
      <trkpt lat="43.7082" lon="5.07838">
        <ele>138</ele>
        <time>2019-09-26T12:49:06Z</time>
      </trkpt>
      <trkpt lat="43.70819" lon="5.07839">
        <ele>138</ele>
        <time>2019-09-26T12:49:09Z</time>
      </trkpt>
      <trkpt lat="43.70818" lon="5.07841">
        <ele>138</ele>
        <time>2019-09-26T12:49:10Z</time>
      </trkpt>
      <trkpt lat="43.70817" lon="5.07841">
        <ele>138</ele>
        <time>2019-09-26T12:49:11Z</time>
      </trkpt>
      <trkpt lat="43.70815" lon="5.07843">
        <ele>138</ele>
        <time>2019-09-26T12:49:13Z</time>
      </trkpt>
      <trkpt lat="43.70813" lon="5.07846">
        <ele>138</ele>
        <time>2019-09-26T12:49:16Z</time>
      </trkpt>
      <trkpt lat="43.70811" lon="5.07848">
        <ele>138</ele>
        <time>2019-09-26T12:49:19Z</time>
      </trkpt>
      <trkpt lat="43.70809" lon="5.07852">
        <ele>138</ele>
        <time>2019-09-26T12:49:22Z</time>
      </trkpt>
      <trkpt lat="43.70808" lon="5.07853">
        <ele>138</ele>
        <time>2019-09-26T12:49:25Z</time>
      </trkpt>
      <trkpt lat="43.70807" lon="5.07855">
        <ele>138</ele>
        <time>2019-09-26T12:49:28Z</time>
      </trkpt>
      <trkpt lat="43.70806" lon="5.07856">
        <ele>138</ele>
        <time>2019-09-26T12:49:29Z</time>
      </trkpt>
      <trkpt lat="43.70804" lon="5.0786">
        <ele>138</ele>
        <time>2019-09-26T12:49:30Z</time>
      </trkpt>
      <trkpt lat="43.70804" lon="5.07862">
        <ele>138</ele>
        <time>2019-09-26T12:49:32Z</time>
      </trkpt>
      <trkpt lat="43.70803" lon="5.07864">
        <ele>138</ele>
        <time>2019-09-26T12:49:34Z</time>
      </trkpt>
      <trkpt lat="43.70802" lon="5.07866">
        <ele>138</ele>
        <time>2019-09-26T12:49:36Z</time>
      </trkpt>
      <trkpt lat="43.70801" lon="5.07868">
        <ele>138</ele>
        <time>2019-09-26T12:49:38Z</time>
      </trkpt>
      <trkpt lat="43.70801" lon="5.0787">
        <ele>138</ele>
        <time>2019-09-26T12:49:39Z</time>
      </trkpt>
      <trkpt lat="43.708" lon="5.07874">
        <ele>138</ele>
        <time>2019-09-26T12:49:40Z</time>
      </trkpt>
      <trkpt lat="43.70799" lon="5.07876">
        <ele>138</ele>
        <time>2019-09-26T12:49:42Z</time>
      </trkpt>
      <trkpt lat="43.70799" lon="5.07879">
        <ele>138</ele>
        <time>2019-09-26T12:49:44Z</time>
      </trkpt>
      <trkpt lat="43.70799" lon="5.07881">
        <ele>138</ele>
        <time>2019-09-26T12:49:46Z</time>
      </trkpt>
      <trkpt lat="43.70798" lon="5.07883">
        <ele>138</ele>
        <time>2019-09-26T12:49:48Z</time>
      </trkpt>
      <trkpt lat="43.70798" lon="5.07885">
        <ele>139</ele>
        <time>2019-09-26T12:49:49Z</time>
      </trkpt>
      <trkpt lat="43.70798" lon="5.07889">
        <ele>139</ele>
        <time>2019-09-26T12:49:50Z</time>
      </trkpt>
      <trkpt lat="43.70798" lon="5.07892">
        <ele>139</ele>
        <time>2019-09-26T12:49:52Z</time>
      </trkpt>
      <trkpt lat="43.70798" lon="5.07894">
        <ele>139</ele>
        <time>2019-09-26T12:49:54Z</time>
      </trkpt>
      <trkpt lat="43.70797" lon="5.07897">
        <ele>139</ele>
        <time>2019-09-26T12:49:56Z</time>
      </trkpt>
      <trkpt lat="43.70797" lon="5.07899">
        <ele>139</ele>
        <time>2019-09-26T12:49:58Z</time>
      </trkpt>
      <trkpt lat="43.70797" lon="5.07902">
        <ele>139</ele>
        <time>2019-09-26T12:49:59Z</time>
      </trkpt>
      <trkpt lat="43.70796" lon="5.07906">
        <ele>139</ele>
        <time>2019-09-26T12:50:00Z</time>
      </trkpt>
      <trkpt lat="43.70795" lon="5.07908">
        <ele>139</ele>
        <time>2019-09-26T12:50:02Z</time>
      </trkpt>
      <trkpt lat="43.70794" lon="5.0791">
        <ele>139</ele>
        <time>2019-09-26T12:50:04Z</time>
      </trkpt>
      <trkpt lat="43.70793" lon="5.07911">
        <ele>139</ele>
        <time>2019-09-26T12:50:06Z</time>
      </trkpt>
      <trkpt lat="43.70792" lon="5.07913">
        <ele>139</ele>
        <time>2019-09-26T12:50:08Z</time>
      </trkpt>
      <trkpt lat="43.70791" lon="5.07915">
        <ele>139</ele>
        <time>2019-09-26T12:50:09Z</time>
      </trkpt>
      <trkpt lat="43.70788" lon="5.07918">
        <ele>139</ele>
        <time>2019-09-26T12:50:10Z</time>
      </trkpt>
      <trkpt lat="43.70786" lon="5.0792">
        <ele>139</ele>
        <time>2019-09-26T12:50:12Z</time>
      </trkpt>
      <trkpt lat="43.70784" lon="5.07921">
        <ele>139</ele>
        <time>2019-09-26T12:50:14Z</time>
      </trkpt>
      <trkpt lat="43.70782" lon="5.07923">
        <ele>139</ele>
        <time>2019-09-26T12:50:16Z</time>
      </trkpt>
      <trkpt lat="43.7078" lon="5.07924">
        <ele>139</ele>
        <time>2019-09-26T12:50:18Z</time>
      </trkpt>
      <trkpt lat="43.70778" lon="5.07926">
        <ele>140</ele>
        <time>2019-09-26T12:50:19Z</time>
      </trkpt>
      <trkpt lat="43.70775" lon="5.07928">
        <ele>140</ele>
        <time>2019-09-26T12:50:20Z</time>
      </trkpt>
      <trkpt lat="43.70773" lon="5.07929">
        <ele>140</ele>
        <time>2019-09-26T12:50:22Z</time>
      </trkpt>
      <trkpt lat="43.70772" lon="5.07931">
        <ele>140</ele>
        <time>2019-09-26T12:50:24Z</time>
      </trkpt>
      <trkpt lat="43.7077" lon="5.07932">
        <ele>140</ele>
        <time>2019-09-26T12:50:26Z</time>
      </trkpt>
      <trkpt lat="43.70768" lon="5.07933">
        <ele>140</ele>
        <time>2019-09-26T12:50:28Z</time>
      </trkpt>
      <trkpt lat="43.70767" lon="5.07934">
        <ele>140</ele>
        <time>2019-09-26T12:50:29Z</time>
      </trkpt>
      <trkpt lat="43.70764" lon="5.07936">
        <ele>140</ele>
        <time>2019-09-26T12:50:30Z</time>
      </trkpt>
      <trkpt lat="43.70762" lon="5.07937">
        <ele>140</ele>
        <time>2019-09-26T12:50:32Z</time>
      </trkpt>
      <trkpt lat="43.70761" lon="5.07938">
        <ele>140</ele>
        <time>2019-09-26T12:50:34Z</time>
      </trkpt>
      <trkpt lat="43.70759" lon="5.07939">
        <ele>140</ele>
        <time>2019-09-26T12:50:36Z</time>
      </trkpt>
      <trkpt lat="43.70757" lon="5.0794">
        <ele>140</ele>
        <time>2019-09-26T12:50:38Z</time>
      </trkpt>
      <trkpt lat="43.70756" lon="5.07942">
        <ele>139</ele>
        <time>2019-09-26T12:50:39Z</time>
      </trkpt>
      <trkpt lat="43.70753" lon="5.07944">
        <ele>139</ele>
        <time>2019-09-26T12:50:40Z</time>
      </trkpt>
      <trkpt lat="43.70752" lon="5.07945">
        <ele>139</ele>
        <time>2019-09-26T12:50:42Z</time>
      </trkpt>
      <trkpt lat="43.7075" lon="5.07946">
        <ele>139</ele>
        <time>2019-09-26T12:50:44Z</time>
      </trkpt>
      <trkpt lat="43.70749" lon="5.07947">
        <ele>139</ele>
        <time>2019-09-26T12:50:46Z</time>
      </trkpt>
      <trkpt lat="43.70747" lon="5.07948">
        <ele>139</ele>
        <time>2019-09-26T12:50:48Z</time>
      </trkpt>
      <trkpt lat="43.70746" lon="5.07949">
        <ele>139</ele>
        <time>2019-09-26T12:50:49Z</time>
      </trkpt>
      <trkpt lat="43.70745" lon="5.07951">
        <ele>139</ele>
        <time>2019-09-26T12:50:51Z</time>
      </trkpt>
      <trkpt lat="43.70744" lon="5.07952">
        <ele>139</ele>
        <time>2019-09-26T12:50:58Z</time>
      </trkpt>
      <trkpt lat="43.70744" lon="5.07953">
        <ele>140</ele>
        <time>2019-09-26T12:50:59Z</time>
      </trkpt>
      <trkpt lat="43.70741" lon="5.07957">
        <ele>140</ele>
        <time>2019-09-26T12:51:00Z</time>
      </trkpt>
      <trkpt lat="43.7074" lon="5.07958">
        <ele>140</ele>
        <time>2019-09-26T12:51:02Z</time>
      </trkpt>
      <trkpt lat="43.70739" lon="5.0796">
        <ele>140</ele>
        <time>2019-09-26T12:51:04Z</time>
      </trkpt>
      <trkpt lat="43.70738" lon="5.07961">
        <ele>140</ele>
        <time>2019-09-26T12:51:06Z</time>
      </trkpt>
      <trkpt lat="43.70736" lon="5.07963">
        <ele>140</ele>
        <time>2019-09-26T12:51:08Z</time>
      </trkpt>
      <trkpt lat="43.70735" lon="5.07964">
        <ele>139</ele>
        <time>2019-09-26T12:51:09Z</time>
      </trkpt>
      <trkpt lat="43.70732" lon="5.07968">
        <ele>139</ele>
        <time>2019-09-26T12:51:10Z</time>
      </trkpt>
      <trkpt lat="43.70731" lon="5.0797">
        <ele>139</ele>
        <time>2019-09-26T12:51:12Z</time>
      </trkpt>
      <trkpt lat="43.7073" lon="5.07971">
        <ele>139</ele>
        <time>2019-09-26T12:51:14Z</time>
      </trkpt>
      <trkpt lat="43.70729" lon="5.07973">
        <ele>139</ele>
        <time>2019-09-26T12:51:16Z</time>
      </trkpt>
      <trkpt lat="43.70728" lon="5.07975">
        <ele>139</ele>
        <time>2019-09-26T12:51:18Z</time>
      </trkpt>
      <trkpt lat="43.70726" lon="5.07977">
        <ele>139</ele>
        <time>2019-09-26T12:51:19Z</time>
      </trkpt>
      <trkpt lat="43.70724" lon="5.0798">
        <ele>139</ele>
        <time>2019-09-26T12:51:20Z</time>
      </trkpt>
      <trkpt lat="43.70723" lon="5.07981">
        <ele>139</ele>
        <time>2019-09-26T12:51:22Z</time>
      </trkpt>
      <trkpt lat="43.70722" lon="5.07983">
        <ele>139</ele>
        <time>2019-09-26T12:51:25Z</time>
      </trkpt>
      <trkpt lat="43.70721" lon="5.07985">
        <ele>139</ele>
        <time>2019-09-26T12:51:27Z</time>
      </trkpt>
      <trkpt lat="43.70719" lon="5.07987">
        <ele>139</ele>
        <time>2019-09-26T12:51:29Z</time>
      </trkpt>
      <trkpt lat="43.70718" lon="5.07989">
        <ele>139</ele>
        <time>2019-09-26T12:51:30Z</time>
      </trkpt>
      <trkpt lat="43.70717" lon="5.07991">
        <ele>139</ele>
        <time>2019-09-26T12:51:32Z</time>
      </trkpt>
      <trkpt lat="43.70717" lon="5.07992">
        <ele>139</ele>
        <time>2019-09-26T12:51:39Z</time>
      </trkpt>
      <trkpt lat="43.70716" lon="5.07993">
        <ele>138</ele>
        <time>2019-09-26T12:51:40Z</time>
      </trkpt>
      <trkpt lat="43.70713" lon="5.07999">
        <ele>138</ele>
        <time>2019-09-26T12:51:43Z</time>
      </trkpt>
      <trkpt lat="43.70712" lon="5.08001">
        <ele>138</ele>
        <time>2019-09-26T12:51:45Z</time>
      </trkpt>
      <trkpt lat="43.70711" lon="5.08002">
        <ele>138</ele>
        <time>2019-09-26T12:51:47Z</time>
      </trkpt>
      <trkpt lat="43.7071" lon="5.08004">
        <ele>138</ele>
        <time>2019-09-26T12:51:49Z</time>
      </trkpt>
      <trkpt lat="43.70709" lon="5.08005">
        <ele>138</ele>
        <time>2019-09-26T12:51:50Z</time>
      </trkpt>
      <trkpt lat="43.70708" lon="5.08007">
        <ele>138</ele>
        <time>2019-09-26T12:51:52Z</time>
      </trkpt>
      <trkpt lat="43.70707" lon="5.08009">
        <ele>138</ele>
        <time>2019-09-26T12:51:54Z</time>
      </trkpt>
      <trkpt lat="43.70706" lon="5.08012">
        <ele>138</ele>
        <time>2019-09-26T12:51:56Z</time>
      </trkpt>
      <trkpt lat="43.70705" lon="5.08015">
        <ele>138</ele>
        <time>2019-09-26T12:51:58Z</time>
      </trkpt>
      <trkpt lat="43.70704" lon="5.08017">
        <ele>138</ele>
        <time>2019-09-26T12:52:00Z</time>
      </trkpt>
      <trkpt lat="43.70703" lon="5.0802">
        <ele>138</ele>
        <time>2019-09-26T12:52:02Z</time>
      </trkpt>
      <trkpt lat="43.70703" lon="5.08023">
        <ele>138</ele>
        <time>2019-09-26T12:52:04Z</time>
      </trkpt>
      <trkpt lat="43.70702" lon="5.08026">
        <ele>138</ele>
        <time>2019-09-26T12:52:06Z</time>
      </trkpt>
      <trkpt lat="43.70701" lon="5.08029">
        <ele>138</ele>
        <time>2019-09-26T12:52:08Z</time>
      </trkpt>
      <trkpt lat="43.707" lon="5.08031">
        <ele>138</ele>
        <time>2019-09-26T12:52:10Z</time>
      </trkpt>
      <trkpt lat="43.70698" lon="5.08034">
        <ele>138</ele>
        <time>2019-09-26T12:52:12Z</time>
      </trkpt>
      <trkpt lat="43.70696" lon="5.08036">
        <ele>138</ele>
        <time>2019-09-26T12:52:14Z</time>
      </trkpt>
      <trkpt lat="43.70695" lon="5.08039">
        <ele>138</ele>
        <time>2019-09-26T12:52:16Z</time>
      </trkpt>
      <trkpt lat="43.70694" lon="5.08041">
        <ele>138</ele>
        <time>2019-09-26T12:52:18Z</time>
      </trkpt>
      <trkpt lat="43.70693" lon="5.08043">
        <ele>139</ele>
        <time>2019-09-26T12:52:20Z</time>
      </trkpt>
      <trkpt lat="43.70691" lon="5.08046">
        <ele>139</ele>
        <time>2019-09-26T12:52:22Z</time>
      </trkpt>
      <trkpt lat="43.7069" lon="5.0805">
        <ele>139</ele>
        <time>2019-09-26T12:52:24Z</time>
      </trkpt>
      <trkpt lat="43.70689" lon="5.08053">
        <ele>139</ele>
        <time>2019-09-26T12:52:26Z</time>
      </trkpt>
      <trkpt lat="43.70689" lon="5.08056">
        <ele>139</ele>
        <time>2019-09-26T12:52:28Z</time>
      </trkpt>
      <trkpt lat="43.70688" lon="5.08059">
        <ele>139</ele>
        <time>2019-09-26T12:52:30Z</time>
      </trkpt>
      <trkpt lat="43.70687" lon="5.08062">
        <ele>139</ele>
        <time>2019-09-26T12:52:32Z</time>
      </trkpt>
      <trkpt lat="43.70686" lon="5.08065">
        <ele>139</ele>
        <time>2019-09-26T12:52:34Z</time>
      </trkpt>
      <trkpt lat="43.70685" lon="5.08068">
        <ele>139</ele>
        <time>2019-09-26T12:52:36Z</time>
      </trkpt>
      <trkpt lat="43.70685" lon="5.08071">
        <ele>139</ele>
        <time>2019-09-26T12:52:38Z</time>
      </trkpt>
      <trkpt lat="43.70684" lon="5.08075">
        <ele>140</ele>
        <time>2019-09-26T12:52:40Z</time>
      </trkpt>
      <trkpt lat="43.70684" lon="5.08078">
        <ele>140</ele>
        <time>2019-09-26T12:52:42Z</time>
      </trkpt>
      <trkpt lat="43.70683" lon="5.08081">
        <ele>140</ele>
        <time>2019-09-26T12:52:44Z</time>
      </trkpt>
      <trkpt lat="43.70683" lon="5.08084">
        <ele>140</ele>
        <time>2019-09-26T12:52:46Z</time>
      </trkpt>
      <trkpt lat="43.70683" lon="5.08088">
        <ele>140</ele>
        <time>2019-09-26T12:52:48Z</time>
      </trkpt>
      <trkpt lat="43.70682" lon="5.08091">
        <ele>140</ele>
        <time>2019-09-26T12:52:50Z</time>
      </trkpt>
      <trkpt lat="43.70682" lon="5.08095">
        <ele>140</ele>
        <time>2019-09-26T12:52:52Z</time>
      </trkpt>
      <trkpt lat="43.70681" lon="5.08097">
        <ele>140</ele>
        <time>2019-09-26T12:52:54Z</time>
      </trkpt>
      <trkpt lat="43.7068" lon="5.081">
        <ele>140</ele>
        <time>2019-09-26T12:52:56Z</time>
      </trkpt>
      <trkpt lat="43.7068" lon="5.08103">
        <ele>140</ele>
        <time>2019-09-26T12:52:58Z</time>
      </trkpt>
      <trkpt lat="43.70679" lon="5.08106">
        <ele>140</ele>
        <time>2019-09-26T12:53:00Z</time>
      </trkpt>
      <trkpt lat="43.70678" lon="5.0811">
        <ele>140</ele>
        <time>2019-09-26T12:53:02Z</time>
      </trkpt>
      <trkpt lat="43.70676" lon="5.08113">
        <ele>140</ele>
        <time>2019-09-26T12:53:04Z</time>
      </trkpt>
      <trkpt lat="43.70675" lon="5.08116">
        <ele>140</ele>
        <time>2019-09-26T12:53:06Z</time>
      </trkpt>
      <trkpt lat="43.70674" lon="5.08118">
        <ele>140</ele>
        <time>2019-09-26T12:53:08Z</time>
      </trkpt>
      <trkpt lat="43.70674" lon="5.08122">
        <ele>140</ele>
        <time>2019-09-26T12:53:10Z</time>
      </trkpt>
      <trkpt lat="43.70673" lon="5.08125">
        <ele>140</ele>
        <time>2019-09-26T12:53:12Z</time>
      </trkpt>
      <trkpt lat="43.70673" lon="5.08128">
        <ele>140</ele>
        <time>2019-09-26T12:53:14Z</time>
      </trkpt>
      <trkpt lat="43.70672" lon="5.0813">
        <ele>140</ele>
        <time>2019-09-26T12:53:17Z</time>
      </trkpt>
      <trkpt lat="43.70672" lon="5.08133">
        <ele>141</ele>
        <time>2019-09-26T12:53:20Z</time>
      </trkpt>
      <trkpt lat="43.70671" lon="5.08135">
        <ele>142</ele>
        <time>2019-09-26T12:53:30Z</time>
      </trkpt>
      <trkpt lat="43.70669" lon="5.08134">
        <ele>142</ele>
        <time>2019-09-26T12:53:34Z</time>
      </trkpt>
      <trkpt lat="43.70666" lon="5.08135">
        <ele>142</ele>
        <time>2019-09-26T12:53:40Z</time>
      </trkpt>
      <trkpt lat="43.70665" lon="5.08136">
        <ele>142</ele>
        <time>2019-09-26T12:53:42Z</time>
      </trkpt>
      <trkpt lat="43.70661" lon="5.08136">
        <ele>142</ele>
        <time>2019-09-26T12:53:45Z</time>
      </trkpt>
      <trkpt lat="43.70658" lon="5.08136">
        <ele>142</ele>
        <time>2019-09-26T12:53:48Z</time>
      </trkpt>
      <trkpt lat="43.70656" lon="5.08137">
        <ele>142</ele>
        <time>2019-09-26T12:53:50Z</time>
      </trkpt>
      <trkpt lat="43.70653" lon="5.08137">
        <ele>142</ele>
        <time>2019-09-26T12:53:52Z</time>
      </trkpt>
      <trkpt lat="43.70651" lon="5.08137">
        <ele>142</ele>
        <time>2019-09-26T12:53:54Z</time>
      </trkpt>
      <trkpt lat="43.70649" lon="5.08137">
        <ele>142</ele>
        <time>2019-09-26T12:53:56Z</time>
      </trkpt>
      <trkpt lat="43.70647" lon="5.08138">
        <ele>142</ele>
        <time>2019-09-26T12:53:58Z</time>
      </trkpt>
      <trkpt lat="43.70645" lon="5.08138">
        <ele>142</ele>
        <time>2019-09-26T12:54:00Z</time>
      </trkpt>
      <trkpt lat="43.70642" lon="5.08139">
        <ele>142</ele>
        <time>2019-09-26T12:54:03Z</time>
      </trkpt>
      <trkpt lat="43.70641" lon="5.08139">
        <ele>142</ele>
        <time>2019-09-26T12:54:05Z</time>
      </trkpt>
      <trkpt lat="43.70639" lon="5.08139">
        <ele>142</ele>
        <time>2019-09-26T12:54:07Z</time>
      </trkpt>
      <trkpt lat="43.70636" lon="5.08139">
        <ele>143</ele>
        <time>2019-09-26T12:54:10Z</time>
      </trkpt>
      <trkpt lat="43.70635" lon="5.08141">
        <ele>143</ele>
        <time>2019-09-26T12:54:13Z</time>
      </trkpt>
      <trkpt lat="43.70636" lon="5.08143">
        <ele>143</ele>
        <time>2019-09-26T12:54:16Z</time>
      </trkpt>
      <trkpt lat="43.70636" lon="5.08146">
        <ele>143</ele>
        <time>2019-09-26T12:54:19Z</time>
      </trkpt>
      <trkpt lat="43.70636" lon="5.08146">
        <ele>144</ele>
        <time>2019-09-26T12:54:21Z</time>
      </trkpt>
      <trkpt lat="43.70637" lon="5.08149">
        <ele>144</ele>
        <time>2019-09-26T12:54:22Z</time>
      </trkpt>
      <trkpt lat="43.70639" lon="5.0815">
        <ele>144</ele>
        <time>2019-09-26T12:54:27Z</time>
      </trkpt>
      <trkpt lat="43.70639" lon="5.0815">
        <ele>145</ele>
        <time>2019-09-26T12:54:30Z</time>
      </trkpt>
      <trkpt lat="43.7064" lon="5.08152">
        <ele>145</ele>
        <time>2019-09-26T12:54:31Z</time>
      </trkpt>
      <trkpt lat="43.70642" lon="5.08154">
        <ele>145</ele>
        <time>2019-09-26T12:54:35Z</time>
      </trkpt>
      <trkpt lat="43.70644" lon="5.08155">
        <ele>145</ele>
        <time>2019-09-26T12:54:39Z</time>
      </trkpt>
      <trkpt lat="43.70644" lon="5.08155">
        <ele>147</ele>
        <time>2019-09-26T12:54:41Z</time>
      </trkpt>
      <trkpt lat="43.70645" lon="5.08158">
        <ele>147</ele>
        <time>2019-09-26T12:54:43Z</time>
      </trkpt>
      <trkpt lat="43.70646" lon="5.08159">
        <ele>147</ele>
        <time>2019-09-26T12:54:46Z</time>
      </trkpt>
      <trkpt lat="43.70646" lon="5.08159">
        <ele>148</ele>
        <time>2019-09-26T12:54:50Z</time>
      </trkpt>
      <trkpt lat="43.70646" lon="5.08159">
        <ele>148</ele>
        <time>2019-09-26T12:55:00Z</time>
      </trkpt>
      <trkpt lat="43.70646" lon="5.08163">
        <ele>148</ele>
        <time>2019-09-26T12:55:01Z</time>
      </trkpt>
      <trkpt lat="43.70654" lon="5.08167">
        <ele>148</ele>
        <time>2019-09-26T12:55:11Z</time>
      </trkpt>
      <trkpt lat="43.70655" lon="5.08169">
        <ele>148</ele>
        <time>2019-09-26T12:55:13Z</time>
      </trkpt>
      <trkpt lat="43.70657" lon="5.0817">
        <ele>148</ele>
        <time>2019-09-26T12:55:15Z</time>
      </trkpt>
      <trkpt lat="43.70659" lon="5.08171">
        <ele>148</ele>
        <time>2019-09-26T12:55:17Z</time>
      </trkpt>
      <trkpt lat="43.70661" lon="5.08173">
        <ele>148</ele>
        <time>2019-09-26T12:55:19Z</time>
      </trkpt>
      <trkpt lat="43.70663" lon="5.08175">
        <ele>147</ele>
        <time>2019-09-26T12:55:21Z</time>
      </trkpt>
      <trkpt lat="43.70666" lon="5.08176">
        <ele>147</ele>
        <time>2019-09-26T12:55:25Z</time>
      </trkpt>
      <trkpt lat="43.70667" lon="5.08177">
        <ele>147</ele>
        <time>2019-09-26T12:55:29Z</time>
      </trkpt>
      <trkpt lat="43.70667" lon="5.08177">
        <ele>147</ele>
        <time>2019-09-26T12:55:32Z</time>
      </trkpt>
      <trkpt lat="43.70668" lon="5.0818">
        <ele>147</ele>
        <time>2019-09-26T12:55:33Z</time>
      </trkpt>
      <trkpt lat="43.7067" lon="5.08183">
        <ele>147</ele>
        <time>2019-09-26T12:55:36Z</time>
      </trkpt>
      <trkpt lat="43.70669" lon="5.08186">
        <ele>147</ele>
        <time>2019-09-26T12:55:39Z</time>
      </trkpt>
      <trkpt lat="43.70669" lon="5.08186">
        <ele>147</ele>
        <time>2019-09-26T12:55:41Z</time>
      </trkpt>
      <trkpt lat="43.70667" lon="5.08188">
        <ele>147</ele>
        <time>2019-09-26T12:55:43Z</time>
      </trkpt>
      <trkpt lat="43.70665" lon="5.08191">
        <ele>147</ele>
        <time>2019-09-26T12:55:46Z</time>
      </trkpt>
      <trkpt lat="43.70664" lon="5.08193">
        <ele>147</ele>
        <time>2019-09-26T12:55:49Z</time>
      </trkpt>
      <trkpt lat="43.70663" lon="5.08196">
        <ele>147</ele>
        <time>2019-09-26T12:55:51Z</time>
      </trkpt>
      <trkpt lat="43.70661" lon="5.08199">
        <ele>147</ele>
        <time>2019-09-26T12:55:53Z</time>
      </trkpt>
      <trkpt lat="43.7066" lon="5.082">
        <ele>147</ele>
        <time>2019-09-26T12:55:55Z</time>
      </trkpt>
      <trkpt lat="43.70659" lon="5.08201">
        <ele>147</ele>
        <time>2019-09-26T12:55:58Z</time>
      </trkpt>
      <trkpt lat="43.70658" lon="5.08202">
        <ele>147</ele>
        <time>2019-09-26T12:56:00Z</time>
      </trkpt>
      <trkpt lat="43.70657" lon="5.08203">
        <ele>147</ele>
        <time>2019-09-26T12:56:01Z</time>
      </trkpt>
      <trkpt lat="43.70655" lon="5.08204">
        <ele>147</ele>
        <time>2019-09-26T12:56:02Z</time>
      </trkpt>
      <trkpt lat="43.70654" lon="5.08205">
        <ele>147</ele>
        <time>2019-09-26T12:56:04Z</time>
      </trkpt>
      <trkpt lat="43.70651" lon="5.08205">
        <ele>147</ele>
        <time>2019-09-26T12:56:07Z</time>
      </trkpt>
      <trkpt lat="43.70648" lon="5.08206">
        <ele>149</ele>
        <time>2019-09-26T12:56:11Z</time>
      </trkpt>
      <trkpt lat="43.70645" lon="5.08204">
        <ele>149</ele>
        <time>2019-09-26T12:56:13Z</time>
      </trkpt>
      <trkpt lat="43.70644" lon="5.08202">
        <ele>149</ele>
        <time>2019-09-26T12:56:15Z</time>
      </trkpt>
      <trkpt lat="43.70643" lon="5.08201">
        <ele>149</ele>
        <time>2019-09-26T12:56:18Z</time>
      </trkpt>
      <trkpt lat="43.70642" lon="5.082">
        <ele>149</ele>
        <time>2019-09-26T12:56:20Z</time>
      </trkpt>
      <trkpt lat="43.70642" lon="5.08198">
        <ele>149</ele>
        <time>2019-09-26T12:56:21Z</time>
      </trkpt>
      <trkpt lat="43.70641" lon="5.08195">
        <ele>149</ele>
        <time>2019-09-26T12:56:22Z</time>
      </trkpt>
      <trkpt lat="43.70641" lon="5.08193">
        <ele>149</ele>
        <time>2019-09-26T12:56:24Z</time>
      </trkpt>
      <trkpt lat="43.7064" lon="5.0819">
        <ele>149</ele>
        <time>2019-09-26T12:56:26Z</time>
      </trkpt>
      <trkpt lat="43.70638" lon="5.08189">
        <ele>149</ele>
        <time>2019-09-26T12:56:29Z</time>
      </trkpt>
      <trkpt lat="43.70638" lon="5.08189">
        <ele>149</ele>
        <time>2019-09-26T12:56:31Z</time>
      </trkpt>
      <trkpt lat="43.70636" lon="5.08189">
        <ele>149</ele>
        <time>2019-09-26T12:56:32Z</time>
      </trkpt>
      <trkpt lat="43.70634" lon="5.0819">
        <ele>149</ele>
        <time>2019-09-26T12:56:35Z</time>
      </trkpt>
      <trkpt lat="43.70632" lon="5.08191">
        <ele>149</ele>
        <time>2019-09-26T12:56:39Z</time>
      </trkpt>
      <trkpt lat="43.70632" lon="5.08191">
        <ele>149</ele>
        <time>2019-09-26T12:56:41Z</time>
      </trkpt>
      <trkpt lat="43.70632" lon="5.08191">
        <ele>149</ele>
        <time>2019-09-26T12:56:51Z</time>
      </trkpt>
      <trkpt lat="43.70632" lon="5.08191">
        <ele>149</ele>
        <time>2019-09-26T12:56:58Z</time>
      </trkpt>
      <trkpt lat="43.70632" lon="5.08189">
        <ele>149</ele>
        <time>2019-09-26T12:56:59Z</time>
      </trkpt>
      <trkpt lat="43.70618" lon="5.08197">
        <ele>149</ele>
        <time>2019-09-26T13:05:29Z</time>
      </trkpt>
      <trkpt lat="43.70618" lon="5.08197">
        <ele>151</ele>
        <time>2019-09-26T13:05:30Z</time>
      </trkpt>
      <trkpt lat="43.70616" lon="5.08198">
        <ele>151</ele>
        <time>2019-09-26T13:05:31Z</time>
      </trkpt>
      <trkpt lat="43.70614" lon="5.08199">
        <ele>151</ele>
        <time>2019-09-26T13:05:33Z</time>
      </trkpt>
      <trkpt lat="43.70612" lon="5.08199">
        <ele>151</ele>
        <time>2019-09-26T13:05:35Z</time>
      </trkpt>
      <trkpt lat="43.7061" lon="5.08199">
        <ele>151</ele>
        <time>2019-09-26T13:05:37Z</time>
      </trkpt>
      <trkpt lat="43.7061" lon="5.08199">
        <ele>151</ele>
        <time>2019-09-26T13:05:39Z</time>
      </trkpt>
      <trkpt lat="43.70608" lon="5.08198">
        <ele>151</ele>
        <time>2019-09-26T13:05:40Z</time>
      </trkpt>
      <trkpt lat="43.70606" lon="5.08196">
        <ele>151</ele>
        <time>2019-09-26T13:05:43Z</time>
      </trkpt>
      <trkpt lat="43.70604" lon="5.08194">
        <ele>151</ele>
        <time>2019-09-26T13:05:46Z</time>
      </trkpt>
      <trkpt lat="43.70602" lon="5.08191">
        <ele>151</ele>
        <time>2019-09-26T13:05:49Z</time>
      </trkpt>
      <trkpt lat="43.70601" lon="5.08189">
        <ele>151</ele>
        <time>2019-09-26T13:05:51Z</time>
      </trkpt>
      <trkpt lat="43.70599" lon="5.08187">
        <ele>151</ele>
        <time>2019-09-26T13:05:53Z</time>
      </trkpt>
      <trkpt lat="43.70597" lon="5.08185">
        <ele>151</ele>
        <time>2019-09-26T13:05:55Z</time>
      </trkpt>
      <trkpt lat="43.70596" lon="5.08182">
        <ele>151</ele>
        <time>2019-09-26T13:05:57Z</time>
      </trkpt>
      <trkpt lat="43.70594" lon="5.0818">
        <ele>151</ele>
        <time>2019-09-26T13:05:59Z</time>
      </trkpt>
      <trkpt lat="43.70592" lon="5.08178">
        <ele>151</ele>
        <time>2019-09-26T13:06:01Z</time>
      </trkpt>
      <trkpt lat="43.70591" lon="5.08176">
        <ele>151</ele>
        <time>2019-09-26T13:06:04Z</time>
      </trkpt>
      <trkpt lat="43.70589" lon="5.08173">
        <ele>151</ele>
        <time>2019-09-26T13:06:07Z</time>
      </trkpt>
      <trkpt lat="43.70587" lon="5.08171">
        <ele>150</ele>
        <time>2019-09-26T13:06:09Z</time>
      </trkpt>
      <trkpt lat="43.70585" lon="5.08169">
        <ele>150</ele>
        <time>2019-09-26T13:06:11Z</time>
      </trkpt>
      <trkpt lat="43.70583" lon="5.08168">
        <ele>150</ele>
        <time>2019-09-26T13:06:13Z</time>
      </trkpt>
      <trkpt lat="43.7058" lon="5.08167">
        <ele>150</ele>
        <time>2019-09-26T13:06:15Z</time>
      </trkpt>
      <trkpt lat="43.70578" lon="5.08167">
        <ele>150</ele>
        <time>2019-09-26T13:06:17Z</time>
      </trkpt>
      <trkpt lat="43.70576" lon="5.08167">
        <ele>149</ele>
        <time>2019-09-26T13:06:19Z</time>
      </trkpt>
      <trkpt lat="43.70573" lon="5.08165">
        <ele>149</ele>
        <time>2019-09-26T13:06:21Z</time>
      </trkpt>
      <trkpt lat="43.70571" lon="5.08165">
        <ele>149</ele>
        <time>2019-09-26T13:06:23Z</time>
      </trkpt>
      <trkpt lat="43.70569" lon="5.08163">
        <ele>149</ele>
        <time>2019-09-26T13:06:25Z</time>
      </trkpt>
      <trkpt lat="43.70566" lon="5.08161">
        <ele>149</ele>
        <time>2019-09-26T13:06:27Z</time>
      </trkpt>
      <trkpt lat="43.70564" lon="5.0816">
        <ele>149</ele>
        <time>2019-09-26T13:06:29Z</time>
      </trkpt>
      <trkpt lat="43.70562" lon="5.08159">
        <ele>149</ele>
        <time>2019-09-26T13:06:31Z</time>
      </trkpt>
      <trkpt lat="43.70559" lon="5.08157">
        <ele>149</ele>
        <time>2019-09-26T13:06:33Z</time>
      </trkpt>
      <trkpt lat="43.70557" lon="5.08156">
        <ele>149</ele>
        <time>2019-09-26T13:06:35Z</time>
      </trkpt>
      <trkpt lat="43.70556" lon="5.08154">
        <ele>149</ele>
        <time>2019-09-26T13:06:37Z</time>
      </trkpt>
      <trkpt lat="43.70554" lon="5.08153">
        <ele>148</ele>
        <time>2019-09-26T13:06:39Z</time>
      </trkpt>
      <trkpt lat="43.7055" lon="5.08151">
        <ele>148</ele>
        <time>2019-09-26T13:06:41Z</time>
      </trkpt>
      <trkpt lat="43.70548" lon="5.08151">
        <ele>148</ele>
        <time>2019-09-26T13:06:43Z</time>
      </trkpt>
      <trkpt lat="43.70547" lon="5.08151">
        <ele>148</ele>
        <time>2019-09-26T13:06:45Z</time>
      </trkpt>
      <trkpt lat="43.70545" lon="5.0815">
        <ele>148</ele>
        <time>2019-09-26T13:06:48Z</time>
      </trkpt>
      <trkpt lat="43.70543" lon="5.0815">
        <ele>149</ele>
        <time>2019-09-26T13:06:49Z</time>
      </trkpt>
      <trkpt lat="43.7054" lon="5.0815">
        <ele>149</ele>
        <time>2019-09-26T13:06:50Z</time>
      </trkpt>
      <trkpt lat="43.70538" lon="5.0815">
        <ele>149</ele>
        <time>2019-09-26T13:06:52Z</time>
      </trkpt>
      <trkpt lat="43.70537" lon="5.0815">
        <ele>149</ele>
        <time>2019-09-26T13:06:54Z</time>
      </trkpt>
      <trkpt lat="43.70535" lon="5.08151">
        <ele>149</ele>
        <time>2019-09-26T13:06:56Z</time>
      </trkpt>
      <trkpt lat="43.70533" lon="5.08151">
        <ele>149</ele>
        <time>2019-09-26T13:06:58Z</time>
      </trkpt>
      <trkpt lat="43.70531" lon="5.08151">
        <ele>149</ele>
        <time>2019-09-26T13:06:59Z</time>
      </trkpt>
      <trkpt lat="43.7053" lon="5.08151">
        <ele>149</ele>
        <time>2019-09-26T13:07:00Z</time>
      </trkpt>
      <trkpt lat="43.70528" lon="5.08152">
        <ele>149</ele>
        <time>2019-09-26T13:07:02Z</time>
      </trkpt>
      <trkpt lat="43.70526" lon="5.08152">
        <ele>149</ele>
        <time>2019-09-26T13:07:05Z</time>
      </trkpt>
      <trkpt lat="43.70524" lon="5.08153">
        <ele>149</ele>
        <time>2019-09-26T13:07:07Z</time>
      </trkpt>
      <trkpt lat="43.70522" lon="5.08154">
        <ele>150</ele>
        <time>2019-09-26T13:07:09Z</time>
      </trkpt>
      <trkpt lat="43.70518" lon="5.08153">
        <ele>150</ele>
        <time>2019-09-26T13:07:12Z</time>
      </trkpt>
      <trkpt lat="43.70517" lon="5.08153">
        <ele>150</ele>
        <time>2019-09-26T13:07:14Z</time>
      </trkpt>
      <trkpt lat="43.70516" lon="5.08153">
        <ele>150</ele>
        <time>2019-09-26T13:07:16Z</time>
      </trkpt>
      <trkpt lat="43.70515" lon="5.08153">
        <ele>150</ele>
        <time>2019-09-26T13:07:18Z</time>
      </trkpt>
      <trkpt lat="43.70514" lon="5.08153">
        <ele>151</ele>
        <time>2019-09-26T13:07:19Z</time>
      </trkpt>
      <trkpt lat="43.70511" lon="5.08153">
        <ele>151</ele>
        <time>2019-09-26T13:07:20Z</time>
      </trkpt>
      <trkpt lat="43.7051" lon="5.08153">
        <ele>151</ele>
        <time>2019-09-26T13:07:22Z</time>
      </trkpt>
      <trkpt lat="43.70508" lon="5.08153">
        <ele>151</ele>
        <time>2019-09-26T13:07:24Z</time>
      </trkpt>
      <trkpt lat="43.70505" lon="5.08152">
        <ele>151</ele>
        <time>2019-09-26T13:07:27Z</time>
      </trkpt>
      <trkpt lat="43.70503" lon="5.08152">
        <ele>151</ele>
        <time>2019-09-26T13:07:29Z</time>
      </trkpt>
      <trkpt lat="43.70501" lon="5.08152">
        <ele>151</ele>
        <time>2019-09-26T13:07:31Z</time>
      </trkpt>
      <trkpt lat="43.70498" lon="5.08152">
        <ele>151</ele>
        <time>2019-09-26T13:07:34Z</time>
      </trkpt>
      <trkpt lat="43.70496" lon="5.08152">
        <ele>151</ele>
        <time>2019-09-26T13:07:37Z</time>
      </trkpt>
      <trkpt lat="43.70494" lon="5.08153">
        <ele>152</ele>
        <time>2019-09-26T13:07:39Z</time>
      </trkpt>
      <trkpt lat="43.70491" lon="5.08154">
        <ele>152</ele>
        <time>2019-09-26T13:07:42Z</time>
      </trkpt>
      <trkpt lat="43.7049" lon="5.08155">
        <ele>152</ele>
        <time>2019-09-26T13:07:45Z</time>
      </trkpt>
      <trkpt lat="43.7049" lon="5.08156">
        <ele>152</ele>
        <time>2019-09-26T13:07:48Z</time>
      </trkpt>
      <trkpt lat="43.70489" lon="5.08156">
        <ele>154</ele>
        <time>2019-09-26T13:07:49Z</time>
      </trkpt>
      <trkpt lat="43.70487" lon="5.08158">
        <ele>154</ele>
        <time>2019-09-26T13:07:51Z</time>
      </trkpt>
      <trkpt lat="43.70486" lon="5.0816">
        <ele>154</ele>
        <time>2019-09-26T13:07:54Z</time>
      </trkpt>
      <trkpt lat="43.70485" lon="5.08162">
        <ele>154</ele>
        <time>2019-09-26T13:07:57Z</time>
      </trkpt>
      <trkpt lat="43.70485" lon="5.08162">
        <ele>156</ele>
        <time>2019-09-26T13:07:59Z</time>
      </trkpt>
      <trkpt lat="43.70484" lon="5.08165">
        <ele>156</ele>
        <time>2019-09-26T13:08:01Z</time>
      </trkpt>
      <trkpt lat="43.70483" lon="5.08166">
        <ele>156</ele>
        <time>2019-09-26T13:08:04Z</time>
      </trkpt>
      <trkpt lat="43.70481" lon="5.08167">
        <ele>156</ele>
        <time>2019-09-26T13:08:07Z</time>
      </trkpt>
      <trkpt lat="43.70481" lon="5.08167">
        <ele>157</ele>
        <time>2019-09-26T13:08:09Z</time>
      </trkpt>
      <trkpt lat="43.70481" lon="5.08167">
        <ele>159</ele>
        <time>2019-09-26T13:08:19Z</time>
      </trkpt>
      <trkpt lat="43.70479" lon="5.08168">
        <ele>159</ele>
        <time>2019-09-26T13:08:20Z</time>
      </trkpt>
      <trkpt lat="43.70477" lon="5.08168">
        <ele>159</ele>
        <time>2019-09-26T13:08:24Z</time>
      </trkpt>
      <trkpt lat="43.70475" lon="5.0817">
        <ele>159</ele>
        <time>2019-09-26T13:08:27Z</time>
      </trkpt>
      <trkpt lat="43.70475" lon="5.0817">
        <ele>160</ele>
        <time>2019-09-26T13:08:29Z</time>
      </trkpt>
      <trkpt lat="43.70473" lon="5.08171">
        <ele>160</ele>
        <time>2019-09-26T13:08:31Z</time>
      </trkpt>
      <trkpt lat="43.70471" lon="5.08173">
        <ele>160</ele>
        <time>2019-09-26T13:08:34Z</time>
      </trkpt>
      <trkpt lat="43.70469" lon="5.08174">
        <ele>160</ele>
        <time>2019-09-26T13:08:37Z</time>
      </trkpt>
      <trkpt lat="43.70469" lon="5.08174">
        <ele>161</ele>
        <time>2019-09-26T13:08:39Z</time>
      </trkpt>
      <trkpt lat="43.70467" lon="5.08176">
        <ele>161</ele>
        <time>2019-09-26T13:08:40Z</time>
      </trkpt>
      <trkpt lat="43.70466" lon="5.08178">
        <ele>161</ele>
        <time>2019-09-26T13:08:43Z</time>
      </trkpt>
      <trkpt lat="43.70464" lon="5.0818">
        <ele>161</ele>
        <time>2019-09-26T13:08:46Z</time>
      </trkpt>
      <trkpt lat="43.70462" lon="5.08181">
        <ele>163</ele>
        <time>2019-09-26T13:08:49Z</time>
      </trkpt>
      <trkpt lat="43.7046" lon="5.08183">
        <ele>163</ele>
        <time>2019-09-26T13:08:53Z</time>
      </trkpt>
      <trkpt lat="43.70458" lon="5.08185">
        <ele>163</ele>
        <time>2019-09-26T13:08:57Z</time>
      </trkpt>
      <trkpt lat="43.70458" lon="5.08185">
        <ele>164</ele>
        <time>2019-09-26T13:08:59Z</time>
      </trkpt>
      <trkpt lat="43.70456" lon="5.08185">
        <ele>164</ele>
        <time>2019-09-26T13:09:01Z</time>
      </trkpt>
      <trkpt lat="43.70455" lon="5.08184">
        <ele>164</ele>
        <time>2019-09-26T13:09:05Z</time>
      </trkpt>
      <trkpt lat="43.70454" lon="5.08183">
        <ele>164</ele>
        <time>2019-09-26T13:09:08Z</time>
      </trkpt>
      <trkpt lat="43.70454" lon="5.08182">
        <ele>166</ele>
        <time>2019-09-26T13:09:09Z</time>
      </trkpt>
      <trkpt lat="43.70451" lon="5.08181">
        <ele>166</ele>
        <time>2019-09-26T13:09:12Z</time>
      </trkpt>
      <trkpt lat="43.7045" lon="5.08182">
        <ele>166</ele>
        <time>2019-09-26T13:09:15Z</time>
      </trkpt>
      <trkpt lat="43.70449" lon="5.08182">
        <ele>166</ele>
        <time>2019-09-26T13:09:18Z</time>
      </trkpt>
      <trkpt lat="43.70448" lon="5.08183">
        <ele>168</ele>
        <time>2019-09-26T13:09:19Z</time>
      </trkpt>
      <trkpt lat="43.70446" lon="5.08184">
        <ele>168</ele>
        <time>2019-09-26T13:09:21Z</time>
      </trkpt>
      <trkpt lat="43.70444" lon="5.08185">
        <ele>168</ele>
        <time>2019-09-26T13:09:24Z</time>
      </trkpt>
      <trkpt lat="43.70441" lon="5.08187">
        <ele>168</ele>
        <time>2019-09-26T13:09:27Z</time>
      </trkpt>
      <trkpt lat="43.70441" lon="5.08187">
        <ele>169</ele>
        <time>2019-09-26T13:09:29Z</time>
      </trkpt>
      <trkpt lat="43.70439" lon="5.08187">
        <ele>169</ele>
        <time>2019-09-26T13:09:31Z</time>
      </trkpt>
      <trkpt lat="43.70438" lon="5.0819">
        <ele>169</ele>
        <time>2019-09-26T13:09:36Z</time>
      </trkpt>
      <trkpt lat="43.70436" lon="5.08192">
        <ele>170</ele>
        <time>2019-09-26T13:09:39Z</time>
      </trkpt>
      <trkpt lat="43.70433" lon="5.08193">
        <ele>170</ele>
        <time>2019-09-26T13:09:42Z</time>
      </trkpt>
      <trkpt lat="43.70432" lon="5.08193">
        <ele>170</ele>
        <time>2019-09-26T13:09:45Z</time>
      </trkpt>
      <trkpt lat="43.70431" lon="5.08193">
        <ele>170</ele>
        <time>2019-09-26T13:09:48Z</time>
      </trkpt>
      <trkpt lat="43.7043" lon="5.08194">
        <ele>171</ele>
        <time>2019-09-26T13:09:49Z</time>
      </trkpt>
      <trkpt lat="43.70427" lon="5.08196">
        <ele>171</ele>
        <time>2019-09-26T13:09:52Z</time>
      </trkpt>
      <trkpt lat="43.70425" lon="5.08197">
        <ele>172</ele>
        <time>2019-09-26T13:09:59Z</time>
      </trkpt>
      <trkpt lat="43.70424" lon="5.08197">
        <ele>172</ele>
        <time>2019-09-26T13:10:02Z</time>
      </trkpt>
      <trkpt lat="43.70423" lon="5.08198">
        <ele>172</ele>
        <time>2019-09-26T13:10:05Z</time>
      </trkpt>
      <trkpt lat="43.70421" lon="5.08198">
        <ele>172</ele>
        <time>2019-09-26T13:10:08Z</time>
      </trkpt>
      <trkpt lat="43.7042" lon="5.08199">
        <ele>173</ele>
        <time>2019-09-26T13:10:09Z</time>
      </trkpt>
      <trkpt lat="43.70418" lon="5.082">
        <ele>173</ele>
        <time>2019-09-26T13:10:12Z</time>
      </trkpt>
      <trkpt lat="43.70416" lon="5.08201">
        <ele>173</ele>
        <time>2019-09-26T13:10:16Z</time>
      </trkpt>
      <trkpt lat="43.70416" lon="5.08201">
        <ele>173</ele>
        <time>2019-09-26T13:10:19Z</time>
      </trkpt>
      <trkpt lat="43.70416" lon="5.08201">
        <ele>174</ele>
        <time>2019-09-26T13:10:23Z</time>
      </trkpt>
      <trkpt lat="43.70415" lon="5.082">
        <ele>174</ele>
        <time>2019-09-26T13:10:24Z</time>
      </trkpt>
      <trkpt lat="43.70415" lon="5.082">
        <ele>176</ele>
        <time>2019-09-26T13:11:32Z</time>
      </trkpt>
      <trkpt lat="43.70402" lon="5.08227">
        <ele>176</ele>
        <time>2019-09-26T13:11:33Z</time>
      </trkpt>
      <trkpt lat="43.70403" lon="5.08228">
        <ele>176</ele>
        <time>2019-09-26T13:11:34Z</time>
      </trkpt>
      <trkpt lat="43.70404" lon="5.08231">
        <ele>176</ele>
        <time>2019-09-26T13:11:37Z</time>
      </trkpt>
      <trkpt lat="43.70406" lon="5.08232">
        <ele>176</ele>
        <time>2019-09-26T13:11:40Z</time>
      </trkpt>
      <trkpt lat="43.70406" lon="5.08232">
        <ele>178</ele>
        <time>2019-09-26T13:11:42Z</time>
      </trkpt>
      <trkpt lat="43.70409" lon="5.08233">
        <ele>178</ele>
        <time>2019-09-26T13:11:43Z</time>
      </trkpt>
      <trkpt lat="43.7041" lon="5.08232">
        <ele>178</ele>
        <time>2019-09-26T13:11:46Z</time>
      </trkpt>
      <trkpt lat="43.70411" lon="5.08231">
        <ele>178</ele>
        <time>2019-09-26T13:11:49Z</time>
      </trkpt>
      <trkpt lat="43.70412" lon="5.08231">
        <ele>179</ele>
        <time>2019-09-26T13:11:52Z</time>
      </trkpt>
      <trkpt lat="43.70413" lon="5.0823">
        <ele>179</ele>
        <time>2019-09-26T13:11:54Z</time>
      </trkpt>
      <trkpt lat="43.70414" lon="5.08229">
        <ele>179</ele>
        <time>2019-09-26T13:11:58Z</time>
      </trkpt>
      <trkpt lat="43.70415" lon="5.08229">
        <ele>179</ele>
        <time>2019-09-26T13:12:01Z</time>
      </trkpt>
      <trkpt lat="43.70416" lon="5.08228">
        <ele>178</ele>
        <time>2019-09-26T13:12:02Z</time>
      </trkpt>
      <trkpt lat="43.70419" lon="5.08225">
        <ele>178</ele>
        <time>2019-09-26T13:12:04Z</time>
      </trkpt>
      <trkpt lat="43.7042" lon="5.08225">
        <ele>178</ele>
        <time>2019-09-26T13:12:06Z</time>
      </trkpt>
      <trkpt lat="43.70421" lon="5.08224">
        <ele>178</ele>
        <time>2019-09-26T13:12:11Z</time>
      </trkpt>
      <trkpt lat="43.70422" lon="5.08224">
        <ele>178</ele>
        <time>2019-09-26T13:12:12Z</time>
      </trkpt>
      <trkpt lat="43.70424" lon="5.08225">
        <ele>178</ele>
        <time>2019-09-26T13:12:19Z</time>
      </trkpt>
      <trkpt lat="43.70425" lon="5.08225">
        <ele>178</ele>
        <time>2019-09-26T13:12:20Z</time>
      </trkpt>
      <trkpt lat="43.70426" lon="5.08226">
        <ele>178</ele>
        <time>2019-09-26T13:12:26Z</time>
      </trkpt>
      <trkpt lat="43.70428" lon="5.08227">
        <ele>178</ele>
        <time>2019-09-26T13:12:27Z</time>
      </trkpt>
      <trkpt lat="43.70429" lon="5.08227">
        <ele>178</ele>
        <time>2019-09-26T13:12:31Z</time>
      </trkpt>
      <trkpt lat="43.7043" lon="5.08228">
        <ele>178</ele>
        <time>2019-09-26T13:12:32Z</time>
      </trkpt>
      <trkpt lat="43.70432" lon="5.08229">
        <ele>179</ele>
        <time>2019-09-26T13:13:43Z</time>
      </trkpt>
      <trkpt lat="43.70433" lon="5.08229">
        <ele>179</ele>
        <time>2019-09-26T13:13:45Z</time>
      </trkpt>
      <trkpt lat="43.70435" lon="5.0823">
        <ele>179</ele>
        <time>2019-09-26T13:13:48Z</time>
      </trkpt>
      <trkpt lat="43.70436" lon="5.08231">
        <ele>179</ele>
        <time>2019-09-26T13:13:51Z</time>
      </trkpt>
      <trkpt lat="43.70437" lon="5.08231">
        <ele>180</ele>
        <time>2019-09-26T13:13:52Z</time>
      </trkpt>
      <trkpt lat="43.7044" lon="5.08231">
        <ele>180</ele>
        <time>2019-09-26T13:13:54Z</time>
      </trkpt>
      <trkpt lat="43.70442" lon="5.08231">
        <ele>180</ele>
        <time>2019-09-26T13:13:58Z</time>
      </trkpt>
      <trkpt lat="43.70444" lon="5.08231">
        <ele>181</ele>
        <time>2019-09-26T13:14:02Z</time>
      </trkpt>
      <trkpt lat="43.70445" lon="5.0823">
        <ele>181</ele>
        <time>2019-09-26T13:14:06Z</time>
      </trkpt>
      <trkpt lat="43.70447" lon="5.0823">
        <ele>181</ele>
        <time>2019-09-26T13:14:10Z</time>
      </trkpt>
      <trkpt lat="43.70447" lon="5.0823">
        <ele>181</ele>
        <time>2019-09-26T13:14:12Z</time>
      </trkpt>
      <trkpt lat="43.7045" lon="5.0823">
        <ele>181</ele>
        <time>2019-09-26T13:14:14Z</time>
      </trkpt>
      <trkpt lat="43.70451" lon="5.08232">
        <ele>181</ele>
        <time>2019-09-26T13:14:19Z</time>
      </trkpt>
      <trkpt lat="43.70451" lon="5.08232">
        <ele>182</ele>
        <time>2019-09-26T13:14:22Z</time>
      </trkpt>
      <trkpt lat="43.70417" lon="5.0827">
        <ele>187</ele>
        <time>2019-09-26T13:17:41Z</time>
      </trkpt>
      <trkpt lat="43.70415" lon="5.08271">
        <ele>187</ele>
        <time>2019-09-26T13:17:43Z</time>
      </trkpt>
      <trkpt lat="43.70413" lon="5.08271">
        <ele>187</ele>
        <time>2019-09-26T13:17:45Z</time>
      </trkpt>
      <trkpt lat="43.7041" lon="5.08271">
        <ele>187</ele>
        <time>2019-09-26T13:17:48Z</time>
      </trkpt>
      <trkpt lat="43.70409" lon="5.08271">
        <ele>186</ele>
        <time>2019-09-26T13:17:50Z</time>
      </trkpt>
      <trkpt lat="43.70406" lon="5.08272">
        <ele>186</ele>
        <time>2019-09-26T13:17:53Z</time>
      </trkpt>
      <trkpt lat="43.70405" lon="5.08274">
        <ele>186</ele>
        <time>2019-09-26T13:17:55Z</time>
      </trkpt>
      <trkpt lat="43.70403" lon="5.08275">
        <ele>186</ele>
        <time>2019-09-26T13:17:58Z</time>
      </trkpt>
      <trkpt lat="43.70403" lon="5.08275">
        <ele>186</ele>
        <time>2019-09-26T13:18:00Z</time>
      </trkpt>
      <trkpt lat="43.704" lon="5.08275">
        <ele>186</ele>
        <time>2019-09-26T13:18:03Z</time>
      </trkpt>
      <trkpt lat="43.70398" lon="5.08274">
        <ele>186</ele>
        <time>2019-09-26T13:18:05Z</time>
      </trkpt>
      <trkpt lat="43.70396" lon="5.08273">
        <ele>186</ele>
        <time>2019-09-26T13:18:08Z</time>
      </trkpt>
      <trkpt lat="43.70396" lon="5.08273">
        <ele>186</ele>
        <time>2019-09-26T13:18:10Z</time>
      </trkpt>
      <trkpt lat="43.70393" lon="5.08271">
        <ele>186</ele>
        <time>2019-09-26T13:18:11Z</time>
      </trkpt>
      <trkpt lat="43.70392" lon="5.0827">
        <ele>186</ele>
        <time>2019-09-26T13:18:17Z</time>
      </trkpt>
      <trkpt lat="43.7039" lon="5.08268">
        <ele>186</ele>
        <time>2019-09-26T13:18:20Z</time>
      </trkpt>
      <trkpt lat="43.70389" lon="5.08267">
        <ele>186</ele>
        <time>2019-09-26T13:18:25Z</time>
      </trkpt>
      <trkpt lat="43.70388" lon="5.08266">
        <ele>186</ele>
        <time>2019-09-26T13:18:26Z</time>
      </trkpt>
      <trkpt lat="43.70386" lon="5.08264">
        <ele>184</ele>
        <time>2019-09-26T13:19:44Z</time>
      </trkpt>
      <trkpt lat="43.70385" lon="5.08263">
        <ele>184</ele>
        <time>2019-09-26T13:19:45Z</time>
      </trkpt>
      <trkpt lat="43.70384" lon="5.08261">
        <ele>184</ele>
        <time>2019-09-26T13:19:51Z</time>
      </trkpt>
      <trkpt lat="43.70382" lon="5.0826">
        <ele>184</ele>
        <time>2019-09-26T13:19:52Z</time>
      </trkpt>
      <trkpt lat="43.70381" lon="5.08259">
        <ele>182</ele>
        <time>2019-09-26T13:20:06Z</time>
      </trkpt>
      <trkpt lat="43.7038" lon="5.08257">
        <ele>182</ele>
        <time>2019-09-26T13:20:07Z</time>
      </trkpt>
      <trkpt lat="43.70378" lon="5.08256">
        <ele>182</ele>
        <time>2019-09-26T13:20:13Z</time>
      </trkpt>
      <trkpt lat="43.70377" lon="5.08254">
        <ele>182</ele>
        <time>2019-09-26T13:20:16Z</time>
      </trkpt>
      <trkpt lat="43.70376" lon="5.08253">
        <ele>182</ele>
        <time>2019-09-26T13:20:20Z</time>
      </trkpt>
      <trkpt lat="43.70374" lon="5.08251">
        <ele>182</ele>
        <time>2019-09-26T13:20:21Z</time>
      </trkpt>
      <trkpt lat="43.70373" lon="5.0825">
        <ele>182</ele>
        <time>2019-09-26T13:20:28Z</time>
      </trkpt>
      <trkpt lat="43.70372" lon="5.08249">
        <ele>182</ele>
        <time>2019-09-26T13:20:29Z</time>
      </trkpt>
      <trkpt lat="43.7037" lon="5.08247">
        <ele>182</ele>
        <time>2019-09-26T13:20:32Z</time>
      </trkpt>
      <trkpt lat="43.70369" lon="5.08246">
        <ele>182</ele>
        <time>2019-09-26T13:20:34Z</time>
      </trkpt>
      <trkpt lat="43.70368" lon="5.08244">
        <ele>182</ele>
        <time>2019-09-26T13:20:37Z</time>
      </trkpt>
      <trkpt lat="43.70367" lon="5.08243">
        <ele>182</ele>
        <time>2019-09-26T13:20:38Z</time>
      </trkpt>
      <trkpt lat="43.70364" lon="5.08242">
        <ele>182</ele>
        <time>2019-09-26T13:20:45Z</time>
      </trkpt>
      <trkpt lat="43.70363" lon="5.08241">
        <ele>181</ele>
        <time>2019-09-26T13:20:48Z</time>
      </trkpt>
      <trkpt lat="43.70362" lon="5.0824">
        <ele>181</ele>
        <time>2019-09-26T13:20:49Z</time>
      </trkpt>
      <trkpt lat="43.70361" lon="5.08239">
        <ele>181</ele>
        <time>2019-09-26T13:20:51Z</time>
      </trkpt>
      <trkpt lat="43.7036" lon="5.08239">
        <ele>181</ele>
        <time>2019-09-26T13:20:54Z</time>
      </trkpt>
      <trkpt lat="43.70359" lon="5.08238">
        <ele>181</ele>
        <time>2019-09-26T13:20:57Z</time>
      </trkpt>
      <trkpt lat="43.70358" lon="5.08237">
        <ele>180</ele>
        <time>2019-09-26T13:20:58Z</time>
      </trkpt>
      <trkpt lat="43.70358" lon="5.08234">
        <ele>180</ele>
        <time>2019-09-26T13:21:00Z</time>
      </trkpt>
      <trkpt lat="43.70358" lon="5.08232">
        <ele>180</ele>
        <time>2019-09-26T13:21:03Z</time>
      </trkpt>
      <trkpt lat="43.70358" lon="5.08232">
        <ele>181</ele>
        <time>2019-09-26T13:21:08Z</time>
      </trkpt>
      <trkpt lat="43.70358" lon="5.08232">
        <ele>181</ele>
        <time>2019-09-26T13:21:11Z</time>
      </trkpt>
      <trkpt lat="43.70358" lon="5.08232">
        <ele>181</ele>
        <time>2019-09-26T13:21:12Z</time>
      </trkpt>
      <trkpt lat="43.70358" lon="5.08232">
        <ele>182</ele>
        <time>2019-09-26T13:21:42Z</time>
      </trkpt>
      <trkpt lat="43.7036" lon="5.08215">
        <ele>182</ele>
        <time>2019-09-26T13:21:43Z</time>
      </trkpt>
      <trkpt lat="43.70361" lon="5.08213">
        <ele>182</ele>
        <time>2019-09-26T13:21:45Z</time>
      </trkpt>
      <trkpt lat="43.70363" lon="5.08211">
        <ele>182</ele>
        <time>2019-09-26T13:21:47Z</time>
      </trkpt>
      <trkpt lat="43.70365" lon="5.08209">
        <ele>182</ele>
        <time>2019-09-26T13:21:50Z</time>
      </trkpt>
      <trkpt lat="43.70365" lon="5.08209">
        <ele>182</ele>
        <time>2019-09-26T13:21:52Z</time>
      </trkpt>
      <trkpt lat="43.70365" lon="5.08208">
        <ele>182</ele>
        <time>2019-09-26T13:21:55Z</time>
      </trkpt>
      <trkpt lat="43.70365" lon="5.0821">
        <ele>182</ele>
        <time>2019-09-26T13:22:02Z</time>
      </trkpt>
      <trkpt lat="43.70364" lon="5.08211">
        <ele>182</ele>
        <time>2019-09-26T13:22:05Z</time>
      </trkpt>
      <trkpt lat="43.70364" lon="5.08213">
        <ele>182</ele>
        <time>2019-09-26T13:22:06Z</time>
      </trkpt>
      <trkpt lat="43.70363" lon="5.08215">
        <ele>183</ele>
        <time>2019-09-26T13:22:28Z</time>
      </trkpt>
      <trkpt lat="43.70363" lon="5.08216">
        <ele>183</ele>
        <time>2019-09-26T13:22:29Z</time>
      </trkpt>
      <trkpt lat="43.70363" lon="5.08218">
        <ele>183</ele>
        <time>2019-09-26T13:22:35Z</time>
      </trkpt>
      <trkpt lat="43.70362" lon="5.08219">
        <ele>183</ele>
        <time>2019-09-26T13:22:36Z</time>
      </trkpt>
      <trkpt lat="43.70362" lon="5.08221">
        <ele>182</ele>
        <time>2019-09-26T13:23:08Z</time>
      </trkpt>
      <trkpt lat="43.70361" lon="5.08223">
        <ele>182</ele>
        <time>2019-09-26T13:23:09Z</time>
      </trkpt>
      <trkpt lat="43.70361" lon="5.08224">
        <ele>182</ele>
        <time>2019-09-26T13:23:11Z</time>
      </trkpt>
      <trkpt lat="43.7036" lon="5.08226">
        <ele>182</ele>
        <time>2019-09-26T13:23:14Z</time>
      </trkpt>
      <trkpt lat="43.7036" lon="5.08228">
        <ele>182</ele>
        <time>2019-09-26T13:23:17Z</time>
      </trkpt>
      <trkpt lat="43.70359" lon="5.08229">
        <ele>182</ele>
        <time>2019-09-26T13:23:18Z</time>
      </trkpt>
      <trkpt lat="43.70358" lon="5.08233">
        <ele>182</ele>
        <time>2019-09-26T13:23:20Z</time>
      </trkpt>
      <trkpt lat="43.70357" lon="5.08235">
        <ele>182</ele>
        <time>2019-09-26T13:23:22Z</time>
      </trkpt>
      <trkpt lat="43.70356" lon="5.08238">
        <ele>182</ele>
        <time>2019-09-26T13:23:25Z</time>
      </trkpt>
      <trkpt lat="43.70356" lon="5.08238">
        <ele>182</ele>
        <time>2019-09-26T13:23:28Z</time>
      </trkpt>
      <trkpt lat="43.70355" lon="5.0824">
        <ele>182</ele>
        <time>2019-09-26T13:23:30Z</time>
      </trkpt>
      <trkpt lat="43.70355" lon="5.0824">
        <ele>181</ele>
        <time>2019-09-26T13:27:26Z</time>
      </trkpt>
      <trkpt lat="43.70356" lon="5.08243">
        <ele>181</ele>
        <time>2019-09-26T13:27:27Z</time>
      </trkpt>
      <trkpt lat="43.70356" lon="5.08244">
        <ele>181</ele>
        <time>2019-09-26T13:27:28Z</time>
      </trkpt>
      <trkpt lat="43.70354" lon="5.08246">
        <ele>181</ele>
        <time>2019-09-26T13:27:30Z</time>
      </trkpt>
      <trkpt lat="43.70352" lon="5.08248">
        <ele>181</ele>
        <time>2019-09-26T13:27:32Z</time>
      </trkpt>
      <trkpt lat="43.7035" lon="5.08249">
        <ele>181</ele>
        <time>2019-09-26T13:27:34Z</time>
      </trkpt>
      <trkpt lat="43.7035" lon="5.08249">
        <ele>181</ele>
        <time>2019-09-26T13:27:36Z</time>
      </trkpt>
      <trkpt lat="43.70347" lon="5.08251">
        <ele>181</ele>
        <time>2019-09-26T13:27:37Z</time>
      </trkpt>
      <trkpt lat="43.70345" lon="5.08251">
        <ele>181</ele>
        <time>2019-09-26T13:27:40Z</time>
      </trkpt>
      <trkpt lat="43.70343" lon="5.08251">
        <ele>181</ele>
        <time>2019-09-26T13:27:43Z</time>
      </trkpt>
      <trkpt lat="43.70341" lon="5.08252">
        <ele>181</ele>
        <time>2019-09-26T13:27:46Z</time>
      </trkpt>
      <trkpt lat="43.70338" lon="5.08252">
        <ele>181</ele>
        <time>2019-09-26T13:27:49Z</time>
      </trkpt>
      <trkpt lat="43.70336" lon="5.08252">
        <ele>181</ele>
        <time>2019-09-26T13:27:52Z</time>
      </trkpt>
      <trkpt lat="43.70335" lon="5.08252">
        <ele>181</ele>
        <time>2019-09-26T13:27:55Z</time>
      </trkpt>
      <trkpt lat="43.70334" lon="5.08252">
        <ele>181</ele>
        <time>2019-09-26T13:27:56Z</time>
      </trkpt>
      <trkpt lat="43.70331" lon="5.08251">
        <ele>181</ele>
        <time>2019-09-26T13:27:57Z</time>
      </trkpt>
      <trkpt lat="43.7033" lon="5.0825">
        <ele>181</ele>
        <time>2019-09-26T13:28:00Z</time>
      </trkpt>
      <trkpt lat="43.70329" lon="5.0825">
        <ele>181</ele>
        <time>2019-09-26T13:28:02Z</time>
      </trkpt>
      <trkpt lat="43.70328" lon="5.0825">
        <ele>181</ele>
        <time>2019-09-26T13:28:05Z</time>
      </trkpt>
      <trkpt lat="43.70326" lon="5.08249">
        <ele>181</ele>
        <time>2019-09-26T13:28:06Z</time>
      </trkpt>
      <trkpt lat="43.70323" lon="5.08248">
        <ele>181</ele>
        <time>2019-09-26T13:28:08Z</time>
      </trkpt>
      <trkpt lat="43.70322" lon="5.08248">
        <ele>181</ele>
        <time>2019-09-26T13:28:11Z</time>
      </trkpt>
      <trkpt lat="43.70321" lon="5.08247">
        <ele>181</ele>
        <time>2019-09-26T13:28:15Z</time>
      </trkpt>
      <trkpt lat="43.7032" lon="5.08247">
        <ele>180</ele>
        <time>2019-09-26T13:28:16Z</time>
      </trkpt>
      <trkpt lat="43.70318" lon="5.08245">
        <ele>180</ele>
        <time>2019-09-26T13:28:18Z</time>
      </trkpt>
      <trkpt lat="43.70316" lon="5.08244">
        <ele>180</ele>
        <time>2019-09-26T13:28:21Z</time>
      </trkpt>
      <trkpt lat="43.70315" lon="5.08241">
        <ele>180</ele>
        <time>2019-09-26T13:28:24Z</time>
      </trkpt>
      <trkpt lat="43.70315" lon="5.08241">
        <ele>178</ele>
        <time>2019-09-26T13:28:26Z</time>
      </trkpt>
      <trkpt lat="43.70314" lon="5.08238">
        <ele>178</ele>
        <time>2019-09-26T13:28:27Z</time>
      </trkpt>
      <trkpt lat="43.70313" lon="5.08235">
        <ele>178</ele>
        <time>2019-09-26T13:28:30Z</time>
      </trkpt>
      <trkpt lat="43.70312" lon="5.08233">
        <ele>178</ele>
        <time>2019-09-26T13:28:33Z</time>
      </trkpt>
      <trkpt lat="43.70312" lon="5.08233">
        <ele>178</ele>
        <time>2019-09-26T13:28:36Z</time>
      </trkpt>
      <trkpt lat="43.70312" lon="5.08231">
        <ele>178</ele>
        <time>2019-09-26T13:28:39Z</time>
      </trkpt>
      <trkpt lat="43.70312" lon="5.08228">
        <ele>178</ele>
        <time>2019-09-26T13:28:43Z</time>
      </trkpt>
      <trkpt lat="43.70312" lon="5.08228">
        <ele>177</ele>
        <time>2019-09-26T13:28:46Z</time>
      </trkpt>
      <trkpt lat="43.70312" lon="5.08225">
        <ele>177</ele>
        <time>2019-09-26T13:28:48Z</time>
      </trkpt>
      <trkpt lat="43.70312" lon="5.08222">
        <ele>177</ele>
        <time>2019-09-26T13:28:52Z</time>
      </trkpt>
      <trkpt lat="43.70311" lon="5.08219">
        <ele>175</ele>
        <time>2019-09-26T13:28:56Z</time>
      </trkpt>
      <trkpt lat="43.7031" lon="5.08216">
        <ele>175</ele>
        <time>2019-09-26T13:28:59Z</time>
      </trkpt>
      <trkpt lat="43.7031" lon="5.08213">
        <ele>175</ele>
        <time>2019-09-26T13:29:02Z</time>
      </trkpt>
      <trkpt lat="43.7031" lon="5.08213">
        <ele>174</ele>
        <time>2019-09-26T13:29:06Z</time>
      </trkpt>
      <trkpt lat="43.70308" lon="5.08211">
        <ele>174</ele>
        <time>2019-09-26T13:29:09Z</time>
      </trkpt>
      <trkpt lat="43.70307" lon="5.08214">
        <ele>174</ele>
        <time>2019-09-26T13:29:13Z</time>
      </trkpt>
      <trkpt lat="43.70305" lon="5.08216">
        <ele>174</ele>
        <time>2019-09-26T13:29:16Z</time>
      </trkpt>
      <trkpt lat="43.70304" lon="5.08218">
        <ele>174</ele>
        <time>2019-09-26T13:29:19Z</time>
      </trkpt>
      <trkpt lat="43.70303" lon="5.08221">
        <ele>174</ele>
        <time>2019-09-26T13:29:23Z</time>
      </trkpt>
      <trkpt lat="43.70302" lon="5.08224">
        <ele>173</ele>
        <time>2019-09-26T13:29:26Z</time>
      </trkpt>
      <trkpt lat="43.70301" lon="5.08227">
        <ele>173</ele>
        <time>2019-09-26T13:29:29Z</time>
      </trkpt>
      <trkpt lat="43.703" lon="5.08228">
        <ele>173</ele>
        <time>2019-09-26T13:29:32Z</time>
      </trkpt>
      <trkpt lat="43.703" lon="5.08229">
        <ele>173</ele>
        <time>2019-09-26T13:29:35Z</time>
      </trkpt>
      <trkpt lat="43.70299" lon="5.08231">
        <ele>171</ele>
        <time>2019-09-26T13:29:36Z</time>
      </trkpt>
      <trkpt lat="43.70298" lon="5.08233">
        <ele>171</ele>
        <time>2019-09-26T13:29:38Z</time>
      </trkpt>
      <trkpt lat="43.70296" lon="5.08236">
        <ele>171</ele>
        <time>2019-09-26T13:29:41Z</time>
      </trkpt>
      <trkpt lat="43.70296" lon="5.08239">
        <ele>171</ele>
        <time>2019-09-26T13:29:44Z</time>
      </trkpt>
      <trkpt lat="43.70296" lon="5.08239">
        <ele>169</ele>
        <time>2019-09-26T13:29:46Z</time>
      </trkpt>
      <trkpt lat="43.70295" lon="5.08241">
        <ele>169</ele>
        <time>2019-09-26T13:29:47Z</time>
      </trkpt>
      <trkpt lat="43.70294" lon="5.08244">
        <ele>169</ele>
        <time>2019-09-26T13:29:50Z</time>
      </trkpt>
      <trkpt lat="43.70293" lon="5.08246">
        <ele>168</ele>
        <time>2019-09-26T13:29:56Z</time>
      </trkpt>
      <trkpt lat="43.70291" lon="5.08248">
        <ele>168</ele>
        <time>2019-09-26T13:29:59Z</time>
      </trkpt>
      <trkpt lat="43.7029" lon="5.0825">
        <ele>168</ele>
        <time>2019-09-26T13:30:01Z</time>
      </trkpt>
      <trkpt lat="43.70288" lon="5.08253">
        <ele>168</ele>
        <time>2019-09-26T13:30:04Z</time>
      </trkpt>
      <trkpt lat="43.70288" lon="5.08253">
        <ele>167</ele>
        <time>2019-09-26T13:30:06Z</time>
      </trkpt>
      <trkpt lat="43.70287" lon="5.08255">
        <ele>167</ele>
        <time>2019-09-26T13:30:07Z</time>
      </trkpt>
      <trkpt lat="43.70286" lon="5.08257">
        <ele>167</ele>
        <time>2019-09-26T13:30:10Z</time>
      </trkpt>
      <trkpt lat="43.70284" lon="5.08259">
        <ele>167</ele>
        <time>2019-09-26T13:30:13Z</time>
      </trkpt>
      <trkpt lat="43.70283" lon="5.08261">
        <ele>167</ele>
        <time>2019-09-26T13:30:16Z</time>
      </trkpt>
      <trkpt lat="43.70281" lon="5.08263">
        <ele>167</ele>
        <time>2019-09-26T13:30:19Z</time>
      </trkpt>
      <trkpt lat="43.70279" lon="5.08264">
        <ele>167</ele>
        <time>2019-09-26T13:30:22Z</time>
      </trkpt>
      <trkpt lat="43.70279" lon="5.08268">
        <ele>166</ele>
        <time>2019-09-26T13:30:26Z</time>
      </trkpt>
      <trkpt lat="43.70278" lon="5.0827">
        <ele>166</ele>
        <time>2019-09-26T13:30:28Z</time>
      </trkpt>
      <trkpt lat="43.70278" lon="5.08274">
        <ele>166</ele>
        <time>2019-09-26T13:30:31Z</time>
      </trkpt>
      <trkpt lat="43.70277" lon="5.08277">
        <ele>166</ele>
        <time>2019-09-26T13:30:34Z</time>
      </trkpt>
      <trkpt lat="43.70277" lon="5.08277">
        <ele>166</ele>
        <time>2019-09-26T13:30:36Z</time>
      </trkpt>
      <trkpt lat="43.70277" lon="5.08279">
        <ele>166</ele>
        <time>2019-09-26T13:30:37Z</time>
      </trkpt>
      <trkpt lat="43.70276" lon="5.08282">
        <ele>166</ele>
        <time>2019-09-26T13:30:40Z</time>
      </trkpt>
      <trkpt lat="43.70276" lon="5.08285">
        <ele>166</ele>
        <time>2019-09-26T13:30:43Z</time>
      </trkpt>
      <trkpt lat="43.70276" lon="5.08289">
        <ele>164</ele>
        <time>2019-09-26T13:30:46Z</time>
      </trkpt>
      <trkpt lat="43.70275" lon="5.08293">
        <ele>164</ele>
        <time>2019-09-26T13:30:49Z</time>
      </trkpt>
      <trkpt lat="43.70275" lon="5.08295">
        <ele>164</ele>
        <time>2019-09-26T13:30:52Z</time>
      </trkpt>
      <trkpt lat="43.70275" lon="5.08296">
        <ele>164</ele>
        <time>2019-09-26T13:30:55Z</time>
      </trkpt>
      <trkpt lat="43.70275" lon="5.08298">
        <ele>162</ele>
        <time>2019-09-26T13:30:56Z</time>
      </trkpt>
      <trkpt lat="43.70275" lon="5.08301">
        <ele>162</ele>
        <time>2019-09-26T13:30:57Z</time>
      </trkpt>
      <trkpt lat="43.70276" lon="5.08304">
        <ele>162</ele>
        <time>2019-09-26T13:31:00Z</time>
      </trkpt>
      <trkpt lat="43.70275" lon="5.08307">
        <ele>162</ele>
        <time>2019-09-26T13:31:03Z</time>
      </trkpt>
      <trkpt lat="43.70274" lon="5.08309">
        <ele>160</ele>
        <time>2019-09-26T13:31:06Z</time>
      </trkpt>
      <trkpt lat="43.70273" lon="5.08313">
        <ele>160</ele>
        <time>2019-09-26T13:31:08Z</time>
      </trkpt>
      <trkpt lat="43.70273" lon="5.08315">
        <ele>160</ele>
        <time>2019-09-26T13:31:11Z</time>
      </trkpt>
      <trkpt lat="43.70272" lon="5.08317">
        <ele>160</ele>
        <time>2019-09-26T13:31:13Z</time>
      </trkpt>
      <trkpt lat="43.70271" lon="5.08318">
        <ele>160</ele>
        <time>2019-09-26T13:31:15Z</time>
      </trkpt>
      <trkpt lat="43.70271" lon="5.0832">
        <ele>160</ele>
        <time>2019-09-26T13:31:16Z</time>
      </trkpt>
      <trkpt lat="43.7027" lon="5.08324">
        <ele>160</ele>
        <time>2019-09-26T13:31:17Z</time>
      </trkpt>
      <trkpt lat="43.70269" lon="5.08326">
        <ele>160</ele>
        <time>2019-09-26T13:31:19Z</time>
      </trkpt>
      <trkpt lat="43.70268" lon="5.08327">
        <ele>160</ele>
        <time>2019-09-26T13:31:22Z</time>
      </trkpt>
      <trkpt lat="43.70268" lon="5.08329">
        <ele>160</ele>
        <time>2019-09-26T13:31:25Z</time>
      </trkpt>
      <trkpt lat="43.70267" lon="5.0833">
        <ele>159</ele>
        <time>2019-09-26T13:31:26Z</time>
      </trkpt>
      <trkpt lat="43.70267" lon="5.08333">
        <ele>159</ele>
        <time>2019-09-26T13:31:28Z</time>
      </trkpt>
      <trkpt lat="43.70265" lon="5.08336">
        <ele>159</ele>
        <time>2019-09-26T13:31:31Z</time>
      </trkpt>
      <trkpt lat="43.70264" lon="5.08339">
        <ele>159</ele>
        <time>2019-09-26T13:31:34Z</time>
      </trkpt>
      <trkpt lat="43.70264" lon="5.08339">
        <ele>157</ele>
        <time>2019-09-26T13:31:36Z</time>
      </trkpt>
      <trkpt lat="43.70261" lon="5.08343">
        <ele>157</ele>
        <time>2019-09-26T13:31:37Z</time>
      </trkpt>
      <trkpt lat="43.70261" lon="5.08345">
        <ele>157</ele>
        <time>2019-09-26T13:31:39Z</time>
      </trkpt>
      <trkpt lat="43.7026" lon="5.08346">
        <ele>157</ele>
        <time>2019-09-26T13:31:42Z</time>
      </trkpt>
      <trkpt lat="43.7026" lon="5.08348">
        <ele>157</ele>
        <time>2019-09-26T13:31:45Z</time>
      </trkpt>
      <trkpt lat="43.70259" lon="5.0835">
        <ele>156</ele>
        <time>2019-09-26T13:31:46Z</time>
      </trkpt>
      <trkpt lat="43.70258" lon="5.08353">
        <ele>156</ele>
        <time>2019-09-26T13:31:48Z</time>
      </trkpt>
      <trkpt lat="43.70258" lon="5.08356">
        <ele>156</ele>
        <time>2019-09-26T13:31:50Z</time>
      </trkpt>
      <trkpt lat="43.70258" lon="5.08359">
        <ele>156</ele>
        <time>2019-09-26T13:31:53Z</time>
      </trkpt>
      <trkpt lat="43.70257" lon="5.08362">
        <ele>156</ele>
        <time>2019-09-26T13:31:56Z</time>
      </trkpt>
      <trkpt lat="43.70256" lon="5.08364">
        <ele>156</ele>
        <time>2019-09-26T13:31:59Z</time>
      </trkpt>
      <trkpt lat="43.70256" lon="5.08368">
        <ele>156</ele>
        <time>2019-09-26T13:32:03Z</time>
      </trkpt>
      <trkpt lat="43.70257" lon="5.0837">
        <ele>153</ele>
        <time>2019-09-26T13:32:06Z</time>
      </trkpt>
      <trkpt lat="43.70259" lon="5.08374">
        <ele>153</ele>
        <time>2019-09-26T13:32:09Z</time>
      </trkpt>
      <trkpt lat="43.70259" lon="5.08376">
        <ele>153</ele>
        <time>2019-09-26T13:32:12Z</time>
      </trkpt>
      <trkpt lat="43.70259" lon="5.08377">
        <ele>152</ele>
        <time>2019-09-26T13:32:16Z</time>
      </trkpt>
      <trkpt lat="43.7026" lon="5.08379">
        <ele>152</ele>
        <time>2019-09-26T13:32:21Z</time>
      </trkpt>
      <trkpt lat="43.7026" lon="5.08381">
        <ele>150</ele>
        <time>2019-09-26T13:32:26Z</time>
      </trkpt>
      <trkpt lat="43.7026" lon="5.08383">
        <ele>150</ele>
        <time>2019-09-26T13:32:27Z</time>
      </trkpt>
      <trkpt lat="43.7026" lon="5.08385">
        <ele>150</ele>
        <time>2019-09-26T13:32:30Z</time>
      </trkpt>
      <trkpt lat="43.70261" lon="5.08387">
        <ele>150</ele>
        <time>2019-09-26T13:32:32Z</time>
      </trkpt>
      <trkpt lat="43.70261" lon="5.08389">
        <ele>150</ele>
        <time>2019-09-26T13:32:35Z</time>
      </trkpt>
      <trkpt lat="43.70261" lon="5.0839">
        <ele>150</ele>
        <time>2019-09-26T13:32:36Z</time>
      </trkpt>
      <trkpt lat="43.7026" lon="5.08393">
        <ele>150</ele>
        <time>2019-09-26T13:32:38Z</time>
      </trkpt>
      <trkpt lat="43.70261" lon="5.08396">
        <ele>150</ele>
        <time>2019-09-26T13:32:40Z</time>
      </trkpt>
      <trkpt lat="43.7026" lon="5.08399">
        <ele>150</ele>
        <time>2019-09-26T13:32:43Z</time>
      </trkpt>
      <trkpt lat="43.70258" lon="5.08402">
        <ele>148</ele>
        <time>2019-09-26T13:32:46Z</time>
      </trkpt>
      <trkpt lat="43.70257" lon="5.08407">
        <ele>148</ele>
        <time>2019-09-26T13:32:49Z</time>
      </trkpt>
      <trkpt lat="43.70257" lon="5.08408">
        <ele>148</ele>
        <time>2019-09-26T13:32:52Z</time>
      </trkpt>
      <trkpt lat="43.70257" lon="5.0841">
        <ele>148</ele>
        <time>2019-09-26T13:32:55Z</time>
      </trkpt>
      <trkpt lat="43.70256" lon="5.08412">
        <ele>147</ele>
        <time>2019-09-26T13:32:56Z</time>
      </trkpt>
      <trkpt lat="43.70256" lon="5.08415">
        <ele>147</ele>
        <time>2019-09-26T13:32:58Z</time>
      </trkpt>
      <trkpt lat="43.70254" lon="5.08418">
        <ele>147</ele>
        <time>2019-09-26T13:33:01Z</time>
      </trkpt>
      <trkpt lat="43.70253" lon="5.08421">
        <ele>147</ele>
        <time>2019-09-26T13:33:04Z</time>
      </trkpt>
      <trkpt lat="43.70253" lon="5.08421">
        <ele>145</ele>
        <time>2019-09-26T13:33:06Z</time>
      </trkpt>
      <trkpt lat="43.70251" lon="5.08423">
        <ele>145</ele>
        <time>2019-09-26T13:33:07Z</time>
      </trkpt>
      <trkpt lat="43.7025" lon="5.08426">
        <ele>145</ele>
        <time>2019-09-26T13:33:10Z</time>
      </trkpt>
      <trkpt lat="43.70248" lon="5.08428">
        <ele>145</ele>
        <time>2019-09-26T13:33:13Z</time>
      </trkpt>
      <trkpt lat="43.70246" lon="5.0843">
        <ele>145</ele>
        <time>2019-09-26T13:33:16Z</time>
      </trkpt>
      <trkpt lat="43.70244" lon="5.08432">
        <ele>145</ele>
        <time>2019-09-26T13:33:20Z</time>
      </trkpt>
      <trkpt lat="43.70243" lon="5.08433">
        <ele>145</ele>
        <time>2019-09-26T13:33:23Z</time>
      </trkpt>
      <trkpt lat="43.70243" lon="5.08433">
        <ele>145</ele>
        <time>2019-09-26T13:33:26Z</time>
      </trkpt>
      <trkpt lat="43.70241" lon="5.08435">
        <ele>145</ele>
        <time>2019-09-26T13:33:27Z</time>
      </trkpt>
      <trkpt lat="43.70239" lon="5.08436">
        <ele>145</ele>
        <time>2019-09-26T13:33:31Z</time>
      </trkpt>
      <trkpt lat="43.70238" lon="5.08438">
        <ele>145</ele>
        <time>2019-09-26T13:33:34Z</time>
      </trkpt>
      <trkpt lat="43.70238" lon="5.08438">
        <ele>143</ele>
        <time>2019-09-26T13:33:36Z</time>
      </trkpt>
      <trkpt lat="43.70235" lon="5.0844">
        <ele>143</ele>
        <time>2019-09-26T13:33:38Z</time>
      </trkpt>
      <trkpt lat="43.70233" lon="5.0844">
        <ele>143</ele>
        <time>2019-09-26T13:33:42Z</time>
      </trkpt>
      <trkpt lat="43.70232" lon="5.08441">
        <ele>142</ele>
        <time>2019-09-26T13:33:46Z</time>
      </trkpt>
      <trkpt lat="43.7023" lon="5.08442">
        <ele>142</ele>
        <time>2019-09-26T13:33:50Z</time>
      </trkpt>
      <trkpt lat="43.70229" lon="5.08443">
        <ele>142</ele>
        <time>2019-09-26T13:33:53Z</time>
      </trkpt>
      <trkpt lat="43.70228" lon="5.08444">
        <ele>142</ele>
        <time>2019-09-26T13:33:55Z</time>
      </trkpt>
      <trkpt lat="43.70226" lon="5.08445">
        <ele>141</ele>
        <time>2019-09-26T13:33:56Z</time>
      </trkpt>
      <trkpt lat="43.70223" lon="5.08444">
        <ele>141</ele>
        <time>2019-09-26T13:33:57Z</time>
      </trkpt>
      <trkpt lat="43.70221" lon="5.08443">
        <ele>141</ele>
        <time>2019-09-26T13:33:59Z</time>
      </trkpt>
      <trkpt lat="43.7022" lon="5.08442">
        <ele>141</ele>
        <time>2019-09-26T13:34:01Z</time>
      </trkpt>
      <trkpt lat="43.70219" lon="5.08441">
        <ele>141</ele>
        <time>2019-09-26T13:34:03Z</time>
      </trkpt>
      <trkpt lat="43.70218" lon="5.0844">
        <ele>141</ele>
        <time>2019-09-26T13:34:05Z</time>
      </trkpt>
      <trkpt lat="43.70216" lon="5.08439">
        <ele>139</ele>
        <time>2019-09-26T13:34:06Z</time>
      </trkpt>
      <trkpt lat="43.70215" lon="5.08437">
        <ele>139</ele>
        <time>2019-09-26T13:34:08Z</time>
      </trkpt>
      <trkpt lat="43.70213" lon="5.08435">
        <ele>139</ele>
        <time>2019-09-26T13:34:11Z</time>
      </trkpt>
      <trkpt lat="43.70211" lon="5.08433">
        <ele>139</ele>
        <time>2019-09-26T13:34:14Z</time>
      </trkpt>
      <trkpt lat="43.7021" lon="5.08431">
        <ele>138</ele>
        <time>2019-09-26T13:34:16Z</time>
      </trkpt>
      <trkpt lat="43.70208" lon="5.08429">
        <ele>138</ele>
        <time>2019-09-26T13:34:18Z</time>
      </trkpt>
      <trkpt lat="43.70206" lon="5.08427">
        <ele>138</ele>
        <time>2019-09-26T13:34:21Z</time>
      </trkpt>
      <trkpt lat="43.70204" lon="5.08427">
        <ele>138</ele>
        <time>2019-09-26T13:34:23Z</time>
      </trkpt>
      <trkpt lat="43.70202" lon="5.08428">
        <ele>137</ele>
        <time>2019-09-26T13:34:26Z</time>
      </trkpt>
      <trkpt lat="43.70199" lon="5.0843">
        <ele>137</ele>
        <time>2019-09-26T13:34:29Z</time>
      </trkpt>
      <trkpt lat="43.70198" lon="5.08431">
        <ele>137</ele>
        <time>2019-09-26T13:34:32Z</time>
      </trkpt>
      <trkpt lat="43.70197" lon="5.08431">
        <ele>137</ele>
        <time>2019-09-26T13:34:35Z</time>
      </trkpt>
      <trkpt lat="43.70197" lon="5.08432">
        <ele>135</ele>
        <time>2019-09-26T13:34:36Z</time>
      </trkpt>
      <trkpt lat="43.70195" lon="5.08433">
        <ele>135</ele>
        <time>2019-09-26T13:34:38Z</time>
      </trkpt>
      <trkpt lat="43.70193" lon="5.08434">
        <ele>135</ele>
        <time>2019-09-26T13:34:41Z</time>
      </trkpt>
      <trkpt lat="43.70191" lon="5.08435">
        <ele>135</ele>
        <time>2019-09-26T13:34:44Z</time>
      </trkpt>
      <trkpt lat="43.70191" lon="5.08435">
        <ele>134</ele>
        <time>2019-09-26T13:34:46Z</time>
      </trkpt>
      <trkpt lat="43.70187" lon="5.08437">
        <ele>134</ele>
        <time>2019-09-26T13:34:47Z</time>
      </trkpt>
      <trkpt lat="43.70186" lon="5.08437">
        <ele>134</ele>
        <time>2019-09-26T13:34:49Z</time>
      </trkpt>
      <trkpt lat="43.70184" lon="5.08437">
        <ele>134</ele>
        <time>2019-09-26T13:34:51Z</time>
      </trkpt>
      <trkpt lat="43.70183" lon="5.08437">
        <ele>134</ele>
        <time>2019-09-26T13:34:53Z</time>
      </trkpt>
      <trkpt lat="43.70181" lon="5.08437">
        <ele>134</ele>
        <time>2019-09-26T13:34:55Z</time>
      </trkpt>
      <trkpt lat="43.7018" lon="5.08438">
        <ele>132</ele>
        <time>2019-09-26T13:34:56Z</time>
      </trkpt>
      <trkpt lat="43.70177" lon="5.08439">
        <ele>132</ele>
        <time>2019-09-26T13:34:58Z</time>
      </trkpt>
      <trkpt lat="43.70176" lon="5.0844">
        <ele>132</ele>
        <time>2019-09-26T13:35:01Z</time>
      </trkpt>
      <trkpt lat="43.70175" lon="5.0844">
        <ele>132</ele>
        <time>2019-09-26T13:35:05Z</time>
      </trkpt>
      <trkpt lat="43.70174" lon="5.08441">
        <ele>130</ele>
        <time>2019-09-26T13:35:06Z</time>
      </trkpt>
      <trkpt lat="43.7017" lon="5.08442">
        <ele>130</ele>
        <time>2019-09-26T13:35:09Z</time>
      </trkpt>
      <trkpt lat="43.70168" lon="5.08443">
        <ele>129</ele>
        <time>2019-09-26T13:35:16Z</time>
      </trkpt>
      <trkpt lat="43.70166" lon="5.08443">
        <ele>129</ele>
        <time>2019-09-26T13:35:20Z</time>
      </trkpt>
      <trkpt lat="43.70165" lon="5.08444">
        <ele>129</ele>
        <time>2019-09-26T13:35:26Z</time>
      </trkpt>
      <trkpt lat="43.70163" lon="5.08445">
        <ele>129</ele>
        <time>2019-09-26T13:35:38Z</time>
      </trkpt>
      <trkpt lat="43.70161" lon="5.08445">
        <ele>129</ele>
        <time>2019-09-26T13:35:39Z</time>
      </trkpt>
      <trkpt lat="43.70159" lon="5.08446">
        <ele>129</ele>
        <time>2019-09-26T13:35:40Z</time>
      </trkpt>
      <trkpt lat="43.70157" lon="5.08447">
        <ele>129</ele>
        <time>2019-09-26T13:35:43Z</time>
      </trkpt>
      <trkpt lat="43.70156" lon="5.08447">
        <ele>129</ele>
        <time>2019-09-26T13:35:45Z</time>
      </trkpt>
      <trkpt lat="43.70154" lon="5.08448">
        <ele>129</ele>
        <time>2019-09-26T13:35:47Z</time>
      </trkpt>
      <trkpt lat="43.70152" lon="5.08449">
        <ele>125</ele>
        <time>2019-09-26T13:35:48Z</time>
      </trkpt>
      <trkpt lat="43.70148" lon="5.08451">
        <ele>125</ele>
        <time>2019-09-26T13:35:50Z</time>
      </trkpt>
      <trkpt lat="43.70147" lon="5.08451">
        <ele>125</ele>
        <time>2019-09-26T13:35:52Z</time>
      </trkpt>
      <trkpt lat="43.70146" lon="5.08451">
        <ele>125</ele>
        <time>2019-09-26T13:35:54Z</time>
      </trkpt>
      <trkpt lat="43.70144" lon="5.08451">
        <ele>125</ele>
        <time>2019-09-26T13:35:57Z</time>
      </trkpt>
      <trkpt lat="43.70143" lon="5.08451">
        <ele>122</ele>
        <time>2019-09-26T13:35:58Z</time>
      </trkpt>
      <trkpt lat="43.70141" lon="5.08452">
        <ele>122</ele>
        <time>2019-09-26T13:35:59Z</time>
      </trkpt>
      <trkpt lat="43.7014" lon="5.08453">
        <ele>122</ele>
        <time>2019-09-26T13:36:01Z</time>
      </trkpt>
      <trkpt lat="43.70137" lon="5.08454">
        <ele>122</ele>
        <time>2019-09-26T13:36:04Z</time>
      </trkpt>
      <trkpt lat="43.70135" lon="5.08455">
        <ele>122</ele>
        <time>2019-09-26T13:36:06Z</time>
      </trkpt>
      <trkpt lat="43.70134" lon="5.08457">
        <ele>121</ele>
        <time>2019-09-26T13:36:08Z</time>
      </trkpt>
      <trkpt lat="43.70132" lon="5.0846">
        <ele>121</ele>
        <time>2019-09-26T13:36:12Z</time>
      </trkpt>
      <trkpt lat="43.70131" lon="5.0846">
        <ele>121</ele>
        <time>2019-09-26T13:36:15Z</time>
      </trkpt>
      <trkpt lat="43.7013" lon="5.0846">
        <ele>121</ele>
        <time>2019-09-26T13:36:17Z</time>
      </trkpt>
      <trkpt lat="43.70129" lon="5.08461">
        <ele>120</ele>
        <time>2019-09-26T13:36:18Z</time>
      </trkpt>
      <trkpt lat="43.70126" lon="5.08463">
        <ele>120</ele>
        <time>2019-09-26T13:36:19Z</time>
      </trkpt>
      <trkpt lat="43.70124" lon="5.08464">
        <ele>120</ele>
        <time>2019-09-26T13:36:22Z</time>
      </trkpt>
      <trkpt lat="43.70123" lon="5.08465">
        <ele>120</ele>
        <time>2019-09-26T13:36:24Z</time>
      </trkpt>
      <trkpt lat="43.70121" lon="5.08465">
        <ele>120</ele>
        <time>2019-09-26T13:36:27Z</time>
      </trkpt>
      <trkpt lat="43.7012" lon="5.08466">
        <ele>120</ele>
        <time>2019-09-26T13:36:28Z</time>
      </trkpt>
      <trkpt lat="43.70118" lon="5.08468">
        <ele>120</ele>
        <time>2019-09-26T13:36:29Z</time>
      </trkpt>
      <trkpt lat="43.70118" lon="5.08469">
        <ele>120</ele>
        <time>2019-09-26T13:36:32Z</time>
      </trkpt>
      <trkpt lat="43.70117" lon="5.0847">
        <ele>120</ele>
        <time>2019-09-26T13:36:37Z</time>
      </trkpt>
      <trkpt lat="43.70117" lon="5.08472">
        <ele>118</ele>
        <time>2019-09-26T13:36:38Z</time>
      </trkpt>
      <trkpt lat="43.70118" lon="5.08475">
        <ele>118</ele>
        <time>2019-09-26T13:36:40Z</time>
      </trkpt>
      <trkpt lat="43.70119" lon="5.08477">
        <ele>118</ele>
        <time>2019-09-26T13:36:42Z</time>
      </trkpt>
      <trkpt lat="43.70121" lon="5.08479">
        <ele>118</ele>
        <time>2019-09-26T13:36:45Z</time>
      </trkpt>
      <trkpt lat="43.70121" lon="5.08479">
        <ele>117</ele>
        <time>2019-09-26T13:36:48Z</time>
      </trkpt>
      <trkpt lat="43.70121" lon="5.08482">
        <ele>117</ele>
        <time>2019-09-26T13:36:49Z</time>
      </trkpt>
      <trkpt lat="43.70122" lon="5.08484">
        <ele>117</ele>
        <time>2019-09-26T13:36:56Z</time>
      </trkpt>
      <trkpt lat="43.70122" lon="5.08484">
        <ele>119</ele>
        <time>2019-09-26T13:36:58Z</time>
      </trkpt>
      <trkpt lat="43.70122" lon="5.08484">
        <ele>118</ele>
        <time>2019-09-26T13:37:08Z</time>
      </trkpt>
      <trkpt lat="43.70122" lon="5.08484">
        <ele>118</ele>
        <time>2019-09-26T13:37:18Z</time>
      </trkpt>
      <trkpt lat="43.70122" lon="5.08484">
        <ele>118</ele>
        <time>2019-09-26T13:37:21Z</time>
      </trkpt>
      <trkpt lat="43.70122" lon="5.08494">
        <ele>118</ele>
        <time>2019-09-26T13:37:22Z</time>
      </trkpt>
      <trkpt lat="43.70122" lon="5.08494">
        <ele>118</ele>
        <time>2019-09-26T13:37:38Z</time>
      </trkpt>
      <trkpt lat="43.70124" lon="5.085">
        <ele>118</ele>
        <time>2019-09-26T13:37:39Z</time>
      </trkpt>
      <trkpt lat="43.70124" lon="5.085">
        <ele>118</ele>
        <time>2019-09-26T13:37:45Z</time>
      </trkpt>
      <trkpt lat="43.70124" lon="5.08499">
        <ele>118</ele>
        <time>2019-09-26T13:37:46Z</time>
      </trkpt>
    </trkseg>
  </trk>
</gpx>